<?xml version="1.0" encoding="UTF-8" standalone="no" ?>
<gpx xmlns="http://www.topografix.com/GPX/1/1" xmlns:xsi="http://www.w3.org/2001/XMLSchema-instance" xsi:schemaLocation="http://www.topografix.com/GPX/1/1 http://www.topografix.com/GPX/1/1/gpx.xsd" version="1.1" creator="VisuGPX - https://www.visugpx.com">
  <metadata>
    <name>ski Tête Pelouse 2537m,Trou de la Mouche 2453m</name>
  </metadata>
  <trk>
    <name><![CDATA[ski Tête Pelouse 2537m,Trou de la Mouche 2453m]]></name>
    <trkseg>
      <trkpt lat="45.92321" lon="6.48371">
        <ele>1453</ele>
        <time>2019-02-06T08:25:28.000Z</time>
      </trkpt>
      <trkpt lat="45.92309" lon="6.48376">
        <ele>1453</ele>
        <time>2019-02-06T08:25:37.000Z</time>
      </trkpt>
      <trkpt lat="45.92304" lon="6.4838">
        <ele>1451.8000488281</ele>
        <time>2019-02-06T08:25:42.000Z</time>
      </trkpt>
      <trkpt lat="45.92301" lon="6.48381">
        <ele>1451.5999755859</ele>
        <time>2019-02-06T08:25:44.000Z</time>
      </trkpt>
      <trkpt lat="45.92294" lon="6.48381">
        <ele>1452.4000244141</ele>
        <time>2019-02-06T08:25:49.000Z</time>
      </trkpt>
      <trkpt lat="45.92286" lon="6.48385">
        <ele>1452.4000244141</ele>
        <time>2019-02-06T08:25:55.000Z</time>
      </trkpt>
      <trkpt lat="45.9228" lon="6.48388">
        <ele>1452.4000244141</ele>
        <time>2019-02-06T08:26:00.000Z</time>
      </trkpt>
      <trkpt lat="45.92274" lon="6.48392">
        <ele>1452.5999755859</ele>
        <time>2019-02-06T08:26:05.000Z</time>
      </trkpt>
      <trkpt lat="45.9227" lon="6.48394">
        <ele>1452.8000488281</ele>
        <time>2019-02-06T08:26:09.000Z</time>
      </trkpt>
      <trkpt lat="45.92264" lon="6.48397">
        <ele>1453.1999511719</ele>
        <time>2019-02-06T08:26:14.000Z</time>
      </trkpt>
      <trkpt lat="45.92258" lon="6.484">
        <ele>1453.5999755859</ele>
        <time>2019-02-06T08:26:20.000Z</time>
      </trkpt>
      <trkpt lat="45.92253" lon="6.48402">
        <ele>1454</ele>
        <time>2019-02-06T08:26:24.000Z</time>
      </trkpt>
      <trkpt lat="45.92252" lon="6.48402">
        <ele>1454</ele>
        <time>2019-02-06T08:26:25.000Z</time>
      </trkpt>
      <trkpt lat="45.92246" lon="6.48404">
        <ele>1454.4000244141</ele>
        <time>2019-02-06T08:26:30.000Z</time>
      </trkpt>
      <trkpt lat="45.9224" lon="6.48409">
        <ele>1455</ele>
        <time>2019-02-06T08:26:35.000Z</time>
      </trkpt>
      <trkpt lat="45.92235" lon="6.48414">
        <ele>1455.5999755859</ele>
        <time>2019-02-06T08:26:40.000Z</time>
      </trkpt>
      <trkpt lat="45.92232" lon="6.48416">
        <ele>1456.1999511719</ele>
        <time>2019-02-06T08:26:43.000Z</time>
      </trkpt>
      <trkpt lat="45.92231" lon="6.48417">
        <ele>1456.4000244141</ele>
        <time>2019-02-06T08:26:45.000Z</time>
      </trkpt>
      <trkpt lat="45.92226" lon="6.48423">
        <ele>1457.1999511719</ele>
        <time>2019-02-06T08:26:50.000Z</time>
      </trkpt>
      <trkpt lat="45.9222" lon="6.48428">
        <ele>1458</ele>
        <time>2019-02-06T08:26:55.000Z</time>
      </trkpt>
      <trkpt lat="45.92218" lon="6.4843">
        <ele>1458.4000244141</ele>
        <time>2019-02-06T08:26:57.000Z</time>
      </trkpt>
      <trkpt lat="45.92215" lon="6.48432">
        <ele>1458.8000488281</ele>
        <time>2019-02-06T08:27:00.000Z</time>
      </trkpt>
      <trkpt lat="45.9221" lon="6.48436">
        <ele>1459.4000244141</ele>
        <time>2019-02-06T08:27:04.000Z</time>
      </trkpt>
      <trkpt lat="45.92207" lon="6.48439">
        <ele>1460.4000244141</ele>
        <time>2019-02-06T08:27:08.000Z</time>
      </trkpt>
      <trkpt lat="45.92207" lon="6.48439">
        <ele>1460.5999755859</ele>
        <time>2019-02-06T08:27:09.000Z</time>
      </trkpt>
      <trkpt lat="45.92203" lon="6.48443">
        <ele>1461.1999511719</ele>
        <time>2019-02-06T08:27:13.000Z</time>
      </trkpt>
      <trkpt lat="45.92201" lon="6.48444">
        <ele>1461.5999755859</ele>
        <time>2019-02-06T08:27:15.000Z</time>
      </trkpt>
      <trkpt lat="45.92199" lon="6.48446">
        <ele>1462</ele>
        <time>2019-02-06T08:27:17.000Z</time>
      </trkpt>
      <trkpt lat="45.92196" lon="6.48449">
        <ele>1462.5999755859</ele>
        <time>2019-02-06T08:27:21.000Z</time>
      </trkpt>
      <trkpt lat="45.92195" lon="6.4845">
        <ele>1462.8000488281</ele>
        <time>2019-02-06T08:27:22.000Z</time>
      </trkpt>
      <trkpt lat="45.92193" lon="6.48452">
        <ele>1463.4000244141</ele>
        <time>2019-02-06T08:27:26.000Z</time>
      </trkpt>
      <trkpt lat="45.92191" lon="6.48455">
        <ele>1463.8000488281</ele>
        <time>2019-02-06T08:27:29.000Z</time>
      </trkpt>
      <trkpt lat="45.9219" lon="6.48456">
        <ele>1464.1999511719</ele>
        <time>2019-02-06T08:27:31.000Z</time>
      </trkpt>
      <trkpt lat="45.92189" lon="6.48458">
        <ele>1464.1999511719</ele>
        <time>2019-02-06T08:27:32.000Z</time>
      </trkpt>
      <trkpt lat="45.92186" lon="6.48463">
        <ele>1464.5999755859</ele>
        <time>2019-02-06T08:27:36.000Z</time>
      </trkpt>
      <trkpt lat="45.92187" lon="6.48463">
        <ele>1465</ele>
        <time>2019-02-06T08:27:38.000Z</time>
      </trkpt>
      <trkpt lat="45.92186" lon="6.48464">
        <ele>1465.4000244141</ele>
        <time>2019-02-06T08:27:40.000Z</time>
      </trkpt>
      <trkpt lat="45.92181" lon="6.48469">
        <ele>1465.5999755859</ele>
        <time>2019-02-06T08:27:45.000Z</time>
      </trkpt>
      <trkpt lat="45.9218" lon="6.4847">
        <ele>1466</ele>
        <time>2019-02-06T08:27:47.000Z</time>
      </trkpt>
      <trkpt lat="45.92178" lon="6.48473">
        <ele>1466.4000244141</ele>
        <time>2019-02-06T08:27:50.000Z</time>
      </trkpt>
      <trkpt lat="45.92176" lon="6.48478">
        <ele>1467</ele>
        <time>2019-02-06T08:27:54.000Z</time>
      </trkpt>
      <trkpt lat="45.92175" lon="6.48478">
        <ele>1467.4000244141</ele>
        <time>2019-02-06T08:27:55.000Z</time>
      </trkpt>
      <trkpt lat="45.92173" lon="6.48483">
        <ele>1467.8000488281</ele>
        <time>2019-02-06T08:28:01.000Z</time>
      </trkpt>
      <trkpt lat="45.9217" lon="6.48487">
        <ele>1468.1999511719</ele>
        <time>2019-02-06T08:28:05.000Z</time>
      </trkpt>
      <trkpt lat="45.92169" lon="6.48488">
        <ele>1468.1999511719</ele>
        <time>2019-02-06T08:28:06.000Z</time>
      </trkpt>
      <trkpt lat="45.92165" lon="6.48493">
        <ele>1469</ele>
        <time>2019-02-06T08:28:11.000Z</time>
      </trkpt>
      <trkpt lat="45.92163" lon="6.48495">
        <ele>1469.1999511719</ele>
        <time>2019-02-06T08:28:13.000Z</time>
      </trkpt>
      <trkpt lat="45.92161" lon="6.48497">
        <ele>1469.5999755859</ele>
        <time>2019-02-06T08:28:16.000Z</time>
      </trkpt>
      <trkpt lat="45.92159" lon="6.485">
        <ele>1470.4000244141</ele>
        <time>2019-02-06T08:28:19.000Z</time>
      </trkpt>
      <trkpt lat="45.92158" lon="6.48501">
        <ele>1470.5999755859</ele>
        <time>2019-02-06T08:28:21.000Z</time>
      </trkpt>
      <trkpt lat="45.92154" lon="6.48504">
        <ele>1471</ele>
        <time>2019-02-06T08:28:26.000Z</time>
      </trkpt>
      <trkpt lat="45.92152" lon="6.48504">
        <ele>1471.4000244141</ele>
        <time>2019-02-06T08:28:29.000Z</time>
      </trkpt>
      <trkpt lat="45.92152" lon="6.48503">
        <ele>1471.8000488281</ele>
        <time>2019-02-06T08:28:31.000Z</time>
      </trkpt>
      <trkpt lat="45.92148" lon="6.48501">
        <ele>1472</ele>
        <time>2019-02-06T08:28:36.000Z</time>
      </trkpt>
      <trkpt lat="45.92142" lon="6.485">
        <ele>1472.1999511719</ele>
        <time>2019-02-06T08:28:41.000Z</time>
      </trkpt>
      <trkpt lat="45.92135" lon="6.48499">
        <ele>1472.4000244141</ele>
        <time>2019-02-06T08:28:47.000Z</time>
      </trkpt>
      <trkpt lat="45.92132" lon="6.48499">
        <ele>1472.4000244141</ele>
        <time>2019-02-06T08:28:49.000Z</time>
      </trkpt>
      <trkpt lat="45.92128" lon="6.48499">
        <ele>1472.4000244141</ele>
        <time>2019-02-06T08:28:52.000Z</time>
      </trkpt>
      <trkpt lat="45.92127" lon="6.48499">
        <ele>1472.4000244141</ele>
        <time>2019-02-06T08:28:53.000Z</time>
      </trkpt>
      <trkpt lat="45.92118" lon="6.48499">
        <ele>1472.1999511719</ele>
        <time>2019-02-06T08:28:59.000Z</time>
      </trkpt>
      <trkpt lat="45.92109" lon="6.48496">
        <ele>1472</ele>
        <time>2019-02-06T08:29:05.000Z</time>
      </trkpt>
      <trkpt lat="45.92099" lon="6.48492">
        <ele>1472</ele>
        <time>2019-02-06T08:29:12.000Z</time>
      </trkpt>
      <trkpt lat="45.92093" lon="6.4849">
        <ele>1472</ele>
        <time>2019-02-06T08:29:18.000Z</time>
      </trkpt>
      <trkpt lat="45.92086" lon="6.48488">
        <ele>1472</ele>
        <time>2019-02-06T08:29:25.000Z</time>
      </trkpt>
      <trkpt lat="45.92084" lon="6.48487">
        <ele>1472</ele>
        <time>2019-02-06T08:29:30.000Z</time>
      </trkpt>
      <trkpt lat="45.92081" lon="6.48481">
        <ele>1472</ele>
        <time>2019-02-06T08:29:36.000Z</time>
      </trkpt>
      <trkpt lat="45.92079" lon="6.48482">
        <ele>1472.1999511719</ele>
        <time>2019-02-06T08:29:43.000Z</time>
      </trkpt>
      <trkpt lat="45.92079" lon="6.48484">
        <ele>1472.4000244141</ele>
        <time>2019-02-06T08:29:53.000Z</time>
      </trkpt>
      <trkpt lat="45.92079" lon="6.48486">
        <ele>1473.4000244141</ele>
        <time>2019-02-06T08:30:00.000Z</time>
      </trkpt>
      <trkpt lat="45.92079" lon="6.48488">
        <ele>1473.8000488281</ele>
        <time>2019-02-06T08:30:01.000Z</time>
      </trkpt>
      <trkpt lat="45.92079" lon="6.48489">
        <ele>1473.8000488281</ele>
        <time>2019-02-06T08:30:02.000Z</time>
      </trkpt>
      <trkpt lat="45.92077" lon="6.4849">
        <ele>1474</ele>
        <time>2019-02-06T08:30:04.000Z</time>
      </trkpt>
      <trkpt lat="45.92076" lon="6.4849">
        <ele>1474.1999511719</ele>
        <time>2019-02-06T08:30:05.000Z</time>
      </trkpt>
      <trkpt lat="45.92072" lon="6.4849">
        <ele>1474.8000488281</ele>
        <time>2019-02-06T08:30:10.000Z</time>
      </trkpt>
      <trkpt lat="45.92067" lon="6.4849">
        <ele>1476</ele>
        <time>2019-02-06T08:30:15.000Z</time>
      </trkpt>
      <trkpt lat="45.92062" lon="6.48492">
        <ele>1477</ele>
        <time>2019-02-06T08:30:20.000Z</time>
      </trkpt>
      <trkpt lat="45.9206" lon="6.48493">
        <ele>1477.1999511719</ele>
        <time>2019-02-06T08:30:22.000Z</time>
      </trkpt>
      <trkpt lat="45.92056" lon="6.48495">
        <ele>1477.4000244141</ele>
        <time>2019-02-06T08:30:26.000Z</time>
      </trkpt>
      <trkpt lat="45.92052" lon="6.485">
        <ele>1477.8000488281</ele>
        <time>2019-02-06T08:30:31.000Z</time>
      </trkpt>
      <trkpt lat="45.9205" lon="6.48503">
        <ele>1478.1999511719</ele>
        <time>2019-02-06T08:30:34.000Z</time>
      </trkpt>
      <trkpt lat="45.92049" lon="6.48504">
        <ele>1478.4000244141</ele>
        <time>2019-02-06T08:30:36.000Z</time>
      </trkpt>
      <trkpt lat="45.92045" lon="6.48507">
        <ele>1479</ele>
        <time>2019-02-06T08:30:41.000Z</time>
      </trkpt>
      <trkpt lat="45.92044" lon="6.48508">
        <ele>1479.1999511719</ele>
        <time>2019-02-06T08:30:43.000Z</time>
      </trkpt>
      <trkpt lat="45.9204" lon="6.48511">
        <ele>1479.8000488281</ele>
        <time>2019-02-06T08:30:47.000Z</time>
      </trkpt>
      <trkpt lat="45.92039" lon="6.48514">
        <ele>1480.1999511719</ele>
        <time>2019-02-06T08:30:50.000Z</time>
      </trkpt>
      <trkpt lat="45.92038" lon="6.48517">
        <ele>1480.1999511719</ele>
        <time>2019-02-06T08:30:52.000Z</time>
      </trkpt>
      <trkpt lat="45.92035" lon="6.48522">
        <ele>1481</ele>
        <time>2019-02-06T08:30:57.000Z</time>
      </trkpt>
      <trkpt lat="45.92034" lon="6.48524">
        <ele>1481.4000244141</ele>
        <time>2019-02-06T08:30:59.000Z</time>
      </trkpt>
      <trkpt lat="45.92032" lon="6.48528">
        <ele>1482</ele>
        <time>2019-02-06T08:31:03.000Z</time>
      </trkpt>
      <trkpt lat="45.9203" lon="6.48531">
        <ele>1482.4000244141</ele>
        <time>2019-02-06T08:31:05.000Z</time>
      </trkpt>
      <trkpt lat="45.92029" lon="6.48533">
        <ele>1482.8000488281</ele>
        <time>2019-02-06T08:31:07.000Z</time>
      </trkpt>
      <trkpt lat="45.92029" lon="6.48534">
        <ele>1483.1999511719</ele>
        <time>2019-02-06T08:31:08.000Z</time>
      </trkpt>
      <trkpt lat="45.92028" lon="6.48534">
        <ele>1483.4000244141</ele>
        <time>2019-02-06T08:31:09.000Z</time>
      </trkpt>
      <trkpt lat="45.92026" lon="6.48539">
        <ele>1484.4000244141</ele>
        <time>2019-02-06T08:31:13.000Z</time>
      </trkpt>
      <trkpt lat="45.92025" lon="6.4854">
        <ele>1484.5999755859</ele>
        <time>2019-02-06T08:31:14.000Z</time>
      </trkpt>
      <trkpt lat="45.92023" lon="6.48546">
        <ele>1485.8000488281</ele>
        <time>2019-02-06T08:31:19.000Z</time>
      </trkpt>
      <trkpt lat="45.92023" lon="6.48546">
        <ele>1486</ele>
        <time>2019-02-06T08:31:20.000Z</time>
      </trkpt>
      <trkpt lat="45.9202" lon="6.48552">
        <ele>1486.8000488281</ele>
        <time>2019-02-06T08:31:25.000Z</time>
      </trkpt>
      <trkpt lat="45.9202" lon="6.48553">
        <ele>1487</ele>
        <time>2019-02-06T08:31:26.000Z</time>
      </trkpt>
      <trkpt lat="45.92017" lon="6.48559">
        <ele>1487.8000488281</ele>
        <time>2019-02-06T08:31:31.000Z</time>
      </trkpt>
      <trkpt lat="45.92016" lon="6.48561">
        <ele>1488</ele>
        <time>2019-02-06T08:31:33.000Z</time>
      </trkpt>
      <trkpt lat="45.92014" lon="6.48566">
        <ele>1489</ele>
        <time>2019-02-06T08:31:39.000Z</time>
      </trkpt>
      <trkpt lat="45.92011" lon="6.48571">
        <ele>1489.8000488281</ele>
        <time>2019-02-06T08:31:44.000Z</time>
      </trkpt>
      <trkpt lat="45.92011" lon="6.48571">
        <ele>1490</ele>
        <time>2019-02-06T08:31:46.000Z</time>
      </trkpt>
      <trkpt lat="45.92011" lon="6.48571">
        <ele>1490.4000244141</ele>
        <time>2019-02-06T08:31:51.000Z</time>
      </trkpt>
      <trkpt lat="45.92008" lon="6.48573">
        <ele>1490.1999511719</ele>
        <time>2019-02-06T08:32:00.000Z</time>
      </trkpt>
      <trkpt lat="45.92005" lon="6.48575">
        <ele>1490.8000488281</ele>
        <time>2019-02-06T08:32:05.000Z</time>
      </trkpt>
      <trkpt lat="45.92003" lon="6.48575">
        <ele>1491</ele>
        <time>2019-02-06T08:32:07.000Z</time>
      </trkpt>
      <trkpt lat="45.92001" lon="6.48575">
        <ele>1491.1999511719</ele>
        <time>2019-02-06T08:32:10.000Z</time>
      </trkpt>
      <trkpt lat="45.92" lon="6.48576">
        <ele>1491.1999511719</ele>
        <time>2019-02-06T08:32:11.000Z</time>
      </trkpt>
      <trkpt lat="45.91999" lon="6.48577">
        <ele>1491.4000244141</ele>
        <time>2019-02-06T08:32:15.000Z</time>
      </trkpt>
      <trkpt lat="45.91999" lon="6.48578">
        <ele>1491.4000244141</ele>
        <time>2019-02-06T08:32:16.000Z</time>
      </trkpt>
      <trkpt lat="45.91998" lon="6.48583">
        <ele>1491.8000488281</ele>
        <time>2019-02-06T08:32:20.000Z</time>
      </trkpt>
      <trkpt lat="45.91998" lon="6.48587">
        <ele>1492</ele>
        <time>2019-02-06T08:32:25.000Z</time>
      </trkpt>
      <trkpt lat="45.91997" lon="6.48591">
        <ele>1492</ele>
        <time>2019-02-06T08:32:31.000Z</time>
      </trkpt>
      <trkpt lat="45.91997" lon="6.48594">
        <ele>1492.1999511719</ele>
        <time>2019-02-06T08:32:36.000Z</time>
      </trkpt>
      <trkpt lat="45.91996" lon="6.48599">
        <ele>1492.5999755859</ele>
        <time>2019-02-06T08:32:42.000Z</time>
      </trkpt>
      <trkpt lat="45.91995" lon="6.48603">
        <ele>1493.4000244141</ele>
        <time>2019-02-06T08:32:46.000Z</time>
      </trkpt>
      <trkpt lat="45.91994" lon="6.48607">
        <ele>1494.1999511719</ele>
        <time>2019-02-06T08:32:48.000Z</time>
      </trkpt>
      <trkpt lat="45.91994" lon="6.48607">
        <ele>1494.4000244141</ele>
        <time>2019-02-06T08:32:49.000Z</time>
      </trkpt>
      <trkpt lat="45.91993" lon="6.4861">
        <ele>1495.1999511719</ele>
        <time>2019-02-06T08:32:53.000Z</time>
      </trkpt>
      <trkpt lat="45.91991" lon="6.48614">
        <ele>1495.4000244141</ele>
        <time>2019-02-06T08:32:56.000Z</time>
      </trkpt>
      <trkpt lat="45.91991" lon="6.48617">
        <ele>1495.5999755859</ele>
        <time>2019-02-06T08:32:58.000Z</time>
      </trkpt>
      <trkpt lat="45.91989" lon="6.4862">
        <ele>1496.5999755859</ele>
        <time>2019-02-06T08:33:02.000Z</time>
      </trkpt>
      <trkpt lat="45.91988" lon="6.48624">
        <ele>1497.1999511719</ele>
        <time>2019-02-06T08:33:05.000Z</time>
      </trkpt>
      <trkpt lat="45.91987" lon="6.48625">
        <ele>1497.5999755859</ele>
        <time>2019-02-06T08:33:07.000Z</time>
      </trkpt>
      <trkpt lat="45.91985" lon="6.48628">
        <ele>1498.1999511719</ele>
        <time>2019-02-06T08:33:10.000Z</time>
      </trkpt>
      <trkpt lat="45.91983" lon="6.48631">
        <ele>1498.8000488281</ele>
        <time>2019-02-06T08:33:13.000Z</time>
      </trkpt>
      <trkpt lat="45.91982" lon="6.48634">
        <ele>1499.1999511719</ele>
        <time>2019-02-06T08:33:16.000Z</time>
      </trkpt>
      <trkpt lat="45.91979" lon="6.48639">
        <ele>1499.8000488281</ele>
        <time>2019-02-06T08:33:21.000Z</time>
      </trkpt>
      <trkpt lat="45.91979" lon="6.4864">
        <ele>1500</ele>
        <time>2019-02-06T08:33:22.000Z</time>
      </trkpt>
      <trkpt lat="45.91976" lon="6.48646">
        <ele>1501</ele>
        <time>2019-02-06T08:33:28.000Z</time>
      </trkpt>
      <trkpt lat="45.91975" lon="6.48647">
        <ele>1501.1999511719</ele>
        <time>2019-02-06T08:33:29.000Z</time>
      </trkpt>
      <trkpt lat="45.91974" lon="6.4865">
        <ele>1502</ele>
        <time>2019-02-06T08:33:32.000Z</time>
      </trkpt>
      <trkpt lat="45.91972" lon="6.48653">
        <ele>1502.4000244141</ele>
        <time>2019-02-06T08:33:35.000Z</time>
      </trkpt>
      <trkpt lat="45.91971" lon="6.48658">
        <ele>1503</ele>
        <time>2019-02-06T08:33:40.000Z</time>
      </trkpt>
      <trkpt lat="45.91969" lon="6.48661">
        <ele>1504</ele>
        <time>2019-02-06T08:33:45.000Z</time>
      </trkpt>
      <trkpt lat="45.91968" lon="6.48662">
        <ele>1504.1999511719</ele>
        <time>2019-02-06T08:33:46.000Z</time>
      </trkpt>
      <trkpt lat="45.91965" lon="6.48667">
        <ele>1505</ele>
        <time>2019-02-06T08:33:51.000Z</time>
      </trkpt>
      <trkpt lat="45.91965" lon="6.48667">
        <ele>1505</ele>
        <time>2019-02-06T08:33:52.000Z</time>
      </trkpt>
      <trkpt lat="45.91965" lon="6.48667">
        <ele>1505.1999511719</ele>
        <time>2019-02-06T08:33:53.000Z</time>
      </trkpt>
      <trkpt lat="45.91964" lon="6.48668">
        <ele>1505.5999755859</ele>
        <time>2019-02-06T08:33:57.000Z</time>
      </trkpt>
      <trkpt lat="45.91962" lon="6.48671">
        <ele>1506.1999511719</ele>
        <time>2019-02-06T08:34:01.000Z</time>
      </trkpt>
      <trkpt lat="45.91961" lon="6.48673">
        <ele>1506.4000244141</ele>
        <time>2019-02-06T08:34:03.000Z</time>
      </trkpt>
      <trkpt lat="45.91958" lon="6.48677">
        <ele>1507.1999511719</ele>
        <time>2019-02-06T08:34:08.000Z</time>
      </trkpt>
      <trkpt lat="45.91958" lon="6.48678">
        <ele>1507.4000244141</ele>
        <time>2019-02-06T08:34:09.000Z</time>
      </trkpt>
      <trkpt lat="45.91955" lon="6.48682">
        <ele>1508.1999511719</ele>
        <time>2019-02-06T08:34:14.000Z</time>
      </trkpt>
      <trkpt lat="45.91956" lon="6.48681">
        <ele>1508.4000244141</ele>
        <time>2019-02-06T08:34:15.000Z</time>
      </trkpt>
      <trkpt lat="45.91955" lon="6.48682">
        <ele>1509.1999511719</ele>
        <time>2019-02-06T08:34:21.000Z</time>
      </trkpt>
      <trkpt lat="45.91952" lon="6.48686">
        <ele>1509.4000244141</ele>
        <time>2019-02-06T08:34:25.000Z</time>
      </trkpt>
      <trkpt lat="45.9195" lon="6.48687">
        <ele>1509.8000488281</ele>
        <time>2019-02-06T08:34:27.000Z</time>
      </trkpt>
      <trkpt lat="45.91948" lon="6.4869">
        <ele>1510.5999755859</ele>
        <time>2019-02-06T08:34:31.000Z</time>
      </trkpt>
      <trkpt lat="45.91946" lon="6.48692">
        <ele>1511</ele>
        <time>2019-02-06T08:34:33.000Z</time>
      </trkpt>
      <trkpt lat="45.91945" lon="6.48692">
        <ele>1511.5999755859</ele>
        <time>2019-02-06T08:34:35.000Z</time>
      </trkpt>
      <trkpt lat="45.91942" lon="6.48694">
        <ele>1512.1999511719</ele>
        <time>2019-02-06T08:34:38.000Z</time>
      </trkpt>
      <trkpt lat="45.9194" lon="6.48695">
        <ele>1512.8000488281</ele>
        <time>2019-02-06T08:34:41.000Z</time>
      </trkpt>
      <trkpt lat="45.9194" lon="6.48695">
        <ele>1513</ele>
        <time>2019-02-06T08:34:42.000Z</time>
      </trkpt>
      <trkpt lat="45.91938" lon="6.48697">
        <ele>1514</ele>
        <time>2019-02-06T08:34:46.000Z</time>
      </trkpt>
      <trkpt lat="45.91936" lon="6.48698">
        <ele>1514.4000244141</ele>
        <time>2019-02-06T08:34:48.000Z</time>
      </trkpt>
      <trkpt lat="45.91935" lon="6.48699">
        <ele>1515</ele>
        <time>2019-02-06T08:34:51.000Z</time>
      </trkpt>
      <trkpt lat="45.91933" lon="6.487">
        <ele>1515.5999755859</ele>
        <time>2019-02-06T08:34:53.000Z</time>
      </trkpt>
      <trkpt lat="45.91931" lon="6.487">
        <ele>1516.1999511719</ele>
        <time>2019-02-06T08:34:56.000Z</time>
      </trkpt>
      <trkpt lat="45.91928" lon="6.48701">
        <ele>1516.4000244141</ele>
        <time>2019-02-06T08:34:58.000Z</time>
      </trkpt>
      <trkpt lat="45.91926" lon="6.48703">
        <ele>1517</ele>
        <time>2019-02-06T08:35:02.000Z</time>
      </trkpt>
      <trkpt lat="45.91926" lon="6.48703">
        <ele>1517.1999511719</ele>
        <time>2019-02-06T08:35:04.000Z</time>
      </trkpt>
      <trkpt lat="45.91926" lon="6.48703">
        <ele>1517.5999755859</ele>
        <time>2019-02-06T08:35:11.000Z</time>
      </trkpt>
      <trkpt lat="45.91926" lon="6.48703">
        <ele>1517.5999755859</ele>
        <time>2019-02-06T08:35:19.000Z</time>
      </trkpt>
      <trkpt lat="45.91925" lon="6.48703">
        <ele>1517.4000244141</ele>
        <time>2019-02-06T08:35:31.000Z</time>
      </trkpt>
      <trkpt lat="45.91921" lon="6.48706">
        <ele>1518.4000244141</ele>
        <time>2019-02-06T08:35:36.000Z</time>
      </trkpt>
      <trkpt lat="45.91919" lon="6.48707">
        <ele>1518.5999755859</ele>
        <time>2019-02-06T08:35:37.000Z</time>
      </trkpt>
      <trkpt lat="45.91915" lon="6.48709">
        <ele>1519</ele>
        <time>2019-02-06T08:35:42.000Z</time>
      </trkpt>
      <trkpt lat="45.91911" lon="6.48711">
        <ele>1519.4000244141</ele>
        <time>2019-02-06T08:35:47.000Z</time>
      </trkpt>
      <trkpt lat="45.9191" lon="6.48713">
        <ele>1519.4000244141</ele>
        <time>2019-02-06T08:35:48.000Z</time>
      </trkpt>
      <trkpt lat="45.91907" lon="6.48714">
        <ele>1519.8000488281</ele>
        <time>2019-02-06T08:35:51.000Z</time>
      </trkpt>
      <trkpt lat="45.91903" lon="6.48715">
        <ele>1520.5999755859</ele>
        <time>2019-02-06T08:35:56.000Z</time>
      </trkpt>
      <trkpt lat="45.91903" lon="6.48715">
        <ele>1521.1999511719</ele>
        <time>2019-02-06T08:36:04.000Z</time>
      </trkpt>
      <trkpt lat="45.91903" lon="6.48715">
        <ele>1521.1999511719</ele>
        <time>2019-02-06T08:36:10.000Z</time>
      </trkpt>
      <trkpt lat="45.91903" lon="6.48715">
        <ele>1521.5999755859</ele>
        <time>2019-02-06T08:36:13.000Z</time>
      </trkpt>
      <trkpt lat="45.91903" lon="6.48715">
        <ele>1522</ele>
        <time>2019-02-06T08:36:19.000Z</time>
      </trkpt>
      <trkpt lat="45.91903" lon="6.48715">
        <ele>1521.5999755859</ele>
        <time>2019-02-06T08:36:29.000Z</time>
      </trkpt>
      <trkpt lat="45.91898" lon="6.48716">
        <ele>1521.1999511719</ele>
        <time>2019-02-06T08:36:34.000Z</time>
      </trkpt>
      <trkpt lat="45.91894" lon="6.48716">
        <ele>1521.4000244141</ele>
        <time>2019-02-06T08:36:39.000Z</time>
      </trkpt>
      <trkpt lat="45.91889" lon="6.48715">
        <ele>1523</ele>
        <time>2019-02-06T08:36:44.000Z</time>
      </trkpt>
      <trkpt lat="45.91885" lon="6.48715">
        <ele>1523.5999755859</ele>
        <time>2019-02-06T08:36:49.000Z</time>
      </trkpt>
      <trkpt lat="45.91883" lon="6.48714">
        <ele>1524.4000244141</ele>
        <time>2019-02-06T08:36:52.000Z</time>
      </trkpt>
      <trkpt lat="45.9188" lon="6.48713">
        <ele>1524.8000488281</ele>
        <time>2019-02-06T08:36:54.000Z</time>
      </trkpt>
      <trkpt lat="45.91874" lon="6.48712">
        <ele>1525.1999511719</ele>
        <time>2019-02-06T08:37:00.000Z</time>
      </trkpt>
      <trkpt lat="45.91873" lon="6.48712">
        <ele>1525.4000244141</ele>
        <time>2019-02-06T08:37:01.000Z</time>
      </trkpt>
      <trkpt lat="45.91869" lon="6.48712">
        <ele>1526.4000244141</ele>
        <time>2019-02-06T08:37:06.000Z</time>
      </trkpt>
      <trkpt lat="45.91869" lon="6.48712">
        <ele>1526.5999755859</ele>
        <time>2019-02-06T08:37:07.000Z</time>
      </trkpt>
      <trkpt lat="45.91866" lon="6.48712">
        <ele>1526.5999755859</ele>
        <time>2019-02-06T08:37:13.000Z</time>
      </trkpt>
      <trkpt lat="45.91861" lon="6.48711">
        <ele>1527</ele>
        <time>2019-02-06T08:37:18.000Z</time>
      </trkpt>
      <trkpt lat="45.91859" lon="6.48711">
        <ele>1527.5999755859</ele>
        <time>2019-02-06T08:37:20.000Z</time>
      </trkpt>
      <trkpt lat="45.91856" lon="6.48711">
        <ele>1528.8000488281</ele>
        <time>2019-02-06T08:37:23.000Z</time>
      </trkpt>
      <trkpt lat="45.91856" lon="6.48712">
        <ele>1529</ele>
        <time>2019-02-06T08:37:24.000Z</time>
      </trkpt>
      <trkpt lat="45.91851" lon="6.48711">
        <ele>1529.8000488281</ele>
        <time>2019-02-06T08:37:29.000Z</time>
      </trkpt>
      <trkpt lat="45.9185" lon="6.48711">
        <ele>1531.1999511719</ele>
        <time>2019-02-06T08:37:32.000Z</time>
      </trkpt>
      <trkpt lat="45.91847" lon="6.48711">
        <ele>1531.5999755859</ele>
        <time>2019-02-06T08:37:34.000Z</time>
      </trkpt>
      <trkpt lat="45.91845" lon="6.48711">
        <ele>1532.4000244141</ele>
        <time>2019-02-06T08:37:38.000Z</time>
      </trkpt>
      <trkpt lat="45.91845" lon="6.48711">
        <ele>1532.8000488281</ele>
        <time>2019-02-06T08:37:39.000Z</time>
      </trkpt>
      <trkpt lat="45.91842" lon="6.4871">
        <ele>1533.5999755859</ele>
        <time>2019-02-06T08:37:42.000Z</time>
      </trkpt>
      <trkpt lat="45.9184" lon="6.48709">
        <ele>1533.5999755859</ele>
        <time>2019-02-06T08:37:44.000Z</time>
      </trkpt>
      <trkpt lat="45.91836" lon="6.4871">
        <ele>1533.4000244141</ele>
        <time>2019-02-06T08:37:49.000Z</time>
      </trkpt>
      <trkpt lat="45.91834" lon="6.48711">
        <ele>1533.4000244141</ele>
        <time>2019-02-06T08:37:50.000Z</time>
      </trkpt>
      <trkpt lat="45.91832" lon="6.48712">
        <ele>1535.1999511719</ele>
        <time>2019-02-06T08:37:54.000Z</time>
      </trkpt>
      <trkpt lat="45.91831" lon="6.48713">
        <ele>1536.4000244141</ele>
        <time>2019-02-06T08:37:56.000Z</time>
      </trkpt>
      <trkpt lat="45.91828" lon="6.48714">
        <ele>1537</ele>
        <time>2019-02-06T08:37:59.000Z</time>
      </trkpt>
      <trkpt lat="45.91827" lon="6.48716">
        <ele>1537.4000244141</ele>
        <time>2019-02-06T08:38:01.000Z</time>
      </trkpt>
      <trkpt lat="45.91825" lon="6.48716">
        <ele>1537.5999755859</ele>
        <time>2019-02-06T08:38:04.000Z</time>
      </trkpt>
      <trkpt lat="45.91821" lon="6.48717">
        <ele>1538.1999511719</ele>
        <time>2019-02-06T08:38:09.000Z</time>
      </trkpt>
      <trkpt lat="45.91819" lon="6.48716">
        <ele>1538.5999755859</ele>
        <time>2019-02-06T08:38:10.000Z</time>
      </trkpt>
      <trkpt lat="45.91818" lon="6.48716">
        <ele>1539.4000244141</ele>
        <time>2019-02-06T08:38:13.000Z</time>
      </trkpt>
      <trkpt lat="45.91816" lon="6.48716">
        <ele>1539.5999755859</ele>
        <time>2019-02-06T08:38:16.000Z</time>
      </trkpt>
      <trkpt lat="45.91815" lon="6.48715">
        <ele>1540.4000244141</ele>
        <time>2019-02-06T08:38:19.000Z</time>
      </trkpt>
      <trkpt lat="45.91815" lon="6.48715">
        <ele>1541.1999511719</ele>
        <time>2019-02-06T08:38:20.000Z</time>
      </trkpt>
      <trkpt lat="45.91816" lon="6.48719">
        <ele>1541.4000244141</ele>
        <time>2019-02-06T08:38:24.000Z</time>
      </trkpt>
      <trkpt lat="45.91817" lon="6.48724">
        <ele>1541</ele>
        <time>2019-02-06T08:38:29.000Z</time>
      </trkpt>
      <trkpt lat="45.91815" lon="6.48722">
        <ele>1542.8000488281</ele>
        <time>2019-02-06T08:38:33.000Z</time>
      </trkpt>
      <trkpt lat="45.91813" lon="6.48721">
        <ele>1543.1999511719</ele>
        <time>2019-02-06T08:38:34.000Z</time>
      </trkpt>
      <trkpt lat="45.91809" lon="6.48719">
        <ele>1543.5999755859</ele>
        <time>2019-02-06T08:38:39.000Z</time>
      </trkpt>
      <trkpt lat="45.91808" lon="6.48719">
        <ele>1544</ele>
        <time>2019-02-06T08:38:42.000Z</time>
      </trkpt>
      <trkpt lat="45.91808" lon="6.48718">
        <ele>1544.8000488281</ele>
        <time>2019-02-06T08:38:44.000Z</time>
      </trkpt>
      <trkpt lat="45.91806" lon="6.48717">
        <ele>1545.1999511719</ele>
        <time>2019-02-06T08:38:45.000Z</time>
      </trkpt>
      <trkpt lat="45.91802" lon="6.48714">
        <ele>1546.1999511719</ele>
        <time>2019-02-06T08:38:50.000Z</time>
      </trkpt>
      <trkpt lat="45.91798" lon="6.48709">
        <ele>1546.1999511719</ele>
        <time>2019-02-06T08:38:55.000Z</time>
      </trkpt>
      <trkpt lat="45.91795" lon="6.48709">
        <ele>1547.1999511719</ele>
        <time>2019-02-06T08:38:59.000Z</time>
      </trkpt>
      <trkpt lat="45.91794" lon="6.48708">
        <ele>1547.4000244141</ele>
        <time>2019-02-06T08:39:00.000Z</time>
      </trkpt>
      <trkpt lat="45.91793" lon="6.48708">
        <ele>1548</ele>
        <time>2019-02-06T08:39:07.000Z</time>
      </trkpt>
      <trkpt lat="45.91793" lon="6.48708">
        <ele>1548.8000488281</ele>
        <time>2019-02-06T08:39:08.000Z</time>
      </trkpt>
      <trkpt lat="45.91793" lon="6.48708">
        <ele>1549.1999511719</ele>
        <time>2019-02-06T08:39:19.000Z</time>
      </trkpt>
      <trkpt lat="45.91793" lon="6.48708">
        <ele>1550</ele>
        <time>2019-02-06T08:39:27.000Z</time>
      </trkpt>
      <trkpt lat="45.91792" lon="6.48708">
        <ele>1550.1999511719</ele>
        <time>2019-02-06T08:39:28.000Z</time>
      </trkpt>
      <trkpt lat="45.91783" lon="6.48708">
        <ele>1551</ele>
        <time>2019-02-06T08:39:35.000Z</time>
      </trkpt>
      <trkpt lat="45.91783" lon="6.48709">
        <ele>1551.1999511719</ele>
        <time>2019-02-06T08:39:36.000Z</time>
      </trkpt>
      <trkpt lat="45.9178" lon="6.48708">
        <ele>1552.4000244141</ele>
        <time>2019-02-06T08:39:40.000Z</time>
      </trkpt>
      <trkpt lat="45.91776" lon="6.48705">
        <ele>1553</ele>
        <time>2019-02-06T08:39:43.000Z</time>
      </trkpt>
      <trkpt lat="45.91772" lon="6.48704">
        <ele>1553.4000244141</ele>
        <time>2019-02-06T08:39:48.000Z</time>
      </trkpt>
      <trkpt lat="45.91768" lon="6.48707">
        <ele>1553.4000244141</ele>
        <time>2019-02-06T08:39:53.000Z</time>
      </trkpt>
      <trkpt lat="45.91767" lon="6.48713">
        <ele>1554.5999755859</ele>
        <time>2019-02-06T08:40:00.000Z</time>
      </trkpt>
      <trkpt lat="45.91767" lon="6.48718">
        <ele>1555.8000488281</ele>
        <time>2019-02-06T08:40:06.000Z</time>
      </trkpt>
      <trkpt lat="45.91767" lon="6.48718">
        <ele>1555.8000488281</ele>
        <time>2019-02-06T08:40:07.000Z</time>
      </trkpt>
      <trkpt lat="45.91766" lon="6.48718">
        <ele>1556.8000488281</ele>
        <time>2019-02-06T08:40:11.000Z</time>
      </trkpt>
      <trkpt lat="45.91765" lon="6.48719">
        <ele>1557</ele>
        <time>2019-02-06T08:40:14.000Z</time>
      </trkpt>
      <trkpt lat="45.91763" lon="6.48721">
        <ele>1557.5999755859</ele>
        <time>2019-02-06T08:40:19.000Z</time>
      </trkpt>
      <trkpt lat="45.91761" lon="6.48723">
        <ele>1558.4000244141</ele>
        <time>2019-02-06T08:40:21.000Z</time>
      </trkpt>
      <trkpt lat="45.91758" lon="6.48725">
        <ele>1559.4000244141</ele>
        <time>2019-02-06T08:40:25.000Z</time>
      </trkpt>
      <trkpt lat="45.91756" lon="6.48727">
        <ele>1559.4000244141</ele>
        <time>2019-02-06T08:40:26.000Z</time>
      </trkpt>
      <trkpt lat="45.91751" lon="6.48733">
        <ele>1558.8000488281</ele>
        <time>2019-02-06T08:40:29.000Z</time>
      </trkpt>
      <trkpt lat="45.91748" lon="6.48738">
        <ele>1557.8000488281</ele>
        <time>2019-02-06T08:40:34.000Z</time>
      </trkpt>
      <trkpt lat="45.91747" lon="6.48741">
        <ele>1557.4000244141</ele>
        <time>2019-02-06T08:40:36.000Z</time>
      </trkpt>
      <trkpt lat="45.91745" lon="6.48743">
        <ele>1556.8000488281</ele>
        <time>2019-02-06T08:40:41.000Z</time>
      </trkpt>
      <trkpt lat="45.91739" lon="6.48745">
        <ele>1557</ele>
        <time>2019-02-06T08:40:47.000Z</time>
      </trkpt>
      <trkpt lat="45.91734" lon="6.48748">
        <ele>1556.1999511719</ele>
        <time>2019-02-06T08:40:50.000Z</time>
      </trkpt>
      <trkpt lat="45.91732" lon="6.48748">
        <ele>1556</ele>
        <time>2019-02-06T08:40:52.000Z</time>
      </trkpt>
      <trkpt lat="45.9173" lon="6.48749">
        <ele>1556</ele>
        <time>2019-02-06T08:40:53.000Z</time>
      </trkpt>
      <trkpt lat="45.91726" lon="6.48752">
        <ele>1555.5999755859</ele>
        <time>2019-02-06T08:40:58.000Z</time>
      </trkpt>
      <trkpt lat="45.91721" lon="6.48757">
        <ele>1556</ele>
        <time>2019-02-06T08:41:03.000Z</time>
      </trkpt>
      <trkpt lat="45.91716" lon="6.48759">
        <ele>1556.8000488281</ele>
        <time>2019-02-06T08:41:08.000Z</time>
      </trkpt>
      <trkpt lat="45.91711" lon="6.4876">
        <ele>1557</ele>
        <time>2019-02-06T08:41:13.000Z</time>
      </trkpt>
      <trkpt lat="45.91707" lon="6.48763">
        <ele>1557.1999511719</ele>
        <time>2019-02-06T08:41:19.000Z</time>
      </trkpt>
      <trkpt lat="45.91706" lon="6.48764">
        <ele>1557.4000244141</ele>
        <time>2019-02-06T08:41:20.000Z</time>
      </trkpt>
      <trkpt lat="45.91703" lon="6.48768">
        <ele>1557.5999755859</ele>
        <time>2019-02-06T08:41:24.000Z</time>
      </trkpt>
      <trkpt lat="45.91699" lon="6.48771">
        <ele>1558</ele>
        <time>2019-02-06T08:41:28.000Z</time>
      </trkpt>
      <trkpt lat="45.91696" lon="6.48771">
        <ele>1558.4000244141</ele>
        <time>2019-02-06T08:41:31.000Z</time>
      </trkpt>
      <trkpt lat="45.91694" lon="6.48772">
        <ele>1558.5999755859</ele>
        <time>2019-02-06T08:41:33.000Z</time>
      </trkpt>
      <trkpt lat="45.91689" lon="6.48774">
        <ele>1559.1999511719</ele>
        <time>2019-02-06T08:41:38.000Z</time>
      </trkpt>
      <trkpt lat="45.91688" lon="6.48774">
        <ele>1559.4000244141</ele>
        <time>2019-02-06T08:41:40.000Z</time>
      </trkpt>
      <trkpt lat="45.91686" lon="6.48774">
        <ele>1559.5999755859</ele>
        <time>2019-02-06T08:41:43.000Z</time>
      </trkpt>
      <trkpt lat="45.91682" lon="6.48776">
        <ele>1560.4000244141</ele>
        <time>2019-02-06T08:41:47.000Z</time>
      </trkpt>
      <trkpt lat="45.9168" lon="6.48778">
        <ele>1561</ele>
        <time>2019-02-06T08:41:49.000Z</time>
      </trkpt>
      <trkpt lat="45.91678" lon="6.48778">
        <ele>1561.4000244141</ele>
        <time>2019-02-06T08:41:51.000Z</time>
      </trkpt>
      <trkpt lat="45.91675" lon="6.4878">
        <ele>1562.1999511719</ele>
        <time>2019-02-06T08:41:54.000Z</time>
      </trkpt>
      <trkpt lat="45.91675" lon="6.4878">
        <ele>1562.5999755859</ele>
        <time>2019-02-06T08:41:55.000Z</time>
      </trkpt>
      <trkpt lat="45.91672" lon="6.48781">
        <ele>1563.5999755859</ele>
        <time>2019-02-06T08:41:59.000Z</time>
      </trkpt>
      <trkpt lat="45.91671" lon="6.48782">
        <ele>1563.5999755859</ele>
        <time>2019-02-06T08:42:00.000Z</time>
      </trkpt>
      <trkpt lat="45.91669" lon="6.48783">
        <ele>1564.4000244141</ele>
        <time>2019-02-06T08:42:05.000Z</time>
      </trkpt>
      <trkpt lat="45.91667" lon="6.48784">
        <ele>1564.8000488281</ele>
        <time>2019-02-06T08:42:07.000Z</time>
      </trkpt>
      <trkpt lat="45.91664" lon="6.48786">
        <ele>1565.4000244141</ele>
        <time>2019-02-06T08:42:10.000Z</time>
      </trkpt>
      <trkpt lat="45.91664" lon="6.48786">
        <ele>1565.8000488281</ele>
        <time>2019-02-06T08:42:11.000Z</time>
      </trkpt>
      <trkpt lat="45.91662" lon="6.48788">
        <ele>1566.4000244141</ele>
        <time>2019-02-06T08:42:14.000Z</time>
      </trkpt>
      <trkpt lat="45.91659" lon="6.48789">
        <ele>1567</ele>
        <time>2019-02-06T08:42:18.000Z</time>
      </trkpt>
      <trkpt lat="45.91657" lon="6.48789">
        <ele>1567.4000244141</ele>
        <time>2019-02-06T08:42:20.000Z</time>
      </trkpt>
      <trkpt lat="45.91656" lon="6.4879">
        <ele>1568.1999511719</ele>
        <time>2019-02-06T08:42:22.000Z</time>
      </trkpt>
      <trkpt lat="45.91654" lon="6.48792">
        <ele>1569.1999511719</ele>
        <time>2019-02-06T08:42:26.000Z</time>
      </trkpt>
      <trkpt lat="45.91653" lon="6.48792">
        <ele>1569.5999755859</ele>
        <time>2019-02-06T08:42:27.000Z</time>
      </trkpt>
      <trkpt lat="45.9165" lon="6.48793">
        <ele>1570.4000244141</ele>
        <time>2019-02-06T08:42:31.000Z</time>
      </trkpt>
      <trkpt lat="45.91649" lon="6.48794">
        <ele>1570.5999755859</ele>
        <time>2019-02-06T08:42:33.000Z</time>
      </trkpt>
      <trkpt lat="45.91648" lon="6.48794">
        <ele>1570.5999755859</ele>
        <time>2019-02-06T08:42:35.000Z</time>
      </trkpt>
      <trkpt lat="45.91644" lon="6.48796">
        <ele>1571.5999755859</ele>
        <time>2019-02-06T08:42:39.000Z</time>
      </trkpt>
      <trkpt lat="45.91642" lon="6.48797">
        <ele>1572</ele>
        <time>2019-02-06T08:42:42.000Z</time>
      </trkpt>
      <trkpt lat="45.9164" lon="6.48798">
        <ele>1572.8000488281</ele>
        <time>2019-02-06T08:42:46.000Z</time>
      </trkpt>
      <trkpt lat="45.9164" lon="6.48798">
        <ele>1573</ele>
        <time>2019-02-06T08:42:47.000Z</time>
      </trkpt>
      <trkpt lat="45.91638" lon="6.488">
        <ele>1573.8000488281</ele>
        <time>2019-02-06T08:42:50.000Z</time>
      </trkpt>
      <trkpt lat="45.91636" lon="6.48802">
        <ele>1574.1999511719</ele>
        <time>2019-02-06T08:42:53.000Z</time>
      </trkpt>
      <trkpt lat="45.91635" lon="6.48803">
        <ele>1575</ele>
        <time>2019-02-06T08:42:56.000Z</time>
      </trkpt>
      <trkpt lat="45.91633" lon="6.48803">
        <ele>1575.4000244141</ele>
        <time>2019-02-06T08:42:58.000Z</time>
      </trkpt>
      <trkpt lat="45.91631" lon="6.48804">
        <ele>1575.5999755859</ele>
        <time>2019-02-06T08:43:02.000Z</time>
      </trkpt>
      <trkpt lat="45.91628" lon="6.48807">
        <ele>1576</ele>
        <time>2019-02-06T08:43:06.000Z</time>
      </trkpt>
      <trkpt lat="45.91628" lon="6.48807">
        <ele>1576.4000244141</ele>
        <time>2019-02-06T08:43:07.000Z</time>
      </trkpt>
      <trkpt lat="45.91627" lon="6.48807">
        <ele>1577.5999755859</ele>
        <time>2019-02-06T08:43:09.000Z</time>
      </trkpt>
      <trkpt lat="45.91624" lon="6.48808">
        <ele>1578</ele>
        <time>2019-02-06T08:43:12.000Z</time>
      </trkpt>
      <trkpt lat="45.91622" lon="6.48811">
        <ele>1578.4000244141</ele>
        <time>2019-02-06T08:43:16.000Z</time>
      </trkpt>
      <trkpt lat="45.91621" lon="6.48812">
        <ele>1578.8000488281</ele>
        <time>2019-02-06T08:43:19.000Z</time>
      </trkpt>
      <trkpt lat="45.9162" lon="6.48814">
        <ele>1579.4000244141</ele>
        <time>2019-02-06T08:43:21.000Z</time>
      </trkpt>
      <trkpt lat="45.91617" lon="6.48817">
        <ele>1579.8000488281</ele>
        <time>2019-02-06T08:43:26.000Z</time>
      </trkpt>
      <trkpt lat="45.91616" lon="6.48818">
        <ele>1579.8000488281</ele>
        <time>2019-02-06T08:43:28.000Z</time>
      </trkpt>
      <trkpt lat="45.91614" lon="6.48819">
        <ele>1580.4000244141</ele>
        <time>2019-02-06T08:43:31.000Z</time>
      </trkpt>
      <trkpt lat="45.91612" lon="6.4882">
        <ele>1581.1999511719</ele>
        <time>2019-02-06T08:43:33.000Z</time>
      </trkpt>
      <trkpt lat="45.91611" lon="6.48821">
        <ele>1581.4000244141</ele>
        <time>2019-02-06T08:43:36.000Z</time>
      </trkpt>
      <trkpt lat="45.91609" lon="6.48823">
        <ele>1582.4000244141</ele>
        <time>2019-02-06T08:43:40.000Z</time>
      </trkpt>
      <trkpt lat="45.91609" lon="6.48823">
        <ele>1582.8000488281</ele>
        <time>2019-02-06T08:43:41.000Z</time>
      </trkpt>
      <trkpt lat="45.91607" lon="6.48825">
        <ele>1583.5999755859</ele>
        <time>2019-02-06T08:43:45.000Z</time>
      </trkpt>
      <trkpt lat="45.91606" lon="6.48826">
        <ele>1583.5999755859</ele>
        <time>2019-02-06T08:43:47.000Z</time>
      </trkpt>
      <trkpt lat="45.91602" lon="6.48829">
        <ele>1584.5999755859</ele>
        <time>2019-02-06T08:43:54.000Z</time>
      </trkpt>
      <trkpt lat="45.91601" lon="6.48829">
        <ele>1584.8000488281</ele>
        <time>2019-02-06T08:43:55.000Z</time>
      </trkpt>
      <trkpt lat="45.91599" lon="6.48831">
        <ele>1585.8000488281</ele>
        <time>2019-02-06T08:43:59.000Z</time>
      </trkpt>
      <trkpt lat="45.91597" lon="6.48833">
        <ele>1586.8000488281</ele>
        <time>2019-02-06T08:44:04.000Z</time>
      </trkpt>
      <trkpt lat="45.91593" lon="6.48836">
        <ele>1588</ele>
        <time>2019-02-06T08:44:09.000Z</time>
      </trkpt>
      <trkpt lat="45.91593" lon="6.48836">
        <ele>1588</ele>
        <time>2019-02-06T08:44:10.000Z</time>
      </trkpt>
      <trkpt lat="45.91591" lon="6.48838">
        <ele>1588</ele>
        <time>2019-02-06T08:44:13.000Z</time>
      </trkpt>
      <trkpt lat="45.91589" lon="6.4884">
        <ele>1588.4000244141</ele>
        <time>2019-02-06T08:44:15.000Z</time>
      </trkpt>
      <trkpt lat="45.91587" lon="6.48842">
        <ele>1589.4000244141</ele>
        <time>2019-02-06T08:44:18.000Z</time>
      </trkpt>
      <trkpt lat="45.91587" lon="6.48842">
        <ele>1589.8000488281</ele>
        <time>2019-02-06T08:44:20.000Z</time>
      </trkpt>
      <trkpt lat="45.91586" lon="6.48843">
        <ele>1590.4000244141</ele>
        <time>2019-02-06T08:44:22.000Z</time>
      </trkpt>
      <trkpt lat="45.91584" lon="6.48844">
        <ele>1591.1999511719</ele>
        <time>2019-02-06T08:44:26.000Z</time>
      </trkpt>
      <trkpt lat="45.91583" lon="6.48845">
        <ele>1591.4000244141</ele>
        <time>2019-02-06T08:44:28.000Z</time>
      </trkpt>
      <trkpt lat="45.91582" lon="6.48845">
        <ele>1591.8000488281</ele>
        <time>2019-02-06T08:44:31.000Z</time>
      </trkpt>
      <trkpt lat="45.91579" lon="6.48847">
        <ele>1592</ele>
        <time>2019-02-06T08:44:35.000Z</time>
      </trkpt>
      <trkpt lat="45.91577" lon="6.48848">
        <ele>1592.5999755859</ele>
        <time>2019-02-06T08:44:39.000Z</time>
      </trkpt>
      <trkpt lat="45.91576" lon="6.48848">
        <ele>1592.8000488281</ele>
        <time>2019-02-06T08:44:41.000Z</time>
      </trkpt>
      <trkpt lat="45.91574" lon="6.48849">
        <ele>1593.1999511719</ele>
        <time>2019-02-06T08:44:44.000Z</time>
      </trkpt>
      <trkpt lat="45.91574" lon="6.48849">
        <ele>1593.4000244141</ele>
        <time>2019-02-06T08:44:45.000Z</time>
      </trkpt>
      <trkpt lat="45.91573" lon="6.48849">
        <ele>1593.5999755859</ele>
        <time>2019-02-06T08:44:46.000Z</time>
      </trkpt>
      <trkpt lat="45.91572" lon="6.48849">
        <ele>1594.1999511719</ele>
        <time>2019-02-06T08:44:50.000Z</time>
      </trkpt>
      <trkpt lat="45.91572" lon="6.48849">
        <ele>1594.8000488281</ele>
        <time>2019-02-06T08:44:51.000Z</time>
      </trkpt>
      <trkpt lat="45.9157" lon="6.4885">
        <ele>1595.4000244141</ele>
        <time>2019-02-06T08:44:56.000Z</time>
      </trkpt>
      <trkpt lat="45.91567" lon="6.48851">
        <ele>1595.5999755859</ele>
        <time>2019-02-06T08:45:01.000Z</time>
      </trkpt>
      <trkpt lat="45.91566" lon="6.48852">
        <ele>1596</ele>
        <time>2019-02-06T08:45:04.000Z</time>
      </trkpt>
      <trkpt lat="45.91564" lon="6.48853">
        <ele>1596.5999755859</ele>
        <time>2019-02-06T08:45:06.000Z</time>
      </trkpt>
      <trkpt lat="45.91563" lon="6.48854">
        <ele>1597</ele>
        <time>2019-02-06T08:45:07.000Z</time>
      </trkpt>
      <trkpt lat="45.91563" lon="6.48854">
        <ele>1598</ele>
        <time>2019-02-06T08:45:10.000Z</time>
      </trkpt>
      <trkpt lat="45.91563" lon="6.48854">
        <ele>1598.1999511719</ele>
        <time>2019-02-06T08:45:13.000Z</time>
      </trkpt>
      <trkpt lat="45.91562" lon="6.48854">
        <ele>1598</ele>
        <time>2019-02-06T08:45:25.000Z</time>
      </trkpt>
      <trkpt lat="45.91559" lon="6.48857">
        <ele>1597.8000488281</ele>
        <time>2019-02-06T08:45:30.000Z</time>
      </trkpt>
      <trkpt lat="45.91557" lon="6.48862">
        <ele>1598.8000488281</ele>
        <time>2019-02-06T08:45:35.000Z</time>
      </trkpt>
      <trkpt lat="45.91555" lon="6.48864">
        <ele>1599.1999511719</ele>
        <time>2019-02-06T08:45:38.000Z</time>
      </trkpt>
      <trkpt lat="45.91554" lon="6.48865">
        <ele>1599.4000244141</ele>
        <time>2019-02-06T08:45:40.000Z</time>
      </trkpt>
      <trkpt lat="45.91551" lon="6.48867">
        <ele>1600.5999755859</ele>
        <time>2019-02-06T08:45:43.000Z</time>
      </trkpt>
      <trkpt lat="45.91549" lon="6.48868">
        <ele>1601</ele>
        <time>2019-02-06T08:45:45.000Z</time>
      </trkpt>
      <trkpt lat="45.91544" lon="6.48873">
        <ele>1601.5999755859</ele>
        <time>2019-02-06T08:45:51.000Z</time>
      </trkpt>
      <trkpt lat="45.91542" lon="6.48878">
        <ele>1602</ele>
        <time>2019-02-06T08:45:55.000Z</time>
      </trkpt>
      <trkpt lat="45.91541" lon="6.48879">
        <ele>1602</ele>
        <time>2019-02-06T08:45:56.000Z</time>
      </trkpt>
      <trkpt lat="45.91538" lon="6.48881">
        <ele>1602.5999755859</ele>
        <time>2019-02-06T08:46:00.000Z</time>
      </trkpt>
      <trkpt lat="45.91537" lon="6.48882">
        <ele>1602.8000488281</ele>
        <time>2019-02-06T08:46:02.000Z</time>
      </trkpt>
      <trkpt lat="45.91535" lon="6.48884">
        <ele>1603.1999511719</ele>
        <time>2019-02-06T08:46:05.000Z</time>
      </trkpt>
      <trkpt lat="45.91536" lon="6.48888">
        <ele>1604</ele>
        <time>2019-02-06T08:46:10.000Z</time>
      </trkpt>
      <trkpt lat="45.91536" lon="6.48889">
        <ele>1604</ele>
        <time>2019-02-06T08:46:11.000Z</time>
      </trkpt>
      <trkpt lat="45.91539" lon="6.48892">
        <ele>1605.4000244141</ele>
        <time>2019-02-06T08:46:14.000Z</time>
      </trkpt>
      <trkpt lat="45.91541" lon="6.48894">
        <ele>1606.1999511719</ele>
        <time>2019-02-06T08:46:17.000Z</time>
      </trkpt>
      <trkpt lat="45.91542" lon="6.48895">
        <ele>1606.4000244141</ele>
        <time>2019-02-06T08:46:18.000Z</time>
      </trkpt>
      <trkpt lat="45.91544" lon="6.48897">
        <ele>1607.4000244141</ele>
        <time>2019-02-06T08:46:23.000Z</time>
      </trkpt>
      <trkpt lat="45.91547" lon="6.48899">
        <ele>1608.5999755859</ele>
        <time>2019-02-06T08:46:28.000Z</time>
      </trkpt>
      <trkpt lat="45.91547" lon="6.48899">
        <ele>1608.8000488281</ele>
        <time>2019-02-06T08:46:29.000Z</time>
      </trkpt>
      <trkpt lat="45.91549" lon="6.48901">
        <ele>1609.5999755859</ele>
        <time>2019-02-06T08:46:33.000Z</time>
      </trkpt>
      <trkpt lat="45.91553" lon="6.48906">
        <ele>1610.4000244141</ele>
        <time>2019-02-06T08:46:39.000Z</time>
      </trkpt>
      <trkpt lat="45.91554" lon="6.48906">
        <ele>1610.8000488281</ele>
        <time>2019-02-06T08:46:41.000Z</time>
      </trkpt>
      <trkpt lat="45.91556" lon="6.48907">
        <ele>1611.1999511719</ele>
        <time>2019-02-06T08:46:44.000Z</time>
      </trkpt>
      <trkpt lat="45.91558" lon="6.48908">
        <ele>1611.8000488281</ele>
        <time>2019-02-06T08:46:45.000Z</time>
      </trkpt>
      <trkpt lat="45.91559" lon="6.48908">
        <ele>1612.4000244141</ele>
        <time>2019-02-06T08:46:49.000Z</time>
      </trkpt>
      <trkpt lat="45.91561" lon="6.48909">
        <ele>1613</ele>
        <time>2019-02-06T08:46:52.000Z</time>
      </trkpt>
      <trkpt lat="45.91562" lon="6.48909">
        <ele>1613.4000244141</ele>
        <time>2019-02-06T08:46:54.000Z</time>
      </trkpt>
      <trkpt lat="45.91565" lon="6.48912">
        <ele>1613.4000244141</ele>
        <time>2019-02-06T08:47:01.000Z</time>
      </trkpt>
      <trkpt lat="45.91564" lon="6.48913">
        <ele>1614.1999511719</ele>
        <time>2019-02-06T08:47:05.000Z</time>
      </trkpt>
      <trkpt lat="45.91563" lon="6.48915">
        <ele>1615</ele>
        <time>2019-02-06T08:47:08.000Z</time>
      </trkpt>
      <trkpt lat="45.91562" lon="6.48916">
        <ele>1615.4000244141</ele>
        <time>2019-02-06T08:47:09.000Z</time>
      </trkpt>
      <trkpt lat="45.91562" lon="6.48916">
        <ele>1615.5999755859</ele>
        <time>2019-02-06T08:47:12.000Z</time>
      </trkpt>
      <trkpt lat="45.9156" lon="6.48917">
        <ele>1616.5999755859</ele>
        <time>2019-02-06T08:47:17.000Z</time>
      </trkpt>
      <trkpt lat="45.91559" lon="6.48917">
        <ele>1617</ele>
        <time>2019-02-06T08:47:18.000Z</time>
      </trkpt>
      <trkpt lat="45.91558" lon="6.4892">
        <ele>1617.5999755859</ele>
        <time>2019-02-06T08:47:21.000Z</time>
      </trkpt>
      <trkpt lat="45.91556" lon="6.48922">
        <ele>1618.4000244141</ele>
        <time>2019-02-06T08:47:25.000Z</time>
      </trkpt>
      <trkpt lat="45.91555" lon="6.48922">
        <ele>1618.8000488281</ele>
        <time>2019-02-06T08:47:27.000Z</time>
      </trkpt>
      <trkpt lat="45.91554" lon="6.48923">
        <ele>1619.4000244141</ele>
        <time>2019-02-06T08:47:30.000Z</time>
      </trkpt>
      <trkpt lat="45.91553" lon="6.48926">
        <ele>1619.8000488281</ele>
        <time>2019-02-06T08:47:33.000Z</time>
      </trkpt>
      <trkpt lat="45.91551" lon="6.48928">
        <ele>1620.5999755859</ele>
        <time>2019-02-06T08:47:37.000Z</time>
      </trkpt>
      <trkpt lat="45.9155" lon="6.48928">
        <ele>1620.8000488281</ele>
        <time>2019-02-06T08:47:38.000Z</time>
      </trkpt>
      <trkpt lat="45.91548" lon="6.48932">
        <ele>1621.8000488281</ele>
        <time>2019-02-06T08:47:44.000Z</time>
      </trkpt>
      <trkpt lat="45.91548" lon="6.48934">
        <ele>1621.4000244141</ele>
        <time>2019-02-06T08:47:49.000Z</time>
      </trkpt>
      <trkpt lat="45.91548" lon="6.48936">
        <ele>1623.1999511719</ele>
        <time>2019-02-06T08:47:53.000Z</time>
      </trkpt>
      <trkpt lat="45.91547" lon="6.48937">
        <ele>1623.8000488281</ele>
        <time>2019-02-06T08:47:56.000Z</time>
      </trkpt>
      <trkpt lat="45.91547" lon="6.48937">
        <ele>1624.4000244141</ele>
        <time>2019-02-06T08:47:57.000Z</time>
      </trkpt>
      <trkpt lat="45.91544" lon="6.48939">
        <ele>1625</ele>
        <time>2019-02-06T08:48:01.000Z</time>
      </trkpt>
      <trkpt lat="45.91542" lon="6.48942">
        <ele>1625.4000244141</ele>
        <time>2019-02-06T08:48:04.000Z</time>
      </trkpt>
      <trkpt lat="45.91541" lon="6.48944">
        <ele>1625.4000244141</ele>
        <time>2019-02-06T08:48:07.000Z</time>
      </trkpt>
      <trkpt lat="45.91538" lon="6.48946">
        <ele>1626</ele>
        <time>2019-02-06T08:48:12.000Z</time>
      </trkpt>
      <trkpt lat="45.91536" lon="6.48948">
        <ele>1626.5999755859</ele>
        <time>2019-02-06T08:48:15.000Z</time>
      </trkpt>
      <trkpt lat="45.91534" lon="6.48948">
        <ele>1627</ele>
        <time>2019-02-06T08:48:19.000Z</time>
      </trkpt>
      <trkpt lat="45.91533" lon="6.48949">
        <ele>1627.4000244141</ele>
        <time>2019-02-06T08:48:23.000Z</time>
      </trkpt>
      <trkpt lat="45.91533" lon="6.48949">
        <ele>1627.4000244141</ele>
        <time>2019-02-06T08:48:25.000Z</time>
      </trkpt>
      <trkpt lat="45.91533" lon="6.48949">
        <ele>1627.5999755859</ele>
        <time>2019-02-06T08:48:28.000Z</time>
      </trkpt>
      <trkpt lat="45.91533" lon="6.48949">
        <ele>1628.4000244141</ele>
        <time>2019-02-06T08:48:33.000Z</time>
      </trkpt>
      <trkpt lat="45.91533" lon="6.48951">
        <ele>1628</ele>
        <time>2019-02-06T08:48:37.000Z</time>
      </trkpt>
      <trkpt lat="45.91535" lon="6.48953">
        <ele>1628</ele>
        <time>2019-02-06T08:48:40.000Z</time>
      </trkpt>
      <trkpt lat="45.91536" lon="6.48954">
        <ele>1628</ele>
        <time>2019-02-06T08:48:41.000Z</time>
      </trkpt>
      <trkpt lat="45.91538" lon="6.48955">
        <ele>1628.8000488281</ele>
        <time>2019-02-06T08:48:44.000Z</time>
      </trkpt>
      <trkpt lat="45.9154" lon="6.48956">
        <ele>1628.5999755859</ele>
        <time>2019-02-06T08:48:47.000Z</time>
      </trkpt>
      <trkpt lat="45.91542" lon="6.48958">
        <ele>1630</ele>
        <time>2019-02-06T08:48:53.000Z</time>
      </trkpt>
      <trkpt lat="45.91546" lon="6.48961">
        <ele>1631.1999511719</ele>
        <time>2019-02-06T08:48:58.000Z</time>
      </trkpt>
      <trkpt lat="45.91546" lon="6.48961">
        <ele>1631.1999511719</ele>
        <time>2019-02-06T08:48:59.000Z</time>
      </trkpt>
      <trkpt lat="45.91548" lon="6.48962">
        <ele>1632.4000244141</ele>
        <time>2019-02-06T08:49:03.000Z</time>
      </trkpt>
      <trkpt lat="45.91548" lon="6.48963">
        <ele>1632.5999755859</ele>
        <time>2019-02-06T08:49:04.000Z</time>
      </trkpt>
      <trkpt lat="45.91552" lon="6.48965">
        <ele>1633.4000244141</ele>
        <time>2019-02-06T08:49:08.000Z</time>
      </trkpt>
      <trkpt lat="45.91553" lon="6.48966">
        <ele>1633.5999755859</ele>
        <time>2019-02-06T08:49:10.000Z</time>
      </trkpt>
      <trkpt lat="45.91557" lon="6.48967">
        <ele>1634</ele>
        <time>2019-02-06T08:49:16.000Z</time>
      </trkpt>
      <trkpt lat="45.91559" lon="6.48968">
        <ele>1634.5999755859</ele>
        <time>2019-02-06T08:49:20.000Z</time>
      </trkpt>
      <trkpt lat="45.9156" lon="6.48969">
        <ele>1635.1999511719</ele>
        <time>2019-02-06T08:49:22.000Z</time>
      </trkpt>
      <trkpt lat="45.91561" lon="6.48969">
        <ele>1635.8000488281</ele>
        <time>2019-02-06T08:49:24.000Z</time>
      </trkpt>
      <trkpt lat="45.91561" lon="6.48969">
        <ele>1636</ele>
        <time>2019-02-06T08:49:26.000Z</time>
      </trkpt>
      <trkpt lat="45.91565" lon="6.48971">
        <ele>1636.5999755859</ele>
        <time>2019-02-06T08:49:31.000Z</time>
      </trkpt>
      <trkpt lat="45.91565" lon="6.48971">
        <ele>1637.4000244141</ele>
        <time>2019-02-06T08:49:32.000Z</time>
      </trkpt>
      <trkpt lat="45.91567" lon="6.48972">
        <ele>1638.4000244141</ele>
        <time>2019-02-06T08:49:35.000Z</time>
      </trkpt>
      <trkpt lat="45.91567" lon="6.48972">
        <ele>1638.1999511719</ele>
        <time>2019-02-06T08:49:36.000Z</time>
      </trkpt>
      <trkpt lat="45.91569" lon="6.48974">
        <ele>1639.5999755859</ele>
        <time>2019-02-06T08:49:40.000Z</time>
      </trkpt>
      <trkpt lat="45.91571" lon="6.48974">
        <ele>1640.1999511719</ele>
        <time>2019-02-06T08:49:46.000Z</time>
      </trkpt>
      <trkpt lat="45.91571" lon="6.48975">
        <ele>1640.4000244141</ele>
        <time>2019-02-06T08:49:51.000Z</time>
      </trkpt>
      <trkpt lat="45.91571" lon="6.48975">
        <ele>1641.4000244141</ele>
        <time>2019-02-06T08:49:53.000Z</time>
      </trkpt>
      <trkpt lat="45.9157" lon="6.48976">
        <ele>1642.5999755859</ele>
        <time>2019-02-06T08:49:55.000Z</time>
      </trkpt>
      <trkpt lat="45.91569" lon="6.48978">
        <ele>1642.8000488281</ele>
        <time>2019-02-06T08:49:57.000Z</time>
      </trkpt>
      <trkpt lat="45.91568" lon="6.4898">
        <ele>1642.5999755859</ele>
        <time>2019-02-06T08:50:03.000Z</time>
      </trkpt>
      <trkpt lat="45.91567" lon="6.48982">
        <ele>1643.8000488281</ele>
        <time>2019-02-06T08:50:08.000Z</time>
      </trkpt>
      <trkpt lat="45.91566" lon="6.48985">
        <ele>1644.4000244141</ele>
        <time>2019-02-06T08:50:13.000Z</time>
      </trkpt>
      <trkpt lat="45.91565" lon="6.48986">
        <ele>1644.8000488281</ele>
        <time>2019-02-06T08:50:15.000Z</time>
      </trkpt>
      <trkpt lat="45.91564" lon="6.48987">
        <ele>1645.5999755859</ele>
        <time>2019-02-06T08:50:19.000Z</time>
      </trkpt>
      <trkpt lat="45.91564" lon="6.48987">
        <ele>1646.1999511719</ele>
        <time>2019-02-06T08:50:21.000Z</time>
      </trkpt>
      <trkpt lat="45.91563" lon="6.48987">
        <ele>1646.4000244141</ele>
        <time>2019-02-06T08:50:30.000Z</time>
      </trkpt>
      <trkpt lat="45.91562" lon="6.48985">
        <ele>1646.1999511719</ele>
        <time>2019-02-06T08:50:37.000Z</time>
      </trkpt>
      <trkpt lat="45.91561" lon="6.48985">
        <ele>1646.8000488281</ele>
        <time>2019-02-06T08:50:43.000Z</time>
      </trkpt>
      <trkpt lat="45.91561" lon="6.48985">
        <ele>1647.1999511719</ele>
        <time>2019-02-06T08:50:44.000Z</time>
      </trkpt>
      <trkpt lat="45.91561" lon="6.48986">
        <ele>1647.8000488281</ele>
        <time>2019-02-06T08:50:51.000Z</time>
      </trkpt>
      <trkpt lat="45.91561" lon="6.48986">
        <ele>1648.1999511719</ele>
        <time>2019-02-06T08:51:00.000Z</time>
      </trkpt>
      <trkpt lat="45.91561" lon="6.48986">
        <ele>1648.1999511719</ele>
        <time>2019-02-06T08:51:01.000Z</time>
      </trkpt>
      <trkpt lat="45.91558" lon="6.48986">
        <ele>1648.8000488281</ele>
        <time>2019-02-06T08:51:09.000Z</time>
      </trkpt>
      <trkpt lat="45.91558" lon="6.48986">
        <ele>1649.1999511719</ele>
        <time>2019-02-06T08:51:14.000Z</time>
      </trkpt>
      <trkpt lat="45.91558" lon="6.48986">
        <ele>1649.4000244141</ele>
        <time>2019-02-06T08:51:17.000Z</time>
      </trkpt>
      <trkpt lat="45.91558" lon="6.48987">
        <ele>1648</ele>
        <time>2019-02-06T08:51:21.000Z</time>
      </trkpt>
      <trkpt lat="45.91558" lon="6.48987">
        <ele>1647</ele>
        <time>2019-02-06T08:51:23.000Z</time>
      </trkpt>
      <trkpt lat="45.91558" lon="6.48987">
        <ele>1647.1999511719</ele>
        <time>2019-02-06T08:51:25.000Z</time>
      </trkpt>
      <trkpt lat="45.91558" lon="6.48987">
        <ele>1648.4000244141</ele>
        <time>2019-02-06T08:51:26.000Z</time>
      </trkpt>
      <trkpt lat="45.91558" lon="6.48987">
        <ele>1649.5999755859</ele>
        <time>2019-02-06T08:51:28.000Z</time>
      </trkpt>
      <trkpt lat="45.91557" lon="6.48987">
        <ele>1649.8000488281</ele>
        <time>2019-02-06T08:51:33.000Z</time>
      </trkpt>
      <trkpt lat="45.91556" lon="6.48987">
        <ele>1650.8000488281</ele>
        <time>2019-02-06T08:51:37.000Z</time>
      </trkpt>
      <trkpt lat="45.91555" lon="6.48987">
        <ele>1650.8000488281</ele>
        <time>2019-02-06T08:51:41.000Z</time>
      </trkpt>
      <trkpt lat="45.91553" lon="6.48991">
        <ele>1652</ele>
        <time>2019-02-06T08:51:47.000Z</time>
      </trkpt>
      <trkpt lat="45.9155" lon="6.48994">
        <ele>1652.4000244141</ele>
        <time>2019-02-06T08:51:55.000Z</time>
      </trkpt>
      <trkpt lat="45.91549" lon="6.48994">
        <ele>1653</ele>
        <time>2019-02-06T08:51:58.000Z</time>
      </trkpt>
      <trkpt lat="45.91547" lon="6.48995">
        <ele>1653.5999755859</ele>
        <time>2019-02-06T08:52:01.000Z</time>
      </trkpt>
      <trkpt lat="45.91547" lon="6.48995">
        <ele>1654</ele>
        <time>2019-02-06T08:52:02.000Z</time>
      </trkpt>
      <trkpt lat="45.91546" lon="6.48995">
        <ele>1655</ele>
        <time>2019-02-06T08:52:06.000Z</time>
      </trkpt>
      <trkpt lat="45.91545" lon="6.48996">
        <ele>1655.1999511719</ele>
        <time>2019-02-06T08:52:07.000Z</time>
      </trkpt>
      <trkpt lat="45.91542" lon="6.48997">
        <ele>1655.5999755859</ele>
        <time>2019-02-06T08:52:10.000Z</time>
      </trkpt>
      <trkpt lat="45.9154" lon="6.48997">
        <ele>1656</ele>
        <time>2019-02-06T08:52:13.000Z</time>
      </trkpt>
      <trkpt lat="45.9154" lon="6.48997">
        <ele>1656.1999511719</ele>
        <time>2019-02-06T08:52:14.000Z</time>
      </trkpt>
      <trkpt lat="45.91539" lon="6.48998">
        <ele>1656.4000244141</ele>
        <time>2019-02-06T08:52:17.000Z</time>
      </trkpt>
      <trkpt lat="45.91538" lon="6.48998">
        <ele>1657.4000244141</ele>
        <time>2019-02-06T08:52:20.000Z</time>
      </trkpt>
      <trkpt lat="45.91538" lon="6.48999">
        <ele>1658.1999511719</ele>
        <time>2019-02-06T08:52:21.000Z</time>
      </trkpt>
      <trkpt lat="45.91538" lon="6.48999">
        <ele>1658.4000244141</ele>
        <time>2019-02-06T08:52:22.000Z</time>
      </trkpt>
      <trkpt lat="45.91536" lon="6.49001">
        <ele>1659.4000244141</ele>
        <time>2019-02-06T08:52:26.000Z</time>
      </trkpt>
      <trkpt lat="45.91534" lon="6.49003">
        <ele>1659.5999755859</ele>
        <time>2019-02-06T08:52:30.000Z</time>
      </trkpt>
      <trkpt lat="45.91533" lon="6.49003">
        <ele>1659.8000488281</ele>
        <time>2019-02-06T08:52:32.000Z</time>
      </trkpt>
      <trkpt lat="45.9153" lon="6.49004">
        <ele>1661</ele>
        <time>2019-02-06T08:52:35.000Z</time>
      </trkpt>
      <trkpt lat="45.91529" lon="6.49004">
        <ele>1661.4000244141</ele>
        <time>2019-02-06T08:52:36.000Z</time>
      </trkpt>
      <trkpt lat="45.91528" lon="6.49005">
        <ele>1662.1999511719</ele>
        <time>2019-02-06T08:52:38.000Z</time>
      </trkpt>
      <trkpt lat="45.91527" lon="6.49005">
        <ele>1662.4000244141</ele>
        <time>2019-02-06T08:52:39.000Z</time>
      </trkpt>
      <trkpt lat="45.91524" lon="6.49006">
        <ele>1662.1999511719</ele>
        <time>2019-02-06T08:52:44.000Z</time>
      </trkpt>
      <trkpt lat="45.9152" lon="6.49007">
        <ele>1662.4000244141</ele>
        <time>2019-02-06T08:52:49.000Z</time>
      </trkpt>
      <trkpt lat="45.91517" lon="6.49007">
        <ele>1663</ele>
        <time>2019-02-06T08:52:52.000Z</time>
      </trkpt>
      <trkpt lat="45.91516" lon="6.49006">
        <ele>1663.1999511719</ele>
        <time>2019-02-06T08:52:54.000Z</time>
      </trkpt>
      <trkpt lat="45.91514" lon="6.49005">
        <ele>1663.4000244141</ele>
        <time>2019-02-06T08:52:59.000Z</time>
      </trkpt>
      <trkpt lat="45.91511" lon="6.49005">
        <ele>1664.4000244141</ele>
        <time>2019-02-06T08:53:02.000Z</time>
      </trkpt>
      <trkpt lat="45.9151" lon="6.49005">
        <ele>1664.8000488281</ele>
        <time>2019-02-06T08:53:04.000Z</time>
      </trkpt>
      <trkpt lat="45.91509" lon="6.49005">
        <ele>1665.1999511719</ele>
        <time>2019-02-06T08:53:08.000Z</time>
      </trkpt>
      <trkpt lat="45.91508" lon="6.49005">
        <ele>1666</ele>
        <time>2019-02-06T08:53:10.000Z</time>
      </trkpt>
      <trkpt lat="45.91507" lon="6.49004">
        <ele>1667</ele>
        <time>2019-02-06T08:53:13.000Z</time>
      </trkpt>
      <trkpt lat="45.91506" lon="6.49005">
        <ele>1667.1999511719</ele>
        <time>2019-02-06T08:53:14.000Z</time>
      </trkpt>
      <trkpt lat="45.91503" lon="6.49004">
        <ele>1667.5999755859</ele>
        <time>2019-02-06T08:53:18.000Z</time>
      </trkpt>
      <trkpt lat="45.91501" lon="6.49004">
        <ele>1668.1999511719</ele>
        <time>2019-02-06T08:53:20.000Z</time>
      </trkpt>
      <trkpt lat="45.915" lon="6.49004">
        <ele>1669.1999511719</ele>
        <time>2019-02-06T08:53:23.000Z</time>
      </trkpt>
      <trkpt lat="45.91499" lon="6.49004">
        <ele>1669.4000244141</ele>
        <time>2019-02-06T08:53:24.000Z</time>
      </trkpt>
      <trkpt lat="45.91495" lon="6.49004">
        <ele>1670</ele>
        <time>2019-02-06T08:53:31.000Z</time>
      </trkpt>
      <trkpt lat="45.91493" lon="6.49005">
        <ele>1670.8000488281</ele>
        <time>2019-02-06T08:53:34.000Z</time>
      </trkpt>
      <trkpt lat="45.91491" lon="6.49007">
        <ele>1671.5999755859</ele>
        <time>2019-02-06T08:53:38.000Z</time>
      </trkpt>
      <trkpt lat="45.91489" lon="6.49007">
        <ele>1672</ele>
        <time>2019-02-06T08:53:40.000Z</time>
      </trkpt>
      <trkpt lat="45.91488" lon="6.49008">
        <ele>1672.1999511719</ele>
        <time>2019-02-06T08:53:42.000Z</time>
      </trkpt>
      <trkpt lat="45.91486" lon="6.49008">
        <ele>1673</ele>
        <time>2019-02-06T08:53:46.000Z</time>
      </trkpt>
      <trkpt lat="45.91484" lon="6.49009">
        <ele>1674.1999511719</ele>
        <time>2019-02-06T08:53:50.000Z</time>
      </trkpt>
      <trkpt lat="45.91483" lon="6.4901">
        <ele>1675</ele>
        <time>2019-02-06T08:53:54.000Z</time>
      </trkpt>
      <trkpt lat="45.91482" lon="6.4901">
        <ele>1675.4000244141</ele>
        <time>2019-02-06T08:53:56.000Z</time>
      </trkpt>
      <trkpt lat="45.91482" lon="6.4901">
        <ele>1676.1999511719</ele>
        <time>2019-02-06T08:53:58.000Z</time>
      </trkpt>
      <trkpt lat="45.91481" lon="6.4901">
        <ele>1676.5999755859</ele>
        <time>2019-02-06T08:53:59.000Z</time>
      </trkpt>
      <trkpt lat="45.9148" lon="6.49012">
        <ele>1676.8000488281</ele>
        <time>2019-02-06T08:54:03.000Z</time>
      </trkpt>
      <trkpt lat="45.9148" lon="6.49015">
        <ele>1677.8000488281</ele>
        <time>2019-02-06T08:54:09.000Z</time>
      </trkpt>
      <trkpt lat="45.9148" lon="6.49018">
        <ele>1678.8000488281</ele>
        <time>2019-02-06T08:54:13.000Z</time>
      </trkpt>
      <trkpt lat="45.9148" lon="6.49019">
        <ele>1679</ele>
        <time>2019-02-06T08:54:14.000Z</time>
      </trkpt>
      <trkpt lat="45.9148" lon="6.49021">
        <ele>1679.4000244141</ele>
        <time>2019-02-06T08:54:20.000Z</time>
      </trkpt>
      <trkpt lat="45.9148" lon="6.49022">
        <ele>1679.8000488281</ele>
        <time>2019-02-06T08:54:23.000Z</time>
      </trkpt>
      <trkpt lat="45.91481" lon="6.49024">
        <ele>1680.1999511719</ele>
        <time>2019-02-06T08:54:27.000Z</time>
      </trkpt>
      <trkpt lat="45.91479" lon="6.49025">
        <ele>1681</ele>
        <time>2019-02-06T08:54:33.000Z</time>
      </trkpt>
      <trkpt lat="45.91478" lon="6.49026">
        <ele>1681.4000244141</ele>
        <time>2019-02-06T08:54:35.000Z</time>
      </trkpt>
      <trkpt lat="45.91476" lon="6.49026">
        <ele>1681.5999755859</ele>
        <time>2019-02-06T08:54:37.000Z</time>
      </trkpt>
      <trkpt lat="45.91474" lon="6.49028">
        <ele>1682</ele>
        <time>2019-02-06T08:54:41.000Z</time>
      </trkpt>
      <trkpt lat="45.91473" lon="6.49028">
        <ele>1682.4000244141</ele>
        <time>2019-02-06T08:54:42.000Z</time>
      </trkpt>
      <trkpt lat="45.91471" lon="6.4903">
        <ele>1683</ele>
        <time>2019-02-06T08:54:47.000Z</time>
      </trkpt>
      <trkpt lat="45.9147" lon="6.49031">
        <ele>1683.1999511719</ele>
        <time>2019-02-06T08:54:48.000Z</time>
      </trkpt>
      <trkpt lat="45.91469" lon="6.49032">
        <ele>1684.4000244141</ele>
        <time>2019-02-06T08:54:51.000Z</time>
      </trkpt>
      <trkpt lat="45.91469" lon="6.49032">
        <ele>1684.8000488281</ele>
        <time>2019-02-06T08:54:52.000Z</time>
      </trkpt>
      <trkpt lat="45.91469" lon="6.49033">
        <ele>1685.1999511719</ele>
        <time>2019-02-06T08:54:57.000Z</time>
      </trkpt>
      <trkpt lat="45.9147" lon="6.49033">
        <ele>1685.5999755859</ele>
        <time>2019-02-06T08:55:00.000Z</time>
      </trkpt>
      <trkpt lat="45.9147" lon="6.49038">
        <ele>1686.1999511719</ele>
        <time>2019-02-06T08:55:03.000Z</time>
      </trkpt>
      <trkpt lat="45.91471" lon="6.49041">
        <ele>1686.8000488281</ele>
        <time>2019-02-06T08:55:09.000Z</time>
      </trkpt>
      <trkpt lat="45.91472" lon="6.49045">
        <ele>1688</ele>
        <time>2019-02-06T08:55:12.000Z</time>
      </trkpt>
      <trkpt lat="45.91474" lon="6.49049">
        <ele>1688.4000244141</ele>
        <time>2019-02-06T08:55:16.000Z</time>
      </trkpt>
      <trkpt lat="45.91474" lon="6.49051">
        <ele>1689</ele>
        <time>2019-02-06T08:55:20.000Z</time>
      </trkpt>
      <trkpt lat="45.91475" lon="6.49052">
        <ele>1689.4000244141</ele>
        <time>2019-02-06T08:55:22.000Z</time>
      </trkpt>
      <trkpt lat="45.91476" lon="6.49053">
        <ele>1690</ele>
        <time>2019-02-06T08:55:24.000Z</time>
      </trkpt>
      <trkpt lat="45.91476" lon="6.49054">
        <ele>1690</ele>
        <time>2019-02-06T08:55:27.000Z</time>
      </trkpt>
      <trkpt lat="45.91476" lon="6.49055">
        <ele>1691.1999511719</ele>
        <time>2019-02-06T08:55:30.000Z</time>
      </trkpt>
      <trkpt lat="45.91475" lon="6.49056">
        <ele>1691.5999755859</ele>
        <time>2019-02-06T08:55:33.000Z</time>
      </trkpt>
      <trkpt lat="45.91475" lon="6.49055">
        <ele>1692.1999511719</ele>
        <time>2019-02-06T08:55:36.000Z</time>
      </trkpt>
      <trkpt lat="45.91475" lon="6.49055">
        <ele>1693.1999511719</ele>
        <time>2019-02-06T08:55:39.000Z</time>
      </trkpt>
      <trkpt lat="45.91475" lon="6.49055">
        <ele>1693.4000244141</ele>
        <time>2019-02-06T08:55:40.000Z</time>
      </trkpt>
      <trkpt lat="45.91475" lon="6.49055">
        <ele>1692.8000488281</ele>
        <time>2019-02-06T08:55:54.000Z</time>
      </trkpt>
      <trkpt lat="45.91475" lon="6.49055">
        <ele>1692.8000488281</ele>
        <time>2019-02-06T08:56:15.000Z</time>
      </trkpt>
      <trkpt lat="45.91475" lon="6.49055">
        <ele>1693</ele>
        <time>2019-02-06T08:56:19.000Z</time>
      </trkpt>
      <trkpt lat="45.91475" lon="6.49055">
        <ele>1693.1999511719</ele>
        <time>2019-02-06T08:56:32.000Z</time>
      </trkpt>
      <trkpt lat="45.91475" lon="6.49055">
        <ele>1693</ele>
        <time>2019-02-06T08:56:44.000Z</time>
      </trkpt>
      <trkpt lat="45.91476" lon="6.49055">
        <ele>1692.8000488281</ele>
        <time>2019-02-06T08:56:56.000Z</time>
      </trkpt>
      <trkpt lat="45.91476" lon="6.49055">
        <ele>1692.8000488281</ele>
        <time>2019-02-06T08:57:12.000Z</time>
      </trkpt>
      <trkpt lat="45.91476" lon="6.49055">
        <ele>1693</ele>
        <time>2019-02-06T08:57:25.000Z</time>
      </trkpt>
      <trkpt lat="45.91475" lon="6.49055">
        <ele>1692.5999755859</ele>
        <time>2019-02-06T08:57:38.000Z</time>
      </trkpt>
      <trkpt lat="45.91472" lon="6.49057">
        <ele>1692.5999755859</ele>
        <time>2019-02-06T08:57:43.000Z</time>
      </trkpt>
      <trkpt lat="45.9147" lon="6.49058">
        <ele>1694.1999511719</ele>
        <time>2019-02-06T08:57:49.000Z</time>
      </trkpt>
      <trkpt lat="45.91469" lon="6.49058">
        <ele>1694.5999755859</ele>
        <time>2019-02-06T08:57:50.000Z</time>
      </trkpt>
      <trkpt lat="45.91468" lon="6.49059">
        <ele>1695.4000244141</ele>
        <time>2019-02-06T08:57:55.000Z</time>
      </trkpt>
      <trkpt lat="45.91467" lon="6.49059">
        <ele>1695.5999755859</ele>
        <time>2019-02-06T08:57:57.000Z</time>
      </trkpt>
      <trkpt lat="45.91467" lon="6.49059">
        <ele>1696.5999755859</ele>
        <time>2019-02-06T08:57:59.000Z</time>
      </trkpt>
      <trkpt lat="45.91467" lon="6.49059">
        <ele>1697</ele>
        <time>2019-02-06T08:58:02.000Z</time>
      </trkpt>
      <trkpt lat="45.91467" lon="6.49061">
        <ele>1696.8000488281</ele>
        <time>2019-02-06T08:58:08.000Z</time>
      </trkpt>
      <trkpt lat="45.91468" lon="6.49064">
        <ele>1697.5999755859</ele>
        <time>2019-02-06T08:58:13.000Z</time>
      </trkpt>
      <trkpt lat="45.91468" lon="6.49066">
        <ele>1697.5999755859</ele>
        <time>2019-02-06T08:58:14.000Z</time>
      </trkpt>
      <trkpt lat="45.91469" lon="6.49067">
        <ele>1698.4000244141</ele>
        <time>2019-02-06T08:58:18.000Z</time>
      </trkpt>
      <trkpt lat="45.91469" lon="6.49067">
        <ele>1698.5999755859</ele>
        <time>2019-02-06T08:58:21.000Z</time>
      </trkpt>
      <trkpt lat="45.91469" lon="6.49067">
        <ele>1699.8000488281</ele>
        <time>2019-02-06T08:58:31.000Z</time>
      </trkpt>
      <trkpt lat="45.91469" lon="6.49067">
        <ele>1700</ele>
        <time>2019-02-06T08:58:32.000Z</time>
      </trkpt>
      <trkpt lat="45.91469" lon="6.49069">
        <ele>1700</ele>
        <time>2019-02-06T08:58:39.000Z</time>
      </trkpt>
      <trkpt lat="45.91469" lon="6.49072">
        <ele>1700.1999511719</ele>
        <time>2019-02-06T08:58:45.000Z</time>
      </trkpt>
      <trkpt lat="45.91469" lon="6.49072">
        <ele>1701</ele>
        <time>2019-02-06T08:58:48.000Z</time>
      </trkpt>
      <trkpt lat="45.91469" lon="6.49072">
        <ele>1701.5999755859</ele>
        <time>2019-02-06T08:58:54.000Z</time>
      </trkpt>
      <trkpt lat="45.9147" lon="6.49073">
        <ele>1700.8000488281</ele>
        <time>2019-02-06T08:59:02.000Z</time>
      </trkpt>
      <trkpt lat="45.9147" lon="6.49073">
        <ele>1702.1999511719</ele>
        <time>2019-02-06T08:59:07.000Z</time>
      </trkpt>
      <trkpt lat="45.9147" lon="6.49073">
        <ele>1703.1999511719</ele>
        <time>2019-02-06T08:59:09.000Z</time>
      </trkpt>
      <trkpt lat="45.91469" lon="6.49074">
        <ele>1703</ele>
        <time>2019-02-06T08:59:11.000Z</time>
      </trkpt>
      <trkpt lat="45.91469" lon="6.49075">
        <ele>1703.4000244141</ele>
        <time>2019-02-06T08:59:19.000Z</time>
      </trkpt>
      <trkpt lat="45.91469" lon="6.49075">
        <ele>1703</ele>
        <time>2019-02-06T08:59:28.000Z</time>
      </trkpt>
      <trkpt lat="45.91467" lon="6.49075">
        <ele>1703.8000488281</ele>
        <time>2019-02-06T08:59:33.000Z</time>
      </trkpt>
      <trkpt lat="45.91466" lon="6.49076">
        <ele>1704.4000244141</ele>
        <time>2019-02-06T08:59:36.000Z</time>
      </trkpt>
      <trkpt lat="45.91464" lon="6.49078">
        <ele>1705</ele>
        <time>2019-02-06T08:59:39.000Z</time>
      </trkpt>
      <trkpt lat="45.91462" lon="6.49078">
        <ele>1705.5999755859</ele>
        <time>2019-02-06T08:59:41.000Z</time>
      </trkpt>
      <trkpt lat="45.91461" lon="6.49079">
        <ele>1706.4000244141</ele>
        <time>2019-02-06T08:59:44.000Z</time>
      </trkpt>
      <trkpt lat="45.9146" lon="6.49079">
        <ele>1706.8000488281</ele>
        <time>2019-02-06T08:59:45.000Z</time>
      </trkpt>
      <trkpt lat="45.91458" lon="6.4908">
        <ele>1707.5999755859</ele>
        <time>2019-02-06T08:59:49.000Z</time>
      </trkpt>
      <trkpt lat="45.91457" lon="6.49081">
        <ele>1707.8000488281</ele>
        <time>2019-02-06T08:59:51.000Z</time>
      </trkpt>
      <trkpt lat="45.91455" lon="6.49082">
        <ele>1708</ele>
        <time>2019-02-06T08:59:54.000Z</time>
      </trkpt>
      <trkpt lat="45.91452" lon="6.49085">
        <ele>1708.8000488281</ele>
        <time>2019-02-06T09:00:00.000Z</time>
      </trkpt>
      <trkpt lat="45.9145" lon="6.49085">
        <ele>1710</ele>
        <time>2019-02-06T09:00:04.000Z</time>
      </trkpt>
      <trkpt lat="45.9145" lon="6.49085">
        <ele>1711.4000244141</ele>
        <time>2019-02-06T09:00:07.000Z</time>
      </trkpt>
      <trkpt lat="45.9145" lon="6.49085">
        <ele>1711.5999755859</ele>
        <time>2019-02-06T09:00:12.000Z</time>
      </trkpt>
      <trkpt lat="45.91449" lon="6.49085">
        <ele>1712.1999511719</ele>
        <time>2019-02-06T09:00:18.000Z</time>
      </trkpt>
      <trkpt lat="45.91448" lon="6.49086">
        <ele>1712.4000244141</ele>
        <time>2019-02-06T09:00:19.000Z</time>
      </trkpt>
      <trkpt lat="45.91446" lon="6.49087">
        <ele>1713.8000488281</ele>
        <time>2019-02-06T09:00:23.000Z</time>
      </trkpt>
      <trkpt lat="45.91446" lon="6.49087">
        <ele>1714</ele>
        <time>2019-02-06T09:00:24.000Z</time>
      </trkpt>
      <trkpt lat="45.91444" lon="6.49089">
        <ele>1714</ele>
        <time>2019-02-06T09:00:29.000Z</time>
      </trkpt>
      <trkpt lat="45.91441" lon="6.4909">
        <ele>1715</ele>
        <time>2019-02-06T09:00:33.000Z</time>
      </trkpt>
      <trkpt lat="45.91441" lon="6.4909">
        <ele>1716</ele>
        <time>2019-02-06T09:00:35.000Z</time>
      </trkpt>
      <trkpt lat="45.9144" lon="6.4909">
        <ele>1716.1999511719</ele>
        <time>2019-02-06T09:00:36.000Z</time>
      </trkpt>
      <trkpt lat="45.91435" lon="6.49091">
        <ele>1717.1999511719</ele>
        <time>2019-02-06T09:00:41.000Z</time>
      </trkpt>
      <trkpt lat="45.91435" lon="6.49092">
        <ele>1717.1999511719</ele>
        <time>2019-02-06T09:00:42.000Z</time>
      </trkpt>
      <trkpt lat="45.91436" lon="6.49094">
        <ele>1717.5999755859</ele>
        <time>2019-02-06T09:00:46.000Z</time>
      </trkpt>
      <trkpt lat="45.91436" lon="6.49095">
        <ele>1717.8000488281</ele>
        <time>2019-02-06T09:00:47.000Z</time>
      </trkpt>
      <trkpt lat="45.91437" lon="6.49099">
        <ele>1718.5999755859</ele>
        <time>2019-02-06T09:00:51.000Z</time>
      </trkpt>
      <trkpt lat="45.91437" lon="6.491">
        <ele>1718.5999755859</ele>
        <time>2019-02-06T09:00:52.000Z</time>
      </trkpt>
      <trkpt lat="45.91438" lon="6.49103">
        <ele>1719.1999511719</ele>
        <time>2019-02-06T09:00:58.000Z</time>
      </trkpt>
      <trkpt lat="45.91438" lon="6.49104">
        <ele>1719.5999755859</ele>
        <time>2019-02-06T09:00:59.000Z</time>
      </trkpt>
      <trkpt lat="45.91438" lon="6.49108">
        <ele>1721</ele>
        <time>2019-02-06T09:01:03.000Z</time>
      </trkpt>
      <trkpt lat="45.91439" lon="6.49109">
        <ele>1721.1999511719</ele>
        <time>2019-02-06T09:01:04.000Z</time>
      </trkpt>
      <trkpt lat="45.91439" lon="6.49112">
        <ele>1722</ele>
        <time>2019-02-06T09:01:07.000Z</time>
      </trkpt>
      <trkpt lat="45.91439" lon="6.49113">
        <ele>1722.1999511719</ele>
        <time>2019-02-06T09:01:09.000Z</time>
      </trkpt>
      <trkpt lat="45.9144" lon="6.49115">
        <ele>1722.8000488281</ele>
        <time>2019-02-06T09:01:13.000Z</time>
      </trkpt>
      <trkpt lat="45.91441" lon="6.49115">
        <ele>1723.4000244141</ele>
        <time>2019-02-06T09:01:14.000Z</time>
      </trkpt>
      <trkpt lat="45.91441" lon="6.49115">
        <ele>1723.1999511719</ele>
        <time>2019-02-06T09:01:18.000Z</time>
      </trkpt>
      <trkpt lat="45.91439" lon="6.49115">
        <ele>1724.1999511719</ele>
        <time>2019-02-06T09:01:22.000Z</time>
      </trkpt>
      <trkpt lat="45.91439" lon="6.49115">
        <ele>1724.5999755859</ele>
        <time>2019-02-06T09:01:23.000Z</time>
      </trkpt>
      <trkpt lat="45.91438" lon="6.49116">
        <ele>1725</ele>
        <time>2019-02-06T09:01:24.000Z</time>
      </trkpt>
      <trkpt lat="45.91438" lon="6.49116">
        <ele>1724.8000488281</ele>
        <time>2019-02-06T09:01:28.000Z</time>
      </trkpt>
      <trkpt lat="45.91435" lon="6.49116">
        <ele>1725.8000488281</ele>
        <time>2019-02-06T09:01:33.000Z</time>
      </trkpt>
      <trkpt lat="45.91432" lon="6.49116">
        <ele>1726.5999755859</ele>
        <time>2019-02-06T09:01:38.000Z</time>
      </trkpt>
      <trkpt lat="45.91431" lon="6.49116">
        <ele>1727</ele>
        <time>2019-02-06T09:01:40.000Z</time>
      </trkpt>
      <trkpt lat="45.91431" lon="6.49115">
        <ele>1728</ele>
        <time>2019-02-06T09:01:44.000Z</time>
      </trkpt>
      <trkpt lat="45.91431" lon="6.49115">
        <ele>1728.4000244141</ele>
        <time>2019-02-06T09:01:45.000Z</time>
      </trkpt>
      <trkpt lat="45.91428" lon="6.49116">
        <ele>1728.4000244141</ele>
        <time>2019-02-06T09:01:50.000Z</time>
      </trkpt>
      <trkpt lat="45.91426" lon="6.49116">
        <ele>1728.4000244141</ele>
        <time>2019-02-06T09:01:54.000Z</time>
      </trkpt>
      <trkpt lat="45.91423" lon="6.49118">
        <ele>1729.4000244141</ele>
        <time>2019-02-06T09:01:59.000Z</time>
      </trkpt>
      <trkpt lat="45.9142" lon="6.49117">
        <ele>1730.5999755859</ele>
        <time>2019-02-06T09:02:03.000Z</time>
      </trkpt>
      <trkpt lat="45.91418" lon="6.49117">
        <ele>1731</ele>
        <time>2019-02-06T09:02:05.000Z</time>
      </trkpt>
      <trkpt lat="45.91417" lon="6.49118">
        <ele>1731.8000488281</ele>
        <time>2019-02-06T09:02:08.000Z</time>
      </trkpt>
      <trkpt lat="45.91416" lon="6.49119">
        <ele>1731.8000488281</ele>
        <time>2019-02-06T09:02:09.000Z</time>
      </trkpt>
      <trkpt lat="45.91412" lon="6.49122">
        <ele>1732.5999755859</ele>
        <time>2019-02-06T09:02:15.000Z</time>
      </trkpt>
      <trkpt lat="45.91411" lon="6.49122">
        <ele>1732.8000488281</ele>
        <time>2019-02-06T09:02:17.000Z</time>
      </trkpt>
      <trkpt lat="45.91408" lon="6.49123">
        <ele>1733.1999511719</ele>
        <time>2019-02-06T09:02:20.000Z</time>
      </trkpt>
      <trkpt lat="45.91406" lon="6.49123">
        <ele>1734.1999511719</ele>
        <time>2019-02-06T09:02:23.000Z</time>
      </trkpt>
      <trkpt lat="45.91405" lon="6.49123">
        <ele>1734.8000488281</ele>
        <time>2019-02-06T09:02:25.000Z</time>
      </trkpt>
      <trkpt lat="45.91404" lon="6.49123">
        <ele>1735.1999511719</ele>
        <time>2019-02-06T09:02:27.000Z</time>
      </trkpt>
      <trkpt lat="45.91402" lon="6.49124">
        <ele>1735.5999755859</ele>
        <time>2019-02-06T09:02:30.000Z</time>
      </trkpt>
      <trkpt lat="45.91397" lon="6.49124">
        <ele>1735.1999511719</ele>
        <time>2019-02-06T09:02:35.000Z</time>
      </trkpt>
      <trkpt lat="45.91393" lon="6.49125">
        <ele>1736.5999755859</ele>
        <time>2019-02-06T09:02:40.000Z</time>
      </trkpt>
      <trkpt lat="45.9139" lon="6.49124">
        <ele>1737.8000488281</ele>
        <time>2019-02-06T09:02:44.000Z</time>
      </trkpt>
      <trkpt lat="45.91388" lon="6.49124">
        <ele>1738</ele>
        <time>2019-02-06T09:02:45.000Z</time>
      </trkpt>
      <trkpt lat="45.91388" lon="6.49124">
        <ele>1738.8000488281</ele>
        <time>2019-02-06T09:02:48.000Z</time>
      </trkpt>
      <trkpt lat="45.91387" lon="6.49124">
        <ele>1738.8000488281</ele>
        <time>2019-02-06T09:02:49.000Z</time>
      </trkpt>
      <trkpt lat="45.91385" lon="6.49125">
        <ele>1739.5999755859</ele>
        <time>2019-02-06T09:02:53.000Z</time>
      </trkpt>
      <trkpt lat="45.91385" lon="6.49125">
        <ele>1740</ele>
        <time>2019-02-06T09:02:54.000Z</time>
      </trkpt>
      <trkpt lat="45.91383" lon="6.49125">
        <ele>1740.1999511719</ele>
        <time>2019-02-06T09:02:58.000Z</time>
      </trkpt>
      <trkpt lat="45.91379" lon="6.49123">
        <ele>1741.4000244141</ele>
        <time>2019-02-06T09:03:02.000Z</time>
      </trkpt>
      <trkpt lat="45.91378" lon="6.49123">
        <ele>1742</ele>
        <time>2019-02-06T09:03:04.000Z</time>
      </trkpt>
      <trkpt lat="45.91376" lon="6.49123">
        <ele>1742.8000488281</ele>
        <time>2019-02-06T09:03:06.000Z</time>
      </trkpt>
      <trkpt lat="45.91374" lon="6.49122">
        <ele>1742.8000488281</ele>
        <time>2019-02-06T09:03:09.000Z</time>
      </trkpt>
      <trkpt lat="45.91371" lon="6.4912">
        <ele>1743</ele>
        <time>2019-02-06T09:03:14.000Z</time>
      </trkpt>
      <trkpt lat="45.91369" lon="6.49117">
        <ele>1743.8000488281</ele>
        <time>2019-02-06T09:03:18.000Z</time>
      </trkpt>
      <trkpt lat="45.91368" lon="6.49116">
        <ele>1744.8000488281</ele>
        <time>2019-02-06T09:03:21.000Z</time>
      </trkpt>
      <trkpt lat="45.91367" lon="6.49115">
        <ele>1745.1999511719</ele>
        <time>2019-02-06T09:03:22.000Z</time>
      </trkpt>
      <trkpt lat="45.91365" lon="6.49114">
        <ele>1746.4000244141</ele>
        <time>2019-02-06T09:03:26.000Z</time>
      </trkpt>
      <trkpt lat="45.91361" lon="6.49113">
        <ele>1747.5999755859</ele>
        <time>2019-02-06T09:03:32.000Z</time>
      </trkpt>
      <trkpt lat="45.91361" lon="6.49113">
        <ele>1748.5999755859</ele>
        <time>2019-02-06T09:03:34.000Z</time>
      </trkpt>
      <trkpt lat="45.91361" lon="6.49113">
        <ele>1749.1999511719</ele>
        <time>2019-02-06T09:03:35.000Z</time>
      </trkpt>
      <trkpt lat="45.91361" lon="6.49113">
        <ele>1749</ele>
        <time>2019-02-06T09:03:39.000Z</time>
      </trkpt>
      <trkpt lat="45.9136" lon="6.49113">
        <ele>1748.5999755859</ele>
        <time>2019-02-06T09:03:49.000Z</time>
      </trkpt>
      <trkpt lat="45.91355" lon="6.49118">
        <ele>1749.4000244141</ele>
        <time>2019-02-06T09:03:57.000Z</time>
      </trkpt>
      <trkpt lat="45.91354" lon="6.49118">
        <ele>1750.1999511719</ele>
        <time>2019-02-06T09:04:00.000Z</time>
      </trkpt>
      <trkpt lat="45.91352" lon="6.49119">
        <ele>1750.4000244141</ele>
        <time>2019-02-06T09:04:01.000Z</time>
      </trkpt>
      <trkpt lat="45.91352" lon="6.49119">
        <ele>1751.4000244141</ele>
        <time>2019-02-06T09:04:06.000Z</time>
      </trkpt>
      <trkpt lat="45.9135" lon="6.49119">
        <ele>1752.5999755859</ele>
        <time>2019-02-06T09:04:10.000Z</time>
      </trkpt>
      <trkpt lat="45.91349" lon="6.49119">
        <ele>1752.8000488281</ele>
        <time>2019-02-06T09:04:11.000Z</time>
      </trkpt>
      <trkpt lat="45.91348" lon="6.4912">
        <ele>1753.5999755859</ele>
        <time>2019-02-06T09:04:15.000Z</time>
      </trkpt>
      <trkpt lat="45.91347" lon="6.4912">
        <ele>1753.8000488281</ele>
        <time>2019-02-06T09:04:16.000Z</time>
      </trkpt>
      <trkpt lat="45.91347" lon="6.4912">
        <ele>1754.8000488281</ele>
        <time>2019-02-06T09:04:20.000Z</time>
      </trkpt>
      <trkpt lat="45.91347" lon="6.4912">
        <ele>1755</ele>
        <time>2019-02-06T09:04:24.000Z</time>
      </trkpt>
      <trkpt lat="45.91342" lon="6.49122">
        <ele>1754.4000244141</ele>
        <time>2019-02-06T09:04:29.000Z</time>
      </trkpt>
      <trkpt lat="45.91339" lon="6.49122">
        <ele>1755.5999755859</ele>
        <time>2019-02-06T09:04:34.000Z</time>
      </trkpt>
      <trkpt lat="45.91338" lon="6.49122">
        <ele>1756</ele>
        <time>2019-02-06T09:04:35.000Z</time>
      </trkpt>
      <trkpt lat="45.91337" lon="6.49124">
        <ele>1756.8000488281</ele>
        <time>2019-02-06T09:04:40.000Z</time>
      </trkpt>
      <trkpt lat="45.91336" lon="6.49124">
        <ele>1757</ele>
        <time>2019-02-06T09:04:41.000Z</time>
      </trkpt>
      <trkpt lat="45.91334" lon="6.49124">
        <ele>1758</ele>
        <time>2019-02-06T09:04:45.000Z</time>
      </trkpt>
      <trkpt lat="45.91333" lon="6.49124">
        <ele>1758.1999511719</ele>
        <time>2019-02-06T09:04:46.000Z</time>
      </trkpt>
      <trkpt lat="45.91332" lon="6.49125">
        <ele>1758.1999511719</ele>
        <time>2019-02-06T09:04:50.000Z</time>
      </trkpt>
      <trkpt lat="45.91329" lon="6.49127">
        <ele>1759.1999511719</ele>
        <time>2019-02-06T09:04:53.000Z</time>
      </trkpt>
      <trkpt lat="45.91327" lon="6.49127">
        <ele>1760.4000244141</ele>
        <time>2019-02-06T09:04:56.000Z</time>
      </trkpt>
      <trkpt lat="45.91324" lon="6.49128">
        <ele>1761.1999511719</ele>
        <time>2019-02-06T09:05:01.000Z</time>
      </trkpt>
      <trkpt lat="45.91321" lon="6.49129">
        <ele>1761.5999755859</ele>
        <time>2019-02-06T09:05:04.000Z</time>
      </trkpt>
      <trkpt lat="45.9132" lon="6.4913">
        <ele>1761.8000488281</ele>
        <time>2019-02-06T09:05:06.000Z</time>
      </trkpt>
      <trkpt lat="45.9132" lon="6.49133">
        <ele>1762.8000488281</ele>
        <time>2019-02-06T09:05:10.000Z</time>
      </trkpt>
      <trkpt lat="45.9132" lon="6.49134">
        <ele>1763.4000244141</ele>
        <time>2019-02-06T09:05:11.000Z</time>
      </trkpt>
      <trkpt lat="45.9132" lon="6.49135">
        <ele>1764</ele>
        <time>2019-02-06T09:05:13.000Z</time>
      </trkpt>
      <trkpt lat="45.9132" lon="6.4914">
        <ele>1764.8000488281</ele>
        <time>2019-02-06T09:05:18.000Z</time>
      </trkpt>
      <trkpt lat="45.9132" lon="6.49141">
        <ele>1765.1999511719</ele>
        <time>2019-02-06T09:05:19.000Z</time>
      </trkpt>
      <trkpt lat="45.9132" lon="6.49146">
        <ele>1766</ele>
        <time>2019-02-06T09:05:24.000Z</time>
      </trkpt>
      <trkpt lat="45.91319" lon="6.49146">
        <ele>1766.1999511719</ele>
        <time>2019-02-06T09:05:25.000Z</time>
      </trkpt>
      <trkpt lat="45.91319" lon="6.49149">
        <ele>1767.1999511719</ele>
        <time>2019-02-06T09:05:30.000Z</time>
      </trkpt>
      <trkpt lat="45.91319" lon="6.49152">
        <ele>1768.4000244141</ele>
        <time>2019-02-06T09:05:34.000Z</time>
      </trkpt>
      <trkpt lat="45.91319" lon="6.49155">
        <ele>1769</ele>
        <time>2019-02-06T09:05:38.000Z</time>
      </trkpt>
      <trkpt lat="45.91319" lon="6.49158">
        <ele>1769.5999755859</ele>
        <time>2019-02-06T09:05:41.000Z</time>
      </trkpt>
      <trkpt lat="45.9132" lon="6.49161">
        <ele>1770</ele>
        <time>2019-02-06T09:05:44.000Z</time>
      </trkpt>
      <trkpt lat="45.9132" lon="6.49162">
        <ele>1770.8000488281</ele>
        <time>2019-02-06T09:05:47.000Z</time>
      </trkpt>
      <trkpt lat="45.9132" lon="6.49164">
        <ele>1770.8000488281</ele>
        <time>2019-02-06T09:05:50.000Z</time>
      </trkpt>
      <trkpt lat="45.91319" lon="6.49164">
        <ele>1771.8000488281</ele>
        <time>2019-02-06T09:05:53.000Z</time>
      </trkpt>
      <trkpt lat="45.91318" lon="6.49164">
        <ele>1773.1999511719</ele>
        <time>2019-02-06T09:05:56.000Z</time>
      </trkpt>
      <trkpt lat="45.91318" lon="6.49164">
        <ele>1773.4000244141</ele>
        <time>2019-02-06T09:05:57.000Z</time>
      </trkpt>
      <trkpt lat="45.91314" lon="6.49166">
        <ele>1774.1999511719</ele>
        <time>2019-02-06T09:06:03.000Z</time>
      </trkpt>
      <trkpt lat="45.91312" lon="6.49166">
        <ele>1775.4000244141</ele>
        <time>2019-02-06T09:06:07.000Z</time>
      </trkpt>
      <trkpt lat="45.91312" lon="6.49166">
        <ele>1775.5999755859</ele>
        <time>2019-02-06T09:06:09.000Z</time>
      </trkpt>
      <trkpt lat="45.91309" lon="6.49166">
        <ele>1776.1999511719</ele>
        <time>2019-02-06T09:06:13.000Z</time>
      </trkpt>
      <trkpt lat="45.9131" lon="6.49166">
        <ele>1776.5999755859</ele>
        <time>2019-02-06T09:06:14.000Z</time>
      </trkpt>
      <trkpt lat="45.9131" lon="6.49166">
        <ele>1777.5999755859</ele>
        <time>2019-02-06T09:06:18.000Z</time>
      </trkpt>
      <trkpt lat="45.9131" lon="6.49166">
        <ele>1777.8000488281</ele>
        <time>2019-02-06T09:06:19.000Z</time>
      </trkpt>
      <trkpt lat="45.91308" lon="6.49168">
        <ele>1778.8000488281</ele>
        <time>2019-02-06T09:06:24.000Z</time>
      </trkpt>
      <trkpt lat="45.91306" lon="6.49168">
        <ele>1779.5999755859</ele>
        <time>2019-02-06T09:06:26.000Z</time>
      </trkpt>
      <trkpt lat="45.91306" lon="6.49168">
        <ele>1780</ele>
        <time>2019-02-06T09:06:27.000Z</time>
      </trkpt>
      <trkpt lat="45.91305" lon="6.49169">
        <ele>1780.1999511719</ele>
        <time>2019-02-06T09:06:28.000Z</time>
      </trkpt>
      <trkpt lat="45.91303" lon="6.49169">
        <ele>1780.8000488281</ele>
        <time>2019-02-06T09:06:32.000Z</time>
      </trkpt>
      <trkpt lat="45.91302" lon="6.49169">
        <ele>1781.1999511719</ele>
        <time>2019-02-06T09:06:33.000Z</time>
      </trkpt>
      <trkpt lat="45.91301" lon="6.4917">
        <ele>1782.1999511719</ele>
        <time>2019-02-06T09:06:37.000Z</time>
      </trkpt>
      <trkpt lat="45.91301" lon="6.4917">
        <ele>1782</ele>
        <time>2019-02-06T09:06:50.000Z</time>
      </trkpt>
      <trkpt lat="45.913" lon="6.4917">
        <ele>1782</ele>
        <time>2019-02-06T09:07:02.000Z</time>
      </trkpt>
      <trkpt lat="45.91296" lon="6.49171">
        <ele>1782.1999511719</ele>
        <time>2019-02-06T09:07:07.000Z</time>
      </trkpt>
      <trkpt lat="45.91293" lon="6.49172">
        <ele>1783.4000244141</ele>
        <time>2019-02-06T09:07:11.000Z</time>
      </trkpt>
      <trkpt lat="45.91292" lon="6.49172">
        <ele>1783.5999755859</ele>
        <time>2019-02-06T09:07:12.000Z</time>
      </trkpt>
      <trkpt lat="45.91289" lon="6.49173">
        <ele>1784.5999755859</ele>
        <time>2019-02-06T09:07:17.000Z</time>
      </trkpt>
      <trkpt lat="45.91285" lon="6.49174">
        <ele>1785.1999511719</ele>
        <time>2019-02-06T09:07:22.000Z</time>
      </trkpt>
      <trkpt lat="45.91284" lon="6.49174">
        <ele>1785.5999755859</ele>
        <time>2019-02-06T09:07:23.000Z</time>
      </trkpt>
      <trkpt lat="45.91281" lon="6.49174">
        <ele>1786.5999755859</ele>
        <time>2019-02-06T09:07:27.000Z</time>
      </trkpt>
      <trkpt lat="45.91276" lon="6.49174">
        <ele>1787.8000488281</ele>
        <time>2019-02-06T09:07:34.000Z</time>
      </trkpt>
      <trkpt lat="45.91274" lon="6.49174">
        <ele>1789</ele>
        <time>2019-02-06T09:07:39.000Z</time>
      </trkpt>
      <trkpt lat="45.91274" lon="6.49174">
        <ele>1789.5999755859</ele>
        <time>2019-02-06T09:07:44.000Z</time>
      </trkpt>
      <trkpt lat="45.91274" lon="6.49174">
        <ele>1790.1999511719</ele>
        <time>2019-02-06T09:07:47.000Z</time>
      </trkpt>
      <trkpt lat="45.91271" lon="6.49176">
        <ele>1791.1999511719</ele>
        <time>2019-02-06T09:07:53.000Z</time>
      </trkpt>
      <trkpt lat="45.91268" lon="6.49178">
        <ele>1791.8000488281</ele>
        <time>2019-02-06T09:07:57.000Z</time>
      </trkpt>
      <trkpt lat="45.91268" lon="6.49179">
        <ele>1792.1999511719</ele>
        <time>2019-02-06T09:07:59.000Z</time>
      </trkpt>
      <trkpt lat="45.91267" lon="6.4918">
        <ele>1792.5999755859</ele>
        <time>2019-02-06T09:08:01.000Z</time>
      </trkpt>
      <trkpt lat="45.91266" lon="6.49181">
        <ele>1793.4000244141</ele>
        <time>2019-02-06T09:08:04.000Z</time>
      </trkpt>
      <trkpt lat="45.91265" lon="6.49182">
        <ele>1793.4000244141</ele>
        <time>2019-02-06T09:08:05.000Z</time>
      </trkpt>
      <trkpt lat="45.91264" lon="6.49183">
        <ele>1794.5999755859</ele>
        <time>2019-02-06T09:08:08.000Z</time>
      </trkpt>
      <trkpt lat="45.91264" lon="6.49184">
        <ele>1795.1999511719</ele>
        <time>2019-02-06T09:08:11.000Z</time>
      </trkpt>
      <trkpt lat="45.91264" lon="6.49184">
        <ele>1795.8000488281</ele>
        <time>2019-02-06T09:08:12.000Z</time>
      </trkpt>
      <trkpt lat="45.91263" lon="6.49186">
        <ele>1795.5999755859</ele>
        <time>2019-02-06T09:08:15.000Z</time>
      </trkpt>
      <trkpt lat="45.91262" lon="6.49187">
        <ele>1796.8000488281</ele>
        <time>2019-02-06T09:08:19.000Z</time>
      </trkpt>
      <trkpt lat="45.91261" lon="6.49189">
        <ele>1798</ele>
        <time>2019-02-06T09:08:23.000Z</time>
      </trkpt>
      <trkpt lat="45.9126" lon="6.4919">
        <ele>1798</ele>
        <time>2019-02-06T09:08:25.000Z</time>
      </trkpt>
      <trkpt lat="45.91259" lon="6.49191">
        <ele>1799</ele>
        <time>2019-02-06T09:08:28.000Z</time>
      </trkpt>
      <trkpt lat="45.91259" lon="6.49192">
        <ele>1799.4000244141</ele>
        <time>2019-02-06T09:08:30.000Z</time>
      </trkpt>
      <trkpt lat="45.91258" lon="6.49194">
        <ele>1800.1999511719</ele>
        <time>2019-02-06T09:08:34.000Z</time>
      </trkpt>
      <trkpt lat="45.91257" lon="6.49195">
        <ele>1800.8000488281</ele>
        <time>2019-02-06T09:08:36.000Z</time>
      </trkpt>
      <trkpt lat="45.91256" lon="6.49197">
        <ele>1801.4000244141</ele>
        <time>2019-02-06T09:08:40.000Z</time>
      </trkpt>
      <trkpt lat="45.91255" lon="6.49197">
        <ele>1801.5999755859</ele>
        <time>2019-02-06T09:08:43.000Z</time>
      </trkpt>
      <trkpt lat="45.91253" lon="6.49195">
        <ele>1802.8000488281</ele>
        <time>2019-02-06T09:08:46.000Z</time>
      </trkpt>
      <trkpt lat="45.91251" lon="6.49195">
        <ele>1803.5999755859</ele>
        <time>2019-02-06T09:08:48.000Z</time>
      </trkpt>
      <trkpt lat="45.91251" lon="6.49195">
        <ele>1804</ele>
        <time>2019-02-06T09:08:49.000Z</time>
      </trkpt>
      <trkpt lat="45.91249" lon="6.49195">
        <ele>1804.4000244141</ele>
        <time>2019-02-06T09:08:53.000Z</time>
      </trkpt>
      <trkpt lat="45.91245" lon="6.49192">
        <ele>1805.1999511719</ele>
        <time>2019-02-06T09:09:00.000Z</time>
      </trkpt>
      <trkpt lat="45.91244" lon="6.49192">
        <ele>1806.1999511719</ele>
        <time>2019-02-06T09:09:03.000Z</time>
      </trkpt>
      <trkpt lat="45.91242" lon="6.4919">
        <ele>1807</ele>
        <time>2019-02-06T09:09:06.000Z</time>
      </trkpt>
      <trkpt lat="45.91241" lon="6.4919">
        <ele>1807.4000244141</ele>
        <time>2019-02-06T09:09:07.000Z</time>
      </trkpt>
      <trkpt lat="45.91238" lon="6.49189">
        <ele>1808.4000244141</ele>
        <time>2019-02-06T09:09:12.000Z</time>
      </trkpt>
      <trkpt lat="45.91234" lon="6.49189">
        <ele>1809</ele>
        <time>2019-02-06T09:09:19.000Z</time>
      </trkpt>
      <trkpt lat="45.91234" lon="6.4919">
        <ele>1809.4000244141</ele>
        <time>2019-02-06T09:09:21.000Z</time>
      </trkpt>
      <trkpt lat="45.91234" lon="6.4919">
        <ele>1810</ele>
        <time>2019-02-06T09:09:23.000Z</time>
      </trkpt>
      <trkpt lat="45.91234" lon="6.4919">
        <ele>1810.4000244141</ele>
        <time>2019-02-06T09:09:24.000Z</time>
      </trkpt>
      <trkpt lat="45.91233" lon="6.49191">
        <ele>1811.1999511719</ele>
        <time>2019-02-06T09:09:28.000Z</time>
      </trkpt>
      <trkpt lat="45.91233" lon="6.49193">
        <ele>1811.1999511719</ele>
        <time>2019-02-06T09:09:32.000Z</time>
      </trkpt>
      <trkpt lat="45.91233" lon="6.49193">
        <ele>1811.5999755859</ele>
        <time>2019-02-06T09:09:33.000Z</time>
      </trkpt>
      <trkpt lat="45.91233" lon="6.49193">
        <ele>1812.5999755859</ele>
        <time>2019-02-06T09:09:38.000Z</time>
      </trkpt>
      <trkpt lat="45.9123" lon="6.49199">
        <ele>1813.8000488281</ele>
        <time>2019-02-06T09:09:45.000Z</time>
      </trkpt>
      <trkpt lat="45.91228" lon="6.49202">
        <ele>1815.1999511719</ele>
        <time>2019-02-06T09:09:49.000Z</time>
      </trkpt>
      <trkpt lat="45.91228" lon="6.49202">
        <ele>1816.1999511719</ele>
        <time>2019-02-06T09:09:55.000Z</time>
      </trkpt>
      <trkpt lat="45.91228" lon="6.49202">
        <ele>1817.8000488281</ele>
        <time>2019-02-06T09:10:00.000Z</time>
      </trkpt>
      <trkpt lat="45.91228" lon="6.49202">
        <ele>1818</ele>
        <time>2019-02-06T09:10:02.000Z</time>
      </trkpt>
      <trkpt lat="45.91228" lon="6.49204">
        <ele>1819</ele>
        <time>2019-02-06T09:10:06.000Z</time>
      </trkpt>
      <trkpt lat="45.91227" lon="6.49207">
        <ele>1819.4000244141</ele>
        <time>2019-02-06T09:10:08.000Z</time>
      </trkpt>
      <trkpt lat="45.91226" lon="6.4921">
        <ele>1819.8000488281</ele>
        <time>2019-02-06T09:10:09.000Z</time>
      </trkpt>
      <trkpt lat="45.91225" lon="6.49212">
        <ele>1820</ele>
        <time>2019-02-06T09:10:11.000Z</time>
      </trkpt>
      <trkpt lat="45.91225" lon="6.49213">
        <ele>1820.1999511719</ele>
        <time>2019-02-06T09:10:12.000Z</time>
      </trkpt>
      <trkpt lat="45.91221" lon="6.49219">
        <ele>1821.1999511719</ele>
        <time>2019-02-06T09:10:17.000Z</time>
      </trkpt>
      <trkpt lat="45.9122" lon="6.49222">
        <ele>1821.4000244141</ele>
        <time>2019-02-06T09:10:21.000Z</time>
      </trkpt>
      <trkpt lat="45.91219" lon="6.49224">
        <ele>1822.4000244141</ele>
        <time>2019-02-06T09:10:24.000Z</time>
      </trkpt>
      <trkpt lat="45.91219" lon="6.49224">
        <ele>1822.8000488281</ele>
        <time>2019-02-06T09:10:25.000Z</time>
      </trkpt>
      <trkpt lat="45.91219" lon="6.49224">
        <ele>1823.8000488281</ele>
        <time>2019-02-06T09:10:28.000Z</time>
      </trkpt>
      <trkpt lat="45.91219" lon="6.49224">
        <ele>1824.1999511719</ele>
        <time>2019-02-06T09:10:31.000Z</time>
      </trkpt>
      <trkpt lat="45.91219" lon="6.49224">
        <ele>1825</ele>
        <time>2019-02-06T09:10:35.000Z</time>
      </trkpt>
      <trkpt lat="45.91219" lon="6.49224">
        <ele>1825.1999511719</ele>
        <time>2019-02-06T09:10:36.000Z</time>
      </trkpt>
      <trkpt lat="45.91219" lon="6.49224">
        <ele>1826</ele>
        <time>2019-02-06T09:10:42.000Z</time>
      </trkpt>
      <trkpt lat="45.91219" lon="6.49224">
        <ele>1827.4000244141</ele>
        <time>2019-02-06T09:10:47.000Z</time>
      </trkpt>
      <trkpt lat="45.91219" lon="6.49224">
        <ele>1828</ele>
        <time>2019-02-06T09:10:49.000Z</time>
      </trkpt>
      <trkpt lat="45.91218" lon="6.49229">
        <ele>1828.5999755859</ele>
        <time>2019-02-06T09:10:52.000Z</time>
      </trkpt>
      <trkpt lat="45.91217" lon="6.49232">
        <ele>1828.8000488281</ele>
        <time>2019-02-06T09:10:54.000Z</time>
      </trkpt>
      <trkpt lat="45.91215" lon="6.49243">
        <ele>1829.8000488281</ele>
        <time>2019-02-06T09:11:00.000Z</time>
      </trkpt>
      <trkpt lat="45.91213" lon="6.4925">
        <ele>1830.1999511719</ele>
        <time>2019-02-06T09:11:05.000Z</time>
      </trkpt>
      <trkpt lat="45.91211" lon="6.49257">
        <ele>1830.8000488281</ele>
        <time>2019-02-06T09:11:10.000Z</time>
      </trkpt>
      <trkpt lat="45.9121" lon="6.4926">
        <ele>1831.5999755859</ele>
        <time>2019-02-06T09:11:12.000Z</time>
      </trkpt>
      <trkpt lat="45.91209" lon="6.49265">
        <ele>1832</ele>
        <time>2019-02-06T09:11:16.000Z</time>
      </trkpt>
      <trkpt lat="45.91209" lon="6.49265">
        <ele>1832</ele>
        <time>2019-02-06T09:11:18.000Z</time>
      </trkpt>
      <trkpt lat="45.91209" lon="6.49265">
        <ele>1832.5999755859</ele>
        <time>2019-02-06T09:11:25.000Z</time>
      </trkpt>
      <trkpt lat="45.91209" lon="6.49265">
        <ele>1833</ele>
        <time>2019-02-06T09:11:28.000Z</time>
      </trkpt>
      <trkpt lat="45.91209" lon="6.49265">
        <ele>1833.5999755859</ele>
        <time>2019-02-06T09:11:31.000Z</time>
      </trkpt>
      <trkpt lat="45.91209" lon="6.49265">
        <ele>1834.4000244141</ele>
        <time>2019-02-06T09:11:34.000Z</time>
      </trkpt>
      <trkpt lat="45.91209" lon="6.49265">
        <ele>1834.8000488281</ele>
        <time>2019-02-06T09:11:38.000Z</time>
      </trkpt>
      <trkpt lat="45.91208" lon="6.49266">
        <ele>1835.8000488281</ele>
        <time>2019-02-06T09:11:40.000Z</time>
      </trkpt>
      <trkpt lat="45.91206" lon="6.49266">
        <ele>1836.1999511719</ele>
        <time>2019-02-06T09:11:41.000Z</time>
      </trkpt>
      <trkpt lat="45.91206" lon="6.49267">
        <ele>1836.4000244141</ele>
        <time>2019-02-06T09:11:42.000Z</time>
      </trkpt>
      <trkpt lat="45.91202" lon="6.49267">
        <ele>1836.1999511719</ele>
        <time>2019-02-06T09:11:46.000Z</time>
      </trkpt>
      <trkpt lat="45.91201" lon="6.49267">
        <ele>1836.1999511719</ele>
        <time>2019-02-06T09:11:48.000Z</time>
      </trkpt>
      <trkpt lat="45.91199" lon="6.49267">
        <ele>1836.4000244141</ele>
        <time>2019-02-06T09:11:50.000Z</time>
      </trkpt>
      <trkpt lat="45.91197" lon="6.49267">
        <ele>1837</ele>
        <time>2019-02-06T09:11:53.000Z</time>
      </trkpt>
      <trkpt lat="45.91197" lon="6.49267">
        <ele>1837.1999511719</ele>
        <time>2019-02-06T09:11:54.000Z</time>
      </trkpt>
      <trkpt lat="45.91194" lon="6.49267">
        <ele>1838.4000244141</ele>
        <time>2019-02-06T09:11:59.000Z</time>
      </trkpt>
      <trkpt lat="45.91192" lon="6.49267">
        <ele>1839.4000244141</ele>
        <time>2019-02-06T09:12:02.000Z</time>
      </trkpt>
      <trkpt lat="45.91192" lon="6.49268">
        <ele>1839.8000488281</ele>
        <time>2019-02-06T09:12:05.000Z</time>
      </trkpt>
      <trkpt lat="45.91193" lon="6.49276">
        <ele>1839.4000244141</ele>
        <time>2019-02-06T09:12:11.000Z</time>
      </trkpt>
      <trkpt lat="45.91194" lon="6.49282">
        <ele>1840.1999511719</ele>
        <time>2019-02-06T09:12:16.000Z</time>
      </trkpt>
      <trkpt lat="45.91195" lon="6.49286">
        <ele>1840.4000244141</ele>
        <time>2019-02-06T09:12:21.000Z</time>
      </trkpt>
      <trkpt lat="45.91195" lon="6.49286">
        <ele>1840.5999755859</ele>
        <time>2019-02-06T09:12:22.000Z</time>
      </trkpt>
      <trkpt lat="45.91195" lon="6.49286">
        <ele>1841.8000488281</ele>
        <time>2019-02-06T09:12:24.000Z</time>
      </trkpt>
      <trkpt lat="45.91195" lon="6.49286">
        <ele>1842.4000244141</ele>
        <time>2019-02-06T09:12:28.000Z</time>
      </trkpt>
      <trkpt lat="45.91195" lon="6.49287">
        <ele>1842.8000488281</ele>
        <time>2019-02-06T09:12:32.000Z</time>
      </trkpt>
      <trkpt lat="45.91195" lon="6.49287">
        <ele>1843</ele>
        <time>2019-02-06T09:12:33.000Z</time>
      </trkpt>
      <trkpt lat="45.91196" lon="6.4929">
        <ele>1843.4000244141</ele>
        <time>2019-02-06T09:12:40.000Z</time>
      </trkpt>
      <trkpt lat="45.91197" lon="6.49293">
        <ele>1844.1999511719</ele>
        <time>2019-02-06T09:12:42.000Z</time>
      </trkpt>
      <trkpt lat="45.91197" lon="6.49293">
        <ele>1845</ele>
        <time>2019-02-06T09:12:46.000Z</time>
      </trkpt>
      <trkpt lat="45.91197" lon="6.49293">
        <ele>1845.1999511719</ele>
        <time>2019-02-06T09:12:47.000Z</time>
      </trkpt>
      <trkpt lat="45.91197" lon="6.49293">
        <ele>1845</ele>
        <time>2019-02-06T09:12:51.000Z</time>
      </trkpt>
      <trkpt lat="45.91194" lon="6.49295">
        <ele>1846.4000244141</ele>
        <time>2019-02-06T09:12:56.000Z</time>
      </trkpt>
      <trkpt lat="45.91193" lon="6.49296">
        <ele>1846.4000244141</ele>
        <time>2019-02-06T09:12:57.000Z</time>
      </trkpt>
      <trkpt lat="45.91191" lon="6.49298">
        <ele>1847.1999511719</ele>
        <time>2019-02-06T09:13:02.000Z</time>
      </trkpt>
      <trkpt lat="45.91192" lon="6.49298">
        <ele>1847.4000244141</ele>
        <time>2019-02-06T09:13:03.000Z</time>
      </trkpt>
      <trkpt lat="45.91192" lon="6.49298">
        <ele>1848.4000244141</ele>
        <time>2019-02-06T09:13:07.000Z</time>
      </trkpt>
      <trkpt lat="45.91192" lon="6.49298">
        <ele>1849.5999755859</ele>
        <time>2019-02-06T09:13:12.000Z</time>
      </trkpt>
      <trkpt lat="45.91192" lon="6.49298">
        <ele>1850</ele>
        <time>2019-02-06T09:13:14.000Z</time>
      </trkpt>
      <trkpt lat="45.9119" lon="6.49299">
        <ele>1850.8000488281</ele>
        <time>2019-02-06T09:13:18.000Z</time>
      </trkpt>
      <trkpt lat="45.91189" lon="6.49299">
        <ele>1850.5999755859</ele>
        <time>2019-02-06T09:13:19.000Z</time>
      </trkpt>
      <trkpt lat="45.91186" lon="6.49302">
        <ele>1851.8000488281</ele>
        <time>2019-02-06T09:13:26.000Z</time>
      </trkpt>
      <trkpt lat="45.91186" lon="6.49302">
        <ele>1853.1999511719</ele>
        <time>2019-02-06T09:13:28.000Z</time>
      </trkpt>
      <trkpt lat="45.91186" lon="6.49302">
        <ele>1853.1999511719</ele>
        <time>2019-02-06T09:13:34.000Z</time>
      </trkpt>
      <trkpt lat="45.91186" lon="6.49302">
        <ele>1853.8000488281</ele>
        <time>2019-02-06T09:13:41.000Z</time>
      </trkpt>
      <trkpt lat="45.91187" lon="6.49305">
        <ele>1854.4000244141</ele>
        <time>2019-02-06T09:13:43.000Z</time>
      </trkpt>
      <trkpt lat="45.91188" lon="6.49314">
        <ele>1855.4000244141</ele>
        <time>2019-02-06T09:13:48.000Z</time>
      </trkpt>
      <trkpt lat="45.91188" lon="6.49325">
        <ele>1856.4000244141</ele>
        <time>2019-02-06T09:13:54.000Z</time>
      </trkpt>
      <trkpt lat="45.91189" lon="6.49329">
        <ele>1856.5999755859</ele>
        <time>2019-02-06T09:13:58.000Z</time>
      </trkpt>
      <trkpt lat="45.9119" lon="6.49332">
        <ele>1857.4000244141</ele>
        <time>2019-02-06T09:14:01.000Z</time>
      </trkpt>
      <trkpt lat="45.9119" lon="6.49335">
        <ele>1857.5999755859</ele>
        <time>2019-02-06T09:14:03.000Z</time>
      </trkpt>
      <trkpt lat="45.9119" lon="6.49335">
        <ele>1858.5999755859</ele>
        <time>2019-02-06T09:14:07.000Z</time>
      </trkpt>
      <trkpt lat="45.9119" lon="6.49335">
        <ele>1859</ele>
        <time>2019-02-06T09:14:09.000Z</time>
      </trkpt>
      <trkpt lat="45.9119" lon="6.49335">
        <ele>1859.1999511719</ele>
        <time>2019-02-06T09:14:14.000Z</time>
      </trkpt>
      <trkpt lat="45.9119" lon="6.49335">
        <ele>1860</ele>
        <time>2019-02-06T09:14:16.000Z</time>
      </trkpt>
      <trkpt lat="45.9119" lon="6.49335">
        <ele>1860.8000488281</ele>
        <time>2019-02-06T09:14:19.000Z</time>
      </trkpt>
      <trkpt lat="45.9119" lon="6.49334">
        <ele>1861.4000244141</ele>
        <time>2019-02-06T09:14:24.000Z</time>
      </trkpt>
      <trkpt lat="45.91189" lon="6.49334">
        <ele>1861.8000488281</ele>
        <time>2019-02-06T09:14:25.000Z</time>
      </trkpt>
      <trkpt lat="45.91188" lon="6.49333">
        <ele>1862.5999755859</ele>
        <time>2019-02-06T09:14:29.000Z</time>
      </trkpt>
      <trkpt lat="45.91185" lon="6.49334">
        <ele>1862.8000488281</ele>
        <time>2019-02-06T09:14:34.000Z</time>
      </trkpt>
      <trkpt lat="45.91185" lon="6.49334">
        <ele>1863.8000488281</ele>
        <time>2019-02-06T09:14:38.000Z</time>
      </trkpt>
      <trkpt lat="45.91184" lon="6.49334">
        <ele>1865</ele>
        <time>2019-02-06T09:14:41.000Z</time>
      </trkpt>
      <trkpt lat="45.91179" lon="6.49334">
        <ele>1865.1999511719</ele>
        <time>2019-02-06T09:14:48.000Z</time>
      </trkpt>
      <trkpt lat="45.91177" lon="6.49334">
        <ele>1866</ele>
        <time>2019-02-06T09:14:52.000Z</time>
      </trkpt>
      <trkpt lat="45.91176" lon="6.49334">
        <ele>1866.4000244141</ele>
        <time>2019-02-06T09:14:53.000Z</time>
      </trkpt>
      <trkpt lat="45.91175" lon="6.49335">
        <ele>1867.4000244141</ele>
        <time>2019-02-06T09:14:57.000Z</time>
      </trkpt>
      <trkpt lat="45.91173" lon="6.49335">
        <ele>1867.8000488281</ele>
        <time>2019-02-06T09:14:59.000Z</time>
      </trkpt>
      <trkpt lat="45.91171" lon="6.49336">
        <ele>1868.5999755859</ele>
        <time>2019-02-06T09:15:02.000Z</time>
      </trkpt>
      <trkpt lat="45.9117" lon="6.49336">
        <ele>1869</ele>
        <time>2019-02-06T09:15:04.000Z</time>
      </trkpt>
      <trkpt lat="45.91168" lon="6.49337">
        <ele>1869.5999755859</ele>
        <time>2019-02-06T09:15:09.000Z</time>
      </trkpt>
      <trkpt lat="45.91168" lon="6.49337">
        <ele>1870.4000244141</ele>
        <time>2019-02-06T09:15:11.000Z</time>
      </trkpt>
      <trkpt lat="45.91168" lon="6.49337">
        <ele>1870.8000488281</ele>
        <time>2019-02-06T09:15:12.000Z</time>
      </trkpt>
      <trkpt lat="45.91166" lon="6.49337">
        <ele>1872</ele>
        <time>2019-02-06T09:15:16.000Z</time>
      </trkpt>
      <trkpt lat="45.91164" lon="6.49337">
        <ele>1872</ele>
        <time>2019-02-06T09:15:17.000Z</time>
      </trkpt>
      <trkpt lat="45.91159" lon="6.49338">
        <ele>1872.5999755859</ele>
        <time>2019-02-06T09:15:22.000Z</time>
      </trkpt>
      <trkpt lat="45.91159" lon="6.49338">
        <ele>1873</ele>
        <time>2019-02-06T09:15:24.000Z</time>
      </trkpt>
      <trkpt lat="45.91159" lon="6.49338">
        <ele>1873.4000244141</ele>
        <time>2019-02-06T09:15:27.000Z</time>
      </trkpt>
      <trkpt lat="45.91159" lon="6.49338">
        <ele>1874</ele>
        <time>2019-02-06T09:15:30.000Z</time>
      </trkpt>
      <trkpt lat="45.91158" lon="6.49337">
        <ele>1873.8000488281</ele>
        <time>2019-02-06T09:15:36.000Z</time>
      </trkpt>
      <trkpt lat="45.91154" lon="6.49336">
        <ele>1874.1999511719</ele>
        <time>2019-02-06T09:15:43.000Z</time>
      </trkpt>
      <trkpt lat="45.91149" lon="6.49334">
        <ele>1874.8000488281</ele>
        <time>2019-02-06T09:15:49.000Z</time>
      </trkpt>
      <trkpt lat="45.91148" lon="6.49334">
        <ele>1875</ele>
        <time>2019-02-06T09:15:50.000Z</time>
      </trkpt>
      <trkpt lat="45.91143" lon="6.49335">
        <ele>1875.8000488281</ele>
        <time>2019-02-06T09:15:55.000Z</time>
      </trkpt>
      <trkpt lat="45.91139" lon="6.49337">
        <ele>1875.8000488281</ele>
        <time>2019-02-06T09:16:01.000Z</time>
      </trkpt>
      <trkpt lat="45.91138" lon="6.49337">
        <ele>1876.1999511719</ele>
        <time>2019-02-06T09:16:02.000Z</time>
      </trkpt>
      <trkpt lat="45.91138" lon="6.49337">
        <ele>1877.4000244141</ele>
        <time>2019-02-06T09:16:05.000Z</time>
      </trkpt>
      <trkpt lat="45.91138" lon="6.49337">
        <ele>1878.1999511719</ele>
        <time>2019-02-06T09:16:08.000Z</time>
      </trkpt>
      <trkpt lat="45.91138" lon="6.49337">
        <ele>1878.5999755859</ele>
        <time>2019-02-06T09:16:09.000Z</time>
      </trkpt>
      <trkpt lat="45.91138" lon="6.49337">
        <ele>1877.4000244141</ele>
        <time>2019-02-06T09:16:16.000Z</time>
      </trkpt>
      <trkpt lat="45.91138" lon="6.49345">
        <ele>1878.5999755859</ele>
        <time>2019-02-06T09:16:23.000Z</time>
      </trkpt>
      <trkpt lat="45.91138" lon="6.49346">
        <ele>1879</ele>
        <time>2019-02-06T09:16:24.000Z</time>
      </trkpt>
      <trkpt lat="45.91138" lon="6.49346">
        <ele>1879.8000488281</ele>
        <time>2019-02-06T09:16:27.000Z</time>
      </trkpt>
      <trkpt lat="45.91138" lon="6.49346">
        <ele>1880.4000244141</ele>
        <time>2019-02-06T09:16:29.000Z</time>
      </trkpt>
      <trkpt lat="45.91138" lon="6.49346">
        <ele>1880.8000488281</ele>
        <time>2019-02-06T09:16:30.000Z</time>
      </trkpt>
      <trkpt lat="45.91138" lon="6.49346">
        <ele>1881.8000488281</ele>
        <time>2019-02-06T09:16:36.000Z</time>
      </trkpt>
      <trkpt lat="45.91138" lon="6.49346">
        <ele>1882.1999511719</ele>
        <time>2019-02-06T09:16:44.000Z</time>
      </trkpt>
      <trkpt lat="45.91138" lon="6.49346">
        <ele>1882.5999755859</ele>
        <time>2019-02-06T09:16:45.000Z</time>
      </trkpt>
      <trkpt lat="45.91138" lon="6.49346">
        <ele>1883.1999511719</ele>
        <time>2019-02-06T09:16:49.000Z</time>
      </trkpt>
      <trkpt lat="45.91142" lon="6.49356">
        <ele>1883.5999755859</ele>
        <time>2019-02-06T09:16:52.000Z</time>
      </trkpt>
      <trkpt lat="45.91142" lon="6.49359">
        <ele>1883.8000488281</ele>
        <time>2019-02-06T09:16:59.000Z</time>
      </trkpt>
      <trkpt lat="45.91142" lon="6.49359">
        <ele>1884.1999511719</ele>
        <time>2019-02-06T09:17:04.000Z</time>
      </trkpt>
      <trkpt lat="45.91142" lon="6.49359">
        <ele>1884.8000488281</ele>
        <time>2019-02-06T09:17:05.000Z</time>
      </trkpt>
      <trkpt lat="45.91142" lon="6.49359">
        <ele>1886</ele>
        <time>2019-02-06T09:17:08.000Z</time>
      </trkpt>
      <trkpt lat="45.91142" lon="6.49359">
        <ele>1886</ele>
        <time>2019-02-06T09:17:10.000Z</time>
      </trkpt>
      <trkpt lat="45.91142" lon="6.49359">
        <ele>1886.5999755859</ele>
        <time>2019-02-06T09:17:16.000Z</time>
      </trkpt>
      <trkpt lat="45.91142" lon="6.4936">
        <ele>1886.8000488281</ele>
        <time>2019-02-06T09:17:17.000Z</time>
      </trkpt>
      <trkpt lat="45.91141" lon="6.4936">
        <ele>1887</ele>
        <time>2019-02-06T09:17:19.000Z</time>
      </trkpt>
      <trkpt lat="45.91142" lon="6.4936">
        <ele>1887.4000244141</ele>
        <time>2019-02-06T09:17:20.000Z</time>
      </trkpt>
      <trkpt lat="45.91142" lon="6.4936">
        <ele>1888.1999511719</ele>
        <time>2019-02-06T09:17:23.000Z</time>
      </trkpt>
      <trkpt lat="45.91142" lon="6.4936">
        <ele>1888.5999755859</ele>
        <time>2019-02-06T09:17:26.000Z</time>
      </trkpt>
      <trkpt lat="45.91142" lon="6.4936">
        <ele>1889.1999511719</ele>
        <time>2019-02-06T09:17:29.000Z</time>
      </trkpt>
      <trkpt lat="45.91142" lon="6.4936">
        <ele>1889.8000488281</ele>
        <time>2019-02-06T09:17:31.000Z</time>
      </trkpt>
      <trkpt lat="45.91142" lon="6.4936">
        <ele>1890.1999511719</ele>
        <time>2019-02-06T09:17:36.000Z</time>
      </trkpt>
      <trkpt lat="45.91142" lon="6.4936">
        <ele>1890.4000244141</ele>
        <time>2019-02-06T09:17:37.000Z</time>
      </trkpt>
      <trkpt lat="45.91142" lon="6.4936">
        <ele>1891.1999511719</ele>
        <time>2019-02-06T09:17:43.000Z</time>
      </trkpt>
      <trkpt lat="45.91142" lon="6.4936">
        <ele>1891.4000244141</ele>
        <time>2019-02-06T09:17:44.000Z</time>
      </trkpt>
      <trkpt lat="45.91141" lon="6.49361">
        <ele>1891.8000488281</ele>
        <time>2019-02-06T09:17:49.000Z</time>
      </trkpt>
      <trkpt lat="45.9114" lon="6.49364">
        <ele>1892.5999755859</ele>
        <time>2019-02-06T09:17:53.000Z</time>
      </trkpt>
      <trkpt lat="45.9114" lon="6.49364">
        <ele>1893.1999511719</ele>
        <time>2019-02-06T09:17:57.000Z</time>
      </trkpt>
      <trkpt lat="45.9114" lon="6.49364">
        <ele>1893.8000488281</ele>
        <time>2019-02-06T09:17:59.000Z</time>
      </trkpt>
      <trkpt lat="45.9114" lon="6.49364">
        <ele>1895</ele>
        <time>2019-02-06T09:18:04.000Z</time>
      </trkpt>
      <trkpt lat="45.9114" lon="6.49364">
        <ele>1894.8000488281</ele>
        <time>2019-02-06T09:18:05.000Z</time>
      </trkpt>
      <trkpt lat="45.9114" lon="6.49364">
        <ele>1896</ele>
        <time>2019-02-06T09:18:11.000Z</time>
      </trkpt>
      <trkpt lat="45.9114" lon="6.49371">
        <ele>1897</ele>
        <time>2019-02-06T09:18:14.000Z</time>
      </trkpt>
      <trkpt lat="45.9114" lon="6.49371">
        <ele>1897.8000488281</ele>
        <time>2019-02-06T09:18:16.000Z</time>
      </trkpt>
      <trkpt lat="45.9114" lon="6.49371">
        <ele>1898</ele>
        <time>2019-02-06T09:18:17.000Z</time>
      </trkpt>
      <trkpt lat="45.9114" lon="6.49385">
        <ele>1899.1999511719</ele>
        <time>2019-02-06T09:18:21.000Z</time>
      </trkpt>
      <trkpt lat="45.9114" lon="6.49389">
        <ele>1899.1999511719</ele>
        <time>2019-02-06T09:18:22.000Z</time>
      </trkpt>
      <trkpt lat="45.9114" lon="6.49403">
        <ele>1900.1999511719</ele>
        <time>2019-02-06T09:18:27.000Z</time>
      </trkpt>
      <trkpt lat="45.9114" lon="6.49407">
        <ele>1900.4000244141</ele>
        <time>2019-02-06T09:18:29.000Z</time>
      </trkpt>
      <trkpt lat="45.91139" lon="6.49411">
        <ele>1901.1999511719</ele>
        <time>2019-02-06T09:18:34.000Z</time>
      </trkpt>
      <trkpt lat="45.91139" lon="6.49411">
        <ele>1901.1999511719</ele>
        <time>2019-02-06T09:18:35.000Z</time>
      </trkpt>
      <trkpt lat="45.91139" lon="6.49411">
        <ele>1902.1999511719</ele>
        <time>2019-02-06T09:18:41.000Z</time>
      </trkpt>
      <trkpt lat="45.91139" lon="6.49411">
        <ele>1902.8000488281</ele>
        <time>2019-02-06T09:18:42.000Z</time>
      </trkpt>
      <trkpt lat="45.91139" lon="6.49411">
        <ele>1903.8000488281</ele>
        <time>2019-02-06T09:18:45.000Z</time>
      </trkpt>
      <trkpt lat="45.91138" lon="6.49412">
        <ele>1904</ele>
        <time>2019-02-06T09:18:47.000Z</time>
      </trkpt>
      <trkpt lat="45.91137" lon="6.49412">
        <ele>1905</ele>
        <time>2019-02-06T09:18:54.000Z</time>
      </trkpt>
      <trkpt lat="45.91136" lon="6.49413">
        <ele>1906</ele>
        <time>2019-02-06T09:19:00.000Z</time>
      </trkpt>
      <trkpt lat="45.91136" lon="6.49413">
        <ele>1906</ele>
        <time>2019-02-06T09:19:01.000Z</time>
      </trkpt>
      <trkpt lat="45.91136" lon="6.49413">
        <ele>1907.1999511719</ele>
        <time>2019-02-06T09:19:07.000Z</time>
      </trkpt>
      <trkpt lat="45.91136" lon="6.49413">
        <ele>1907</ele>
        <time>2019-02-06T09:19:08.000Z</time>
      </trkpt>
      <trkpt lat="45.91133" lon="6.49414">
        <ele>1908.4000244141</ele>
        <time>2019-02-06T09:19:12.000Z</time>
      </trkpt>
      <trkpt lat="45.91131" lon="6.49414">
        <ele>1908.8000488281</ele>
        <time>2019-02-06T09:19:14.000Z</time>
      </trkpt>
      <trkpt lat="45.91131" lon="6.49415">
        <ele>1909.5999755859</ele>
        <time>2019-02-06T09:19:18.000Z</time>
      </trkpt>
      <trkpt lat="45.9113" lon="6.49415">
        <ele>1909.5999755859</ele>
        <time>2019-02-06T09:19:20.000Z</time>
      </trkpt>
      <trkpt lat="45.9113" lon="6.49415">
        <ele>1910.5999755859</ele>
        <time>2019-02-06T09:19:27.000Z</time>
      </trkpt>
      <trkpt lat="45.9113" lon="6.49415">
        <ele>1910.5999755859</ele>
        <time>2019-02-06T09:19:28.000Z</time>
      </trkpt>
      <trkpt lat="45.9113" lon="6.49421">
        <ele>1911.1999511719</ele>
        <time>2019-02-06T09:19:34.000Z</time>
      </trkpt>
      <trkpt lat="45.9113" lon="6.49423">
        <ele>1911.8000488281</ele>
        <time>2019-02-06T09:19:36.000Z</time>
      </trkpt>
      <trkpt lat="45.9113" lon="6.49426">
        <ele>1912.8000488281</ele>
        <time>2019-02-06T09:19:39.000Z</time>
      </trkpt>
      <trkpt lat="45.9113" lon="6.49429">
        <ele>1913.1999511719</ele>
        <time>2019-02-06T09:19:41.000Z</time>
      </trkpt>
      <trkpt lat="45.91129" lon="6.49431">
        <ele>1913.8000488281</ele>
        <time>2019-02-06T09:19:43.000Z</time>
      </trkpt>
      <trkpt lat="45.91128" lon="6.49436">
        <ele>1914.1999511719</ele>
        <time>2019-02-06T09:19:48.000Z</time>
      </trkpt>
      <trkpt lat="45.91128" lon="6.49438">
        <ele>1914.8000488281</ele>
        <time>2019-02-06T09:19:55.000Z</time>
      </trkpt>
      <trkpt lat="45.91128" lon="6.49438">
        <ele>1915.5999755859</ele>
        <time>2019-02-06T09:19:56.000Z</time>
      </trkpt>
      <trkpt lat="45.91128" lon="6.49438">
        <ele>1916.8000488281</ele>
        <time>2019-02-06T09:19:59.000Z</time>
      </trkpt>
      <trkpt lat="45.91127" lon="6.49438">
        <ele>1916.4000244141</ele>
        <time>2019-02-06T09:20:02.000Z</time>
      </trkpt>
      <trkpt lat="45.91125" lon="6.49439">
        <ele>1917</ele>
        <time>2019-02-06T09:20:07.000Z</time>
      </trkpt>
      <trkpt lat="45.91123" lon="6.49441">
        <ele>1918</ele>
        <time>2019-02-06T09:20:11.000Z</time>
      </trkpt>
      <trkpt lat="45.91122" lon="6.49441">
        <ele>1918.1999511719</ele>
        <time>2019-02-06T09:20:12.000Z</time>
      </trkpt>
      <trkpt lat="45.9112" lon="6.49442">
        <ele>1919</ele>
        <time>2019-02-06T09:20:16.000Z</time>
      </trkpt>
      <trkpt lat="45.91119" lon="6.49442">
        <ele>1919.8000488281</ele>
        <time>2019-02-06T09:20:19.000Z</time>
      </trkpt>
      <trkpt lat="45.91118" lon="6.49441">
        <ele>1920.1999511719</ele>
        <time>2019-02-06T09:20:21.000Z</time>
      </trkpt>
      <trkpt lat="45.91118" lon="6.49441">
        <ele>1921.1999511719</ele>
        <time>2019-02-06T09:20:25.000Z</time>
      </trkpt>
      <trkpt lat="45.91118" lon="6.49441">
        <ele>1921.4000244141</ele>
        <time>2019-02-06T09:20:27.000Z</time>
      </trkpt>
      <trkpt lat="45.91117" lon="6.49442">
        <ele>1922</ele>
        <time>2019-02-06T09:20:31.000Z</time>
      </trkpt>
      <trkpt lat="45.91117" lon="6.49442">
        <ele>1922.5999755859</ele>
        <time>2019-02-06T09:20:33.000Z</time>
      </trkpt>
      <trkpt lat="45.91117" lon="6.49442">
        <ele>1923.4000244141</ele>
        <time>2019-02-06T09:20:38.000Z</time>
      </trkpt>
      <trkpt lat="45.91117" lon="6.49442">
        <ele>1923.5999755859</ele>
        <time>2019-02-06T09:20:39.000Z</time>
      </trkpt>
      <trkpt lat="45.91117" lon="6.49442">
        <ele>1924.8000488281</ele>
        <time>2019-02-06T09:20:44.000Z</time>
      </trkpt>
      <trkpt lat="45.91117" lon="6.49442">
        <ele>1925.8000488281</ele>
        <time>2019-02-06T09:20:48.000Z</time>
      </trkpt>
      <trkpt lat="45.91117" lon="6.49442">
        <ele>1926</ele>
        <time>2019-02-06T09:20:50.000Z</time>
      </trkpt>
      <trkpt lat="45.91117" lon="6.49442">
        <ele>1927</ele>
        <time>2019-02-06T09:20:55.000Z</time>
      </trkpt>
      <trkpt lat="45.91117" lon="6.49442">
        <ele>1927.4000244141</ele>
        <time>2019-02-06T09:20:57.000Z</time>
      </trkpt>
      <trkpt lat="45.91117" lon="6.49443">
        <ele>1928.1999511719</ele>
        <time>2019-02-06T09:21:01.000Z</time>
      </trkpt>
      <trkpt lat="45.91117" lon="6.49448">
        <ele>1928.4000244141</ele>
        <time>2019-02-06T09:21:04.000Z</time>
      </trkpt>
      <trkpt lat="45.91116" lon="6.49449">
        <ele>1929.1999511719</ele>
        <time>2019-02-06T09:21:09.000Z</time>
      </trkpt>
      <trkpt lat="45.91116" lon="6.49449">
        <ele>1929.5999755859</ele>
        <time>2019-02-06T09:21:11.000Z</time>
      </trkpt>
      <trkpt lat="45.91116" lon="6.49449">
        <ele>1930.1999511719</ele>
        <time>2019-02-06T09:21:13.000Z</time>
      </trkpt>
      <trkpt lat="45.91116" lon="6.49449">
        <ele>1931.4000244141</ele>
        <time>2019-02-06T09:21:18.000Z</time>
      </trkpt>
      <trkpt lat="45.91116" lon="6.49449">
        <ele>1932.4000244141</ele>
        <time>2019-02-06T09:21:25.000Z</time>
      </trkpt>
      <trkpt lat="45.91113" lon="6.49454">
        <ele>1933.4000244141</ele>
        <time>2019-02-06T09:21:30.000Z</time>
      </trkpt>
      <trkpt lat="45.91113" lon="6.49456">
        <ele>1933.5999755859</ele>
        <time>2019-02-06T09:21:31.000Z</time>
      </trkpt>
      <trkpt lat="45.9111" lon="6.4946">
        <ele>1933.8000488281</ele>
        <time>2019-02-06T09:21:34.000Z</time>
      </trkpt>
      <trkpt lat="45.91107" lon="6.49463">
        <ele>1934.5999755859</ele>
        <time>2019-02-06T09:21:38.000Z</time>
      </trkpt>
      <trkpt lat="45.91105" lon="6.49464">
        <ele>1935.1999511719</ele>
        <time>2019-02-06T09:21:41.000Z</time>
      </trkpt>
      <trkpt lat="45.91104" lon="6.49465">
        <ele>1935.8000488281</ele>
        <time>2019-02-06T09:21:43.000Z</time>
      </trkpt>
      <trkpt lat="45.91102" lon="6.49466">
        <ele>1936.4000244141</ele>
        <time>2019-02-06T09:21:47.000Z</time>
      </trkpt>
      <trkpt lat="45.911" lon="6.49467">
        <ele>1936.8000488281</ele>
        <time>2019-02-06T09:21:49.000Z</time>
      </trkpt>
      <trkpt lat="45.91099" lon="6.49468">
        <ele>1937.8000488281</ele>
        <time>2019-02-06T09:21:53.000Z</time>
      </trkpt>
      <trkpt lat="45.91099" lon="6.49468">
        <ele>1938</ele>
        <time>2019-02-06T09:21:55.000Z</time>
      </trkpt>
      <trkpt lat="45.91099" lon="6.49468">
        <ele>1938.8000488281</ele>
        <time>2019-02-06T09:21:59.000Z</time>
      </trkpt>
      <trkpt lat="45.91099" lon="6.49468">
        <ele>1939</ele>
        <time>2019-02-06T09:22:00.000Z</time>
      </trkpt>
      <trkpt lat="45.91099" lon="6.49468">
        <ele>1939</ele>
        <time>2019-02-06T09:22:10.000Z</time>
      </trkpt>
      <trkpt lat="45.91099" lon="6.49468">
        <ele>1939.4000244141</ele>
        <time>2019-02-06T09:22:20.000Z</time>
      </trkpt>
      <trkpt lat="45.91098" lon="6.49472">
        <ele>1939.4000244141</ele>
        <time>2019-02-06T09:22:34.000Z</time>
      </trkpt>
      <trkpt lat="45.91098" lon="6.49472">
        <ele>1939.4000244141</ele>
        <time>2019-02-06T09:22:46.000Z</time>
      </trkpt>
      <trkpt lat="45.91098" lon="6.49472">
        <ele>1939.1999511719</ele>
        <time>2019-02-06T09:22:58.000Z</time>
      </trkpt>
      <trkpt lat="45.91098" lon="6.49472">
        <ele>1939</ele>
        <time>2019-02-06T09:23:06.000Z</time>
      </trkpt>
      <trkpt lat="45.91099" lon="6.49476">
        <ele>1939.1999511719</ele>
        <time>2019-02-06T09:23:11.000Z</time>
      </trkpt>
      <trkpt lat="45.91099" lon="6.49476">
        <ele>1940.4000244141</ele>
        <time>2019-02-06T09:23:14.000Z</time>
      </trkpt>
      <trkpt lat="45.91099" lon="6.49476">
        <ele>1941</ele>
        <time>2019-02-06T09:23:24.000Z</time>
      </trkpt>
      <trkpt lat="45.91099" lon="6.49476">
        <ele>1941</ele>
        <time>2019-02-06T09:23:35.000Z</time>
      </trkpt>
      <trkpt lat="45.91099" lon="6.49476">
        <ele>1941.4000244141</ele>
        <time>2019-02-06T09:23:38.000Z</time>
      </trkpt>
      <trkpt lat="45.91099" lon="6.49476">
        <ele>1942.1999511719</ele>
        <time>2019-02-06T09:23:42.000Z</time>
      </trkpt>
      <trkpt lat="45.91099" lon="6.49476">
        <ele>1942.5999755859</ele>
        <time>2019-02-06T09:23:45.000Z</time>
      </trkpt>
      <trkpt lat="45.91099" lon="6.49476">
        <ele>1943.4000244141</ele>
        <time>2019-02-06T09:23:49.000Z</time>
      </trkpt>
      <trkpt lat="45.91099" lon="6.49477">
        <ele>1944</ele>
        <time>2019-02-06T09:23:51.000Z</time>
      </trkpt>
      <trkpt lat="45.91099" lon="6.49477">
        <ele>1945</ele>
        <time>2019-02-06T09:23:54.000Z</time>
      </trkpt>
      <trkpt lat="45.91099" lon="6.49477">
        <ele>1945.8000488281</ele>
        <time>2019-02-06T09:23:57.000Z</time>
      </trkpt>
      <trkpt lat="45.91099" lon="6.49477">
        <ele>1945.1999511719</ele>
        <time>2019-02-06T09:24:05.000Z</time>
      </trkpt>
      <trkpt lat="45.91099" lon="6.49477">
        <ele>1946</ele>
        <time>2019-02-06T09:24:12.000Z</time>
      </trkpt>
      <trkpt lat="45.91099" lon="6.49477">
        <ele>1945.8000488281</ele>
        <time>2019-02-06T09:24:25.000Z</time>
      </trkpt>
      <trkpt lat="45.91099" lon="6.49479">
        <ele>1945.5999755859</ele>
        <time>2019-02-06T09:24:40.000Z</time>
      </trkpt>
      <trkpt lat="45.91099" lon="6.49479">
        <ele>1946.4000244141</ele>
        <time>2019-02-06T09:24:46.000Z</time>
      </trkpt>
      <trkpt lat="45.91098" lon="6.49485">
        <ele>1947</ele>
        <time>2019-02-06T09:24:51.000Z</time>
      </trkpt>
      <trkpt lat="45.91096" lon="6.49486">
        <ele>1947.1999511719</ele>
        <time>2019-02-06T09:24:52.000Z</time>
      </trkpt>
      <trkpt lat="45.91093" lon="6.4949">
        <ele>1948.1999511719</ele>
        <time>2019-02-06T09:24:57.000Z</time>
      </trkpt>
      <trkpt lat="45.91094" lon="6.49491">
        <ele>1948.5999755859</ele>
        <time>2019-02-06T09:24:58.000Z</time>
      </trkpt>
      <trkpt lat="45.91091" lon="6.49493">
        <ele>1949.4000244141</ele>
        <time>2019-02-06T09:25:02.000Z</time>
      </trkpt>
      <trkpt lat="45.9109" lon="6.49494">
        <ele>1949.5999755859</ele>
        <time>2019-02-06T09:25:03.000Z</time>
      </trkpt>
      <trkpt lat="45.91089" lon="6.49496">
        <ele>1950.8000488281</ele>
        <time>2019-02-06T09:25:07.000Z</time>
      </trkpt>
      <trkpt lat="45.91088" lon="6.49496">
        <ele>1951.1999511719</ele>
        <time>2019-02-06T09:25:09.000Z</time>
      </trkpt>
      <trkpt lat="45.91086" lon="6.49497">
        <ele>1952</ele>
        <time>2019-02-06T09:25:13.000Z</time>
      </trkpt>
      <trkpt lat="45.91084" lon="6.49498">
        <ele>1952</ele>
        <time>2019-02-06T09:25:16.000Z</time>
      </trkpt>
      <trkpt lat="45.91083" lon="6.49499">
        <ele>1953.1999511719</ele>
        <time>2019-02-06T09:25:21.000Z</time>
      </trkpt>
      <trkpt lat="45.91083" lon="6.49499">
        <ele>1953.5999755859</ele>
        <time>2019-02-06T09:25:22.000Z</time>
      </trkpt>
      <trkpt lat="45.91083" lon="6.49499">
        <ele>1954.1999511719</ele>
        <time>2019-02-06T09:25:25.000Z</time>
      </trkpt>
      <trkpt lat="45.91083" lon="6.49499">
        <ele>1954.4000244141</ele>
        <time>2019-02-06T09:25:29.000Z</time>
      </trkpt>
      <trkpt lat="45.91082" lon="6.49499">
        <ele>1955.4000244141</ele>
        <time>2019-02-06T09:25:36.000Z</time>
      </trkpt>
      <trkpt lat="45.91077" lon="6.49503">
        <ele>1956.5999755859</ele>
        <time>2019-02-06T09:25:42.000Z</time>
      </trkpt>
      <trkpt lat="45.91077" lon="6.49505">
        <ele>1957</ele>
        <time>2019-02-06T09:25:47.000Z</time>
      </trkpt>
      <trkpt lat="45.91077" lon="6.49505">
        <ele>1957.5999755859</ele>
        <time>2019-02-06T09:25:49.000Z</time>
      </trkpt>
      <trkpt lat="45.91077" lon="6.49505">
        <ele>1958.8000488281</ele>
        <time>2019-02-06T09:25:53.000Z</time>
      </trkpt>
      <trkpt lat="45.91077" lon="6.49505">
        <ele>1959.8000488281</ele>
        <time>2019-02-06T09:25:59.000Z</time>
      </trkpt>
      <trkpt lat="45.91077" lon="6.49505">
        <ele>1961</ele>
        <time>2019-02-06T09:26:03.000Z</time>
      </trkpt>
      <trkpt lat="45.91077" lon="6.49505">
        <ele>1961.4000244141</ele>
        <time>2019-02-06T09:26:07.000Z</time>
      </trkpt>
      <trkpt lat="45.91077" lon="6.49505">
        <ele>1962</ele>
        <time>2019-02-06T09:26:11.000Z</time>
      </trkpt>
      <trkpt lat="45.91077" lon="6.49505">
        <ele>1962.5999755859</ele>
        <time>2019-02-06T09:26:14.000Z</time>
      </trkpt>
      <trkpt lat="45.91077" lon="6.49505">
        <ele>1963.1999511719</ele>
        <time>2019-02-06T09:26:17.000Z</time>
      </trkpt>
      <trkpt lat="45.91077" lon="6.49505">
        <ele>1964.1999511719</ele>
        <time>2019-02-06T09:26:22.000Z</time>
      </trkpt>
      <trkpt lat="45.91077" lon="6.49509">
        <ele>1965.8000488281</ele>
        <time>2019-02-06T09:26:28.000Z</time>
      </trkpt>
      <trkpt lat="45.91077" lon="6.49509">
        <ele>1966.8000488281</ele>
        <time>2019-02-06T09:26:30.000Z</time>
      </trkpt>
      <trkpt lat="45.91076" lon="6.49511">
        <ele>1966.4000244141</ele>
        <time>2019-02-06T09:26:35.000Z</time>
      </trkpt>
      <trkpt lat="45.91075" lon="6.49511">
        <ele>1967.1999511719</ele>
        <time>2019-02-06T09:26:41.000Z</time>
      </trkpt>
      <trkpt lat="45.91074" lon="6.49516">
        <ele>1968</ele>
        <time>2019-02-06T09:26:44.000Z</time>
      </trkpt>
      <trkpt lat="45.91072" lon="6.49519">
        <ele>1968.4000244141</ele>
        <time>2019-02-06T09:26:46.000Z</time>
      </trkpt>
      <trkpt lat="45.9107" lon="6.49524">
        <ele>1969.1999511719</ele>
        <time>2019-02-06T09:26:49.000Z</time>
      </trkpt>
      <trkpt lat="45.9107" lon="6.49526">
        <ele>1969.5999755859</ele>
        <time>2019-02-06T09:26:51.000Z</time>
      </trkpt>
      <trkpt lat="45.91066" lon="6.49533">
        <ele>1970.4000244141</ele>
        <time>2019-02-06T09:26:56.000Z</time>
      </trkpt>
      <trkpt lat="45.91066" lon="6.49534">
        <ele>1970.4000244141</ele>
        <time>2019-02-06T09:26:57.000Z</time>
      </trkpt>
      <trkpt lat="45.91063" lon="6.4954">
        <ele>1971.1999511719</ele>
        <time>2019-02-06T09:27:03.000Z</time>
      </trkpt>
      <trkpt lat="45.91062" lon="6.49541">
        <ele>1971.4000244141</ele>
        <time>2019-02-06T09:27:05.000Z</time>
      </trkpt>
      <trkpt lat="45.91059" lon="6.49544">
        <ele>1972.4000244141</ele>
        <time>2019-02-06T09:27:08.000Z</time>
      </trkpt>
      <trkpt lat="45.91059" lon="6.49545">
        <ele>1972.5999755859</ele>
        <time>2019-02-06T09:27:09.000Z</time>
      </trkpt>
      <trkpt lat="45.91057" lon="6.4955">
        <ele>1972.8000488281</ele>
        <time>2019-02-06T09:27:14.000Z</time>
      </trkpt>
      <trkpt lat="45.91057" lon="6.4955">
        <ele>1973.5999755859</ele>
        <time>2019-02-06T09:27:16.000Z</time>
      </trkpt>
      <trkpt lat="45.91057" lon="6.4955">
        <ele>1974.5999755859</ele>
        <time>2019-02-06T09:27:20.000Z</time>
      </trkpt>
      <trkpt lat="45.91057" lon="6.4955">
        <ele>1974.5999755859</ele>
        <time>2019-02-06T09:27:21.000Z</time>
      </trkpt>
      <trkpt lat="45.91059" lon="6.49552">
        <ele>1975.1999511719</ele>
        <time>2019-02-06T09:27:27.000Z</time>
      </trkpt>
      <trkpt lat="45.9106" lon="6.49554">
        <ele>1975.5999755859</ele>
        <time>2019-02-06T09:27:30.000Z</time>
      </trkpt>
      <trkpt lat="45.91061" lon="6.49555">
        <ele>1976.4000244141</ele>
        <time>2019-02-06T09:27:33.000Z</time>
      </trkpt>
      <trkpt lat="45.91063" lon="6.49557">
        <ele>1976.8000488281</ele>
        <time>2019-02-06T09:27:34.000Z</time>
      </trkpt>
      <trkpt lat="45.91064" lon="6.49559">
        <ele>1977.5999755859</ele>
        <time>2019-02-06T09:27:38.000Z</time>
      </trkpt>
      <trkpt lat="45.91064" lon="6.49559">
        <ele>1977.8000488281</ele>
        <time>2019-02-06T09:27:39.000Z</time>
      </trkpt>
      <trkpt lat="45.91064" lon="6.49559">
        <ele>1978.5999755859</ele>
        <time>2019-02-06T09:27:45.000Z</time>
      </trkpt>
      <trkpt lat="45.91064" lon="6.49559">
        <ele>1978.8000488281</ele>
        <time>2019-02-06T09:27:47.000Z</time>
      </trkpt>
      <trkpt lat="45.91064" lon="6.49559">
        <ele>1979</ele>
        <time>2019-02-06T09:27:51.000Z</time>
      </trkpt>
      <trkpt lat="45.91064" lon="6.49559">
        <ele>1979.8000488281</ele>
        <time>2019-02-06T09:27:53.000Z</time>
      </trkpt>
      <trkpt lat="45.91064" lon="6.49559">
        <ele>1981</ele>
        <time>2019-02-06T09:27:57.000Z</time>
      </trkpt>
      <trkpt lat="45.91062" lon="6.49564">
        <ele>1981.1999511719</ele>
        <time>2019-02-06T09:28:02.000Z</time>
      </trkpt>
      <trkpt lat="45.91061" lon="6.49567">
        <ele>1981.8000488281</ele>
        <time>2019-02-06T09:28:07.000Z</time>
      </trkpt>
      <trkpt lat="45.91059" lon="6.49568">
        <ele>1982</ele>
        <time>2019-02-06T09:28:12.000Z</time>
      </trkpt>
      <trkpt lat="45.91058" lon="6.49568">
        <ele>1982.4000244141</ele>
        <time>2019-02-06T09:28:14.000Z</time>
      </trkpt>
      <trkpt lat="45.91057" lon="6.4957">
        <ele>1983.1999511719</ele>
        <time>2019-02-06T09:28:21.000Z</time>
      </trkpt>
      <trkpt lat="45.91057" lon="6.4957">
        <ele>1983.8000488281</ele>
        <time>2019-02-06T09:28:23.000Z</time>
      </trkpt>
      <trkpt lat="45.91057" lon="6.4957">
        <ele>1984.4000244141</ele>
        <time>2019-02-06T09:28:30.000Z</time>
      </trkpt>
      <trkpt lat="45.91057" lon="6.4957">
        <ele>1985.4000244141</ele>
        <time>2019-02-06T09:28:34.000Z</time>
      </trkpt>
      <trkpt lat="45.91058" lon="6.49573">
        <ele>1985.5999755859</ele>
        <time>2019-02-06T09:28:37.000Z</time>
      </trkpt>
      <trkpt lat="45.91062" lon="6.49578">
        <ele>1986.8000488281</ele>
        <time>2019-02-06T09:28:41.000Z</time>
      </trkpt>
      <trkpt lat="45.91064" lon="6.49579">
        <ele>1987.1999511719</ele>
        <time>2019-02-06T09:28:43.000Z</time>
      </trkpt>
      <trkpt lat="45.91069" lon="6.49584">
        <ele>1988</ele>
        <time>2019-02-06T09:28:48.000Z</time>
      </trkpt>
      <trkpt lat="45.91069" lon="6.49584">
        <ele>1988</ele>
        <time>2019-02-06T09:28:49.000Z</time>
      </trkpt>
      <trkpt lat="45.9107" lon="6.49585">
        <ele>1989.1999511719</ele>
        <time>2019-02-06T09:28:53.000Z</time>
      </trkpt>
      <trkpt lat="45.91071" lon="6.49586">
        <ele>1990</ele>
        <time>2019-02-06T09:28:56.000Z</time>
      </trkpt>
      <trkpt lat="45.91071" lon="6.49587">
        <ele>1990.4000244141</ele>
        <time>2019-02-06T09:28:58.000Z</time>
      </trkpt>
      <trkpt lat="45.91074" lon="6.4959">
        <ele>1991</ele>
        <time>2019-02-06T09:29:03.000Z</time>
      </trkpt>
      <trkpt lat="45.91076" lon="6.49591">
        <ele>1991.5999755859</ele>
        <time>2019-02-06T09:29:06.000Z</time>
      </trkpt>
      <trkpt lat="45.91076" lon="6.49591">
        <ele>1992</ele>
        <time>2019-02-06T09:29:11.000Z</time>
      </trkpt>
      <trkpt lat="45.91076" lon="6.49591">
        <ele>1993.1999511719</ele>
        <time>2019-02-06T09:29:13.000Z</time>
      </trkpt>
      <trkpt lat="45.91074" lon="6.4959">
        <ele>1994.4000244141</ele>
        <time>2019-02-06T09:29:17.000Z</time>
      </trkpt>
      <trkpt lat="45.91069" lon="6.49592">
        <ele>1994.4000244141</ele>
        <time>2019-02-06T09:29:23.000Z</time>
      </trkpt>
      <trkpt lat="45.91065" lon="6.49596">
        <ele>1995.1999511719</ele>
        <time>2019-02-06T09:29:30.000Z</time>
      </trkpt>
      <trkpt lat="45.91064" lon="6.49597">
        <ele>1995.5999755859</ele>
        <time>2019-02-06T09:29:32.000Z</time>
      </trkpt>
      <trkpt lat="45.91062" lon="6.496">
        <ele>1996</ele>
        <time>2019-02-06T09:29:35.000Z</time>
      </trkpt>
      <trkpt lat="45.9106" lon="6.49602">
        <ele>1996.8000488281</ele>
        <time>2019-02-06T09:29:38.000Z</time>
      </trkpt>
      <trkpt lat="45.91057" lon="6.49604">
        <ele>1997.5999755859</ele>
        <time>2019-02-06T09:29:42.000Z</time>
      </trkpt>
      <trkpt lat="45.91057" lon="6.49604">
        <ele>1998</ele>
        <time>2019-02-06T09:29:43.000Z</time>
      </trkpt>
      <trkpt lat="45.91052" lon="6.49609">
        <ele>1998.8000488281</ele>
        <time>2019-02-06T09:29:49.000Z</time>
      </trkpt>
      <trkpt lat="45.91049" lon="6.49612">
        <ele>1999</ele>
        <time>2019-02-06T09:29:54.000Z</time>
      </trkpt>
      <trkpt lat="45.91049" lon="6.49613">
        <ele>1999.4000244141</ele>
        <time>2019-02-06T09:29:55.000Z</time>
      </trkpt>
      <trkpt lat="45.91048" lon="6.49614">
        <ele>2000</ele>
        <time>2019-02-06T09:29:58.000Z</time>
      </trkpt>
      <trkpt lat="45.91046" lon="6.49615">
        <ele>2000.4000244141</ele>
        <time>2019-02-06T09:30:01.000Z</time>
      </trkpt>
      <trkpt lat="45.91044" lon="6.49615">
        <ele>2001</ele>
        <time>2019-02-06T09:30:03.000Z</time>
      </trkpt>
      <trkpt lat="45.91043" lon="6.49616">
        <ele>2001.8000488281</ele>
        <time>2019-02-06T09:30:08.000Z</time>
      </trkpt>
      <trkpt lat="45.91043" lon="6.49616">
        <ele>2002.1999511719</ele>
        <time>2019-02-06T09:30:09.000Z</time>
      </trkpt>
      <trkpt lat="45.91041" lon="6.49618">
        <ele>2003.1999511719</ele>
        <time>2019-02-06T09:30:13.000Z</time>
      </trkpt>
      <trkpt lat="45.91041" lon="6.49619">
        <ele>2003.1999511719</ele>
        <time>2019-02-06T09:30:14.000Z</time>
      </trkpt>
      <trkpt lat="45.91038" lon="6.49621">
        <ele>2004</ele>
        <time>2019-02-06T09:30:18.000Z</time>
      </trkpt>
      <trkpt lat="45.91037" lon="6.49622">
        <ele>2004.4000244141</ele>
        <time>2019-02-06T09:30:19.000Z</time>
      </trkpt>
      <trkpt lat="45.91034" lon="6.49625">
        <ele>2005.8000488281</ele>
        <time>2019-02-06T09:30:25.000Z</time>
      </trkpt>
      <trkpt lat="45.91032" lon="6.49626">
        <ele>2006.8000488281</ele>
        <time>2019-02-06T09:30:28.000Z</time>
      </trkpt>
      <trkpt lat="45.91031" lon="6.49627">
        <ele>2007.1999511719</ele>
        <time>2019-02-06T09:30:30.000Z</time>
      </trkpt>
      <trkpt lat="45.91026" lon="6.49632">
        <ele>2007.8000488281</ele>
        <time>2019-02-06T09:30:36.000Z</time>
      </trkpt>
      <trkpt lat="45.91026" lon="6.49632">
        <ele>2008</ele>
        <time>2019-02-06T09:30:37.000Z</time>
      </trkpt>
      <trkpt lat="45.91024" lon="6.49636">
        <ele>2008.5999755859</ele>
        <time>2019-02-06T09:30:42.000Z</time>
      </trkpt>
      <trkpt lat="45.91023" lon="6.49637">
        <ele>2009</ele>
        <time>2019-02-06T09:30:44.000Z</time>
      </trkpt>
      <trkpt lat="45.91022" lon="6.49638">
        <ele>2009.8000488281</ele>
        <time>2019-02-06T09:30:47.000Z</time>
      </trkpt>
      <trkpt lat="45.91022" lon="6.49638">
        <ele>2010</ele>
        <time>2019-02-06T09:30:48.000Z</time>
      </trkpt>
      <trkpt lat="45.91022" lon="6.49638">
        <ele>2011</ele>
        <time>2019-02-06T09:30:53.000Z</time>
      </trkpt>
      <trkpt lat="45.91022" lon="6.49638">
        <ele>2011.4000244141</ele>
        <time>2019-02-06T09:30:55.000Z</time>
      </trkpt>
      <trkpt lat="45.9102" lon="6.49641">
        <ele>2012.1999511719</ele>
        <time>2019-02-06T09:31:00.000Z</time>
      </trkpt>
      <trkpt lat="45.91019" lon="6.49642">
        <ele>2012.4000244141</ele>
        <time>2019-02-06T09:31:01.000Z</time>
      </trkpt>
      <trkpt lat="45.91017" lon="6.49643">
        <ele>2012.5999755859</ele>
        <time>2019-02-06T09:31:04.000Z</time>
      </trkpt>
      <trkpt lat="45.91014" lon="6.49648">
        <ele>2013.4000244141</ele>
        <time>2019-02-06T09:31:09.000Z</time>
      </trkpt>
      <trkpt lat="45.91011" lon="6.4965">
        <ele>2014.5999755859</ele>
        <time>2019-02-06T09:31:13.000Z</time>
      </trkpt>
      <trkpt lat="45.9101" lon="6.49652">
        <ele>2015.1999511719</ele>
        <time>2019-02-06T09:31:15.000Z</time>
      </trkpt>
      <trkpt lat="45.91008" lon="6.49655">
        <ele>2015.8000488281</ele>
        <time>2019-02-06T09:31:19.000Z</time>
      </trkpt>
      <trkpt lat="45.91007" lon="6.49656">
        <ele>2015.8000488281</ele>
        <time>2019-02-06T09:31:20.000Z</time>
      </trkpt>
      <trkpt lat="45.91007" lon="6.49656">
        <ele>2016.4000244141</ele>
        <time>2019-02-06T09:31:26.000Z</time>
      </trkpt>
      <trkpt lat="45.91004" lon="6.49657">
        <ele>2017</ele>
        <time>2019-02-06T09:31:29.000Z</time>
      </trkpt>
      <trkpt lat="45.91002" lon="6.49658">
        <ele>2017.4000244141</ele>
        <time>2019-02-06T09:31:31.000Z</time>
      </trkpt>
      <trkpt lat="45.91" lon="6.49659">
        <ele>2018.1999511719</ele>
        <time>2019-02-06T09:31:34.000Z</time>
      </trkpt>
      <trkpt lat="45.90998" lon="6.4966">
        <ele>2018.8000488281</ele>
        <time>2019-02-06T09:31:36.000Z</time>
      </trkpt>
      <trkpt lat="45.90993" lon="6.49663">
        <ele>2019.1999511719</ele>
        <time>2019-02-06T09:31:42.000Z</time>
      </trkpt>
      <trkpt lat="45.90992" lon="6.49663">
        <ele>2019.4000244141</ele>
        <time>2019-02-06T09:31:43.000Z</time>
      </trkpt>
      <trkpt lat="45.90989" lon="6.49666">
        <ele>2020.5999755859</ele>
        <time>2019-02-06T09:31:48.000Z</time>
      </trkpt>
      <trkpt lat="45.90987" lon="6.49666">
        <ele>2021.4000244141</ele>
        <time>2019-02-06T09:31:50.000Z</time>
      </trkpt>
      <trkpt lat="45.90986" lon="6.49667">
        <ele>2021.8000488281</ele>
        <time>2019-02-06T09:31:52.000Z</time>
      </trkpt>
      <trkpt lat="45.90984" lon="6.49667">
        <ele>2022.1999511719</ele>
        <time>2019-02-06T09:31:55.000Z</time>
      </trkpt>
      <trkpt lat="45.90981" lon="6.49669">
        <ele>2022.8000488281</ele>
        <time>2019-02-06T09:31:59.000Z</time>
      </trkpt>
      <trkpt lat="45.9098" lon="6.4967">
        <ele>2023.1999511719</ele>
        <time>2019-02-06T09:32:01.000Z</time>
      </trkpt>
      <trkpt lat="45.90978" lon="6.49671">
        <ele>2023.8000488281</ele>
        <time>2019-02-06T09:32:04.000Z</time>
      </trkpt>
      <trkpt lat="45.90975" lon="6.49673">
        <ele>2024.4000244141</ele>
        <time>2019-02-06T09:32:08.000Z</time>
      </trkpt>
      <trkpt lat="45.90973" lon="6.49673">
        <ele>2025.1999511719</ele>
        <time>2019-02-06T09:32:10.000Z</time>
      </trkpt>
      <trkpt lat="45.9097" lon="6.49674">
        <ele>2026.4000244141</ele>
        <time>2019-02-06T09:32:15.000Z</time>
      </trkpt>
      <trkpt lat="45.90966" lon="6.49675">
        <ele>2027.4000244141</ele>
        <time>2019-02-06T09:32:20.000Z</time>
      </trkpt>
      <trkpt lat="45.90966" lon="6.49675">
        <ele>2027.4000244141</ele>
        <time>2019-02-06T09:32:21.000Z</time>
      </trkpt>
      <trkpt lat="45.90962" lon="6.49677">
        <ele>2027.8000488281</ele>
        <time>2019-02-06T09:32:27.000Z</time>
      </trkpt>
      <trkpt lat="45.9096" lon="6.49678">
        <ele>2028.5999755859</ele>
        <time>2019-02-06T09:32:30.000Z</time>
      </trkpt>
      <trkpt lat="45.90959" lon="6.49678">
        <ele>2028.8000488281</ele>
        <time>2019-02-06T09:32:32.000Z</time>
      </trkpt>
      <trkpt lat="45.90956" lon="6.49678">
        <ele>2029.5999755859</ele>
        <time>2019-02-06T09:32:37.000Z</time>
      </trkpt>
      <trkpt lat="45.90955" lon="6.49678">
        <ele>2029.8000488281</ele>
        <time>2019-02-06T09:32:38.000Z</time>
      </trkpt>
      <trkpt lat="45.90955" lon="6.49678">
        <ele>2030.5999755859</ele>
        <time>2019-02-06T09:32:44.000Z</time>
      </trkpt>
      <trkpt lat="45.90954" lon="6.49678">
        <ele>2030.5999755859</ele>
        <time>2019-02-06T09:32:45.000Z</time>
      </trkpt>
      <trkpt lat="45.9095" lon="6.49679">
        <ele>2031.8000488281</ele>
        <time>2019-02-06T09:32:50.000Z</time>
      </trkpt>
      <trkpt lat="45.90949" lon="6.4968">
        <ele>2033</ele>
        <time>2019-02-06T09:32:56.000Z</time>
      </trkpt>
      <trkpt lat="45.9095" lon="6.49681">
        <ele>2033.1999511719</ele>
        <time>2019-02-06T09:33:02.000Z</time>
      </trkpt>
      <trkpt lat="45.90951" lon="6.49685">
        <ele>2034.1999511719</ele>
        <time>2019-02-06T09:33:07.000Z</time>
      </trkpt>
      <trkpt lat="45.90951" lon="6.49688">
        <ele>2034.5999755859</ele>
        <time>2019-02-06T09:33:09.000Z</time>
      </trkpt>
      <trkpt lat="45.90953" lon="6.49698">
        <ele>2035.4000244141</ele>
        <time>2019-02-06T09:33:14.000Z</time>
      </trkpt>
      <trkpt lat="45.90953" lon="6.49701">
        <ele>2036</ele>
        <time>2019-02-06T09:33:16.000Z</time>
      </trkpt>
      <trkpt lat="45.90954" lon="6.49703">
        <ele>2036.5999755859</ele>
        <time>2019-02-06T09:33:18.000Z</time>
      </trkpt>
      <trkpt lat="45.90957" lon="6.49706">
        <ele>2036.8000488281</ele>
        <time>2019-02-06T09:33:22.000Z</time>
      </trkpt>
      <trkpt lat="45.90959" lon="6.49709">
        <ele>2038</ele>
        <time>2019-02-06T09:33:25.000Z</time>
      </trkpt>
      <trkpt lat="45.90959" lon="6.49711">
        <ele>2039.1999511719</ele>
        <time>2019-02-06T09:33:28.000Z</time>
      </trkpt>
      <trkpt lat="45.90962" lon="6.49714">
        <ele>2040</ele>
        <time>2019-02-06T09:33:33.000Z</time>
      </trkpt>
      <trkpt lat="45.90963" lon="6.49714">
        <ele>2040.1999511719</ele>
        <time>2019-02-06T09:33:35.000Z</time>
      </trkpt>
      <trkpt lat="45.90963" lon="6.49714">
        <ele>2041.1999511719</ele>
        <time>2019-02-06T09:33:38.000Z</time>
      </trkpt>
      <trkpt lat="45.90965" lon="6.49716">
        <ele>2042</ele>
        <time>2019-02-06T09:33:40.000Z</time>
      </trkpt>
      <trkpt lat="45.90965" lon="6.49717">
        <ele>2042.1999511719</ele>
        <time>2019-02-06T09:33:41.000Z</time>
      </trkpt>
      <trkpt lat="45.90968" lon="6.4972">
        <ele>2043.1999511719</ele>
        <time>2019-02-06T09:33:44.000Z</time>
      </trkpt>
      <trkpt lat="45.90969" lon="6.49721">
        <ele>2043.4000244141</ele>
        <time>2019-02-06T09:33:45.000Z</time>
      </trkpt>
      <trkpt lat="45.9097" lon="6.49722">
        <ele>2043.4000244141</ele>
        <time>2019-02-06T09:33:46.000Z</time>
      </trkpt>
      <trkpt lat="45.90972" lon="6.49724">
        <ele>2044.4000244141</ele>
        <time>2019-02-06T09:33:50.000Z</time>
      </trkpt>
      <trkpt lat="45.90973" lon="6.49724">
        <ele>2044.8000488281</ele>
        <time>2019-02-06T09:33:51.000Z</time>
      </trkpt>
      <trkpt lat="45.90974" lon="6.49725">
        <ele>2045.4000244141</ele>
        <time>2019-02-06T09:33:53.000Z</time>
      </trkpt>
      <trkpt lat="45.90975" lon="6.49728">
        <ele>2046.1999511719</ele>
        <time>2019-02-06T09:33:57.000Z</time>
      </trkpt>
      <trkpt lat="45.90976" lon="6.4973">
        <ele>2046.5999755859</ele>
        <time>2019-02-06T09:33:59.000Z</time>
      </trkpt>
      <trkpt lat="45.90977" lon="6.49734">
        <ele>2047.5999755859</ele>
        <time>2019-02-06T09:34:04.000Z</time>
      </trkpt>
      <trkpt lat="45.90978" lon="6.49735">
        <ele>2047.5999755859</ele>
        <time>2019-02-06T09:34:05.000Z</time>
      </trkpt>
      <trkpt lat="45.90981" lon="6.49739">
        <ele>2048</ele>
        <time>2019-02-06T09:34:10.000Z</time>
      </trkpt>
      <trkpt lat="45.90983" lon="6.49742">
        <ele>2049</ele>
        <time>2019-02-06T09:34:15.000Z</time>
      </trkpt>
      <trkpt lat="45.90985" lon="6.49742">
        <ele>2050</ele>
        <time>2019-02-06T09:34:17.000Z</time>
      </trkpt>
      <trkpt lat="45.90986" lon="6.49742">
        <ele>2050.1999511719</ele>
        <time>2019-02-06T09:34:18.000Z</time>
      </trkpt>
      <trkpt lat="45.9099" lon="6.49741">
        <ele>2050.6000976562</ele>
        <time>2019-02-06T09:34:21.000Z</time>
      </trkpt>
      <trkpt lat="45.90992" lon="6.49741">
        <ele>2051.3999023438</ele>
        <time>2019-02-06T09:34:24.000Z</time>
      </trkpt>
      <trkpt lat="45.90994" lon="6.49742">
        <ele>2051.6000976562</ele>
        <time>2019-02-06T09:34:28.000Z</time>
      </trkpt>
      <trkpt lat="45.90997" lon="6.49745">
        <ele>2052.6000976562</ele>
        <time>2019-02-06T09:34:32.000Z</time>
      </trkpt>
      <trkpt lat="45.90998" lon="6.49747">
        <ele>2053</ele>
        <time>2019-02-06T09:34:34.000Z</time>
      </trkpt>
      <trkpt lat="45.90999" lon="6.49749">
        <ele>2053.8000488281</ele>
        <time>2019-02-06T09:34:40.000Z</time>
      </trkpt>
      <trkpt lat="45.90999" lon="6.49749">
        <ele>2054.1999511719</ele>
        <time>2019-02-06T09:34:41.000Z</time>
      </trkpt>
      <trkpt lat="45.90999" lon="6.49749">
        <ele>2054.8000488281</ele>
        <time>2019-02-06T09:34:45.000Z</time>
      </trkpt>
      <trkpt lat="45.90999" lon="6.49749">
        <ele>2055.3999023438</ele>
        <time>2019-02-06T09:34:47.000Z</time>
      </trkpt>
      <trkpt lat="45.91" lon="6.49753">
        <ele>2056</ele>
        <time>2019-02-06T09:34:49.000Z</time>
      </trkpt>
      <trkpt lat="45.91002" lon="6.49757">
        <ele>2057.1999511719</ele>
        <time>2019-02-06T09:34:52.000Z</time>
      </trkpt>
      <trkpt lat="45.91004" lon="6.4976">
        <ele>2057.8000488281</ele>
        <time>2019-02-06T09:34:54.000Z</time>
      </trkpt>
      <trkpt lat="45.91007" lon="6.49764">
        <ele>2058.1999511719</ele>
        <time>2019-02-06T09:34:58.000Z</time>
      </trkpt>
      <trkpt lat="45.91009" lon="6.49766">
        <ele>2058.6000976562</ele>
        <time>2019-02-06T09:35:00.000Z</time>
      </trkpt>
      <trkpt lat="45.9101" lon="6.49769">
        <ele>2059.6000976562</ele>
        <time>2019-02-06T09:35:04.000Z</time>
      </trkpt>
      <trkpt lat="45.91011" lon="6.49769">
        <ele>2060</ele>
        <time>2019-02-06T09:35:06.000Z</time>
      </trkpt>
      <trkpt lat="45.91012" lon="6.4977">
        <ele>2060.6000976562</ele>
        <time>2019-02-06T09:35:09.000Z</time>
      </trkpt>
      <trkpt lat="45.91012" lon="6.49773">
        <ele>2061.1999511719</ele>
        <time>2019-02-06T09:35:12.000Z</time>
      </trkpt>
      <trkpt lat="45.91014" lon="6.49774">
        <ele>2062</ele>
        <time>2019-02-06T09:35:14.000Z</time>
      </trkpt>
      <trkpt lat="45.91017" lon="6.49778">
        <ele>2063</ele>
        <time>2019-02-06T09:35:19.000Z</time>
      </trkpt>
      <trkpt lat="45.91018" lon="6.49779">
        <ele>2063.3999023438</ele>
        <time>2019-02-06T09:35:20.000Z</time>
      </trkpt>
      <trkpt lat="45.91017" lon="6.49778">
        <ele>2064.1999511719</ele>
        <time>2019-02-06T09:35:26.000Z</time>
      </trkpt>
      <trkpt lat="45.91016" lon="6.49779">
        <ele>2065.6000976562</ele>
        <time>2019-02-06T09:35:29.000Z</time>
      </trkpt>
      <trkpt lat="45.91014" lon="6.49781">
        <ele>2065.8000488281</ele>
        <time>2019-02-06T09:35:32.000Z</time>
      </trkpt>
      <trkpt lat="45.91013" lon="6.49783">
        <ele>2066.6000976562</ele>
        <time>2019-02-06T09:35:38.000Z</time>
      </trkpt>
      <trkpt lat="45.91013" lon="6.49783">
        <ele>2067.8000488281</ele>
        <time>2019-02-06T09:35:43.000Z</time>
      </trkpt>
      <trkpt lat="45.91013" lon="6.49783">
        <ele>2067.8000488281</ele>
        <time>2019-02-06T09:35:45.000Z</time>
      </trkpt>
      <trkpt lat="45.91013" lon="6.49783">
        <ele>2067.8000488281</ele>
        <time>2019-02-06T09:35:51.000Z</time>
      </trkpt>
      <trkpt lat="45.91016" lon="6.49787">
        <ele>2068.6000976562</ele>
        <time>2019-02-06T09:35:56.000Z</time>
      </trkpt>
      <trkpt lat="45.91016" lon="6.49787">
        <ele>2068.8000488281</ele>
        <time>2019-02-06T09:35:57.000Z</time>
      </trkpt>
      <trkpt lat="45.91019" lon="6.4979">
        <ele>2069.8000488281</ele>
        <time>2019-02-06T09:36:01.000Z</time>
      </trkpt>
      <trkpt lat="45.91019" lon="6.49791">
        <ele>2070.3999023438</ele>
        <time>2019-02-06T09:36:02.000Z</time>
      </trkpt>
      <trkpt lat="45.91021" lon="6.49792">
        <ele>2071</ele>
        <time>2019-02-06T09:36:04.000Z</time>
      </trkpt>
      <trkpt lat="45.91021" lon="6.49793">
        <ele>2070.8000488281</ele>
        <time>2019-02-06T09:36:09.000Z</time>
      </trkpt>
      <trkpt lat="45.91021" lon="6.49793">
        <ele>2072.3999023438</ele>
        <time>2019-02-06T09:36:12.000Z</time>
      </trkpt>
      <trkpt lat="45.91018" lon="6.49795">
        <ele>2073</ele>
        <time>2019-02-06T09:36:16.000Z</time>
      </trkpt>
      <trkpt lat="45.91015" lon="6.49797">
        <ele>2073.3999023438</ele>
        <time>2019-02-06T09:36:20.000Z</time>
      </trkpt>
      <trkpt lat="45.91015" lon="6.49797">
        <ele>2073.6000976562</ele>
        <time>2019-02-06T09:36:21.000Z</time>
      </trkpt>
      <trkpt lat="45.91012" lon="6.49798">
        <ele>2074.6000976562</ele>
        <time>2019-02-06T09:36:26.000Z</time>
      </trkpt>
      <trkpt lat="45.91009" lon="6.49801">
        <ele>2075.8000488281</ele>
        <time>2019-02-06T09:36:32.000Z</time>
      </trkpt>
      <trkpt lat="45.91008" lon="6.49801">
        <ele>2076</ele>
        <time>2019-02-06T09:36:33.000Z</time>
      </trkpt>
      <trkpt lat="45.91008" lon="6.49802">
        <ele>2077</ele>
        <time>2019-02-06T09:36:39.000Z</time>
      </trkpt>
      <trkpt lat="45.91008" lon="6.49802">
        <ele>2077.6000976562</ele>
        <time>2019-02-06T09:36:41.000Z</time>
      </trkpt>
      <trkpt lat="45.91008" lon="6.49802">
        <ele>2078</ele>
        <time>2019-02-06T09:36:44.000Z</time>
      </trkpt>
      <trkpt lat="45.91008" lon="6.49802">
        <ele>2077.6000976562</ele>
        <time>2019-02-06T09:36:47.000Z</time>
      </trkpt>
      <trkpt lat="45.91008" lon="6.49803">
        <ele>2079</ele>
        <time>2019-02-06T09:36:53.000Z</time>
      </trkpt>
      <trkpt lat="45.91009" lon="6.49806">
        <ele>2079.3999023438</ele>
        <time>2019-02-06T09:36:55.000Z</time>
      </trkpt>
      <trkpt lat="45.91012" lon="6.49813">
        <ele>2080.1999511719</ele>
        <time>2019-02-06T09:37:01.000Z</time>
      </trkpt>
      <trkpt lat="45.91014" lon="6.4982">
        <ele>2081.1999511719</ele>
        <time>2019-02-06T09:37:07.000Z</time>
      </trkpt>
      <trkpt lat="45.91016" lon="6.49825">
        <ele>2082.3999023438</ele>
        <time>2019-02-06T09:37:13.000Z</time>
      </trkpt>
      <trkpt lat="45.91016" lon="6.49826">
        <ele>2083.3999023438</ele>
        <time>2019-02-06T09:37:20.000Z</time>
      </trkpt>
      <trkpt lat="45.91017" lon="6.49827">
        <ele>2084.6000976562</ele>
        <time>2019-02-06T09:37:23.000Z</time>
      </trkpt>
      <trkpt lat="45.91016" lon="6.49827">
        <ele>2085.1999511719</ele>
        <time>2019-02-06T09:37:25.000Z</time>
      </trkpt>
      <trkpt lat="45.91014" lon="6.49828">
        <ele>2085.1999511719</ele>
        <time>2019-02-06T09:37:27.000Z</time>
      </trkpt>
      <trkpt lat="45.91012" lon="6.49829">
        <ele>2085.1999511719</ele>
        <time>2019-02-06T09:37:30.000Z</time>
      </trkpt>
      <trkpt lat="45.91009" lon="6.49829">
        <ele>2085.8000488281</ele>
        <time>2019-02-06T09:37:34.000Z</time>
      </trkpt>
      <trkpt lat="45.91007" lon="6.4983">
        <ele>2086</ele>
        <time>2019-02-06T09:37:36.000Z</time>
      </trkpt>
      <trkpt lat="45.91006" lon="6.49831">
        <ele>2087</ele>
        <time>2019-02-06T09:37:41.000Z</time>
      </trkpt>
      <trkpt lat="45.91006" lon="6.49831">
        <ele>2087.6000976562</ele>
        <time>2019-02-06T09:37:43.000Z</time>
      </trkpt>
      <trkpt lat="45.91008" lon="6.49834">
        <ele>2087.8000488281</ele>
        <time>2019-02-06T09:37:49.000Z</time>
      </trkpt>
      <trkpt lat="45.91008" lon="6.49835">
        <ele>2088.1999511719</ele>
        <time>2019-02-06T09:37:50.000Z</time>
      </trkpt>
      <trkpt lat="45.91009" lon="6.49839">
        <ele>2089.3999023438</ele>
        <time>2019-02-06T09:37:53.000Z</time>
      </trkpt>
      <trkpt lat="45.9101" lon="6.49842">
        <ele>2089.6000976562</ele>
        <time>2019-02-06T09:37:55.000Z</time>
      </trkpt>
      <trkpt lat="45.91013" lon="6.49847">
        <ele>2090.3999023438</ele>
        <time>2019-02-06T09:38:01.000Z</time>
      </trkpt>
      <trkpt lat="45.91013" lon="6.49847">
        <ele>2090.6000976562</ele>
        <time>2019-02-06T09:38:02.000Z</time>
      </trkpt>
      <trkpt lat="45.91015" lon="6.49849">
        <ele>2091.6000976562</ele>
        <time>2019-02-06T09:38:07.000Z</time>
      </trkpt>
      <trkpt lat="45.91016" lon="6.49849">
        <ele>2092.8000488281</ele>
        <time>2019-02-06T09:38:11.000Z</time>
      </trkpt>
      <trkpt lat="45.91017" lon="6.49849">
        <ele>2093.1999511719</ele>
        <time>2019-02-06T09:38:13.000Z</time>
      </trkpt>
      <trkpt lat="45.91019" lon="6.4985">
        <ele>2093.8000488281</ele>
        <time>2019-02-06T09:38:17.000Z</time>
      </trkpt>
      <trkpt lat="45.9102" lon="6.4985">
        <ele>2094.1999511719</ele>
        <time>2019-02-06T09:38:19.000Z</time>
      </trkpt>
      <trkpt lat="45.91019" lon="6.49851">
        <ele>2094.1999511719</ele>
        <time>2019-02-06T09:38:24.000Z</time>
      </trkpt>
      <trkpt lat="45.91019" lon="6.49851">
        <ele>2095.8000488281</ele>
        <time>2019-02-06T09:38:26.000Z</time>
      </trkpt>
      <trkpt lat="45.91019" lon="6.49851">
        <ele>2097</ele>
        <time>2019-02-06T09:38:29.000Z</time>
      </trkpt>
      <trkpt lat="45.91017" lon="6.49852">
        <ele>2096.1999511719</ele>
        <time>2019-02-06T09:38:32.000Z</time>
      </trkpt>
      <trkpt lat="45.91017" lon="6.49854">
        <ele>2096</ele>
        <time>2019-02-06T09:38:34.000Z</time>
      </trkpt>
      <trkpt lat="45.91016" lon="6.49855">
        <ele>2096.1999511719</ele>
        <time>2019-02-06T09:38:37.000Z</time>
      </trkpt>
      <trkpt lat="45.91015" lon="6.49858">
        <ele>2097.1999511719</ele>
        <time>2019-02-06T09:38:43.000Z</time>
      </trkpt>
      <trkpt lat="45.91012" lon="6.49862">
        <ele>2098.1999511719</ele>
        <time>2019-02-06T09:38:48.000Z</time>
      </trkpt>
      <trkpt lat="45.9101" lon="6.49863">
        <ele>2099.1999511719</ele>
        <time>2019-02-06T09:38:52.000Z</time>
      </trkpt>
      <trkpt lat="45.91009" lon="6.49864">
        <ele>2099.6000976562</ele>
        <time>2019-02-06T09:38:54.000Z</time>
      </trkpt>
      <trkpt lat="45.91008" lon="6.49865">
        <ele>2100.3999023438</ele>
        <time>2019-02-06T09:38:59.000Z</time>
      </trkpt>
      <trkpt lat="45.91008" lon="6.49865">
        <ele>2100.3999023438</ele>
        <time>2019-02-06T09:39:00.000Z</time>
      </trkpt>
      <trkpt lat="45.91008" lon="6.49865">
        <ele>2101.3999023438</ele>
        <time>2019-02-06T09:39:04.000Z</time>
      </trkpt>
      <trkpt lat="45.91008" lon="6.49865">
        <ele>2101</ele>
        <time>2019-02-06T09:39:08.000Z</time>
      </trkpt>
      <trkpt lat="45.91008" lon="6.49865">
        <ele>2102.3999023438</ele>
        <time>2019-02-06T09:39:14.000Z</time>
      </trkpt>
      <trkpt lat="45.91008" lon="6.49865">
        <ele>2102.3999023438</ele>
        <time>2019-02-06T09:39:15.000Z</time>
      </trkpt>
      <trkpt lat="45.91011" lon="6.49869">
        <ele>2103.6000976562</ele>
        <time>2019-02-06T09:39:19.000Z</time>
      </trkpt>
      <trkpt lat="45.91012" lon="6.4987">
        <ele>2103.8000488281</ele>
        <time>2019-02-06T09:39:20.000Z</time>
      </trkpt>
      <trkpt lat="45.91014" lon="6.49873">
        <ele>2104.6000976562</ele>
        <time>2019-02-06T09:39:24.000Z</time>
      </trkpt>
      <trkpt lat="45.91014" lon="6.49873">
        <ele>2104.8000488281</ele>
        <time>2019-02-06T09:39:25.000Z</time>
      </trkpt>
      <trkpt lat="45.91016" lon="6.49875">
        <ele>2105.6000976562</ele>
        <time>2019-02-06T09:39:30.000Z</time>
      </trkpt>
      <trkpt lat="45.91018" lon="6.49876">
        <ele>2106.6000976562</ele>
        <time>2019-02-06T09:39:35.000Z</time>
      </trkpt>
      <trkpt lat="45.91018" lon="6.49877">
        <ele>2107.3999023438</ele>
        <time>2019-02-06T09:39:40.000Z</time>
      </trkpt>
      <trkpt lat="45.91018" lon="6.49877">
        <ele>2108</ele>
        <time>2019-02-06T09:39:41.000Z</time>
      </trkpt>
      <trkpt lat="45.91018" lon="6.49882">
        <ele>2108.6000976562</ele>
        <time>2019-02-06T09:39:46.000Z</time>
      </trkpt>
      <trkpt lat="45.91019" lon="6.49883">
        <ele>2108.8000488281</ele>
        <time>2019-02-06T09:39:52.000Z</time>
      </trkpt>
      <trkpt lat="45.91018" lon="6.49883">
        <ele>2109</ele>
        <time>2019-02-06T09:39:54.000Z</time>
      </trkpt>
      <trkpt lat="45.91016" lon="6.49886">
        <ele>2109.8000488281</ele>
        <time>2019-02-06T09:39:58.000Z</time>
      </trkpt>
      <trkpt lat="45.91015" lon="6.49886">
        <ele>2110.1999511719</ele>
        <time>2019-02-06T09:40:00.000Z</time>
      </trkpt>
      <trkpt lat="45.91013" lon="6.49888">
        <ele>2111.3999023438</ele>
        <time>2019-02-06T09:40:04.000Z</time>
      </trkpt>
      <trkpt lat="45.91011" lon="6.49889">
        <ele>2111.8000488281</ele>
        <time>2019-02-06T09:40:06.000Z</time>
      </trkpt>
      <trkpt lat="45.9101" lon="6.4989">
        <ele>2112.3999023438</ele>
        <time>2019-02-06T09:40:10.000Z</time>
      </trkpt>
      <trkpt lat="45.9101" lon="6.4989">
        <ele>2113.1999511719</ele>
        <time>2019-02-06T09:40:13.000Z</time>
      </trkpt>
      <trkpt lat="45.91011" lon="6.49891">
        <ele>2112.8000488281</ele>
        <time>2019-02-06T09:40:18.000Z</time>
      </trkpt>
      <trkpt lat="45.91014" lon="6.49893">
        <ele>2113.8000488281</ele>
        <time>2019-02-06T09:40:23.000Z</time>
      </trkpt>
      <trkpt lat="45.91014" lon="6.49893">
        <ele>2114</ele>
        <time>2019-02-06T09:40:24.000Z</time>
      </trkpt>
      <trkpt lat="45.91014" lon="6.49893">
        <ele>2114.8000488281</ele>
        <time>2019-02-06T09:40:26.000Z</time>
      </trkpt>
      <trkpt lat="45.91015" lon="6.49896">
        <ele>2115.6000976562</ele>
        <time>2019-02-06T09:40:30.000Z</time>
      </trkpt>
      <trkpt lat="45.91015" lon="6.49896">
        <ele>2116</ele>
        <time>2019-02-06T09:40:32.000Z</time>
      </trkpt>
      <trkpt lat="45.91017" lon="6.49898">
        <ele>2116.1999511719</ele>
        <time>2019-02-06T09:40:36.000Z</time>
      </trkpt>
      <trkpt lat="45.91017" lon="6.49898">
        <ele>2117.1999511719</ele>
        <time>2019-02-06T09:40:41.000Z</time>
      </trkpt>
      <trkpt lat="45.91016" lon="6.49899">
        <ele>2117.8000488281</ele>
        <time>2019-02-06T09:40:43.000Z</time>
      </trkpt>
      <trkpt lat="45.91016" lon="6.49899">
        <ele>2118.1999511719</ele>
        <time>2019-02-06T09:40:44.000Z</time>
      </trkpt>
      <trkpt lat="45.91014" lon="6.49903">
        <ele>2118.3999023438</ele>
        <time>2019-02-06T09:40:50.000Z</time>
      </trkpt>
      <trkpt lat="45.91013" lon="6.49905">
        <ele>2119.3999023438</ele>
        <time>2019-02-06T09:40:54.000Z</time>
      </trkpt>
      <trkpt lat="45.91012" lon="6.49907">
        <ele>2120</ele>
        <time>2019-02-06T09:40:57.000Z</time>
      </trkpt>
      <trkpt lat="45.91012" lon="6.49907">
        <ele>2120.3999023438</ele>
        <time>2019-02-06T09:41:00.000Z</time>
      </trkpt>
      <trkpt lat="45.91014" lon="6.49907">
        <ele>2120.6000976562</ele>
        <time>2019-02-06T09:41:04.000Z</time>
      </trkpt>
      <trkpt lat="45.91016" lon="6.4991">
        <ele>2121.1999511719</ele>
        <time>2019-02-06T09:41:09.000Z</time>
      </trkpt>
      <trkpt lat="45.91017" lon="6.4991">
        <ele>2121.6000976562</ele>
        <time>2019-02-06T09:41:10.000Z</time>
      </trkpt>
      <trkpt lat="45.91017" lon="6.49911">
        <ele>2122.8000488281</ele>
        <time>2019-02-06T09:41:14.000Z</time>
      </trkpt>
      <trkpt lat="45.91019" lon="6.49911">
        <ele>2123.8000488281</ele>
        <time>2019-02-06T09:41:19.000Z</time>
      </trkpt>
      <trkpt lat="45.91023" lon="6.49911">
        <ele>2124.3999023438</ele>
        <time>2019-02-06T09:41:24.000Z</time>
      </trkpt>
      <trkpt lat="45.91023" lon="6.49912">
        <ele>2125</ele>
        <time>2019-02-06T09:41:30.000Z</time>
      </trkpt>
      <trkpt lat="45.91023" lon="6.49914">
        <ele>2126.1999511719</ele>
        <time>2019-02-06T09:41:32.000Z</time>
      </trkpt>
      <trkpt lat="45.91022" lon="6.49917">
        <ele>2126</ele>
        <time>2019-02-06T09:41:36.000Z</time>
      </trkpt>
      <trkpt lat="45.9102" lon="6.49922">
        <ele>2126.8000488281</ele>
        <time>2019-02-06T09:41:41.000Z</time>
      </trkpt>
      <trkpt lat="45.91019" lon="6.49923">
        <ele>2127.3999023438</ele>
        <time>2019-02-06T09:41:43.000Z</time>
      </trkpt>
      <trkpt lat="45.91018" lon="6.49924">
        <ele>2128</ele>
        <time>2019-02-06T09:41:46.000Z</time>
      </trkpt>
      <trkpt lat="45.91016" lon="6.49926">
        <ele>2128.3999023438</ele>
        <time>2019-02-06T09:41:51.000Z</time>
      </trkpt>
      <trkpt lat="45.91013" lon="6.49927">
        <ele>2129.3999023438</ele>
        <time>2019-02-06T09:41:57.000Z</time>
      </trkpt>
      <trkpt lat="45.91009" lon="6.49927">
        <ele>2130.6000976562</ele>
        <time>2019-02-06T09:42:02.000Z</time>
      </trkpt>
      <trkpt lat="45.91009" lon="6.49927">
        <ele>2131</ele>
        <time>2019-02-06T09:42:04.000Z</time>
      </trkpt>
      <trkpt lat="45.91008" lon="6.49926">
        <ele>2131.6000976562</ele>
        <time>2019-02-06T09:42:06.000Z</time>
      </trkpt>
      <trkpt lat="45.91006" lon="6.49926">
        <ele>2132.3999023438</ele>
        <time>2019-02-06T09:42:10.000Z</time>
      </trkpt>
      <trkpt lat="45.91006" lon="6.49926">
        <ele>2132.6000976562</ele>
        <time>2019-02-06T09:42:15.000Z</time>
      </trkpt>
      <trkpt lat="45.91006" lon="6.49926">
        <ele>2132.6000976562</ele>
        <time>2019-02-06T09:42:16.000Z</time>
      </trkpt>
      <trkpt lat="45.91007" lon="6.49929">
        <ele>2132.3999023438</ele>
        <time>2019-02-06T09:42:23.000Z</time>
      </trkpt>
      <trkpt lat="45.91008" lon="6.49931">
        <ele>2134</ele>
        <time>2019-02-06T09:42:26.000Z</time>
      </trkpt>
      <trkpt lat="45.9101" lon="6.49933">
        <ele>2134.8000488281</ele>
        <time>2019-02-06T09:42:29.000Z</time>
      </trkpt>
      <trkpt lat="45.91011" lon="6.49935">
        <ele>2135.1999511719</ele>
        <time>2019-02-06T09:42:31.000Z</time>
      </trkpt>
      <trkpt lat="45.91014" lon="6.49938">
        <ele>2135.8000488281</ele>
        <time>2019-02-06T09:42:35.000Z</time>
      </trkpt>
      <trkpt lat="45.91015" lon="6.49939">
        <ele>2136.1999511719</ele>
        <time>2019-02-06T09:42:38.000Z</time>
      </trkpt>
      <trkpt lat="45.91015" lon="6.49939">
        <ele>2136.3999023438</ele>
        <time>2019-02-06T09:42:40.000Z</time>
      </trkpt>
      <trkpt lat="45.91016" lon="6.49941">
        <ele>2137.1999511719</ele>
        <time>2019-02-06T09:42:44.000Z</time>
      </trkpt>
      <trkpt lat="45.91016" lon="6.49942">
        <ele>2137.3999023438</ele>
        <time>2019-02-06T09:42:45.000Z</time>
      </trkpt>
      <trkpt lat="45.91019" lon="6.49945">
        <ele>2138.3999023438</ele>
        <time>2019-02-06T09:42:50.000Z</time>
      </trkpt>
      <trkpt lat="45.9102" lon="6.49945">
        <ele>2138.6000976562</ele>
        <time>2019-02-06T09:42:51.000Z</time>
      </trkpt>
      <trkpt lat="45.91021" lon="6.49946">
        <ele>2139.3999023438</ele>
        <time>2019-02-06T09:42:55.000Z</time>
      </trkpt>
      <trkpt lat="45.91023" lon="6.49947">
        <ele>2139.6000976562</ele>
        <time>2019-02-06T09:42:56.000Z</time>
      </trkpt>
      <trkpt lat="45.91025" lon="6.49947">
        <ele>2140.6000976562</ele>
        <time>2019-02-06T09:43:00.000Z</time>
      </trkpt>
      <trkpt lat="45.91025" lon="6.49947">
        <ele>2140.8000488281</ele>
        <time>2019-02-06T09:43:01.000Z</time>
      </trkpt>
      <trkpt lat="45.91027" lon="6.49948">
        <ele>2141.3999023438</ele>
        <time>2019-02-06T09:43:06.000Z</time>
      </trkpt>
      <trkpt lat="45.91027" lon="6.49949">
        <ele>2141.8000488281</ele>
        <time>2019-02-06T09:43:10.000Z</time>
      </trkpt>
      <trkpt lat="45.91026" lon="6.4995">
        <ele>2143</ele>
        <time>2019-02-06T09:43:12.000Z</time>
      </trkpt>
      <trkpt lat="45.91025" lon="6.49951">
        <ele>2143.1999511719</ele>
        <time>2019-02-06T09:43:13.000Z</time>
      </trkpt>
      <trkpt lat="45.91023" lon="6.49954">
        <ele>2142.8000488281</ele>
        <time>2019-02-06T09:43:18.000Z</time>
      </trkpt>
      <trkpt lat="45.9102" lon="6.49958">
        <ele>2143.8000488281</ele>
        <time>2019-02-06T09:43:24.000Z</time>
      </trkpt>
      <trkpt lat="45.9102" lon="6.49959">
        <ele>2144</ele>
        <time>2019-02-06T09:43:25.000Z</time>
      </trkpt>
      <trkpt lat="45.91017" lon="6.4996">
        <ele>2144.8000488281</ele>
        <time>2019-02-06T09:43:29.000Z</time>
      </trkpt>
      <trkpt lat="45.91016" lon="6.49961">
        <ele>2145</ele>
        <time>2019-02-06T09:43:32.000Z</time>
      </trkpt>
      <trkpt lat="45.91014" lon="6.49962">
        <ele>2145.6000976562</ele>
        <time>2019-02-06T09:43:36.000Z</time>
      </trkpt>
      <trkpt lat="45.91012" lon="6.49963">
        <ele>2146.3999023438</ele>
        <time>2019-02-06T09:43:39.000Z</time>
      </trkpt>
      <trkpt lat="45.91009" lon="6.49964">
        <ele>2147.6000976562</ele>
        <time>2019-02-06T09:43:43.000Z</time>
      </trkpt>
      <trkpt lat="45.91007" lon="6.49965">
        <ele>2148.6000976562</ele>
        <time>2019-02-06T09:43:48.000Z</time>
      </trkpt>
      <trkpt lat="45.91006" lon="6.49965">
        <ele>2148.8000488281</ele>
        <time>2019-02-06T09:43:49.000Z</time>
      </trkpt>
      <trkpt lat="45.91004" lon="6.49966">
        <ele>2149.6000976562</ele>
        <time>2019-02-06T09:43:55.000Z</time>
      </trkpt>
      <trkpt lat="45.91004" lon="6.49966">
        <ele>2149.8000488281</ele>
        <time>2019-02-06T09:43:56.000Z</time>
      </trkpt>
      <trkpt lat="45.91007" lon="6.49968">
        <ele>2150.1999511719</ele>
        <time>2019-02-06T09:44:02.000Z</time>
      </trkpt>
      <trkpt lat="45.91008" lon="6.49969">
        <ele>2150.6000976562</ele>
        <time>2019-02-06T09:44:03.000Z</time>
      </trkpt>
      <trkpt lat="45.91011" lon="6.49971">
        <ele>2151.1999511719</ele>
        <time>2019-02-06T09:44:07.000Z</time>
      </trkpt>
      <trkpt lat="45.91014" lon="6.49972">
        <ele>2151.8000488281</ele>
        <time>2019-02-06T09:44:11.000Z</time>
      </trkpt>
      <trkpt lat="45.91015" lon="6.49973">
        <ele>2152</ele>
        <time>2019-02-06T09:44:14.000Z</time>
      </trkpt>
      <trkpt lat="45.91014" lon="6.49973">
        <ele>2153.1999511719</ele>
        <time>2019-02-06T09:44:20.000Z</time>
      </trkpt>
      <trkpt lat="45.91011" lon="6.49975">
        <ele>2154.1999511719</ele>
        <time>2019-02-06T09:44:23.000Z</time>
      </trkpt>
      <trkpt lat="45.91009" lon="6.49976">
        <ele>2154.1999511719</ele>
        <time>2019-02-06T09:44:25.000Z</time>
      </trkpt>
      <trkpt lat="45.91005" lon="6.49978">
        <ele>2155</ele>
        <time>2019-02-06T09:44:31.000Z</time>
      </trkpt>
      <trkpt lat="45.91003" lon="6.49978">
        <ele>2155.3999023438</ele>
        <time>2019-02-06T09:44:34.000Z</time>
      </trkpt>
      <trkpt lat="45.91" lon="6.49978">
        <ele>2156</ele>
        <time>2019-02-06T09:44:38.000Z</time>
      </trkpt>
      <trkpt lat="45.90999" lon="6.49978">
        <ele>2156.6000976562</ele>
        <time>2019-02-06T09:44:41.000Z</time>
      </trkpt>
      <trkpt lat="45.90999" lon="6.49978">
        <ele>2157.1999511719</ele>
        <time>2019-02-06T09:44:44.000Z</time>
      </trkpt>
      <trkpt lat="45.90999" lon="6.49978">
        <ele>2157.6000976562</ele>
        <time>2019-02-06T09:44:46.000Z</time>
      </trkpt>
      <trkpt lat="45.90999" lon="6.49978">
        <ele>2157.6000976562</ele>
        <time>2019-02-06T09:44:50.000Z</time>
      </trkpt>
      <trkpt lat="45.91001" lon="6.49982">
        <ele>2157.6000976562</ele>
        <time>2019-02-06T09:44:57.000Z</time>
      </trkpt>
      <trkpt lat="45.91002" lon="6.49984">
        <ele>2159</ele>
        <time>2019-02-06T09:45:00.000Z</time>
      </trkpt>
      <trkpt lat="45.91003" lon="6.49986">
        <ele>2159.1999511719</ele>
        <time>2019-02-06T09:45:02.000Z</time>
      </trkpt>
      <trkpt lat="45.91006" lon="6.4999">
        <ele>2160</ele>
        <time>2019-02-06T09:45:07.000Z</time>
      </trkpt>
      <trkpt lat="45.91008" lon="6.49992">
        <ele>2160.8000488281</ele>
        <time>2019-02-06T09:45:13.000Z</time>
      </trkpt>
      <trkpt lat="45.91009" lon="6.49992">
        <ele>2161</ele>
        <time>2019-02-06T09:45:15.000Z</time>
      </trkpt>
      <trkpt lat="45.91009" lon="6.49993">
        <ele>2161.1999511719</ele>
        <time>2019-02-06T09:45:19.000Z</time>
      </trkpt>
      <trkpt lat="45.91008" lon="6.49993">
        <ele>2162.1999511719</ele>
        <time>2019-02-06T09:45:21.000Z</time>
      </trkpt>
      <trkpt lat="45.91006" lon="6.49994">
        <ele>2163.1999511719</ele>
        <time>2019-02-06T09:45:24.000Z</time>
      </trkpt>
      <trkpt lat="45.91003" lon="6.49993">
        <ele>2163.3999023438</ele>
        <time>2019-02-06T09:45:29.000Z</time>
      </trkpt>
      <trkpt lat="45.91" lon="6.49993">
        <ele>2164.1999511719</ele>
        <time>2019-02-06T09:45:33.000Z</time>
      </trkpt>
      <trkpt lat="45.90998" lon="6.49993">
        <ele>2164.6000976562</ele>
        <time>2019-02-06T09:45:36.000Z</time>
      </trkpt>
      <trkpt lat="45.90996" lon="6.49993">
        <ele>2165.3999023438</ele>
        <time>2019-02-06T09:45:39.000Z</time>
      </trkpt>
      <trkpt lat="45.90995" lon="6.49993">
        <ele>2166</ele>
        <time>2019-02-06T09:45:42.000Z</time>
      </trkpt>
      <trkpt lat="45.90991" lon="6.49993">
        <ele>2166.3999023438</ele>
        <time>2019-02-06T09:45:48.000Z</time>
      </trkpt>
      <trkpt lat="45.90989" lon="6.49993">
        <ele>2166.8000488281</ele>
        <time>2019-02-06T09:45:50.000Z</time>
      </trkpt>
      <trkpt lat="45.90989" lon="6.49994">
        <ele>2167.6000976562</ele>
        <time>2019-02-06T09:45:54.000Z</time>
      </trkpt>
      <trkpt lat="45.9099" lon="6.49995">
        <ele>2167.6000976562</ele>
        <time>2019-02-06T09:45:56.000Z</time>
      </trkpt>
      <trkpt lat="45.90991" lon="6.49999">
        <ele>2167.6000976562</ele>
        <time>2019-02-06T09:46:01.000Z</time>
      </trkpt>
      <trkpt lat="45.90991" lon="6.50002">
        <ele>2169</ele>
        <time>2019-02-06T09:46:03.000Z</time>
      </trkpt>
      <trkpt lat="45.90992" lon="6.50004">
        <ele>2169.6000976562</ele>
        <time>2019-02-06T09:46:07.000Z</time>
      </trkpt>
      <trkpt lat="45.90994" lon="6.50007">
        <ele>2170</ele>
        <time>2019-02-06T09:46:12.000Z</time>
      </trkpt>
      <trkpt lat="45.90994" lon="6.50008">
        <ele>2170.1999511719</ele>
        <time>2019-02-06T09:46:13.000Z</time>
      </trkpt>
      <trkpt lat="45.90997" lon="6.50012">
        <ele>2171</ele>
        <time>2019-02-06T09:46:19.000Z</time>
      </trkpt>
      <trkpt lat="45.90999" lon="6.50017">
        <ele>2172.1999511719</ele>
        <time>2019-02-06T09:46:24.000Z</time>
      </trkpt>
      <trkpt lat="45.90999" lon="6.50018">
        <ele>2172.6000976562</ele>
        <time>2019-02-06T09:46:25.000Z</time>
      </trkpt>
      <trkpt lat="45.91001" lon="6.50022">
        <ele>2173.1999511719</ele>
        <time>2019-02-06T09:46:30.000Z</time>
      </trkpt>
      <trkpt lat="45.91" lon="6.50022">
        <ele>2173.1999511719</ele>
        <time>2019-02-06T09:46:31.000Z</time>
      </trkpt>
      <trkpt lat="45.91" lon="6.50022">
        <ele>2174.6000976562</ele>
        <time>2019-02-06T09:46:36.000Z</time>
      </trkpt>
      <trkpt lat="45.91001" lon="6.50022">
        <ele>2175.3999023438</ele>
        <time>2019-02-06T09:46:38.000Z</time>
      </trkpt>
      <trkpt lat="45.90999" lon="6.50021">
        <ele>2174.6000976562</ele>
        <time>2019-02-06T09:46:44.000Z</time>
      </trkpt>
      <trkpt lat="45.90997" lon="6.5002">
        <ele>2175.8000488281</ele>
        <time>2019-02-06T09:46:49.000Z</time>
      </trkpt>
      <trkpt lat="45.90997" lon="6.5002">
        <ele>2176</ele>
        <time>2019-02-06T09:46:50.000Z</time>
      </trkpt>
      <trkpt lat="45.90995" lon="6.50019">
        <ele>2176.8000488281</ele>
        <time>2019-02-06T09:46:53.000Z</time>
      </trkpt>
      <trkpt lat="45.90993" lon="6.5002">
        <ele>2177.1999511719</ele>
        <time>2019-02-06T09:46:57.000Z</time>
      </trkpt>
      <trkpt lat="45.9099" lon="6.5002">
        <ele>2178</ele>
        <time>2019-02-06T09:47:01.000Z</time>
      </trkpt>
      <trkpt lat="45.90988" lon="6.50019">
        <ele>2178.1999511719</ele>
        <time>2019-02-06T09:47:04.000Z</time>
      </trkpt>
      <trkpt lat="45.90986" lon="6.50019">
        <ele>2179</ele>
        <time>2019-02-06T09:47:08.000Z</time>
      </trkpt>
      <trkpt lat="45.90984" lon="6.50016">
        <ele>2179.1999511719</ele>
        <time>2019-02-06T09:47:10.000Z</time>
      </trkpt>
      <trkpt lat="45.90984" lon="6.50016">
        <ele>2180</ele>
        <time>2019-02-06T09:47:14.000Z</time>
      </trkpt>
      <trkpt lat="45.90984" lon="6.50016">
        <ele>2180</ele>
        <time>2019-02-06T09:47:18.000Z</time>
      </trkpt>
      <trkpt lat="45.90986" lon="6.5002">
        <ele>2180.1999511719</ele>
        <time>2019-02-06T09:47:24.000Z</time>
      </trkpt>
      <trkpt lat="45.90988" lon="6.50024">
        <ele>2181.3999023438</ele>
        <time>2019-02-06T09:47:28.000Z</time>
      </trkpt>
      <trkpt lat="45.90988" lon="6.50025">
        <ele>2181.3999023438</ele>
        <time>2019-02-06T09:47:29.000Z</time>
      </trkpt>
      <trkpt lat="45.90988" lon="6.50029">
        <ele>2182.3999023438</ele>
        <time>2019-02-06T09:47:34.000Z</time>
      </trkpt>
      <trkpt lat="45.90989" lon="6.50031">
        <ele>2182.6000976562</ele>
        <time>2019-02-06T09:47:35.000Z</time>
      </trkpt>
      <trkpt lat="45.9099" lon="6.50036">
        <ele>2183.3999023438</ele>
        <time>2019-02-06T09:47:41.000Z</time>
      </trkpt>
      <trkpt lat="45.90991" lon="6.50037">
        <ele>2183.6000976562</ele>
        <time>2019-02-06T09:47:42.000Z</time>
      </trkpt>
      <trkpt lat="45.90993" lon="6.50041">
        <ele>2184.8000488281</ele>
        <time>2019-02-06T09:47:47.000Z</time>
      </trkpt>
      <trkpt lat="45.90996" lon="6.50046">
        <ele>2185.6000976562</ele>
        <time>2019-02-06T09:47:54.000Z</time>
      </trkpt>
      <trkpt lat="45.90996" lon="6.50046">
        <ele>2185.8000488281</ele>
        <time>2019-02-06T09:47:55.000Z</time>
      </trkpt>
      <trkpt lat="45.90997" lon="6.50047">
        <ele>2186.1999511719</ele>
        <time>2019-02-06T09:48:02.000Z</time>
      </trkpt>
      <trkpt lat="45.90997" lon="6.50047">
        <ele>2187.6000976562</ele>
        <time>2019-02-06T09:48:10.000Z</time>
      </trkpt>
      <trkpt lat="45.90997" lon="6.50046">
        <ele>2188.8000488281</ele>
        <time>2019-02-06T09:48:13.000Z</time>
      </trkpt>
      <trkpt lat="45.90994" lon="6.50045">
        <ele>2188.1999511719</ele>
        <time>2019-02-06T09:48:18.000Z</time>
      </trkpt>
      <trkpt lat="45.90992" lon="6.50043">
        <ele>2189</ele>
        <time>2019-02-06T09:48:24.000Z</time>
      </trkpt>
      <trkpt lat="45.90991" lon="6.50043">
        <ele>2189.8000488281</ele>
        <time>2019-02-06T09:48:27.000Z</time>
      </trkpt>
      <trkpt lat="45.90987" lon="6.50043">
        <ele>2190.6000976562</ele>
        <time>2019-02-06T09:48:32.000Z</time>
      </trkpt>
      <trkpt lat="45.90987" lon="6.50042">
        <ele>2190.8000488281</ele>
        <time>2019-02-06T09:48:33.000Z</time>
      </trkpt>
      <trkpt lat="45.90982" lon="6.50041">
        <ele>2191.1999511719</ele>
        <time>2019-02-06T09:48:38.000Z</time>
      </trkpt>
      <trkpt lat="45.9098" lon="6.5004">
        <ele>2192</ele>
        <time>2019-02-06T09:48:42.000Z</time>
      </trkpt>
      <trkpt lat="45.90979" lon="6.50039">
        <ele>2192.1999511719</ele>
        <time>2019-02-06T09:48:44.000Z</time>
      </trkpt>
      <trkpt lat="45.90975" lon="6.50038">
        <ele>2193</ele>
        <time>2019-02-06T09:48:50.000Z</time>
      </trkpt>
      <trkpt lat="45.90971" lon="6.50037">
        <ele>2194</ele>
        <time>2019-02-06T09:48:56.000Z</time>
      </trkpt>
      <trkpt lat="45.90969" lon="6.50037">
        <ele>2195</ele>
        <time>2019-02-06T09:49:02.000Z</time>
      </trkpt>
      <trkpt lat="45.90969" lon="6.50037">
        <ele>2195.1999511719</ele>
        <time>2019-02-06T09:49:04.000Z</time>
      </trkpt>
      <trkpt lat="45.90969" lon="6.50037">
        <ele>2195.1999511719</ele>
        <time>2019-02-06T09:49:08.000Z</time>
      </trkpt>
      <trkpt lat="45.90971" lon="6.50041">
        <ele>2196</ele>
        <time>2019-02-06T09:49:14.000Z</time>
      </trkpt>
      <trkpt lat="45.90971" lon="6.50041">
        <ele>2196.1999511719</ele>
        <time>2019-02-06T09:49:15.000Z</time>
      </trkpt>
      <trkpt lat="45.90973" lon="6.50044">
        <ele>2196.6000976562</ele>
        <time>2019-02-06T09:49:19.000Z</time>
      </trkpt>
      <trkpt lat="45.90975" lon="6.50046">
        <ele>2197.3999023438</ele>
        <time>2019-02-06T09:49:23.000Z</time>
      </trkpt>
      <trkpt lat="45.90977" lon="6.50049">
        <ele>2197.6000976562</ele>
        <time>2019-02-06T09:49:26.000Z</time>
      </trkpt>
      <trkpt lat="45.90977" lon="6.50053">
        <ele>2198.6000976562</ele>
        <time>2019-02-06T09:49:30.000Z</time>
      </trkpt>
      <trkpt lat="45.90978" lon="6.50054">
        <ele>2199</ele>
        <time>2019-02-06T09:49:31.000Z</time>
      </trkpt>
      <trkpt lat="45.90979" lon="6.50059">
        <ele>2199.6000976562</ele>
        <time>2019-02-06T09:49:36.000Z</time>
      </trkpt>
      <trkpt lat="45.9098" lon="6.5006">
        <ele>2199.8000488281</ele>
        <time>2019-02-06T09:49:37.000Z</time>
      </trkpt>
      <trkpt lat="45.90981" lon="6.50063">
        <ele>2200.8000488281</ele>
        <time>2019-02-06T09:49:40.000Z</time>
      </trkpt>
      <trkpt lat="45.90981" lon="6.50064">
        <ele>2201</ele>
        <time>2019-02-06T09:49:42.000Z</time>
      </trkpt>
      <trkpt lat="45.90983" lon="6.50068">
        <ele>2201.8000488281</ele>
        <time>2019-02-06T09:49:47.000Z</time>
      </trkpt>
      <trkpt lat="45.90984" lon="6.5007">
        <ele>2202.1999511719</ele>
        <time>2019-02-06T09:49:49.000Z</time>
      </trkpt>
      <trkpt lat="45.90985" lon="6.50073">
        <ele>2203</ele>
        <time>2019-02-06T09:49:53.000Z</time>
      </trkpt>
      <trkpt lat="45.90986" lon="6.50074">
        <ele>2203.6000976562</ele>
        <time>2019-02-06T09:49:55.000Z</time>
      </trkpt>
      <trkpt lat="45.90988" lon="6.5008">
        <ele>2204.1999511719</ele>
        <time>2019-02-06T09:50:01.000Z</time>
      </trkpt>
      <trkpt lat="45.90989" lon="6.50082">
        <ele>2205.1999511719</ele>
        <time>2019-02-06T09:50:04.000Z</time>
      </trkpt>
      <trkpt lat="45.90989" lon="6.50084">
        <ele>2205.6000976562</ele>
        <time>2019-02-06T09:50:09.000Z</time>
      </trkpt>
      <trkpt lat="45.90989" lon="6.50084">
        <ele>2204</ele>
        <time>2019-02-06T09:50:12.000Z</time>
      </trkpt>
      <trkpt lat="45.90989" lon="6.50084">
        <ele>2205.8000488281</ele>
        <time>2019-02-06T09:50:15.000Z</time>
      </trkpt>
      <trkpt lat="45.90989" lon="6.50083">
        <ele>2207.1999511719</ele>
        <time>2019-02-06T09:50:16.000Z</time>
      </trkpt>
      <trkpt lat="45.90989" lon="6.50082">
        <ele>2208.3999023438</ele>
        <time>2019-02-06T09:50:18.000Z</time>
      </trkpt>
      <trkpt lat="45.90985" lon="6.50079">
        <ele>2207.3999023438</ele>
        <time>2019-02-06T09:50:23.000Z</time>
      </trkpt>
      <trkpt lat="45.90983" lon="6.50077">
        <ele>2207.6000976562</ele>
        <time>2019-02-06T09:50:28.000Z</time>
      </trkpt>
      <trkpt lat="45.90977" lon="6.50075">
        <ele>2208.8000488281</ele>
        <time>2019-02-06T09:50:36.000Z</time>
      </trkpt>
      <trkpt lat="45.90975" lon="6.50073">
        <ele>2209.6000976562</ele>
        <time>2019-02-06T09:50:41.000Z</time>
      </trkpt>
      <trkpt lat="45.90973" lon="6.50073">
        <ele>2210.1999511719</ele>
        <time>2019-02-06T09:50:44.000Z</time>
      </trkpt>
      <trkpt lat="45.9097" lon="6.50071">
        <ele>2210.6000976562</ele>
        <time>2019-02-06T09:50:49.000Z</time>
      </trkpt>
      <trkpt lat="45.90969" lon="6.50071">
        <ele>2210.6000976562</ele>
        <time>2019-02-06T09:50:50.000Z</time>
      </trkpt>
      <trkpt lat="45.90965" lon="6.5007">
        <ele>2211.8000488281</ele>
        <time>2019-02-06T09:50:57.000Z</time>
      </trkpt>
      <trkpt lat="45.90962" lon="6.50069">
        <ele>2213</ele>
        <time>2019-02-06T09:51:03.000Z</time>
      </trkpt>
      <trkpt lat="45.90961" lon="6.50069">
        <ele>2213.1999511719</ele>
        <time>2019-02-06T09:51:04.000Z</time>
      </trkpt>
      <trkpt lat="45.90958" lon="6.50069">
        <ele>2214</ele>
        <time>2019-02-06T09:51:10.000Z</time>
      </trkpt>
      <trkpt lat="45.90956" lon="6.50068">
        <ele>2214.1999511719</ele>
        <time>2019-02-06T09:51:12.000Z</time>
      </trkpt>
      <trkpt lat="45.90953" lon="6.50068">
        <ele>2215</ele>
        <time>2019-02-06T09:51:18.000Z</time>
      </trkpt>
      <trkpt lat="45.90952" lon="6.50067">
        <ele>2215.1999511719</ele>
        <time>2019-02-06T09:51:19.000Z</time>
      </trkpt>
      <trkpt lat="45.90949" lon="6.50067">
        <ele>2216.1999511719</ele>
        <time>2019-02-06T09:51:24.000Z</time>
      </trkpt>
      <trkpt lat="45.90948" lon="6.50067">
        <ele>2216.3999023438</ele>
        <time>2019-02-06T09:51:25.000Z</time>
      </trkpt>
      <trkpt lat="45.90945" lon="6.50067">
        <ele>2216.8000488281</ele>
        <time>2019-02-06T09:51:30.000Z</time>
      </trkpt>
      <trkpt lat="45.90945" lon="6.50067">
        <ele>2217.3999023438</ele>
        <time>2019-02-06T09:51:33.000Z</time>
      </trkpt>
      <trkpt lat="45.90945" lon="6.50068">
        <ele>2217.8000488281</ele>
        <time>2019-02-06T09:51:37.000Z</time>
      </trkpt>
      <trkpt lat="45.90945" lon="6.50068">
        <ele>2216.6000976562</ele>
        <time>2019-02-06T09:51:45.000Z</time>
      </trkpt>
      <trkpt lat="45.90946" lon="6.50069">
        <ele>2218.6000976562</ele>
        <time>2019-02-06T09:51:52.000Z</time>
      </trkpt>
      <trkpt lat="45.90946" lon="6.5007">
        <ele>2219</ele>
        <time>2019-02-06T09:51:53.000Z</time>
      </trkpt>
      <trkpt lat="45.90949" lon="6.50076">
        <ele>2219.6000976562</ele>
        <time>2019-02-06T09:51:59.000Z</time>
      </trkpt>
      <trkpt lat="45.90951" lon="6.50079">
        <ele>2219.8000488281</ele>
        <time>2019-02-06T09:52:03.000Z</time>
      </trkpt>
      <trkpt lat="45.90951" lon="6.5008">
        <ele>2220.1999511719</ele>
        <time>2019-02-06T09:52:04.000Z</time>
      </trkpt>
      <trkpt lat="45.90954" lon="6.50086">
        <ele>2220.8000488281</ele>
        <time>2019-02-06T09:52:10.000Z</time>
      </trkpt>
      <trkpt lat="45.90954" lon="6.5009">
        <ele>2222</ele>
        <time>2019-02-06T09:52:15.000Z</time>
      </trkpt>
      <trkpt lat="45.90955" lon="6.50097">
        <ele>2222.8000488281</ele>
        <time>2019-02-06T09:52:21.000Z</time>
      </trkpt>
      <trkpt lat="45.90955" lon="6.50098">
        <ele>2223</ele>
        <time>2019-02-06T09:52:22.000Z</time>
      </trkpt>
      <trkpt lat="45.90956" lon="6.501">
        <ele>2223.8000488281</ele>
        <time>2019-02-06T09:52:27.000Z</time>
      </trkpt>
      <trkpt lat="45.90957" lon="6.50101">
        <ele>2224.1999511719</ele>
        <time>2019-02-06T09:52:31.000Z</time>
      </trkpt>
      <trkpt lat="45.90957" lon="6.50102">
        <ele>2224.1999511719</ele>
        <time>2019-02-06T09:52:32.000Z</time>
      </trkpt>
      <trkpt lat="45.90959" lon="6.50106">
        <ele>2225.3999023438</ele>
        <time>2019-02-06T09:52:37.000Z</time>
      </trkpt>
      <trkpt lat="45.90965" lon="6.50112">
        <ele>2226.1999511719</ele>
        <time>2019-02-06T09:52:43.000Z</time>
      </trkpt>
      <trkpt lat="45.90966" lon="6.50114">
        <ele>2226.3999023438</ele>
        <time>2019-02-06T09:52:44.000Z</time>
      </trkpt>
      <trkpt lat="45.90971" lon="6.50118">
        <ele>2227.3999023438</ele>
        <time>2019-02-06T09:52:49.000Z</time>
      </trkpt>
      <trkpt lat="45.90971" lon="6.50119">
        <ele>2227.3999023438</ele>
        <time>2019-02-06T09:52:50.000Z</time>
      </trkpt>
      <trkpt lat="45.90973" lon="6.50122">
        <ele>2228.1999511719</ele>
        <time>2019-02-06T09:52:54.000Z</time>
      </trkpt>
      <trkpt lat="45.90974" lon="6.50123">
        <ele>2228.6000976562</ele>
        <time>2019-02-06T09:52:56.000Z</time>
      </trkpt>
      <trkpt lat="45.90975" lon="6.50125">
        <ele>2229.1999511719</ele>
        <time>2019-02-06T09:53:00.000Z</time>
      </trkpt>
      <trkpt lat="45.90977" lon="6.50127">
        <ele>2229.8000488281</ele>
        <time>2019-02-06T09:53:04.000Z</time>
      </trkpt>
      <trkpt lat="45.90978" lon="6.50128">
        <ele>2230.1999511719</ele>
        <time>2019-02-06T09:53:07.000Z</time>
      </trkpt>
      <trkpt lat="45.90976" lon="6.50127">
        <ele>2229.6000976562</ele>
        <time>2019-02-06T09:53:12.000Z</time>
      </trkpt>
      <trkpt lat="45.90975" lon="6.50126">
        <ele>2230.8000488281</ele>
        <time>2019-02-06T09:53:14.000Z</time>
      </trkpt>
      <trkpt lat="45.90974" lon="6.50126">
        <ele>2232</ele>
        <time>2019-02-06T09:53:16.000Z</time>
      </trkpt>
      <trkpt lat="45.90974" lon="6.50125">
        <ele>2232.1999511719</ele>
        <time>2019-02-06T09:53:18.000Z</time>
      </trkpt>
      <trkpt lat="45.90972" lon="6.50122">
        <ele>2232.3999023438</ele>
        <time>2019-02-06T09:53:23.000Z</time>
      </trkpt>
      <trkpt lat="45.90968" lon="6.5012">
        <ele>2233</ele>
        <time>2019-02-06T09:53:31.000Z</time>
      </trkpt>
      <trkpt lat="45.90963" lon="6.50118">
        <ele>2234.1999511719</ele>
        <time>2019-02-06T09:53:38.000Z</time>
      </trkpt>
      <trkpt lat="45.90959" lon="6.50118">
        <ele>2235</ele>
        <time>2019-02-06T09:53:44.000Z</time>
      </trkpt>
      <trkpt lat="45.90959" lon="6.50117">
        <ele>2235.1999511719</ele>
        <time>2019-02-06T09:53:45.000Z</time>
      </trkpt>
      <trkpt lat="45.90956" lon="6.50117">
        <ele>2236.1999511719</ele>
        <time>2019-02-06T09:53:51.000Z</time>
      </trkpt>
      <trkpt lat="45.90952" lon="6.50118">
        <ele>2236.3999023438</ele>
        <time>2019-02-06T09:53:55.000Z</time>
      </trkpt>
      <trkpt lat="45.90951" lon="6.50117">
        <ele>2237</ele>
        <time>2019-02-06T09:53:57.000Z</time>
      </trkpt>
      <trkpt lat="45.9095" lon="6.50117">
        <ele>2237.3999023438</ele>
        <time>2019-02-06T09:53:59.000Z</time>
      </trkpt>
      <trkpt lat="45.90947" lon="6.50116">
        <ele>2238</ele>
        <time>2019-02-06T09:54:03.000Z</time>
      </trkpt>
      <trkpt lat="45.90945" lon="6.50116">
        <ele>2238.6000976562</ele>
        <time>2019-02-06T09:54:05.000Z</time>
      </trkpt>
      <trkpt lat="45.90941" lon="6.50116">
        <ele>2239.6000976562</ele>
        <time>2019-02-06T09:54:11.000Z</time>
      </trkpt>
      <trkpt lat="45.9094" lon="6.50116">
        <ele>2239.8000488281</ele>
        <time>2019-02-06T09:54:13.000Z</time>
      </trkpt>
      <trkpt lat="45.90936" lon="6.50116">
        <ele>2241</ele>
        <time>2019-02-06T09:54:18.000Z</time>
      </trkpt>
      <trkpt lat="45.90931" lon="6.50115">
        <ele>2242</ele>
        <time>2019-02-06T09:54:25.000Z</time>
      </trkpt>
      <trkpt lat="45.90926" lon="6.50116">
        <ele>2242.8000488281</ele>
        <time>2019-02-06T09:54:31.000Z</time>
      </trkpt>
      <trkpt lat="45.90924" lon="6.50116">
        <ele>2243.1999511719</ele>
        <time>2019-02-06T09:54:34.000Z</time>
      </trkpt>
      <trkpt lat="45.90921" lon="6.50117">
        <ele>2244.1999511719</ele>
        <time>2019-02-06T09:54:38.000Z</time>
      </trkpt>
      <trkpt lat="45.90918" lon="6.50119">
        <ele>2245.1999511719</ele>
        <time>2019-02-06T09:54:44.000Z</time>
      </trkpt>
      <trkpt lat="45.90917" lon="6.50119">
        <ele>2245.3999023438</ele>
        <time>2019-02-06T09:54:45.000Z</time>
      </trkpt>
      <trkpt lat="45.90913" lon="6.50121">
        <ele>2245.6000976562</ele>
        <time>2019-02-06T09:54:50.000Z</time>
      </trkpt>
      <trkpt lat="45.90911" lon="6.50122">
        <ele>2246.3999023438</ele>
        <time>2019-02-06T09:54:53.000Z</time>
      </trkpt>
      <trkpt lat="45.90909" lon="6.50123">
        <ele>2247.3999023438</ele>
        <time>2019-02-06T09:54:57.000Z</time>
      </trkpt>
      <trkpt lat="45.90904" lon="6.50123">
        <ele>2248.1999511719</ele>
        <time>2019-02-06T09:55:03.000Z</time>
      </trkpt>
      <trkpt lat="45.90902" lon="6.50124">
        <ele>2248.3999023438</ele>
        <time>2019-02-06T09:55:05.000Z</time>
      </trkpt>
      <trkpt lat="45.90901" lon="6.50123">
        <ele>2249.1999511719</ele>
        <time>2019-02-06T09:55:09.000Z</time>
      </trkpt>
      <trkpt lat="45.90898" lon="6.50124">
        <ele>2249.6000976562</ele>
        <time>2019-02-06T09:55:12.000Z</time>
      </trkpt>
      <trkpt lat="45.90896" lon="6.50124">
        <ele>2250.1999511719</ele>
        <time>2019-02-06T09:55:16.000Z</time>
      </trkpt>
      <trkpt lat="45.90893" lon="6.50125">
        <ele>2250.8000488281</ele>
        <time>2019-02-06T09:55:20.000Z</time>
      </trkpt>
      <trkpt lat="45.90892" lon="6.50126">
        <ele>2251.1999511719</ele>
        <time>2019-02-06T09:55:22.000Z</time>
      </trkpt>
      <trkpt lat="45.9089" lon="6.50128">
        <ele>2252</ele>
        <time>2019-02-06T09:55:26.000Z</time>
      </trkpt>
      <trkpt lat="45.90889" lon="6.50129">
        <ele>2252.1999511719</ele>
        <time>2019-02-06T09:55:27.000Z</time>
      </trkpt>
      <trkpt lat="45.90884" lon="6.50131">
        <ele>2252.8000488281</ele>
        <time>2019-02-06T09:55:33.000Z</time>
      </trkpt>
      <trkpt lat="45.90882" lon="6.50133">
        <ele>2253</ele>
        <time>2019-02-06T09:55:36.000Z</time>
      </trkpt>
      <trkpt lat="45.90881" lon="6.50134">
        <ele>2253.3999023438</ele>
        <time>2019-02-06T09:55:39.000Z</time>
      </trkpt>
      <trkpt lat="45.9088" lon="6.50135">
        <ele>2254</ele>
        <time>2019-02-06T09:55:41.000Z</time>
      </trkpt>
      <trkpt lat="45.90879" lon="6.50135">
        <ele>2255</ele>
        <time>2019-02-06T09:55:45.000Z</time>
      </trkpt>
      <trkpt lat="45.90879" lon="6.50135">
        <ele>2255</ele>
        <time>2019-02-06T09:55:55.000Z</time>
      </trkpt>
      <trkpt lat="45.90879" lon="6.50135">
        <ele>2254.8000488281</ele>
        <time>2019-02-06T09:56:10.000Z</time>
      </trkpt>
      <trkpt lat="45.90879" lon="6.50135">
        <ele>2254.6000976562</ele>
        <time>2019-02-06T09:56:25.000Z</time>
      </trkpt>
      <trkpt lat="45.90879" lon="6.50135">
        <ele>2255.1999511719</ele>
        <time>2019-02-06T09:56:37.000Z</time>
      </trkpt>
      <trkpt lat="45.90879" lon="6.50135">
        <ele>2255.8000488281</ele>
        <time>2019-02-06T09:56:39.000Z</time>
      </trkpt>
      <trkpt lat="45.90879" lon="6.50135">
        <ele>2254.8000488281</ele>
        <time>2019-02-06T09:56:52.000Z</time>
      </trkpt>
      <trkpt lat="45.90879" lon="6.50135">
        <ele>2254.1999511719</ele>
        <time>2019-02-06T09:57:01.000Z</time>
      </trkpt>
      <trkpt lat="45.90879" lon="6.50135">
        <ele>2254</ele>
        <time>2019-02-06T09:57:02.000Z</time>
      </trkpt>
      <trkpt lat="45.90879" lon="6.50135">
        <ele>2255.1999511719</ele>
        <time>2019-02-06T09:57:07.000Z</time>
      </trkpt>
      <trkpt lat="45.90879" lon="6.50135">
        <ele>2254</ele>
        <time>2019-02-06T09:57:13.000Z</time>
      </trkpt>
      <trkpt lat="45.90879" lon="6.50135">
        <ele>2255.3999023438</ele>
        <time>2019-02-06T09:57:17.000Z</time>
      </trkpt>
      <trkpt lat="45.90879" lon="6.50135">
        <ele>2255</ele>
        <time>2019-02-06T09:57:22.000Z</time>
      </trkpt>
      <trkpt lat="45.90879" lon="6.50135">
        <ele>2254.3999023438</ele>
        <time>2019-02-06T09:57:32.000Z</time>
      </trkpt>
      <trkpt lat="45.90879" lon="6.50135">
        <ele>2254.3999023438</ele>
        <time>2019-02-06T09:57:33.000Z</time>
      </trkpt>
      <trkpt lat="45.90879" lon="6.50135">
        <ele>2254.3999023438</ele>
        <time>2019-02-06T09:57:41.000Z</time>
      </trkpt>
      <trkpt lat="45.90879" lon="6.50135">
        <ele>2254.3999023438</ele>
        <time>2019-02-06T09:57:53.000Z</time>
      </trkpt>
      <trkpt lat="45.90879" lon="6.50135">
        <ele>2254.1999511719</ele>
        <time>2019-02-06T09:58:10.000Z</time>
      </trkpt>
      <trkpt lat="45.90879" lon="6.50135">
        <ele>2254.6000976562</ele>
        <time>2019-02-06T09:58:19.000Z</time>
      </trkpt>
      <trkpt lat="45.90878" lon="6.50135">
        <ele>2254.3999023438</ele>
        <time>2019-02-06T09:58:21.000Z</time>
      </trkpt>
      <trkpt lat="45.90878" lon="6.50135">
        <ele>2254.1999511719</ele>
        <time>2019-02-06T09:58:32.000Z</time>
      </trkpt>
      <trkpt lat="45.90878" lon="6.50135">
        <ele>2255.1999511719</ele>
        <time>2019-02-06T09:58:39.000Z</time>
      </trkpt>
      <trkpt lat="45.90878" lon="6.50135">
        <ele>2254.1999511719</ele>
        <time>2019-02-06T09:58:48.000Z</time>
      </trkpt>
      <trkpt lat="45.90878" lon="6.50136">
        <ele>2254.3999023438</ele>
        <time>2019-02-06T09:58:53.000Z</time>
      </trkpt>
      <trkpt lat="45.90878" lon="6.50136">
        <ele>2254.6000976562</ele>
        <time>2019-02-06T09:59:06.000Z</time>
      </trkpt>
      <trkpt lat="45.90878" lon="6.50136">
        <ele>2254.6000976562</ele>
        <time>2019-02-06T09:59:19.000Z</time>
      </trkpt>
      <trkpt lat="45.90878" lon="6.50136">
        <ele>2254.6000976562</ele>
        <time>2019-02-06T09:59:31.000Z</time>
      </trkpt>
      <trkpt lat="45.90878" lon="6.50136">
        <ele>2254.3999023438</ele>
        <time>2019-02-06T09:59:42.000Z</time>
      </trkpt>
      <trkpt lat="45.90878" lon="6.50136">
        <ele>2254.6000976562</ele>
        <time>2019-02-06T09:59:48.000Z</time>
      </trkpt>
      <trkpt lat="45.90878" lon="6.50136">
        <ele>2255</ele>
        <time>2019-02-06T09:59:57.000Z</time>
      </trkpt>
      <trkpt lat="45.90878" lon="6.50136">
        <ele>2254.6000976562</ele>
        <time>2019-02-06T10:00:10.000Z</time>
      </trkpt>
      <trkpt lat="45.90878" lon="6.50135">
        <ele>2254.6000976562</ele>
        <time>2019-02-06T10:00:23.000Z</time>
      </trkpt>
      <trkpt lat="45.90878" lon="6.50135">
        <ele>2254.6000976562</ele>
        <time>2019-02-06T10:00:38.000Z</time>
      </trkpt>
      <trkpt lat="45.90878" lon="6.50135">
        <ele>2254.6000976562</ele>
        <time>2019-02-06T10:00:53.000Z</time>
      </trkpt>
      <trkpt lat="45.90878" lon="6.50135">
        <ele>2254.6000976562</ele>
        <time>2019-02-06T10:01:04.000Z</time>
      </trkpt>
      <trkpt lat="45.90878" lon="6.50135">
        <ele>2254.6000976562</ele>
        <time>2019-02-06T10:01:23.000Z</time>
      </trkpt>
      <trkpt lat="45.90878" lon="6.50135">
        <ele>2254.6000976562</ele>
        <time>2019-02-06T10:01:38.000Z</time>
      </trkpt>
      <trkpt lat="45.90878" lon="6.50135">
        <ele>2254.3999023438</ele>
        <time>2019-02-06T10:01:48.000Z</time>
      </trkpt>
      <trkpt lat="45.90878" lon="6.50135">
        <ele>2254.8000488281</ele>
        <time>2019-02-06T10:02:01.000Z</time>
      </trkpt>
      <trkpt lat="45.90878" lon="6.50135">
        <ele>2254.6000976562</ele>
        <time>2019-02-06T10:02:16.000Z</time>
      </trkpt>
      <trkpt lat="45.90878" lon="6.50134">
        <ele>2254.6000976562</ele>
        <time>2019-02-06T10:02:31.000Z</time>
      </trkpt>
      <trkpt lat="45.90878" lon="6.50134">
        <ele>2254.6000976562</ele>
        <time>2019-02-06T10:02:43.000Z</time>
      </trkpt>
      <trkpt lat="45.90878" lon="6.50134">
        <ele>2254.6000976562</ele>
        <time>2019-02-06T10:02:53.000Z</time>
      </trkpt>
      <trkpt lat="45.90878" lon="6.50135">
        <ele>2254.6000976562</ele>
        <time>2019-02-06T10:03:12.000Z</time>
      </trkpt>
      <trkpt lat="45.90878" lon="6.50135">
        <ele>2254.6000976562</ele>
        <time>2019-02-06T10:03:29.000Z</time>
      </trkpt>
      <trkpt lat="45.90878" lon="6.50135">
        <ele>2254.6000976562</ele>
        <time>2019-02-06T10:03:30.000Z</time>
      </trkpt>
      <trkpt lat="45.90878" lon="6.50135">
        <ele>2254.6000976562</ele>
        <time>2019-02-06T10:03:46.000Z</time>
      </trkpt>
      <trkpt lat="45.90878" lon="6.50135">
        <ele>2254.6000976562</ele>
        <time>2019-02-06T10:04:02.000Z</time>
      </trkpt>
      <trkpt lat="45.90878" lon="6.50135">
        <ele>2254.6000976562</ele>
        <time>2019-02-06T10:04:19.000Z</time>
      </trkpt>
      <trkpt lat="45.90878" lon="6.50135">
        <ele>2255</ele>
        <time>2019-02-06T10:04:27.000Z</time>
      </trkpt>
      <trkpt lat="45.90878" lon="6.50135">
        <ele>2255</ele>
        <time>2019-02-06T10:04:38.000Z</time>
      </trkpt>
      <trkpt lat="45.90878" lon="6.50135">
        <ele>2254.8000488281</ele>
        <time>2019-02-06T10:04:49.000Z</time>
      </trkpt>
      <trkpt lat="45.90878" lon="6.50135">
        <ele>2254.8000488281</ele>
        <time>2019-02-06T10:04:56.000Z</time>
      </trkpt>
      <trkpt lat="45.90878" lon="6.50135">
        <ele>2255</ele>
        <time>2019-02-06T10:05:06.000Z</time>
      </trkpt>
      <trkpt lat="45.90878" lon="6.50135">
        <ele>2255</ele>
        <time>2019-02-06T10:05:19.000Z</time>
      </trkpt>
      <trkpt lat="45.90878" lon="6.50135">
        <ele>2254.8000488281</ele>
        <time>2019-02-06T10:05:34.000Z</time>
      </trkpt>
      <trkpt lat="45.90878" lon="6.50135">
        <ele>2254</ele>
        <time>2019-02-06T10:05:45.000Z</time>
      </trkpt>
      <trkpt lat="45.90878" lon="6.50135">
        <ele>2255.6000976562</ele>
        <time>2019-02-06T10:05:50.000Z</time>
      </trkpt>
      <trkpt lat="45.90878" lon="6.50135">
        <ele>2255</ele>
        <time>2019-02-06T10:05:56.000Z</time>
      </trkpt>
      <trkpt lat="45.90878" lon="6.50135">
        <ele>2254.8000488281</ele>
        <time>2019-02-06T10:06:06.000Z</time>
      </trkpt>
      <trkpt lat="45.90878" lon="6.50135">
        <ele>2254.6000976562</ele>
        <time>2019-02-06T10:06:23.000Z</time>
      </trkpt>
      <trkpt lat="45.90879" lon="6.50136">
        <ele>2254.8000488281</ele>
        <time>2019-02-06T10:06:35.000Z</time>
      </trkpt>
      <trkpt lat="45.90879" lon="6.50136">
        <ele>2254.8000488281</ele>
        <time>2019-02-06T10:06:42.000Z</time>
      </trkpt>
      <trkpt lat="45.90879" lon="6.50136">
        <ele>2254.8000488281</ele>
        <time>2019-02-06T10:07:05.000Z</time>
      </trkpt>
      <trkpt lat="45.90879" lon="6.50136">
        <ele>2254.8000488281</ele>
        <time>2019-02-06T10:07:19.000Z</time>
      </trkpt>
      <trkpt lat="45.90879" lon="6.50136">
        <ele>2254.6000976562</ele>
        <time>2019-02-06T10:07:26.000Z</time>
      </trkpt>
      <trkpt lat="45.90879" lon="6.50136">
        <ele>2254.6000976562</ele>
        <time>2019-02-06T10:07:39.000Z</time>
      </trkpt>
      <trkpt lat="45.90879" lon="6.50136">
        <ele>2254.6000976562</ele>
        <time>2019-02-06T10:07:53.000Z</time>
      </trkpt>
      <trkpt lat="45.90879" lon="6.50136">
        <ele>2254.8000488281</ele>
        <time>2019-02-06T10:08:06.000Z</time>
      </trkpt>
      <trkpt lat="45.90879" lon="6.50136">
        <ele>2254.8000488281</ele>
        <time>2019-02-06T10:08:16.000Z</time>
      </trkpt>
      <trkpt lat="45.90879" lon="6.50136">
        <ele>2254.8000488281</ele>
        <time>2019-02-06T10:08:27.000Z</time>
      </trkpt>
      <trkpt lat="45.90879" lon="6.50136">
        <ele>2254.6000976562</ele>
        <time>2019-02-06T10:08:34.000Z</time>
      </trkpt>
      <trkpt lat="45.90879" lon="6.50136">
        <ele>2254.3999023438</ele>
        <time>2019-02-06T10:08:40.000Z</time>
      </trkpt>
      <trkpt lat="45.90879" lon="6.50136">
        <ele>2254.1999511719</ele>
        <time>2019-02-06T10:08:43.000Z</time>
      </trkpt>
      <trkpt lat="45.90879" lon="6.50136">
        <ele>2255.1999511719</ele>
        <time>2019-02-06T10:08:48.000Z</time>
      </trkpt>
      <trkpt lat="45.90879" lon="6.50136">
        <ele>2254.8000488281</ele>
        <time>2019-02-06T10:08:54.000Z</time>
      </trkpt>
      <trkpt lat="45.90879" lon="6.50136">
        <ele>2254.8000488281</ele>
        <time>2019-02-06T10:09:13.000Z</time>
      </trkpt>
      <trkpt lat="45.90879" lon="6.50136">
        <ele>2254.8000488281</ele>
        <time>2019-02-06T10:09:24.000Z</time>
      </trkpt>
      <trkpt lat="45.90879" lon="6.50136">
        <ele>2254.6000976562</ele>
        <time>2019-02-06T10:09:41.000Z</time>
      </trkpt>
      <trkpt lat="45.90879" lon="6.50136">
        <ele>2254.6000976562</ele>
        <time>2019-02-06T10:09:58.000Z</time>
      </trkpt>
      <trkpt lat="45.90879" lon="6.50137">
        <ele>2254.6000976562</ele>
        <time>2019-02-06T10:10:14.000Z</time>
      </trkpt>
      <trkpt lat="45.90879" lon="6.50137">
        <ele>2254.6000976562</ele>
        <time>2019-02-06T10:10:30.000Z</time>
      </trkpt>
      <trkpt lat="45.90879" lon="6.50137">
        <ele>2254.6000976562</ele>
        <time>2019-02-06T10:10:46.000Z</time>
      </trkpt>
      <trkpt lat="45.90879" lon="6.50137">
        <ele>2254.6000976562</ele>
        <time>2019-02-06T10:10:54.000Z</time>
      </trkpt>
      <trkpt lat="45.90879" lon="6.50137">
        <ele>2254.6000976562</ele>
        <time>2019-02-06T10:10:56.000Z</time>
      </trkpt>
      <trkpt lat="45.90879" lon="6.50137">
        <ele>2254.3999023438</ele>
        <time>2019-02-06T10:11:14.000Z</time>
      </trkpt>
      <trkpt lat="45.90879" lon="6.50137">
        <ele>2254.3999023438</ele>
        <time>2019-02-06T10:11:30.000Z</time>
      </trkpt>
      <trkpt lat="45.90879" lon="6.50137">
        <ele>2254.6000976562</ele>
        <time>2019-02-06T10:11:41.000Z</time>
      </trkpt>
      <trkpt lat="45.90879" lon="6.50137">
        <ele>2254.6000976562</ele>
        <time>2019-02-06T10:11:55.000Z</time>
      </trkpt>
      <trkpt lat="45.90879" lon="6.50137">
        <ele>2254.6000976562</ele>
        <time>2019-02-06T10:12:10.000Z</time>
      </trkpt>
      <trkpt lat="45.90879" lon="6.50137">
        <ele>2254.3999023438</ele>
        <time>2019-02-06T10:12:30.000Z</time>
      </trkpt>
      <trkpt lat="45.90879" lon="6.50138">
        <ele>2254.6000976562</ele>
        <time>2019-02-06T10:12:38.000Z</time>
      </trkpt>
      <trkpt lat="45.90877" lon="6.50144">
        <ele>2255.3999023438</ele>
        <time>2019-02-06T10:12:45.000Z</time>
      </trkpt>
      <trkpt lat="45.90877" lon="6.50145">
        <ele>2255.6000976562</ele>
        <time>2019-02-06T10:12:46.000Z</time>
      </trkpt>
      <trkpt lat="45.90876" lon="6.50152">
        <ele>2256.6000976562</ele>
        <time>2019-02-06T10:12:52.000Z</time>
      </trkpt>
      <trkpt lat="45.90874" lon="6.50156">
        <ele>2257.8000488281</ele>
        <time>2019-02-06T10:12:56.000Z</time>
      </trkpt>
      <trkpt lat="45.90873" lon="6.50157">
        <ele>2258</ele>
        <time>2019-02-06T10:12:58.000Z</time>
      </trkpt>
      <trkpt lat="45.9087" lon="6.50161">
        <ele>2258.8000488281</ele>
        <time>2019-02-06T10:13:03.000Z</time>
      </trkpt>
      <trkpt lat="45.90867" lon="6.50164">
        <ele>2260</ele>
        <time>2019-02-06T10:13:08.000Z</time>
      </trkpt>
      <trkpt lat="45.90867" lon="6.50163">
        <ele>2260.1999511719</ele>
        <time>2019-02-06T10:13:09.000Z</time>
      </trkpt>
      <trkpt lat="45.90865" lon="6.50167">
        <ele>2260.8000488281</ele>
        <time>2019-02-06T10:13:14.000Z</time>
      </trkpt>
      <trkpt lat="45.90865" lon="6.50168">
        <ele>2261</ele>
        <time>2019-02-06T10:13:15.000Z</time>
      </trkpt>
      <trkpt lat="45.90862" lon="6.50175">
        <ele>2261.8000488281</ele>
        <time>2019-02-06T10:13:21.000Z</time>
      </trkpt>
      <trkpt lat="45.90862" lon="6.50176">
        <ele>2262.1999511719</ele>
        <time>2019-02-06T10:13:23.000Z</time>
      </trkpt>
      <trkpt lat="45.90859" lon="6.50181">
        <ele>2262.8000488281</ele>
        <time>2019-02-06T10:13:27.000Z</time>
      </trkpt>
      <trkpt lat="45.90857" lon="6.50186">
        <ele>2263.1999511719</ele>
        <time>2019-02-06T10:13:32.000Z</time>
      </trkpt>
      <trkpt lat="45.90854" lon="6.50191">
        <ele>2263.8000488281</ele>
        <time>2019-02-06T10:13:38.000Z</time>
      </trkpt>
      <trkpt lat="45.90854" lon="6.50191">
        <ele>2264</ele>
        <time>2019-02-06T10:13:39.000Z</time>
      </trkpt>
      <trkpt lat="45.90854" lon="6.50192">
        <ele>2264.3999023438</ele>
        <time>2019-02-06T10:13:41.000Z</time>
      </trkpt>
      <trkpt lat="45.90853" lon="6.50195">
        <ele>2265.1999511719</ele>
        <time>2019-02-06T10:13:44.000Z</time>
      </trkpt>
      <trkpt lat="45.90852" lon="6.50196">
        <ele>2265.3999023438</ele>
        <time>2019-02-06T10:13:45.000Z</time>
      </trkpt>
      <trkpt lat="45.90852" lon="6.50198">
        <ele>2266.1999511719</ele>
        <time>2019-02-06T10:13:49.000Z</time>
      </trkpt>
      <trkpt lat="45.90852" lon="6.50197">
        <ele>2266.3999023438</ele>
        <time>2019-02-06T10:13:50.000Z</time>
      </trkpt>
      <trkpt lat="45.9085" lon="6.502">
        <ele>2267</ele>
        <time>2019-02-06T10:13:54.000Z</time>
      </trkpt>
      <trkpt lat="45.90849" lon="6.50202">
        <ele>2267.3999023438</ele>
        <time>2019-02-06T10:13:57.000Z</time>
      </trkpt>
      <trkpt lat="45.90848" lon="6.50205">
        <ele>2268.3999023438</ele>
        <time>2019-02-06T10:14:01.000Z</time>
      </trkpt>
      <trkpt lat="45.90847" lon="6.50207">
        <ele>2269.3999023438</ele>
        <time>2019-02-06T10:14:05.000Z</time>
      </trkpt>
      <trkpt lat="45.90846" lon="6.50207">
        <ele>2269.8000488281</ele>
        <time>2019-02-06T10:14:06.000Z</time>
      </trkpt>
      <trkpt lat="45.90844" lon="6.50211">
        <ele>2270.6000976562</ele>
        <time>2019-02-06T10:14:11.000Z</time>
      </trkpt>
      <trkpt lat="45.90843" lon="6.50212">
        <ele>2270.8000488281</ele>
        <time>2019-02-06T10:14:13.000Z</time>
      </trkpt>
      <trkpt lat="45.90842" lon="6.50215">
        <ele>2271.1999511719</ele>
        <time>2019-02-06T10:14:15.000Z</time>
      </trkpt>
      <trkpt lat="45.90842" lon="6.50216">
        <ele>2272</ele>
        <time>2019-02-06T10:14:19.000Z</time>
      </trkpt>
      <trkpt lat="45.90841" lon="6.50216">
        <ele>2272.1999511719</ele>
        <time>2019-02-06T10:14:20.000Z</time>
      </trkpt>
      <trkpt lat="45.90839" lon="6.5022">
        <ele>2273.1999511719</ele>
        <time>2019-02-06T10:14:25.000Z</time>
      </trkpt>
      <trkpt lat="45.90839" lon="6.50221">
        <ele>2273.3999023438</ele>
        <time>2019-02-06T10:14:26.000Z</time>
      </trkpt>
      <trkpt lat="45.90836" lon="6.50224">
        <ele>2274.1999511719</ele>
        <time>2019-02-06T10:14:31.000Z</time>
      </trkpt>
      <trkpt lat="45.90836" lon="6.50225">
        <ele>2274.1999511719</ele>
        <time>2019-02-06T10:14:32.000Z</time>
      </trkpt>
      <trkpt lat="45.90834" lon="6.50227">
        <ele>2274.8000488281</ele>
        <time>2019-02-06T10:14:36.000Z</time>
      </trkpt>
      <trkpt lat="45.90833" lon="6.50228">
        <ele>2275.3999023438</ele>
        <time>2019-02-06T10:14:39.000Z</time>
      </trkpt>
      <trkpt lat="45.90831" lon="6.50232">
        <ele>2276.1999511719</ele>
        <time>2019-02-06T10:14:43.000Z</time>
      </trkpt>
      <trkpt lat="45.9083" lon="6.50233">
        <ele>2276.6000976562</ele>
        <time>2019-02-06T10:14:45.000Z</time>
      </trkpt>
      <trkpt lat="45.90829" lon="6.50234">
        <ele>2277</ele>
        <time>2019-02-06T10:14:48.000Z</time>
      </trkpt>
      <trkpt lat="45.90826" lon="6.50237">
        <ele>2277.3999023438</ele>
        <time>2019-02-06T10:14:53.000Z</time>
      </trkpt>
      <trkpt lat="45.90825" lon="6.50238">
        <ele>2277.6000976562</ele>
        <time>2019-02-06T10:14:54.000Z</time>
      </trkpt>
      <trkpt lat="45.90823" lon="6.50241">
        <ele>2278.3999023438</ele>
        <time>2019-02-06T10:14:59.000Z</time>
      </trkpt>
      <trkpt lat="45.90823" lon="6.50242">
        <ele>2278.8000488281</ele>
        <time>2019-02-06T10:15:01.000Z</time>
      </trkpt>
      <trkpt lat="45.90823" lon="6.50242">
        <ele>2279.1999511719</ele>
        <time>2019-02-06T10:15:05.000Z</time>
      </trkpt>
      <trkpt lat="45.90827" lon="6.50243">
        <ele>2279.8000488281</ele>
        <time>2019-02-06T10:15:10.000Z</time>
      </trkpt>
      <trkpt lat="45.90829" lon="6.50243">
        <ele>2280.1999511719</ele>
        <time>2019-02-06T10:15:11.000Z</time>
      </trkpt>
      <trkpt lat="45.90832" lon="6.50243">
        <ele>2280.8000488281</ele>
        <time>2019-02-06T10:15:16.000Z</time>
      </trkpt>
      <trkpt lat="45.90832" lon="6.50243">
        <ele>2281</ele>
        <time>2019-02-06T10:15:17.000Z</time>
      </trkpt>
      <trkpt lat="45.90835" lon="6.50243">
        <ele>2281.8000488281</ele>
        <time>2019-02-06T10:15:22.000Z</time>
      </trkpt>
      <trkpt lat="45.90836" lon="6.50244">
        <ele>2282.1999511719</ele>
        <time>2019-02-06T10:15:26.000Z</time>
      </trkpt>
      <trkpt lat="45.90836" lon="6.50244">
        <ele>2282.3999023438</ele>
        <time>2019-02-06T10:15:30.000Z</time>
      </trkpt>
      <trkpt lat="45.90835" lon="6.50245">
        <ele>2283.1999511719</ele>
        <time>2019-02-06T10:15:33.000Z</time>
      </trkpt>
      <trkpt lat="45.90834" lon="6.50247">
        <ele>2283.8000488281</ele>
        <time>2019-02-06T10:15:36.000Z</time>
      </trkpt>
      <trkpt lat="45.90834" lon="6.50249">
        <ele>2284.3999023438</ele>
        <time>2019-02-06T10:15:41.000Z</time>
      </trkpt>
      <trkpt lat="45.90833" lon="6.50251">
        <ele>2284.8000488281</ele>
        <time>2019-02-06T10:15:42.000Z</time>
      </trkpt>
      <trkpt lat="45.90832" lon="6.50251">
        <ele>2285.3999023438</ele>
        <time>2019-02-06T10:15:45.000Z</time>
      </trkpt>
      <trkpt lat="45.90832" lon="6.50253">
        <ele>2285.8000488281</ele>
        <time>2019-02-06T10:15:47.000Z</time>
      </trkpt>
      <trkpt lat="45.9083" lon="6.50255">
        <ele>2286.6000976562</ele>
        <time>2019-02-06T10:15:52.000Z</time>
      </trkpt>
      <trkpt lat="45.9083" lon="6.50255">
        <ele>2286.6000976562</ele>
        <time>2019-02-06T10:15:53.000Z</time>
      </trkpt>
      <trkpt lat="45.90828" lon="6.50258">
        <ele>2287.6000976562</ele>
        <time>2019-02-06T10:16:00.000Z</time>
      </trkpt>
      <trkpt lat="45.90827" lon="6.5026">
        <ele>2288.8000488281</ele>
        <time>2019-02-06T10:16:05.000Z</time>
      </trkpt>
      <trkpt lat="45.90824" lon="6.50262">
        <ele>2289.6000976562</ele>
        <time>2019-02-06T10:16:08.000Z</time>
      </trkpt>
      <trkpt lat="45.90824" lon="6.50263">
        <ele>2289.8000488281</ele>
        <time>2019-02-06T10:16:09.000Z</time>
      </trkpt>
      <trkpt lat="45.90821" lon="6.50266">
        <ele>2290.8000488281</ele>
        <time>2019-02-06T10:16:15.000Z</time>
      </trkpt>
      <trkpt lat="45.90819" lon="6.50268">
        <ele>2291.1999511719</ele>
        <time>2019-02-06T10:16:17.000Z</time>
      </trkpt>
      <trkpt lat="45.90819" lon="6.50268">
        <ele>2292</ele>
        <time>2019-02-06T10:16:21.000Z</time>
      </trkpt>
      <trkpt lat="45.9082" lon="6.50268">
        <ele>2292</ele>
        <time>2019-02-06T10:16:23.000Z</time>
      </trkpt>
      <trkpt lat="45.90823" lon="6.50269">
        <ele>2292.6000976562</ele>
        <time>2019-02-06T10:16:32.000Z</time>
      </trkpt>
      <trkpt lat="45.90826" lon="6.5027">
        <ele>2292.8000488281</ele>
        <time>2019-02-06T10:16:34.000Z</time>
      </trkpt>
      <trkpt lat="45.90826" lon="6.5027">
        <ele>2293</ele>
        <time>2019-02-06T10:16:35.000Z</time>
      </trkpt>
      <trkpt lat="45.90827" lon="6.5027">
        <ele>2293.1999511719</ele>
        <time>2019-02-06T10:16:37.000Z</time>
      </trkpt>
      <trkpt lat="45.9083" lon="6.50271">
        <ele>2294</ele>
        <time>2019-02-06T10:16:43.000Z</time>
      </trkpt>
      <trkpt lat="45.90831" lon="6.50272">
        <ele>2294.1999511719</ele>
        <time>2019-02-06T10:16:44.000Z</time>
      </trkpt>
      <trkpt lat="45.90836" lon="6.50272">
        <ele>2294.8000488281</ele>
        <time>2019-02-06T10:16:50.000Z</time>
      </trkpt>
      <trkpt lat="45.90838" lon="6.50273">
        <ele>2295.1999511719</ele>
        <time>2019-02-06T10:16:53.000Z</time>
      </trkpt>
      <trkpt lat="45.90838" lon="6.50273">
        <ele>2295.8000488281</ele>
        <time>2019-02-06T10:16:56.000Z</time>
      </trkpt>
      <trkpt lat="45.90838" lon="6.50272">
        <ele>2296.3999023438</ele>
        <time>2019-02-06T10:17:03.000Z</time>
      </trkpt>
      <trkpt lat="45.90836" lon="6.50276">
        <ele>2297.6000976562</ele>
        <time>2019-02-06T10:17:07.000Z</time>
      </trkpt>
      <trkpt lat="45.90836" lon="6.50276">
        <ele>2297.6000976562</ele>
        <time>2019-02-06T10:17:08.000Z</time>
      </trkpt>
      <trkpt lat="45.90834" lon="6.50279">
        <ele>2298</ele>
        <time>2019-02-06T10:17:13.000Z</time>
      </trkpt>
      <trkpt lat="45.90831" lon="6.50281">
        <ele>2298.8000488281</ele>
        <time>2019-02-06T10:17:18.000Z</time>
      </trkpt>
      <trkpt lat="45.90827" lon="6.50285">
        <ele>2299.6000976562</ele>
        <time>2019-02-06T10:17:24.000Z</time>
      </trkpt>
      <trkpt lat="45.90827" lon="6.50285">
        <ele>2299.8000488281</ele>
        <time>2019-02-06T10:17:25.000Z</time>
      </trkpt>
      <trkpt lat="45.90825" lon="6.50287">
        <ele>2300.6000976562</ele>
        <time>2019-02-06T10:17:29.000Z</time>
      </trkpt>
      <trkpt lat="45.90824" lon="6.50288">
        <ele>2300.8000488281</ele>
        <time>2019-02-06T10:17:31.000Z</time>
      </trkpt>
      <trkpt lat="45.90823" lon="6.50289">
        <ele>2301.6000976562</ele>
        <time>2019-02-06T10:17:35.000Z</time>
      </trkpt>
      <trkpt lat="45.90823" lon="6.50289">
        <ele>2302</ele>
        <time>2019-02-06T10:17:37.000Z</time>
      </trkpt>
      <trkpt lat="45.90823" lon="6.50289">
        <ele>2302.3999023438</ele>
        <time>2019-02-06T10:17:40.000Z</time>
      </trkpt>
      <trkpt lat="45.90825" lon="6.50291">
        <ele>2302.6000976562</ele>
        <time>2019-02-06T10:17:47.000Z</time>
      </trkpt>
      <trkpt lat="45.90826" lon="6.50291">
        <ele>2303</ele>
        <time>2019-02-06T10:17:49.000Z</time>
      </trkpt>
      <trkpt lat="45.90829" lon="6.50292">
        <ele>2304</ele>
        <time>2019-02-06T10:17:54.000Z</time>
      </trkpt>
      <trkpt lat="45.90831" lon="6.50294">
        <ele>2304.6000976562</ele>
        <time>2019-02-06T10:18:00.000Z</time>
      </trkpt>
      <trkpt lat="45.90834" lon="6.50293">
        <ele>2305</ele>
        <time>2019-02-06T10:18:03.000Z</time>
      </trkpt>
      <trkpt lat="45.90836" lon="6.50293">
        <ele>2305.6000976562</ele>
        <time>2019-02-06T10:18:06.000Z</time>
      </trkpt>
      <trkpt lat="45.90837" lon="6.50293">
        <ele>2306</ele>
        <time>2019-02-06T10:18:10.000Z</time>
      </trkpt>
      <trkpt lat="45.90836" lon="6.50293">
        <ele>2306.1999511719</ele>
        <time>2019-02-06T10:18:11.000Z</time>
      </trkpt>
      <trkpt lat="45.90835" lon="6.50294">
        <ele>2306.6000976562</ele>
        <time>2019-02-06T10:18:17.000Z</time>
      </trkpt>
      <trkpt lat="45.90833" lon="6.50296">
        <ele>2307.1999511719</ele>
        <time>2019-02-06T10:18:21.000Z</time>
      </trkpt>
      <trkpt lat="45.90832" lon="6.50298">
        <ele>2307.3999023438</ele>
        <time>2019-02-06T10:18:23.000Z</time>
      </trkpt>
      <trkpt lat="45.9083" lon="6.50299">
        <ele>2307.6000976562</ele>
        <time>2019-02-06T10:18:27.000Z</time>
      </trkpt>
      <trkpt lat="45.90829" lon="6.50301">
        <ele>2308.3999023438</ele>
        <time>2019-02-06T10:18:30.000Z</time>
      </trkpt>
      <trkpt lat="45.90826" lon="6.50303">
        <ele>2308.8000488281</ele>
        <time>2019-02-06T10:18:34.000Z</time>
      </trkpt>
      <trkpt lat="45.90824" lon="6.50305">
        <ele>2309.3999023438</ele>
        <time>2019-02-06T10:18:37.000Z</time>
      </trkpt>
      <trkpt lat="45.90823" lon="6.50306">
        <ele>2309.6000976562</ele>
        <time>2019-02-06T10:18:39.000Z</time>
      </trkpt>
      <trkpt lat="45.9082" lon="6.50309">
        <ele>2310.3999023438</ele>
        <time>2019-02-06T10:18:44.000Z</time>
      </trkpt>
      <trkpt lat="45.9082" lon="6.5031">
        <ele>2310.6000976562</ele>
        <time>2019-02-06T10:18:45.000Z</time>
      </trkpt>
      <trkpt lat="45.90818" lon="6.50312">
        <ele>2311.3999023438</ele>
        <time>2019-02-06T10:18:50.000Z</time>
      </trkpt>
      <trkpt lat="45.90817" lon="6.50313">
        <ele>2311.6000976562</ele>
        <time>2019-02-06T10:18:51.000Z</time>
      </trkpt>
      <trkpt lat="45.90814" lon="6.50315">
        <ele>2312.3999023438</ele>
        <time>2019-02-06T10:18:56.000Z</time>
      </trkpt>
      <trkpt lat="45.90814" lon="6.50315">
        <ele>2312.6000976562</ele>
        <time>2019-02-06T10:18:57.000Z</time>
      </trkpt>
      <trkpt lat="45.90816" lon="6.50315">
        <ele>2313.3999023438</ele>
        <time>2019-02-06T10:19:04.000Z</time>
      </trkpt>
      <trkpt lat="45.90817" lon="6.50316">
        <ele>2313.6000976562</ele>
        <time>2019-02-06T10:19:06.000Z</time>
      </trkpt>
      <trkpt lat="45.90819" lon="6.50317">
        <ele>2314.1999511719</ele>
        <time>2019-02-06T10:19:09.000Z</time>
      </trkpt>
      <trkpt lat="45.90821" lon="6.50318">
        <ele>2314.6000976562</ele>
        <time>2019-02-06T10:19:11.000Z</time>
      </trkpt>
      <trkpt lat="45.90823" lon="6.50319">
        <ele>2315</ele>
        <time>2019-02-06T10:19:14.000Z</time>
      </trkpt>
      <trkpt lat="45.90827" lon="6.50319">
        <ele>2315.8000488281</ele>
        <time>2019-02-06T10:19:19.000Z</time>
      </trkpt>
      <trkpt lat="45.90829" lon="6.50319">
        <ele>2316.3999023438</ele>
        <time>2019-02-06T10:19:23.000Z</time>
      </trkpt>
      <trkpt lat="45.9083" lon="6.50319">
        <ele>2316.8000488281</ele>
        <time>2019-02-06T10:19:25.000Z</time>
      </trkpt>
      <trkpt lat="45.90833" lon="6.5032">
        <ele>2317.3999023438</ele>
        <time>2019-02-06T10:19:29.000Z</time>
      </trkpt>
      <trkpt lat="45.90836" lon="6.5032">
        <ele>2318</ele>
        <time>2019-02-06T10:19:33.000Z</time>
      </trkpt>
      <trkpt lat="45.90837" lon="6.50319">
        <ele>2318.3999023438</ele>
        <time>2019-02-06T10:19:35.000Z</time>
      </trkpt>
      <trkpt lat="45.90841" lon="6.50318">
        <ele>2319</ele>
        <time>2019-02-06T10:19:39.000Z</time>
      </trkpt>
      <trkpt lat="45.90843" lon="6.50317">
        <ele>2319.6000976562</ele>
        <time>2019-02-06T10:19:42.000Z</time>
      </trkpt>
      <trkpt lat="45.90845" lon="6.50316">
        <ele>2320.1999511719</ele>
        <time>2019-02-06T10:19:45.000Z</time>
      </trkpt>
      <trkpt lat="45.90847" lon="6.50315">
        <ele>2321</ele>
        <time>2019-02-06T10:19:50.000Z</time>
      </trkpt>
      <trkpt lat="45.90849" lon="6.50314">
        <ele>2321.3999023438</ele>
        <time>2019-02-06T10:19:52.000Z</time>
      </trkpt>
      <trkpt lat="45.90851" lon="6.50313">
        <ele>2322</ele>
        <time>2019-02-06T10:19:56.000Z</time>
      </trkpt>
      <trkpt lat="45.90853" lon="6.50312">
        <ele>2322.3999023438</ele>
        <time>2019-02-06T10:20:01.000Z</time>
      </trkpt>
      <trkpt lat="45.90853" lon="6.50312">
        <ele>2322.6000976562</ele>
        <time>2019-02-06T10:20:03.000Z</time>
      </trkpt>
      <trkpt lat="45.90852" lon="6.50314">
        <ele>2323.1999511719</ele>
        <time>2019-02-06T10:20:08.000Z</time>
      </trkpt>
      <trkpt lat="45.90852" lon="6.50315">
        <ele>2323.6000976562</ele>
        <time>2019-02-06T10:20:09.000Z</time>
      </trkpt>
      <trkpt lat="45.9085" lon="6.5032">
        <ele>2324.1999511719</ele>
        <time>2019-02-06T10:20:14.000Z</time>
      </trkpt>
      <trkpt lat="45.90849" lon="6.50323">
        <ele>2324.8000488281</ele>
        <time>2019-02-06T10:20:18.000Z</time>
      </trkpt>
      <trkpt lat="45.90847" lon="6.50328">
        <ele>2325.6000976562</ele>
        <time>2019-02-06T10:20:24.000Z</time>
      </trkpt>
      <trkpt lat="45.90846" lon="6.50329">
        <ele>2325.8000488281</ele>
        <time>2019-02-06T10:20:25.000Z</time>
      </trkpt>
      <trkpt lat="45.90844" lon="6.50332">
        <ele>2326.3999023438</ele>
        <time>2019-02-06T10:20:29.000Z</time>
      </trkpt>
      <trkpt lat="45.90844" lon="6.50334">
        <ele>2326.8000488281</ele>
        <time>2019-02-06T10:20:31.000Z</time>
      </trkpt>
      <trkpt lat="45.90842" lon="6.50337">
        <ele>2327.3999023438</ele>
        <time>2019-02-06T10:20:35.000Z</time>
      </trkpt>
      <trkpt lat="45.90841" lon="6.50339">
        <ele>2327.8000488281</ele>
        <time>2019-02-06T10:20:39.000Z</time>
      </trkpt>
      <trkpt lat="45.90841" lon="6.5034">
        <ele>2328</ele>
        <time>2019-02-06T10:20:40.000Z</time>
      </trkpt>
      <trkpt lat="45.90838" lon="6.50346">
        <ele>2328.8000488281</ele>
        <time>2019-02-06T10:20:46.000Z</time>
      </trkpt>
      <trkpt lat="45.90838" lon="6.50346">
        <ele>2329</ele>
        <time>2019-02-06T10:20:47.000Z</time>
      </trkpt>
      <trkpt lat="45.90835" lon="6.50349">
        <ele>2330</ele>
        <time>2019-02-06T10:20:53.000Z</time>
      </trkpt>
      <trkpt lat="45.90833" lon="6.50352">
        <ele>2330.8000488281</ele>
        <time>2019-02-06T10:20:58.000Z</time>
      </trkpt>
      <trkpt lat="45.90831" lon="6.50354">
        <ele>2331.1999511719</ele>
        <time>2019-02-06T10:21:02.000Z</time>
      </trkpt>
      <trkpt lat="45.90831" lon="6.50355">
        <ele>2331.3999023438</ele>
        <time>2019-02-06T10:21:03.000Z</time>
      </trkpt>
      <trkpt lat="45.90828" lon="6.50359">
        <ele>2332</ele>
        <time>2019-02-06T10:21:09.000Z</time>
      </trkpt>
      <trkpt lat="45.90828" lon="6.50359">
        <ele>2332.1999511719</ele>
        <time>2019-02-06T10:21:10.000Z</time>
      </trkpt>
      <trkpt lat="45.90826" lon="6.50361">
        <ele>2332.6000976562</ele>
        <time>2019-02-06T10:21:14.000Z</time>
      </trkpt>
      <trkpt lat="45.90824" lon="6.50363">
        <ele>2333.3999023438</ele>
        <time>2019-02-06T10:21:18.000Z</time>
      </trkpt>
      <trkpt lat="45.90821" lon="6.50366">
        <ele>2334.1999511719</ele>
        <time>2019-02-06T10:21:24.000Z</time>
      </trkpt>
      <trkpt lat="45.90819" lon="6.50367">
        <ele>2334.3999023438</ele>
        <time>2019-02-06T10:21:26.000Z</time>
      </trkpt>
      <trkpt lat="45.90817" lon="6.50369">
        <ele>2334.6000976562</ele>
        <time>2019-02-06T10:21:29.000Z</time>
      </trkpt>
      <trkpt lat="45.90814" lon="6.50371">
        <ele>2335.1999511719</ele>
        <time>2019-02-06T10:21:34.000Z</time>
      </trkpt>
      <trkpt lat="45.90812" lon="6.50372">
        <ele>2335.3999023438</ele>
        <time>2019-02-06T10:21:37.000Z</time>
      </trkpt>
      <trkpt lat="45.90812" lon="6.50373">
        <ele>2335.6000976562</ele>
        <time>2019-02-06T10:21:38.000Z</time>
      </trkpt>
      <trkpt lat="45.90809" lon="6.50376">
        <ele>2336.3999023438</ele>
        <time>2019-02-06T10:21:43.000Z</time>
      </trkpt>
      <trkpt lat="45.90809" lon="6.50377">
        <ele>2336.6000976562</ele>
        <time>2019-02-06T10:21:44.000Z</time>
      </trkpt>
      <trkpt lat="45.90807" lon="6.50381">
        <ele>2337.6000976562</ele>
        <time>2019-02-06T10:21:49.000Z</time>
      </trkpt>
      <trkpt lat="45.90804" lon="6.50387">
        <ele>2338</ele>
        <time>2019-02-06T10:21:54.000Z</time>
      </trkpt>
      <trkpt lat="45.90803" lon="6.5039">
        <ele>2338.8000488281</ele>
        <time>2019-02-06T10:21:57.000Z</time>
      </trkpt>
      <trkpt lat="45.90802" lon="6.50393">
        <ele>2339.3999023438</ele>
        <time>2019-02-06T10:22:01.000Z</time>
      </trkpt>
      <trkpt lat="45.908" lon="6.50395">
        <ele>2339.8000488281</ele>
        <time>2019-02-06T10:22:03.000Z</time>
      </trkpt>
      <trkpt lat="45.90799" lon="6.50398">
        <ele>2340.6000976562</ele>
        <time>2019-02-06T10:22:07.000Z</time>
      </trkpt>
      <trkpt lat="45.90799" lon="6.50399">
        <ele>2340.8000488281</ele>
        <time>2019-02-06T10:22:08.000Z</time>
      </trkpt>
      <trkpt lat="45.90798" lon="6.50404">
        <ele>2342</ele>
        <time>2019-02-06T10:22:13.000Z</time>
      </trkpt>
      <trkpt lat="45.90797" lon="6.50407">
        <ele>2342.6000976562</ele>
        <time>2019-02-06T10:22:16.000Z</time>
      </trkpt>
      <trkpt lat="45.90797" lon="6.5041">
        <ele>2342.8000488281</ele>
        <time>2019-02-06T10:22:19.000Z</time>
      </trkpt>
      <trkpt lat="45.90797" lon="6.50411">
        <ele>2343</ele>
        <time>2019-02-06T10:22:21.000Z</time>
      </trkpt>
      <trkpt lat="45.90796" lon="6.50412">
        <ele>2343.6000976562</ele>
        <time>2019-02-06T10:22:24.000Z</time>
      </trkpt>
      <trkpt lat="45.90795" lon="6.50417">
        <ele>2344.1999511719</ele>
        <time>2019-02-06T10:22:28.000Z</time>
      </trkpt>
      <trkpt lat="45.90794" lon="6.50418">
        <ele>2344.8000488281</ele>
        <time>2019-02-06T10:22:30.000Z</time>
      </trkpt>
      <trkpt lat="45.90794" lon="6.50419">
        <ele>2345.1999511719</ele>
        <time>2019-02-06T10:22:33.000Z</time>
      </trkpt>
      <trkpt lat="45.90793" lon="6.50421">
        <ele>2345.6000976562</ele>
        <time>2019-02-06T10:22:36.000Z</time>
      </trkpt>
      <trkpt lat="45.90792" lon="6.50426">
        <ele>2346.1999511719</ele>
        <time>2019-02-06T10:22:40.000Z</time>
      </trkpt>
      <trkpt lat="45.90791" lon="6.50428">
        <ele>2346.6000976562</ele>
        <time>2019-02-06T10:22:42.000Z</time>
      </trkpt>
      <trkpt lat="45.90791" lon="6.50433">
        <ele>2347.3999023438</ele>
        <time>2019-02-06T10:22:47.000Z</time>
      </trkpt>
      <trkpt lat="45.9079" lon="6.50434">
        <ele>2347.6000976562</ele>
        <time>2019-02-06T10:22:48.000Z</time>
      </trkpt>
      <trkpt lat="45.90788" lon="6.50439">
        <ele>2348.3999023438</ele>
        <time>2019-02-06T10:22:53.000Z</time>
      </trkpt>
      <trkpt lat="45.90788" lon="6.5044">
        <ele>2348.8000488281</ele>
        <time>2019-02-06T10:22:54.000Z</time>
      </trkpt>
      <trkpt lat="45.90787" lon="6.50444">
        <ele>2349.6000976562</ele>
        <time>2019-02-06T10:23:00.000Z</time>
      </trkpt>
      <trkpt lat="45.90785" lon="6.50449">
        <ele>2350.8000488281</ele>
        <time>2019-02-06T10:23:06.000Z</time>
      </trkpt>
      <trkpt lat="45.90784" lon="6.50455">
        <ele>2351.8000488281</ele>
        <time>2019-02-06T10:23:12.000Z</time>
      </trkpt>
      <trkpt lat="45.90782" lon="6.5046">
        <ele>2352.3999023438</ele>
        <time>2019-02-06T10:23:17.000Z</time>
      </trkpt>
      <trkpt lat="45.90781" lon="6.50461">
        <ele>2352.8000488281</ele>
        <time>2019-02-06T10:23:19.000Z</time>
      </trkpt>
      <trkpt lat="45.90781" lon="6.50463">
        <ele>2353.3999023438</ele>
        <time>2019-02-06T10:23:23.000Z</time>
      </trkpt>
      <trkpt lat="45.9078" lon="6.50468">
        <ele>2354</ele>
        <time>2019-02-06T10:23:27.000Z</time>
      </trkpt>
      <trkpt lat="45.9078" lon="6.50469">
        <ele>2354</ele>
        <time>2019-02-06T10:23:29.000Z</time>
      </trkpt>
      <trkpt lat="45.90779" lon="6.50473">
        <ele>2355</ele>
        <time>2019-02-06T10:23:34.000Z</time>
      </trkpt>
      <trkpt lat="45.90778" lon="6.50475">
        <ele>2355.1999511719</ele>
        <time>2019-02-06T10:23:36.000Z</time>
      </trkpt>
      <trkpt lat="45.90777" lon="6.50478">
        <ele>2356</ele>
        <time>2019-02-06T10:23:41.000Z</time>
      </trkpt>
      <trkpt lat="45.90776" lon="6.50484">
        <ele>2356.6000976562</ele>
        <time>2019-02-06T10:23:46.000Z</time>
      </trkpt>
      <trkpt lat="45.90775" lon="6.50486">
        <ele>2356.8000488281</ele>
        <time>2019-02-06T10:23:48.000Z</time>
      </trkpt>
      <trkpt lat="45.90775" lon="6.50487">
        <ele>2357</ele>
        <time>2019-02-06T10:23:49.000Z</time>
      </trkpt>
      <trkpt lat="45.90773" lon="6.50492">
        <ele>2358</ele>
        <time>2019-02-06T10:23:54.000Z</time>
      </trkpt>
      <trkpt lat="45.90773" lon="6.50493">
        <ele>2358</ele>
        <time>2019-02-06T10:23:55.000Z</time>
      </trkpt>
      <trkpt lat="45.90772" lon="6.50497">
        <ele>2358.8000488281</ele>
        <time>2019-02-06T10:24:00.000Z</time>
      </trkpt>
      <trkpt lat="45.9077" lon="6.505">
        <ele>2359.1999511719</ele>
        <time>2019-02-06T10:24:04.000Z</time>
      </trkpt>
      <trkpt lat="45.9077" lon="6.50501">
        <ele>2359.3999023438</ele>
        <time>2019-02-06T10:24:06.000Z</time>
      </trkpt>
      <trkpt lat="45.90767" lon="6.50507">
        <ele>2360.1999511719</ele>
        <time>2019-02-06T10:24:12.000Z</time>
      </trkpt>
      <trkpt lat="45.90765" lon="6.50513">
        <ele>2360.8000488281</ele>
        <time>2019-02-06T10:24:18.000Z</time>
      </trkpt>
      <trkpt lat="45.90762" lon="6.50517">
        <ele>2361.1999511719</ele>
        <time>2019-02-06T10:24:23.000Z</time>
      </trkpt>
      <trkpt lat="45.90762" lon="6.50518">
        <ele>2361.3999023438</ele>
        <time>2019-02-06T10:24:24.000Z</time>
      </trkpt>
      <trkpt lat="45.90761" lon="6.50519">
        <ele>2361.3999023438</ele>
        <time>2019-02-06T10:24:25.000Z</time>
      </trkpt>
      <trkpt lat="45.90759" lon="6.50523">
        <ele>2361.6000976562</ele>
        <time>2019-02-06T10:24:29.000Z</time>
      </trkpt>
      <trkpt lat="45.90757" lon="6.50527">
        <ele>2362.1999511719</ele>
        <time>2019-02-06T10:24:33.000Z</time>
      </trkpt>
      <trkpt lat="45.90756" lon="6.50527">
        <ele>2362.3999023438</ele>
        <time>2019-02-06T10:24:34.000Z</time>
      </trkpt>
      <trkpt lat="45.90754" lon="6.50532">
        <ele>2362.6000976562</ele>
        <time>2019-02-06T10:24:39.000Z</time>
      </trkpt>
      <trkpt lat="45.90754" lon="6.50538">
        <ele>2363.3999023438</ele>
        <time>2019-02-06T10:24:45.000Z</time>
      </trkpt>
      <trkpt lat="45.90754" lon="6.50539">
        <ele>2363.8000488281</ele>
        <time>2019-02-06T10:24:47.000Z</time>
      </trkpt>
      <trkpt lat="45.90753" lon="6.50544">
        <ele>2364.6000976562</ele>
        <time>2019-02-06T10:24:51.000Z</time>
      </trkpt>
      <trkpt lat="45.90752" lon="6.50545">
        <ele>2365</ele>
        <time>2019-02-06T10:24:53.000Z</time>
      </trkpt>
      <trkpt lat="45.90752" lon="6.50546">
        <ele>2365.6000976562</ele>
        <time>2019-02-06T10:24:55.000Z</time>
      </trkpt>
      <trkpt lat="45.90751" lon="6.50549">
        <ele>2366.3999023438</ele>
        <time>2019-02-06T10:24:59.000Z</time>
      </trkpt>
      <trkpt lat="45.9075" lon="6.50551">
        <ele>2366.6000976562</ele>
        <time>2019-02-06T10:25:01.000Z</time>
      </trkpt>
      <trkpt lat="45.9075" lon="6.50553">
        <ele>2367.1999511719</ele>
        <time>2019-02-06T10:25:04.000Z</time>
      </trkpt>
      <trkpt lat="45.90749" lon="6.50555">
        <ele>2367.8000488281</ele>
        <time>2019-02-06T10:25:07.000Z</time>
      </trkpt>
      <trkpt lat="45.90749" lon="6.50556">
        <ele>2368</ele>
        <time>2019-02-06T10:25:08.000Z</time>
      </trkpt>
      <trkpt lat="45.90749" lon="6.50559">
        <ele>2368.1999511719</ele>
        <time>2019-02-06T10:25:10.000Z</time>
      </trkpt>
      <trkpt lat="45.9075" lon="6.50562">
        <ele>2369</ele>
        <time>2019-02-06T10:25:14.000Z</time>
      </trkpt>
      <trkpt lat="45.9075" lon="6.50562">
        <ele>2369.1999511719</ele>
        <time>2019-02-06T10:25:15.000Z</time>
      </trkpt>
      <trkpt lat="45.9075" lon="6.50562">
        <ele>2370</ele>
        <time>2019-02-06T10:25:18.000Z</time>
      </trkpt>
      <trkpt lat="45.90751" lon="6.50566">
        <ele>2370</ele>
        <time>2019-02-06T10:25:21.000Z</time>
      </trkpt>
      <trkpt lat="45.90751" lon="6.50567">
        <ele>2370</ele>
        <time>2019-02-06T10:25:22.000Z</time>
      </trkpt>
      <trkpt lat="45.90753" lon="6.50571">
        <ele>2370.3999023438</ele>
        <time>2019-02-06T10:25:27.000Z</time>
      </trkpt>
      <trkpt lat="45.90754" lon="6.50574">
        <ele>2371</ele>
        <time>2019-02-06T10:25:31.000Z</time>
      </trkpt>
      <trkpt lat="45.90755" lon="6.50575">
        <ele>2371.1999511719</ele>
        <time>2019-02-06T10:25:32.000Z</time>
      </trkpt>
      <trkpt lat="45.90757" lon="6.50577">
        <ele>2371.6000976562</ele>
        <time>2019-02-06T10:25:35.000Z</time>
      </trkpt>
      <trkpt lat="45.90758" lon="6.5058">
        <ele>2372.1999511719</ele>
        <time>2019-02-06T10:25:39.000Z</time>
      </trkpt>
      <trkpt lat="45.90758" lon="6.50582">
        <ele>2372.3999023438</ele>
        <time>2019-02-06T10:25:40.000Z</time>
      </trkpt>
      <trkpt lat="45.9076" lon="6.50585">
        <ele>2373.3999023438</ele>
        <time>2019-02-06T10:25:44.000Z</time>
      </trkpt>
      <trkpt lat="45.9076" lon="6.50589">
        <ele>2374.6000976562</ele>
        <time>2019-02-06T10:25:49.000Z</time>
      </trkpt>
      <trkpt lat="45.90761" lon="6.50595">
        <ele>2375.8000488281</ele>
        <time>2019-02-06T10:25:55.000Z</time>
      </trkpt>
      <trkpt lat="45.90761" lon="6.506">
        <ele>2376.8000488281</ele>
        <time>2019-02-06T10:26:00.000Z</time>
      </trkpt>
      <trkpt lat="45.90762" lon="6.50604">
        <ele>2377.6000976562</ele>
        <time>2019-02-06T10:26:05.000Z</time>
      </trkpt>
      <trkpt lat="45.90762" lon="6.50606">
        <ele>2378.1999511719</ele>
        <time>2019-02-06T10:26:07.000Z</time>
      </trkpt>
      <trkpt lat="45.90762" lon="6.50607">
        <ele>2378.8000488281</ele>
        <time>2019-02-06T10:26:10.000Z</time>
      </trkpt>
      <trkpt lat="45.90762" lon="6.5061">
        <ele>2379.3999023438</ele>
        <time>2019-02-06T10:26:13.000Z</time>
      </trkpt>
      <trkpt lat="45.90762" lon="6.50613">
        <ele>2379.8000488281</ele>
        <time>2019-02-06T10:26:16.000Z</time>
      </trkpt>
      <trkpt lat="45.90763" lon="6.50614">
        <ele>2380.3999023438</ele>
        <time>2019-02-06T10:26:19.000Z</time>
      </trkpt>
      <trkpt lat="45.90762" lon="6.50615">
        <ele>2380.8000488281</ele>
        <time>2019-02-06T10:26:21.000Z</time>
      </trkpt>
      <trkpt lat="45.90763" lon="6.50623">
        <ele>2381.3999023438</ele>
        <time>2019-02-06T10:26:25.000Z</time>
      </trkpt>
      <trkpt lat="45.90763" lon="6.50623">
        <ele>2381.6000976562</ele>
        <time>2019-02-06T10:26:26.000Z</time>
      </trkpt>
      <trkpt lat="45.90764" lon="6.50625">
        <ele>2382.1999511719</ele>
        <time>2019-02-06T10:26:29.000Z</time>
      </trkpt>
      <trkpt lat="45.90764" lon="6.50628">
        <ele>2382.8000488281</ele>
        <time>2019-02-06T10:26:31.000Z</time>
      </trkpt>
      <trkpt lat="45.90764" lon="6.50629">
        <ele>2383.3999023438</ele>
        <time>2019-02-06T10:26:34.000Z</time>
      </trkpt>
      <trkpt lat="45.90765" lon="6.50632">
        <ele>2384</ele>
        <time>2019-02-06T10:26:38.000Z</time>
      </trkpt>
      <trkpt lat="45.90765" lon="6.50636">
        <ele>2384.3999023438</ele>
        <time>2019-02-06T10:26:41.000Z</time>
      </trkpt>
      <trkpt lat="45.90765" lon="6.50642">
        <ele>2385</ele>
        <time>2019-02-06T10:26:45.000Z</time>
      </trkpt>
      <trkpt lat="45.90766" lon="6.50644">
        <ele>2386</ele>
        <time>2019-02-06T10:26:50.000Z</time>
      </trkpt>
      <trkpt lat="45.90766" lon="6.50644">
        <ele>2386.1999511719</ele>
        <time>2019-02-06T10:26:51.000Z</time>
      </trkpt>
      <trkpt lat="45.90766" lon="6.50649">
        <ele>2387</ele>
        <time>2019-02-06T10:26:55.000Z</time>
      </trkpt>
      <trkpt lat="45.90766" lon="6.50651">
        <ele>2387.1999511719</ele>
        <time>2019-02-06T10:26:56.000Z</time>
      </trkpt>
      <trkpt lat="45.90767" lon="6.50653">
        <ele>2387.8000488281</ele>
        <time>2019-02-06T10:26:59.000Z</time>
      </trkpt>
      <trkpt lat="45.90767" lon="6.50653">
        <ele>2388.1999511719</ele>
        <time>2019-02-06T10:27:01.000Z</time>
      </trkpt>
      <trkpt lat="45.90768" lon="6.50657">
        <ele>2389</ele>
        <time>2019-02-06T10:27:06.000Z</time>
      </trkpt>
      <trkpt lat="45.90768" lon="6.5066">
        <ele>2389.3999023438</ele>
        <time>2019-02-06T10:27:09.000Z</time>
      </trkpt>
      <trkpt lat="45.90768" lon="6.50661">
        <ele>2389.6000976562</ele>
        <time>2019-02-06T10:27:10.000Z</time>
      </trkpt>
      <trkpt lat="45.90769" lon="6.50664">
        <ele>2390.3999023438</ele>
        <time>2019-02-06T10:27:15.000Z</time>
      </trkpt>
      <trkpt lat="45.9077" lon="6.50666">
        <ele>2390.6000976562</ele>
        <time>2019-02-06T10:27:16.000Z</time>
      </trkpt>
      <trkpt lat="45.90771" lon="6.50671">
        <ele>2391.3999023438</ele>
        <time>2019-02-06T10:27:21.000Z</time>
      </trkpt>
      <trkpt lat="45.90771" lon="6.50671">
        <ele>2391.6000976562</ele>
        <time>2019-02-06T10:27:22.000Z</time>
      </trkpt>
      <trkpt lat="45.90772" lon="6.50672">
        <ele>2392</ele>
        <time>2019-02-06T10:27:25.000Z</time>
      </trkpt>
      <trkpt lat="45.90773" lon="6.50674">
        <ele>2392.8000488281</ele>
        <time>2019-02-06T10:27:29.000Z</time>
      </trkpt>
      <trkpt lat="45.90773" lon="6.50674">
        <ele>2392.8000488281</ele>
        <time>2019-02-06T10:27:30.000Z</time>
      </trkpt>
      <trkpt lat="45.90773" lon="6.5068">
        <ele>2394</ele>
        <time>2019-02-06T10:27:35.000Z</time>
      </trkpt>
      <trkpt lat="45.90774" lon="6.50682">
        <ele>2394.3999023438</ele>
        <time>2019-02-06T10:27:37.000Z</time>
      </trkpt>
      <trkpt lat="45.90775" lon="6.50683">
        <ele>2395</ele>
        <time>2019-02-06T10:27:40.000Z</time>
      </trkpt>
      <trkpt lat="45.90775" lon="6.50683">
        <ele>2395.1999511719</ele>
        <time>2019-02-06T10:27:41.000Z</time>
      </trkpt>
      <trkpt lat="45.90775" lon="6.50685">
        <ele>2396</ele>
        <time>2019-02-06T10:27:45.000Z</time>
      </trkpt>
      <trkpt lat="45.90774" lon="6.50689">
        <ele>2396.6000976562</ele>
        <time>2019-02-06T10:27:48.000Z</time>
      </trkpt>
      <trkpt lat="45.90774" lon="6.50692">
        <ele>2397</ele>
        <time>2019-02-06T10:27:51.000Z</time>
      </trkpt>
      <trkpt lat="45.90773" lon="6.50694">
        <ele>2397.8000488281</ele>
        <time>2019-02-06T10:27:54.000Z</time>
      </trkpt>
      <trkpt lat="45.90773" lon="6.50695">
        <ele>2398</ele>
        <time>2019-02-06T10:27:56.000Z</time>
      </trkpt>
      <trkpt lat="45.90772" lon="6.50696">
        <ele>2398.8000488281</ele>
        <time>2019-02-06T10:28:00.000Z</time>
      </trkpt>
      <trkpt lat="45.9077" lon="6.50698">
        <ele>2399.3999023438</ele>
        <time>2019-02-06T10:28:02.000Z</time>
      </trkpt>
      <trkpt lat="45.90769" lon="6.50701">
        <ele>2400</ele>
        <time>2019-02-06T10:28:05.000Z</time>
      </trkpt>
      <trkpt lat="45.90769" lon="6.50702">
        <ele>2400.3999023438</ele>
        <time>2019-02-06T10:28:06.000Z</time>
      </trkpt>
      <trkpt lat="45.90768" lon="6.50704">
        <ele>2401</ele>
        <time>2019-02-06T10:28:11.000Z</time>
      </trkpt>
      <trkpt lat="45.90767" lon="6.50706">
        <ele>2401.3999023438</ele>
        <time>2019-02-06T10:28:13.000Z</time>
      </trkpt>
      <trkpt lat="45.90765" lon="6.50709">
        <ele>2402.3999023438</ele>
        <time>2019-02-06T10:28:19.000Z</time>
      </trkpt>
      <trkpt lat="45.90762" lon="6.50711">
        <ele>2403.3999023438</ele>
        <time>2019-02-06T10:28:24.000Z</time>
      </trkpt>
      <trkpt lat="45.90761" lon="6.50711">
        <ele>2403.3999023438</ele>
        <time>2019-02-06T10:28:25.000Z</time>
      </trkpt>
      <trkpt lat="45.90758" lon="6.50711">
        <ele>2404.8000488281</ele>
        <time>2019-02-06T10:28:31.000Z</time>
      </trkpt>
      <trkpt lat="45.90754" lon="6.50712">
        <ele>2405.6000976562</ele>
        <time>2019-02-06T10:28:37.000Z</time>
      </trkpt>
      <trkpt lat="45.90752" lon="6.50712">
        <ele>2405.8000488281</ele>
        <time>2019-02-06T10:28:39.000Z</time>
      </trkpt>
      <trkpt lat="45.90748" lon="6.50713">
        <ele>2406.6000976562</ele>
        <time>2019-02-06T10:28:44.000Z</time>
      </trkpt>
      <trkpt lat="45.90748" lon="6.50714">
        <ele>2407</ele>
        <time>2019-02-06T10:28:47.000Z</time>
      </trkpt>
      <trkpt lat="45.90748" lon="6.50714">
        <ele>2407.3999023438</ele>
        <time>2019-02-06T10:28:52.000Z</time>
      </trkpt>
      <trkpt lat="45.90749" lon="6.50718">
        <ele>2408.1999511719</ele>
        <time>2019-02-06T10:28:57.000Z</time>
      </trkpt>
      <trkpt lat="45.9075" lon="6.50718">
        <ele>2408.3999023438</ele>
        <time>2019-02-06T10:28:58.000Z</time>
      </trkpt>
      <trkpt lat="45.90751" lon="6.50721">
        <ele>2409</ele>
        <time>2019-02-06T10:29:02.000Z</time>
      </trkpt>
      <trkpt lat="45.90752" lon="6.50724">
        <ele>2409.3999023438</ele>
        <time>2019-02-06T10:29:05.000Z</time>
      </trkpt>
      <trkpt lat="45.90753" lon="6.50726">
        <ele>2409.8000488281</ele>
        <time>2019-02-06T10:29:07.000Z</time>
      </trkpt>
      <trkpt lat="45.90754" lon="6.50728">
        <ele>2410.3999023438</ele>
        <time>2019-02-06T10:29:10.000Z</time>
      </trkpt>
      <trkpt lat="45.90756" lon="6.50729">
        <ele>2410.8000488281</ele>
        <time>2019-02-06T10:29:12.000Z</time>
      </trkpt>
      <trkpt lat="45.90759" lon="6.50733">
        <ele>2411.3999023438</ele>
        <time>2019-02-06T10:29:15.000Z</time>
      </trkpt>
      <trkpt lat="45.9076" lon="6.50734">
        <ele>2411.8000488281</ele>
        <time>2019-02-06T10:29:17.000Z</time>
      </trkpt>
      <trkpt lat="45.9076" lon="6.50736">
        <ele>2412.3999023438</ele>
        <time>2019-02-06T10:29:21.000Z</time>
      </trkpt>
      <trkpt lat="45.9076" lon="6.50737">
        <ele>2412.6000976562</ele>
        <time>2019-02-06T10:29:22.000Z</time>
      </trkpt>
      <trkpt lat="45.90763" lon="6.50739">
        <ele>2413.3999023438</ele>
        <time>2019-02-06T10:29:27.000Z</time>
      </trkpt>
      <trkpt lat="45.90764" lon="6.5074">
        <ele>2413.6000976562</ele>
        <time>2019-02-06T10:29:28.000Z</time>
      </trkpt>
      <trkpt lat="45.90765" lon="6.50742">
        <ele>2414.1999511719</ele>
        <time>2019-02-06T10:29:32.000Z</time>
      </trkpt>
      <trkpt lat="45.90765" lon="6.50742">
        <ele>2414.6000976562</ele>
        <time>2019-02-06T10:29:34.000Z</time>
      </trkpt>
      <trkpt lat="45.90767" lon="6.50744">
        <ele>2415.1999511719</ele>
        <time>2019-02-06T10:29:38.000Z</time>
      </trkpt>
      <trkpt lat="45.90768" lon="6.50746">
        <ele>2415.6000976562</ele>
        <time>2019-02-06T10:29:41.000Z</time>
      </trkpt>
      <trkpt lat="45.90768" lon="6.50747">
        <ele>2415.8000488281</ele>
        <time>2019-02-06T10:29:42.000Z</time>
      </trkpt>
      <trkpt lat="45.9077" lon="6.50749">
        <ele>2416.3999023438</ele>
        <time>2019-02-06T10:29:44.000Z</time>
      </trkpt>
      <trkpt lat="45.90772" lon="6.50751">
        <ele>2416.8000488281</ele>
        <time>2019-02-06T10:29:46.000Z</time>
      </trkpt>
      <trkpt lat="45.90774" lon="6.50753">
        <ele>2417.6000976562</ele>
        <time>2019-02-06T10:29:51.000Z</time>
      </trkpt>
      <trkpt lat="45.90777" lon="6.50755">
        <ele>2418</ele>
        <time>2019-02-06T10:29:54.000Z</time>
      </trkpt>
      <trkpt lat="45.90779" lon="6.50756">
        <ele>2418.1999511719</ele>
        <time>2019-02-06T10:29:56.000Z</time>
      </trkpt>
      <trkpt lat="45.90779" lon="6.50757">
        <ele>2418.8000488281</ele>
        <time>2019-02-06T10:30:00.000Z</time>
      </trkpt>
      <trkpt lat="45.90779" lon="6.50757">
        <ele>2419</ele>
        <time>2019-02-06T10:30:01.000Z</time>
      </trkpt>
      <trkpt lat="45.90782" lon="6.50761">
        <ele>2419.6000976562</ele>
        <time>2019-02-06T10:30:06.000Z</time>
      </trkpt>
      <trkpt lat="45.90783" lon="6.50762">
        <ele>2420</ele>
        <time>2019-02-06T10:30:08.000Z</time>
      </trkpt>
      <trkpt lat="45.90784" lon="6.50765">
        <ele>2420.6000976562</ele>
        <time>2019-02-06T10:30:11.000Z</time>
      </trkpt>
      <trkpt lat="45.90785" lon="6.50766">
        <ele>2421.1999511719</ele>
        <time>2019-02-06T10:30:14.000Z</time>
      </trkpt>
      <trkpt lat="45.90786" lon="6.50767">
        <ele>2421.3999023438</ele>
        <time>2019-02-06T10:30:16.000Z</time>
      </trkpt>
      <trkpt lat="45.9079" lon="6.5077">
        <ele>2422</ele>
        <time>2019-02-06T10:30:20.000Z</time>
      </trkpt>
      <trkpt lat="45.9079" lon="6.5077">
        <ele>2422.1999511719</ele>
        <time>2019-02-06T10:30:21.000Z</time>
      </trkpt>
      <trkpt lat="45.90792" lon="6.50773">
        <ele>2423</ele>
        <time>2019-02-06T10:30:26.000Z</time>
      </trkpt>
      <trkpt lat="45.90794" lon="6.50776">
        <ele>2423.3999023438</ele>
        <time>2019-02-06T10:30:28.000Z</time>
      </trkpt>
      <trkpt lat="45.90794" lon="6.50779">
        <ele>2424.1999511719</ele>
        <time>2019-02-06T10:30:31.000Z</time>
      </trkpt>
      <trkpt lat="45.90794" lon="6.5078">
        <ele>2424.3999023438</ele>
        <time>2019-02-06T10:30:32.000Z</time>
      </trkpt>
      <trkpt lat="45.90793" lon="6.50783">
        <ele>2425.1999511719</ele>
        <time>2019-02-06T10:30:36.000Z</time>
      </trkpt>
      <trkpt lat="45.90792" lon="6.50785">
        <ele>2425.6000976562</ele>
        <time>2019-02-06T10:30:38.000Z</time>
      </trkpt>
      <trkpt lat="45.90791" lon="6.50789">
        <ele>2426.3999023438</ele>
        <time>2019-02-06T10:30:43.000Z</time>
      </trkpt>
      <trkpt lat="45.9079" lon="6.5079">
        <ele>2426.6000976562</ele>
        <time>2019-02-06T10:30:44.000Z</time>
      </trkpt>
      <trkpt lat="45.9079" lon="6.50791">
        <ele>2427.1999511719</ele>
        <time>2019-02-06T10:30:48.000Z</time>
      </trkpt>
      <trkpt lat="45.90789" lon="6.50793">
        <ele>2427.6000976562</ele>
        <time>2019-02-06T10:30:50.000Z</time>
      </trkpt>
      <trkpt lat="45.90788" lon="6.50795">
        <ele>2428.6000976562</ele>
        <time>2019-02-06T10:30:55.000Z</time>
      </trkpt>
      <trkpt lat="45.90787" lon="6.50801">
        <ele>2429.6000976562</ele>
        <time>2019-02-06T10:31:01.000Z</time>
      </trkpt>
      <trkpt lat="45.90787" lon="6.50803">
        <ele>2429.8000488281</ele>
        <time>2019-02-06T10:31:02.000Z</time>
      </trkpt>
      <trkpt lat="45.90788" lon="6.50805">
        <ele>2430.3999023438</ele>
        <time>2019-02-06T10:31:05.000Z</time>
      </trkpt>
      <trkpt lat="45.90788" lon="6.50806">
        <ele>2431</ele>
        <time>2019-02-06T10:31:07.000Z</time>
      </trkpt>
      <trkpt lat="45.90788" lon="6.50808">
        <ele>2431.6000976562</ele>
        <time>2019-02-06T10:31:10.000Z</time>
      </trkpt>
      <trkpt lat="45.9079" lon="6.50811">
        <ele>2432</ele>
        <time>2019-02-06T10:31:13.000Z</time>
      </trkpt>
      <trkpt lat="45.9079" lon="6.50812">
        <ele>2432.3999023438</ele>
        <time>2019-02-06T10:31:15.000Z</time>
      </trkpt>
      <trkpt lat="45.9079" lon="6.50814">
        <ele>2433.1999511719</ele>
        <time>2019-02-06T10:31:19.000Z</time>
      </trkpt>
      <trkpt lat="45.90792" lon="6.50818">
        <ele>2434.1999511719</ele>
        <time>2019-02-06T10:31:25.000Z</time>
      </trkpt>
      <trkpt lat="45.90792" lon="6.5082">
        <ele>2434.3999023438</ele>
        <time>2019-02-06T10:31:26.000Z</time>
      </trkpt>
      <trkpt lat="45.90793" lon="6.50823">
        <ele>2435</ele>
        <time>2019-02-06T10:31:29.000Z</time>
      </trkpt>
      <trkpt lat="45.90793" lon="6.50825">
        <ele>2435.6000976562</ele>
        <time>2019-02-06T10:31:32.000Z</time>
      </trkpt>
      <trkpt lat="45.90795" lon="6.50827">
        <ele>2436</ele>
        <time>2019-02-06T10:31:35.000Z</time>
      </trkpt>
      <trkpt lat="45.90798" lon="6.5083">
        <ele>2436.6000976562</ele>
        <time>2019-02-06T10:31:39.000Z</time>
      </trkpt>
      <trkpt lat="45.90798" lon="6.5083">
        <ele>2436.8000488281</ele>
        <time>2019-02-06T10:31:40.000Z</time>
      </trkpt>
      <trkpt lat="45.90799" lon="6.50833">
        <ele>2437.6000976562</ele>
        <time>2019-02-06T10:31:44.000Z</time>
      </trkpt>
      <trkpt lat="45.90799" lon="6.50834">
        <ele>2437.8000488281</ele>
        <time>2019-02-06T10:31:45.000Z</time>
      </trkpt>
      <trkpt lat="45.90801" lon="6.50836">
        <ele>2438.3999023438</ele>
        <time>2019-02-06T10:31:49.000Z</time>
      </trkpt>
      <trkpt lat="45.90802" lon="6.50837">
        <ele>2438.8000488281</ele>
        <time>2019-02-06T10:31:51.000Z</time>
      </trkpt>
      <trkpt lat="45.90802" lon="6.50838">
        <ele>2439</ele>
        <time>2019-02-06T10:31:52.000Z</time>
      </trkpt>
      <trkpt lat="45.90803" lon="6.50841">
        <ele>2439.6000976562</ele>
        <time>2019-02-06T10:31:55.000Z</time>
      </trkpt>
      <trkpt lat="45.90803" lon="6.50843">
        <ele>2440</ele>
        <time>2019-02-06T10:31:57.000Z</time>
      </trkpt>
      <trkpt lat="45.90804" lon="6.50846">
        <ele>2440.6000976562</ele>
        <time>2019-02-06T10:32:00.000Z</time>
      </trkpt>
      <trkpt lat="45.90805" lon="6.5085">
        <ele>2441</ele>
        <time>2019-02-06T10:32:03.000Z</time>
      </trkpt>
      <trkpt lat="45.90804" lon="6.50852">
        <ele>2441.1999511719</ele>
        <time>2019-02-06T10:32:04.000Z</time>
      </trkpt>
      <trkpt lat="45.90805" lon="6.50853">
        <ele>2442</ele>
        <time>2019-02-06T10:32:08.000Z</time>
      </trkpt>
      <trkpt lat="45.90807" lon="6.50855">
        <ele>2443</ele>
        <time>2019-02-06T10:32:14.000Z</time>
      </trkpt>
      <trkpt lat="45.90807" lon="6.50856">
        <ele>2443.1999511719</ele>
        <time>2019-02-06T10:32:15.000Z</time>
      </trkpt>
      <trkpt lat="45.9081" lon="6.50857">
        <ele>2443.3999023438</ele>
        <time>2019-02-06T10:32:17.000Z</time>
      </trkpt>
      <trkpt lat="45.90812" lon="6.50858">
        <ele>2443.8000488281</ele>
        <time>2019-02-06T10:32:20.000Z</time>
      </trkpt>
      <trkpt lat="45.90813" lon="6.50859">
        <ele>2444.1999511719</ele>
        <time>2019-02-06T10:32:23.000Z</time>
      </trkpt>
      <trkpt lat="45.90814" lon="6.50861">
        <ele>2444.6000976562</ele>
        <time>2019-02-06T10:32:25.000Z</time>
      </trkpt>
      <trkpt lat="45.90815" lon="6.50862">
        <ele>2445.3999023438</ele>
        <time>2019-02-06T10:32:29.000Z</time>
      </trkpt>
      <trkpt lat="45.90817" lon="6.50862">
        <ele>2446.3999023438</ele>
        <time>2019-02-06T10:32:34.000Z</time>
      </trkpt>
      <trkpt lat="45.90818" lon="6.50862">
        <ele>2446.3999023438</ele>
        <time>2019-02-06T10:32:35.000Z</time>
      </trkpt>
      <trkpt lat="45.9082" lon="6.50862">
        <ele>2447.1999511719</ele>
        <time>2019-02-06T10:32:40.000Z</time>
      </trkpt>
      <trkpt lat="45.90822" lon="6.50861">
        <ele>2447.6000976562</ele>
        <time>2019-02-06T10:32:43.000Z</time>
      </trkpt>
      <trkpt lat="45.90823" lon="6.5086">
        <ele>2448</ele>
        <time>2019-02-06T10:32:45.000Z</time>
      </trkpt>
      <trkpt lat="45.90824" lon="6.5086">
        <ele>2448.6000976562</ele>
        <time>2019-02-06T10:32:50.000Z</time>
      </trkpt>
      <trkpt lat="45.90824" lon="6.5086">
        <ele>2448.8000488281</ele>
        <time>2019-02-06T10:32:51.000Z</time>
      </trkpt>
      <trkpt lat="45.90825" lon="6.50862">
        <ele>2449.8000488281</ele>
        <time>2019-02-06T10:32:57.000Z</time>
      </trkpt>
      <trkpt lat="45.90824" lon="6.50868">
        <ele>2450.3999023438</ele>
        <time>2019-02-06T10:33:03.000Z</time>
      </trkpt>
      <trkpt lat="45.90824" lon="6.5087">
        <ele>2450.8000488281</ele>
        <time>2019-02-06T10:33:07.000Z</time>
      </trkpt>
      <trkpt lat="45.90824" lon="6.50871">
        <ele>2450.8000488281</ele>
        <time>2019-02-06T10:33:08.000Z</time>
      </trkpt>
      <trkpt lat="45.90822" lon="6.50875">
        <ele>2451.6000976562</ele>
        <time>2019-02-06T10:33:13.000Z</time>
      </trkpt>
      <trkpt lat="45.90822" lon="6.50876">
        <ele>2451.8000488281</ele>
        <time>2019-02-06T10:33:14.000Z</time>
      </trkpt>
      <trkpt lat="45.90821" lon="6.50876">
        <ele>2452</ele>
        <time>2019-02-06T10:33:15.000Z</time>
      </trkpt>
      <trkpt lat="45.9082" lon="6.50879">
        <ele>2452.6000976562</ele>
        <time>2019-02-06T10:33:18.000Z</time>
      </trkpt>
      <trkpt lat="45.90819" lon="6.50879">
        <ele>2453</ele>
        <time>2019-02-06T10:33:20.000Z</time>
      </trkpt>
      <trkpt lat="45.90819" lon="6.5088">
        <ele>2453.6000976562</ele>
        <time>2019-02-06T10:33:23.000Z</time>
      </trkpt>
      <trkpt lat="45.90819" lon="6.50881">
        <ele>2454.3999023438</ele>
        <time>2019-02-06T10:33:26.000Z</time>
      </trkpt>
      <trkpt lat="45.90819" lon="6.50881">
        <ele>2454.6000976562</ele>
        <time>2019-02-06T10:33:30.000Z</time>
      </trkpt>
      <trkpt lat="45.90821" lon="6.50882">
        <ele>2454.8000488281</ele>
        <time>2019-02-06T10:33:34.000Z</time>
      </trkpt>
      <trkpt lat="45.90823" lon="6.50884">
        <ele>2455.3999023438</ele>
        <time>2019-02-06T10:33:37.000Z</time>
      </trkpt>
      <trkpt lat="45.90824" lon="6.50884">
        <ele>2456</ele>
        <time>2019-02-06T10:33:39.000Z</time>
      </trkpt>
      <trkpt lat="45.90825" lon="6.50885">
        <ele>2456.6000976562</ele>
        <time>2019-02-06T10:33:43.000Z</time>
      </trkpt>
      <trkpt lat="45.90826" lon="6.50885">
        <ele>2457</ele>
        <time>2019-02-06T10:33:44.000Z</time>
      </trkpt>
      <trkpt lat="45.90829" lon="6.50888">
        <ele>2457.8000488281</ele>
        <time>2019-02-06T10:33:48.000Z</time>
      </trkpt>
      <trkpt lat="45.9083" lon="6.50887">
        <ele>2458</ele>
        <time>2019-02-06T10:33:50.000Z</time>
      </trkpt>
      <trkpt lat="45.90835" lon="6.50887">
        <ele>2458.8000488281</ele>
        <time>2019-02-06T10:33:55.000Z</time>
      </trkpt>
      <trkpt lat="45.90839" lon="6.50884">
        <ele>2459.8000488281</ele>
        <time>2019-02-06T10:34:01.000Z</time>
      </trkpt>
      <trkpt lat="45.90839" lon="6.50883">
        <ele>2459.8000488281</ele>
        <time>2019-02-06T10:34:02.000Z</time>
      </trkpt>
      <trkpt lat="45.90842" lon="6.5088">
        <ele>2461.1999511719</ele>
        <time>2019-02-06T10:34:07.000Z</time>
      </trkpt>
      <trkpt lat="45.90842" lon="6.5088">
        <ele>2461.3999023438</ele>
        <time>2019-02-06T10:34:09.000Z</time>
      </trkpt>
      <trkpt lat="45.90842" lon="6.50878">
        <ele>2462.1999511719</ele>
        <time>2019-02-06T10:34:13.000Z</time>
      </trkpt>
      <trkpt lat="45.90843" lon="6.50877">
        <ele>2462.8000488281</ele>
        <time>2019-02-06T10:34:15.000Z</time>
      </trkpt>
      <trkpt lat="45.90844" lon="6.50875">
        <ele>2463.3999023438</ele>
        <time>2019-02-06T10:34:17.000Z</time>
      </trkpt>
      <trkpt lat="45.90844" lon="6.50875">
        <ele>2463.8000488281</ele>
        <time>2019-02-06T10:34:19.000Z</time>
      </trkpt>
      <trkpt lat="45.90845" lon="6.50873">
        <ele>2464.3999023438</ele>
        <time>2019-02-06T10:34:23.000Z</time>
      </trkpt>
      <trkpt lat="45.90846" lon="6.50872">
        <ele>2464.6000976562</ele>
        <time>2019-02-06T10:34:24.000Z</time>
      </trkpt>
      <trkpt lat="45.90848" lon="6.50867">
        <ele>2465.3999023438</ele>
        <time>2019-02-06T10:34:29.000Z</time>
      </trkpt>
      <trkpt lat="45.90849" lon="6.50866">
        <ele>2465.6000976562</ele>
        <time>2019-02-06T10:34:31.000Z</time>
      </trkpt>
      <trkpt lat="45.9085" lon="6.50865">
        <ele>2466</ele>
        <time>2019-02-06T10:34:33.000Z</time>
      </trkpt>
      <trkpt lat="45.90851" lon="6.50863">
        <ele>2466.6000976562</ele>
        <time>2019-02-06T10:34:38.000Z</time>
      </trkpt>
      <trkpt lat="45.90851" lon="6.50861">
        <ele>2466.8000488281</ele>
        <time>2019-02-06T10:34:39.000Z</time>
      </trkpt>
      <trkpt lat="45.90853" lon="6.50858">
        <ele>2467.3999023438</ele>
        <time>2019-02-06T10:34:43.000Z</time>
      </trkpt>
      <trkpt lat="45.90854" lon="6.50858">
        <ele>2467.6000976562</ele>
        <time>2019-02-06T10:34:45.000Z</time>
      </trkpt>
      <trkpt lat="45.90854" lon="6.50857">
        <ele>2467.8000488281</ele>
        <time>2019-02-06T10:34:47.000Z</time>
      </trkpt>
      <trkpt lat="45.90857" lon="6.50851">
        <ele>2468.8000488281</ele>
        <time>2019-02-06T10:34:53.000Z</time>
      </trkpt>
      <trkpt lat="45.90857" lon="6.50851">
        <ele>2469.1999511719</ele>
        <time>2019-02-06T10:34:55.000Z</time>
      </trkpt>
      <trkpt lat="45.90857" lon="6.5085">
        <ele>2469.1999511719</ele>
        <time>2019-02-06T10:34:56.000Z</time>
      </trkpt>
      <trkpt lat="45.90858" lon="6.50847">
        <ele>2470.1999511719</ele>
        <time>2019-02-06T10:35:01.000Z</time>
      </trkpt>
      <trkpt lat="45.90859" lon="6.50843">
        <ele>2470.8000488281</ele>
        <time>2019-02-06T10:35:05.000Z</time>
      </trkpt>
      <trkpt lat="45.90859" lon="6.50842">
        <ele>2471</ele>
        <time>2019-02-06T10:35:06.000Z</time>
      </trkpt>
      <trkpt lat="45.9086" lon="6.50842">
        <ele>2471.1999511719</ele>
        <time>2019-02-06T10:35:07.000Z</time>
      </trkpt>
      <trkpt lat="45.9086" lon="6.5084">
        <ele>2471.8000488281</ele>
        <time>2019-02-06T10:35:10.000Z</time>
      </trkpt>
      <trkpt lat="45.90861" lon="6.50837">
        <ele>2472.3999023438</ele>
        <time>2019-02-06T10:35:14.000Z</time>
      </trkpt>
      <trkpt lat="45.90862" lon="6.50835">
        <ele>2472.8000488281</ele>
        <time>2019-02-06T10:35:18.000Z</time>
      </trkpt>
      <trkpt lat="45.90862" lon="6.50834">
        <ele>2473.3999023438</ele>
        <time>2019-02-06T10:35:20.000Z</time>
      </trkpt>
      <trkpt lat="45.90863" lon="6.50833">
        <ele>2473.6000976562</ele>
        <time>2019-02-06T10:35:22.000Z</time>
      </trkpt>
      <trkpt lat="45.90863" lon="6.50833">
        <ele>2474.3999023438</ele>
        <time>2019-02-06T10:35:29.000Z</time>
      </trkpt>
      <trkpt lat="45.90864" lon="6.50833">
        <ele>2474.6000976562</ele>
        <time>2019-02-06T10:35:37.000Z</time>
      </trkpt>
      <trkpt lat="45.90864" lon="6.50833">
        <ele>2474.3999023438</ele>
        <time>2019-02-06T10:35:54.000Z</time>
      </trkpt>
      <trkpt lat="45.90865" lon="6.50834">
        <ele>2474.3999023438</ele>
        <time>2019-02-06T10:36:03.000Z</time>
      </trkpt>
      <trkpt lat="45.90865" lon="6.50835">
        <ele>2474.3999023438</ele>
        <time>2019-02-06T10:36:05.000Z</time>
      </trkpt>
      <trkpt lat="45.90866" lon="6.5084">
        <ele>2474.6000976562</ele>
        <time>2019-02-06T10:36:10.000Z</time>
      </trkpt>
      <trkpt lat="45.90867" lon="6.50844">
        <ele>2475.3999023438</ele>
        <time>2019-02-06T10:36:14.000Z</time>
      </trkpt>
      <trkpt lat="45.90867" lon="6.50844">
        <ele>2475.6000976562</ele>
        <time>2019-02-06T10:36:15.000Z</time>
      </trkpt>
      <trkpt lat="45.90868" lon="6.50846">
        <ele>2476.3999023438</ele>
        <time>2019-02-06T10:36:19.000Z</time>
      </trkpt>
      <trkpt lat="45.90868" lon="6.50848">
        <ele>2476.8000488281</ele>
        <time>2019-02-06T10:36:21.000Z</time>
      </trkpt>
      <trkpt lat="45.90869" lon="6.50851">
        <ele>2477.6000976562</ele>
        <time>2019-02-06T10:36:25.000Z</time>
      </trkpt>
      <trkpt lat="45.90869" lon="6.50851">
        <ele>2477.8000488281</ele>
        <time>2019-02-06T10:36:27.000Z</time>
      </trkpt>
      <trkpt lat="45.9087" lon="6.50854">
        <ele>2478.1999511719</ele>
        <time>2019-02-06T10:36:37.000Z</time>
      </trkpt>
      <trkpt lat="45.90871" lon="6.50856">
        <ele>2478.6000976562</ele>
        <time>2019-02-06T10:36:42.000Z</time>
      </trkpt>
      <trkpt lat="45.90871" lon="6.50858">
        <ele>2479</ele>
        <time>2019-02-06T10:36:44.000Z</time>
      </trkpt>
      <trkpt lat="45.90872" lon="6.5086">
        <ele>2479.3999023438</ele>
        <time>2019-02-06T10:36:47.000Z</time>
      </trkpt>
      <trkpt lat="45.90872" lon="6.5086">
        <ele>2480.1999511719</ele>
        <time>2019-02-06T10:36:52.000Z</time>
      </trkpt>
      <trkpt lat="45.90872" lon="6.5086">
        <ele>2480.6000976562</ele>
        <time>2019-02-06T10:36:56.000Z</time>
      </trkpt>
      <trkpt lat="45.90872" lon="6.5086">
        <ele>2480.6000976562</ele>
        <time>2019-02-06T10:36:59.000Z</time>
      </trkpt>
      <trkpt lat="45.90873" lon="6.50858">
        <ele>2480.6000976562</ele>
        <time>2019-02-06T10:37:01.000Z</time>
      </trkpt>
      <trkpt lat="45.90876" lon="6.50853">
        <ele>2481.3999023438</ele>
        <time>2019-02-06T10:37:06.000Z</time>
      </trkpt>
      <trkpt lat="45.90876" lon="6.50852">
        <ele>2481.6000976562</ele>
        <time>2019-02-06T10:37:07.000Z</time>
      </trkpt>
      <trkpt lat="45.90877" lon="6.5085">
        <ele>2482.6000976562</ele>
        <time>2019-02-06T10:37:11.000Z</time>
      </trkpt>
      <trkpt lat="45.9088" lon="6.50846">
        <ele>2483.3999023438</ele>
        <time>2019-02-06T10:37:16.000Z</time>
      </trkpt>
      <trkpt lat="45.90881" lon="6.50844">
        <ele>2483.6000976562</ele>
        <time>2019-02-06T10:37:17.000Z</time>
      </trkpt>
      <trkpt lat="45.90881" lon="6.50844">
        <ele>2483.6000976562</ele>
        <time>2019-02-06T10:37:18.000Z</time>
      </trkpt>
      <trkpt lat="45.90881" lon="6.50841">
        <ele>2484.1999511719</ele>
        <time>2019-02-06T10:37:20.000Z</time>
      </trkpt>
      <trkpt lat="45.90881" lon="6.5084">
        <ele>2484.8000488281</ele>
        <time>2019-02-06T10:37:22.000Z</time>
      </trkpt>
      <trkpt lat="45.90882" lon="6.50838">
        <ele>2485.3999023438</ele>
        <time>2019-02-06T10:37:25.000Z</time>
      </trkpt>
      <trkpt lat="45.90884" lon="6.50834">
        <ele>2485.8000488281</ele>
        <time>2019-02-06T10:37:28.000Z</time>
      </trkpt>
      <trkpt lat="45.90884" lon="6.50833">
        <ele>2486</ele>
        <time>2019-02-06T10:37:29.000Z</time>
      </trkpt>
      <trkpt lat="45.90884" lon="6.5083">
        <ele>2487</ele>
        <time>2019-02-06T10:37:34.000Z</time>
      </trkpt>
      <trkpt lat="45.90885" lon="6.50825">
        <ele>2488</ele>
        <time>2019-02-06T10:37:40.000Z</time>
      </trkpt>
      <trkpt lat="45.90886" lon="6.50822">
        <ele>2488.8000488281</ele>
        <time>2019-02-06T10:37:44.000Z</time>
      </trkpt>
      <trkpt lat="45.90886" lon="6.50821">
        <ele>2489</ele>
        <time>2019-02-06T10:37:46.000Z</time>
      </trkpt>
      <trkpt lat="45.90887" lon="6.5082">
        <ele>2489.3999023438</ele>
        <time>2019-02-06T10:37:48.000Z</time>
      </trkpt>
      <trkpt lat="45.90887" lon="6.50816">
        <ele>2490.1999511719</ele>
        <time>2019-02-06T10:37:53.000Z</time>
      </trkpt>
      <trkpt lat="45.90889" lon="6.5081">
        <ele>2491.1999511719</ele>
        <time>2019-02-06T10:37:59.000Z</time>
      </trkpt>
      <trkpt lat="45.9089" lon="6.5081">
        <ele>2491.1999511719</ele>
        <time>2019-02-06T10:38:00.000Z</time>
      </trkpt>
      <trkpt lat="45.90891" lon="6.50806">
        <ele>2492.1999511719</ele>
        <time>2019-02-06T10:38:05.000Z</time>
      </trkpt>
      <trkpt lat="45.90891" lon="6.50806">
        <ele>2492.3999023438</ele>
        <time>2019-02-06T10:38:06.000Z</time>
      </trkpt>
      <trkpt lat="45.90892" lon="6.50803">
        <ele>2493</ele>
        <time>2019-02-06T10:38:09.000Z</time>
      </trkpt>
      <trkpt lat="45.90893" lon="6.508">
        <ele>2493.3999023438</ele>
        <time>2019-02-06T10:38:12.000Z</time>
      </trkpt>
      <trkpt lat="45.90894" lon="6.50798">
        <ele>2494</ele>
        <time>2019-02-06T10:38:15.000Z</time>
      </trkpt>
      <trkpt lat="45.90895" lon="6.50795">
        <ele>2494.3999023438</ele>
        <time>2019-02-06T10:38:18.000Z</time>
      </trkpt>
      <trkpt lat="45.90896" lon="6.50794">
        <ele>2494.6000976562</ele>
        <time>2019-02-06T10:38:19.000Z</time>
      </trkpt>
      <trkpt lat="45.90896" lon="6.50793">
        <ele>2495.3999023438</ele>
        <time>2019-02-06T10:38:24.000Z</time>
      </trkpt>
      <trkpt lat="45.90896" lon="6.50793">
        <ele>2495.6000976562</ele>
        <time>2019-02-06T10:38:27.000Z</time>
      </trkpt>
      <trkpt lat="45.90896" lon="6.50792">
        <ele>2495.6000976562</ele>
        <time>2019-02-06T10:38:36.000Z</time>
      </trkpt>
      <trkpt lat="45.90897" lon="6.50789">
        <ele>2496.3999023438</ele>
        <time>2019-02-06T10:38:42.000Z</time>
      </trkpt>
      <trkpt lat="45.90897" lon="6.50789">
        <ele>2496.6000976562</ele>
        <time>2019-02-06T10:38:44.000Z</time>
      </trkpt>
      <trkpt lat="45.90897" lon="6.50789">
        <ele>2496.3999023438</ele>
        <time>2019-02-06T10:38:53.000Z</time>
      </trkpt>
      <trkpt lat="45.90897" lon="6.5079">
        <ele>2497.3999023438</ele>
        <time>2019-02-06T10:38:59.000Z</time>
      </trkpt>
      <trkpt lat="45.90898" lon="6.5079">
        <ele>2497.3999023438</ele>
        <time>2019-02-06T10:39:01.000Z</time>
      </trkpt>
      <trkpt lat="45.90898" lon="6.50793">
        <ele>2497.1999511719</ele>
        <time>2019-02-06T10:39:04.000Z</time>
      </trkpt>
      <trkpt lat="45.90899" lon="6.50796">
        <ele>2497.6000976562</ele>
        <time>2019-02-06T10:39:07.000Z</time>
      </trkpt>
      <trkpt lat="45.90899" lon="6.50798">
        <ele>2497.8000488281</ele>
        <time>2019-02-06T10:39:09.000Z</time>
      </trkpt>
      <trkpt lat="45.90901" lon="6.50803">
        <ele>2498.6000976562</ele>
        <time>2019-02-06T10:39:15.000Z</time>
      </trkpt>
      <trkpt lat="45.90901" lon="6.50803">
        <ele>2498.8000488281</ele>
        <time>2019-02-06T10:39:16.000Z</time>
      </trkpt>
      <trkpt lat="45.90901" lon="6.50806">
        <ele>2499.8000488281</ele>
        <time>2019-02-06T10:39:20.000Z</time>
      </trkpt>
      <trkpt lat="45.90901" lon="6.50807">
        <ele>2500</ele>
        <time>2019-02-06T10:39:21.000Z</time>
      </trkpt>
      <trkpt lat="45.90902" lon="6.50809">
        <ele>2500.6000976562</ele>
        <time>2019-02-06T10:39:25.000Z</time>
      </trkpt>
      <trkpt lat="45.90902" lon="6.50814">
        <ele>2501.1999511719</ele>
        <time>2019-02-06T10:39:30.000Z</time>
      </trkpt>
      <trkpt lat="45.90903" lon="6.50815">
        <ele>2501.3999023438</ele>
        <time>2019-02-06T10:39:31.000Z</time>
      </trkpt>
      <trkpt lat="45.90903" lon="6.50818">
        <ele>2502.1999511719</ele>
        <time>2019-02-06T10:39:35.000Z</time>
      </trkpt>
      <trkpt lat="45.90903" lon="6.50821">
        <ele>2502.8000488281</ele>
        <time>2019-02-06T10:39:40.000Z</time>
      </trkpt>
      <trkpt lat="45.90903" lon="6.50822">
        <ele>2503.3999023438</ele>
        <time>2019-02-06T10:39:42.000Z</time>
      </trkpt>
      <trkpt lat="45.90903" lon="6.50824">
        <ele>2503.8000488281</ele>
        <time>2019-02-06T10:39:45.000Z</time>
      </trkpt>
      <trkpt lat="45.90903" lon="6.50824">
        <ele>2504</ele>
        <time>2019-02-06T10:39:52.000Z</time>
      </trkpt>
      <trkpt lat="45.90903" lon="6.50824">
        <ele>2504.1999511719</ele>
        <time>2019-02-06T10:40:01.000Z</time>
      </trkpt>
      <trkpt lat="45.90903" lon="6.50824">
        <ele>2504.3999023438</ele>
        <time>2019-02-06T10:40:04.000Z</time>
      </trkpt>
      <trkpt lat="45.90903" lon="6.50824">
        <ele>2504.6000976562</ele>
        <time>2019-02-06T10:40:09.000Z</time>
      </trkpt>
      <trkpt lat="45.90903" lon="6.50824">
        <ele>2504.8000488281</ele>
        <time>2019-02-06T10:40:20.000Z</time>
      </trkpt>
      <trkpt lat="45.90903" lon="6.50824">
        <ele>2505.1999511719</ele>
        <time>2019-02-06T10:40:28.000Z</time>
      </trkpt>
      <trkpt lat="45.90903" lon="6.50824">
        <ele>2505.1999511719</ele>
        <time>2019-02-06T10:40:34.000Z</time>
      </trkpt>
      <trkpt lat="45.90903" lon="6.50824">
        <ele>2505.1999511719</ele>
        <time>2019-02-06T10:40:43.000Z</time>
      </trkpt>
      <trkpt lat="45.90903" lon="6.50824">
        <ele>2505.3999023438</ele>
        <time>2019-02-06T10:40:46.000Z</time>
      </trkpt>
      <trkpt lat="45.90903" lon="6.50824">
        <ele>2505.3999023438</ele>
        <time>2019-02-06T10:40:55.000Z</time>
      </trkpt>
      <trkpt lat="45.90903" lon="6.50825">
        <ele>2505.3999023438</ele>
        <time>2019-02-06T10:41:06.000Z</time>
      </trkpt>
      <trkpt lat="45.90903" lon="6.50825">
        <ele>2505.6000976562</ele>
        <time>2019-02-06T10:41:13.000Z</time>
      </trkpt>
      <trkpt lat="45.90903" lon="6.50825">
        <ele>2505.1999511719</ele>
        <time>2019-02-06T10:41:22.000Z</time>
      </trkpt>
      <trkpt lat="45.90903" lon="6.50825">
        <ele>2505.6000976562</ele>
        <time>2019-02-06T10:41:32.000Z</time>
      </trkpt>
      <trkpt lat="45.90903" lon="6.50825">
        <ele>2505.1999511719</ele>
        <time>2019-02-06T10:41:39.000Z</time>
      </trkpt>
      <trkpt lat="45.90903" lon="6.50825">
        <ele>2506</ele>
        <time>2019-02-06T10:41:45.000Z</time>
      </trkpt>
      <trkpt lat="45.90903" lon="6.50825">
        <ele>2506.3999023438</ele>
        <time>2019-02-06T10:41:51.000Z</time>
      </trkpt>
      <trkpt lat="45.90903" lon="6.50825">
        <ele>2506.6000976562</ele>
        <time>2019-02-06T10:41:52.000Z</time>
      </trkpt>
      <trkpt lat="45.90903" lon="6.50825">
        <ele>2507</ele>
        <time>2019-02-06T10:42:01.000Z</time>
      </trkpt>
      <trkpt lat="45.90903" lon="6.50825">
        <ele>2507.3999023438</ele>
        <time>2019-02-06T10:42:06.000Z</time>
      </trkpt>
      <trkpt lat="45.90903" lon="6.50825">
        <ele>2508</ele>
        <time>2019-02-06T10:42:11.000Z</time>
      </trkpt>
      <trkpt lat="45.90903" lon="6.50825">
        <ele>2507.3999023438</ele>
        <time>2019-02-06T10:42:24.000Z</time>
      </trkpt>
      <trkpt lat="45.90904" lon="6.50826">
        <ele>2508.3999023438</ele>
        <time>2019-02-06T10:42:27.000Z</time>
      </trkpt>
      <trkpt lat="45.90904" lon="6.50826">
        <ele>2508.6000976562</ele>
        <time>2019-02-06T10:42:28.000Z</time>
      </trkpt>
      <trkpt lat="45.90904" lon="6.50826">
        <ele>2508.6000976562</ele>
        <time>2019-02-06T10:42:29.000Z</time>
      </trkpt>
      <trkpt lat="45.90905" lon="6.50834">
        <ele>2507.8000488281</ele>
        <time>2019-02-06T10:42:34.000Z</time>
      </trkpt>
      <trkpt lat="45.90906" lon="6.5084">
        <ele>2508.1999511719</ele>
        <time>2019-02-06T10:42:39.000Z</time>
      </trkpt>
      <trkpt lat="45.90907" lon="6.50847">
        <ele>2509.6000976562</ele>
        <time>2019-02-06T10:42:45.000Z</time>
      </trkpt>
      <trkpt lat="45.90907" lon="6.50848">
        <ele>2509.8000488281</ele>
        <time>2019-02-06T10:42:46.000Z</time>
      </trkpt>
      <trkpt lat="45.90908" lon="6.50854">
        <ele>2510.6000976562</ele>
        <time>2019-02-06T10:42:50.000Z</time>
      </trkpt>
      <trkpt lat="45.90908" lon="6.50858">
        <ele>2511.6000976562</ele>
        <time>2019-02-06T10:42:54.000Z</time>
      </trkpt>
      <trkpt lat="45.90908" lon="6.50858">
        <ele>2511.8000488281</ele>
        <time>2019-02-06T10:42:55.000Z</time>
      </trkpt>
      <trkpt lat="45.90908" lon="6.50858">
        <ele>2512.8000488281</ele>
        <time>2019-02-06T10:42:59.000Z</time>
      </trkpt>
      <trkpt lat="45.90908" lon="6.50858">
        <ele>2513.6000976562</ele>
        <time>2019-02-06T10:43:02.000Z</time>
      </trkpt>
      <trkpt lat="45.90908" lon="6.50858">
        <ele>2513.8000488281</ele>
        <time>2019-02-06T10:43:03.000Z</time>
      </trkpt>
      <trkpt lat="45.90909" lon="6.5086">
        <ele>2514.3999023438</ele>
        <time>2019-02-06T10:43:08.000Z</time>
      </trkpt>
      <trkpt lat="45.90909" lon="6.50861">
        <ele>2515</ele>
        <time>2019-02-06T10:43:10.000Z</time>
      </trkpt>
      <trkpt lat="45.90909" lon="6.50861">
        <ele>2515.8000488281</ele>
        <time>2019-02-06T10:43:17.000Z</time>
      </trkpt>
      <trkpt lat="45.90909" lon="6.50861">
        <ele>2516</ele>
        <time>2019-02-06T10:43:21.000Z</time>
      </trkpt>
      <trkpt lat="45.90909" lon="6.50861">
        <ele>2516</ele>
        <time>2019-02-06T10:43:31.000Z</time>
      </trkpt>
      <trkpt lat="45.90909" lon="6.50861">
        <ele>2515.8000488281</ele>
        <time>2019-02-06T10:43:42.000Z</time>
      </trkpt>
      <trkpt lat="45.90909" lon="6.50863">
        <ele>2515.3999023438</ele>
        <time>2019-02-06T10:43:54.000Z</time>
      </trkpt>
      <trkpt lat="45.90909" lon="6.50863">
        <ele>2516.8000488281</ele>
        <time>2019-02-06T10:44:10.000Z</time>
      </trkpt>
      <trkpt lat="45.9091" lon="6.50865">
        <ele>2515.8000488281</ele>
        <time>2019-02-06T10:44:22.000Z</time>
      </trkpt>
      <trkpt lat="45.9091" lon="6.50866">
        <ele>2515.8000488281</ele>
        <time>2019-02-06T10:44:23.000Z</time>
      </trkpt>
      <trkpt lat="45.90911" lon="6.50869">
        <ele>2516.3999023438</ele>
        <time>2019-02-06T10:44:26.000Z</time>
      </trkpt>
      <trkpt lat="45.90911" lon="6.5087">
        <ele>2517.1999511719</ele>
        <time>2019-02-06T10:44:30.000Z</time>
      </trkpt>
      <trkpt lat="45.90912" lon="6.50872">
        <ele>2517.8000488281</ele>
        <time>2019-02-06T10:44:34.000Z</time>
      </trkpt>
      <trkpt lat="45.90912" lon="6.50873">
        <ele>2518.1999511719</ele>
        <time>2019-02-06T10:44:38.000Z</time>
      </trkpt>
      <trkpt lat="45.90912" lon="6.50873">
        <ele>2518.3999023438</ele>
        <time>2019-02-06T10:44:39.000Z</time>
      </trkpt>
      <trkpt lat="45.90912" lon="6.50873">
        <ele>2518.6000976562</ele>
        <time>2019-02-06T10:44:54.000Z</time>
      </trkpt>
      <trkpt lat="45.90912" lon="6.50874">
        <ele>2518.6000976562</ele>
        <time>2019-02-06T10:45:02.000Z</time>
      </trkpt>
      <trkpt lat="45.90912" lon="6.50874">
        <ele>2518.1999511719</ele>
        <time>2019-02-06T10:45:10.000Z</time>
      </trkpt>
      <trkpt lat="45.90912" lon="6.50874">
        <ele>2519.3999023438</ele>
        <time>2019-02-06T10:45:23.000Z</time>
      </trkpt>
      <trkpt lat="45.90912" lon="6.50874">
        <ele>2518.6000976562</ele>
        <time>2019-02-06T10:45:31.000Z</time>
      </trkpt>
      <trkpt lat="45.90912" lon="6.50874">
        <ele>2518</ele>
        <time>2019-02-06T10:45:38.000Z</time>
      </trkpt>
      <trkpt lat="45.90912" lon="6.50874">
        <ele>2517.3999023438</ele>
        <time>2019-02-06T10:45:42.000Z</time>
      </trkpt>
      <trkpt lat="45.90911" lon="6.50873">
        <ele>2517.3999023438</ele>
        <time>2019-02-06T10:45:47.000Z</time>
      </trkpt>
      <trkpt lat="45.9091" lon="6.50872">
        <ele>2516.3999023438</ele>
        <time>2019-02-06T10:45:55.000Z</time>
      </trkpt>
      <trkpt lat="45.9091" lon="6.50872">
        <ele>2516.1999511719</ele>
        <time>2019-02-06T10:46:11.000Z</time>
      </trkpt>
      <trkpt lat="45.9091" lon="6.50873">
        <ele>2516.3999023438</ele>
        <time>2019-02-06T10:46:20.000Z</time>
      </trkpt>
      <trkpt lat="45.9091" lon="6.50873">
        <ele>2516.1999511719</ele>
        <time>2019-02-06T10:46:34.000Z</time>
      </trkpt>
      <trkpt lat="45.9091" lon="6.50873">
        <ele>2516</ele>
        <time>2019-02-06T10:46:44.000Z</time>
      </trkpt>
      <trkpt lat="45.9091" lon="6.50873">
        <ele>2516.1999511719</ele>
        <time>2019-02-06T10:46:59.000Z</time>
      </trkpt>
      <trkpt lat="45.9091" lon="6.50873">
        <ele>2516</ele>
        <time>2019-02-06T10:47:13.000Z</time>
      </trkpt>
      <trkpt lat="45.9091" lon="6.50873">
        <ele>2516.3999023438</ele>
        <time>2019-02-06T10:47:27.000Z</time>
      </trkpt>
      <trkpt lat="45.9091" lon="6.50873">
        <ele>2516.3999023438</ele>
        <time>2019-02-06T10:47:44.000Z</time>
      </trkpt>
      <trkpt lat="45.9091" lon="6.50873">
        <ele>2516</ele>
        <time>2019-02-06T10:48:00.000Z</time>
      </trkpt>
      <trkpt lat="45.9091" lon="6.50873">
        <ele>2516.3999023438</ele>
        <time>2019-02-06T10:48:13.000Z</time>
      </trkpt>
      <trkpt lat="45.9091" lon="6.50873">
        <ele>2516.3999023438</ele>
        <time>2019-02-06T10:48:31.000Z</time>
      </trkpt>
      <trkpt lat="45.9091" lon="6.50873">
        <ele>2516.3999023438</ele>
        <time>2019-02-06T10:48:47.000Z</time>
      </trkpt>
      <trkpt lat="45.9091" lon="6.50873">
        <ele>2516.3999023438</ele>
        <time>2019-02-06T10:49:03.000Z</time>
      </trkpt>
      <trkpt lat="45.9091" lon="6.50873">
        <ele>2516.3999023438</ele>
        <time>2019-02-06T10:49:19.000Z</time>
      </trkpt>
      <trkpt lat="45.9091" lon="6.50873">
        <ele>2516.1999511719</ele>
        <time>2019-02-06T10:49:33.000Z</time>
      </trkpt>
      <trkpt lat="45.9091" lon="6.50873">
        <ele>2516.3999023438</ele>
        <time>2019-02-06T10:49:48.000Z</time>
      </trkpt>
      <trkpt lat="45.9091" lon="6.50873">
        <ele>2516.3999023438</ele>
        <time>2019-02-06T10:49:50.000Z</time>
      </trkpt>
      <trkpt lat="45.9091" lon="6.50873">
        <ele>2516.3999023438</ele>
        <time>2019-02-06T10:50:04.000Z</time>
      </trkpt>
      <trkpt lat="45.9091" lon="6.50873">
        <ele>2516.3999023438</ele>
        <time>2019-02-06T10:50:19.000Z</time>
      </trkpt>
      <trkpt lat="45.9091" lon="6.50873">
        <ele>2516.3999023438</ele>
        <time>2019-02-06T10:50:33.000Z</time>
      </trkpt>
      <trkpt lat="45.9091" lon="6.50873">
        <ele>2516.3999023438</ele>
        <time>2019-02-06T10:50:48.000Z</time>
      </trkpt>
      <trkpt lat="45.9091" lon="6.50872">
        <ele>2516.1999511719</ele>
        <time>2019-02-06T10:51:04.000Z</time>
      </trkpt>
      <trkpt lat="45.9091" lon="6.50872">
        <ele>2516.6000976562</ele>
        <time>2019-02-06T10:51:19.000Z</time>
      </trkpt>
      <trkpt lat="45.9091" lon="6.50872">
        <ele>2516.6000976562</ele>
        <time>2019-02-06T10:51:30.000Z</time>
      </trkpt>
      <trkpt lat="45.9091" lon="6.50873">
        <ele>2516.6000976562</ele>
        <time>2019-02-06T10:51:47.000Z</time>
      </trkpt>
      <trkpt lat="45.9091" lon="6.50873">
        <ele>2516.6000976562</ele>
        <time>2019-02-06T10:52:04.000Z</time>
      </trkpt>
      <trkpt lat="45.9091" lon="6.50873">
        <ele>2516.6000976562</ele>
        <time>2019-02-06T10:52:20.000Z</time>
      </trkpt>
      <trkpt lat="45.9091" lon="6.50873">
        <ele>2516.3999023438</ele>
        <time>2019-02-06T10:52:32.000Z</time>
      </trkpt>
      <trkpt lat="45.9091" lon="6.50873">
        <ele>2516.6000976562</ele>
        <time>2019-02-06T10:52:45.000Z</time>
      </trkpt>
      <trkpt lat="45.9091" lon="6.50873">
        <ele>2516.6000976562</ele>
        <time>2019-02-06T10:53:00.000Z</time>
      </trkpt>
      <trkpt lat="45.9091" lon="6.50873">
        <ele>2516.6000976562</ele>
        <time>2019-02-06T10:53:12.000Z</time>
      </trkpt>
      <trkpt lat="45.9091" lon="6.50873">
        <ele>2516.3999023438</ele>
        <time>2019-02-06T10:53:22.000Z</time>
      </trkpt>
      <trkpt lat="45.9091" lon="6.50873">
        <ele>2516.1999511719</ele>
        <time>2019-02-06T10:53:31.000Z</time>
      </trkpt>
      <trkpt lat="45.9091" lon="6.50873">
        <ele>2516.3999023438</ele>
        <time>2019-02-06T10:53:42.000Z</time>
      </trkpt>
      <trkpt lat="45.9091" lon="6.50873">
        <ele>2516.6000976562</ele>
        <time>2019-02-06T10:53:53.000Z</time>
      </trkpt>
      <trkpt lat="45.9091" lon="6.50873">
        <ele>2516.6000976562</ele>
        <time>2019-02-06T10:54:05.000Z</time>
      </trkpt>
      <trkpt lat="45.9091" lon="6.50873">
        <ele>2516.3999023438</ele>
        <time>2019-02-06T10:54:19.000Z</time>
      </trkpt>
      <trkpt lat="45.9091" lon="6.50873">
        <ele>2516.6000976562</ele>
        <time>2019-02-06T10:54:33.000Z</time>
      </trkpt>
      <trkpt lat="45.9091" lon="6.50873">
        <ele>2516.3999023438</ele>
        <time>2019-02-06T10:54:50.000Z</time>
      </trkpt>
      <trkpt lat="45.9091" lon="6.50873">
        <ele>2516.6000976562</ele>
        <time>2019-02-06T10:55:04.000Z</time>
      </trkpt>
      <trkpt lat="45.9091" lon="6.50873">
        <ele>2516.3999023438</ele>
        <time>2019-02-06T10:55:19.000Z</time>
      </trkpt>
      <trkpt lat="45.9091" lon="6.50873">
        <ele>2516.3999023438</ele>
        <time>2019-02-06T10:55:31.000Z</time>
      </trkpt>
      <trkpt lat="45.9091" lon="6.50872">
        <ele>2516.1999511719</ele>
        <time>2019-02-06T10:55:45.000Z</time>
      </trkpt>
      <trkpt lat="45.9091" lon="6.50872">
        <ele>2516.6000976562</ele>
        <time>2019-02-06T10:56:01.000Z</time>
      </trkpt>
      <trkpt lat="45.9091" lon="6.50874">
        <ele>2516.1999511719</ele>
        <time>2019-02-06T10:56:14.000Z</time>
      </trkpt>
      <trkpt lat="45.9091" lon="6.50874">
        <ele>2516.1999511719</ele>
        <time>2019-02-06T10:56:28.000Z</time>
      </trkpt>
      <trkpt lat="45.9091" lon="6.50874">
        <ele>2516.8000488281</ele>
        <time>2019-02-06T10:56:40.000Z</time>
      </trkpt>
      <trkpt lat="45.9091" lon="6.50874">
        <ele>2516.8000488281</ele>
        <time>2019-02-06T10:56:53.000Z</time>
      </trkpt>
      <trkpt lat="45.9091" lon="6.50874">
        <ele>2516.3999023438</ele>
        <time>2019-02-06T10:57:09.000Z</time>
      </trkpt>
      <trkpt lat="45.9091" lon="6.50874">
        <ele>2516.3999023438</ele>
        <time>2019-02-06T10:57:24.000Z</time>
      </trkpt>
      <trkpt lat="45.9091" lon="6.50874">
        <ele>2516.6000976562</ele>
        <time>2019-02-06T10:57:37.000Z</time>
      </trkpt>
      <trkpt lat="45.9091" lon="6.50874">
        <ele>2516.1999511719</ele>
        <time>2019-02-06T10:57:48.000Z</time>
      </trkpt>
      <trkpt lat="45.9091" lon="6.50874">
        <ele>2516.3999023438</ele>
        <time>2019-02-06T10:58:06.000Z</time>
      </trkpt>
      <trkpt lat="45.9091" lon="6.50874">
        <ele>2516.3999023438</ele>
        <time>2019-02-06T10:58:25.000Z</time>
      </trkpt>
      <trkpt lat="45.9091" lon="6.50874">
        <ele>2516.3999023438</ele>
        <time>2019-02-06T10:58:36.000Z</time>
      </trkpt>
      <trkpt lat="45.9091" lon="6.50874">
        <ele>2516.3999023438</ele>
        <time>2019-02-06T10:58:39.000Z</time>
      </trkpt>
      <trkpt lat="45.9091" lon="6.50874">
        <ele>2516</ele>
        <time>2019-02-06T10:58:52.000Z</time>
      </trkpt>
      <trkpt lat="45.9091" lon="6.50874">
        <ele>2517.1999511719</ele>
        <time>2019-02-06T10:58:59.000Z</time>
      </trkpt>
      <trkpt lat="45.9091" lon="6.50874">
        <ele>2516.3999023438</ele>
        <time>2019-02-06T10:59:14.000Z</time>
      </trkpt>
      <trkpt lat="45.90909" lon="6.50874">
        <ele>2516.3999023438</ele>
        <time>2019-02-06T10:59:33.000Z</time>
      </trkpt>
      <trkpt lat="45.90909" lon="6.50874">
        <ele>2516.3999023438</ele>
        <time>2019-02-06T10:59:51.000Z</time>
      </trkpt>
      <trkpt lat="45.90909" lon="6.50874">
        <ele>2516.1999511719</ele>
        <time>2019-02-06T11:00:11.000Z</time>
      </trkpt>
      <trkpt lat="45.9091" lon="6.50874">
        <ele>2516.3999023438</ele>
        <time>2019-02-06T11:00:23.000Z</time>
      </trkpt>
      <trkpt lat="45.9091" lon="6.50874">
        <ele>2516.6000976562</ele>
        <time>2019-02-06T11:00:40.000Z</time>
      </trkpt>
      <trkpt lat="45.90909" lon="6.50873">
        <ele>2516.6000976562</ele>
        <time>2019-02-06T11:00:53.000Z</time>
      </trkpt>
      <trkpt lat="45.90909" lon="6.50873">
        <ele>2516.6000976562</ele>
        <time>2019-02-06T11:01:04.000Z</time>
      </trkpt>
      <trkpt lat="45.90909" lon="6.50873">
        <ele>2516.6000976562</ele>
        <time>2019-02-06T11:01:21.000Z</time>
      </trkpt>
      <trkpt lat="45.9091" lon="6.50873">
        <ele>2516.6000976562</ele>
        <time>2019-02-06T11:01:35.000Z</time>
      </trkpt>
      <trkpt lat="45.9091" lon="6.50873">
        <ele>2516.8000488281</ele>
        <time>2019-02-06T11:01:47.000Z</time>
      </trkpt>
      <trkpt lat="45.9091" lon="6.50873">
        <ele>2516.8000488281</ele>
        <time>2019-02-06T11:02:03.000Z</time>
      </trkpt>
      <trkpt lat="45.9091" lon="6.50873">
        <ele>2516.6000976562</ele>
        <time>2019-02-06T11:02:17.000Z</time>
      </trkpt>
      <trkpt lat="45.9091" lon="6.50873">
        <ele>2516</ele>
        <time>2019-02-06T11:02:35.000Z</time>
      </trkpt>
      <trkpt lat="45.9091" lon="6.50873">
        <ele>2516.8000488281</ele>
        <time>2019-02-06T11:02:47.000Z</time>
      </trkpt>
      <trkpt lat="45.9091" lon="6.50873">
        <ele>2516.6000976562</ele>
        <time>2019-02-06T11:03:02.000Z</time>
      </trkpt>
      <trkpt lat="45.9091" lon="6.50873">
        <ele>2516.8000488281</ele>
        <time>2019-02-06T11:03:14.000Z</time>
      </trkpt>
      <trkpt lat="45.9091" lon="6.50873">
        <ele>2516.3999023438</ele>
        <time>2019-02-06T11:03:30.000Z</time>
      </trkpt>
      <trkpt lat="45.9091" lon="6.50872">
        <ele>2516.6000976562</ele>
        <time>2019-02-06T11:03:43.000Z</time>
      </trkpt>
      <trkpt lat="45.9091" lon="6.50872">
        <ele>2516.3999023438</ele>
        <time>2019-02-06T11:03:55.000Z</time>
      </trkpt>
      <trkpt lat="45.9091" lon="6.50872">
        <ele>2516.1999511719</ele>
        <time>2019-02-06T11:04:07.000Z</time>
      </trkpt>
      <trkpt lat="45.9091" lon="6.50872">
        <ele>2516.3999023438</ele>
        <time>2019-02-06T11:04:26.000Z</time>
      </trkpt>
      <trkpt lat="45.9091" lon="6.50872">
        <ele>2516.3999023438</ele>
        <time>2019-02-06T11:04:45.000Z</time>
      </trkpt>
      <trkpt lat="45.9091" lon="6.5087">
        <ele>2516.1999511719</ele>
        <time>2019-02-06T11:04:55.000Z</time>
      </trkpt>
      <trkpt lat="45.90911" lon="6.50867">
        <ele>2515.3999023438</ele>
        <time>2019-02-06T11:04:59.000Z</time>
      </trkpt>
      <trkpt lat="45.90912" lon="6.50866">
        <ele>2515</ele>
        <time>2019-02-06T11:05:00.000Z</time>
      </trkpt>
      <trkpt lat="45.90914" lon="6.50863">
        <ele>2513.8000488281</ele>
        <time>2019-02-06T11:05:04.000Z</time>
      </trkpt>
      <trkpt lat="45.90914" lon="6.50861">
        <ele>2513.6000976562</ele>
        <time>2019-02-06T11:05:05.000Z</time>
      </trkpt>
      <trkpt lat="45.90915" lon="6.50857">
        <ele>2513</ele>
        <time>2019-02-06T11:05:08.000Z</time>
      </trkpt>
      <trkpt lat="45.90917" lon="6.50857">
        <ele>2512.6000976562</ele>
        <time>2019-02-06T11:05:09.000Z</time>
      </trkpt>
      <trkpt lat="45.9092" lon="6.50855">
        <ele>2511.1999511719</ele>
        <time>2019-02-06T11:05:11.000Z</time>
      </trkpt>
      <trkpt lat="45.9092" lon="6.50854">
        <ele>2510.6000976562</ele>
        <time>2019-02-06T11:05:12.000Z</time>
      </trkpt>
      <trkpt lat="45.90921" lon="6.50852">
        <ele>2509.8000488281</ele>
        <time>2019-02-06T11:05:14.000Z</time>
      </trkpt>
      <trkpt lat="45.90922" lon="6.50851">
        <ele>2509.1999511719</ele>
        <time>2019-02-06T11:05:15.000Z</time>
      </trkpt>
      <trkpt lat="45.90923" lon="6.50848">
        <ele>2508</ele>
        <time>2019-02-06T11:05:16.000Z</time>
      </trkpt>
      <trkpt lat="45.90923" lon="6.50846">
        <ele>2507</ele>
        <time>2019-02-06T11:05:17.000Z</time>
      </trkpt>
      <trkpt lat="45.90921" lon="6.50843">
        <ele>2505.3999023438</ele>
        <time>2019-02-06T11:05:19.000Z</time>
      </trkpt>
      <trkpt lat="45.9092" lon="6.50841">
        <ele>2504.1999511719</ele>
        <time>2019-02-06T11:05:21.000Z</time>
      </trkpt>
      <trkpt lat="45.90919" lon="6.50839">
        <ele>2502.3999023438</ele>
        <time>2019-02-06T11:05:23.000Z</time>
      </trkpt>
      <trkpt lat="45.90919" lon="6.50837">
        <ele>2501.6000976562</ele>
        <time>2019-02-06T11:05:24.000Z</time>
      </trkpt>
      <trkpt lat="45.90918" lon="6.50835">
        <ele>2501.3999023438</ele>
        <time>2019-02-06T11:05:25.000Z</time>
      </trkpt>
      <trkpt lat="45.90917" lon="6.50825">
        <ele>2500.1999511719</ele>
        <time>2019-02-06T11:05:29.000Z</time>
      </trkpt>
      <trkpt lat="45.90915" lon="6.50818">
        <ele>2498.8000488281</ele>
        <time>2019-02-06T11:05:33.000Z</time>
      </trkpt>
      <trkpt lat="45.90916" lon="6.50817">
        <ele>2498.3999023438</ele>
        <time>2019-02-06T11:05:34.000Z</time>
      </trkpt>
      <trkpt lat="45.90916" lon="6.50818">
        <ele>2497.6000976562</ele>
        <time>2019-02-06T11:05:36.000Z</time>
      </trkpt>
      <trkpt lat="45.90917" lon="6.50815">
        <ele>2497</ele>
        <time>2019-02-06T11:05:37.000Z</time>
      </trkpt>
      <trkpt lat="45.90917" lon="6.50811">
        <ele>2496.3999023438</ele>
        <time>2019-02-06T11:05:38.000Z</time>
      </trkpt>
      <trkpt lat="45.90915" lon="6.50801">
        <ele>2495.1999511719</ele>
        <time>2019-02-06T11:05:41.000Z</time>
      </trkpt>
      <trkpt lat="45.90915" lon="6.508">
        <ele>2494.8000488281</ele>
        <time>2019-02-06T11:05:42.000Z</time>
      </trkpt>
      <trkpt lat="45.90916" lon="6.50799">
        <ele>2494</ele>
        <time>2019-02-06T11:05:43.000Z</time>
      </trkpt>
      <trkpt lat="45.90916" lon="6.50798">
        <ele>2493</ele>
        <time>2019-02-06T11:05:44.000Z</time>
      </trkpt>
      <trkpt lat="45.90917" lon="6.50795">
        <ele>2492</ele>
        <time>2019-02-06T11:05:45.000Z</time>
      </trkpt>
      <trkpt lat="45.90916" lon="6.50788">
        <ele>2490.1999511719</ele>
        <time>2019-02-06T11:05:47.000Z</time>
      </trkpt>
      <trkpt lat="45.90915" lon="6.50785">
        <ele>2489</ele>
        <time>2019-02-06T11:05:48.000Z</time>
      </trkpt>
      <trkpt lat="45.90914" lon="6.50782">
        <ele>2488.3999023438</ele>
        <time>2019-02-06T11:05:49.000Z</time>
      </trkpt>
      <trkpt lat="45.90914" lon="6.50779">
        <ele>2487.3999023438</ele>
        <time>2019-02-06T11:05:50.000Z</time>
      </trkpt>
      <trkpt lat="45.90913" lon="6.50775">
        <ele>2485.6000976562</ele>
        <time>2019-02-06T11:05:52.000Z</time>
      </trkpt>
      <trkpt lat="45.90913" lon="6.50773">
        <ele>2484.8000488281</ele>
        <time>2019-02-06T11:05:53.000Z</time>
      </trkpt>
      <trkpt lat="45.90914" lon="6.50774">
        <ele>2484.1999511719</ele>
        <time>2019-02-06T11:05:54.000Z</time>
      </trkpt>
      <trkpt lat="45.90915" lon="6.50774">
        <ele>2483.3999023438</ele>
        <time>2019-02-06T11:05:55.000Z</time>
      </trkpt>
      <trkpt lat="45.90916" lon="6.50772">
        <ele>2482.6000976562</ele>
        <time>2019-02-06T11:05:56.000Z</time>
      </trkpt>
      <trkpt lat="45.90917" lon="6.50765">
        <ele>2481</ele>
        <time>2019-02-06T11:05:58.000Z</time>
      </trkpt>
      <trkpt lat="45.90916" lon="6.50762">
        <ele>2479.8000488281</ele>
        <time>2019-02-06T11:06:00.000Z</time>
      </trkpt>
      <trkpt lat="45.90917" lon="6.50759">
        <ele>2479</ele>
        <time>2019-02-06T11:06:01.000Z</time>
      </trkpt>
      <trkpt lat="45.90917" lon="6.50755">
        <ele>2477.8000488281</ele>
        <time>2019-02-06T11:06:02.000Z</time>
      </trkpt>
      <trkpt lat="45.90916" lon="6.5075">
        <ele>2476.1999511719</ele>
        <time>2019-02-06T11:06:04.000Z</time>
      </trkpt>
      <trkpt lat="45.90916" lon="6.50749">
        <ele>2475.6000976562</ele>
        <time>2019-02-06T11:06:05.000Z</time>
      </trkpt>
      <trkpt lat="45.90917" lon="6.50749">
        <ele>2475</ele>
        <time>2019-02-06T11:06:06.000Z</time>
      </trkpt>
      <trkpt lat="45.90918" lon="6.50749">
        <ele>2474.1999511719</ele>
        <time>2019-02-06T11:06:07.000Z</time>
      </trkpt>
      <trkpt lat="45.90919" lon="6.50749">
        <ele>2473.6000976562</ele>
        <time>2019-02-06T11:06:08.000Z</time>
      </trkpt>
      <trkpt lat="45.90923" lon="6.50744">
        <ele>2471.6000976562</ele>
        <time>2019-02-06T11:06:10.000Z</time>
      </trkpt>
      <trkpt lat="45.90929" lon="6.50743">
        <ele>2469.8000488281</ele>
        <time>2019-02-06T11:06:12.000Z</time>
      </trkpt>
      <trkpt lat="45.90932" lon="6.5074">
        <ele>2468.3999023438</ele>
        <time>2019-02-06T11:06:13.000Z</time>
      </trkpt>
      <trkpt lat="45.90935" lon="6.50739">
        <ele>2466.6000976562</ele>
        <time>2019-02-06T11:06:14.000Z</time>
      </trkpt>
      <trkpt lat="45.90937" lon="6.50738">
        <ele>2465</ele>
        <time>2019-02-06T11:06:15.000Z</time>
      </trkpt>
      <trkpt lat="45.90939" lon="6.50735">
        <ele>2463.1999511719</ele>
        <time>2019-02-06T11:06:16.000Z</time>
      </trkpt>
      <trkpt lat="45.90941" lon="6.5073">
        <ele>2461.1999511719</ele>
        <time>2019-02-06T11:06:17.000Z</time>
      </trkpt>
      <trkpt lat="45.90942" lon="6.50726">
        <ele>2459.1999511719</ele>
        <time>2019-02-06T11:06:18.000Z</time>
      </trkpt>
      <trkpt lat="45.90943" lon="6.50723">
        <ele>2457.6000976562</ele>
        <time>2019-02-06T11:06:19.000Z</time>
      </trkpt>
      <trkpt lat="45.90945" lon="6.50721">
        <ele>2456.3999023438</ele>
        <time>2019-02-06T11:06:20.000Z</time>
      </trkpt>
      <trkpt lat="45.90947" lon="6.50717">
        <ele>2454.8000488281</ele>
        <time>2019-02-06T11:06:21.000Z</time>
      </trkpt>
      <trkpt lat="45.9095" lon="6.50712">
        <ele>2453.3999023438</ele>
        <time>2019-02-06T11:06:22.000Z</time>
      </trkpt>
      <trkpt lat="45.90952" lon="6.50706">
        <ele>2452.1999511719</ele>
        <time>2019-02-06T11:06:23.000Z</time>
      </trkpt>
      <trkpt lat="45.90955" lon="6.50703">
        <ele>2451</ele>
        <time>2019-02-06T11:06:24.000Z</time>
      </trkpt>
      <trkpt lat="45.90957" lon="6.50701">
        <ele>2449.6000976562</ele>
        <time>2019-02-06T11:06:25.000Z</time>
      </trkpt>
      <trkpt lat="45.90961" lon="6.50697">
        <ele>2448.1999511719</ele>
        <time>2019-02-06T11:06:26.000Z</time>
      </trkpt>
      <trkpt lat="45.90963" lon="6.50694">
        <ele>2446.6000976562</ele>
        <time>2019-02-06T11:06:27.000Z</time>
      </trkpt>
      <trkpt lat="45.90965" lon="6.50695">
        <ele>2445</ele>
        <time>2019-02-06T11:06:28.000Z</time>
      </trkpt>
      <trkpt lat="45.90966" lon="6.50696">
        <ele>2443.3999023438</ele>
        <time>2019-02-06T11:06:29.000Z</time>
      </trkpt>
      <trkpt lat="45.90966" lon="6.50696">
        <ele>2441.6000976562</ele>
        <time>2019-02-06T11:06:30.000Z</time>
      </trkpt>
      <trkpt lat="45.90966" lon="6.50696">
        <ele>2439.6000976562</ele>
        <time>2019-02-06T11:06:31.000Z</time>
      </trkpt>
      <trkpt lat="45.90966" lon="6.50696">
        <ele>2438</ele>
        <time>2019-02-06T11:06:32.000Z</time>
      </trkpt>
      <trkpt lat="45.90966" lon="6.50696">
        <ele>2436.8000488281</ele>
        <time>2019-02-06T11:06:33.000Z</time>
      </trkpt>
      <trkpt lat="45.90966" lon="6.50696">
        <ele>2435.8000488281</ele>
        <time>2019-02-06T11:06:35.000Z</time>
      </trkpt>
      <trkpt lat="45.9097" lon="6.50693">
        <ele>2435.6000976562</ele>
        <time>2019-02-06T11:06:43.000Z</time>
      </trkpt>
      <trkpt lat="45.90978" lon="6.50686">
        <ele>2435.3999023438</ele>
        <time>2019-02-06T11:06:46.000Z</time>
      </trkpt>
      <trkpt lat="45.90982" lon="6.50682">
        <ele>2434.6000976562</ele>
        <time>2019-02-06T11:06:47.000Z</time>
      </trkpt>
      <trkpt lat="45.90985" lon="6.50683">
        <ele>2433.3999023438</ele>
        <time>2019-02-06T11:06:48.000Z</time>
      </trkpt>
      <trkpt lat="45.90989" lon="6.50686">
        <ele>2432.1999511719</ele>
        <time>2019-02-06T11:06:49.000Z</time>
      </trkpt>
      <trkpt lat="45.90993" lon="6.5069">
        <ele>2430.6000976562</ele>
        <time>2019-02-06T11:06:50.000Z</time>
      </trkpt>
      <trkpt lat="45.90996" lon="6.50694">
        <ele>2428.8000488281</ele>
        <time>2019-02-06T11:06:51.000Z</time>
      </trkpt>
      <trkpt lat="45.90999" lon="6.50698">
        <ele>2426.8000488281</ele>
        <time>2019-02-06T11:06:52.000Z</time>
      </trkpt>
      <trkpt lat="45.91002" lon="6.50702">
        <ele>2425.1999511719</ele>
        <time>2019-02-06T11:06:53.000Z</time>
      </trkpt>
      <trkpt lat="45.91005" lon="6.50705">
        <ele>2423.8000488281</ele>
        <time>2019-02-06T11:06:54.000Z</time>
      </trkpt>
      <trkpt lat="45.91007" lon="6.50707">
        <ele>2422.8000488281</ele>
        <time>2019-02-06T11:06:55.000Z</time>
      </trkpt>
      <trkpt lat="45.9101" lon="6.50708">
        <ele>2421.6000976562</ele>
        <time>2019-02-06T11:06:56.000Z</time>
      </trkpt>
      <trkpt lat="45.91012" lon="6.50707">
        <ele>2420.3999023438</ele>
        <time>2019-02-06T11:06:57.000Z</time>
      </trkpt>
      <trkpt lat="45.91015" lon="6.50705">
        <ele>2419.3999023438</ele>
        <time>2019-02-06T11:06:58.000Z</time>
      </trkpt>
      <trkpt lat="45.91017" lon="6.50702">
        <ele>2418.6000976562</ele>
        <time>2019-02-06T11:06:59.000Z</time>
      </trkpt>
      <trkpt lat="45.91019" lon="6.50701">
        <ele>2417.6000976562</ele>
        <time>2019-02-06T11:07:00.000Z</time>
      </trkpt>
      <trkpt lat="45.91023" lon="6.50701">
        <ele>2415.6000976562</ele>
        <time>2019-02-06T11:07:02.000Z</time>
      </trkpt>
      <trkpt lat="45.91026" lon="6.50704">
        <ele>2414.3999023438</ele>
        <time>2019-02-06T11:07:03.000Z</time>
      </trkpt>
      <trkpt lat="45.91028" lon="6.50705">
        <ele>2413.1999511719</ele>
        <time>2019-02-06T11:07:04.000Z</time>
      </trkpt>
      <trkpt lat="45.9103" lon="6.50707">
        <ele>2411.6000976562</ele>
        <time>2019-02-06T11:07:06.000Z</time>
      </trkpt>
      <trkpt lat="45.9103" lon="6.50708">
        <ele>2410.8000488281</ele>
        <time>2019-02-06T11:07:07.000Z</time>
      </trkpt>
      <trkpt lat="45.9103" lon="6.50708">
        <ele>2410</ele>
        <time>2019-02-06T11:07:08.000Z</time>
      </trkpt>
      <trkpt lat="45.91029" lon="6.50708">
        <ele>2408.8000488281</ele>
        <time>2019-02-06T11:07:10.000Z</time>
      </trkpt>
      <trkpt lat="45.91028" lon="6.50709">
        <ele>2408.1999511719</ele>
        <time>2019-02-06T11:07:15.000Z</time>
      </trkpt>
      <trkpt lat="45.91035" lon="6.50712">
        <ele>2408.1999511719</ele>
        <time>2019-02-06T11:07:19.000Z</time>
      </trkpt>
      <trkpt lat="45.91039" lon="6.50715">
        <ele>2407.6000976562</ele>
        <time>2019-02-06T11:07:21.000Z</time>
      </trkpt>
      <trkpt lat="45.91041" lon="6.50716">
        <ele>2406.3999023438</ele>
        <time>2019-02-06T11:07:23.000Z</time>
      </trkpt>
      <trkpt lat="45.91042" lon="6.50716">
        <ele>2405.3999023438</ele>
        <time>2019-02-06T11:07:24.000Z</time>
      </trkpt>
      <trkpt lat="45.91042" lon="6.50716">
        <ele>2404.1999511719</ele>
        <time>2019-02-06T11:07:26.000Z</time>
      </trkpt>
      <trkpt lat="45.91042" lon="6.50715">
        <ele>2403.8000488281</ele>
        <time>2019-02-06T11:07:27.000Z</time>
      </trkpt>
      <trkpt lat="45.91042" lon="6.50713">
        <ele>2403.6000976562</ele>
        <time>2019-02-06T11:07:28.000Z</time>
      </trkpt>
      <trkpt lat="45.91044" lon="6.50709">
        <ele>2403.1999511719</ele>
        <time>2019-02-06T11:07:30.000Z</time>
      </trkpt>
      <trkpt lat="45.9105" lon="6.50712">
        <ele>2402</ele>
        <time>2019-02-06T11:07:32.000Z</time>
      </trkpt>
      <trkpt lat="45.91052" lon="6.50713">
        <ele>2401</ele>
        <time>2019-02-06T11:07:33.000Z</time>
      </trkpt>
      <trkpt lat="45.91053" lon="6.50714">
        <ele>2399.8000488281</ele>
        <time>2019-02-06T11:07:34.000Z</time>
      </trkpt>
      <trkpt lat="45.91055" lon="6.50716">
        <ele>2398.1999511719</ele>
        <time>2019-02-06T11:07:36.000Z</time>
      </trkpt>
      <trkpt lat="45.91059" lon="6.50719">
        <ele>2396.8000488281</ele>
        <time>2019-02-06T11:07:38.000Z</time>
      </trkpt>
      <trkpt lat="45.91061" lon="6.50721">
        <ele>2395.3999023438</ele>
        <time>2019-02-06T11:07:40.000Z</time>
      </trkpt>
      <trkpt lat="45.91062" lon="6.50721">
        <ele>2394</ele>
        <time>2019-02-06T11:07:42.000Z</time>
      </trkpt>
      <trkpt lat="45.91063" lon="6.50717">
        <ele>2393.3999023438</ele>
        <time>2019-02-06T11:07:43.000Z</time>
      </trkpt>
      <trkpt lat="45.91064" lon="6.50713">
        <ele>2392.8000488281</ele>
        <time>2019-02-06T11:07:44.000Z</time>
      </trkpt>
      <trkpt lat="45.91069" lon="6.5071">
        <ele>2392.1999511719</ele>
        <time>2019-02-06T11:07:46.000Z</time>
      </trkpt>
      <trkpt lat="45.91071" lon="6.50707">
        <ele>2391.8000488281</ele>
        <time>2019-02-06T11:07:47.000Z</time>
      </trkpt>
      <trkpt lat="45.91071" lon="6.50702">
        <ele>2389.3999023438</ele>
        <time>2019-02-06T11:07:48.000Z</time>
      </trkpt>
      <trkpt lat="45.91072" lon="6.50699">
        <ele>2388</ele>
        <time>2019-02-06T11:07:49.000Z</time>
      </trkpt>
      <trkpt lat="45.91074" lon="6.50698">
        <ele>2386.8000488281</ele>
        <time>2019-02-06T11:07:50.000Z</time>
      </trkpt>
      <trkpt lat="45.91077" lon="6.50697">
        <ele>2385.3999023438</ele>
        <time>2019-02-06T11:07:51.000Z</time>
      </trkpt>
      <trkpt lat="45.91079" lon="6.50693">
        <ele>2383.3999023438</ele>
        <time>2019-02-06T11:07:52.000Z</time>
      </trkpt>
      <trkpt lat="45.9108" lon="6.50689">
        <ele>2381.3999023438</ele>
        <time>2019-02-06T11:07:53.000Z</time>
      </trkpt>
      <trkpt lat="45.91081" lon="6.50687">
        <ele>2379.6000976562</ele>
        <time>2019-02-06T11:07:54.000Z</time>
      </trkpt>
      <trkpt lat="45.91083" lon="6.50685">
        <ele>2378.1999511719</ele>
        <time>2019-02-06T11:07:55.000Z</time>
      </trkpt>
      <trkpt lat="45.91086" lon="6.50682">
        <ele>2376.6000976562</ele>
        <time>2019-02-06T11:07:56.000Z</time>
      </trkpt>
      <trkpt lat="45.91088" lon="6.50679">
        <ele>2374.6000976562</ele>
        <time>2019-02-06T11:07:57.000Z</time>
      </trkpt>
      <trkpt lat="45.9109" lon="6.50677">
        <ele>2372.6000976562</ele>
        <time>2019-02-06T11:07:58.000Z</time>
      </trkpt>
      <trkpt lat="45.91093" lon="6.50676">
        <ele>2370.8000488281</ele>
        <time>2019-02-06T11:07:59.000Z</time>
      </trkpt>
      <trkpt lat="45.91095" lon="6.50672">
        <ele>2368.6000976562</ele>
        <time>2019-02-06T11:08:00.000Z</time>
      </trkpt>
      <trkpt lat="45.91097" lon="6.5067">
        <ele>2366.6000976562</ele>
        <time>2019-02-06T11:08:01.000Z</time>
      </trkpt>
      <trkpt lat="45.91099" lon="6.50669">
        <ele>2364.8000488281</ele>
        <time>2019-02-06T11:08:02.000Z</time>
      </trkpt>
      <trkpt lat="45.91102" lon="6.50668">
        <ele>2363.1999511719</ele>
        <time>2019-02-06T11:08:03.000Z</time>
      </trkpt>
      <trkpt lat="45.91104" lon="6.50665">
        <ele>2361.1999511719</ele>
        <time>2019-02-06T11:08:04.000Z</time>
      </trkpt>
      <trkpt lat="45.91106" lon="6.50663">
        <ele>2359.3999023438</ele>
        <time>2019-02-06T11:08:05.000Z</time>
      </trkpt>
      <trkpt lat="45.91109" lon="6.50662">
        <ele>2357.6000976562</ele>
        <time>2019-02-06T11:08:06.000Z</time>
      </trkpt>
      <trkpt lat="45.91113" lon="6.50662">
        <ele>2356.1999511719</ele>
        <time>2019-02-06T11:08:07.000Z</time>
      </trkpt>
      <trkpt lat="45.91116" lon="6.5066">
        <ele>2354.3999023438</ele>
        <time>2019-02-06T11:08:08.000Z</time>
      </trkpt>
      <trkpt lat="45.91119" lon="6.50659">
        <ele>2352.3999023438</ele>
        <time>2019-02-06T11:08:09.000Z</time>
      </trkpt>
      <trkpt lat="45.91122" lon="6.5066">
        <ele>2350.6000976562</ele>
        <time>2019-02-06T11:08:10.000Z</time>
      </trkpt>
      <trkpt lat="45.91123" lon="6.50661">
        <ele>2349</ele>
        <time>2019-02-06T11:08:11.000Z</time>
      </trkpt>
      <trkpt lat="45.91123" lon="6.50661">
        <ele>2345</ele>
        <time>2019-02-06T11:08:12.000Z</time>
      </trkpt>
      <trkpt lat="45.91123" lon="6.50661">
        <ele>2343</ele>
        <time>2019-02-06T11:08:13.000Z</time>
      </trkpt>
      <trkpt lat="45.91123" lon="6.50661">
        <ele>2341.6000976562</ele>
        <time>2019-02-06T11:08:14.000Z</time>
      </trkpt>
      <trkpt lat="45.91123" lon="6.50661">
        <ele>2340</ele>
        <time>2019-02-06T11:08:16.000Z</time>
      </trkpt>
      <trkpt lat="45.91123" lon="6.50661">
        <ele>2339.8000488281</ele>
        <time>2019-02-06T11:08:17.000Z</time>
      </trkpt>
      <trkpt lat="45.91125" lon="6.50657">
        <ele>2339.6000976562</ele>
        <time>2019-02-06T11:08:18.000Z</time>
      </trkpt>
      <trkpt lat="45.91135" lon="6.50649">
        <ele>2338.8000488281</ele>
        <time>2019-02-06T11:08:21.000Z</time>
      </trkpt>
      <trkpt lat="45.91138" lon="6.50645">
        <ele>2337.8000488281</ele>
        <time>2019-02-06T11:08:22.000Z</time>
      </trkpt>
      <trkpt lat="45.91142" lon="6.50643">
        <ele>2336.3999023438</ele>
        <time>2019-02-06T11:08:23.000Z</time>
      </trkpt>
      <trkpt lat="45.91147" lon="6.50645">
        <ele>2335</ele>
        <time>2019-02-06T11:08:24.000Z</time>
      </trkpt>
      <trkpt lat="45.9115" lon="6.50647">
        <ele>2333.1999511719</ele>
        <time>2019-02-06T11:08:25.000Z</time>
      </trkpt>
      <trkpt lat="45.91151" lon="6.50649">
        <ele>2331.1999511719</ele>
        <time>2019-02-06T11:08:26.000Z</time>
      </trkpt>
      <trkpt lat="45.91151" lon="6.50649">
        <ele>2329</ele>
        <time>2019-02-06T11:08:27.000Z</time>
      </trkpt>
      <trkpt lat="45.9115" lon="6.50648">
        <ele>2327</ele>
        <time>2019-02-06T11:08:28.000Z</time>
      </trkpt>
      <trkpt lat="45.9115" lon="6.50648">
        <ele>2325.1999511719</ele>
        <time>2019-02-06T11:08:29.000Z</time>
      </trkpt>
      <trkpt lat="45.9115" lon="6.50648">
        <ele>2323.8000488281</ele>
        <time>2019-02-06T11:08:30.000Z</time>
      </trkpt>
      <trkpt lat="45.9115" lon="6.50648">
        <ele>2322.8000488281</ele>
        <time>2019-02-06T11:08:31.000Z</time>
      </trkpt>
      <trkpt lat="45.9115" lon="6.50648">
        <ele>2322.1999511719</ele>
        <time>2019-02-06T11:08:32.000Z</time>
      </trkpt>
      <trkpt lat="45.9115" lon="6.50648">
        <ele>2321.8000488281</ele>
        <time>2019-02-06T11:08:33.000Z</time>
      </trkpt>
      <trkpt lat="45.9115" lon="6.50648">
        <ele>2321.3999023438</ele>
        <time>2019-02-06T11:08:42.000Z</time>
      </trkpt>
      <trkpt lat="45.9115" lon="6.50648">
        <ele>2321.3999023438</ele>
        <time>2019-02-06T11:08:53.000Z</time>
      </trkpt>
      <trkpt lat="45.9115" lon="6.50648">
        <ele>2321.3999023438</ele>
        <time>2019-02-06T11:08:57.000Z</time>
      </trkpt>
      <trkpt lat="45.9115" lon="6.50648">
        <ele>2321.6000976562</ele>
        <time>2019-02-06T11:09:04.000Z</time>
      </trkpt>
      <trkpt lat="45.91149" lon="6.50648">
        <ele>2321.6000976562</ele>
        <time>2019-02-06T11:09:21.000Z</time>
      </trkpt>
      <trkpt lat="45.91149" lon="6.50648">
        <ele>2322</ele>
        <time>2019-02-06T11:09:31.000Z</time>
      </trkpt>
      <trkpt lat="45.91149" lon="6.50648">
        <ele>2321.3999023438</ele>
        <time>2019-02-06T11:09:52.000Z</time>
      </trkpt>
      <trkpt lat="45.91149" lon="6.50648">
        <ele>2321.6000976562</ele>
        <time>2019-02-06T11:10:13.000Z</time>
      </trkpt>
      <trkpt lat="45.91149" lon="6.50648">
        <ele>2321.6000976562</ele>
        <time>2019-02-06T11:10:25.000Z</time>
      </trkpt>
      <trkpt lat="45.91149" lon="6.50648">
        <ele>2321.6000976562</ele>
        <time>2019-02-06T11:10:43.000Z</time>
      </trkpt>
      <trkpt lat="45.91149" lon="6.50648">
        <ele>2321.6000976562</ele>
        <time>2019-02-06T11:10:52.000Z</time>
      </trkpt>
      <trkpt lat="45.91149" lon="6.50648">
        <ele>2321.6000976562</ele>
        <time>2019-02-06T11:10:56.000Z</time>
      </trkpt>
      <trkpt lat="45.91149" lon="6.50648">
        <ele>2321.6000976562</ele>
        <time>2019-02-06T11:11:15.000Z</time>
      </trkpt>
      <trkpt lat="45.91149" lon="6.50648">
        <ele>2321.6000976562</ele>
        <time>2019-02-06T11:11:29.000Z</time>
      </trkpt>
      <trkpt lat="45.91149" lon="6.50648">
        <ele>2321.8000488281</ele>
        <time>2019-02-06T11:11:47.000Z</time>
      </trkpt>
      <trkpt lat="45.91149" lon="6.50649">
        <ele>2322</ele>
        <time>2019-02-06T11:12:07.000Z</time>
      </trkpt>
      <trkpt lat="45.91148" lon="6.50649">
        <ele>2322</ele>
        <time>2019-02-06T11:12:29.000Z</time>
      </trkpt>
      <trkpt lat="45.91148" lon="6.50649">
        <ele>2322</ele>
        <time>2019-02-06T11:12:52.000Z</time>
      </trkpt>
      <trkpt lat="45.91152" lon="6.50651">
        <ele>2322</ele>
        <time>2019-02-06T11:12:56.000Z</time>
      </trkpt>
      <trkpt lat="45.91154" lon="6.50648">
        <ele>2322</ele>
        <time>2019-02-06T11:12:57.000Z</time>
      </trkpt>
      <trkpt lat="45.91165" lon="6.50644">
        <ele>2321.1999511719</ele>
        <time>2019-02-06T11:13:00.000Z</time>
      </trkpt>
      <trkpt lat="45.91169" lon="6.5064">
        <ele>2320.1999511719</ele>
        <time>2019-02-06T11:13:01.000Z</time>
      </trkpt>
      <trkpt lat="45.91173" lon="6.50635">
        <ele>2318.8000488281</ele>
        <time>2019-02-06T11:13:02.000Z</time>
      </trkpt>
      <trkpt lat="45.91176" lon="6.50634">
        <ele>2317.3999023438</ele>
        <time>2019-02-06T11:13:03.000Z</time>
      </trkpt>
      <trkpt lat="45.9118" lon="6.50638">
        <ele>2316</ele>
        <time>2019-02-06T11:13:04.000Z</time>
      </trkpt>
      <trkpt lat="45.91183" lon="6.5064">
        <ele>2314</ele>
        <time>2019-02-06T11:13:05.000Z</time>
      </trkpt>
      <trkpt lat="45.91187" lon="6.50636">
        <ele>2311.6000976562</ele>
        <time>2019-02-06T11:13:06.000Z</time>
      </trkpt>
      <trkpt lat="45.91192" lon="6.50635">
        <ele>2309.3999023438</ele>
        <time>2019-02-06T11:13:07.000Z</time>
      </trkpt>
      <trkpt lat="45.91195" lon="6.50636">
        <ele>2307.6000976562</ele>
        <time>2019-02-06T11:13:08.000Z</time>
      </trkpt>
      <trkpt lat="45.912" lon="6.5064">
        <ele>2305.8000488281</ele>
        <time>2019-02-06T11:13:09.000Z</time>
      </trkpt>
      <trkpt lat="45.91204" lon="6.5064">
        <ele>2303.6000976562</ele>
        <time>2019-02-06T11:13:10.000Z</time>
      </trkpt>
      <trkpt lat="45.91209" lon="6.50638">
        <ele>2301</ele>
        <time>2019-02-06T11:13:11.000Z</time>
      </trkpt>
      <trkpt lat="45.91214" lon="6.5064">
        <ele>2298.6000976562</ele>
        <time>2019-02-06T11:13:12.000Z</time>
      </trkpt>
      <trkpt lat="45.9122" lon="6.50639">
        <ele>2296.6000976562</ele>
        <time>2019-02-06T11:13:13.000Z</time>
      </trkpt>
      <trkpt lat="45.91226" lon="6.50636">
        <ele>2294.1999511719</ele>
        <time>2019-02-06T11:13:14.000Z</time>
      </trkpt>
      <trkpt lat="45.91231" lon="6.50631">
        <ele>2291.6000976562</ele>
        <time>2019-02-06T11:13:15.000Z</time>
      </trkpt>
      <trkpt lat="45.91236" lon="6.5063">
        <ele>2289</ele>
        <time>2019-02-06T11:13:16.000Z</time>
      </trkpt>
      <trkpt lat="45.91241" lon="6.50629">
        <ele>2286.6000976562</ele>
        <time>2019-02-06T11:13:17.000Z</time>
      </trkpt>
      <trkpt lat="45.91246" lon="6.50624">
        <ele>2284</ele>
        <time>2019-02-06T11:13:18.000Z</time>
      </trkpt>
      <trkpt lat="45.91249" lon="6.50618">
        <ele>2281</ele>
        <time>2019-02-06T11:13:19.000Z</time>
      </trkpt>
      <trkpt lat="45.91254" lon="6.50615">
        <ele>2278</ele>
        <time>2019-02-06T11:13:20.000Z</time>
      </trkpt>
      <trkpt lat="45.91258" lon="6.50613">
        <ele>2275.1999511719</ele>
        <time>2019-02-06T11:13:21.000Z</time>
      </trkpt>
      <trkpt lat="45.91261" lon="6.50607">
        <ele>2272.6000976562</ele>
        <time>2019-02-06T11:13:22.000Z</time>
      </trkpt>
      <trkpt lat="45.91264" lon="6.506">
        <ele>2269.6000976562</ele>
        <time>2019-02-06T11:13:23.000Z</time>
      </trkpt>
      <trkpt lat="45.91267" lon="6.50595">
        <ele>2264.3999023438</ele>
        <time>2019-02-06T11:13:24.000Z</time>
      </trkpt>
      <trkpt lat="45.91273" lon="6.50596">
        <ele>2262</ele>
        <time>2019-02-06T11:13:25.000Z</time>
      </trkpt>
      <trkpt lat="45.91276" lon="6.50592">
        <ele>2259.3999023438</ele>
        <time>2019-02-06T11:13:26.000Z</time>
      </trkpt>
      <trkpt lat="45.91275" lon="6.5059">
        <ele>2257</ele>
        <time>2019-02-06T11:13:27.000Z</time>
      </trkpt>
      <trkpt lat="45.91273" lon="6.50588">
        <ele>2255</ele>
        <time>2019-02-06T11:13:28.000Z</time>
      </trkpt>
      <trkpt lat="45.91272" lon="6.50587">
        <ele>2253.3999023438</ele>
        <time>2019-02-06T11:13:29.000Z</time>
      </trkpt>
      <trkpt lat="45.91271" lon="6.50586">
        <ele>2251.8000488281</ele>
        <time>2019-02-06T11:13:30.000Z</time>
      </trkpt>
      <trkpt lat="45.9127" lon="6.50586">
        <ele>2250.3999023438</ele>
        <time>2019-02-06T11:13:31.000Z</time>
      </trkpt>
      <trkpt lat="45.91269" lon="6.50587">
        <ele>2249.1999511719</ele>
        <time>2019-02-06T11:13:32.000Z</time>
      </trkpt>
      <trkpt lat="45.91268" lon="6.50587">
        <ele>2248.1999511719</ele>
        <time>2019-02-06T11:13:33.000Z</time>
      </trkpt>
      <trkpt lat="45.91267" lon="6.50587">
        <ele>2247.6000976562</ele>
        <time>2019-02-06T11:13:34.000Z</time>
      </trkpt>
      <trkpt lat="45.91265" lon="6.50588">
        <ele>2246.8000488281</ele>
        <time>2019-02-06T11:13:40.000Z</time>
      </trkpt>
      <trkpt lat="45.91268" lon="6.50581">
        <ele>2246.6000976562</ele>
        <time>2019-02-06T11:13:43.000Z</time>
      </trkpt>
      <trkpt lat="45.91272" lon="6.50576">
        <ele>2245.1999511719</ele>
        <time>2019-02-06T11:13:45.000Z</time>
      </trkpt>
      <trkpt lat="45.91273" lon="6.5057">
        <ele>2244</ele>
        <time>2019-02-06T11:13:46.000Z</time>
      </trkpt>
      <trkpt lat="45.91277" lon="6.50562">
        <ele>2241.3999023438</ele>
        <time>2019-02-06T11:13:48.000Z</time>
      </trkpt>
      <trkpt lat="45.9128" lon="6.50557">
        <ele>2239.8000488281</ele>
        <time>2019-02-06T11:13:49.000Z</time>
      </trkpt>
      <trkpt lat="45.91282" lon="6.5055">
        <ele>2237.6000976562</ele>
        <time>2019-02-06T11:13:50.000Z</time>
      </trkpt>
      <trkpt lat="45.91286" lon="6.50545">
        <ele>2235.3999023438</ele>
        <time>2019-02-06T11:13:51.000Z</time>
      </trkpt>
      <trkpt lat="45.91289" lon="6.50541">
        <ele>2233.3999023438</ele>
        <time>2019-02-06T11:13:52.000Z</time>
      </trkpt>
      <trkpt lat="45.91293" lon="6.50536">
        <ele>2231</ele>
        <time>2019-02-06T11:13:53.000Z</time>
      </trkpt>
      <trkpt lat="45.91297" lon="6.5053">
        <ele>2228.3999023438</ele>
        <time>2019-02-06T11:13:54.000Z</time>
      </trkpt>
      <trkpt lat="45.913" lon="6.50526">
        <ele>2226</ele>
        <time>2019-02-06T11:13:55.000Z</time>
      </trkpt>
      <trkpt lat="45.91303" lon="6.50523">
        <ele>2223.8000488281</ele>
        <time>2019-02-06T11:13:56.000Z</time>
      </trkpt>
      <trkpt lat="45.91307" lon="6.50518">
        <ele>2221.3999023438</ele>
        <time>2019-02-06T11:13:57.000Z</time>
      </trkpt>
      <trkpt lat="45.91309" lon="6.50512">
        <ele>2219</ele>
        <time>2019-02-06T11:13:58.000Z</time>
      </trkpt>
      <trkpt lat="45.91311" lon="6.50505">
        <ele>2216.6000976562</ele>
        <time>2019-02-06T11:13:59.000Z</time>
      </trkpt>
      <trkpt lat="45.91313" lon="6.505">
        <ele>2214.6000976562</ele>
        <time>2019-02-06T11:14:00.000Z</time>
      </trkpt>
      <trkpt lat="45.91316" lon="6.50498">
        <ele>2212.3999023438</ele>
        <time>2019-02-06T11:14:01.000Z</time>
      </trkpt>
      <trkpt lat="45.9132" lon="6.50494">
        <ele>2209.8000488281</ele>
        <time>2019-02-06T11:14:02.000Z</time>
      </trkpt>
      <trkpt lat="45.91323" lon="6.50489">
        <ele>2207</ele>
        <time>2019-02-06T11:14:03.000Z</time>
      </trkpt>
      <trkpt lat="45.91328" lon="6.50484">
        <ele>2204.6000976562</ele>
        <time>2019-02-06T11:14:04.000Z</time>
      </trkpt>
      <trkpt lat="45.91333" lon="6.50482">
        <ele>2202.6000976562</ele>
        <time>2019-02-06T11:14:05.000Z</time>
      </trkpt>
      <trkpt lat="45.91338" lon="6.5048">
        <ele>2200.1999511719</ele>
        <time>2019-02-06T11:14:06.000Z</time>
      </trkpt>
      <trkpt lat="45.91343" lon="6.50478">
        <ele>2197.6000976562</ele>
        <time>2019-02-06T11:14:07.000Z</time>
      </trkpt>
      <trkpt lat="45.91346" lon="6.50475">
        <ele>2194.8000488281</ele>
        <time>2019-02-06T11:14:08.000Z</time>
      </trkpt>
      <trkpt lat="45.91351" lon="6.50473">
        <ele>2192.1999511719</ele>
        <time>2019-02-06T11:14:09.000Z</time>
      </trkpt>
      <trkpt lat="45.91355" lon="6.5047">
        <ele>2190</ele>
        <time>2019-02-06T11:14:10.000Z</time>
      </trkpt>
      <trkpt lat="45.91358" lon="6.50465">
        <ele>2187.6000976562</ele>
        <time>2019-02-06T11:14:11.000Z</time>
      </trkpt>
      <trkpt lat="45.91359" lon="6.5046">
        <ele>2182</ele>
        <time>2019-02-06T11:14:12.000Z</time>
      </trkpt>
      <trkpt lat="45.9136" lon="6.50454">
        <ele>2179.6000976562</ele>
        <time>2019-02-06T11:14:13.000Z</time>
      </trkpt>
      <trkpt lat="45.91363" lon="6.50448">
        <ele>2177.3999023438</ele>
        <time>2019-02-06T11:14:14.000Z</time>
      </trkpt>
      <trkpt lat="45.91368" lon="6.50441">
        <ele>2175</ele>
        <time>2019-02-06T11:14:15.000Z</time>
      </trkpt>
      <trkpt lat="45.91373" lon="6.50435">
        <ele>2172</ele>
        <time>2019-02-06T11:14:16.000Z</time>
      </trkpt>
      <trkpt lat="45.91377" lon="6.50429">
        <ele>2169</ele>
        <time>2019-02-06T11:14:17.000Z</time>
      </trkpt>
      <trkpt lat="45.9138" lon="6.50429">
        <ele>2166.1999511719</ele>
        <time>2019-02-06T11:14:18.000Z</time>
      </trkpt>
      <trkpt lat="45.91382" lon="6.5043">
        <ele>2163.3999023438</ele>
        <time>2019-02-06T11:14:19.000Z</time>
      </trkpt>
      <trkpt lat="45.91383" lon="6.50431">
        <ele>2160.8000488281</ele>
        <time>2019-02-06T11:14:20.000Z</time>
      </trkpt>
      <trkpt lat="45.91383" lon="6.50432">
        <ele>2158.6000976562</ele>
        <time>2019-02-06T11:14:21.000Z</time>
      </trkpt>
      <trkpt lat="45.91382" lon="6.50433">
        <ele>2157.1999511719</ele>
        <time>2019-02-06T11:14:22.000Z</time>
      </trkpt>
      <trkpt lat="45.91381" lon="6.50434">
        <ele>2156</ele>
        <time>2019-02-06T11:14:24.000Z</time>
      </trkpt>
      <trkpt lat="45.91379" lon="6.50442">
        <ele>2155</ele>
        <time>2019-02-06T11:14:33.000Z</time>
      </trkpt>
      <trkpt lat="45.91383" lon="6.50441">
        <ele>2155</ele>
        <time>2019-02-06T11:14:37.000Z</time>
      </trkpt>
      <trkpt lat="45.91386" lon="6.50442">
        <ele>2154.8000488281</ele>
        <time>2019-02-06T11:14:39.000Z</time>
      </trkpt>
      <trkpt lat="45.91391" lon="6.50442">
        <ele>2153.8000488281</ele>
        <time>2019-02-06T11:14:42.000Z</time>
      </trkpt>
      <trkpt lat="45.91393" lon="6.50441">
        <ele>2153.3999023438</ele>
        <time>2019-02-06T11:14:43.000Z</time>
      </trkpt>
      <trkpt lat="45.91395" lon="6.50434">
        <ele>2152.6000976562</ele>
        <time>2019-02-06T11:14:45.000Z</time>
      </trkpt>
      <trkpt lat="45.91403" lon="6.5042">
        <ele>2151</ele>
        <time>2019-02-06T11:14:48.000Z</time>
      </trkpt>
      <trkpt lat="45.91406" lon="6.50414">
        <ele>2149.8000488281</ele>
        <time>2019-02-06T11:14:49.000Z</time>
      </trkpt>
      <trkpt lat="45.91408" lon="6.50409">
        <ele>2148.1999511719</ele>
        <time>2019-02-06T11:14:50.000Z</time>
      </trkpt>
      <trkpt lat="45.91411" lon="6.50404">
        <ele>2146.6000976562</ele>
        <time>2019-02-06T11:14:51.000Z</time>
      </trkpt>
      <trkpt lat="45.91413" lon="6.504">
        <ele>2144.8000488281</ele>
        <time>2019-02-06T11:14:52.000Z</time>
      </trkpt>
      <trkpt lat="45.91416" lon="6.50394">
        <ele>2142.8000488281</ele>
        <time>2019-02-06T11:14:53.000Z</time>
      </trkpt>
      <trkpt lat="45.9142" lon="6.5039">
        <ele>2140.6000976562</ele>
        <time>2019-02-06T11:14:54.000Z</time>
      </trkpt>
      <trkpt lat="45.91424" lon="6.50384">
        <ele>2138.3999023438</ele>
        <time>2019-02-06T11:14:55.000Z</time>
      </trkpt>
      <trkpt lat="45.91428" lon="6.50379">
        <ele>2136.3999023438</ele>
        <time>2019-02-06T11:14:56.000Z</time>
      </trkpt>
      <trkpt lat="45.91432" lon="6.50374">
        <ele>2134.1999511719</ele>
        <time>2019-02-06T11:14:57.000Z</time>
      </trkpt>
      <trkpt lat="45.91437" lon="6.50368">
        <ele>2131.8000488281</ele>
        <time>2019-02-06T11:14:58.000Z</time>
      </trkpt>
      <trkpt lat="45.91441" lon="6.50364">
        <ele>2129.3999023438</ele>
        <time>2019-02-06T11:14:59.000Z</time>
      </trkpt>
      <trkpt lat="45.91446" lon="6.50362">
        <ele>2124.3999023438</ele>
        <time>2019-02-06T11:15:00.000Z</time>
      </trkpt>
      <trkpt lat="45.9145" lon="6.50361">
        <ele>2121.6000976562</ele>
        <time>2019-02-06T11:15:01.000Z</time>
      </trkpt>
      <trkpt lat="45.91455" lon="6.50359">
        <ele>2118.8000488281</ele>
        <time>2019-02-06T11:15:02.000Z</time>
      </trkpt>
      <trkpt lat="45.91458" lon="6.50354">
        <ele>2116.1999511719</ele>
        <time>2019-02-06T11:15:03.000Z</time>
      </trkpt>
      <trkpt lat="45.9146" lon="6.50346">
        <ele>2114</ele>
        <time>2019-02-06T11:15:04.000Z</time>
      </trkpt>
      <trkpt lat="45.91463" lon="6.50339">
        <ele>2112</ele>
        <time>2019-02-06T11:15:05.000Z</time>
      </trkpt>
      <trkpt lat="45.91466" lon="6.50332">
        <ele>2110.1999511719</ele>
        <time>2019-02-06T11:15:06.000Z</time>
      </trkpt>
      <trkpt lat="45.91471" lon="6.50324">
        <ele>2108.1999511719</ele>
        <time>2019-02-06T11:15:07.000Z</time>
      </trkpt>
      <trkpt lat="45.91475" lon="6.50314">
        <ele>2105.8000488281</ele>
        <time>2019-02-06T11:15:08.000Z</time>
      </trkpt>
      <trkpt lat="45.91477" lon="6.50304">
        <ele>2103.3999023438</ele>
        <time>2019-02-06T11:15:09.000Z</time>
      </trkpt>
      <trkpt lat="45.9148" lon="6.50295">
        <ele>2101.1999511719</ele>
        <time>2019-02-06T11:15:10.000Z</time>
      </trkpt>
      <trkpt lat="45.91486" lon="6.50288">
        <ele>2098.8000488281</ele>
        <time>2019-02-06T11:15:11.000Z</time>
      </trkpt>
      <trkpt lat="45.91492" lon="6.50282">
        <ele>2096.1999511719</ele>
        <time>2019-02-06T11:15:12.000Z</time>
      </trkpt>
      <trkpt lat="45.91496" lon="6.50274">
        <ele>2093.6000976562</ele>
        <time>2019-02-06T11:15:13.000Z</time>
      </trkpt>
      <trkpt lat="45.91498" lon="6.50267">
        <ele>2091.1999511719</ele>
        <time>2019-02-06T11:15:14.000Z</time>
      </trkpt>
      <trkpt lat="45.91499" lon="6.50262">
        <ele>2089.1999511719</ele>
        <time>2019-02-06T11:15:15.000Z</time>
      </trkpt>
      <trkpt lat="45.915" lon="6.50259">
        <ele>2087.3999023438</ele>
        <time>2019-02-06T11:15:16.000Z</time>
      </trkpt>
      <trkpt lat="45.915" lon="6.50257">
        <ele>2085.6000976562</ele>
        <time>2019-02-06T11:15:17.000Z</time>
      </trkpt>
      <trkpt lat="45.91503" lon="6.50255">
        <ele>2083.8000488281</ele>
        <time>2019-02-06T11:15:18.000Z</time>
      </trkpt>
      <trkpt lat="45.91502" lon="6.50253">
        <ele>2082.3999023438</ele>
        <time>2019-02-06T11:15:19.000Z</time>
      </trkpt>
      <trkpt lat="45.915" lon="6.5025">
        <ele>2081.1999511719</ele>
        <time>2019-02-06T11:15:20.000Z</time>
      </trkpt>
      <trkpt lat="45.91497" lon="6.50245">
        <ele>2079.3999023438</ele>
        <time>2019-02-06T11:15:22.000Z</time>
      </trkpt>
      <trkpt lat="45.91495" lon="6.50243">
        <ele>2078.3999023438</ele>
        <time>2019-02-06T11:15:23.000Z</time>
      </trkpt>
      <trkpt lat="45.91495" lon="6.50242">
        <ele>2077.3999023438</ele>
        <time>2019-02-06T11:15:24.000Z</time>
      </trkpt>
      <trkpt lat="45.91494" lon="6.5024">
        <ele>2076.3999023438</ele>
        <time>2019-02-06T11:15:25.000Z</time>
      </trkpt>
      <trkpt lat="45.91494" lon="6.5024">
        <ele>2075.6000976562</ele>
        <time>2019-02-06T11:15:29.000Z</time>
      </trkpt>
      <trkpt lat="45.91494" lon="6.5024">
        <ele>2075.6000976562</ele>
        <time>2019-02-06T11:15:30.000Z</time>
      </trkpt>
      <trkpt lat="45.91494" lon="6.5024">
        <ele>2075.8000488281</ele>
        <time>2019-02-06T11:15:42.000Z</time>
      </trkpt>
      <trkpt lat="45.91494" lon="6.5024">
        <ele>2075.8000488281</ele>
        <time>2019-02-06T11:16:02.000Z</time>
      </trkpt>
      <trkpt lat="45.91496" lon="6.50247">
        <ele>2075.8000488281</ele>
        <time>2019-02-06T11:16:06.000Z</time>
      </trkpt>
      <trkpt lat="45.91497" lon="6.50248">
        <ele>2075.8000488281</ele>
        <time>2019-02-06T11:16:07.000Z</time>
      </trkpt>
      <trkpt lat="45.91499" lon="6.50246">
        <ele>2075.8000488281</ele>
        <time>2019-02-06T11:16:08.000Z</time>
      </trkpt>
      <trkpt lat="45.91503" lon="6.50244">
        <ele>2075.8000488281</ele>
        <time>2019-02-06T11:16:09.000Z</time>
      </trkpt>
      <trkpt lat="45.91506" lon="6.5024">
        <ele>2075.6000976562</ele>
        <time>2019-02-06T11:16:10.000Z</time>
      </trkpt>
      <trkpt lat="45.91509" lon="6.50235">
        <ele>2075.1999511719</ele>
        <time>2019-02-06T11:16:11.000Z</time>
      </trkpt>
      <trkpt lat="45.91511" lon="6.50228">
        <ele>2074.3999023438</ele>
        <time>2019-02-06T11:16:12.000Z</time>
      </trkpt>
      <trkpt lat="45.91512" lon="6.50219">
        <ele>2072</ele>
        <time>2019-02-06T11:16:13.000Z</time>
      </trkpt>
      <trkpt lat="45.9151" lon="6.50212">
        <ele>2070.3999023438</ele>
        <time>2019-02-06T11:16:14.000Z</time>
      </trkpt>
      <trkpt lat="45.91508" lon="6.50205">
        <ele>2068.1999511719</ele>
        <time>2019-02-06T11:16:15.000Z</time>
      </trkpt>
      <trkpt lat="45.91506" lon="6.50198">
        <ele>2065.8000488281</ele>
        <time>2019-02-06T11:16:16.000Z</time>
      </trkpt>
      <trkpt lat="45.91505" lon="6.5019">
        <ele>2063.6000976562</ele>
        <time>2019-02-06T11:16:17.000Z</time>
      </trkpt>
      <trkpt lat="45.91504" lon="6.5018">
        <ele>2061.3999023438</ele>
        <time>2019-02-06T11:16:18.000Z</time>
      </trkpt>
      <trkpt lat="45.91504" lon="6.5017">
        <ele>2059.6000976562</ele>
        <time>2019-02-06T11:16:19.000Z</time>
      </trkpt>
      <trkpt lat="45.91504" lon="6.5016">
        <ele>2057.8000488281</ele>
        <time>2019-02-06T11:16:20.000Z</time>
      </trkpt>
      <trkpt lat="45.91505" lon="6.5015">
        <ele>2055.8000488281</ele>
        <time>2019-02-06T11:16:21.000Z</time>
      </trkpt>
      <trkpt lat="45.91507" lon="6.5014">
        <ele>2053.8000488281</ele>
        <time>2019-02-06T11:16:22.000Z</time>
      </trkpt>
      <trkpt lat="45.91508" lon="6.50131">
        <ele>2051.6000976562</ele>
        <time>2019-02-06T11:16:23.000Z</time>
      </trkpt>
      <trkpt lat="45.91511" lon="6.50123">
        <ele>2049.6000976562</ele>
        <time>2019-02-06T11:16:24.000Z</time>
      </trkpt>
      <trkpt lat="45.9151" lon="6.50115">
        <ele>2047.5999755859</ele>
        <time>2019-02-06T11:16:25.000Z</time>
      </trkpt>
      <trkpt lat="45.91507" lon="6.50107">
        <ele>2045.4000244141</ele>
        <time>2019-02-06T11:16:26.000Z</time>
      </trkpt>
      <trkpt lat="45.91507" lon="6.50099">
        <ele>2043.4000244141</ele>
        <time>2019-02-06T11:16:27.000Z</time>
      </trkpt>
      <trkpt lat="45.91508" lon="6.50092">
        <ele>2041.5999755859</ele>
        <time>2019-02-06T11:16:28.000Z</time>
      </trkpt>
      <trkpt lat="45.91512" lon="6.50084">
        <ele>2039.8000488281</ele>
        <time>2019-02-06T11:16:29.000Z</time>
      </trkpt>
      <trkpt lat="45.91517" lon="6.50075">
        <ele>2037.5999755859</ele>
        <time>2019-02-06T11:16:30.000Z</time>
      </trkpt>
      <trkpt lat="45.91523" lon="6.50068">
        <ele>2035.5999755859</ele>
        <time>2019-02-06T11:16:31.000Z</time>
      </trkpt>
      <trkpt lat="45.91528" lon="6.50061">
        <ele>2033.4000244141</ele>
        <time>2019-02-06T11:16:32.000Z</time>
      </trkpt>
      <trkpt lat="45.91534" lon="6.50053">
        <ele>2031.5999755859</ele>
        <time>2019-02-06T11:16:33.000Z</time>
      </trkpt>
      <trkpt lat="45.91538" lon="6.50045">
        <ele>2029.5999755859</ele>
        <time>2019-02-06T11:16:34.000Z</time>
      </trkpt>
      <trkpt lat="45.91543" lon="6.5004">
        <ele>2027.5999755859</ele>
        <time>2019-02-06T11:16:35.000Z</time>
      </trkpt>
      <trkpt lat="45.91547" lon="6.50037">
        <ele>2025.5999755859</ele>
        <time>2019-02-06T11:16:36.000Z</time>
      </trkpt>
      <trkpt lat="45.91553" lon="6.50039">
        <ele>2021.8000488281</ele>
        <time>2019-02-06T11:16:37.000Z</time>
      </trkpt>
      <trkpt lat="45.91557" lon="6.50042">
        <ele>2020</ele>
        <time>2019-02-06T11:16:38.000Z</time>
      </trkpt>
      <trkpt lat="45.9156" lon="6.50045">
        <ele>2018.5999755859</ele>
        <time>2019-02-06T11:16:39.000Z</time>
      </trkpt>
      <trkpt lat="45.91562" lon="6.50046">
        <ele>2017.1999511719</ele>
        <time>2019-02-06T11:16:40.000Z</time>
      </trkpt>
      <trkpt lat="45.91563" lon="6.50046">
        <ele>2016.1999511719</ele>
        <time>2019-02-06T11:16:41.000Z</time>
      </trkpt>
      <trkpt lat="45.91564" lon="6.50048">
        <ele>2014.8000488281</ele>
        <time>2019-02-06T11:16:43.000Z</time>
      </trkpt>
      <trkpt lat="45.91564" lon="6.50049">
        <ele>2013.5999755859</ele>
        <time>2019-02-06T11:16:47.000Z</time>
      </trkpt>
      <trkpt lat="45.91565" lon="6.50047">
        <ele>2013.5999755859</ele>
        <time>2019-02-06T11:16:48.000Z</time>
      </trkpt>
      <trkpt lat="45.91572" lon="6.50042">
        <ele>2013.5999755859</ele>
        <time>2019-02-06T11:16:51.000Z</time>
      </trkpt>
      <trkpt lat="45.91581" lon="6.50028">
        <ele>2012.5999755859</ele>
        <time>2019-02-06T11:16:54.000Z</time>
      </trkpt>
      <trkpt lat="45.91582" lon="6.50014">
        <ele>2011.1999511719</ele>
        <time>2019-02-06T11:16:56.000Z</time>
      </trkpt>
      <trkpt lat="45.9158" lon="6.50008">
        <ele>2010.1999511719</ele>
        <time>2019-02-06T11:16:57.000Z</time>
      </trkpt>
      <trkpt lat="45.91579" lon="6.50001">
        <ele>2008.8000488281</ele>
        <time>2019-02-06T11:16:58.000Z</time>
      </trkpt>
      <trkpt lat="45.91579" lon="6.49998">
        <ele>2007.5999755859</ele>
        <time>2019-02-06T11:16:59.000Z</time>
      </trkpt>
      <trkpt lat="45.9158" lon="6.49994">
        <ele>2006.1999511719</ele>
        <time>2019-02-06T11:17:00.000Z</time>
      </trkpt>
      <trkpt lat="45.91579" lon="6.49991">
        <ele>2003.4000244141</ele>
        <time>2019-02-06T11:17:01.000Z</time>
      </trkpt>
      <trkpt lat="45.91579" lon="6.4999">
        <ele>2002.4000244141</ele>
        <time>2019-02-06T11:17:02.000Z</time>
      </trkpt>
      <trkpt lat="45.91578" lon="6.4999">
        <ele>2000.4000244141</ele>
        <time>2019-02-06T11:17:04.000Z</time>
      </trkpt>
      <trkpt lat="45.91577" lon="6.4999">
        <ele>1999</ele>
        <time>2019-02-06T11:17:06.000Z</time>
      </trkpt>
      <trkpt lat="45.91576" lon="6.4999">
        <ele>1998.5999755859</ele>
        <time>2019-02-06T11:17:07.000Z</time>
      </trkpt>
      <trkpt lat="45.91571" lon="6.49989">
        <ele>1998</ele>
        <time>2019-02-06T11:17:16.000Z</time>
      </trkpt>
      <trkpt lat="45.91568" lon="6.49989">
        <ele>1998</ele>
        <time>2019-02-06T11:17:22.000Z</time>
      </trkpt>
      <trkpt lat="45.91572" lon="6.49991">
        <ele>1997.8000488281</ele>
        <time>2019-02-06T11:17:27.000Z</time>
      </trkpt>
      <trkpt lat="45.91574" lon="6.49988">
        <ele>1997.8000488281</ele>
        <time>2019-02-06T11:17:28.000Z</time>
      </trkpt>
      <trkpt lat="45.91571" lon="6.49973">
        <ele>1997.4000244141</ele>
        <time>2019-02-06T11:17:31.000Z</time>
      </trkpt>
      <trkpt lat="45.91571" lon="6.4997">
        <ele>1996.8000488281</ele>
        <time>2019-02-06T11:17:32.000Z</time>
      </trkpt>
      <trkpt lat="45.91572" lon="6.49968">
        <ele>1996</ele>
        <time>2019-02-06T11:17:33.000Z</time>
      </trkpt>
      <trkpt lat="45.91575" lon="6.49964">
        <ele>1995</ele>
        <time>2019-02-06T11:17:34.000Z</time>
      </trkpt>
      <trkpt lat="45.91575" lon="6.4996">
        <ele>1993.8000488281</ele>
        <time>2019-02-06T11:17:35.000Z</time>
      </trkpt>
      <trkpt lat="45.91574" lon="6.49956">
        <ele>1992.4000244141</ele>
        <time>2019-02-06T11:17:36.000Z</time>
      </trkpt>
      <trkpt lat="45.91576" lon="6.49952">
        <ele>1991.1999511719</ele>
        <time>2019-02-06T11:17:37.000Z</time>
      </trkpt>
      <trkpt lat="45.91578" lon="6.49946">
        <ele>1989.8000488281</ele>
        <time>2019-02-06T11:17:38.000Z</time>
      </trkpt>
      <trkpt lat="45.91576" lon="6.4994">
        <ele>1988</ele>
        <time>2019-02-06T11:17:39.000Z</time>
      </trkpt>
      <trkpt lat="45.91574" lon="6.49934">
        <ele>1986</ele>
        <time>2019-02-06T11:17:40.000Z</time>
      </trkpt>
      <trkpt lat="45.91572" lon="6.49929">
        <ele>1984</ele>
        <time>2019-02-06T11:17:41.000Z</time>
      </trkpt>
      <trkpt lat="45.91571" lon="6.49927">
        <ele>1982.1999511719</ele>
        <time>2019-02-06T11:17:42.000Z</time>
      </trkpt>
      <trkpt lat="45.9157" lon="6.49922">
        <ele>1980.5999755859</ele>
        <time>2019-02-06T11:17:43.000Z</time>
      </trkpt>
      <trkpt lat="45.91571" lon="6.49915">
        <ele>1978.8000488281</ele>
        <time>2019-02-06T11:17:44.000Z</time>
      </trkpt>
      <trkpt lat="45.91571" lon="6.49908">
        <ele>1976.8000488281</ele>
        <time>2019-02-06T11:17:45.000Z</time>
      </trkpt>
      <trkpt lat="45.91571" lon="6.49902">
        <ele>1975.1999511719</ele>
        <time>2019-02-06T11:17:46.000Z</time>
      </trkpt>
      <trkpt lat="45.9157" lon="6.49898">
        <ele>1973.5999755859</ele>
        <time>2019-02-06T11:17:47.000Z</time>
      </trkpt>
      <trkpt lat="45.9157" lon="6.49894">
        <ele>1972</ele>
        <time>2019-02-06T11:17:48.000Z</time>
      </trkpt>
      <trkpt lat="45.9157" lon="6.49892">
        <ele>1968.1999511719</ele>
        <time>2019-02-06T11:17:49.000Z</time>
      </trkpt>
      <trkpt lat="45.9157" lon="6.49891">
        <ele>1966.4000244141</ele>
        <time>2019-02-06T11:17:50.000Z</time>
      </trkpt>
      <trkpt lat="45.91569" lon="6.4989">
        <ele>1965</ele>
        <time>2019-02-06T11:17:51.000Z</time>
      </trkpt>
      <trkpt lat="45.91571" lon="6.49894">
        <ele>1963.5999755859</ele>
        <time>2019-02-06T11:17:52.000Z</time>
      </trkpt>
      <trkpt lat="45.91572" lon="6.49898">
        <ele>1962.5999755859</ele>
        <time>2019-02-06T11:17:53.000Z</time>
      </trkpt>
      <trkpt lat="45.91575" lon="6.49906">
        <ele>1960.8000488281</ele>
        <time>2019-02-06T11:17:55.000Z</time>
      </trkpt>
      <trkpt lat="45.91577" lon="6.49909">
        <ele>1960.1999511719</ele>
        <time>2019-02-06T11:17:56.000Z</time>
      </trkpt>
      <trkpt lat="45.91577" lon="6.4991">
        <ele>1959.4000244141</ele>
        <time>2019-02-06T11:17:57.000Z</time>
      </trkpt>
      <trkpt lat="45.91578" lon="6.49912">
        <ele>1958.5999755859</ele>
        <time>2019-02-06T11:17:58.000Z</time>
      </trkpt>
      <trkpt lat="45.91578" lon="6.49914">
        <ele>1958.1999511719</ele>
        <time>2019-02-06T11:17:59.000Z</time>
      </trkpt>
      <trkpt lat="45.91579" lon="6.49916">
        <ele>1957.5999755859</ele>
        <time>2019-02-06T11:18:01.000Z</time>
      </trkpt>
      <trkpt lat="45.91581" lon="6.49914">
        <ele>1957.5999755859</ele>
        <time>2019-02-06T11:18:02.000Z</time>
      </trkpt>
      <trkpt lat="45.91593" lon="6.49916">
        <ele>1956.8000488281</ele>
        <time>2019-02-06T11:18:05.000Z</time>
      </trkpt>
      <trkpt lat="45.91598" lon="6.49922">
        <ele>1955.8000488281</ele>
        <time>2019-02-06T11:18:06.000Z</time>
      </trkpt>
      <trkpt lat="45.91601" lon="6.49926">
        <ele>1954.1999511719</ele>
        <time>2019-02-06T11:18:07.000Z</time>
      </trkpt>
      <trkpt lat="45.91605" lon="6.49927">
        <ele>1952.1999511719</ele>
        <time>2019-02-06T11:18:08.000Z</time>
      </trkpt>
      <trkpt lat="45.91611" lon="6.49926">
        <ele>1950.4000244141</ele>
        <time>2019-02-06T11:18:09.000Z</time>
      </trkpt>
      <trkpt lat="45.91616" lon="6.49924">
        <ele>1948.5999755859</ele>
        <time>2019-02-06T11:18:10.000Z</time>
      </trkpt>
      <trkpt lat="45.91624" lon="6.49924">
        <ele>1947.4000244141</ele>
        <time>2019-02-06T11:18:11.000Z</time>
      </trkpt>
      <trkpt lat="45.91633" lon="6.49923">
        <ele>1945.8000488281</ele>
        <time>2019-02-06T11:18:12.000Z</time>
      </trkpt>
      <trkpt lat="45.9164" lon="6.4992">
        <ele>1941</ele>
        <time>2019-02-06T11:18:13.000Z</time>
      </trkpt>
      <trkpt lat="45.91648" lon="6.49913">
        <ele>1938</ele>
        <time>2019-02-06T11:18:14.000Z</time>
      </trkpt>
      <trkpt lat="45.91655" lon="6.49906">
        <ele>1935.1999511719</ele>
        <time>2019-02-06T11:18:15.000Z</time>
      </trkpt>
      <trkpt lat="45.91662" lon="6.49899">
        <ele>1932.4000244141</ele>
        <time>2019-02-06T11:18:16.000Z</time>
      </trkpt>
      <trkpt lat="45.91666" lon="6.49892">
        <ele>1930</ele>
        <time>2019-02-06T11:18:17.000Z</time>
      </trkpt>
      <trkpt lat="45.91669" lon="6.49884">
        <ele>1927.5999755859</ele>
        <time>2019-02-06T11:18:18.000Z</time>
      </trkpt>
      <trkpt lat="45.91673" lon="6.49877">
        <ele>1925.4000244141</ele>
        <time>2019-02-06T11:18:19.000Z</time>
      </trkpt>
      <trkpt lat="45.91677" lon="6.4987">
        <ele>1923.1999511719</ele>
        <time>2019-02-06T11:18:20.000Z</time>
      </trkpt>
      <trkpt lat="45.9168" lon="6.49865">
        <ele>1921</ele>
        <time>2019-02-06T11:18:21.000Z</time>
      </trkpt>
      <trkpt lat="45.91683" lon="6.49865">
        <ele>1919</ele>
        <time>2019-02-06T11:18:22.000Z</time>
      </trkpt>
      <trkpt lat="45.91686" lon="6.49867">
        <ele>1917.1999511719</ele>
        <time>2019-02-06T11:18:23.000Z</time>
      </trkpt>
      <trkpt lat="45.91688" lon="6.49868">
        <ele>1915.5999755859</ele>
        <time>2019-02-06T11:18:24.000Z</time>
      </trkpt>
      <trkpt lat="45.9169" lon="6.49869">
        <ele>1914.8000488281</ele>
        <time>2019-02-06T11:18:25.000Z</time>
      </trkpt>
      <trkpt lat="45.91692" lon="6.4987">
        <ele>1914.1999511719</ele>
        <time>2019-02-06T11:18:26.000Z</time>
      </trkpt>
      <trkpt lat="45.91695" lon="6.49872">
        <ele>1913.1999511719</ele>
        <time>2019-02-06T11:18:30.000Z</time>
      </trkpt>
      <trkpt lat="45.91695" lon="6.49871">
        <ele>1913</ele>
        <time>2019-02-06T11:18:31.000Z</time>
      </trkpt>
      <trkpt lat="45.91695" lon="6.49871">
        <ele>1912.8000488281</ele>
        <time>2019-02-06T11:18:45.000Z</time>
      </trkpt>
      <trkpt lat="45.91696" lon="6.49871">
        <ele>1912.8000488281</ele>
        <time>2019-02-06T11:18:48.000Z</time>
      </trkpt>
      <trkpt lat="45.91699" lon="6.49872">
        <ele>1912.5999755859</ele>
        <time>2019-02-06T11:18:49.000Z</time>
      </trkpt>
      <trkpt lat="45.91708" lon="6.49876">
        <ele>1912.5999755859</ele>
        <time>2019-02-06T11:18:51.000Z</time>
      </trkpt>
      <trkpt lat="45.91714" lon="6.49873">
        <ele>1912</ele>
        <time>2019-02-06T11:18:52.000Z</time>
      </trkpt>
      <trkpt lat="45.91723" lon="6.49865">
        <ele>1910</ele>
        <time>2019-02-06T11:18:54.000Z</time>
      </trkpt>
      <trkpt lat="45.91728" lon="6.49859">
        <ele>1908.5999755859</ele>
        <time>2019-02-06T11:18:55.000Z</time>
      </trkpt>
      <trkpt lat="45.91733" lon="6.49849">
        <ele>1906.8000488281</ele>
        <time>2019-02-06T11:18:56.000Z</time>
      </trkpt>
      <trkpt lat="45.91735" lon="6.4984">
        <ele>1904.5999755859</ele>
        <time>2019-02-06T11:18:57.000Z</time>
      </trkpt>
      <trkpt lat="45.91734" lon="6.49833">
        <ele>1902.1999511719</ele>
        <time>2019-02-06T11:18:58.000Z</time>
      </trkpt>
      <trkpt lat="45.91735" lon="6.49828">
        <ele>1899.8000488281</ele>
        <time>2019-02-06T11:18:59.000Z</time>
      </trkpt>
      <trkpt lat="45.91736" lon="6.49824">
        <ele>1897.1999511719</ele>
        <time>2019-02-06T11:19:00.000Z</time>
      </trkpt>
      <trkpt lat="45.91738" lon="6.49818">
        <ele>1891.4000244141</ele>
        <time>2019-02-06T11:19:01.000Z</time>
      </trkpt>
      <trkpt lat="45.91739" lon="6.49812">
        <ele>1889</ele>
        <time>2019-02-06T11:19:02.000Z</time>
      </trkpt>
      <trkpt lat="45.91742" lon="6.49807">
        <ele>1887</ele>
        <time>2019-02-06T11:19:03.000Z</time>
      </trkpt>
      <trkpt lat="45.91744" lon="6.49801">
        <ele>1885</ele>
        <time>2019-02-06T11:19:04.000Z</time>
      </trkpt>
      <trkpt lat="45.91746" lon="6.49795">
        <ele>1882.5999755859</ele>
        <time>2019-02-06T11:19:05.000Z</time>
      </trkpt>
      <trkpt lat="45.91748" lon="6.49789">
        <ele>1880.4000244141</ele>
        <time>2019-02-06T11:19:06.000Z</time>
      </trkpt>
      <trkpt lat="45.91752" lon="6.49786">
        <ele>1878.4000244141</ele>
        <time>2019-02-06T11:19:07.000Z</time>
      </trkpt>
      <trkpt lat="45.91755" lon="6.49782">
        <ele>1876.1999511719</ele>
        <time>2019-02-06T11:19:08.000Z</time>
      </trkpt>
      <trkpt lat="45.91757" lon="6.49776">
        <ele>1873.8000488281</ele>
        <time>2019-02-06T11:19:09.000Z</time>
      </trkpt>
      <trkpt lat="45.91759" lon="6.49771">
        <ele>1871.4000244141</ele>
        <time>2019-02-06T11:19:10.000Z</time>
      </trkpt>
      <trkpt lat="45.9176" lon="6.49766">
        <ele>1869.4000244141</ele>
        <time>2019-02-06T11:19:11.000Z</time>
      </trkpt>
      <trkpt lat="45.91762" lon="6.49762">
        <ele>1867.1999511719</ele>
        <time>2019-02-06T11:19:12.000Z</time>
      </trkpt>
      <trkpt lat="45.91764" lon="6.49759">
        <ele>1864.8000488281</ele>
        <time>2019-02-06T11:19:13.000Z</time>
      </trkpt>
      <trkpt lat="45.91767" lon="6.49755">
        <ele>1862</ele>
        <time>2019-02-06T11:19:14.000Z</time>
      </trkpt>
      <trkpt lat="45.91765" lon="6.4975">
        <ele>1859.4000244141</ele>
        <time>2019-02-06T11:19:15.000Z</time>
      </trkpt>
      <trkpt lat="45.91763" lon="6.49745">
        <ele>1857.4000244141</ele>
        <time>2019-02-06T11:19:16.000Z</time>
      </trkpt>
      <trkpt lat="45.91761" lon="6.49741">
        <ele>1855.8000488281</ele>
        <time>2019-02-06T11:19:17.000Z</time>
      </trkpt>
      <trkpt lat="45.91759" lon="6.49738">
        <ele>1854.4000244141</ele>
        <time>2019-02-06T11:19:18.000Z</time>
      </trkpt>
      <trkpt lat="45.91758" lon="6.49735">
        <ele>1852.8000488281</ele>
        <time>2019-02-06T11:19:19.000Z</time>
      </trkpt>
      <trkpt lat="45.91757" lon="6.49732">
        <ele>1851.4000244141</ele>
        <time>2019-02-06T11:19:20.000Z</time>
      </trkpt>
      <trkpt lat="45.91756" lon="6.4973">
        <ele>1850.4000244141</ele>
        <time>2019-02-06T11:19:21.000Z</time>
      </trkpt>
      <trkpt lat="45.91753" lon="6.49722">
        <ele>1849.1999511719</ele>
        <time>2019-02-06T11:19:24.000Z</time>
      </trkpt>
      <trkpt lat="45.91753" lon="6.4972">
        <ele>1849</ele>
        <time>2019-02-06T11:19:28.000Z</time>
      </trkpt>
      <trkpt lat="45.91753" lon="6.49723">
        <ele>1848</ele>
        <time>2019-02-06T11:19:33.000Z</time>
      </trkpt>
      <trkpt lat="45.91754" lon="6.49729">
        <ele>1847.8000488281</ele>
        <time>2019-02-06T11:19:34.000Z</time>
      </trkpt>
      <trkpt lat="45.91756" lon="6.49728">
        <ele>1847.5999755859</ele>
        <time>2019-02-06T11:19:35.000Z</time>
      </trkpt>
      <trkpt lat="45.91755" lon="6.49724">
        <ele>1846.8000488281</ele>
        <time>2019-02-06T11:19:37.000Z</time>
      </trkpt>
      <trkpt lat="45.91752" lon="6.49719">
        <ele>1845.5999755859</ele>
        <time>2019-02-06T11:19:40.000Z</time>
      </trkpt>
      <trkpt lat="45.91747" lon="6.49713">
        <ele>1844</ele>
        <time>2019-02-06T11:19:42.000Z</time>
      </trkpt>
      <trkpt lat="45.91744" lon="6.49707">
        <ele>1842.8000488281</ele>
        <time>2019-02-06T11:19:44.000Z</time>
      </trkpt>
      <trkpt lat="45.91742" lon="6.49702">
        <ele>1841.5999755859</ele>
        <time>2019-02-06T11:19:46.000Z</time>
      </trkpt>
      <trkpt lat="45.91742" lon="6.49699">
        <ele>1840.4000244141</ele>
        <time>2019-02-06T11:19:48.000Z</time>
      </trkpt>
      <trkpt lat="45.91742" lon="6.49695">
        <ele>1839.4000244141</ele>
        <time>2019-02-06T11:19:49.000Z</time>
      </trkpt>
      <trkpt lat="45.91743" lon="6.49698">
        <ele>1838.8000488281</ele>
        <time>2019-02-06T11:19:50.000Z</time>
      </trkpt>
      <trkpt lat="45.91744" lon="6.49696">
        <ele>1838.1999511719</ele>
        <time>2019-02-06T11:19:51.000Z</time>
      </trkpt>
      <trkpt lat="45.91747" lon="6.49688">
        <ele>1837</ele>
        <time>2019-02-06T11:19:53.000Z</time>
      </trkpt>
      <trkpt lat="45.91748" lon="6.49686">
        <ele>1836.1999511719</ele>
        <time>2019-02-06T11:19:54.000Z</time>
      </trkpt>
      <trkpt lat="45.9175" lon="6.49681">
        <ele>1835.1999511719</ele>
        <time>2019-02-06T11:19:55.000Z</time>
      </trkpt>
      <trkpt lat="45.91752" lon="6.49674">
        <ele>1833.5999755859</ele>
        <time>2019-02-06T11:19:56.000Z</time>
      </trkpt>
      <trkpt lat="45.91755" lon="6.49668">
        <ele>1832.1999511719</ele>
        <time>2019-02-06T11:19:57.000Z</time>
      </trkpt>
      <trkpt lat="45.91758" lon="6.49665">
        <ele>1831</ele>
        <time>2019-02-06T11:19:58.000Z</time>
      </trkpt>
      <trkpt lat="45.91762" lon="6.4966">
        <ele>1829.4000244141</ele>
        <time>2019-02-06T11:19:59.000Z</time>
      </trkpt>
      <trkpt lat="45.91765" lon="6.49657">
        <ele>1827.4000244141</ele>
        <time>2019-02-06T11:20:00.000Z</time>
      </trkpt>
      <trkpt lat="45.91767" lon="6.49655">
        <ele>1825.4000244141</ele>
        <time>2019-02-06T11:20:01.000Z</time>
      </trkpt>
      <trkpt lat="45.91768" lon="6.49654">
        <ele>1823.8000488281</ele>
        <time>2019-02-06T11:20:02.000Z</time>
      </trkpt>
      <trkpt lat="45.9177" lon="6.49655">
        <ele>1822.1999511719</ele>
        <time>2019-02-06T11:20:03.000Z</time>
      </trkpt>
      <trkpt lat="45.91773" lon="6.49659">
        <ele>1820.4000244141</ele>
        <time>2019-02-06T11:20:04.000Z</time>
      </trkpt>
      <trkpt lat="45.91775" lon="6.49664">
        <ele>1818.5999755859</ele>
        <time>2019-02-06T11:20:05.000Z</time>
      </trkpt>
      <trkpt lat="45.91777" lon="6.49667">
        <ele>1817</ele>
        <time>2019-02-06T11:20:06.000Z</time>
      </trkpt>
      <trkpt lat="45.91779" lon="6.49666">
        <ele>1815.8000488281</ele>
        <time>2019-02-06T11:20:07.000Z</time>
      </trkpt>
      <trkpt lat="45.91781" lon="6.49664">
        <ele>1814.8000488281</ele>
        <time>2019-02-06T11:20:08.000Z</time>
      </trkpt>
      <trkpt lat="45.91785" lon="6.49664">
        <ele>1814</ele>
        <time>2019-02-06T11:20:09.000Z</time>
      </trkpt>
      <trkpt lat="45.9179" lon="6.49666">
        <ele>1813.1999511719</ele>
        <time>2019-02-06T11:20:10.000Z</time>
      </trkpt>
      <trkpt lat="45.91793" lon="6.49668">
        <ele>1812.4000244141</ele>
        <time>2019-02-06T11:20:11.000Z</time>
      </trkpt>
      <trkpt lat="45.91795" lon="6.49669">
        <ele>1811</ele>
        <time>2019-02-06T11:20:12.000Z</time>
      </trkpt>
      <trkpt lat="45.91797" lon="6.4967">
        <ele>1808</ele>
        <time>2019-02-06T11:20:13.000Z</time>
      </trkpt>
      <trkpt lat="45.91799" lon="6.49671">
        <ele>1806.5999755859</ele>
        <time>2019-02-06T11:20:14.000Z</time>
      </trkpt>
      <trkpt lat="45.91803" lon="6.4967">
        <ele>1805.1999511719</ele>
        <time>2019-02-06T11:20:16.000Z</time>
      </trkpt>
      <trkpt lat="45.91804" lon="6.49668">
        <ele>1804.8000488281</ele>
        <time>2019-02-06T11:20:17.000Z</time>
      </trkpt>
      <trkpt lat="45.91804" lon="6.49664">
        <ele>1804.5999755859</ele>
        <time>2019-02-06T11:20:18.000Z</time>
      </trkpt>
      <trkpt lat="45.91806" lon="6.49661">
        <ele>1804</ele>
        <time>2019-02-06T11:20:20.000Z</time>
      </trkpt>
      <trkpt lat="45.91807" lon="6.49662">
        <ele>1802.1999511719</ele>
        <time>2019-02-06T11:20:22.000Z</time>
      </trkpt>
      <trkpt lat="45.91807" lon="6.49663">
        <ele>1800.5999755859</ele>
        <time>2019-02-06T11:20:24.000Z</time>
      </trkpt>
      <trkpt lat="45.91811" lon="6.49659">
        <ele>1799.1999511719</ele>
        <time>2019-02-06T11:20:27.000Z</time>
      </trkpt>
      <trkpt lat="45.91815" lon="6.49655">
        <ele>1798.1999511719</ele>
        <time>2019-02-06T11:20:29.000Z</time>
      </trkpt>
      <trkpt lat="45.91816" lon="6.49657">
        <ele>1797</ele>
        <time>2019-02-06T11:20:30.000Z</time>
      </trkpt>
      <trkpt lat="45.91817" lon="6.49658">
        <ele>1795.4000244141</ele>
        <time>2019-02-06T11:20:31.000Z</time>
      </trkpt>
      <trkpt lat="45.91819" lon="6.49659">
        <ele>1794</ele>
        <time>2019-02-06T11:20:32.000Z</time>
      </trkpt>
      <trkpt lat="45.91821" lon="6.49659">
        <ele>1792.4000244141</ele>
        <time>2019-02-06T11:20:34.000Z</time>
      </trkpt>
      <trkpt lat="45.91821" lon="6.49656">
        <ele>1791.5999755859</ele>
        <time>2019-02-06T11:20:37.000Z</time>
      </trkpt>
      <trkpt lat="45.91823" lon="6.49649">
        <ele>1791.4000244141</ele>
        <time>2019-02-06T11:20:38.000Z</time>
      </trkpt>
      <trkpt lat="45.91827" lon="6.4964">
        <ele>1789.5999755859</ele>
        <time>2019-02-06T11:20:40.000Z</time>
      </trkpt>
      <trkpt lat="45.91831" lon="6.49634">
        <ele>1787.8000488281</ele>
        <time>2019-02-06T11:20:41.000Z</time>
      </trkpt>
      <trkpt lat="45.91834" lon="6.49629">
        <ele>1786.4000244141</ele>
        <time>2019-02-06T11:20:42.000Z</time>
      </trkpt>
      <trkpt lat="45.91837" lon="6.49626">
        <ele>1784.8000488281</ele>
        <time>2019-02-06T11:20:43.000Z</time>
      </trkpt>
      <trkpt lat="45.91839" lon="6.49625">
        <ele>1783.4000244141</ele>
        <time>2019-02-06T11:20:44.000Z</time>
      </trkpt>
      <trkpt lat="45.91841" lon="6.49627">
        <ele>1781.5999755859</ele>
        <time>2019-02-06T11:20:45.000Z</time>
      </trkpt>
      <trkpt lat="45.91841" lon="6.4963">
        <ele>1779.8000488281</ele>
        <time>2019-02-06T11:20:46.000Z</time>
      </trkpt>
      <trkpt lat="45.91841" lon="6.49632">
        <ele>1778.1999511719</ele>
        <time>2019-02-06T11:20:47.000Z</time>
      </trkpt>
      <trkpt lat="45.91841" lon="6.49634">
        <ele>1777</ele>
        <time>2019-02-06T11:20:48.000Z</time>
      </trkpt>
      <trkpt lat="45.91841" lon="6.49634">
        <ele>1776.1999511719</ele>
        <time>2019-02-06T11:20:49.000Z</time>
      </trkpt>
      <trkpt lat="45.91841" lon="6.49634">
        <ele>1775.8000488281</ele>
        <time>2019-02-06T11:20:50.000Z</time>
      </trkpt>
      <trkpt lat="45.91838" lon="6.49636">
        <ele>1774.5999755859</ele>
        <time>2019-02-06T11:20:53.000Z</time>
      </trkpt>
      <trkpt lat="45.91838" lon="6.49636">
        <ele>1774.1999511719</ele>
        <time>2019-02-06T11:20:57.000Z</time>
      </trkpt>
      <trkpt lat="45.9184" lon="6.49637">
        <ele>1773.8000488281</ele>
        <time>2019-02-06T11:21:05.000Z</time>
      </trkpt>
      <trkpt lat="45.91842" lon="6.49636">
        <ele>1773.8000488281</ele>
        <time>2019-02-06T11:21:06.000Z</time>
      </trkpt>
      <trkpt lat="45.91853" lon="6.49631">
        <ele>1773.4000244141</ele>
        <time>2019-02-06T11:21:09.000Z</time>
      </trkpt>
      <trkpt lat="45.91858" lon="6.49626">
        <ele>1771.4000244141</ele>
        <time>2019-02-06T11:21:11.000Z</time>
      </trkpt>
      <trkpt lat="45.91862" lon="6.49625">
        <ele>1770</ele>
        <time>2019-02-06T11:21:12.000Z</time>
      </trkpt>
      <trkpt lat="45.91867" lon="6.49624">
        <ele>1768.1999511719</ele>
        <time>2019-02-06T11:21:13.000Z</time>
      </trkpt>
      <trkpt lat="45.91871" lon="6.49621">
        <ele>1766.4000244141</ele>
        <time>2019-02-06T11:21:14.000Z</time>
      </trkpt>
      <trkpt lat="45.91874" lon="6.49615">
        <ele>1764.4000244141</ele>
        <time>2019-02-06T11:21:15.000Z</time>
      </trkpt>
      <trkpt lat="45.91877" lon="6.49609">
        <ele>1762.1999511719</ele>
        <time>2019-02-06T11:21:16.000Z</time>
      </trkpt>
      <trkpt lat="45.91881" lon="6.49601">
        <ele>1760</ele>
        <time>2019-02-06T11:21:17.000Z</time>
      </trkpt>
      <trkpt lat="45.91885" lon="6.49595">
        <ele>1757.8000488281</ele>
        <time>2019-02-06T11:21:18.000Z</time>
      </trkpt>
      <trkpt lat="45.91887" lon="6.49589">
        <ele>1755.4000244141</ele>
        <time>2019-02-06T11:21:19.000Z</time>
      </trkpt>
      <trkpt lat="45.91888" lon="6.49586">
        <ele>1753.1999511719</ele>
        <time>2019-02-06T11:21:20.000Z</time>
      </trkpt>
      <trkpt lat="45.91888" lon="6.49584">
        <ele>1750.8000488281</ele>
        <time>2019-02-06T11:21:21.000Z</time>
      </trkpt>
      <trkpt lat="45.91888" lon="6.49581">
        <ele>1748.5999755859</ele>
        <time>2019-02-06T11:21:22.000Z</time>
      </trkpt>
      <trkpt lat="45.91888" lon="6.49579">
        <ele>1746.4000244141</ele>
        <time>2019-02-06T11:21:23.000Z</time>
      </trkpt>
      <trkpt lat="45.91888" lon="6.49577">
        <ele>1744.8000488281</ele>
        <time>2019-02-06T11:21:24.000Z</time>
      </trkpt>
      <trkpt lat="45.91888" lon="6.49575">
        <ele>1743</ele>
        <time>2019-02-06T11:21:25.000Z</time>
      </trkpt>
      <trkpt lat="45.91887" lon="6.4957">
        <ele>1742</ele>
        <time>2019-02-06T11:21:28.000Z</time>
      </trkpt>
      <trkpt lat="45.9189" lon="6.49575">
        <ele>1742</ele>
        <time>2019-02-06T11:21:32.000Z</time>
      </trkpt>
      <trkpt lat="45.91891" lon="6.49574">
        <ele>1742</ele>
        <time>2019-02-06T11:21:33.000Z</time>
      </trkpt>
      <trkpt lat="45.91895" lon="6.49584">
        <ele>1741.8000488281</ele>
        <time>2019-02-06T11:21:34.000Z</time>
      </trkpt>
      <trkpt lat="45.91897" lon="6.49585">
        <ele>1741.5999755859</ele>
        <time>2019-02-06T11:21:35.000Z</time>
      </trkpt>
      <trkpt lat="45.91901" lon="6.49581">
        <ele>1740.5999755859</ele>
        <time>2019-02-06T11:21:37.000Z</time>
      </trkpt>
      <trkpt lat="45.91904" lon="6.4958">
        <ele>1739.8000488281</ele>
        <time>2019-02-06T11:21:38.000Z</time>
      </trkpt>
      <trkpt lat="45.91907" lon="6.49578">
        <ele>1738.5999755859</ele>
        <time>2019-02-06T11:21:39.000Z</time>
      </trkpt>
      <trkpt lat="45.91911" lon="6.49574">
        <ele>1737</ele>
        <time>2019-02-06T11:21:40.000Z</time>
      </trkpt>
      <trkpt lat="45.91915" lon="6.49571">
        <ele>1735.1999511719</ele>
        <time>2019-02-06T11:21:41.000Z</time>
      </trkpt>
      <trkpt lat="45.9192" lon="6.49569">
        <ele>1733.1999511719</ele>
        <time>2019-02-06T11:21:42.000Z</time>
      </trkpt>
      <trkpt lat="45.91923" lon="6.49567">
        <ele>1731.1999511719</ele>
        <time>2019-02-06T11:21:43.000Z</time>
      </trkpt>
      <trkpt lat="45.91926" lon="6.49565">
        <ele>1728.8000488281</ele>
        <time>2019-02-06T11:21:44.000Z</time>
      </trkpt>
      <trkpt lat="45.91929" lon="6.49562">
        <ele>1726.8000488281</ele>
        <time>2019-02-06T11:21:45.000Z</time>
      </trkpt>
      <trkpt lat="45.91932" lon="6.49559">
        <ele>1724.5999755859</ele>
        <time>2019-02-06T11:21:46.000Z</time>
      </trkpt>
      <trkpt lat="45.91937" lon="6.49554">
        <ele>1722.4000244141</ele>
        <time>2019-02-06T11:21:47.000Z</time>
      </trkpt>
      <trkpt lat="45.9194" lon="6.4955">
        <ele>1720.1999511719</ele>
        <time>2019-02-06T11:21:48.000Z</time>
      </trkpt>
      <trkpt lat="45.91944" lon="6.49545">
        <ele>1715.4000244141</ele>
        <time>2019-02-06T11:21:49.000Z</time>
      </trkpt>
      <trkpt lat="45.91946" lon="6.4954">
        <ele>1713</ele>
        <time>2019-02-06T11:21:50.000Z</time>
      </trkpt>
      <trkpt lat="45.91948" lon="6.49536">
        <ele>1710.5999755859</ele>
        <time>2019-02-06T11:21:51.000Z</time>
      </trkpt>
      <trkpt lat="45.91951" lon="6.49531">
        <ele>1708.1999511719</ele>
        <time>2019-02-06T11:21:52.000Z</time>
      </trkpt>
      <trkpt lat="45.91956" lon="6.49526">
        <ele>1705.8000488281</ele>
        <time>2019-02-06T11:21:53.000Z</time>
      </trkpt>
      <trkpt lat="45.91959" lon="6.49522">
        <ele>1703.4000244141</ele>
        <time>2019-02-06T11:21:54.000Z</time>
      </trkpt>
      <trkpt lat="45.91964" lon="6.49514">
        <ele>1701.1999511719</ele>
        <time>2019-02-06T11:21:55.000Z</time>
      </trkpt>
      <trkpt lat="45.91969" lon="6.49506">
        <ele>1698.8000488281</ele>
        <time>2019-02-06T11:21:56.000Z</time>
      </trkpt>
      <trkpt lat="45.9197" lon="6.49499">
        <ele>1696.4000244141</ele>
        <time>2019-02-06T11:21:57.000Z</time>
      </trkpt>
      <trkpt lat="45.91972" lon="6.49492">
        <ele>1693.8000488281</ele>
        <time>2019-02-06T11:21:58.000Z</time>
      </trkpt>
      <trkpt lat="45.91976" lon="6.49487">
        <ele>1691</ele>
        <time>2019-02-06T11:21:59.000Z</time>
      </trkpt>
      <trkpt lat="45.91979" lon="6.4948">
        <ele>1688.4000244141</ele>
        <time>2019-02-06T11:22:00.000Z</time>
      </trkpt>
      <trkpt lat="45.91983" lon="6.49472">
        <ele>1686</ele>
        <time>2019-02-06T11:22:01.000Z</time>
      </trkpt>
      <trkpt lat="45.91986" lon="6.49468">
        <ele>1684</ele>
        <time>2019-02-06T11:22:02.000Z</time>
      </trkpt>
      <trkpt lat="45.91989" lon="6.49465">
        <ele>1682</ele>
        <time>2019-02-06T11:22:03.000Z</time>
      </trkpt>
      <trkpt lat="45.91993" lon="6.49461">
        <ele>1680</ele>
        <time>2019-02-06T11:22:04.000Z</time>
      </trkpt>
      <trkpt lat="45.91998" lon="6.49464">
        <ele>1678</ele>
        <time>2019-02-06T11:22:05.000Z</time>
      </trkpt>
      <trkpt lat="45.91998" lon="6.49462">
        <ele>1676.1999511719</ele>
        <time>2019-02-06T11:22:06.000Z</time>
      </trkpt>
      <trkpt lat="45.91998" lon="6.4946">
        <ele>1674.5999755859</ele>
        <time>2019-02-06T11:22:07.000Z</time>
      </trkpt>
      <trkpt lat="45.91998" lon="6.49457">
        <ele>1673.1999511719</ele>
        <time>2019-02-06T11:22:08.000Z</time>
      </trkpt>
      <trkpt lat="45.91997" lon="6.49455">
        <ele>1671.8000488281</ele>
        <time>2019-02-06T11:22:09.000Z</time>
      </trkpt>
      <trkpt lat="45.91997" lon="6.49453">
        <ele>1670.5999755859</ele>
        <time>2019-02-06T11:22:10.000Z</time>
      </trkpt>
      <trkpt lat="45.91996" lon="6.49451">
        <ele>1669.4000244141</ele>
        <time>2019-02-06T11:22:11.000Z</time>
      </trkpt>
      <trkpt lat="45.91995" lon="6.4945">
        <ele>1668.8000488281</ele>
        <time>2019-02-06T11:22:12.000Z</time>
      </trkpt>
      <trkpt lat="45.91995" lon="6.49448">
        <ele>1667.8000488281</ele>
        <time>2019-02-06T11:22:13.000Z</time>
      </trkpt>
      <trkpt lat="45.91994" lon="6.49444">
        <ele>1667.5999755859</ele>
        <time>2019-02-06T11:22:22.000Z</time>
      </trkpt>
      <trkpt lat="45.91994" lon="6.49444">
        <ele>1667.5999755859</ele>
        <time>2019-02-06T11:22:36.000Z</time>
      </trkpt>
      <trkpt lat="45.91994" lon="6.49444">
        <ele>1667.5999755859</ele>
        <time>2019-02-06T11:22:52.000Z</time>
      </trkpt>
      <trkpt lat="45.91996" lon="6.49457">
        <ele>1667.5999755859</ele>
        <time>2019-02-06T11:23:08.000Z</time>
      </trkpt>
      <trkpt lat="45.91996" lon="6.49457">
        <ele>1667.8000488281</ele>
        <time>2019-02-06T11:23:14.000Z</time>
      </trkpt>
      <trkpt lat="45.91996" lon="6.49457">
        <ele>1667.8000488281</ele>
        <time>2019-02-06T11:23:19.000Z</time>
      </trkpt>
      <trkpt lat="45.91996" lon="6.49457">
        <ele>1667.8000488281</ele>
        <time>2019-02-06T11:23:35.000Z</time>
      </trkpt>
      <trkpt lat="45.91997" lon="6.49461">
        <ele>1667.5999755859</ele>
        <time>2019-02-06T11:23:47.000Z</time>
      </trkpt>
      <trkpt lat="45.91997" lon="6.49461">
        <ele>1667.5999755859</ele>
        <time>2019-02-06T11:24:07.000Z</time>
      </trkpt>
      <trkpt lat="45.91997" lon="6.49461">
        <ele>1667.8000488281</ele>
        <time>2019-02-06T11:24:18.000Z</time>
      </trkpt>
      <trkpt lat="45.91998" lon="6.49459">
        <ele>1667.8000488281</ele>
        <time>2019-02-06T11:24:30.000Z</time>
      </trkpt>
      <trkpt lat="45.92007" lon="6.4946">
        <ele>1667.5999755859</ele>
        <time>2019-02-06T11:24:33.000Z</time>
      </trkpt>
      <trkpt lat="45.92011" lon="6.49462">
        <ele>1667.1999511719</ele>
        <time>2019-02-06T11:24:34.000Z</time>
      </trkpt>
      <trkpt lat="45.92014" lon="6.49461">
        <ele>1666.8000488281</ele>
        <time>2019-02-06T11:24:35.000Z</time>
      </trkpt>
      <trkpt lat="45.92018" lon="6.49451">
        <ele>1664</ele>
        <time>2019-02-06T11:24:37.000Z</time>
      </trkpt>
      <trkpt lat="45.92022" lon="6.4945">
        <ele>1662.8000488281</ele>
        <time>2019-02-06T11:24:38.000Z</time>
      </trkpt>
      <trkpt lat="45.92025" lon="6.49448">
        <ele>1661.4000244141</ele>
        <time>2019-02-06T11:24:39.000Z</time>
      </trkpt>
      <trkpt lat="45.92028" lon="6.49443">
        <ele>1659.8000488281</ele>
        <time>2019-02-06T11:24:40.000Z</time>
      </trkpt>
      <trkpt lat="45.92031" lon="6.49437">
        <ele>1658.1999511719</ele>
        <time>2019-02-06T11:24:41.000Z</time>
      </trkpt>
      <trkpt lat="45.92034" lon="6.4943">
        <ele>1656.5999755859</ele>
        <time>2019-02-06T11:24:42.000Z</time>
      </trkpt>
      <trkpt lat="45.92037" lon="6.49423">
        <ele>1655.1999511719</ele>
        <time>2019-02-06T11:24:43.000Z</time>
      </trkpt>
      <trkpt lat="45.92038" lon="6.49417">
        <ele>1653.5999755859</ele>
        <time>2019-02-06T11:24:44.000Z</time>
      </trkpt>
      <trkpt lat="45.92037" lon="6.49413">
        <ele>1651.8000488281</ele>
        <time>2019-02-06T11:24:45.000Z</time>
      </trkpt>
      <trkpt lat="45.92038" lon="6.4941">
        <ele>1650.1999511719</ele>
        <time>2019-02-06T11:24:46.000Z</time>
      </trkpt>
      <trkpt lat="45.92038" lon="6.49407">
        <ele>1648.5999755859</ele>
        <time>2019-02-06T11:24:47.000Z</time>
      </trkpt>
      <trkpt lat="45.92038" lon="6.49406">
        <ele>1647</ele>
        <time>2019-02-06T11:24:48.000Z</time>
      </trkpt>
      <trkpt lat="45.92038" lon="6.49404">
        <ele>1645.5999755859</ele>
        <time>2019-02-06T11:24:49.000Z</time>
      </trkpt>
      <trkpt lat="45.92039" lon="6.49401">
        <ele>1644</ele>
        <time>2019-02-06T11:24:51.000Z</time>
      </trkpt>
      <trkpt lat="45.9204" lon="6.49401">
        <ele>1643</ele>
        <time>2019-02-06T11:24:55.000Z</time>
      </trkpt>
      <trkpt lat="45.9204" lon="6.494">
        <ele>1643</ele>
        <time>2019-02-06T11:24:56.000Z</time>
      </trkpt>
      <trkpt lat="45.92045" lon="6.49407">
        <ele>1642.8000488281</ele>
        <time>2019-02-06T11:24:58.000Z</time>
      </trkpt>
      <trkpt lat="45.92047" lon="6.49412">
        <ele>1641.5999755859</ele>
        <time>2019-02-06T11:25:01.000Z</time>
      </trkpt>
      <trkpt lat="45.92047" lon="6.49412">
        <ele>1641</ele>
        <time>2019-02-06T11:25:03.000Z</time>
      </trkpt>
      <trkpt lat="45.92047" lon="6.49412">
        <ele>1640.4000244141</ele>
        <time>2019-02-06T11:25:06.000Z</time>
      </trkpt>
      <trkpt lat="45.92047" lon="6.49412">
        <ele>1639.8000488281</ele>
        <time>2019-02-06T11:25:17.000Z</time>
      </trkpt>
      <trkpt lat="45.92048" lon="6.4941">
        <ele>1639.8000488281</ele>
        <time>2019-02-06T11:25:21.000Z</time>
      </trkpt>
      <trkpt lat="45.92052" lon="6.49401">
        <ele>1639.8000488281</ele>
        <time>2019-02-06T11:25:23.000Z</time>
      </trkpt>
      <trkpt lat="45.92058" lon="6.49404">
        <ele>1639</ele>
        <time>2019-02-06T11:25:25.000Z</time>
      </trkpt>
      <trkpt lat="45.92059" lon="6.49408">
        <ele>1638.4000244141</ele>
        <time>2019-02-06T11:25:26.000Z</time>
      </trkpt>
      <trkpt lat="45.9206" lon="6.4941">
        <ele>1637.5999755859</ele>
        <time>2019-02-06T11:25:27.000Z</time>
      </trkpt>
      <trkpt lat="45.92062" lon="6.49406">
        <ele>1636.4000244141</ele>
        <time>2019-02-06T11:25:29.000Z</time>
      </trkpt>
      <trkpt lat="45.92064" lon="6.49393">
        <ele>1635</ele>
        <time>2019-02-06T11:25:32.000Z</time>
      </trkpt>
      <trkpt lat="45.92065" lon="6.4939">
        <ele>1633.5999755859</ele>
        <time>2019-02-06T11:25:34.000Z</time>
      </trkpt>
      <trkpt lat="45.92066" lon="6.49391">
        <ele>1632.4000244141</ele>
        <time>2019-02-06T11:25:35.000Z</time>
      </trkpt>
      <trkpt lat="45.92067" lon="6.49391">
        <ele>1631.4000244141</ele>
        <time>2019-02-06T11:25:36.000Z</time>
      </trkpt>
      <trkpt lat="45.92067" lon="6.49391">
        <ele>1630</ele>
        <time>2019-02-06T11:25:39.000Z</time>
      </trkpt>
      <trkpt lat="45.9207" lon="6.4939">
        <ele>1629.1999511719</ele>
        <time>2019-02-06T11:25:41.000Z</time>
      </trkpt>
      <trkpt lat="45.92071" lon="6.49387">
        <ele>1628.8000488281</ele>
        <time>2019-02-06T11:25:42.000Z</time>
      </trkpt>
      <trkpt lat="45.92072" lon="6.49386">
        <ele>1628.5999755859</ele>
        <time>2019-02-06T11:25:43.000Z</time>
      </trkpt>
      <trkpt lat="45.92075" lon="6.4939">
        <ele>1628</ele>
        <time>2019-02-06T11:25:45.000Z</time>
      </trkpt>
      <trkpt lat="45.92077" lon="6.4939">
        <ele>1627.1999511719</ele>
        <time>2019-02-06T11:25:46.000Z</time>
      </trkpt>
      <trkpt lat="45.9208" lon="6.49389">
        <ele>1626.1999511719</ele>
        <time>2019-02-06T11:25:47.000Z</time>
      </trkpt>
      <trkpt lat="45.92084" lon="6.49391">
        <ele>1624.5999755859</ele>
        <time>2019-02-06T11:25:49.000Z</time>
      </trkpt>
      <trkpt lat="45.92084" lon="6.49392">
        <ele>1622.4000244141</ele>
        <time>2019-02-06T11:25:50.000Z</time>
      </trkpt>
      <trkpt lat="45.92084" lon="6.49393">
        <ele>1621.1999511719</ele>
        <time>2019-02-06T11:25:51.000Z</time>
      </trkpt>
      <trkpt lat="45.92084" lon="6.49393">
        <ele>1619.5999755859</ele>
        <time>2019-02-06T11:25:53.000Z</time>
      </trkpt>
      <trkpt lat="45.92086" lon="6.49389">
        <ele>1619</ele>
        <time>2019-02-06T11:25:55.000Z</time>
      </trkpt>
      <trkpt lat="45.92086" lon="6.49386">
        <ele>1618.8000488281</ele>
        <time>2019-02-06T11:25:56.000Z</time>
      </trkpt>
      <trkpt lat="45.92088" lon="6.49383">
        <ele>1618.1999511719</ele>
        <time>2019-02-06T11:25:59.000Z</time>
      </trkpt>
      <trkpt lat="45.92088" lon="6.49385">
        <ele>1617.8000488281</ele>
        <time>2019-02-06T11:26:00.000Z</time>
      </trkpt>
      <trkpt lat="45.92088" lon="6.49385">
        <ele>1617</ele>
        <time>2019-02-06T11:26:02.000Z</time>
      </trkpt>
      <trkpt lat="45.92088" lon="6.49388">
        <ele>1616.4000244141</ele>
        <time>2019-02-06T11:26:06.000Z</time>
      </trkpt>
      <trkpt lat="45.92085" lon="6.49395">
        <ele>1616.1999511719</ele>
        <time>2019-02-06T11:26:08.000Z</time>
      </trkpt>
      <trkpt lat="45.92086" lon="6.49396">
        <ele>1615.8000488281</ele>
        <time>2019-02-06T11:26:09.000Z</time>
      </trkpt>
      <trkpt lat="45.92089" lon="6.49392">
        <ele>1615.1999511719</ele>
        <time>2019-02-06T11:26:11.000Z</time>
      </trkpt>
      <trkpt lat="45.92091" lon="6.49391">
        <ele>1614.5999755859</ele>
        <time>2019-02-06T11:26:13.000Z</time>
      </trkpt>
      <trkpt lat="45.92091" lon="6.49391">
        <ele>1613.1999511719</ele>
        <time>2019-02-06T11:26:16.000Z</time>
      </trkpt>
      <trkpt lat="45.92091" lon="6.49391">
        <ele>1613</ele>
        <time>2019-02-06T11:26:17.000Z</time>
      </trkpt>
      <trkpt lat="45.92092" lon="6.4939">
        <ele>1612.4000244141</ele>
        <time>2019-02-06T11:26:22.000Z</time>
      </trkpt>
      <trkpt lat="45.92092" lon="6.49389">
        <ele>1612.1999511719</ele>
        <time>2019-02-06T11:26:25.000Z</time>
      </trkpt>
      <trkpt lat="45.92094" lon="6.49388">
        <ele>1611.8000488281</ele>
        <time>2019-02-06T11:26:27.000Z</time>
      </trkpt>
      <trkpt lat="45.92094" lon="6.49388">
        <ele>1611</ele>
        <time>2019-02-06T11:26:31.000Z</time>
      </trkpt>
      <trkpt lat="45.92094" lon="6.49389">
        <ele>1610.4000244141</ele>
        <time>2019-02-06T11:26:34.000Z</time>
      </trkpt>
      <trkpt lat="45.92093" lon="6.49394">
        <ele>1610.1999511719</ele>
        <time>2019-02-06T11:26:36.000Z</time>
      </trkpt>
      <trkpt lat="45.92097" lon="6.49392">
        <ele>1609.5999755859</ele>
        <time>2019-02-06T11:26:38.000Z</time>
      </trkpt>
      <trkpt lat="45.92099" lon="6.49391">
        <ele>1608.1999511719</ele>
        <time>2019-02-06T11:26:41.000Z</time>
      </trkpt>
      <trkpt lat="45.921" lon="6.49394">
        <ele>1607</ele>
        <time>2019-02-06T11:26:43.000Z</time>
      </trkpt>
      <trkpt lat="45.92103" lon="6.49389">
        <ele>1605.5999755859</ele>
        <time>2019-02-06T11:26:45.000Z</time>
      </trkpt>
      <trkpt lat="45.92104" lon="6.49388">
        <ele>1605</ele>
        <time>2019-02-06T11:26:46.000Z</time>
      </trkpt>
      <trkpt lat="45.92106" lon="6.49388">
        <ele>1604.1999511719</ele>
        <time>2019-02-06T11:26:48.000Z</time>
      </trkpt>
      <trkpt lat="45.92107" lon="6.49389">
        <ele>1603.4000244141</ele>
        <time>2019-02-06T11:26:49.000Z</time>
      </trkpt>
      <trkpt lat="45.92107" lon="6.49391">
        <ele>1602.5999755859</ele>
        <time>2019-02-06T11:26:50.000Z</time>
      </trkpt>
      <trkpt lat="45.92111" lon="6.49393">
        <ele>1600.8000488281</ele>
        <time>2019-02-06T11:26:52.000Z</time>
      </trkpt>
      <trkpt lat="45.92116" lon="6.4939">
        <ele>1599.1999511719</ele>
        <time>2019-02-06T11:26:54.000Z</time>
      </trkpt>
      <trkpt lat="45.92125" lon="6.49386">
        <ele>1597.8000488281</ele>
        <time>2019-02-06T11:26:57.000Z</time>
      </trkpt>
      <trkpt lat="45.92127" lon="6.49383">
        <ele>1596.8000488281</ele>
        <time>2019-02-06T11:26:58.000Z</time>
      </trkpt>
      <trkpt lat="45.92129" lon="6.49381">
        <ele>1595.8000488281</ele>
        <time>2019-02-06T11:26:59.000Z</time>
      </trkpt>
      <trkpt lat="45.92134" lon="6.49379">
        <ele>1594</ele>
        <time>2019-02-06T11:27:01.000Z</time>
      </trkpt>
      <trkpt lat="45.92137" lon="6.4938">
        <ele>1591.1999511719</ele>
        <time>2019-02-06T11:27:02.000Z</time>
      </trkpt>
      <trkpt lat="45.9214" lon="6.49381">
        <ele>1590</ele>
        <time>2019-02-06T11:27:03.000Z</time>
      </trkpt>
      <trkpt lat="45.92148" lon="6.49377">
        <ele>1588.1999511719</ele>
        <time>2019-02-06T11:27:05.000Z</time>
      </trkpt>
      <trkpt lat="45.92152" lon="6.49374">
        <ele>1587.1999511719</ele>
        <time>2019-02-06T11:27:06.000Z</time>
      </trkpt>
      <trkpt lat="45.92156" lon="6.49372">
        <ele>1585.8000488281</ele>
        <time>2019-02-06T11:27:07.000Z</time>
      </trkpt>
      <trkpt lat="45.9216" lon="6.49373">
        <ele>1584.4000244141</ele>
        <time>2019-02-06T11:27:08.000Z</time>
      </trkpt>
      <trkpt lat="45.92164" lon="6.49375">
        <ele>1582.8000488281</ele>
        <time>2019-02-06T11:27:09.000Z</time>
      </trkpt>
      <trkpt lat="45.92169" lon="6.49376">
        <ele>1581.1999511719</ele>
        <time>2019-02-06T11:27:10.000Z</time>
      </trkpt>
      <trkpt lat="45.92173" lon="6.49377">
        <ele>1579.8000488281</ele>
        <time>2019-02-06T11:27:11.000Z</time>
      </trkpt>
      <trkpt lat="45.92178" lon="6.49378">
        <ele>1578.1999511719</ele>
        <time>2019-02-06T11:27:12.000Z</time>
      </trkpt>
      <trkpt lat="45.92183" lon="6.49381">
        <ele>1576.4000244141</ele>
        <time>2019-02-06T11:27:13.000Z</time>
      </trkpt>
      <trkpt lat="45.92189" lon="6.49382">
        <ele>1574.4000244141</ele>
        <time>2019-02-06T11:27:14.000Z</time>
      </trkpt>
      <trkpt lat="45.92192" lon="6.49384">
        <ele>1572.4000244141</ele>
        <time>2019-02-06T11:27:15.000Z</time>
      </trkpt>
      <trkpt lat="45.92195" lon="6.49385">
        <ele>1570.8000488281</ele>
        <time>2019-02-06T11:27:16.000Z</time>
      </trkpt>
      <trkpt lat="45.92197" lon="6.49385">
        <ele>1569.1999511719</ele>
        <time>2019-02-06T11:27:17.000Z</time>
      </trkpt>
      <trkpt lat="45.92198" lon="6.49384">
        <ele>1568.1999511719</ele>
        <time>2019-02-06T11:27:18.000Z</time>
      </trkpt>
      <trkpt lat="45.92201" lon="6.49385">
        <ele>1566.8000488281</ele>
        <time>2019-02-06T11:27:20.000Z</time>
      </trkpt>
      <trkpt lat="45.92203" lon="6.49386">
        <ele>1566.4000244141</ele>
        <time>2019-02-06T11:27:21.000Z</time>
      </trkpt>
      <trkpt lat="45.92206" lon="6.49387">
        <ele>1565.5999755859</ele>
        <time>2019-02-06T11:27:22.000Z</time>
      </trkpt>
      <trkpt lat="45.92217" lon="6.49381">
        <ele>1563.5999755859</ele>
        <time>2019-02-06T11:27:24.000Z</time>
      </trkpt>
      <trkpt lat="45.92224" lon="6.49377">
        <ele>1562.5999755859</ele>
        <time>2019-02-06T11:27:25.000Z</time>
      </trkpt>
      <trkpt lat="45.92231" lon="6.49372">
        <ele>1560.8000488281</ele>
        <time>2019-02-06T11:27:26.000Z</time>
      </trkpt>
      <trkpt lat="45.92243" lon="6.49362">
        <ele>1559.1999511719</ele>
        <time>2019-02-06T11:27:28.000Z</time>
      </trkpt>
      <trkpt lat="45.92249" lon="6.49358">
        <ele>1558.4000244141</ele>
        <time>2019-02-06T11:27:29.000Z</time>
      </trkpt>
      <trkpt lat="45.92253" lon="6.49354">
        <ele>1557.5999755859</ele>
        <time>2019-02-06T11:27:30.000Z</time>
      </trkpt>
      <trkpt lat="45.92262" lon="6.49349">
        <ele>1555.8000488281</ele>
        <time>2019-02-06T11:27:32.000Z</time>
      </trkpt>
      <trkpt lat="45.92265" lon="6.49349">
        <ele>1555</ele>
        <time>2019-02-06T11:27:33.000Z</time>
      </trkpt>
      <trkpt lat="45.92266" lon="6.49349">
        <ele>1554</ele>
        <time>2019-02-06T11:27:34.000Z</time>
      </trkpt>
      <trkpt lat="45.92267" lon="6.4935">
        <ele>1552.8000488281</ele>
        <time>2019-02-06T11:27:36.000Z</time>
      </trkpt>
      <trkpt lat="45.92267" lon="6.4935">
        <ele>1551.5999755859</ele>
        <time>2019-02-06T11:27:44.000Z</time>
      </trkpt>
      <trkpt lat="45.92267" lon="6.4935">
        <ele>1551.4000244141</ele>
        <time>2019-02-06T11:27:46.000Z</time>
      </trkpt>
      <trkpt lat="45.92267" lon="6.4935">
        <ele>1551.4000244141</ele>
        <time>2019-02-06T11:27:56.000Z</time>
      </trkpt>
      <trkpt lat="45.92267" lon="6.4935">
        <ele>1551.1999511719</ele>
        <time>2019-02-06T11:28:14.000Z</time>
      </trkpt>
      <trkpt lat="45.92265" lon="6.49351">
        <ele>1550.5999755859</ele>
        <time>2019-02-06T11:28:28.000Z</time>
      </trkpt>
      <trkpt lat="45.92265" lon="6.49351">
        <ele>1550.4000244141</ele>
        <time>2019-02-06T11:28:30.000Z</time>
      </trkpt>
      <trkpt lat="45.92265" lon="6.49351">
        <ele>1551.5999755859</ele>
        <time>2019-02-06T11:28:34.000Z</time>
      </trkpt>
      <trkpt lat="45.92265" lon="6.49351">
        <ele>1551.4000244141</ele>
        <time>2019-02-06T11:28:47.000Z</time>
      </trkpt>
      <trkpt lat="45.92265" lon="6.49351">
        <ele>1551.1999511719</ele>
        <time>2019-02-06T11:29:03.000Z</time>
      </trkpt>
      <trkpt lat="45.92265" lon="6.49351">
        <ele>1551.1999511719</ele>
        <time>2019-02-06T11:29:13.000Z</time>
      </trkpt>
      <trkpt lat="45.92265" lon="6.49351">
        <ele>1550.5999755859</ele>
        <time>2019-02-06T11:29:22.000Z</time>
      </trkpt>
      <trkpt lat="45.92265" lon="6.49351">
        <ele>1551</ele>
        <time>2019-02-06T11:29:24.000Z</time>
      </trkpt>
      <trkpt lat="45.92265" lon="6.49351">
        <ele>1551.5999755859</ele>
        <time>2019-02-06T11:29:26.000Z</time>
      </trkpt>
      <trkpt lat="45.92265" lon="6.49351">
        <ele>1551.1999511719</ele>
        <time>2019-02-06T11:29:41.000Z</time>
      </trkpt>
      <trkpt lat="45.92265" lon="6.49351">
        <ele>1551.1999511719</ele>
        <time>2019-02-06T11:29:53.000Z</time>
      </trkpt>
      <trkpt lat="45.92265" lon="6.49351">
        <ele>1551</ele>
        <time>2019-02-06T11:30:07.000Z</time>
      </trkpt>
      <trkpt lat="45.92266" lon="6.49351">
        <ele>1551.4000244141</ele>
        <time>2019-02-06T11:30:19.000Z</time>
      </trkpt>
      <trkpt lat="45.92266" lon="6.49351">
        <ele>1551.1999511719</ele>
        <time>2019-02-06T11:30:38.000Z</time>
      </trkpt>
      <trkpt lat="45.92266" lon="6.49351">
        <ele>1551.1999511719</ele>
        <time>2019-02-06T11:30:54.000Z</time>
      </trkpt>
      <trkpt lat="45.92265" lon="6.4935">
        <ele>1551.1999511719</ele>
        <time>2019-02-06T11:31:07.000Z</time>
      </trkpt>
      <trkpt lat="45.92265" lon="6.4935">
        <ele>1551</ele>
        <time>2019-02-06T11:31:17.000Z</time>
      </trkpt>
      <trkpt lat="45.92265" lon="6.4935">
        <ele>1550.5999755859</ele>
        <time>2019-02-06T11:31:21.000Z</time>
      </trkpt>
      <trkpt lat="45.92265" lon="6.4935">
        <ele>1551.5999755859</ele>
        <time>2019-02-06T11:31:28.000Z</time>
      </trkpt>
      <trkpt lat="45.92265" lon="6.4935">
        <ele>1551.5999755859</ele>
        <time>2019-02-06T11:31:31.000Z</time>
      </trkpt>
      <trkpt lat="45.92265" lon="6.4935">
        <ele>1551.1999511719</ele>
        <time>2019-02-06T11:31:46.000Z</time>
      </trkpt>
      <trkpt lat="45.92265" lon="6.4935">
        <ele>1551.1999511719</ele>
        <time>2019-02-06T11:31:59.000Z</time>
      </trkpt>
      <trkpt lat="45.92265" lon="6.4935">
        <ele>1551.1999511719</ele>
        <time>2019-02-06T11:32:08.000Z</time>
      </trkpt>
      <trkpt lat="45.92266" lon="6.49347">
        <ele>1551.1999511719</ele>
        <time>2019-02-06T11:32:19.000Z</time>
      </trkpt>
      <trkpt lat="45.92266" lon="6.49347">
        <ele>1551.1999511719</ele>
        <time>2019-02-06T11:32:38.000Z</time>
      </trkpt>
      <trkpt lat="45.92266" lon="6.49347">
        <ele>1551.1999511719</ele>
        <time>2019-02-06T11:32:53.000Z</time>
      </trkpt>
      <trkpt lat="45.92266" lon="6.49348">
        <ele>1551.1999511719</ele>
        <time>2019-02-06T11:33:06.000Z</time>
      </trkpt>
      <trkpt lat="45.92266" lon="6.49348">
        <ele>1551.4000244141</ele>
        <time>2019-02-06T11:33:16.000Z</time>
      </trkpt>
      <trkpt lat="45.92266" lon="6.49348">
        <ele>1551.5999755859</ele>
        <time>2019-02-06T11:33:29.000Z</time>
      </trkpt>
      <trkpt lat="45.92266" lon="6.49348">
        <ele>1552.8000488281</ele>
        <time>2019-02-06T11:33:32.000Z</time>
      </trkpt>
      <trkpt lat="45.92265" lon="6.49347">
        <ele>1551.5999755859</ele>
        <time>2019-02-06T11:33:36.000Z</time>
      </trkpt>
      <trkpt lat="45.92265" lon="6.49347">
        <ele>1551.4000244141</ele>
        <time>2019-02-06T11:33:43.000Z</time>
      </trkpt>
      <trkpt lat="45.92265" lon="6.49347">
        <ele>1551.4000244141</ele>
        <time>2019-02-06T11:33:59.000Z</time>
      </trkpt>
      <trkpt lat="45.92265" lon="6.49347">
        <ele>1551.4000244141</ele>
        <time>2019-02-06T11:34:09.000Z</time>
      </trkpt>
      <trkpt lat="45.92265" lon="6.49348">
        <ele>1551.5999755859</ele>
        <time>2019-02-06T11:34:21.000Z</time>
      </trkpt>
      <trkpt lat="45.92265" lon="6.49348">
        <ele>1551.4000244141</ele>
        <time>2019-02-06T11:34:34.000Z</time>
      </trkpt>
      <trkpt lat="45.92265" lon="6.49348">
        <ele>1551.5999755859</ele>
        <time>2019-02-06T11:34:43.000Z</time>
      </trkpt>
      <trkpt lat="45.92265" lon="6.49348">
        <ele>1551.4000244141</ele>
        <time>2019-02-06T11:34:55.000Z</time>
      </trkpt>
      <trkpt lat="45.92265" lon="6.49347">
        <ele>1551.8000488281</ele>
        <time>2019-02-06T11:35:07.000Z</time>
      </trkpt>
      <trkpt lat="45.92265" lon="6.49347">
        <ele>1551.5999755859</ele>
        <time>2019-02-06T11:35:22.000Z</time>
      </trkpt>
      <trkpt lat="45.92265" lon="6.49347">
        <ele>1550.4000244141</ele>
        <time>2019-02-06T11:35:28.000Z</time>
      </trkpt>
      <trkpt lat="45.92265" lon="6.49347">
        <ele>1551.5999755859</ele>
        <time>2019-02-06T11:35:32.000Z</time>
      </trkpt>
      <trkpt lat="45.92265" lon="6.49347">
        <ele>1553</ele>
        <time>2019-02-06T11:35:34.000Z</time>
      </trkpt>
      <trkpt lat="45.92264" lon="6.49354">
        <ele>1552</ele>
        <time>2019-02-06T11:35:38.000Z</time>
      </trkpt>
      <trkpt lat="45.92264" lon="6.49354">
        <ele>1551.8000488281</ele>
        <time>2019-02-06T11:35:48.000Z</time>
      </trkpt>
      <trkpt lat="45.92264" lon="6.49354">
        <ele>1550.8000488281</ele>
        <time>2019-02-06T11:35:51.000Z</time>
      </trkpt>
      <trkpt lat="45.92264" lon="6.49354">
        <ele>1552.1999511719</ele>
        <time>2019-02-06T11:35:55.000Z</time>
      </trkpt>
      <trkpt lat="45.92264" lon="6.49354">
        <ele>1553.1999511719</ele>
        <time>2019-02-06T11:35:58.000Z</time>
      </trkpt>
      <trkpt lat="45.92264" lon="6.49354">
        <ele>1552.8000488281</ele>
        <time>2019-02-06T11:36:02.000Z</time>
      </trkpt>
      <trkpt lat="45.92264" lon="6.49354">
        <ele>1552.1999511719</ele>
        <time>2019-02-06T11:36:08.000Z</time>
      </trkpt>
      <trkpt lat="45.92263" lon="6.49354">
        <ele>1552.1999511719</ele>
        <time>2019-02-06T11:36:21.000Z</time>
      </trkpt>
      <trkpt lat="45.92263" lon="6.49354">
        <ele>1551.5999755859</ele>
        <time>2019-02-06T11:36:38.000Z</time>
      </trkpt>
      <trkpt lat="45.92263" lon="6.49354">
        <ele>1551.8000488281</ele>
        <time>2019-02-06T11:36:52.000Z</time>
      </trkpt>
      <trkpt lat="45.92262" lon="6.49355">
        <ele>1552</ele>
        <time>2019-02-06T11:37:06.000Z</time>
      </trkpt>
      <trkpt lat="45.92262" lon="6.49355">
        <ele>1552</ele>
        <time>2019-02-06T11:37:25.000Z</time>
      </trkpt>
      <trkpt lat="45.92262" lon="6.49355">
        <ele>1551.8000488281</ele>
        <time>2019-02-06T11:37:36.000Z</time>
      </trkpt>
      <trkpt lat="45.92262" lon="6.49355">
        <ele>1551.8000488281</ele>
        <time>2019-02-06T11:37:49.000Z</time>
      </trkpt>
      <trkpt lat="45.92262" lon="6.49355">
        <ele>1551.8000488281</ele>
        <time>2019-02-06T11:38:02.000Z</time>
      </trkpt>
      <trkpt lat="45.92261" lon="6.49355">
        <ele>1552.1999511719</ele>
        <time>2019-02-06T11:38:17.000Z</time>
      </trkpt>
      <trkpt lat="45.92261" lon="6.49355">
        <ele>1552.1999511719</ele>
        <time>2019-02-06T11:38:31.000Z</time>
      </trkpt>
      <trkpt lat="45.92261" lon="6.49355">
        <ele>1552.1999511719</ele>
        <time>2019-02-06T11:38:43.000Z</time>
      </trkpt>
      <trkpt lat="45.92261" lon="6.49355">
        <ele>1552.1999511719</ele>
        <time>2019-02-06T11:38:53.000Z</time>
      </trkpt>
      <trkpt lat="45.9226" lon="6.49355">
        <ele>1552.8000488281</ele>
        <time>2019-02-06T11:39:01.000Z</time>
      </trkpt>
      <trkpt lat="45.9226" lon="6.49355">
        <ele>1552.4000244141</ele>
        <time>2019-02-06T11:39:16.000Z</time>
      </trkpt>
      <trkpt lat="45.9226" lon="6.49355">
        <ele>1552.5999755859</ele>
        <time>2019-02-06T11:39:29.000Z</time>
      </trkpt>
      <trkpt lat="45.92259" lon="6.49354">
        <ele>1552.5999755859</ele>
        <time>2019-02-06T11:39:46.000Z</time>
      </trkpt>
      <trkpt lat="45.92259" lon="6.49354">
        <ele>1552.5999755859</ele>
        <time>2019-02-06T11:40:00.000Z</time>
      </trkpt>
      <trkpt lat="45.92259" lon="6.49354">
        <ele>1552.5999755859</ele>
        <time>2019-02-06T11:40:03.000Z</time>
      </trkpt>
      <trkpt lat="45.92259" lon="6.49354">
        <ele>1552.4000244141</ele>
        <time>2019-02-06T11:40:09.000Z</time>
      </trkpt>
      <trkpt lat="45.92257" lon="6.49358">
        <ele>1553.1999511719</ele>
        <time>2019-02-06T11:40:17.000Z</time>
      </trkpt>
      <trkpt lat="45.92257" lon="6.49362">
        <ele>1553.5999755859</ele>
        <time>2019-02-06T11:40:23.000Z</time>
      </trkpt>
      <trkpt lat="45.92257" lon="6.49366">
        <ele>1553.5999755859</ele>
        <time>2019-02-06T11:40:26.000Z</time>
      </trkpt>
      <trkpt lat="45.92256" lon="6.49367">
        <ele>1553.8000488281</ele>
        <time>2019-02-06T11:40:27.000Z</time>
      </trkpt>
      <trkpt lat="45.92256" lon="6.4937">
        <ele>1554.1999511719</ele>
        <time>2019-02-06T11:40:31.000Z</time>
      </trkpt>
      <trkpt lat="45.92257" lon="6.4937">
        <ele>1554.4000244141</ele>
        <time>2019-02-06T11:40:32.000Z</time>
      </trkpt>
      <trkpt lat="45.92256" lon="6.49372">
        <ele>1555</ele>
        <time>2019-02-06T11:40:35.000Z</time>
      </trkpt>
      <trkpt lat="45.92256" lon="6.49374">
        <ele>1555.4000244141</ele>
        <time>2019-02-06T11:40:39.000Z</time>
      </trkpt>
      <trkpt lat="45.92256" lon="6.49375">
        <ele>1556.1999511719</ele>
        <time>2019-02-06T11:40:45.000Z</time>
      </trkpt>
      <trkpt lat="45.92256" lon="6.49375">
        <ele>1556.5999755859</ele>
        <time>2019-02-06T11:40:49.000Z</time>
      </trkpt>
      <trkpt lat="45.92256" lon="6.49378">
        <ele>1556.5999755859</ele>
        <time>2019-02-06T11:40:53.000Z</time>
      </trkpt>
      <trkpt lat="45.92256" lon="6.49384">
        <ele>1556.5999755859</ele>
        <time>2019-02-06T11:40:57.000Z</time>
      </trkpt>
      <trkpt lat="45.92256" lon="6.49384">
        <ele>1557.5999755859</ele>
        <time>2019-02-06T11:41:00.000Z</time>
      </trkpt>
      <trkpt lat="45.92255" lon="6.49389">
        <ele>1557.8000488281</ele>
        <time>2019-02-06T11:41:04.000Z</time>
      </trkpt>
      <trkpt lat="45.92256" lon="6.49392">
        <ele>1558.1999511719</ele>
        <time>2019-02-06T11:41:08.000Z</time>
      </trkpt>
      <trkpt lat="45.92256" lon="6.49393">
        <ele>1558.5999755859</ele>
        <time>2019-02-06T11:41:10.000Z</time>
      </trkpt>
      <trkpt lat="45.92256" lon="6.49394">
        <ele>1559</ele>
        <time>2019-02-06T11:41:12.000Z</time>
      </trkpt>
      <trkpt lat="45.92257" lon="6.49399">
        <ele>1559.8000488281</ele>
        <time>2019-02-06T11:41:16.000Z</time>
      </trkpt>
      <trkpt lat="45.92257" lon="6.49401">
        <ele>1560.1999511719</ele>
        <time>2019-02-06T11:41:18.000Z</time>
      </trkpt>
      <trkpt lat="45.92253" lon="6.49405">
        <ele>1560.8000488281</ele>
        <time>2019-02-06T11:41:21.000Z</time>
      </trkpt>
      <trkpt lat="45.9225" lon="6.49407">
        <ele>1561.4000244141</ele>
        <time>2019-02-06T11:41:24.000Z</time>
      </trkpt>
      <trkpt lat="45.92248" lon="6.49409">
        <ele>1561.8000488281</ele>
        <time>2019-02-06T11:41:26.000Z</time>
      </trkpt>
      <trkpt lat="45.92247" lon="6.49411">
        <ele>1562.1999511719</ele>
        <time>2019-02-06T11:41:28.000Z</time>
      </trkpt>
      <trkpt lat="45.92245" lon="6.49414">
        <ele>1562.5999755859</ele>
        <time>2019-02-06T11:41:31.000Z</time>
      </trkpt>
      <trkpt lat="45.92245" lon="6.49414">
        <ele>1562.8000488281</ele>
        <time>2019-02-06T11:41:32.000Z</time>
      </trkpt>
      <trkpt lat="45.92245" lon="6.49416">
        <ele>1563.1999511719</ele>
        <time>2019-02-06T11:41:34.000Z</time>
      </trkpt>
      <trkpt lat="45.92243" lon="6.49422">
        <ele>1564</ele>
        <time>2019-02-06T11:41:40.000Z</time>
      </trkpt>
      <trkpt lat="45.92243" lon="6.49424">
        <ele>1564.5999755859</ele>
        <time>2019-02-06T11:41:50.000Z</time>
      </trkpt>
      <trkpt lat="45.92245" lon="6.4943">
        <ele>1565</ele>
        <time>2019-02-06T11:41:54.000Z</time>
      </trkpt>
      <trkpt lat="45.92247" lon="6.49432">
        <ele>1565.5999755859</ele>
        <time>2019-02-06T11:41:57.000Z</time>
      </trkpt>
      <trkpt lat="45.92248" lon="6.49435">
        <ele>1566.1999511719</ele>
        <time>2019-02-06T11:42:00.000Z</time>
      </trkpt>
      <trkpt lat="45.92249" lon="6.49437">
        <ele>1566.5999755859</ele>
        <time>2019-02-06T11:42:03.000Z</time>
      </trkpt>
      <trkpt lat="45.92251" lon="6.4944">
        <ele>1567.1999511719</ele>
        <time>2019-02-06T11:42:06.000Z</time>
      </trkpt>
      <trkpt lat="45.92251" lon="6.4944">
        <ele>1567.5999755859</ele>
        <time>2019-02-06T11:42:08.000Z</time>
      </trkpt>
      <trkpt lat="45.92251" lon="6.49442">
        <ele>1568.1999511719</ele>
        <time>2019-02-06T11:42:11.000Z</time>
      </trkpt>
      <trkpt lat="45.9225" lon="6.49443">
        <ele>1568.5999755859</ele>
        <time>2019-02-06T11:42:13.000Z</time>
      </trkpt>
      <trkpt lat="45.92248" lon="6.49446">
        <ele>1569</ele>
        <time>2019-02-06T11:42:15.000Z</time>
      </trkpt>
      <trkpt lat="45.92248" lon="6.49447">
        <ele>1569.4000244141</ele>
        <time>2019-02-06T11:42:16.000Z</time>
      </trkpt>
      <trkpt lat="45.92247" lon="6.49448">
        <ele>1569.4000244141</ele>
        <time>2019-02-06T11:42:17.000Z</time>
      </trkpt>
      <trkpt lat="45.92244" lon="6.49451">
        <ele>1570.1999511719</ele>
        <time>2019-02-06T11:42:24.000Z</time>
      </trkpt>
      <trkpt lat="45.92244" lon="6.49451">
        <ele>1570.4000244141</ele>
        <time>2019-02-06T11:42:26.000Z</time>
      </trkpt>
      <trkpt lat="45.92241" lon="6.49454">
        <ele>1571.1999511719</ele>
        <time>2019-02-06T11:42:33.000Z</time>
      </trkpt>
      <trkpt lat="45.9224" lon="6.49455">
        <ele>1571.4000244141</ele>
        <time>2019-02-06T11:42:35.000Z</time>
      </trkpt>
      <trkpt lat="45.92239" lon="6.49459">
        <ele>1571.5999755859</ele>
        <time>2019-02-06T11:42:38.000Z</time>
      </trkpt>
      <trkpt lat="45.9224" lon="6.49466">
        <ele>1572.4000244141</ele>
        <time>2019-02-06T11:42:43.000Z</time>
      </trkpt>
      <trkpt lat="45.92241" lon="6.49466">
        <ele>1572.5999755859</ele>
        <time>2019-02-06T11:42:44.000Z</time>
      </trkpt>
      <trkpt lat="45.92245" lon="6.49466">
        <ele>1573.5999755859</ele>
        <time>2019-02-06T11:42:49.000Z</time>
      </trkpt>
      <trkpt lat="45.92245" lon="6.49467">
        <ele>1573.8000488281</ele>
        <time>2019-02-06T11:42:50.000Z</time>
      </trkpt>
      <trkpt lat="45.92251" lon="6.4947">
        <ele>1574.5999755859</ele>
        <time>2019-02-06T11:42:56.000Z</time>
      </trkpt>
      <trkpt lat="45.92252" lon="6.49471">
        <ele>1575.1999511719</ele>
        <time>2019-02-06T11:42:59.000Z</time>
      </trkpt>
      <trkpt lat="45.92252" lon="6.49474">
        <ele>1575.5999755859</ele>
        <time>2019-02-06T11:43:02.000Z</time>
      </trkpt>
      <trkpt lat="45.92252" lon="6.49476">
        <ele>1575.5999755859</ele>
        <time>2019-02-06T11:43:03.000Z</time>
      </trkpt>
      <trkpt lat="45.92251" lon="6.49479">
        <ele>1576.8000488281</ele>
        <time>2019-02-06T11:43:07.000Z</time>
      </trkpt>
      <trkpt lat="45.9225" lon="6.49479">
        <ele>1577</ele>
        <time>2019-02-06T11:43:08.000Z</time>
      </trkpt>
      <trkpt lat="45.92249" lon="6.4948">
        <ele>1577.1999511719</ele>
        <time>2019-02-06T11:43:09.000Z</time>
      </trkpt>
      <trkpt lat="45.92248" lon="6.49481">
        <ele>1577.8000488281</ele>
        <time>2019-02-06T11:43:12.000Z</time>
      </trkpt>
      <trkpt lat="45.92247" lon="6.49481">
        <ele>1577.8000488281</ele>
        <time>2019-02-06T11:43:13.000Z</time>
      </trkpt>
      <trkpt lat="45.92244" lon="6.49482">
        <ele>1578.5999755859</ele>
        <time>2019-02-06T11:43:18.000Z</time>
      </trkpt>
      <trkpt lat="45.92243" lon="6.49483">
        <ele>1578.8000488281</ele>
        <time>2019-02-06T11:43:19.000Z</time>
      </trkpt>
      <trkpt lat="45.92241" lon="6.49484">
        <ele>1579.4000244141</ele>
        <time>2019-02-06T11:43:23.000Z</time>
      </trkpt>
      <trkpt lat="45.92242" lon="6.49487">
        <ele>1579.8000488281</ele>
        <time>2019-02-06T11:43:27.000Z</time>
      </trkpt>
      <trkpt lat="45.92244" lon="6.49489">
        <ele>1580.1999511719</ele>
        <time>2019-02-06T11:43:29.000Z</time>
      </trkpt>
      <trkpt lat="45.92245" lon="6.49491">
        <ele>1581</ele>
        <time>2019-02-06T11:43:32.000Z</time>
      </trkpt>
      <trkpt lat="45.92246" lon="6.49492">
        <ele>1581.4000244141</ele>
        <time>2019-02-06T11:43:35.000Z</time>
      </trkpt>
      <trkpt lat="45.92246" lon="6.49492">
        <ele>1582</ele>
        <time>2019-02-06T11:43:51.000Z</time>
      </trkpt>
      <trkpt lat="45.92246" lon="6.49493">
        <ele>1582.1999511719</ele>
        <time>2019-02-06T11:43:52.000Z</time>
      </trkpt>
      <trkpt lat="45.92247" lon="6.49493">
        <ele>1582.4000244141</ele>
        <time>2019-02-06T11:43:56.000Z</time>
      </trkpt>
      <trkpt lat="45.92247" lon="6.49493">
        <ele>1582.5999755859</ele>
        <time>2019-02-06T11:44:06.000Z</time>
      </trkpt>
      <trkpt lat="45.92247" lon="6.49493">
        <ele>1582.4000244141</ele>
        <time>2019-02-06T11:44:17.000Z</time>
      </trkpt>
      <trkpt lat="45.92247" lon="6.49493">
        <ele>1581.8000488281</ele>
        <time>2019-02-06T11:44:27.000Z</time>
      </trkpt>
      <trkpt lat="45.92247" lon="6.49493">
        <ele>1582.5999755859</ele>
        <time>2019-02-06T11:44:41.000Z</time>
      </trkpt>
      <trkpt lat="45.92247" lon="6.49493">
        <ele>1582.1999511719</ele>
        <time>2019-02-06T11:44:53.000Z</time>
      </trkpt>
      <trkpt lat="45.92249" lon="6.49495">
        <ele>1583.1999511719</ele>
        <time>2019-02-06T11:45:00.000Z</time>
      </trkpt>
      <trkpt lat="45.92253" lon="6.49497">
        <ele>1583.4000244141</ele>
        <time>2019-02-06T11:45:04.000Z</time>
      </trkpt>
      <trkpt lat="45.92255" lon="6.49498">
        <ele>1583.4000244141</ele>
        <time>2019-02-06T11:45:06.000Z</time>
      </trkpt>
      <trkpt lat="45.92255" lon="6.49499">
        <ele>1584.1999511719</ele>
        <time>2019-02-06T11:45:12.000Z</time>
      </trkpt>
      <trkpt lat="45.92254" lon="6.49499">
        <ele>1584.5999755859</ele>
        <time>2019-02-06T11:45:13.000Z</time>
      </trkpt>
      <trkpt lat="45.92251" lon="6.495">
        <ele>1584.8000488281</ele>
        <time>2019-02-06T11:45:17.000Z</time>
      </trkpt>
      <trkpt lat="45.92247" lon="6.49501">
        <ele>1585.4000244141</ele>
        <time>2019-02-06T11:45:22.000Z</time>
      </trkpt>
      <trkpt lat="45.92247" lon="6.49501">
        <ele>1585.4000244141</ele>
        <time>2019-02-06T11:45:23.000Z</time>
      </trkpt>
      <trkpt lat="45.92246" lon="6.49502">
        <ele>1585.5999755859</ele>
        <time>2019-02-06T11:45:24.000Z</time>
      </trkpt>
      <trkpt lat="45.92243" lon="6.49505">
        <ele>1586.4000244141</ele>
        <time>2019-02-06T11:45:28.000Z</time>
      </trkpt>
      <trkpt lat="45.92242" lon="6.49506">
        <ele>1586.8000488281</ele>
        <time>2019-02-06T11:45:30.000Z</time>
      </trkpt>
      <trkpt lat="45.92242" lon="6.49506">
        <ele>1587.1999511719</ele>
        <time>2019-02-06T11:45:33.000Z</time>
      </trkpt>
      <trkpt lat="45.92245" lon="6.49508">
        <ele>1587.5999755859</ele>
        <time>2019-02-06T11:45:38.000Z</time>
      </trkpt>
      <trkpt lat="45.92247" lon="6.4951">
        <ele>1588</ele>
        <time>2019-02-06T11:45:41.000Z</time>
      </trkpt>
      <trkpt lat="45.92247" lon="6.4951">
        <ele>1588.4000244141</ele>
        <time>2019-02-06T11:45:43.000Z</time>
      </trkpt>
      <trkpt lat="45.9225" lon="6.49513">
        <ele>1589</ele>
        <time>2019-02-06T11:45:48.000Z</time>
      </trkpt>
      <trkpt lat="45.92251" lon="6.49514">
        <ele>1590.1999511719</ele>
        <time>2019-02-06T11:45:53.000Z</time>
      </trkpt>
      <trkpt lat="45.92246" lon="6.49516">
        <ele>1591</ele>
        <time>2019-02-06T11:45:59.000Z</time>
      </trkpt>
      <trkpt lat="45.92245" lon="6.49517">
        <ele>1591.1999511719</ele>
        <time>2019-02-06T11:46:00.000Z</time>
      </trkpt>
      <trkpt lat="45.92243" lon="6.4952">
        <ele>1591.8000488281</ele>
        <time>2019-02-06T11:46:05.000Z</time>
      </trkpt>
      <trkpt lat="45.92241" lon="6.49522">
        <ele>1592.1999511719</ele>
        <time>2019-02-06T11:46:08.000Z</time>
      </trkpt>
      <trkpt lat="45.9224" lon="6.49524">
        <ele>1592.5999755859</ele>
        <time>2019-02-06T11:46:11.000Z</time>
      </trkpt>
      <trkpt lat="45.92241" lon="6.49528">
        <ele>1593.4000244141</ele>
        <time>2019-02-06T11:46:16.000Z</time>
      </trkpt>
      <trkpt lat="45.92241" lon="6.49528">
        <ele>1593.5999755859</ele>
        <time>2019-02-06T11:46:17.000Z</time>
      </trkpt>
      <trkpt lat="45.92245" lon="6.49529">
        <ele>1594.4000244141</ele>
        <time>2019-02-06T11:46:23.000Z</time>
      </trkpt>
      <trkpt lat="45.92246" lon="6.4953">
        <ele>1594.5999755859</ele>
        <time>2019-02-06T11:46:25.000Z</time>
      </trkpt>
      <trkpt lat="45.92249" lon="6.49534">
        <ele>1595.1999511719</ele>
        <time>2019-02-06T11:46:29.000Z</time>
      </trkpt>
      <trkpt lat="45.92251" lon="6.49535">
        <ele>1595.5999755859</ele>
        <time>2019-02-06T11:46:31.000Z</time>
      </trkpt>
      <trkpt lat="45.92253" lon="6.49537">
        <ele>1596.1999511719</ele>
        <time>2019-02-06T11:46:35.000Z</time>
      </trkpt>
      <trkpt lat="45.92255" lon="6.49538">
        <ele>1596.8000488281</ele>
        <time>2019-02-06T11:46:38.000Z</time>
      </trkpt>
      <trkpt lat="45.92257" lon="6.4954">
        <ele>1597.4000244141</ele>
        <time>2019-02-06T11:46:41.000Z</time>
      </trkpt>
      <trkpt lat="45.92258" lon="6.49539">
        <ele>1597.8000488281</ele>
        <time>2019-02-06T11:46:43.000Z</time>
      </trkpt>
      <trkpt lat="45.92262" lon="6.49541">
        <ele>1598.8000488281</ele>
        <time>2019-02-06T11:46:48.000Z</time>
      </trkpt>
      <trkpt lat="45.92262" lon="6.49541">
        <ele>1599</ele>
        <time>2019-02-06T11:46:49.000Z</time>
      </trkpt>
      <trkpt lat="45.92265" lon="6.49542">
        <ele>1599.4000244141</ele>
        <time>2019-02-06T11:46:51.000Z</time>
      </trkpt>
      <trkpt lat="45.92267" lon="6.49542">
        <ele>1599.8000488281</ele>
        <time>2019-02-06T11:46:54.000Z</time>
      </trkpt>
      <trkpt lat="45.92269" lon="6.49544">
        <ele>1600.1999511719</ele>
        <time>2019-02-06T11:46:57.000Z</time>
      </trkpt>
      <trkpt lat="45.92271" lon="6.49545">
        <ele>1600.5999755859</ele>
        <time>2019-02-06T11:47:00.000Z</time>
      </trkpt>
      <trkpt lat="45.92273" lon="6.49545">
        <ele>1601.1999511719</ele>
        <time>2019-02-06T11:47:03.000Z</time>
      </trkpt>
      <trkpt lat="45.92275" lon="6.49547">
        <ele>1602</ele>
        <time>2019-02-06T11:47:06.000Z</time>
      </trkpt>
      <trkpt lat="45.92276" lon="6.49548">
        <ele>1602.1999511719</ele>
        <time>2019-02-06T11:47:08.000Z</time>
      </trkpt>
      <trkpt lat="45.92278" lon="6.49551">
        <ele>1603.1999511719</ele>
        <time>2019-02-06T11:47:13.000Z</time>
      </trkpt>
      <trkpt lat="45.92278" lon="6.49551">
        <ele>1603.4000244141</ele>
        <time>2019-02-06T11:47:15.000Z</time>
      </trkpt>
      <trkpt lat="45.9228" lon="6.49552">
        <ele>1604.1999511719</ele>
        <time>2019-02-06T11:47:19.000Z</time>
      </trkpt>
      <trkpt lat="45.92281" lon="6.49552">
        <ele>1604.5999755859</ele>
        <time>2019-02-06T11:47:22.000Z</time>
      </trkpt>
      <trkpt lat="45.92281" lon="6.49552">
        <ele>1605</ele>
        <time>2019-02-06T11:47:27.000Z</time>
      </trkpt>
      <trkpt lat="45.92281" lon="6.49552">
        <ele>1605.1999511719</ele>
        <time>2019-02-06T11:47:39.000Z</time>
      </trkpt>
      <trkpt lat="45.92281" lon="6.49552">
        <ele>1605.1999511719</ele>
        <time>2019-02-06T11:48:00.000Z</time>
      </trkpt>
      <trkpt lat="45.92281" lon="6.49552">
        <ele>1605.1999511719</ele>
        <time>2019-02-06T11:48:26.000Z</time>
      </trkpt>
      <trkpt lat="45.92281" lon="6.49552">
        <ele>1605.1999511719</ele>
        <time>2019-02-06T11:48:39.000Z</time>
      </trkpt>
      <trkpt lat="45.92281" lon="6.49552">
        <ele>1605.1999511719</ele>
        <time>2019-02-06T11:48:59.000Z</time>
      </trkpt>
      <trkpt lat="45.92281" lon="6.49552">
        <ele>1605.1999511719</ele>
        <time>2019-02-06T11:49:10.000Z</time>
      </trkpt>
      <trkpt lat="45.92282" lon="6.49554">
        <ele>1605</ele>
        <time>2019-02-06T11:49:17.000Z</time>
      </trkpt>
      <trkpt lat="45.92283" lon="6.49556">
        <ele>1605.8000488281</ele>
        <time>2019-02-06T11:49:22.000Z</time>
      </trkpt>
      <trkpt lat="45.92283" lon="6.49556">
        <ele>1606</ele>
        <time>2019-02-06T11:49:24.000Z</time>
      </trkpt>
      <trkpt lat="45.92286" lon="6.4956">
        <ele>1606.5999755859</ele>
        <time>2019-02-06T11:49:30.000Z</time>
      </trkpt>
      <trkpt lat="45.92287" lon="6.49561">
        <ele>1606.8000488281</ele>
        <time>2019-02-06T11:49:32.000Z</time>
      </trkpt>
      <trkpt lat="45.92288" lon="6.49565">
        <ele>1607.8000488281</ele>
        <time>2019-02-06T11:49:38.000Z</time>
      </trkpt>
      <trkpt lat="45.92288" lon="6.49568">
        <ele>1608.8000488281</ele>
        <time>2019-02-06T11:49:44.000Z</time>
      </trkpt>
      <trkpt lat="45.92282" lon="6.4957">
        <ele>1609.1999511719</ele>
        <time>2019-02-06T11:49:50.000Z</time>
      </trkpt>
      <trkpt lat="45.9228" lon="6.49572">
        <ele>1610</ele>
        <time>2019-02-06T11:49:54.000Z</time>
      </trkpt>
      <trkpt lat="45.9228" lon="6.49572">
        <ele>1610.1999511719</ele>
        <time>2019-02-06T11:49:55.000Z</time>
      </trkpt>
      <trkpt lat="45.92277" lon="6.49572">
        <ele>1610.5999755859</ele>
        <time>2019-02-06T11:49:58.000Z</time>
      </trkpt>
      <trkpt lat="45.92276" lon="6.49573">
        <ele>1611</ele>
        <time>2019-02-06T11:50:00.000Z</time>
      </trkpt>
      <trkpt lat="45.92275" lon="6.49573">
        <ele>1611.1999511719</ele>
        <time>2019-02-06T11:50:01.000Z</time>
      </trkpt>
      <trkpt lat="45.92272" lon="6.49575">
        <ele>1611.5999755859</ele>
        <time>2019-02-06T11:50:06.000Z</time>
      </trkpt>
      <trkpt lat="45.92268" lon="6.49577">
        <ele>1612.1999511719</ele>
        <time>2019-02-06T11:50:11.000Z</time>
      </trkpt>
      <trkpt lat="45.92268" lon="6.49577">
        <ele>1612.4000244141</ele>
        <time>2019-02-06T11:50:12.000Z</time>
      </trkpt>
      <trkpt lat="45.92262" lon="6.49578">
        <ele>1613.1999511719</ele>
        <time>2019-02-06T11:50:19.000Z</time>
      </trkpt>
      <trkpt lat="45.92258" lon="6.4958">
        <ele>1614</ele>
        <time>2019-02-06T11:50:24.000Z</time>
      </trkpt>
      <trkpt lat="45.92256" lon="6.49581">
        <ele>1614.4000244141</ele>
        <time>2019-02-06T11:50:27.000Z</time>
      </trkpt>
      <trkpt lat="45.92252" lon="6.49584">
        <ele>1615</ele>
        <time>2019-02-06T11:50:32.000Z</time>
      </trkpt>
      <trkpt lat="45.92249" lon="6.49586">
        <ele>1615.5999755859</ele>
        <time>2019-02-06T11:50:36.000Z</time>
      </trkpt>
      <trkpt lat="45.92249" lon="6.49586">
        <ele>1615.8000488281</ele>
        <time>2019-02-06T11:50:37.000Z</time>
      </trkpt>
      <trkpt lat="45.92245" lon="6.49588">
        <ele>1616.5999755859</ele>
        <time>2019-02-06T11:50:43.000Z</time>
      </trkpt>
      <trkpt lat="45.92244" lon="6.49588">
        <ele>1617.4000244141</ele>
        <time>2019-02-06T11:50:51.000Z</time>
      </trkpt>
      <trkpt lat="45.92243" lon="6.49589">
        <ele>1617.4000244141</ele>
        <time>2019-02-06T11:50:58.000Z</time>
      </trkpt>
      <trkpt lat="45.92244" lon="6.49591">
        <ele>1617.5999755859</ele>
        <time>2019-02-06T11:51:02.000Z</time>
      </trkpt>
      <trkpt lat="45.92245" lon="6.49592">
        <ele>1617.8000488281</ele>
        <time>2019-02-06T11:51:03.000Z</time>
      </trkpt>
      <trkpt lat="45.92248" lon="6.49594">
        <ele>1618.8000488281</ele>
        <time>2019-02-06T11:51:06.000Z</time>
      </trkpt>
      <trkpt lat="45.92251" lon="6.49597">
        <ele>1619.8000488281</ele>
        <time>2019-02-06T11:51:10.000Z</time>
      </trkpt>
      <trkpt lat="45.92251" lon="6.49598">
        <ele>1620</ele>
        <time>2019-02-06T11:51:11.000Z</time>
      </trkpt>
      <trkpt lat="45.92252" lon="6.49599">
        <ele>1620.1999511719</ele>
        <time>2019-02-06T11:51:13.000Z</time>
      </trkpt>
      <trkpt lat="45.92255" lon="6.49602">
        <ele>1620.8000488281</ele>
        <time>2019-02-06T11:51:18.000Z</time>
      </trkpt>
      <trkpt lat="45.92256" lon="6.49602">
        <ele>1621</ele>
        <time>2019-02-06T11:51:20.000Z</time>
      </trkpt>
      <trkpt lat="45.92259" lon="6.49607">
        <ele>1622.1999511719</ele>
        <time>2019-02-06T11:51:26.000Z</time>
      </trkpt>
      <trkpt lat="45.92259" lon="6.49607">
        <ele>1622.4000244141</ele>
        <time>2019-02-06T11:51:27.000Z</time>
      </trkpt>
      <trkpt lat="45.92261" lon="6.49608">
        <ele>1623.1999511719</ele>
        <time>2019-02-06T11:51:30.000Z</time>
      </trkpt>
      <trkpt lat="45.92263" lon="6.4961">
        <ele>1624</ele>
        <time>2019-02-06T11:51:33.000Z</time>
      </trkpt>
      <trkpt lat="45.92264" lon="6.49612">
        <ele>1624.1999511719</ele>
        <time>2019-02-06T11:51:35.000Z</time>
      </trkpt>
      <trkpt lat="45.92268" lon="6.49619">
        <ele>1625.4000244141</ele>
        <time>2019-02-06T11:51:42.000Z</time>
      </trkpt>
      <trkpt lat="45.92269" lon="6.49619">
        <ele>1625.5999755859</ele>
        <time>2019-02-06T11:51:43.000Z</time>
      </trkpt>
      <trkpt lat="45.9227" lon="6.49623">
        <ele>1626.1999511719</ele>
        <time>2019-02-06T11:51:49.000Z</time>
      </trkpt>
      <trkpt lat="45.9227" lon="6.49624">
        <ele>1626.4000244141</ele>
        <time>2019-02-06T11:51:51.000Z</time>
      </trkpt>
      <trkpt lat="45.92267" lon="6.49624">
        <ele>1627.5999755859</ele>
        <time>2019-02-06T11:51:55.000Z</time>
      </trkpt>
      <trkpt lat="45.92266" lon="6.49624">
        <ele>1627.5999755859</ele>
        <time>2019-02-06T11:51:56.000Z</time>
      </trkpt>
      <trkpt lat="45.92262" lon="6.49625">
        <ele>1628.4000244141</ele>
        <time>2019-02-06T11:52:03.000Z</time>
      </trkpt>
      <trkpt lat="45.9226" lon="6.49625">
        <ele>1628.5999755859</ele>
        <time>2019-02-06T11:52:05.000Z</time>
      </trkpt>
      <trkpt lat="45.92258" lon="6.49625">
        <ele>1629.1999511719</ele>
        <time>2019-02-06T11:52:09.000Z</time>
      </trkpt>
      <trkpt lat="45.92255" lon="6.49625">
        <ele>1629.5999755859</ele>
        <time>2019-02-06T11:52:12.000Z</time>
      </trkpt>
      <trkpt lat="45.92253" lon="6.49626">
        <ele>1630</ele>
        <time>2019-02-06T11:52:15.000Z</time>
      </trkpt>
      <trkpt lat="45.9225" lon="6.49627">
        <ele>1630.8000488281</ele>
        <time>2019-02-06T11:52:19.000Z</time>
      </trkpt>
      <trkpt lat="45.92248" lon="6.49628">
        <ele>1631</ele>
        <time>2019-02-06T11:52:21.000Z</time>
      </trkpt>
      <trkpt lat="45.92243" lon="6.49628">
        <ele>1632</ele>
        <time>2019-02-06T11:52:27.000Z</time>
      </trkpt>
      <trkpt lat="45.9224" lon="6.49627">
        <ele>1632.5999755859</ele>
        <time>2019-02-06T11:52:31.000Z</time>
      </trkpt>
      <trkpt lat="45.92238" lon="6.49626">
        <ele>1632.8000488281</ele>
        <time>2019-02-06T11:52:33.000Z</time>
      </trkpt>
      <trkpt lat="45.92236" lon="6.49626">
        <ele>1633</ele>
        <time>2019-02-06T11:52:35.000Z</time>
      </trkpt>
      <trkpt lat="45.92235" lon="6.49625">
        <ele>1633.5999755859</ele>
        <time>2019-02-06T11:52:39.000Z</time>
      </trkpt>
      <trkpt lat="45.92235" lon="6.49625">
        <ele>1633.8000488281</ele>
        <time>2019-02-06T11:52:46.000Z</time>
      </trkpt>
      <trkpt lat="45.92235" lon="6.49625">
        <ele>1634</ele>
        <time>2019-02-06T11:52:50.000Z</time>
      </trkpt>
      <trkpt lat="45.92236" lon="6.49627">
        <ele>1634.1999511719</ele>
        <time>2019-02-06T11:52:54.000Z</time>
      </trkpt>
      <trkpt lat="45.92239" lon="6.49633">
        <ele>1635.1999511719</ele>
        <time>2019-02-06T11:53:00.000Z</time>
      </trkpt>
      <trkpt lat="45.92242" lon="6.49635">
        <ele>1636</ele>
        <time>2019-02-06T11:53:07.000Z</time>
      </trkpt>
      <trkpt lat="45.92243" lon="6.49636">
        <ele>1636.1999511719</ele>
        <time>2019-02-06T11:53:08.000Z</time>
      </trkpt>
      <trkpt lat="45.92246" lon="6.49637">
        <ele>1637</ele>
        <time>2019-02-06T11:53:13.000Z</time>
      </trkpt>
      <trkpt lat="45.92248" lon="6.49638">
        <ele>1637.4000244141</ele>
        <time>2019-02-06T11:53:15.000Z</time>
      </trkpt>
      <trkpt lat="45.92249" lon="6.49639">
        <ele>1637.5999755859</ele>
        <time>2019-02-06T11:53:16.000Z</time>
      </trkpt>
      <trkpt lat="45.9225" lon="6.4964">
        <ele>1637.5999755859</ele>
        <time>2019-02-06T11:53:18.000Z</time>
      </trkpt>
      <trkpt lat="45.92255" lon="6.49646">
        <ele>1638.5999755859</ele>
        <time>2019-02-06T11:53:25.000Z</time>
      </trkpt>
      <trkpt lat="45.92258" lon="6.49649">
        <ele>1639.5999755859</ele>
        <time>2019-02-06T11:53:31.000Z</time>
      </trkpt>
      <trkpt lat="45.92258" lon="6.49649">
        <ele>1639.8000488281</ele>
        <time>2019-02-06T11:53:32.000Z</time>
      </trkpt>
      <trkpt lat="45.92259" lon="6.49651">
        <ele>1640.1999511719</ele>
        <time>2019-02-06T11:53:37.000Z</time>
      </trkpt>
      <trkpt lat="45.92258" lon="6.49651">
        <ele>1640.8000488281</ele>
        <time>2019-02-06T11:53:41.000Z</time>
      </trkpt>
      <trkpt lat="45.92256" lon="6.49651">
        <ele>1641.1999511719</ele>
        <time>2019-02-06T11:53:43.000Z</time>
      </trkpt>
      <trkpt lat="45.92252" lon="6.49653">
        <ele>1641.5999755859</ele>
        <time>2019-02-06T11:53:49.000Z</time>
      </trkpt>
      <trkpt lat="45.9225" lon="6.49652">
        <ele>1641.8000488281</ele>
        <time>2019-02-06T11:53:52.000Z</time>
      </trkpt>
      <trkpt lat="45.92247" lon="6.49652">
        <ele>1642.5999755859</ele>
        <time>2019-02-06T11:53:55.000Z</time>
      </trkpt>
      <trkpt lat="45.92246" lon="6.49652">
        <ele>1642.8000488281</ele>
        <time>2019-02-06T11:53:56.000Z</time>
      </trkpt>
      <trkpt lat="45.92245" lon="6.49652">
        <ele>1642.8000488281</ele>
        <time>2019-02-06T11:53:57.000Z</time>
      </trkpt>
      <trkpt lat="45.92242" lon="6.49653">
        <ele>1643</ele>
        <time>2019-02-06T11:54:02.000Z</time>
      </trkpt>
      <trkpt lat="45.92238" lon="6.49654">
        <ele>1644</ele>
        <time>2019-02-06T11:54:09.000Z</time>
      </trkpt>
      <trkpt lat="45.92232" lon="6.49655">
        <ele>1645</ele>
        <time>2019-02-06T11:54:16.000Z</time>
      </trkpt>
      <trkpt lat="45.92228" lon="6.49655">
        <ele>1645.5999755859</ele>
        <time>2019-02-06T11:54:22.000Z</time>
      </trkpt>
      <trkpt lat="45.92228" lon="6.49655">
        <ele>1646</ele>
        <time>2019-02-06T11:54:24.000Z</time>
      </trkpt>
      <trkpt lat="45.92226" lon="6.49654">
        <ele>1647</ele>
        <time>2019-02-06T11:54:30.000Z</time>
      </trkpt>
      <trkpt lat="45.92226" lon="6.49654">
        <ele>1647.4000244141</ele>
        <time>2019-02-06T11:54:39.000Z</time>
      </trkpt>
      <trkpt lat="45.92227" lon="6.49655">
        <ele>1647.4000244141</ele>
        <time>2019-02-06T11:54:40.000Z</time>
      </trkpt>
      <trkpt lat="45.9223" lon="6.49658">
        <ele>1648</ele>
        <time>2019-02-06T11:54:44.000Z</time>
      </trkpt>
      <trkpt lat="45.9223" lon="6.49659">
        <ele>1648</ele>
        <time>2019-02-06T11:54:45.000Z</time>
      </trkpt>
      <trkpt lat="45.92234" lon="6.49662">
        <ele>1648.8000488281</ele>
        <time>2019-02-06T11:54:50.000Z</time>
      </trkpt>
      <trkpt lat="45.92235" lon="6.49664">
        <ele>1649</ele>
        <time>2019-02-06T11:54:52.000Z</time>
      </trkpt>
      <trkpt lat="45.92235" lon="6.49663">
        <ele>1649.1999511719</ele>
        <time>2019-02-06T11:54:53.000Z</time>
      </trkpt>
      <trkpt lat="45.92236" lon="6.49664">
        <ele>1649.5999755859</ele>
        <time>2019-02-06T11:54:56.000Z</time>
      </trkpt>
      <trkpt lat="45.92236" lon="6.49665">
        <ele>1649.8000488281</ele>
        <time>2019-02-06T11:55:01.000Z</time>
      </trkpt>
      <trkpt lat="45.92235" lon="6.49666">
        <ele>1650.1999511719</ele>
        <time>2019-02-06T11:55:04.000Z</time>
      </trkpt>
      <trkpt lat="45.92235" lon="6.49666">
        <ele>1650.5999755859</ele>
        <time>2019-02-06T11:55:08.000Z</time>
      </trkpt>
      <trkpt lat="45.92235" lon="6.49666">
        <ele>1650.5999755859</ele>
        <time>2019-02-06T11:55:11.000Z</time>
      </trkpt>
      <trkpt lat="45.92233" lon="6.49669">
        <ele>1650.8000488281</ele>
        <time>2019-02-06T11:55:14.000Z</time>
      </trkpt>
      <trkpt lat="45.92232" lon="6.4967">
        <ele>1651.4000244141</ele>
        <time>2019-02-06T11:55:16.000Z</time>
      </trkpt>
      <trkpt lat="45.92231" lon="6.49672">
        <ele>1651.8000488281</ele>
        <time>2019-02-06T11:55:20.000Z</time>
      </trkpt>
      <trkpt lat="45.9223" lon="6.49673">
        <ele>1652.4000244141</ele>
        <time>2019-02-06T11:55:23.000Z</time>
      </trkpt>
      <trkpt lat="45.92228" lon="6.49675">
        <ele>1653.1999511719</ele>
        <time>2019-02-06T11:55:26.000Z</time>
      </trkpt>
      <trkpt lat="45.92227" lon="6.49676">
        <ele>1653.5999755859</ele>
        <time>2019-02-06T11:55:28.000Z</time>
      </trkpt>
      <trkpt lat="45.92226" lon="6.49677">
        <ele>1654.8000488281</ele>
        <time>2019-02-06T11:55:31.000Z</time>
      </trkpt>
      <trkpt lat="45.92222" lon="6.4968">
        <ele>1655.8000488281</ele>
        <time>2019-02-06T11:55:37.000Z</time>
      </trkpt>
      <trkpt lat="45.92219" lon="6.4968">
        <ele>1657</ele>
        <time>2019-02-06T11:55:42.000Z</time>
      </trkpt>
      <trkpt lat="45.92219" lon="6.4968">
        <ele>1657.1999511719</ele>
        <time>2019-02-06T11:55:43.000Z</time>
      </trkpt>
      <trkpt lat="45.92217" lon="6.49682">
        <ele>1658</ele>
        <time>2019-02-06T11:55:47.000Z</time>
      </trkpt>
      <trkpt lat="45.92216" lon="6.49682">
        <ele>1658.5999755859</ele>
        <time>2019-02-06T11:55:50.000Z</time>
      </trkpt>
      <trkpt lat="45.92214" lon="6.49682">
        <ele>1659</ele>
        <time>2019-02-06T11:55:52.000Z</time>
      </trkpt>
      <trkpt lat="45.9221" lon="6.49681">
        <ele>1660</ele>
        <time>2019-02-06T11:55:56.000Z</time>
      </trkpt>
      <trkpt lat="45.92208" lon="6.4968">
        <ele>1660.1999511719</ele>
        <time>2019-02-06T11:55:58.000Z</time>
      </trkpt>
      <trkpt lat="45.92205" lon="6.49676">
        <ele>1660.1999511719</ele>
        <time>2019-02-06T11:56:02.000Z</time>
      </trkpt>
      <trkpt lat="45.922" lon="6.49672">
        <ele>1660.4000244141</ele>
        <time>2019-02-06T11:56:09.000Z</time>
      </trkpt>
      <trkpt lat="45.92197" lon="6.4967">
        <ele>1661.1999511719</ele>
        <time>2019-02-06T11:56:13.000Z</time>
      </trkpt>
      <trkpt lat="45.92196" lon="6.4967">
        <ele>1661.5999755859</ele>
        <time>2019-02-06T11:56:15.000Z</time>
      </trkpt>
      <trkpt lat="45.92192" lon="6.4967">
        <ele>1662.4000244141</ele>
        <time>2019-02-06T11:56:21.000Z</time>
      </trkpt>
      <trkpt lat="45.92191" lon="6.49673">
        <ele>1663.1999511719</ele>
        <time>2019-02-06T11:56:27.000Z</time>
      </trkpt>
      <trkpt lat="45.92191" lon="6.49674">
        <ele>1663.4000244141</ele>
        <time>2019-02-06T11:56:28.000Z</time>
      </trkpt>
      <trkpt lat="45.92192" lon="6.49676">
        <ele>1664.4000244141</ele>
        <time>2019-02-06T11:56:32.000Z</time>
      </trkpt>
      <trkpt lat="45.92192" lon="6.49677">
        <ele>1665</ele>
        <time>2019-02-06T11:56:35.000Z</time>
      </trkpt>
      <trkpt lat="45.92193" lon="6.49683">
        <ele>1665.5999755859</ele>
        <time>2019-02-06T11:56:41.000Z</time>
      </trkpt>
      <trkpt lat="45.92192" lon="6.49685">
        <ele>1666</ele>
        <time>2019-02-06T11:56:43.000Z</time>
      </trkpt>
      <trkpt lat="45.92193" lon="6.49689">
        <ele>1666.5999755859</ele>
        <time>2019-02-06T11:56:47.000Z</time>
      </trkpt>
      <trkpt lat="45.92194" lon="6.4969">
        <ele>1667</ele>
        <time>2019-02-06T11:56:49.000Z</time>
      </trkpt>
      <trkpt lat="45.92197" lon="6.49695">
        <ele>1667.8000488281</ele>
        <time>2019-02-06T11:56:54.000Z</time>
      </trkpt>
      <trkpt lat="45.92197" lon="6.49696">
        <ele>1668</ele>
        <time>2019-02-06T11:56:55.000Z</time>
      </trkpt>
      <trkpt lat="45.92199" lon="6.49701">
        <ele>1669</ele>
        <time>2019-02-06T11:57:00.000Z</time>
      </trkpt>
      <trkpt lat="45.922" lon="6.49704">
        <ele>1669.4000244141</ele>
        <time>2019-02-06T11:57:04.000Z</time>
      </trkpt>
      <trkpt lat="45.92202" lon="6.49707">
        <ele>1670</ele>
        <time>2019-02-06T11:57:09.000Z</time>
      </trkpt>
      <trkpt lat="45.92202" lon="6.49707">
        <ele>1670.1999511719</ele>
        <time>2019-02-06T11:57:10.000Z</time>
      </trkpt>
      <trkpt lat="45.92202" lon="6.4971">
        <ele>1671</ele>
        <time>2019-02-06T11:57:14.000Z</time>
      </trkpt>
      <trkpt lat="45.92203" lon="6.49712">
        <ele>1671.4000244141</ele>
        <time>2019-02-06T11:57:16.000Z</time>
      </trkpt>
      <trkpt lat="45.92204" lon="6.49714">
        <ele>1672.1999511719</ele>
        <time>2019-02-06T11:57:21.000Z</time>
      </trkpt>
      <trkpt lat="45.92202" lon="6.49715">
        <ele>1673.1999511719</ele>
        <time>2019-02-06T11:57:26.000Z</time>
      </trkpt>
      <trkpt lat="45.92202" lon="6.49715">
        <ele>1673.4000244141</ele>
        <time>2019-02-06T11:57:28.000Z</time>
      </trkpt>
      <trkpt lat="45.92199" lon="6.49716">
        <ele>1674.1999511719</ele>
        <time>2019-02-06T11:57:32.000Z</time>
      </trkpt>
      <trkpt lat="45.92198" lon="6.49716">
        <ele>1674.5999755859</ele>
        <time>2019-02-06T11:57:34.000Z</time>
      </trkpt>
      <trkpt lat="45.92195" lon="6.49716">
        <ele>1675.4000244141</ele>
        <time>2019-02-06T11:57:38.000Z</time>
      </trkpt>
      <trkpt lat="45.92194" lon="6.49716">
        <ele>1675.5999755859</ele>
        <time>2019-02-06T11:57:40.000Z</time>
      </trkpt>
      <trkpt lat="45.9219" lon="6.49716">
        <ele>1676</ele>
        <time>2019-02-06T11:57:45.000Z</time>
      </trkpt>
      <trkpt lat="45.92187" lon="6.49716">
        <ele>1676.5999755859</ele>
        <time>2019-02-06T11:57:48.000Z</time>
      </trkpt>
      <trkpt lat="45.92185" lon="6.49715">
        <ele>1677</ele>
        <time>2019-02-06T11:57:51.000Z</time>
      </trkpt>
      <trkpt lat="45.92183" lon="6.49715">
        <ele>1677.5999755859</ele>
        <time>2019-02-06T11:57:53.000Z</time>
      </trkpt>
      <trkpt lat="45.92181" lon="6.49715">
        <ele>1678.1999511719</ele>
        <time>2019-02-06T11:57:56.000Z</time>
      </trkpt>
      <trkpt lat="45.92177" lon="6.49714">
        <ele>1678.5999755859</ele>
        <time>2019-02-06T11:58:02.000Z</time>
      </trkpt>
      <trkpt lat="45.92172" lon="6.49713">
        <ele>1679.8000488281</ele>
        <time>2019-02-06T11:58:08.000Z</time>
      </trkpt>
      <trkpt lat="45.92167" lon="6.49711">
        <ele>1680.8000488281</ele>
        <time>2019-02-06T11:58:14.000Z</time>
      </trkpt>
      <trkpt lat="45.92166" lon="6.4971">
        <ele>1680.8000488281</ele>
        <time>2019-02-06T11:58:16.000Z</time>
      </trkpt>
      <trkpt lat="45.92164" lon="6.49709">
        <ele>1681.4000244141</ele>
        <time>2019-02-06T11:58:19.000Z</time>
      </trkpt>
      <trkpt lat="45.9216" lon="6.49707">
        <ele>1681.8000488281</ele>
        <time>2019-02-06T11:58:24.000Z</time>
      </trkpt>
      <trkpt lat="45.92158" lon="6.49706">
        <ele>1682</ele>
        <time>2019-02-06T11:58:27.000Z</time>
      </trkpt>
      <trkpt lat="45.92156" lon="6.49706">
        <ele>1682.1999511719</ele>
        <time>2019-02-06T11:58:29.000Z</time>
      </trkpt>
      <trkpt lat="45.92152" lon="6.49706">
        <ele>1683</ele>
        <time>2019-02-06T11:58:34.000Z</time>
      </trkpt>
      <trkpt lat="45.92148" lon="6.49705">
        <ele>1683.5999755859</ele>
        <time>2019-02-06T11:58:39.000Z</time>
      </trkpt>
      <trkpt lat="45.92145" lon="6.49704">
        <ele>1684</ele>
        <time>2019-02-06T11:58:43.000Z</time>
      </trkpt>
      <trkpt lat="45.92143" lon="6.49705">
        <ele>1684.1999511719</ele>
        <time>2019-02-06T11:58:45.000Z</time>
      </trkpt>
      <trkpt lat="45.9214" lon="6.49708">
        <ele>1685.4000244141</ele>
        <time>2019-02-06T11:58:52.000Z</time>
      </trkpt>
      <trkpt lat="45.92141" lon="6.49713">
        <ele>1686.1999511719</ele>
        <time>2019-02-06T11:58:58.000Z</time>
      </trkpt>
      <trkpt lat="45.92143" lon="6.49714">
        <ele>1686.5999755859</ele>
        <time>2019-02-06T11:59:00.000Z</time>
      </trkpt>
      <trkpt lat="45.92145" lon="6.49716">
        <ele>1687.4000244141</ele>
        <time>2019-02-06T11:59:04.000Z</time>
      </trkpt>
      <trkpt lat="45.92146" lon="6.49717">
        <ele>1687.5999755859</ele>
        <time>2019-02-06T11:59:05.000Z</time>
      </trkpt>
      <trkpt lat="45.9215" lon="6.49723">
        <ele>1688.4000244141</ele>
        <time>2019-02-06T11:59:13.000Z</time>
      </trkpt>
      <trkpt lat="45.92151" lon="6.49726">
        <ele>1688.8000488281</ele>
        <time>2019-02-06T11:59:16.000Z</time>
      </trkpt>
      <trkpt lat="45.92152" lon="6.4973">
        <ele>1689.4000244141</ele>
        <time>2019-02-06T11:59:21.000Z</time>
      </trkpt>
      <trkpt lat="45.92152" lon="6.49733">
        <ele>1690</ele>
        <time>2019-02-06T11:59:24.000Z</time>
      </trkpt>
      <trkpt lat="45.92153" lon="6.49735">
        <ele>1690.1999511719</ele>
        <time>2019-02-06T11:59:26.000Z</time>
      </trkpt>
      <trkpt lat="45.92155" lon="6.49739">
        <ele>1691</ele>
        <time>2019-02-06T11:59:31.000Z</time>
      </trkpt>
      <trkpt lat="45.92156" lon="6.49741">
        <ele>1691.4000244141</ele>
        <time>2019-02-06T11:59:33.000Z</time>
      </trkpt>
      <trkpt lat="45.92157" lon="6.49747">
        <ele>1692</ele>
        <time>2019-02-06T11:59:39.000Z</time>
      </trkpt>
      <trkpt lat="45.92157" lon="6.49748">
        <ele>1692</ele>
        <time>2019-02-06T11:59:40.000Z</time>
      </trkpt>
      <trkpt lat="45.92157" lon="6.49754">
        <ele>1692.4000244141</ele>
        <time>2019-02-06T11:59:45.000Z</time>
      </trkpt>
      <trkpt lat="45.92157" lon="6.49757">
        <ele>1693.1999511719</ele>
        <time>2019-02-06T11:59:48.000Z</time>
      </trkpt>
      <trkpt lat="45.92157" lon="6.49757">
        <ele>1694.1999511719</ele>
        <time>2019-02-06T11:59:53.000Z</time>
      </trkpt>
      <trkpt lat="45.92157" lon="6.49757">
        <ele>1694.8000488281</ele>
        <time>2019-02-06T12:00:01.000Z</time>
      </trkpt>
      <trkpt lat="45.92156" lon="6.49756">
        <ele>1695</ele>
        <time>2019-02-06T12:00:07.000Z</time>
      </trkpt>
      <trkpt lat="45.92153" lon="6.49756">
        <ele>1695.4000244141</ele>
        <time>2019-02-06T12:00:11.000Z</time>
      </trkpt>
      <trkpt lat="45.92151" lon="6.49755">
        <ele>1696</ele>
        <time>2019-02-06T12:00:13.000Z</time>
      </trkpt>
      <trkpt lat="45.92149" lon="6.49755">
        <ele>1696.5999755859</ele>
        <time>2019-02-06T12:00:16.000Z</time>
      </trkpt>
      <trkpt lat="45.92148" lon="6.49755">
        <ele>1696.5999755859</ele>
        <time>2019-02-06T12:00:17.000Z</time>
      </trkpt>
      <trkpt lat="45.92146" lon="6.49754">
        <ele>1697.1999511719</ele>
        <time>2019-02-06T12:00:19.000Z</time>
      </trkpt>
      <trkpt lat="45.92145" lon="6.49753">
        <ele>1697.5999755859</ele>
        <time>2019-02-06T12:00:21.000Z</time>
      </trkpt>
      <trkpt lat="45.92141" lon="6.49753">
        <ele>1698.5999755859</ele>
        <time>2019-02-06T12:00:26.000Z</time>
      </trkpt>
      <trkpt lat="45.9214" lon="6.49753">
        <ele>1698.5999755859</ele>
        <time>2019-02-06T12:00:27.000Z</time>
      </trkpt>
      <trkpt lat="45.92136" lon="6.49753">
        <ele>1699.1999511719</ele>
        <time>2019-02-06T12:00:32.000Z</time>
      </trkpt>
      <trkpt lat="45.92135" lon="6.49753">
        <ele>1699.5999755859</ele>
        <time>2019-02-06T12:00:34.000Z</time>
      </trkpt>
      <trkpt lat="45.92133" lon="6.49752">
        <ele>1700.1999511719</ele>
        <time>2019-02-06T12:00:37.000Z</time>
      </trkpt>
      <trkpt lat="45.9213" lon="6.49752">
        <ele>1700.8000488281</ele>
        <time>2019-02-06T12:00:41.000Z</time>
      </trkpt>
      <trkpt lat="45.92128" lon="6.49752">
        <ele>1701.5999755859</ele>
        <time>2019-02-06T12:00:44.000Z</time>
      </trkpt>
      <trkpt lat="45.92128" lon="6.49752">
        <ele>1701.8000488281</ele>
        <time>2019-02-06T12:00:45.000Z</time>
      </trkpt>
      <trkpt lat="45.92124" lon="6.49751">
        <ele>1703</ele>
        <time>2019-02-06T12:00:50.000Z</time>
      </trkpt>
      <trkpt lat="45.9212" lon="6.4975">
        <ele>1704</ele>
        <time>2019-02-06T12:00:56.000Z</time>
      </trkpt>
      <trkpt lat="45.92119" lon="6.4975">
        <ele>1704</ele>
        <time>2019-02-06T12:00:57.000Z</time>
      </trkpt>
      <trkpt lat="45.92117" lon="6.49749">
        <ele>1704.5999755859</ele>
        <time>2019-02-06T12:01:02.000Z</time>
      </trkpt>
      <trkpt lat="45.92117" lon="6.49753">
        <ele>1705.1999511719</ele>
        <time>2019-02-06T12:01:08.000Z</time>
      </trkpt>
      <trkpt lat="45.92117" lon="6.49758">
        <ele>1706.1999511719</ele>
        <time>2019-02-06T12:01:13.000Z</time>
      </trkpt>
      <trkpt lat="45.92117" lon="6.49759">
        <ele>1706.4000244141</ele>
        <time>2019-02-06T12:01:14.000Z</time>
      </trkpt>
      <trkpt lat="45.92117" lon="6.49763">
        <ele>1707.4000244141</ele>
        <time>2019-02-06T12:01:18.000Z</time>
      </trkpt>
      <trkpt lat="45.92117" lon="6.49765">
        <ele>1707.5999755859</ele>
        <time>2019-02-06T12:01:20.000Z</time>
      </trkpt>
      <trkpt lat="45.92118" lon="6.4977">
        <ele>1708.4000244141</ele>
        <time>2019-02-06T12:01:25.000Z</time>
      </trkpt>
      <trkpt lat="45.92118" lon="6.49771">
        <ele>1708.5999755859</ele>
        <time>2019-02-06T12:01:26.000Z</time>
      </trkpt>
      <trkpt lat="45.9212" lon="6.49776">
        <ele>1709.5999755859</ele>
        <time>2019-02-06T12:01:32.000Z</time>
      </trkpt>
      <trkpt lat="45.92119" lon="6.49777">
        <ele>1709.8000488281</ele>
        <time>2019-02-06T12:01:33.000Z</time>
      </trkpt>
      <trkpt lat="45.92121" lon="6.49783">
        <ele>1710.5999755859</ele>
        <time>2019-02-06T12:01:40.000Z</time>
      </trkpt>
      <trkpt lat="45.92121" lon="6.49788">
        <ele>1711.1999511719</ele>
        <time>2019-02-06T12:01:47.000Z</time>
      </trkpt>
      <trkpt lat="45.92121" lon="6.4979">
        <ele>1711.8000488281</ele>
        <time>2019-02-06T12:01:50.000Z</time>
      </trkpt>
      <trkpt lat="45.92121" lon="6.4979">
        <ele>1712</ele>
        <time>2019-02-06T12:01:51.000Z</time>
      </trkpt>
      <trkpt lat="45.9212" lon="6.49792">
        <ele>1713</ele>
        <time>2019-02-06T12:01:54.000Z</time>
      </trkpt>
      <trkpt lat="45.9212" lon="6.49795">
        <ele>1713.5999755859</ele>
        <time>2019-02-06T12:01:57.000Z</time>
      </trkpt>
      <trkpt lat="45.9212" lon="6.49798">
        <ele>1714</ele>
        <time>2019-02-06T12:01:59.000Z</time>
      </trkpt>
      <trkpt lat="45.9212" lon="6.49798">
        <ele>1714.1999511719</ele>
        <time>2019-02-06T12:02:00.000Z</time>
      </trkpt>
      <trkpt lat="45.92119" lon="6.498">
        <ele>1714.5999755859</ele>
        <time>2019-02-06T12:02:02.000Z</time>
      </trkpt>
      <trkpt lat="45.92119" lon="6.49801">
        <ele>1715</ele>
        <time>2019-02-06T12:02:05.000Z</time>
      </trkpt>
      <trkpt lat="45.92119" lon="6.49804">
        <ele>1715.4000244141</ele>
        <time>2019-02-06T12:02:08.000Z</time>
      </trkpt>
      <trkpt lat="45.92118" lon="6.49807">
        <ele>1715.8000488281</ele>
        <time>2019-02-06T12:02:12.000Z</time>
      </trkpt>
      <trkpt lat="45.92118" lon="6.49808">
        <ele>1716.1999511719</ele>
        <time>2019-02-06T12:02:15.000Z</time>
      </trkpt>
      <trkpt lat="45.92118" lon="6.49808">
        <ele>1716.5999755859</ele>
        <time>2019-02-06T12:02:18.000Z</time>
      </trkpt>
      <trkpt lat="45.92118" lon="6.49808">
        <ele>1717.1999511719</ele>
        <time>2019-02-06T12:02:23.000Z</time>
      </trkpt>
      <trkpt lat="45.92118" lon="6.49808">
        <ele>1717.4000244141</ele>
        <time>2019-02-06T12:02:24.000Z</time>
      </trkpt>
      <trkpt lat="45.92118" lon="6.49808">
        <ele>1718.1999511719</ele>
        <time>2019-02-06T12:02:29.000Z</time>
      </trkpt>
      <trkpt lat="45.92118" lon="6.49808">
        <ele>1718.5999755859</ele>
        <time>2019-02-06T12:02:32.000Z</time>
      </trkpt>
      <trkpt lat="45.92117" lon="6.49814">
        <ele>1719.1999511719</ele>
        <time>2019-02-06T12:02:38.000Z</time>
      </trkpt>
      <trkpt lat="45.92117" lon="6.49814">
        <ele>1719.4000244141</ele>
        <time>2019-02-06T12:02:39.000Z</time>
      </trkpt>
      <trkpt lat="45.92116" lon="6.4982">
        <ele>1720</ele>
        <time>2019-02-06T12:02:44.000Z</time>
      </trkpt>
      <trkpt lat="45.92115" lon="6.49824">
        <ele>1720.4000244141</ele>
        <time>2019-02-06T12:02:49.000Z</time>
      </trkpt>
      <trkpt lat="45.92114" lon="6.49827">
        <ele>1721.4000244141</ele>
        <time>2019-02-06T12:02:56.000Z</time>
      </trkpt>
      <trkpt lat="45.92114" lon="6.49831">
        <ele>1722.4000244141</ele>
        <time>2019-02-06T12:03:02.000Z</time>
      </trkpt>
      <trkpt lat="45.92114" lon="6.49833">
        <ele>1722.5999755859</ele>
        <time>2019-02-06T12:03:03.000Z</time>
      </trkpt>
      <trkpt lat="45.92113" lon="6.49835">
        <ele>1723.1999511719</ele>
        <time>2019-02-06T12:03:07.000Z</time>
      </trkpt>
      <trkpt lat="45.92113" lon="6.49835">
        <ele>1723.5999755859</ele>
        <time>2019-02-06T12:03:13.000Z</time>
      </trkpt>
      <trkpt lat="45.92113" lon="6.49835">
        <ele>1724</ele>
        <time>2019-02-06T12:03:15.000Z</time>
      </trkpt>
      <trkpt lat="45.92113" lon="6.49835">
        <ele>1724.1999511719</ele>
        <time>2019-02-06T12:03:16.000Z</time>
      </trkpt>
      <trkpt lat="45.92112" lon="6.49835">
        <ele>1724.5999755859</ele>
        <time>2019-02-06T12:03:18.000Z</time>
      </trkpt>
      <trkpt lat="45.92112" lon="6.49835">
        <ele>1724.8000488281</ele>
        <time>2019-02-06T12:03:19.000Z</time>
      </trkpt>
      <trkpt lat="45.92109" lon="6.49835">
        <ele>1725.4000244141</ele>
        <time>2019-02-06T12:03:24.000Z</time>
      </trkpt>
      <trkpt lat="45.92107" lon="6.49836">
        <ele>1725.5999755859</ele>
        <time>2019-02-06T12:03:26.000Z</time>
      </trkpt>
      <trkpt lat="45.92104" lon="6.49836">
        <ele>1726.1999511719</ele>
        <time>2019-02-06T12:03:29.000Z</time>
      </trkpt>
      <trkpt lat="45.92103" lon="6.49837">
        <ele>1726.8000488281</ele>
        <time>2019-02-06T12:03:31.000Z</time>
      </trkpt>
      <trkpt lat="45.92099" lon="6.49836">
        <ele>1727.1999511719</ele>
        <time>2019-02-06T12:03:35.000Z</time>
      </trkpt>
      <trkpt lat="45.92097" lon="6.49834">
        <ele>1728</ele>
        <time>2019-02-06T12:03:39.000Z</time>
      </trkpt>
      <trkpt lat="45.92096" lon="6.49833">
        <ele>1728.1999511719</ele>
        <time>2019-02-06T12:03:41.000Z</time>
      </trkpt>
      <trkpt lat="45.92092" lon="6.4983">
        <ele>1729.1999511719</ele>
        <time>2019-02-06T12:03:46.000Z</time>
      </trkpt>
      <trkpt lat="45.92089" lon="6.49826">
        <ele>1729.5999755859</ele>
        <time>2019-02-06T12:03:52.000Z</time>
      </trkpt>
      <trkpt lat="45.92086" lon="6.49824">
        <ele>1730.1999511719</ele>
        <time>2019-02-06T12:03:55.000Z</time>
      </trkpt>
      <trkpt lat="45.92085" lon="6.49822">
        <ele>1730.8000488281</ele>
        <time>2019-02-06T12:03:59.000Z</time>
      </trkpt>
      <trkpt lat="45.92083" lon="6.49819">
        <ele>1731.1999511719</ele>
        <time>2019-02-06T12:04:03.000Z</time>
      </trkpt>
      <trkpt lat="45.92081" lon="6.49818">
        <ele>1731.5999755859</ele>
        <time>2019-02-06T12:04:05.000Z</time>
      </trkpt>
      <trkpt lat="45.92079" lon="6.49817">
        <ele>1732.4000244141</ele>
        <time>2019-02-06T12:04:09.000Z</time>
      </trkpt>
      <trkpt lat="45.92077" lon="6.49816">
        <ele>1732.8000488281</ele>
        <time>2019-02-06T12:04:11.000Z</time>
      </trkpt>
      <trkpt lat="45.92074" lon="6.49814">
        <ele>1733.1999511719</ele>
        <time>2019-02-06T12:04:16.000Z</time>
      </trkpt>
      <trkpt lat="45.92074" lon="6.49814">
        <ele>1733.4000244141</ele>
        <time>2019-02-06T12:04:17.000Z</time>
      </trkpt>
      <trkpt lat="45.92071" lon="6.49813">
        <ele>1734.4000244141</ele>
        <time>2019-02-06T12:04:21.000Z</time>
      </trkpt>
      <trkpt lat="45.9207" lon="6.49812">
        <ele>1734.5999755859</ele>
        <time>2019-02-06T12:04:22.000Z</time>
      </trkpt>
      <trkpt lat="45.92066" lon="6.49808">
        <ele>1735.1999511719</ele>
        <time>2019-02-06T12:04:27.000Z</time>
      </trkpt>
      <trkpt lat="45.92063" lon="6.49806">
        <ele>1735.8000488281</ele>
        <time>2019-02-06T12:04:32.000Z</time>
      </trkpt>
      <trkpt lat="45.92063" lon="6.49806">
        <ele>1735.8000488281</ele>
        <time>2019-02-06T12:04:33.000Z</time>
      </trkpt>
      <trkpt lat="45.92058" lon="6.49802">
        <ele>1736.8000488281</ele>
        <time>2019-02-06T12:04:40.000Z</time>
      </trkpt>
      <trkpt lat="45.92054" lon="6.49799">
        <ele>1737.4000244141</ele>
        <time>2019-02-06T12:04:47.000Z</time>
      </trkpt>
      <trkpt lat="45.92051" lon="6.49798">
        <ele>1737.8000488281</ele>
        <time>2019-02-06T12:04:52.000Z</time>
      </trkpt>
      <trkpt lat="45.92048" lon="6.49799">
        <ele>1738.5999755859</ele>
        <time>2019-02-06T12:04:59.000Z</time>
      </trkpt>
      <trkpt lat="45.92047" lon="6.49799">
        <ele>1738.8000488281</ele>
        <time>2019-02-06T12:05:00.000Z</time>
      </trkpt>
      <trkpt lat="45.92046" lon="6.49799">
        <ele>1738.8000488281</ele>
        <time>2019-02-06T12:05:01.000Z</time>
      </trkpt>
      <trkpt lat="45.92044" lon="6.49801">
        <ele>1739.5999755859</ele>
        <time>2019-02-06T12:05:05.000Z</time>
      </trkpt>
      <trkpt lat="45.92044" lon="6.49802">
        <ele>1740</ele>
        <time>2019-02-06T12:05:06.000Z</time>
      </trkpt>
      <trkpt lat="45.92044" lon="6.49807">
        <ele>1740.5999755859</ele>
        <time>2019-02-06T12:05:11.000Z</time>
      </trkpt>
      <trkpt lat="45.92044" lon="6.49809">
        <ele>1741</ele>
        <time>2019-02-06T12:05:13.000Z</time>
      </trkpt>
      <trkpt lat="45.92045" lon="6.49812">
        <ele>1741.4000244141</ele>
        <time>2019-02-06T12:05:17.000Z</time>
      </trkpt>
      <trkpt lat="45.92046" lon="6.49815">
        <ele>1742</ele>
        <time>2019-02-06T12:05:20.000Z</time>
      </trkpt>
      <trkpt lat="45.92046" lon="6.49817">
        <ele>1742.5999755859</ele>
        <time>2019-02-06T12:05:22.000Z</time>
      </trkpt>
      <trkpt lat="45.92047" lon="6.49817">
        <ele>1743.1999511719</ele>
        <time>2019-02-06T12:05:25.000Z</time>
      </trkpt>
      <trkpt lat="45.92047" lon="6.49819">
        <ele>1743.4000244141</ele>
        <time>2019-02-06T12:05:27.000Z</time>
      </trkpt>
      <trkpt lat="45.92047" lon="6.49823">
        <ele>1744.1999511719</ele>
        <time>2019-02-06T12:05:30.000Z</time>
      </trkpt>
      <trkpt lat="45.92046" lon="6.49826">
        <ele>1744.5999755859</ele>
        <time>2019-02-06T12:05:33.000Z</time>
      </trkpt>
      <trkpt lat="45.92046" lon="6.49828">
        <ele>1745.1999511719</ele>
        <time>2019-02-06T12:05:37.000Z</time>
      </trkpt>
      <trkpt lat="45.92046" lon="6.49829">
        <ele>1745.4000244141</ele>
        <time>2019-02-06T12:05:38.000Z</time>
      </trkpt>
      <trkpt lat="45.92046" lon="6.49835">
        <ele>1746.1999511719</ele>
        <time>2019-02-06T12:05:43.000Z</time>
      </trkpt>
      <trkpt lat="45.92046" lon="6.49836">
        <ele>1746.4000244141</ele>
        <time>2019-02-06T12:05:44.000Z</time>
      </trkpt>
      <trkpt lat="45.92046" lon="6.49843">
        <ele>1747.1999511719</ele>
        <time>2019-02-06T12:05:50.000Z</time>
      </trkpt>
      <trkpt lat="45.92046" lon="6.49844">
        <ele>1747.4000244141</ele>
        <time>2019-02-06T12:05:51.000Z</time>
      </trkpt>
      <trkpt lat="45.92047" lon="6.49849">
        <ele>1748</ele>
        <time>2019-02-06T12:05:56.000Z</time>
      </trkpt>
      <trkpt lat="45.92047" lon="6.4985">
        <ele>1748.1999511719</ele>
        <time>2019-02-06T12:05:58.000Z</time>
      </trkpt>
      <trkpt lat="45.92047" lon="6.49852">
        <ele>1748.4000244141</ele>
        <time>2019-02-06T12:06:00.000Z</time>
      </trkpt>
      <trkpt lat="45.92047" lon="6.49855">
        <ele>1748.8000488281</ele>
        <time>2019-02-06T12:06:02.000Z</time>
      </trkpt>
      <trkpt lat="45.92048" lon="6.49859">
        <ele>1749.5999755859</ele>
        <time>2019-02-06T12:06:06.000Z</time>
      </trkpt>
      <trkpt lat="45.92049" lon="6.49861">
        <ele>1749.8000488281</ele>
        <time>2019-02-06T12:06:09.000Z</time>
      </trkpt>
      <trkpt lat="45.92049" lon="6.49866">
        <ele>1750.5999755859</ele>
        <time>2019-02-06T12:06:14.000Z</time>
      </trkpt>
      <trkpt lat="45.92049" lon="6.49867">
        <ele>1751.4000244141</ele>
        <time>2019-02-06T12:06:19.000Z</time>
      </trkpt>
      <trkpt lat="45.92048" lon="6.49867">
        <ele>1751.8000488281</ele>
        <time>2019-02-06T12:06:20.000Z</time>
      </trkpt>
      <trkpt lat="45.92048" lon="6.49866">
        <ele>1752.8000488281</ele>
        <time>2019-02-06T12:06:24.000Z</time>
      </trkpt>
      <trkpt lat="45.92048" lon="6.49866">
        <ele>1752.8000488281</ele>
        <time>2019-02-06T12:06:27.000Z</time>
      </trkpt>
      <trkpt lat="45.92047" lon="6.49865">
        <ele>1752.4000244141</ele>
        <time>2019-02-06T12:06:35.000Z</time>
      </trkpt>
      <trkpt lat="45.92044" lon="6.49863">
        <ele>1753.1999511719</ele>
        <time>2019-02-06T12:06:41.000Z</time>
      </trkpt>
      <trkpt lat="45.92042" lon="6.49862">
        <ele>1753.8000488281</ele>
        <time>2019-02-06T12:06:43.000Z</time>
      </trkpt>
      <trkpt lat="45.9204" lon="6.4986">
        <ele>1754.5999755859</ele>
        <time>2019-02-06T12:06:47.000Z</time>
      </trkpt>
      <trkpt lat="45.92039" lon="6.49859">
        <ele>1754.8000488281</ele>
        <time>2019-02-06T12:06:48.000Z</time>
      </trkpt>
      <trkpt lat="45.92036" lon="6.49858">
        <ele>1755.8000488281</ele>
        <time>2019-02-06T12:06:53.000Z</time>
      </trkpt>
      <trkpt lat="45.92036" lon="6.49858">
        <ele>1756.1999511719</ele>
        <time>2019-02-06T12:06:54.000Z</time>
      </trkpt>
      <trkpt lat="45.92035" lon="6.49858">
        <ele>1757.1999511719</ele>
        <time>2019-02-06T12:06:59.000Z</time>
      </trkpt>
      <trkpt lat="45.92035" lon="6.49857">
        <ele>1757.1999511719</ele>
        <time>2019-02-06T12:07:00.000Z</time>
      </trkpt>
      <trkpt lat="45.9203" lon="6.49854">
        <ele>1757.1999511719</ele>
        <time>2019-02-06T12:07:06.000Z</time>
      </trkpt>
      <trkpt lat="45.92025" lon="6.49848">
        <ele>1757.5999755859</ele>
        <time>2019-02-06T12:07:12.000Z</time>
      </trkpt>
      <trkpt lat="45.92022" lon="6.49846">
        <ele>1758.1999511719</ele>
        <time>2019-02-06T12:07:17.000Z</time>
      </trkpt>
      <trkpt lat="45.92022" lon="6.49846">
        <ele>1758.4000244141</ele>
        <time>2019-02-06T12:07:18.000Z</time>
      </trkpt>
      <trkpt lat="45.9202" lon="6.49846">
        <ele>1759.4000244141</ele>
        <time>2019-02-06T12:07:22.000Z</time>
      </trkpt>
      <trkpt lat="45.9202" lon="6.49846">
        <ele>1759.8000488281</ele>
        <time>2019-02-06T12:07:24.000Z</time>
      </trkpt>
      <trkpt lat="45.92019" lon="6.4985">
        <ele>1760.4000244141</ele>
        <time>2019-02-06T12:07:29.000Z</time>
      </trkpt>
      <trkpt lat="45.92019" lon="6.49851">
        <ele>1760.8000488281</ele>
        <time>2019-02-06T12:07:30.000Z</time>
      </trkpt>
      <trkpt lat="45.9202" lon="6.49856">
        <ele>1761.8000488281</ele>
        <time>2019-02-06T12:07:36.000Z</time>
      </trkpt>
      <trkpt lat="45.9202" lon="6.49856">
        <ele>1762</ele>
        <time>2019-02-06T12:07:37.000Z</time>
      </trkpt>
      <trkpt lat="45.92021" lon="6.49863">
        <ele>1762.4000244141</ele>
        <time>2019-02-06T12:07:42.000Z</time>
      </trkpt>
      <trkpt lat="45.92021" lon="6.49866">
        <ele>1763.1999511719</ele>
        <time>2019-02-06T12:07:47.000Z</time>
      </trkpt>
      <trkpt lat="45.92021" lon="6.49867">
        <ele>1763.4000244141</ele>
        <time>2019-02-06T12:07:48.000Z</time>
      </trkpt>
      <trkpt lat="45.92022" lon="6.49871">
        <ele>1764</ele>
        <time>2019-02-06T12:07:55.000Z</time>
      </trkpt>
      <trkpt lat="45.92022" lon="6.49871">
        <ele>1764.1999511719</ele>
        <time>2019-02-06T12:07:57.000Z</time>
      </trkpt>
      <trkpt lat="45.92022" lon="6.49872">
        <ele>1765</ele>
        <time>2019-02-06T12:08:01.000Z</time>
      </trkpt>
      <trkpt lat="45.92022" lon="6.49871">
        <ele>1765.4000244141</ele>
        <time>2019-02-06T12:08:03.000Z</time>
      </trkpt>
      <trkpt lat="45.92022" lon="6.49875">
        <ele>1766</ele>
        <time>2019-02-06T12:08:06.000Z</time>
      </trkpt>
      <trkpt lat="45.92022" lon="6.49878">
        <ele>1766</ele>
        <time>2019-02-06T12:08:07.000Z</time>
      </trkpt>
      <trkpt lat="45.92024" lon="6.49888">
        <ele>1766.4000244141</ele>
        <time>2019-02-06T12:08:13.000Z</time>
      </trkpt>
      <trkpt lat="45.92024" lon="6.49894">
        <ele>1767.5999755859</ele>
        <time>2019-02-06T12:08:18.000Z</time>
      </trkpt>
      <trkpt lat="45.92025" lon="6.49898">
        <ele>1767.8000488281</ele>
        <time>2019-02-06T12:08:21.000Z</time>
      </trkpt>
      <trkpt lat="45.92025" lon="6.49902">
        <ele>1768.1999511719</ele>
        <time>2019-02-06T12:08:25.000Z</time>
      </trkpt>
      <trkpt lat="45.92026" lon="6.49904">
        <ele>1768.1999511719</ele>
        <time>2019-02-06T12:08:26.000Z</time>
      </trkpt>
      <trkpt lat="45.92026" lon="6.49905">
        <ele>1768.5999755859</ele>
        <time>2019-02-06T12:08:28.000Z</time>
      </trkpt>
      <trkpt lat="45.92026" lon="6.49909">
        <ele>1769</ele>
        <time>2019-02-06T12:08:31.000Z</time>
      </trkpt>
      <trkpt lat="45.92027" lon="6.49915">
        <ele>1769.4000244141</ele>
        <time>2019-02-06T12:08:36.000Z</time>
      </trkpt>
      <trkpt lat="45.92027" lon="6.49916">
        <ele>1769.5999755859</ele>
        <time>2019-02-06T12:08:38.000Z</time>
      </trkpt>
      <trkpt lat="45.92027" lon="6.49918">
        <ele>1770.5999755859</ele>
        <time>2019-02-06T12:08:43.000Z</time>
      </trkpt>
      <trkpt lat="45.92027" lon="6.49917">
        <ele>1770.8000488281</ele>
        <time>2019-02-06T12:08:44.000Z</time>
      </trkpt>
      <trkpt lat="45.92025" lon="6.49916">
        <ele>1771.5999755859</ele>
        <time>2019-02-06T12:08:50.000Z</time>
      </trkpt>
      <trkpt lat="45.92023" lon="6.49913">
        <ele>1771.8000488281</ele>
        <time>2019-02-06T12:08:55.000Z</time>
      </trkpt>
      <trkpt lat="45.92022" lon="6.49912">
        <ele>1771.8000488281</ele>
        <time>2019-02-06T12:08:56.000Z</time>
      </trkpt>
      <trkpt lat="45.92019" lon="6.49911">
        <ele>1772.8000488281</ele>
        <time>2019-02-06T12:09:01.000Z</time>
      </trkpt>
      <trkpt lat="45.92019" lon="6.4991">
        <ele>1773</ele>
        <time>2019-02-06T12:09:02.000Z</time>
      </trkpt>
      <trkpt lat="45.92016" lon="6.49906">
        <ele>1773.5999755859</ele>
        <time>2019-02-06T12:09:08.000Z</time>
      </trkpt>
      <trkpt lat="45.92014" lon="6.49905">
        <ele>1774</ele>
        <time>2019-02-06T12:09:12.000Z</time>
      </trkpt>
      <trkpt lat="45.92013" lon="6.49904">
        <ele>1774.5999755859</ele>
        <time>2019-02-06T12:09:14.000Z</time>
      </trkpt>
      <trkpt lat="45.92012" lon="6.49902">
        <ele>1775.1999511719</ele>
        <time>2019-02-06T12:09:18.000Z</time>
      </trkpt>
      <trkpt lat="45.92011" lon="6.499">
        <ele>1775.5999755859</ele>
        <time>2019-02-06T12:09:21.000Z</time>
      </trkpt>
      <trkpt lat="45.92009" lon="6.49896">
        <ele>1776.1999511719</ele>
        <time>2019-02-06T12:09:26.000Z</time>
      </trkpt>
      <trkpt lat="45.92006" lon="6.49892">
        <ele>1777.4000244141</ele>
        <time>2019-02-06T12:09:31.000Z</time>
      </trkpt>
      <trkpt lat="45.92005" lon="6.49891">
        <ele>1777.5999755859</ele>
        <time>2019-02-06T12:09:32.000Z</time>
      </trkpt>
      <trkpt lat="45.92003" lon="6.49889">
        <ele>1778.1999511719</ele>
        <time>2019-02-06T12:09:35.000Z</time>
      </trkpt>
      <trkpt lat="45.92002" lon="6.49889">
        <ele>1778.4000244141</ele>
        <time>2019-02-06T12:09:37.000Z</time>
      </trkpt>
      <trkpt lat="45.92001" lon="6.49888">
        <ele>1778.4000244141</ele>
        <time>2019-02-06T12:09:38.000Z</time>
      </trkpt>
      <trkpt lat="45.91997" lon="6.49886">
        <ele>1778.8000488281</ele>
        <time>2019-02-06T12:09:44.000Z</time>
      </trkpt>
      <trkpt lat="45.91996" lon="6.49886">
        <ele>1779</ele>
        <time>2019-02-06T12:09:49.000Z</time>
      </trkpt>
      <trkpt lat="45.91996" lon="6.49886">
        <ele>1779.1999511719</ele>
        <time>2019-02-06T12:09:56.000Z</time>
      </trkpt>
      <trkpt lat="45.91996" lon="6.49886">
        <ele>1779.5999755859</ele>
        <time>2019-02-06T12:09:58.000Z</time>
      </trkpt>
      <trkpt lat="45.91997" lon="6.49886">
        <ele>1780.5999755859</ele>
        <time>2019-02-06T12:10:03.000Z</time>
      </trkpt>
      <trkpt lat="45.91997" lon="6.49893">
        <ele>1781.5999755859</ele>
        <time>2019-02-06T12:10:08.000Z</time>
      </trkpt>
      <trkpt lat="45.91997" lon="6.49898">
        <ele>1782.1999511719</ele>
        <time>2019-02-06T12:10:10.000Z</time>
      </trkpt>
      <trkpt lat="45.91997" lon="6.49904">
        <ele>1782.8000488281</ele>
        <time>2019-02-06T12:10:14.000Z</time>
      </trkpt>
      <trkpt lat="45.91997" lon="6.49911">
        <ele>1783.8000488281</ele>
        <time>2019-02-06T12:10:19.000Z</time>
      </trkpt>
      <trkpt lat="45.91997" lon="6.49914">
        <ele>1784.1999511719</ele>
        <time>2019-02-06T12:10:22.000Z</time>
      </trkpt>
      <trkpt lat="45.91996" lon="6.49921">
        <ele>1784.8000488281</ele>
        <time>2019-02-06T12:10:28.000Z</time>
      </trkpt>
      <trkpt lat="45.91996" lon="6.49922">
        <ele>1785</ele>
        <time>2019-02-06T12:10:29.000Z</time>
      </trkpt>
      <trkpt lat="45.91997" lon="6.49928">
        <ele>1786.1999511719</ele>
        <time>2019-02-06T12:10:35.000Z</time>
      </trkpt>
      <trkpt lat="45.91997" lon="6.49929">
        <ele>1786.1999511719</ele>
        <time>2019-02-06T12:10:36.000Z</time>
      </trkpt>
      <trkpt lat="45.91996" lon="6.49933">
        <ele>1786.5999755859</ele>
        <time>2019-02-06T12:10:41.000Z</time>
      </trkpt>
      <trkpt lat="45.91996" lon="6.49935">
        <ele>1787.4000244141</ele>
        <time>2019-02-06T12:10:44.000Z</time>
      </trkpt>
      <trkpt lat="45.91995" lon="6.49937">
        <ele>1788</ele>
        <time>2019-02-06T12:10:47.000Z</time>
      </trkpt>
      <trkpt lat="45.91995" lon="6.49939">
        <ele>1788.4000244141</ele>
        <time>2019-02-06T12:10:51.000Z</time>
      </trkpt>
      <trkpt lat="45.91996" lon="6.49939">
        <ele>1788.5999755859</ele>
        <time>2019-02-06T12:10:53.000Z</time>
      </trkpt>
      <trkpt lat="45.91993" lon="6.49934">
        <ele>1789.4000244141</ele>
        <time>2019-02-06T12:10:58.000Z</time>
      </trkpt>
      <trkpt lat="45.91991" lon="6.4993">
        <ele>1790.5999755859</ele>
        <time>2019-02-06T12:11:04.000Z</time>
      </trkpt>
      <trkpt lat="45.91989" lon="6.49926">
        <ele>1791.5999755859</ele>
        <time>2019-02-06T12:11:09.000Z</time>
      </trkpt>
      <trkpt lat="45.91988" lon="6.49925">
        <ele>1791.5999755859</ele>
        <time>2019-02-06T12:11:10.000Z</time>
      </trkpt>
      <trkpt lat="45.91985" lon="6.49923">
        <ele>1791.8000488281</ele>
        <time>2019-02-06T12:11:16.000Z</time>
      </trkpt>
      <trkpt lat="45.91984" lon="6.49921">
        <ele>1792.4000244141</ele>
        <time>2019-02-06T12:11:19.000Z</time>
      </trkpt>
      <trkpt lat="45.91982" lon="6.49919">
        <ele>1792.5999755859</ele>
        <time>2019-02-06T12:11:22.000Z</time>
      </trkpt>
      <trkpt lat="45.91981" lon="6.4992">
        <ele>1792.8000488281</ele>
        <time>2019-02-06T12:11:23.000Z</time>
      </trkpt>
      <trkpt lat="45.91977" lon="6.49917">
        <ele>1793.5999755859</ele>
        <time>2019-02-06T12:11:30.000Z</time>
      </trkpt>
      <trkpt lat="45.91973" lon="6.49913">
        <ele>1794.5999755859</ele>
        <time>2019-02-06T12:11:36.000Z</time>
      </trkpt>
      <trkpt lat="45.91973" lon="6.49913">
        <ele>1794.8000488281</ele>
        <time>2019-02-06T12:11:37.000Z</time>
      </trkpt>
      <trkpt lat="45.91969" lon="6.4991">
        <ele>1796</ele>
        <time>2019-02-06T12:11:43.000Z</time>
      </trkpt>
      <trkpt lat="45.91964" lon="6.49907">
        <ele>1797</ele>
        <time>2019-02-06T12:11:50.000Z</time>
      </trkpt>
      <trkpt lat="45.91965" lon="6.49909">
        <ele>1797.1999511719</ele>
        <time>2019-02-06T12:11:56.000Z</time>
      </trkpt>
      <trkpt lat="45.91965" lon="6.49911">
        <ele>1798.1999511719</ele>
        <time>2019-02-06T12:12:00.000Z</time>
      </trkpt>
      <trkpt lat="45.91965" lon="6.49913">
        <ele>1798.5999755859</ele>
        <time>2019-02-06T12:12:02.000Z</time>
      </trkpt>
      <trkpt lat="45.91965" lon="6.49914">
        <ele>1799.1999511719</ele>
        <time>2019-02-06T12:12:05.000Z</time>
      </trkpt>
      <trkpt lat="45.91964" lon="6.49919">
        <ele>1800</ele>
        <time>2019-02-06T12:12:09.000Z</time>
      </trkpt>
      <trkpt lat="45.91964" lon="6.49922">
        <ele>1800.4000244141</ele>
        <time>2019-02-06T12:12:11.000Z</time>
      </trkpt>
      <trkpt lat="45.91964" lon="6.49926">
        <ele>1801</ele>
        <time>2019-02-06T12:12:16.000Z</time>
      </trkpt>
      <trkpt lat="45.91964" lon="6.4993">
        <ele>1801.5999755859</ele>
        <time>2019-02-06T12:12:19.000Z</time>
      </trkpt>
      <trkpt lat="45.91964" lon="6.49934">
        <ele>1802.4000244141</ele>
        <time>2019-02-06T12:12:23.000Z</time>
      </trkpt>
      <trkpt lat="45.91964" lon="6.49937">
        <ele>1802.8000488281</ele>
        <time>2019-02-06T12:12:25.000Z</time>
      </trkpt>
      <trkpt lat="45.91965" lon="6.49943">
        <ele>1803.8000488281</ele>
        <time>2019-02-06T12:12:32.000Z</time>
      </trkpt>
      <trkpt lat="45.91965" lon="6.49943">
        <ele>1803.8000488281</ele>
        <time>2019-02-06T12:12:33.000Z</time>
      </trkpt>
      <trkpt lat="45.91964" lon="6.49944">
        <ele>1804.1999511719</ele>
        <time>2019-02-06T12:12:38.000Z</time>
      </trkpt>
      <trkpt lat="45.91964" lon="6.49944">
        <ele>1804.8000488281</ele>
        <time>2019-02-06T12:12:41.000Z</time>
      </trkpt>
      <trkpt lat="45.91964" lon="6.49942">
        <ele>1805.1999511719</ele>
        <time>2019-02-06T12:12:45.000Z</time>
      </trkpt>
      <trkpt lat="45.9196" lon="6.49938">
        <ele>1805.8000488281</ele>
        <time>2019-02-06T12:12:54.000Z</time>
      </trkpt>
      <trkpt lat="45.9196" lon="6.49937">
        <ele>1806</ele>
        <time>2019-02-06T12:12:55.000Z</time>
      </trkpt>
      <trkpt lat="45.91958" lon="6.49938">
        <ele>1806.5999755859</ele>
        <time>2019-02-06T12:13:01.000Z</time>
      </trkpt>
      <trkpt lat="45.91958" lon="6.49938">
        <ele>1807</ele>
        <time>2019-02-06T12:13:03.000Z</time>
      </trkpt>
      <trkpt lat="45.91956" lon="6.49935">
        <ele>1807.4000244141</ele>
        <time>2019-02-06T12:13:08.000Z</time>
      </trkpt>
      <trkpt lat="45.91955" lon="6.49934">
        <ele>1807.8000488281</ele>
        <time>2019-02-06T12:13:13.000Z</time>
      </trkpt>
      <trkpt lat="45.91955" lon="6.49934">
        <ele>1808</ele>
        <time>2019-02-06T12:13:17.000Z</time>
      </trkpt>
      <trkpt lat="45.91956" lon="6.49936">
        <ele>1808</ele>
        <time>2019-02-06T12:13:22.000Z</time>
      </trkpt>
      <trkpt lat="45.91959" lon="6.49941">
        <ele>1809</ele>
        <time>2019-02-06T12:13:28.000Z</time>
      </trkpt>
      <trkpt lat="45.91959" lon="6.49942">
        <ele>1809.5999755859</ele>
        <time>2019-02-06T12:13:31.000Z</time>
      </trkpt>
      <trkpt lat="45.91958" lon="6.49944">
        <ele>1810.1999511719</ele>
        <time>2019-02-06T12:13:33.000Z</time>
      </trkpt>
      <trkpt lat="45.91961" lon="6.49949">
        <ele>1810.8000488281</ele>
        <time>2019-02-06T12:13:39.000Z</time>
      </trkpt>
      <trkpt lat="45.91962" lon="6.49951">
        <ele>1811.1999511719</ele>
        <time>2019-02-06T12:13:43.000Z</time>
      </trkpt>
      <trkpt lat="45.91962" lon="6.49951">
        <ele>1811.4000244141</ele>
        <time>2019-02-06T12:13:47.000Z</time>
      </trkpt>
      <trkpt lat="45.9196" lon="6.4995">
        <ele>1812.4000244141</ele>
        <time>2019-02-06T12:13:52.000Z</time>
      </trkpt>
      <trkpt lat="45.9196" lon="6.4995">
        <ele>1812.4000244141</ele>
        <time>2019-02-06T12:13:53.000Z</time>
      </trkpt>
      <trkpt lat="45.91957" lon="6.49947">
        <ele>1813</ele>
        <time>2019-02-06T12:14:00.000Z</time>
      </trkpt>
      <trkpt lat="45.91956" lon="6.49947">
        <ele>1813.4000244141</ele>
        <time>2019-02-06T12:14:02.000Z</time>
      </trkpt>
      <trkpt lat="45.91953" lon="6.49944">
        <ele>1814.4000244141</ele>
        <time>2019-02-06T12:14:07.000Z</time>
      </trkpt>
      <trkpt lat="45.91953" lon="6.49944">
        <ele>1814.5999755859</ele>
        <time>2019-02-06T12:14:08.000Z</time>
      </trkpt>
      <trkpt lat="45.9195" lon="6.49943">
        <ele>1815.4000244141</ele>
        <time>2019-02-06T12:14:14.000Z</time>
      </trkpt>
      <trkpt lat="45.91949" lon="6.49943">
        <ele>1815.8000488281</ele>
        <time>2019-02-06T12:14:15.000Z</time>
      </trkpt>
      <trkpt lat="45.91945" lon="6.49942">
        <ele>1816.4000244141</ele>
        <time>2019-02-06T12:14:21.000Z</time>
      </trkpt>
      <trkpt lat="45.91945" lon="6.49942">
        <ele>1816.5999755859</ele>
        <time>2019-02-06T12:14:22.000Z</time>
      </trkpt>
      <trkpt lat="45.91946" lon="6.49943">
        <ele>1817</ele>
        <time>2019-02-06T12:14:31.000Z</time>
      </trkpt>
      <trkpt lat="45.91948" lon="6.49945">
        <ele>1817.5999755859</ele>
        <time>2019-02-06T12:14:34.000Z</time>
      </trkpt>
      <trkpt lat="45.9195" lon="6.49948">
        <ele>1818.5999755859</ele>
        <time>2019-02-06T12:14:40.000Z</time>
      </trkpt>
      <trkpt lat="45.9195" lon="6.49949">
        <ele>1818.8000488281</ele>
        <time>2019-02-06T12:14:41.000Z</time>
      </trkpt>
      <trkpt lat="45.91952" lon="6.49952">
        <ele>1819.8000488281</ele>
        <time>2019-02-06T12:14:45.000Z</time>
      </trkpt>
      <trkpt lat="45.91952" lon="6.49955">
        <ele>1820.1999511719</ele>
        <time>2019-02-06T12:14:49.000Z</time>
      </trkpt>
      <trkpt lat="45.91953" lon="6.4996">
        <ele>1820.8000488281</ele>
        <time>2019-02-06T12:14:53.000Z</time>
      </trkpt>
      <trkpt lat="45.91952" lon="6.49961">
        <ele>1821.4000244141</ele>
        <time>2019-02-06T12:14:57.000Z</time>
      </trkpt>
      <trkpt lat="45.91954" lon="6.49955">
        <ele>1822</ele>
        <time>2019-02-06T12:15:03.000Z</time>
      </trkpt>
      <trkpt lat="45.91954" lon="6.49954">
        <ele>1822.4000244141</ele>
        <time>2019-02-06T12:15:05.000Z</time>
      </trkpt>
      <trkpt lat="45.9195" lon="6.4995">
        <ele>1822.8000488281</ele>
        <time>2019-02-06T12:15:13.000Z</time>
      </trkpt>
      <trkpt lat="45.91947" lon="6.4995">
        <ele>1823.1999511719</ele>
        <time>2019-02-06T12:15:15.000Z</time>
      </trkpt>
      <trkpt lat="45.91945" lon="6.49949">
        <ele>1823.5999755859</ele>
        <time>2019-02-06T12:15:18.000Z</time>
      </trkpt>
      <trkpt lat="45.91942" lon="6.49951">
        <ele>1824</ele>
        <time>2019-02-06T12:15:24.000Z</time>
      </trkpt>
      <trkpt lat="45.9194" lon="6.49952">
        <ele>1824.4000244141</ele>
        <time>2019-02-06T12:15:27.000Z</time>
      </trkpt>
      <trkpt lat="45.9194" lon="6.49952">
        <ele>1825.1999511719</ele>
        <time>2019-02-06T12:15:30.000Z</time>
      </trkpt>
      <trkpt lat="45.9194" lon="6.49952">
        <ele>1825.4000244141</ele>
        <time>2019-02-06T12:15:31.000Z</time>
      </trkpt>
      <trkpt lat="45.91939" lon="6.4995">
        <ele>1826.4000244141</ele>
        <time>2019-02-06T12:15:36.000Z</time>
      </trkpt>
      <trkpt lat="45.91939" lon="6.49949">
        <ele>1826.8000488281</ele>
        <time>2019-02-06T12:15:39.000Z</time>
      </trkpt>
      <trkpt lat="45.91939" lon="6.49949">
        <ele>1827.5999755859</ele>
        <time>2019-02-06T12:15:43.000Z</time>
      </trkpt>
      <trkpt lat="45.91936" lon="6.49952">
        <ele>1828.4000244141</ele>
        <time>2019-02-06T12:15:49.000Z</time>
      </trkpt>
      <trkpt lat="45.91936" lon="6.49953">
        <ele>1828.5999755859</ele>
        <time>2019-02-06T12:15:51.000Z</time>
      </trkpt>
      <trkpt lat="45.91936" lon="6.49956">
        <ele>1829.1999511719</ele>
        <time>2019-02-06T12:15:54.000Z</time>
      </trkpt>
      <trkpt lat="45.91935" lon="6.49958">
        <ele>1829.5999755859</ele>
        <time>2019-02-06T12:15:56.000Z</time>
      </trkpt>
      <trkpt lat="45.91936" lon="6.49963">
        <ele>1830</ele>
        <time>2019-02-06T12:16:00.000Z</time>
      </trkpt>
      <trkpt lat="45.91935" lon="6.49969">
        <ele>1830.8000488281</ele>
        <time>2019-02-06T12:16:06.000Z</time>
      </trkpt>
      <trkpt lat="45.91935" lon="6.49971">
        <ele>1831.8000488281</ele>
        <time>2019-02-06T12:16:14.000Z</time>
      </trkpt>
      <trkpt lat="45.91935" lon="6.49971">
        <ele>1832.8000488281</ele>
        <time>2019-02-06T12:16:21.000Z</time>
      </trkpt>
      <trkpt lat="45.91935" lon="6.49971">
        <ele>1832.8000488281</ele>
        <time>2019-02-06T12:16:22.000Z</time>
      </trkpt>
      <trkpt lat="45.91928" lon="6.49966">
        <ele>1833.4000244141</ele>
        <time>2019-02-06T12:16:28.000Z</time>
      </trkpt>
      <trkpt lat="45.91926" lon="6.49964">
        <ele>1834</ele>
        <time>2019-02-06T12:16:31.000Z</time>
      </trkpt>
      <trkpt lat="45.91923" lon="6.49961">
        <ele>1834.5999755859</ele>
        <time>2019-02-06T12:16:34.000Z</time>
      </trkpt>
      <trkpt lat="45.91923" lon="6.49961">
        <ele>1834.8000488281</ele>
        <time>2019-02-06T12:16:39.000Z</time>
      </trkpt>
      <trkpt lat="45.91923" lon="6.49962">
        <ele>1835.1999511719</ele>
        <time>2019-02-06T12:16:44.000Z</time>
      </trkpt>
      <trkpt lat="45.91923" lon="6.49964">
        <ele>1835.1999511719</ele>
        <time>2019-02-06T12:16:45.000Z</time>
      </trkpt>
      <trkpt lat="45.91923" lon="6.49967">
        <ele>1835.4000244141</ele>
        <time>2019-02-06T12:16:46.000Z</time>
      </trkpt>
      <trkpt lat="45.91923" lon="6.49971">
        <ele>1836.4000244141</ele>
        <time>2019-02-06T12:16:49.000Z</time>
      </trkpt>
      <trkpt lat="45.91924" lon="6.49976">
        <ele>1837.4000244141</ele>
        <time>2019-02-06T12:16:54.000Z</time>
      </trkpt>
      <trkpt lat="45.91924" lon="6.49977">
        <ele>1837.4000244141</ele>
        <time>2019-02-06T12:16:55.000Z</time>
      </trkpt>
      <trkpt lat="45.91923" lon="6.49982">
        <ele>1838.5999755859</ele>
        <time>2019-02-06T12:17:01.000Z</time>
      </trkpt>
      <trkpt lat="45.91924" lon="6.49987">
        <ele>1839.5999755859</ele>
        <time>2019-02-06T12:17:06.000Z</time>
      </trkpt>
      <trkpt lat="45.91924" lon="6.49988">
        <ele>1839.8000488281</ele>
        <time>2019-02-06T12:17:07.000Z</time>
      </trkpt>
      <trkpt lat="45.91925" lon="6.49993">
        <ele>1840.8000488281</ele>
        <time>2019-02-06T12:17:11.000Z</time>
      </trkpt>
      <trkpt lat="45.91925" lon="6.49994">
        <ele>1841</ele>
        <time>2019-02-06T12:17:13.000Z</time>
      </trkpt>
      <trkpt lat="45.91925" lon="6.49995">
        <ele>1841.5999755859</ele>
        <time>2019-02-06T12:17:19.000Z</time>
      </trkpt>
      <trkpt lat="45.91925" lon="6.49995">
        <ele>1841.8000488281</ele>
        <time>2019-02-06T12:17:22.000Z</time>
      </trkpt>
      <trkpt lat="45.91925" lon="6.49995">
        <ele>1842.8000488281</ele>
        <time>2019-02-06T12:17:26.000Z</time>
      </trkpt>
      <trkpt lat="45.91923" lon="6.49994">
        <ele>1843</ele>
        <time>2019-02-06T12:17:28.000Z</time>
      </trkpt>
      <trkpt lat="45.91923" lon="6.49994">
        <ele>1843</ele>
        <time>2019-02-06T12:17:31.000Z</time>
      </trkpt>
      <trkpt lat="45.9192" lon="6.49991">
        <ele>1844</ele>
        <time>2019-02-06T12:17:38.000Z</time>
      </trkpt>
      <trkpt lat="45.91919" lon="6.49991">
        <ele>1844</ele>
        <time>2019-02-06T12:17:39.000Z</time>
      </trkpt>
      <trkpt lat="45.91916" lon="6.49987">
        <ele>1844.5999755859</ele>
        <time>2019-02-06T12:17:45.000Z</time>
      </trkpt>
      <trkpt lat="45.91915" lon="6.49987">
        <ele>1845</ele>
        <time>2019-02-06T12:17:47.000Z</time>
      </trkpt>
      <trkpt lat="45.91915" lon="6.49986">
        <ele>1845.8000488281</ele>
        <time>2019-02-06T12:17:52.000Z</time>
      </trkpt>
      <trkpt lat="45.91915" lon="6.49986">
        <ele>1846</ele>
        <time>2019-02-06T12:17:56.000Z</time>
      </trkpt>
      <trkpt lat="45.91912" lon="6.49985">
        <ele>1846</ele>
        <time>2019-02-06T12:17:59.000Z</time>
      </trkpt>
      <trkpt lat="45.91906" lon="6.49984">
        <ele>1847</ele>
        <time>2019-02-06T12:18:06.000Z</time>
      </trkpt>
      <trkpt lat="45.91905" lon="6.49983">
        <ele>1847</ele>
        <time>2019-02-06T12:18:08.000Z</time>
      </trkpt>
      <trkpt lat="45.91901" lon="6.49982">
        <ele>1848</ele>
        <time>2019-02-06T12:18:13.000Z</time>
      </trkpt>
      <trkpt lat="45.91901" lon="6.49982">
        <ele>1848.1999511719</ele>
        <time>2019-02-06T12:18:14.000Z</time>
      </trkpt>
      <trkpt lat="45.91897" lon="6.49978">
        <ele>1849.4000244141</ele>
        <time>2019-02-06T12:18:20.000Z</time>
      </trkpt>
      <trkpt lat="45.91892" lon="6.49974">
        <ele>1850</ele>
        <time>2019-02-06T12:18:27.000Z</time>
      </trkpt>
      <trkpt lat="45.9189" lon="6.49972">
        <ele>1850.5999755859</ele>
        <time>2019-02-06T12:18:30.000Z</time>
      </trkpt>
      <trkpt lat="45.91888" lon="6.49969">
        <ele>1851.8000488281</ele>
        <time>2019-02-06T12:18:34.000Z</time>
      </trkpt>
      <trkpt lat="45.91885" lon="6.49965">
        <ele>1853</ele>
        <time>2019-02-06T12:18:40.000Z</time>
      </trkpt>
      <trkpt lat="45.91883" lon="6.4996">
        <ele>1854</ele>
        <time>2019-02-06T12:18:45.000Z</time>
      </trkpt>
      <trkpt lat="45.91882" lon="6.49959">
        <ele>1854.1999511719</ele>
        <time>2019-02-06T12:18:47.000Z</time>
      </trkpt>
      <trkpt lat="45.9188" lon="6.49955">
        <ele>1854.5999755859</ele>
        <time>2019-02-06T12:18:54.000Z</time>
      </trkpt>
      <trkpt lat="45.91879" lon="6.49953">
        <ele>1855</ele>
        <time>2019-02-06T12:18:57.000Z</time>
      </trkpt>
      <trkpt lat="45.91876" lon="6.4995">
        <ele>1855.5999755859</ele>
        <time>2019-02-06T12:19:01.000Z</time>
      </trkpt>
      <trkpt lat="45.91875" lon="6.49948">
        <ele>1856.1999511719</ele>
        <time>2019-02-06T12:19:04.000Z</time>
      </trkpt>
      <trkpt lat="45.91873" lon="6.49944">
        <ele>1857.1999511719</ele>
        <time>2019-02-06T12:19:08.000Z</time>
      </trkpt>
      <trkpt lat="45.91873" lon="6.49944">
        <ele>1857.4000244141</ele>
        <time>2019-02-06T12:19:09.000Z</time>
      </trkpt>
      <trkpt lat="45.91869" lon="6.49939">
        <ele>1858.4000244141</ele>
        <time>2019-02-06T12:19:15.000Z</time>
      </trkpt>
      <trkpt lat="45.91869" lon="6.49939">
        <ele>1858.4000244141</ele>
        <time>2019-02-06T12:19:16.000Z</time>
      </trkpt>
      <trkpt lat="45.91865" lon="6.49936">
        <ele>1859.1999511719</ele>
        <time>2019-02-06T12:19:21.000Z</time>
      </trkpt>
      <trkpt lat="45.91864" lon="6.49934">
        <ele>1859.4000244141</ele>
        <time>2019-02-06T12:19:23.000Z</time>
      </trkpt>
      <trkpt lat="45.91861" lon="6.49933">
        <ele>1860.1999511719</ele>
        <time>2019-02-06T12:19:28.000Z</time>
      </trkpt>
      <trkpt lat="45.9186" lon="6.49933">
        <ele>1860.5999755859</ele>
        <time>2019-02-06T12:19:30.000Z</time>
      </trkpt>
      <trkpt lat="45.9186" lon="6.49934">
        <ele>1861</ele>
        <time>2019-02-06T12:19:33.000Z</time>
      </trkpt>
      <trkpt lat="45.9186" lon="6.49939">
        <ele>1861.1999511719</ele>
        <time>2019-02-06T12:19:39.000Z</time>
      </trkpt>
      <trkpt lat="45.9186" lon="6.49942">
        <ele>1861.8000488281</ele>
        <time>2019-02-06T12:19:42.000Z</time>
      </trkpt>
      <trkpt lat="45.9186" lon="6.49944">
        <ele>1862</ele>
        <time>2019-02-06T12:19:44.000Z</time>
      </trkpt>
      <trkpt lat="45.91861" lon="6.4995">
        <ele>1863</ele>
        <time>2019-02-06T12:19:49.000Z</time>
      </trkpt>
      <trkpt lat="45.91861" lon="6.49951">
        <ele>1863</ele>
        <time>2019-02-06T12:19:50.000Z</time>
      </trkpt>
      <trkpt lat="45.9186" lon="6.49956">
        <ele>1864</ele>
        <time>2019-02-06T12:19:55.000Z</time>
      </trkpt>
      <trkpt lat="45.9186" lon="6.49959">
        <ele>1865.1999511719</ele>
        <time>2019-02-06T12:20:01.000Z</time>
      </trkpt>
      <trkpt lat="45.9186" lon="6.49959">
        <ele>1865.4000244141</ele>
        <time>2019-02-06T12:20:03.000Z</time>
      </trkpt>
      <trkpt lat="45.91859" lon="6.49961">
        <ele>1865.5999755859</ele>
        <time>2019-02-06T12:20:09.000Z</time>
      </trkpt>
      <trkpt lat="45.91859" lon="6.49966">
        <ele>1866.4000244141</ele>
        <time>2019-02-06T12:20:13.000Z</time>
      </trkpt>
      <trkpt lat="45.91858" lon="6.49966">
        <ele>1866.8000488281</ele>
        <time>2019-02-06T12:20:15.000Z</time>
      </trkpt>
      <trkpt lat="45.91858" lon="6.49969">
        <ele>1867.4000244141</ele>
        <time>2019-02-06T12:20:18.000Z</time>
      </trkpt>
      <trkpt lat="45.91856" lon="6.49971">
        <ele>1868</ele>
        <time>2019-02-06T12:20:21.000Z</time>
      </trkpt>
      <trkpt lat="45.91856" lon="6.49971">
        <ele>1868.4000244141</ele>
        <time>2019-02-06T12:20:23.000Z</time>
      </trkpt>
      <trkpt lat="45.91855" lon="6.49969">
        <ele>1869.1999511719</ele>
        <time>2019-02-06T12:20:27.000Z</time>
      </trkpt>
      <trkpt lat="45.91853" lon="6.49967">
        <ele>1869.5999755859</ele>
        <time>2019-02-06T12:20:29.000Z</time>
      </trkpt>
      <trkpt lat="45.91851" lon="6.49964">
        <ele>1870.5999755859</ele>
        <time>2019-02-06T12:20:34.000Z</time>
      </trkpt>
      <trkpt lat="45.91851" lon="6.49963">
        <ele>1870.8000488281</ele>
        <time>2019-02-06T12:20:35.000Z</time>
      </trkpt>
      <trkpt lat="45.91848" lon="6.4996">
        <ele>1871.5999755859</ele>
        <time>2019-02-06T12:20:41.000Z</time>
      </trkpt>
      <trkpt lat="45.91847" lon="6.49959">
        <ele>1871.8000488281</ele>
        <time>2019-02-06T12:20:43.000Z</time>
      </trkpt>
      <trkpt lat="45.91843" lon="6.49956">
        <ele>1873</ele>
        <time>2019-02-06T12:20:50.000Z</time>
      </trkpt>
      <trkpt lat="45.91841" lon="6.49954">
        <ele>1874</ele>
        <time>2019-02-06T12:20:54.000Z</time>
      </trkpt>
      <trkpt lat="45.91839" lon="6.49953">
        <ele>1874.4000244141</ele>
        <time>2019-02-06T12:20:56.000Z</time>
      </trkpt>
      <trkpt lat="45.91839" lon="6.49953">
        <ele>1875</ele>
        <time>2019-02-06T12:21:01.000Z</time>
      </trkpt>
      <trkpt lat="45.91838" lon="6.49955">
        <ele>1875.1999511719</ele>
        <time>2019-02-06T12:21:07.000Z</time>
      </trkpt>
      <trkpt lat="45.91838" lon="6.49963">
        <ele>1876</ele>
        <time>2019-02-06T12:21:11.000Z</time>
      </trkpt>
      <trkpt lat="45.91838" lon="6.49964">
        <ele>1876.1999511719</ele>
        <time>2019-02-06T12:21:13.000Z</time>
      </trkpt>
      <trkpt lat="45.91838" lon="6.49971">
        <ele>1877</ele>
        <time>2019-02-06T12:21:19.000Z</time>
      </trkpt>
      <trkpt lat="45.91838" lon="6.49971">
        <ele>1877</ele>
        <time>2019-02-06T12:21:20.000Z</time>
      </trkpt>
      <trkpt lat="45.91839" lon="6.49974">
        <ele>1878</ele>
        <time>2019-02-06T12:21:25.000Z</time>
      </trkpt>
      <trkpt lat="45.91839" lon="6.49974">
        <ele>1878.1999511719</ele>
        <time>2019-02-06T12:21:27.000Z</time>
      </trkpt>
      <trkpt lat="45.91839" lon="6.49974">
        <ele>1879.1999511719</ele>
        <time>2019-02-06T12:21:33.000Z</time>
      </trkpt>
      <trkpt lat="45.91836" lon="6.49969">
        <ele>1879.4000244141</ele>
        <time>2019-02-06T12:21:39.000Z</time>
      </trkpt>
      <trkpt lat="45.91831" lon="6.49965">
        <ele>1880.1999511719</ele>
        <time>2019-02-06T12:21:44.000Z</time>
      </trkpt>
      <trkpt lat="45.9183" lon="6.49964">
        <ele>1880.4000244141</ele>
        <time>2019-02-06T12:21:45.000Z</time>
      </trkpt>
      <trkpt lat="45.91827" lon="6.49961">
        <ele>1881.1999511719</ele>
        <time>2019-02-06T12:21:51.000Z</time>
      </trkpt>
      <trkpt lat="45.91827" lon="6.49961">
        <ele>1881.4000244141</ele>
        <time>2019-02-06T12:21:52.000Z</time>
      </trkpt>
      <trkpt lat="45.91823" lon="6.49957">
        <ele>1882.1999511719</ele>
        <time>2019-02-06T12:21:58.000Z</time>
      </trkpt>
      <trkpt lat="45.91822" lon="6.49957">
        <ele>1882.4000244141</ele>
        <time>2019-02-06T12:21:59.000Z</time>
      </trkpt>
      <trkpt lat="45.9182" lon="6.49953">
        <ele>1883.5999755859</ele>
        <time>2019-02-06T12:22:05.000Z</time>
      </trkpt>
      <trkpt lat="45.91818" lon="6.49948">
        <ele>1884.5999755859</ele>
        <time>2019-02-06T12:22:10.000Z</time>
      </trkpt>
      <trkpt lat="45.91817" lon="6.49946">
        <ele>1885</ele>
        <time>2019-02-06T12:22:12.000Z</time>
      </trkpt>
      <trkpt lat="45.91815" lon="6.4994">
        <ele>1885.5999755859</ele>
        <time>2019-02-06T12:22:19.000Z</time>
      </trkpt>
      <trkpt lat="45.91811" lon="6.49938">
        <ele>1886.5999755859</ele>
        <time>2019-02-06T12:22:25.000Z</time>
      </trkpt>
      <trkpt lat="45.91811" lon="6.49938">
        <ele>1886.8000488281</ele>
        <time>2019-02-06T12:22:26.000Z</time>
      </trkpt>
      <trkpt lat="45.91806" lon="6.49938">
        <ele>1887.5999755859</ele>
        <time>2019-02-06T12:22:32.000Z</time>
      </trkpt>
      <trkpt lat="45.91806" lon="6.49937">
        <ele>1887.8000488281</ele>
        <time>2019-02-06T12:22:33.000Z</time>
      </trkpt>
      <trkpt lat="45.91801" lon="6.49938">
        <ele>1888.8000488281</ele>
        <time>2019-02-06T12:22:39.000Z</time>
      </trkpt>
      <trkpt lat="45.91797" lon="6.49938">
        <ele>1889.8000488281</ele>
        <time>2019-02-06T12:22:44.000Z</time>
      </trkpt>
      <trkpt lat="45.91796" lon="6.49938">
        <ele>1890</ele>
        <time>2019-02-06T12:22:45.000Z</time>
      </trkpt>
      <trkpt lat="45.91791" lon="6.49938">
        <ele>1890.8000488281</ele>
        <time>2019-02-06T12:22:52.000Z</time>
      </trkpt>
      <trkpt lat="45.91791" lon="6.49938">
        <ele>1891</ele>
        <time>2019-02-06T12:22:53.000Z</time>
      </trkpt>
      <trkpt lat="45.91787" lon="6.49937">
        <ele>1892</ele>
        <time>2019-02-06T12:22:59.000Z</time>
      </trkpt>
      <trkpt lat="45.91783" lon="6.49936">
        <ele>1893</ele>
        <time>2019-02-06T12:23:06.000Z</time>
      </trkpt>
      <trkpt lat="45.91783" lon="6.49936">
        <ele>1893.1999511719</ele>
        <time>2019-02-06T12:23:07.000Z</time>
      </trkpt>
      <trkpt lat="45.91783" lon="6.49936">
        <ele>1894</ele>
        <time>2019-02-06T12:23:11.000Z</time>
      </trkpt>
      <trkpt lat="45.91783" lon="6.49936">
        <ele>1894.4000244141</ele>
        <time>2019-02-06T12:23:14.000Z</time>
      </trkpt>
      <trkpt lat="45.9178" lon="6.49937">
        <ele>1895.1999511719</ele>
        <time>2019-02-06T12:23:17.000Z</time>
      </trkpt>
      <trkpt lat="45.91778" lon="6.49938">
        <ele>1895.5999755859</ele>
        <time>2019-02-06T12:23:20.000Z</time>
      </trkpt>
      <trkpt lat="45.91774" lon="6.49939">
        <ele>1896.1999511719</ele>
        <time>2019-02-06T12:23:25.000Z</time>
      </trkpt>
      <trkpt lat="45.91772" lon="6.49939">
        <ele>1896.5999755859</ele>
        <time>2019-02-06T12:23:27.000Z</time>
      </trkpt>
      <trkpt lat="45.91768" lon="6.49939">
        <ele>1897.5999755859</ele>
        <time>2019-02-06T12:23:32.000Z</time>
      </trkpt>
      <trkpt lat="45.91767" lon="6.49938">
        <ele>1897.8000488281</ele>
        <time>2019-02-06T12:23:33.000Z</time>
      </trkpt>
      <trkpt lat="45.91763" lon="6.49939">
        <ele>1898.5999755859</ele>
        <time>2019-02-06T12:23:39.000Z</time>
      </trkpt>
      <trkpt lat="45.91759" lon="6.49939">
        <ele>1899.5999755859</ele>
        <time>2019-02-06T12:23:45.000Z</time>
      </trkpt>
      <trkpt lat="45.91758" lon="6.49939">
        <ele>1899.8000488281</ele>
        <time>2019-02-06T12:23:46.000Z</time>
      </trkpt>
      <trkpt lat="45.91756" lon="6.49939">
        <ele>1901</ele>
        <time>2019-02-06T12:23:52.000Z</time>
      </trkpt>
      <trkpt lat="45.91754" lon="6.49939">
        <ele>1901.5999755859</ele>
        <time>2019-02-06T12:23:55.000Z</time>
      </trkpt>
      <trkpt lat="45.91752" lon="6.4994">
        <ele>1902</ele>
        <time>2019-02-06T12:23:57.000Z</time>
      </trkpt>
      <trkpt lat="45.91751" lon="6.4994">
        <ele>1902.5999755859</ele>
        <time>2019-02-06T12:24:00.000Z</time>
      </trkpt>
      <trkpt lat="45.91751" lon="6.4994">
        <ele>1903.1999511719</ele>
        <time>2019-02-06T12:24:03.000Z</time>
      </trkpt>
      <trkpt lat="45.91751" lon="6.4994">
        <ele>1904.4000244141</ele>
        <time>2019-02-06T12:24:10.000Z</time>
      </trkpt>
      <trkpt lat="45.91747" lon="6.49939">
        <ele>1905.4000244141</ele>
        <time>2019-02-06T12:24:16.000Z</time>
      </trkpt>
      <trkpt lat="45.91743" lon="6.49936">
        <ele>1906.4000244141</ele>
        <time>2019-02-06T12:24:22.000Z</time>
      </trkpt>
      <trkpt lat="45.91742" lon="6.49935">
        <ele>1906.5999755859</ele>
        <time>2019-02-06T12:24:23.000Z</time>
      </trkpt>
      <trkpt lat="45.91741" lon="6.49934">
        <ele>1907.4000244141</ele>
        <time>2019-02-06T12:24:27.000Z</time>
      </trkpt>
      <trkpt lat="45.91741" lon="6.49934">
        <ele>1907.5999755859</ele>
        <time>2019-02-06T12:24:28.000Z</time>
      </trkpt>
      <trkpt lat="45.9174" lon="6.49934">
        <ele>1908.5999755859</ele>
        <time>2019-02-06T12:24:33.000Z</time>
      </trkpt>
      <trkpt lat="45.91738" lon="6.49934">
        <ele>1909</ele>
        <time>2019-02-06T12:24:36.000Z</time>
      </trkpt>
      <trkpt lat="45.91735" lon="6.49933">
        <ele>1909.5999755859</ele>
        <time>2019-02-06T12:24:40.000Z</time>
      </trkpt>
      <trkpt lat="45.91735" lon="6.49933">
        <ele>1910</ele>
        <time>2019-02-06T12:24:42.000Z</time>
      </trkpt>
      <trkpt lat="45.91735" lon="6.49933">
        <ele>1910.4000244141</ele>
        <time>2019-02-06T12:24:52.000Z</time>
      </trkpt>
      <trkpt lat="45.91735" lon="6.49933">
        <ele>1910.5999755859</ele>
        <time>2019-02-06T12:24:55.000Z</time>
      </trkpt>
      <trkpt lat="45.91735" lon="6.49933">
        <ele>1911.1999511719</ele>
        <time>2019-02-06T12:24:57.000Z</time>
      </trkpt>
      <trkpt lat="45.91735" lon="6.49933">
        <ele>1911.8000488281</ele>
        <time>2019-02-06T12:25:00.000Z</time>
      </trkpt>
      <trkpt lat="45.91734" lon="6.49941">
        <ele>1912.4000244141</ele>
        <time>2019-02-06T12:25:04.000Z</time>
      </trkpt>
      <trkpt lat="45.91733" lon="6.49945">
        <ele>1912.8000488281</ele>
        <time>2019-02-06T12:25:06.000Z</time>
      </trkpt>
      <trkpt lat="45.91734" lon="6.49951">
        <ele>1914</ele>
        <time>2019-02-06T12:25:10.000Z</time>
      </trkpt>
      <trkpt lat="45.91734" lon="6.49955">
        <ele>1915</ele>
        <time>2019-02-06T12:25:15.000Z</time>
      </trkpt>
      <trkpt lat="45.91734" lon="6.49955">
        <ele>1916.1999511719</ele>
        <time>2019-02-06T12:25:20.000Z</time>
      </trkpt>
      <trkpt lat="45.91734" lon="6.49956">
        <ele>1916.4000244141</ele>
        <time>2019-02-06T12:25:21.000Z</time>
      </trkpt>
      <trkpt lat="45.91733" lon="6.49961">
        <ele>1917.1999511719</ele>
        <time>2019-02-06T12:25:25.000Z</time>
      </trkpt>
      <trkpt lat="45.91733" lon="6.49962">
        <ele>1917.4000244141</ele>
        <time>2019-02-06T12:25:26.000Z</time>
      </trkpt>
      <trkpt lat="45.91734" lon="6.49963">
        <ele>1917.5999755859</ele>
        <time>2019-02-06T12:25:27.000Z</time>
      </trkpt>
      <trkpt lat="45.91734" lon="6.49966">
        <ele>1918.1999511719</ele>
        <time>2019-02-06T12:25:31.000Z</time>
      </trkpt>
      <trkpt lat="45.91734" lon="6.49966">
        <ele>1919</ele>
        <time>2019-02-06T12:25:33.000Z</time>
      </trkpt>
      <trkpt lat="45.91734" lon="6.49966">
        <ele>1919.4000244141</ele>
        <time>2019-02-06T12:25:37.000Z</time>
      </trkpt>
      <trkpt lat="45.91734" lon="6.49966">
        <ele>1919.5999755859</ele>
        <time>2019-02-06T12:25:41.000Z</time>
      </trkpt>
      <trkpt lat="45.91734" lon="6.49966">
        <ele>1920.4000244141</ele>
        <time>2019-02-06T12:25:49.000Z</time>
      </trkpt>
      <trkpt lat="45.91734" lon="6.49966">
        <ele>1920.5999755859</ele>
        <time>2019-02-06T12:25:59.000Z</time>
      </trkpt>
      <trkpt lat="45.91732" lon="6.49966">
        <ele>1921.1999511719</ele>
        <time>2019-02-06T12:26:06.000Z</time>
      </trkpt>
      <trkpt lat="45.9173" lon="6.49966">
        <ele>1921.4000244141</ele>
        <time>2019-02-06T12:26:07.000Z</time>
      </trkpt>
      <trkpt lat="45.91725" lon="6.49966">
        <ele>1922.4000244141</ele>
        <time>2019-02-06T12:26:11.000Z</time>
      </trkpt>
      <trkpt lat="45.91724" lon="6.49966">
        <ele>1922.5999755859</ele>
        <time>2019-02-06T12:26:12.000Z</time>
      </trkpt>
      <trkpt lat="45.91719" lon="6.49965">
        <ele>1923.5999755859</ele>
        <time>2019-02-06T12:26:17.000Z</time>
      </trkpt>
      <trkpt lat="45.91716" lon="6.49966">
        <ele>1923.8000488281</ele>
        <time>2019-02-06T12:26:20.000Z</time>
      </trkpt>
      <trkpt lat="45.91714" lon="6.49966">
        <ele>1924.5999755859</ele>
        <time>2019-02-06T12:26:23.000Z</time>
      </trkpt>
      <trkpt lat="45.9171" lon="6.49966">
        <ele>1925.4000244141</ele>
        <time>2019-02-06T12:26:27.000Z</time>
      </trkpt>
      <trkpt lat="45.91709" lon="6.49966">
        <ele>1925.5999755859</ele>
        <time>2019-02-06T12:26:29.000Z</time>
      </trkpt>
      <trkpt lat="45.91706" lon="6.49966">
        <ele>1926.4000244141</ele>
        <time>2019-02-06T12:26:34.000Z</time>
      </trkpt>
      <trkpt lat="45.91705" lon="6.49966">
        <ele>1926.8000488281</ele>
        <time>2019-02-06T12:26:36.000Z</time>
      </trkpt>
      <trkpt lat="45.91702" lon="6.49966">
        <ele>1927.4000244141</ele>
        <time>2019-02-06T12:26:40.000Z</time>
      </trkpt>
      <trkpt lat="45.91701" lon="6.49966">
        <ele>1927.8000488281</ele>
        <time>2019-02-06T12:26:42.000Z</time>
      </trkpt>
      <trkpt lat="45.917" lon="6.49966">
        <ele>1929</ele>
        <time>2019-02-06T12:26:46.000Z</time>
      </trkpt>
      <trkpt lat="45.917" lon="6.49966">
        <ele>1929.4000244141</ele>
        <time>2019-02-06T12:26:52.000Z</time>
      </trkpt>
      <trkpt lat="45.91701" lon="6.49974">
        <ele>1930</ele>
        <time>2019-02-06T12:26:58.000Z</time>
      </trkpt>
      <trkpt lat="45.91702" lon="6.4998">
        <ele>1930.8000488281</ele>
        <time>2019-02-06T12:27:04.000Z</time>
      </trkpt>
      <trkpt lat="45.91702" lon="6.49982">
        <ele>1931.1999511719</ele>
        <time>2019-02-06T12:27:06.000Z</time>
      </trkpt>
      <trkpt lat="45.91702" lon="6.49982">
        <ele>1931.8000488281</ele>
        <time>2019-02-06T12:27:09.000Z</time>
      </trkpt>
      <trkpt lat="45.91704" lon="6.49985">
        <ele>1932.1999511719</ele>
        <time>2019-02-06T12:27:12.000Z</time>
      </trkpt>
      <trkpt lat="45.91704" lon="6.49987">
        <ele>1932.4000244141</ele>
        <time>2019-02-06T12:27:14.000Z</time>
      </trkpt>
      <trkpt lat="45.91706" lon="6.49994">
        <ele>1933.1999511719</ele>
        <time>2019-02-06T12:27:19.000Z</time>
      </trkpt>
      <trkpt lat="45.91706" lon="6.49996">
        <ele>1933.4000244141</ele>
        <time>2019-02-06T12:27:20.000Z</time>
      </trkpt>
      <trkpt lat="45.91711" lon="6.50001">
        <ele>1934</ele>
        <time>2019-02-06T12:27:24.000Z</time>
      </trkpt>
      <trkpt lat="45.91712" lon="6.50004">
        <ele>1934.4000244141</ele>
        <time>2019-02-06T12:27:27.000Z</time>
      </trkpt>
      <trkpt lat="45.91713" lon="6.50006">
        <ele>1935</ele>
        <time>2019-02-06T12:27:30.000Z</time>
      </trkpt>
      <trkpt lat="45.91713" lon="6.50006">
        <ele>1935.5999755859</ele>
        <time>2019-02-06T12:27:33.000Z</time>
      </trkpt>
      <trkpt lat="45.91713" lon="6.50006">
        <ele>1936.4000244141</ele>
        <time>2019-02-06T12:27:37.000Z</time>
      </trkpt>
      <trkpt lat="45.91713" lon="6.50006">
        <ele>1936.5999755859</ele>
        <time>2019-02-06T12:27:39.000Z</time>
      </trkpt>
      <trkpt lat="45.91709" lon="6.50005">
        <ele>1937</ele>
        <time>2019-02-06T12:27:45.000Z</time>
      </trkpt>
      <trkpt lat="45.91705" lon="6.50004">
        <ele>1937.5999755859</ele>
        <time>2019-02-06T12:27:49.000Z</time>
      </trkpt>
      <trkpt lat="45.91704" lon="6.50004">
        <ele>1937.8000488281</ele>
        <time>2019-02-06T12:27:51.000Z</time>
      </trkpt>
      <trkpt lat="45.917" lon="6.50002">
        <ele>1939</ele>
        <time>2019-02-06T12:27:57.000Z</time>
      </trkpt>
      <trkpt lat="45.917" lon="6.50002">
        <ele>1939.1999511719</ele>
        <time>2019-02-06T12:27:58.000Z</time>
      </trkpt>
      <trkpt lat="45.91695" lon="6.50002">
        <ele>1940</ele>
        <time>2019-02-06T12:28:03.000Z</time>
      </trkpt>
      <trkpt lat="45.91694" lon="6.50002">
        <ele>1940.4000244141</ele>
        <time>2019-02-06T12:28:05.000Z</time>
      </trkpt>
      <trkpt lat="45.91691" lon="6.50001">
        <ele>1941</ele>
        <time>2019-02-06T12:28:09.000Z</time>
      </trkpt>
      <trkpt lat="45.9169" lon="6.50002">
        <ele>1941.4000244141</ele>
        <time>2019-02-06T12:28:12.000Z</time>
      </trkpt>
      <trkpt lat="45.9169" lon="6.50002">
        <ele>1942.1999511719</ele>
        <time>2019-02-06T12:28:18.000Z</time>
      </trkpt>
      <trkpt lat="45.9169" lon="6.50002">
        <ele>1942.1999511719</ele>
        <time>2019-02-06T12:28:19.000Z</time>
      </trkpt>
      <trkpt lat="45.9169" lon="6.50002">
        <ele>1942.8000488281</ele>
        <time>2019-02-06T12:28:27.000Z</time>
      </trkpt>
      <trkpt lat="45.9169" lon="6.50002">
        <ele>1943.1999511719</ele>
        <time>2019-02-06T12:28:29.000Z</time>
      </trkpt>
      <trkpt lat="45.9169" lon="6.50002">
        <ele>1944</ele>
        <time>2019-02-06T12:28:35.000Z</time>
      </trkpt>
      <trkpt lat="45.9169" lon="6.50004">
        <ele>1944.4000244141</ele>
        <time>2019-02-06T12:28:37.000Z</time>
      </trkpt>
      <trkpt lat="45.9169" lon="6.50007">
        <ele>1944.8000488281</ele>
        <time>2019-02-06T12:28:40.000Z</time>
      </trkpt>
      <trkpt lat="45.9169" lon="6.50007">
        <ele>1945.4000244141</ele>
        <time>2019-02-06T12:28:43.000Z</time>
      </trkpt>
      <trkpt lat="45.9169" lon="6.50007">
        <ele>1946.4000244141</ele>
        <time>2019-02-06T12:28:47.000Z</time>
      </trkpt>
      <trkpt lat="45.9169" lon="6.50007">
        <ele>1947.5999755859</ele>
        <time>2019-02-06T12:28:55.000Z</time>
      </trkpt>
      <trkpt lat="45.9169" lon="6.50007">
        <ele>1948</ele>
        <time>2019-02-06T12:29:04.000Z</time>
      </trkpt>
      <trkpt lat="45.9169" lon="6.50007">
        <ele>1949</ele>
        <time>2019-02-06T12:29:10.000Z</time>
      </trkpt>
      <trkpt lat="45.9169" lon="6.50007">
        <ele>1949.4000244141</ele>
        <time>2019-02-06T12:29:16.000Z</time>
      </trkpt>
      <trkpt lat="45.91688" lon="6.50009">
        <ele>1949.8000488281</ele>
        <time>2019-02-06T12:29:23.000Z</time>
      </trkpt>
      <trkpt lat="45.91686" lon="6.5001">
        <ele>1950</ele>
        <time>2019-02-06T12:29:25.000Z</time>
      </trkpt>
      <trkpt lat="45.91686" lon="6.5001">
        <ele>1950.5999755859</ele>
        <time>2019-02-06T12:29:28.000Z</time>
      </trkpt>
      <trkpt lat="45.91686" lon="6.5001">
        <ele>1951.1999511719</ele>
        <time>2019-02-06T12:29:32.000Z</time>
      </trkpt>
      <trkpt lat="45.91686" lon="6.5001">
        <ele>1951.5999755859</ele>
        <time>2019-02-06T12:29:37.000Z</time>
      </trkpt>
      <trkpt lat="45.91684" lon="6.50021">
        <ele>1952.1999511719</ele>
        <time>2019-02-06T12:29:44.000Z</time>
      </trkpt>
      <trkpt lat="45.91683" lon="6.50028">
        <ele>1953.4000244141</ele>
        <time>2019-02-06T12:29:49.000Z</time>
      </trkpt>
      <trkpt lat="45.91683" lon="6.50028">
        <ele>1953.5999755859</ele>
        <time>2019-02-06T12:29:50.000Z</time>
      </trkpt>
      <trkpt lat="45.91683" lon="6.50031">
        <ele>1954.5999755859</ele>
        <time>2019-02-06T12:29:55.000Z</time>
      </trkpt>
      <trkpt lat="45.91683" lon="6.50033">
        <ele>1955.1999511719</ele>
        <time>2019-02-06T12:30:00.000Z</time>
      </trkpt>
      <trkpt lat="45.91683" lon="6.50033">
        <ele>1955.5999755859</ele>
        <time>2019-02-06T12:30:02.000Z</time>
      </trkpt>
      <trkpt lat="45.91683" lon="6.50033">
        <ele>1956.1999511719</ele>
        <time>2019-02-06T12:30:06.000Z</time>
      </trkpt>
      <trkpt lat="45.91683" lon="6.50033">
        <ele>1956.8000488281</ele>
        <time>2019-02-06T12:30:10.000Z</time>
      </trkpt>
      <trkpt lat="45.91683" lon="6.50033">
        <ele>1957</ele>
        <time>2019-02-06T12:30:14.000Z</time>
      </trkpt>
      <trkpt lat="45.91683" lon="6.50033">
        <ele>1957.8000488281</ele>
        <time>2019-02-06T12:30:21.000Z</time>
      </trkpt>
      <trkpt lat="45.91683" lon="6.50033">
        <ele>1957.8000488281</ele>
        <time>2019-02-06T12:30:25.000Z</time>
      </trkpt>
      <trkpt lat="45.91682" lon="6.50036">
        <ele>1958.5999755859</ele>
        <time>2019-02-06T12:30:33.000Z</time>
      </trkpt>
      <trkpt lat="45.91682" lon="6.50036">
        <ele>1958.8000488281</ele>
        <time>2019-02-06T12:30:35.000Z</time>
      </trkpt>
      <trkpt lat="45.91682" lon="6.50036">
        <ele>1959.1999511719</ele>
        <time>2019-02-06T12:30:39.000Z</time>
      </trkpt>
      <trkpt lat="45.91683" lon="6.50039">
        <ele>1960</ele>
        <time>2019-02-06T12:30:43.000Z</time>
      </trkpt>
      <trkpt lat="45.91683" lon="6.50042">
        <ele>1960.1999511719</ele>
        <time>2019-02-06T12:30:44.000Z</time>
      </trkpt>
      <trkpt lat="45.91684" lon="6.50047">
        <ele>1961.1999511719</ele>
        <time>2019-02-06T12:30:50.000Z</time>
      </trkpt>
      <trkpt lat="45.91688" lon="6.50054">
        <ele>1961.8000488281</ele>
        <time>2019-02-06T12:30:57.000Z</time>
      </trkpt>
      <trkpt lat="45.91691" lon="6.50057">
        <ele>1962.1999511719</ele>
        <time>2019-02-06T12:31:01.000Z</time>
      </trkpt>
      <trkpt lat="45.91692" lon="6.5006">
        <ele>1962.8000488281</ele>
        <time>2019-02-06T12:31:05.000Z</time>
      </trkpt>
      <trkpt lat="45.91694" lon="6.50063">
        <ele>1963.5999755859</ele>
        <time>2019-02-06T12:31:09.000Z</time>
      </trkpt>
      <trkpt lat="45.91696" lon="6.50065">
        <ele>1964</ele>
        <time>2019-02-06T12:31:13.000Z</time>
      </trkpt>
      <trkpt lat="45.917" lon="6.50068">
        <ele>1964.5999755859</ele>
        <time>2019-02-06T12:31:18.000Z</time>
      </trkpt>
      <trkpt lat="45.917" lon="6.50068">
        <ele>1964.5999755859</ele>
        <time>2019-02-06T12:31:19.000Z</time>
      </trkpt>
      <trkpt lat="45.91705" lon="6.50071">
        <ele>1965.5999755859</ele>
        <time>2019-02-06T12:31:26.000Z</time>
      </trkpt>
      <trkpt lat="45.91706" lon="6.50071">
        <ele>1965.8000488281</ele>
        <time>2019-02-06T12:31:27.000Z</time>
      </trkpt>
      <trkpt lat="45.91709" lon="6.50074">
        <ele>1966.8000488281</ele>
        <time>2019-02-06T12:31:33.000Z</time>
      </trkpt>
      <trkpt lat="45.9171" lon="6.50075">
        <ele>1967</ele>
        <time>2019-02-06T12:31:35.000Z</time>
      </trkpt>
      <trkpt lat="45.91711" lon="6.50077">
        <ele>1967.8000488281</ele>
        <time>2019-02-06T12:31:41.000Z</time>
      </trkpt>
      <trkpt lat="45.91711" lon="6.50077">
        <ele>1968.1999511719</ele>
        <time>2019-02-06T12:31:43.000Z</time>
      </trkpt>
      <trkpt lat="45.91707" lon="6.5008">
        <ele>1968.8000488281</ele>
        <time>2019-02-06T12:31:50.000Z</time>
      </trkpt>
      <trkpt lat="45.91704" lon="6.50082">
        <ele>1970</ele>
        <time>2019-02-06T12:31:57.000Z</time>
      </trkpt>
      <trkpt lat="45.91703" lon="6.50084">
        <ele>1971</ele>
        <time>2019-02-06T12:32:04.000Z</time>
      </trkpt>
      <trkpt lat="45.91703" lon="6.50084">
        <ele>1971</ele>
        <time>2019-02-06T12:32:05.000Z</time>
      </trkpt>
      <trkpt lat="45.91703" lon="6.50084">
        <ele>1971.5999755859</ele>
        <time>2019-02-06T12:32:13.000Z</time>
      </trkpt>
      <trkpt lat="45.91703" lon="6.50085">
        <ele>1972</ele>
        <time>2019-02-06T12:32:17.000Z</time>
      </trkpt>
      <trkpt lat="45.91704" lon="6.50086">
        <ele>1973</ele>
        <time>2019-02-06T12:32:21.000Z</time>
      </trkpt>
      <trkpt lat="45.91704" lon="6.50086">
        <ele>1973.1999511719</ele>
        <time>2019-02-06T12:32:22.000Z</time>
      </trkpt>
      <trkpt lat="45.91704" lon="6.50086">
        <ele>1974</ele>
        <time>2019-02-06T12:32:29.000Z</time>
      </trkpt>
      <trkpt lat="45.91704" lon="6.50086">
        <ele>1974.1999511719</ele>
        <time>2019-02-06T12:32:30.000Z</time>
      </trkpt>
      <trkpt lat="45.91703" lon="6.50087">
        <ele>1975</ele>
        <time>2019-02-06T12:32:35.000Z</time>
      </trkpt>
      <trkpt lat="45.91704" lon="6.50088">
        <ele>1975.1999511719</ele>
        <time>2019-02-06T12:32:37.000Z</time>
      </trkpt>
      <trkpt lat="45.91701" lon="6.50089">
        <ele>1976.1999511719</ele>
        <time>2019-02-06T12:32:43.000Z</time>
      </trkpt>
      <trkpt lat="45.91699" lon="6.50092">
        <ele>1977</ele>
        <time>2019-02-06T12:32:49.000Z</time>
      </trkpt>
      <trkpt lat="45.91699" lon="6.50093">
        <ele>1977.4000244141</ele>
        <time>2019-02-06T12:32:51.000Z</time>
      </trkpt>
      <trkpt lat="45.91697" lon="6.50094">
        <ele>1978.4000244141</ele>
        <time>2019-02-06T12:32:57.000Z</time>
      </trkpt>
      <trkpt lat="45.91696" lon="6.50095">
        <ele>1978.5999755859</ele>
        <time>2019-02-06T12:32:58.000Z</time>
      </trkpt>
      <trkpt lat="45.91696" lon="6.50095">
        <ele>1979.4000244141</ele>
        <time>2019-02-06T12:33:06.000Z</time>
      </trkpt>
      <trkpt lat="45.91696" lon="6.50095">
        <ele>1979.5999755859</ele>
        <time>2019-02-06T12:33:10.000Z</time>
      </trkpt>
      <trkpt lat="45.91696" lon="6.50095">
        <ele>1980.1999511719</ele>
        <time>2019-02-06T12:33:14.000Z</time>
      </trkpt>
      <trkpt lat="45.91697" lon="6.50098">
        <ele>1980.8000488281</ele>
        <time>2019-02-06T12:33:17.000Z</time>
      </trkpt>
      <trkpt lat="45.91697" lon="6.501">
        <ele>1981</ele>
        <time>2019-02-06T12:33:19.000Z</time>
      </trkpt>
      <trkpt lat="45.91698" lon="6.50104">
        <ele>1981.8000488281</ele>
        <time>2019-02-06T12:33:23.000Z</time>
      </trkpt>
      <trkpt lat="45.91699" lon="6.50108">
        <ele>1982.1999511719</ele>
        <time>2019-02-06T12:33:26.000Z</time>
      </trkpt>
      <trkpt lat="45.917" lon="6.50111">
        <ele>1982.8000488281</ele>
        <time>2019-02-06T12:33:31.000Z</time>
      </trkpt>
      <trkpt lat="45.917" lon="6.50113">
        <ele>1983.4000244141</ele>
        <time>2019-02-06T12:33:33.000Z</time>
      </trkpt>
      <trkpt lat="45.917" lon="6.50115">
        <ele>1984</ele>
        <time>2019-02-06T12:33:37.000Z</time>
      </trkpt>
      <trkpt lat="45.91701" lon="6.50116">
        <ele>1984.1999511719</ele>
        <time>2019-02-06T12:33:39.000Z</time>
      </trkpt>
      <trkpt lat="45.91701" lon="6.50116">
        <ele>1985</ele>
        <time>2019-02-06T12:33:45.000Z</time>
      </trkpt>
      <trkpt lat="45.91701" lon="6.50116">
        <ele>1985.5999755859</ele>
        <time>2019-02-06T12:33:48.000Z</time>
      </trkpt>
      <trkpt lat="45.91697" lon="6.50116">
        <ele>1986</ele>
        <time>2019-02-06T12:33:55.000Z</time>
      </trkpt>
      <trkpt lat="45.91695" lon="6.50116">
        <ele>1986.1999511719</ele>
        <time>2019-02-06T12:33:56.000Z</time>
      </trkpt>
      <trkpt lat="45.91692" lon="6.50116">
        <ele>1987.1999511719</ele>
        <time>2019-02-06T12:34:01.000Z</time>
      </trkpt>
      <trkpt lat="45.91687" lon="6.50116">
        <ele>1988.4000244141</ele>
        <time>2019-02-06T12:34:07.000Z</time>
      </trkpt>
      <trkpt lat="45.91688" lon="6.50116">
        <ele>1988.5999755859</ele>
        <time>2019-02-06T12:34:08.000Z</time>
      </trkpt>
      <trkpt lat="45.91685" lon="6.50116">
        <ele>1989.5999755859</ele>
        <time>2019-02-06T12:34:14.000Z</time>
      </trkpt>
      <trkpt lat="45.91683" lon="6.50117">
        <ele>1990.5999755859</ele>
        <time>2019-02-06T12:34:21.000Z</time>
      </trkpt>
      <trkpt lat="45.91683" lon="6.50117">
        <ele>1990.8000488281</ele>
        <time>2019-02-06T12:34:23.000Z</time>
      </trkpt>
      <trkpt lat="45.91684" lon="6.50118">
        <ele>1991.1999511719</ele>
        <time>2019-02-06T12:34:30.000Z</time>
      </trkpt>
      <trkpt lat="45.91685" lon="6.50122">
        <ele>1991.8000488281</ele>
        <time>2019-02-06T12:34:35.000Z</time>
      </trkpt>
      <trkpt lat="45.91689" lon="6.50126">
        <ele>1992.8000488281</ele>
        <time>2019-02-06T12:34:41.000Z</time>
      </trkpt>
      <trkpt lat="45.91689" lon="6.50127">
        <ele>1993</ele>
        <time>2019-02-06T12:34:42.000Z</time>
      </trkpt>
      <trkpt lat="45.9169" lon="6.50131">
        <ele>1994</ele>
        <time>2019-02-06T12:34:46.000Z</time>
      </trkpt>
      <trkpt lat="45.91692" lon="6.50136">
        <ele>1994.4000244141</ele>
        <time>2019-02-06T12:34:50.000Z</time>
      </trkpt>
      <trkpt lat="45.91693" lon="6.50136">
        <ele>1995</ele>
        <time>2019-02-06T12:34:54.000Z</time>
      </trkpt>
      <trkpt lat="45.91693" lon="6.50137">
        <ele>1995</ele>
        <time>2019-02-06T12:34:55.000Z</time>
      </trkpt>
      <trkpt lat="45.91692" lon="6.50141">
        <ele>1996</ele>
        <time>2019-02-06T12:35:02.000Z</time>
      </trkpt>
      <trkpt lat="45.91692" lon="6.50141">
        <ele>1996</ele>
        <time>2019-02-06T12:35:03.000Z</time>
      </trkpt>
      <trkpt lat="45.9169" lon="6.50138">
        <ele>1997.1999511719</ele>
        <time>2019-02-06T12:35:08.000Z</time>
      </trkpt>
      <trkpt lat="45.9169" lon="6.50138">
        <ele>1997.4000244141</ele>
        <time>2019-02-06T12:35:09.000Z</time>
      </trkpt>
      <trkpt lat="45.91686" lon="6.50136">
        <ele>1998</ele>
        <time>2019-02-06T12:35:16.000Z</time>
      </trkpt>
      <trkpt lat="45.91684" lon="6.50135">
        <ele>1998.1999511719</ele>
        <time>2019-02-06T12:35:17.000Z</time>
      </trkpt>
      <trkpt lat="45.91683" lon="6.50135">
        <ele>1998.5999755859</ele>
        <time>2019-02-06T12:35:21.000Z</time>
      </trkpt>
      <trkpt lat="45.91679" lon="6.50133">
        <ele>1999.1999511719</ele>
        <time>2019-02-06T12:35:26.000Z</time>
      </trkpt>
      <trkpt lat="45.91678" lon="6.50133">
        <ele>2000</ele>
        <time>2019-02-06T12:35:29.000Z</time>
      </trkpt>
      <trkpt lat="45.91677" lon="6.50133">
        <ele>2000.4000244141</ele>
        <time>2019-02-06T12:35:31.000Z</time>
      </trkpt>
      <trkpt lat="45.91674" lon="6.50132">
        <ele>2001.1999511719</ele>
        <time>2019-02-06T12:35:36.000Z</time>
      </trkpt>
      <trkpt lat="45.91673" lon="6.50132">
        <ele>2001.4000244141</ele>
        <time>2019-02-06T12:35:37.000Z</time>
      </trkpt>
      <trkpt lat="45.9167" lon="6.50132">
        <ele>2002.4000244141</ele>
        <time>2019-02-06T12:35:42.000Z</time>
      </trkpt>
      <trkpt lat="45.91669" lon="6.50132">
        <ele>2002.5999755859</ele>
        <time>2019-02-06T12:35:43.000Z</time>
      </trkpt>
      <trkpt lat="45.91667" lon="6.50132">
        <ele>2003.5999755859</ele>
        <time>2019-02-06T12:35:49.000Z</time>
      </trkpt>
      <trkpt lat="45.91667" lon="6.50132">
        <ele>2004</ele>
        <time>2019-02-06T12:35:56.000Z</time>
      </trkpt>
      <trkpt lat="45.91667" lon="6.50132">
        <ele>2004.1999511719</ele>
        <time>2019-02-06T12:36:03.000Z</time>
      </trkpt>
      <trkpt lat="45.91667" lon="6.50134">
        <ele>2004.8000488281</ele>
        <time>2019-02-06T12:36:07.000Z</time>
      </trkpt>
      <trkpt lat="45.91667" lon="6.50134">
        <ele>2005</ele>
        <time>2019-02-06T12:36:08.000Z</time>
      </trkpt>
      <trkpt lat="45.91667" lon="6.50134">
        <ele>2005.8000488281</ele>
        <time>2019-02-06T12:36:13.000Z</time>
      </trkpt>
      <trkpt lat="45.91667" lon="6.5014">
        <ele>2006.1999511719</ele>
        <time>2019-02-06T12:36:16.000Z</time>
      </trkpt>
      <trkpt lat="45.91668" lon="6.50149">
        <ele>2007</ele>
        <time>2019-02-06T12:36:21.000Z</time>
      </trkpt>
      <trkpt lat="45.91668" lon="6.50151">
        <ele>2007.1999511719</ele>
        <time>2019-02-06T12:36:22.000Z</time>
      </trkpt>
      <trkpt lat="45.91669" lon="6.50152">
        <ele>2008</ele>
        <time>2019-02-06T12:36:26.000Z</time>
      </trkpt>
      <trkpt lat="45.91669" lon="6.50154">
        <ele>2008.4000244141</ele>
        <time>2019-02-06T12:36:28.000Z</time>
      </trkpt>
      <trkpt lat="45.9167" lon="6.50157">
        <ele>2009</ele>
        <time>2019-02-06T12:36:33.000Z</time>
      </trkpt>
      <trkpt lat="45.9167" lon="6.50158">
        <ele>2009.1999511719</ele>
        <time>2019-02-06T12:36:34.000Z</time>
      </trkpt>
      <trkpt lat="45.9167" lon="6.50161">
        <ele>2010</ele>
        <time>2019-02-06T12:36:39.000Z</time>
      </trkpt>
      <trkpt lat="45.9167" lon="6.50161">
        <ele>2010.1999511719</ele>
        <time>2019-02-06T12:36:41.000Z</time>
      </trkpt>
      <trkpt lat="45.9167" lon="6.50161">
        <ele>2011.1999511719</ele>
        <time>2019-02-06T12:36:47.000Z</time>
      </trkpt>
      <trkpt lat="45.9167" lon="6.50161">
        <ele>2011.1999511719</ele>
        <time>2019-02-06T12:36:48.000Z</time>
      </trkpt>
      <trkpt lat="45.91667" lon="6.5016">
        <ele>2011.5999755859</ele>
        <time>2019-02-06T12:36:54.000Z</time>
      </trkpt>
      <trkpt lat="45.91666" lon="6.50159">
        <ele>2012.1999511719</ele>
        <time>2019-02-06T12:36:57.000Z</time>
      </trkpt>
      <trkpt lat="45.91666" lon="6.50159">
        <ele>2012.4000244141</ele>
        <time>2019-02-06T12:36:58.000Z</time>
      </trkpt>
      <trkpt lat="45.91666" lon="6.50159">
        <ele>2013.4000244141</ele>
        <time>2019-02-06T12:37:04.000Z</time>
      </trkpt>
      <trkpt lat="45.91666" lon="6.50159">
        <ele>2014.5999755859</ele>
        <time>2019-02-06T12:37:10.000Z</time>
      </trkpt>
      <trkpt lat="45.91666" lon="6.50159">
        <ele>2015</ele>
        <time>2019-02-06T12:37:19.000Z</time>
      </trkpt>
      <trkpt lat="45.91666" lon="6.50159">
        <ele>2015.5999755859</ele>
        <time>2019-02-06T12:37:22.000Z</time>
      </trkpt>
      <trkpt lat="45.91664" lon="6.50162">
        <ele>2016.4000244141</ele>
        <time>2019-02-06T12:37:26.000Z</time>
      </trkpt>
      <trkpt lat="45.91663" lon="6.50163">
        <ele>2016.8000488281</ele>
        <time>2019-02-06T12:37:28.000Z</time>
      </trkpt>
      <trkpt lat="45.91664" lon="6.50166">
        <ele>2018</ele>
        <time>2019-02-06T12:37:34.000Z</time>
      </trkpt>
      <trkpt lat="45.91665" lon="6.50169">
        <ele>2018.1999511719</ele>
        <time>2019-02-06T12:37:35.000Z</time>
      </trkpt>
      <trkpt lat="45.91663" lon="6.50173">
        <ele>2019.1999511719</ele>
        <time>2019-02-06T12:37:40.000Z</time>
      </trkpt>
      <trkpt lat="45.91663" lon="6.50176">
        <ele>2019.4000244141</ele>
        <time>2019-02-06T12:37:41.000Z</time>
      </trkpt>
      <trkpt lat="45.91664" lon="6.50178">
        <ele>2020</ele>
        <time>2019-02-06T12:37:46.000Z</time>
      </trkpt>
      <trkpt lat="45.91664" lon="6.50178">
        <ele>2020.1999511719</ele>
        <time>2019-02-06T12:37:47.000Z</time>
      </trkpt>
      <trkpt lat="45.91664" lon="6.50182">
        <ele>2021</ele>
        <time>2019-02-06T12:37:52.000Z</time>
      </trkpt>
      <trkpt lat="45.91663" lon="6.50183">
        <ele>2021.1999511719</ele>
        <time>2019-02-06T12:37:54.000Z</time>
      </trkpt>
      <trkpt lat="45.91663" lon="6.50194">
        <ele>2022.4000244141</ele>
        <time>2019-02-06T12:38:00.000Z</time>
      </trkpt>
      <trkpt lat="45.91663" lon="6.50199">
        <ele>2023.1999511719</ele>
        <time>2019-02-06T12:38:05.000Z</time>
      </trkpt>
      <trkpt lat="45.91663" lon="6.50199">
        <ele>2023.4000244141</ele>
        <time>2019-02-06T12:38:07.000Z</time>
      </trkpt>
      <trkpt lat="45.91663" lon="6.50204">
        <ele>2024.1999511719</ele>
        <time>2019-02-06T12:38:12.000Z</time>
      </trkpt>
      <trkpt lat="45.91663" lon="6.50204">
        <ele>2024.4000244141</ele>
        <time>2019-02-06T12:38:13.000Z</time>
      </trkpt>
      <trkpt lat="45.91662" lon="6.50208">
        <ele>2025.1999511719</ele>
        <time>2019-02-06T12:38:17.000Z</time>
      </trkpt>
      <trkpt lat="45.91662" lon="6.50208">
        <ele>2025.4000244141</ele>
        <time>2019-02-06T12:38:18.000Z</time>
      </trkpt>
      <trkpt lat="45.91663" lon="6.50211">
        <ele>2025.8000488281</ele>
        <time>2019-02-06T12:38:21.000Z</time>
      </trkpt>
      <trkpt lat="45.91664" lon="6.50214">
        <ele>2026.5999755859</ele>
        <time>2019-02-06T12:38:24.000Z</time>
      </trkpt>
      <trkpt lat="45.91665" lon="6.50216">
        <ele>2027.1999511719</ele>
        <time>2019-02-06T12:38:28.000Z</time>
      </trkpt>
      <trkpt lat="45.91666" lon="6.50217">
        <ele>2027.5999755859</ele>
        <time>2019-02-06T12:38:30.000Z</time>
      </trkpt>
      <trkpt lat="45.91666" lon="6.50218">
        <ele>2028.1999511719</ele>
        <time>2019-02-06T12:38:37.000Z</time>
      </trkpt>
      <trkpt lat="45.91666" lon="6.50218">
        <ele>2028.5999755859</ele>
        <time>2019-02-06T12:38:40.000Z</time>
      </trkpt>
      <trkpt lat="45.91663" lon="6.50217">
        <ele>2029.4000244141</ele>
        <time>2019-02-06T12:38:46.000Z</time>
      </trkpt>
      <trkpt lat="45.91662" lon="6.50217">
        <ele>2029.5999755859</ele>
        <time>2019-02-06T12:38:49.000Z</time>
      </trkpt>
      <trkpt lat="45.91662" lon="6.50217">
        <ele>2030</ele>
        <time>2019-02-06T12:38:51.000Z</time>
      </trkpt>
      <trkpt lat="45.91662" lon="6.5022">
        <ele>2030.4000244141</ele>
        <time>2019-02-06T12:39:00.000Z</time>
      </trkpt>
      <trkpt lat="45.91663" lon="6.50222">
        <ele>2030.8000488281</ele>
        <time>2019-02-06T12:39:03.000Z</time>
      </trkpt>
      <trkpt lat="45.91663" lon="6.50223">
        <ele>2031.1999511719</ele>
        <time>2019-02-06T12:39:05.000Z</time>
      </trkpt>
      <trkpt lat="45.91663" lon="6.50226">
        <ele>2032</ele>
        <time>2019-02-06T12:39:09.000Z</time>
      </trkpt>
      <trkpt lat="45.91663" lon="6.50226">
        <ele>2032.1999511719</ele>
        <time>2019-02-06T12:39:10.000Z</time>
      </trkpt>
      <trkpt lat="45.91663" lon="6.50226">
        <ele>2033</ele>
        <time>2019-02-06T12:39:14.000Z</time>
      </trkpt>
      <trkpt lat="45.91663" lon="6.50226">
        <ele>2033.5999755859</ele>
        <time>2019-02-06T12:39:18.000Z</time>
      </trkpt>
      <trkpt lat="45.91662" lon="6.50226">
        <ele>2033.5999755859</ele>
        <time>2019-02-06T12:39:23.000Z</time>
      </trkpt>
      <trkpt lat="45.91661" lon="6.50226">
        <ele>2034.1999511719</ele>
        <time>2019-02-06T12:39:26.000Z</time>
      </trkpt>
      <trkpt lat="45.91661" lon="6.50225">
        <ele>2034.8000488281</ele>
        <time>2019-02-06T12:39:30.000Z</time>
      </trkpt>
      <trkpt lat="45.91661" lon="6.50225">
        <ele>2035.4000244141</ele>
        <time>2019-02-06T12:39:33.000Z</time>
      </trkpt>
      <trkpt lat="45.91661" lon="6.50225">
        <ele>2035.8000488281</ele>
        <time>2019-02-06T12:39:36.000Z</time>
      </trkpt>
      <trkpt lat="45.9166" lon="6.50222">
        <ele>2036</ele>
        <time>2019-02-06T12:39:41.000Z</time>
      </trkpt>
      <trkpt lat="45.91661" lon="6.50223">
        <ele>2036.4000244141</ele>
        <time>2019-02-06T12:39:44.000Z</time>
      </trkpt>
      <trkpt lat="45.9166" lon="6.50226">
        <ele>2037.1999511719</ele>
        <time>2019-02-06T12:39:47.000Z</time>
      </trkpt>
      <trkpt lat="45.9166" lon="6.50228">
        <ele>2037.4000244141</ele>
        <time>2019-02-06T12:39:49.000Z</time>
      </trkpt>
      <trkpt lat="45.91661" lon="6.50231">
        <ele>2038.1999511719</ele>
        <time>2019-02-06T12:39:53.000Z</time>
      </trkpt>
      <trkpt lat="45.91661" lon="6.50231">
        <ele>2038.5999755859</ele>
        <time>2019-02-06T12:39:54.000Z</time>
      </trkpt>
      <trkpt lat="45.9166" lon="6.50233">
        <ele>2039.4000244141</ele>
        <time>2019-02-06T12:40:01.000Z</time>
      </trkpt>
      <trkpt lat="45.9166" lon="6.50233">
        <ele>2039.5999755859</ele>
        <time>2019-02-06T12:40:03.000Z</time>
      </trkpt>
      <trkpt lat="45.9166" lon="6.50233">
        <ele>2040.1999511719</ele>
        <time>2019-02-06T12:40:07.000Z</time>
      </trkpt>
      <trkpt lat="45.91659" lon="6.50233">
        <ele>2040.5999755859</ele>
        <time>2019-02-06T12:40:12.000Z</time>
      </trkpt>
      <trkpt lat="45.91659" lon="6.50232">
        <ele>2040.8000488281</ele>
        <time>2019-02-06T12:40:14.000Z</time>
      </trkpt>
      <trkpt lat="45.91657" lon="6.50231">
        <ele>2040.8000488281</ele>
        <time>2019-02-06T12:40:16.000Z</time>
      </trkpt>
      <trkpt lat="45.91655" lon="6.50231">
        <ele>2040.8000488281</ele>
        <time>2019-02-06T12:40:19.000Z</time>
      </trkpt>
      <trkpt lat="45.91654" lon="6.50231">
        <ele>2041.5999755859</ele>
        <time>2019-02-06T12:40:24.000Z</time>
      </trkpt>
      <trkpt lat="45.91654" lon="6.50231">
        <ele>2041.8000488281</ele>
        <time>2019-02-06T12:40:25.000Z</time>
      </trkpt>
      <trkpt lat="45.91654" lon="6.50231">
        <ele>2042.4000244141</ele>
        <time>2019-02-06T12:40:29.000Z</time>
      </trkpt>
      <trkpt lat="45.91654" lon="6.50231">
        <ele>2042.8000488281</ele>
        <time>2019-02-06T12:40:32.000Z</time>
      </trkpt>
      <trkpt lat="45.91654" lon="6.50231">
        <ele>2042.8000488281</ele>
        <time>2019-02-06T12:40:38.000Z</time>
      </trkpt>
      <trkpt lat="45.91654" lon="6.50236">
        <ele>2043.8000488281</ele>
        <time>2019-02-06T12:40:44.000Z</time>
      </trkpt>
      <trkpt lat="45.91654" lon="6.50239">
        <ele>2044</ele>
        <time>2019-02-06T12:40:45.000Z</time>
      </trkpt>
      <trkpt lat="45.91654" lon="6.50245">
        <ele>2044.8000488281</ele>
        <time>2019-02-06T12:40:49.000Z</time>
      </trkpt>
      <trkpt lat="45.91654" lon="6.50251">
        <ele>2045.8000488281</ele>
        <time>2019-02-06T12:40:54.000Z</time>
      </trkpt>
      <trkpt lat="45.91654" lon="6.50253">
        <ele>2046</ele>
        <time>2019-02-06T12:40:55.000Z</time>
      </trkpt>
      <trkpt lat="45.91655" lon="6.50257">
        <ele>2047</ele>
        <time>2019-02-06T12:41:00.000Z</time>
      </trkpt>
      <trkpt lat="45.91656" lon="6.50258">
        <ele>2047.1999511719</ele>
        <time>2019-02-06T12:41:02.000Z</time>
      </trkpt>
      <trkpt lat="45.91657" lon="6.50259">
        <ele>2048.1999511719</ele>
        <time>2019-02-06T12:41:07.000Z</time>
      </trkpt>
      <trkpt lat="45.91656" lon="6.50266">
        <ele>2049.1999511719</ele>
        <time>2019-02-06T12:41:14.000Z</time>
      </trkpt>
      <trkpt lat="45.91656" lon="6.50267">
        <ele>2049.3999023438</ele>
        <time>2019-02-06T12:41:15.000Z</time>
      </trkpt>
      <trkpt lat="45.91656" lon="6.50271">
        <ele>2050</ele>
        <time>2019-02-06T12:41:19.000Z</time>
      </trkpt>
      <trkpt lat="45.91656" lon="6.50273">
        <ele>2050.3999023438</ele>
        <time>2019-02-06T12:41:21.000Z</time>
      </trkpt>
      <trkpt lat="45.91656" lon="6.50277">
        <ele>2051.3999023438</ele>
        <time>2019-02-06T12:41:26.000Z</time>
      </trkpt>
      <trkpt lat="45.91657" lon="6.50278">
        <ele>2051.6000976562</ele>
        <time>2019-02-06T12:41:27.000Z</time>
      </trkpt>
      <trkpt lat="45.91657" lon="6.50279">
        <ele>2052.1999511719</ele>
        <time>2019-02-06T12:41:31.000Z</time>
      </trkpt>
      <trkpt lat="45.91657" lon="6.50282">
        <ele>2052.6000976562</ele>
        <time>2019-02-06T12:41:33.000Z</time>
      </trkpt>
      <trkpt lat="45.91656" lon="6.50287">
        <ele>2053.6000976562</ele>
        <time>2019-02-06T12:41:37.000Z</time>
      </trkpt>
      <trkpt lat="45.91657" lon="6.50289">
        <ele>2053.8000488281</ele>
        <time>2019-02-06T12:41:38.000Z</time>
      </trkpt>
      <trkpt lat="45.91658" lon="6.50291">
        <ele>2054.1999511719</ele>
        <time>2019-02-06T12:41:41.000Z</time>
      </trkpt>
      <trkpt lat="45.91658" lon="6.50294">
        <ele>2054.8000488281</ele>
        <time>2019-02-06T12:41:44.000Z</time>
      </trkpt>
      <trkpt lat="45.9166" lon="6.50295">
        <ele>2055.1999511719</ele>
        <time>2019-02-06T12:41:47.000Z</time>
      </trkpt>
      <trkpt lat="45.9166" lon="6.50298">
        <ele>2056</ele>
        <time>2019-02-06T12:41:51.000Z</time>
      </trkpt>
      <trkpt lat="45.91661" lon="6.50299">
        <ele>2056.1999511719</ele>
        <time>2019-02-06T12:41:53.000Z</time>
      </trkpt>
      <trkpt lat="45.91662" lon="6.50302">
        <ele>2057</ele>
        <time>2019-02-06T12:41:57.000Z</time>
      </trkpt>
      <trkpt lat="45.91664" lon="6.50306">
        <ele>2058.1999511719</ele>
        <time>2019-02-06T12:42:03.000Z</time>
      </trkpt>
      <trkpt lat="45.91664" lon="6.50307">
        <ele>2058.1999511719</ele>
        <time>2019-02-06T12:42:04.000Z</time>
      </trkpt>
      <trkpt lat="45.91665" lon="6.50312">
        <ele>2058.8000488281</ele>
        <time>2019-02-06T12:42:09.000Z</time>
      </trkpt>
      <trkpt lat="45.91666" lon="6.50312">
        <ele>2059.1999511719</ele>
        <time>2019-02-06T12:42:11.000Z</time>
      </trkpt>
      <trkpt lat="45.91666" lon="6.50312">
        <ele>2060.3999023438</ele>
        <time>2019-02-06T12:42:16.000Z</time>
      </trkpt>
      <trkpt lat="45.91666" lon="6.50312">
        <ele>2060.6000976562</ele>
        <time>2019-02-06T12:42:18.000Z</time>
      </trkpt>
      <trkpt lat="45.91664" lon="6.50315">
        <ele>2060.8000488281</ele>
        <time>2019-02-06T12:42:29.000Z</time>
      </trkpt>
      <trkpt lat="45.91664" lon="6.50318">
        <ele>2061.6000976562</ele>
        <time>2019-02-06T12:42:33.000Z</time>
      </trkpt>
      <trkpt lat="45.91661" lon="6.50319">
        <ele>2062.3999023438</ele>
        <time>2019-02-06T12:42:38.000Z</time>
      </trkpt>
      <trkpt lat="45.9166" lon="6.50319">
        <ele>2062.6000976562</ele>
        <time>2019-02-06T12:42:39.000Z</time>
      </trkpt>
      <trkpt lat="45.91657" lon="6.50321">
        <ele>2063.8000488281</ele>
        <time>2019-02-06T12:42:43.000Z</time>
      </trkpt>
      <trkpt lat="45.91656" lon="6.50321">
        <ele>2064</ele>
        <time>2019-02-06T12:42:45.000Z</time>
      </trkpt>
      <trkpt lat="45.91654" lon="6.50323">
        <ele>2064.8000488281</ele>
        <time>2019-02-06T12:42:51.000Z</time>
      </trkpt>
      <trkpt lat="45.91653" lon="6.50324">
        <ele>2065</ele>
        <time>2019-02-06T12:42:52.000Z</time>
      </trkpt>
      <trkpt lat="45.91652" lon="6.50328">
        <ele>2065.8000488281</ele>
        <time>2019-02-06T12:42:58.000Z</time>
      </trkpt>
      <trkpt lat="45.91652" lon="6.50328">
        <ele>2066</ele>
        <time>2019-02-06T12:42:59.000Z</time>
      </trkpt>
      <trkpt lat="45.91653" lon="6.50332">
        <ele>2067</ele>
        <time>2019-02-06T12:43:03.000Z</time>
      </trkpt>
      <trkpt lat="45.91653" lon="6.50332">
        <ele>2067.8000488281</ele>
        <time>2019-02-06T12:43:07.000Z</time>
      </trkpt>
      <trkpt lat="45.91653" lon="6.50332">
        <ele>2068</ele>
        <time>2019-02-06T12:43:12.000Z</time>
      </trkpt>
      <trkpt lat="45.91653" lon="6.50335">
        <ele>2067.8000488281</ele>
        <time>2019-02-06T12:43:20.000Z</time>
      </trkpt>
      <trkpt lat="45.91654" lon="6.50337">
        <ele>2068.3999023438</ele>
        <time>2019-02-06T12:43:25.000Z</time>
      </trkpt>
      <trkpt lat="45.91652" lon="6.5034">
        <ele>2069</ele>
        <time>2019-02-06T12:43:29.000Z</time>
      </trkpt>
      <trkpt lat="45.91651" lon="6.50341">
        <ele>2069.6000976562</ele>
        <time>2019-02-06T12:43:31.000Z</time>
      </trkpt>
      <trkpt lat="45.9165" lon="6.50341">
        <ele>2070.1999511719</ele>
        <time>2019-02-06T12:43:32.000Z</time>
      </trkpt>
      <trkpt lat="45.91648" lon="6.50343">
        <ele>2071.1999511719</ele>
        <time>2019-02-06T12:43:35.000Z</time>
      </trkpt>
      <trkpt lat="45.91645" lon="6.50344">
        <ele>2072</ele>
        <time>2019-02-06T12:43:39.000Z</time>
      </trkpt>
      <trkpt lat="45.91644" lon="6.50345">
        <ele>2072.3999023438</ele>
        <time>2019-02-06T12:43:42.000Z</time>
      </trkpt>
      <trkpt lat="45.91642" lon="6.50347">
        <ele>2073.1999511719</ele>
        <time>2019-02-06T12:43:46.000Z</time>
      </trkpt>
      <trkpt lat="45.91641" lon="6.50348">
        <ele>2073.6000976562</ele>
        <time>2019-02-06T12:43:48.000Z</time>
      </trkpt>
      <trkpt lat="45.91638" lon="6.50351">
        <ele>2074.6000976562</ele>
        <time>2019-02-06T12:43:54.000Z</time>
      </trkpt>
      <trkpt lat="45.91637" lon="6.50352">
        <ele>2075</ele>
        <time>2019-02-06T12:43:55.000Z</time>
      </trkpt>
      <trkpt lat="45.91636" lon="6.50355">
        <ele>2075.8000488281</ele>
        <time>2019-02-06T12:43:58.000Z</time>
      </trkpt>
      <trkpt lat="45.91633" lon="6.50357">
        <ele>2076.8000488281</ele>
        <time>2019-02-06T12:44:03.000Z</time>
      </trkpt>
      <trkpt lat="45.91632" lon="6.50358">
        <ele>2077</ele>
        <time>2019-02-06T12:44:04.000Z</time>
      </trkpt>
      <trkpt lat="45.91631" lon="6.50359">
        <ele>2078</ele>
        <time>2019-02-06T12:44:10.000Z</time>
      </trkpt>
      <trkpt lat="45.91631" lon="6.50359">
        <ele>2078</ele>
        <time>2019-02-06T12:44:23.000Z</time>
      </trkpt>
      <trkpt lat="45.91631" lon="6.50359">
        <ele>2077.6000976562</ele>
        <time>2019-02-06T12:44:33.000Z</time>
      </trkpt>
      <trkpt lat="45.91631" lon="6.50359">
        <ele>2077.8000488281</ele>
        <time>2019-02-06T12:44:34.000Z</time>
      </trkpt>
      <trkpt lat="45.91631" lon="6.50359">
        <ele>2077.8000488281</ele>
        <time>2019-02-06T12:44:47.000Z</time>
      </trkpt>
      <trkpt lat="45.91631" lon="6.50358">
        <ele>2078.3999023438</ele>
        <time>2019-02-06T12:44:59.000Z</time>
      </trkpt>
      <trkpt lat="45.91631" lon="6.50358">
        <ele>2078.3999023438</ele>
        <time>2019-02-06T12:45:06.000Z</time>
      </trkpt>
      <trkpt lat="45.91631" lon="6.50359">
        <ele>2077</ele>
        <time>2019-02-06T12:45:09.000Z</time>
      </trkpt>
      <trkpt lat="45.91631" lon="6.50359">
        <ele>2077.3999023438</ele>
        <time>2019-02-06T12:45:16.000Z</time>
      </trkpt>
      <trkpt lat="45.91631" lon="6.50359">
        <ele>2078</ele>
        <time>2019-02-06T12:45:27.000Z</time>
      </trkpt>
      <trkpt lat="45.91631" lon="6.50359">
        <ele>2078</ele>
        <time>2019-02-06T12:45:44.000Z</time>
      </trkpt>
      <trkpt lat="45.91631" lon="6.50359">
        <ele>2077.8000488281</ele>
        <time>2019-02-06T12:46:00.000Z</time>
      </trkpt>
      <trkpt lat="45.91631" lon="6.50359">
        <ele>2078.1999511719</ele>
        <time>2019-02-06T12:46:11.000Z</time>
      </trkpt>
      <trkpt lat="45.91631" lon="6.50359">
        <ele>2078</ele>
        <time>2019-02-06T12:46:16.000Z</time>
      </trkpt>
      <trkpt lat="45.91633" lon="6.50361">
        <ele>2078</ele>
        <time>2019-02-06T12:46:27.000Z</time>
      </trkpt>
      <trkpt lat="45.91633" lon="6.50361">
        <ele>2077.3999023438</ele>
        <time>2019-02-06T12:46:40.000Z</time>
      </trkpt>
      <trkpt lat="45.91633" lon="6.50361">
        <ele>2077</ele>
        <time>2019-02-06T12:46:56.000Z</time>
      </trkpt>
      <trkpt lat="45.91633" lon="6.50361">
        <ele>2077</ele>
        <time>2019-02-06T12:46:57.000Z</time>
      </trkpt>
      <trkpt lat="45.91633" lon="6.50361">
        <ele>2078.1999511719</ele>
        <time>2019-02-06T12:47:01.000Z</time>
      </trkpt>
      <trkpt lat="45.91633" lon="6.50361">
        <ele>2078.1999511719</ele>
        <time>2019-02-06T12:47:06.000Z</time>
      </trkpt>
      <trkpt lat="45.91633" lon="6.50361">
        <ele>2077.8000488281</ele>
        <time>2019-02-06T12:47:17.000Z</time>
      </trkpt>
      <trkpt lat="45.91633" lon="6.50361">
        <ele>2078.1999511719</ele>
        <time>2019-02-06T12:47:31.000Z</time>
      </trkpt>
      <trkpt lat="45.91633" lon="6.50361">
        <ele>2078</ele>
        <time>2019-02-06T12:47:44.000Z</time>
      </trkpt>
      <trkpt lat="45.91633" lon="6.50361">
        <ele>2078</ele>
        <time>2019-02-06T12:47:52.000Z</time>
      </trkpt>
      <trkpt lat="45.91633" lon="6.50361">
        <ele>2078</ele>
        <time>2019-02-06T12:47:56.000Z</time>
      </trkpt>
      <trkpt lat="45.91633" lon="6.50361">
        <ele>2078.1999511719</ele>
        <time>2019-02-06T12:48:10.000Z</time>
      </trkpt>
      <trkpt lat="45.91633" lon="6.50361">
        <ele>2078.1999511719</ele>
        <time>2019-02-06T12:48:23.000Z</time>
      </trkpt>
      <trkpt lat="45.91633" lon="6.50362">
        <ele>2078.3999023438</ele>
        <time>2019-02-06T12:48:39.000Z</time>
      </trkpt>
      <trkpt lat="45.91633" lon="6.50362">
        <ele>2078.3999023438</ele>
        <time>2019-02-06T12:48:49.000Z</time>
      </trkpt>
      <trkpt lat="45.91633" lon="6.50362">
        <ele>2076.1999511719</ele>
        <time>2019-02-06T12:48:56.000Z</time>
      </trkpt>
      <trkpt lat="45.91633" lon="6.50362">
        <ele>2075</ele>
        <time>2019-02-06T12:48:58.000Z</time>
      </trkpt>
      <trkpt lat="45.91633" lon="6.50362">
        <ele>2074.8000488281</ele>
        <time>2019-02-06T12:48:59.000Z</time>
      </trkpt>
      <trkpt lat="45.91633" lon="6.50362">
        <ele>2076.3999023438</ele>
        <time>2019-02-06T12:49:01.000Z</time>
      </trkpt>
      <trkpt lat="45.91633" lon="6.50362">
        <ele>2077.3999023438</ele>
        <time>2019-02-06T12:49:03.000Z</time>
      </trkpt>
      <trkpt lat="45.91632" lon="6.50362">
        <ele>2079</ele>
        <time>2019-02-06T12:49:11.000Z</time>
      </trkpt>
      <trkpt lat="45.91632" lon="6.50362">
        <ele>2080</ele>
        <time>2019-02-06T12:49:12.000Z</time>
      </trkpt>
      <trkpt lat="45.91631" lon="6.50363">
        <ele>2081</ele>
        <time>2019-02-06T12:49:15.000Z</time>
      </trkpt>
      <trkpt lat="45.91631" lon="6.50363">
        <ele>2079.6000976562</ele>
        <time>2019-02-06T12:49:17.000Z</time>
      </trkpt>
      <trkpt lat="45.91631" lon="6.50364">
        <ele>2079.1999511719</ele>
        <time>2019-02-06T12:49:18.000Z</time>
      </trkpt>
      <trkpt lat="45.91631" lon="6.50364">
        <ele>2078.6000976562</ele>
        <time>2019-02-06T12:49:20.000Z</time>
      </trkpt>
      <trkpt lat="45.91631" lon="6.50364">
        <ele>2078.1999511719</ele>
        <time>2019-02-06T12:49:32.000Z</time>
      </trkpt>
      <trkpt lat="45.91631" lon="6.50364">
        <ele>2078.3999023438</ele>
        <time>2019-02-06T12:49:36.000Z</time>
      </trkpt>
      <trkpt lat="45.91631" lon="6.50364">
        <ele>2078.6000976562</ele>
        <time>2019-02-06T12:49:42.000Z</time>
      </trkpt>
      <trkpt lat="45.91631" lon="6.50364">
        <ele>2078.3999023438</ele>
        <time>2019-02-06T12:49:55.000Z</time>
      </trkpt>
      <trkpt lat="45.9163" lon="6.50364">
        <ele>2078.3999023438</ele>
        <time>2019-02-06T12:50:08.000Z</time>
      </trkpt>
      <trkpt lat="45.9163" lon="6.50364">
        <ele>2078.6000976562</ele>
        <time>2019-02-06T12:50:19.000Z</time>
      </trkpt>
      <trkpt lat="45.9163" lon="6.50364">
        <ele>2078.8000488281</ele>
        <time>2019-02-06T12:50:31.000Z</time>
      </trkpt>
      <trkpt lat="45.9163" lon="6.50364">
        <ele>2078.8000488281</ele>
        <time>2019-02-06T12:50:44.000Z</time>
      </trkpt>
      <trkpt lat="45.9163" lon="6.50364">
        <ele>2078.3999023438</ele>
        <time>2019-02-06T12:50:50.000Z</time>
      </trkpt>
      <trkpt lat="45.9163" lon="6.50364">
        <ele>2079.6000976562</ele>
        <time>2019-02-06T12:50:52.000Z</time>
      </trkpt>
      <trkpt lat="45.9163" lon="6.50364">
        <ele>2078.8000488281</ele>
        <time>2019-02-06T12:51:01.000Z</time>
      </trkpt>
      <trkpt lat="45.9163" lon="6.50364">
        <ele>2078.6000976562</ele>
        <time>2019-02-06T12:51:09.000Z</time>
      </trkpt>
      <trkpt lat="45.9163" lon="6.50364">
        <ele>2078.6000976562</ele>
        <time>2019-02-06T12:51:12.000Z</time>
      </trkpt>
      <trkpt lat="45.9163" lon="6.50364">
        <ele>2078.3999023438</ele>
        <time>2019-02-06T12:51:21.000Z</time>
      </trkpt>
      <trkpt lat="45.9163" lon="6.50363">
        <ele>2078.8000488281</ele>
        <time>2019-02-06T12:51:35.000Z</time>
      </trkpt>
      <trkpt lat="45.9163" lon="6.50363">
        <ele>2078.8000488281</ele>
        <time>2019-02-06T12:51:55.000Z</time>
      </trkpt>
      <trkpt lat="45.91628" lon="6.50363">
        <ele>2078.8000488281</ele>
        <time>2019-02-06T12:52:10.000Z</time>
      </trkpt>
      <trkpt lat="45.91628" lon="6.50363">
        <ele>2078.6000976562</ele>
        <time>2019-02-06T12:52:22.000Z</time>
      </trkpt>
      <trkpt lat="45.91628" lon="6.50363">
        <ele>2078.6000976562</ele>
        <time>2019-02-06T12:52:41.000Z</time>
      </trkpt>
      <trkpt lat="45.91628" lon="6.50363">
        <ele>2077.3999023438</ele>
        <time>2019-02-06T12:52:45.000Z</time>
      </trkpt>
      <trkpt lat="45.91628" lon="6.50363">
        <ele>2078</ele>
        <time>2019-02-06T12:52:54.000Z</time>
      </trkpt>
      <trkpt lat="45.91628" lon="6.50363">
        <ele>2078.8000488281</ele>
        <time>2019-02-06T12:52:59.000Z</time>
      </trkpt>
      <trkpt lat="45.91628" lon="6.50363">
        <ele>2079.8000488281</ele>
        <time>2019-02-06T12:53:02.000Z</time>
      </trkpt>
      <trkpt lat="45.91628" lon="6.50363">
        <ele>2079</ele>
        <time>2019-02-06T12:53:09.000Z</time>
      </trkpt>
      <trkpt lat="45.91628" lon="6.50363">
        <ele>2078.6000976562</ele>
        <time>2019-02-06T12:53:10.000Z</time>
      </trkpt>
      <trkpt lat="45.91628" lon="6.50363">
        <ele>2078.8000488281</ele>
        <time>2019-02-06T12:53:24.000Z</time>
      </trkpt>
      <trkpt lat="45.91628" lon="6.50362">
        <ele>2079</ele>
        <time>2019-02-06T12:53:35.000Z</time>
      </trkpt>
      <trkpt lat="45.91628" lon="6.50362">
        <ele>2079</ele>
        <time>2019-02-06T12:53:46.000Z</time>
      </trkpt>
      <trkpt lat="45.91628" lon="6.50362">
        <ele>2078.8000488281</ele>
        <time>2019-02-06T12:54:00.000Z</time>
      </trkpt>
      <trkpt lat="45.91629" lon="6.50361">
        <ele>2078.8000488281</ele>
        <time>2019-02-06T12:54:10.000Z</time>
      </trkpt>
      <trkpt lat="45.9163" lon="6.5036">
        <ele>2079</ele>
        <time>2019-02-06T12:54:18.000Z</time>
      </trkpt>
      <trkpt lat="45.91627" lon="6.50373">
        <ele>2079.6000976562</ele>
        <time>2019-02-06T12:54:26.000Z</time>
      </trkpt>
      <trkpt lat="45.91627" lon="6.50375">
        <ele>2079.8000488281</ele>
        <time>2019-02-06T12:54:28.000Z</time>
      </trkpt>
      <trkpt lat="45.91626" lon="6.50377">
        <ele>2080.8000488281</ele>
        <time>2019-02-06T12:54:31.000Z</time>
      </trkpt>
      <trkpt lat="45.91625" lon="6.50381">
        <ele>2081.3999023438</ele>
        <time>2019-02-06T12:54:34.000Z</time>
      </trkpt>
      <trkpt lat="45.91624" lon="6.50383">
        <ele>2082</ele>
        <time>2019-02-06T12:54:36.000Z</time>
      </trkpt>
      <trkpt lat="45.91623" lon="6.50387">
        <ele>2082.8000488281</ele>
        <time>2019-02-06T12:54:41.000Z</time>
      </trkpt>
      <trkpt lat="45.91622" lon="6.50388">
        <ele>2083</ele>
        <time>2019-02-06T12:54:42.000Z</time>
      </trkpt>
      <trkpt lat="45.91621" lon="6.50396">
        <ele>2084.1999511719</ele>
        <time>2019-02-06T12:54:49.000Z</time>
      </trkpt>
      <trkpt lat="45.91622" lon="6.50399">
        <ele>2085.1999511719</ele>
        <time>2019-02-06T12:54:53.000Z</time>
      </trkpt>
      <trkpt lat="45.91623" lon="6.504">
        <ele>2085.3999023438</ele>
        <time>2019-02-06T12:54:54.000Z</time>
      </trkpt>
      <trkpt lat="45.91624" lon="6.50401">
        <ele>2086.3999023438</ele>
        <time>2019-02-06T12:54:59.000Z</time>
      </trkpt>
      <trkpt lat="45.91626" lon="6.50403">
        <ele>2086.8000488281</ele>
        <time>2019-02-06T12:55:01.000Z</time>
      </trkpt>
      <trkpt lat="45.91627" lon="6.50403">
        <ele>2087.3999023438</ele>
        <time>2019-02-06T12:55:03.000Z</time>
      </trkpt>
      <trkpt lat="45.9163" lon="6.50408">
        <ele>2088.3999023438</ele>
        <time>2019-02-06T12:55:10.000Z</time>
      </trkpt>
      <trkpt lat="45.91631" lon="6.5041">
        <ele>2089.3999023438</ele>
        <time>2019-02-06T12:55:15.000Z</time>
      </trkpt>
      <trkpt lat="45.91632" lon="6.50414">
        <ele>2089.8000488281</ele>
        <time>2019-02-06T12:55:18.000Z</time>
      </trkpt>
      <trkpt lat="45.91633" lon="6.50417">
        <ele>2090.3999023438</ele>
        <time>2019-02-06T12:55:21.000Z</time>
      </trkpt>
      <trkpt lat="45.91633" lon="6.50422">
        <ele>2090.8000488281</ele>
        <time>2019-02-06T12:55:25.000Z</time>
      </trkpt>
      <trkpt lat="45.91632" lon="6.50426">
        <ele>2091.6000976562</ele>
        <time>2019-02-06T12:55:29.000Z</time>
      </trkpt>
      <trkpt lat="45.91631" lon="6.50429">
        <ele>2092.3999023438</ele>
        <time>2019-02-06T12:55:33.000Z</time>
      </trkpt>
      <trkpt lat="45.91631" lon="6.5043">
        <ele>2092.6000976562</ele>
        <time>2019-02-06T12:55:34.000Z</time>
      </trkpt>
      <trkpt lat="45.91629" lon="6.50435">
        <ele>2093.6000976562</ele>
        <time>2019-02-06T12:55:40.000Z</time>
      </trkpt>
      <trkpt lat="45.91629" lon="6.50437">
        <ele>2094</ele>
        <time>2019-02-06T12:55:42.000Z</time>
      </trkpt>
      <trkpt lat="45.91629" lon="6.50442">
        <ele>2094.8000488281</ele>
        <time>2019-02-06T12:55:48.000Z</time>
      </trkpt>
      <trkpt lat="45.9163" lon="6.50444">
        <ele>2095.3999023438</ele>
        <time>2019-02-06T12:55:51.000Z</time>
      </trkpt>
      <trkpt lat="45.9163" lon="6.50447">
        <ele>2096</ele>
        <time>2019-02-06T12:55:54.000Z</time>
      </trkpt>
      <trkpt lat="45.91629" lon="6.50452">
        <ele>2097</ele>
        <time>2019-02-06T12:55:59.000Z</time>
      </trkpt>
      <trkpt lat="45.91629" lon="6.50453">
        <ele>2097.1999511719</ele>
        <time>2019-02-06T12:56:01.000Z</time>
      </trkpt>
      <trkpt lat="45.91629" lon="6.50458">
        <ele>2097.8000488281</ele>
        <time>2019-02-06T12:56:07.000Z</time>
      </trkpt>
      <trkpt lat="45.91628" lon="6.5046">
        <ele>2098.1999511719</ele>
        <time>2019-02-06T12:56:09.000Z</time>
      </trkpt>
      <trkpt lat="45.91627" lon="6.50465">
        <ele>2099</ele>
        <time>2019-02-06T12:56:14.000Z</time>
      </trkpt>
      <trkpt lat="45.91627" lon="6.50466">
        <ele>2099.1999511719</ele>
        <time>2019-02-06T12:56:15.000Z</time>
      </trkpt>
      <trkpt lat="45.91624" lon="6.50471">
        <ele>2100.3999023438</ele>
        <time>2019-02-06T12:56:21.000Z</time>
      </trkpt>
      <trkpt lat="45.91625" lon="6.50473">
        <ele>2101</ele>
        <time>2019-02-06T12:56:23.000Z</time>
      </trkpt>
      <trkpt lat="45.91626" lon="6.50475">
        <ele>2101.6000976562</ele>
        <time>2019-02-06T12:56:28.000Z</time>
      </trkpt>
      <trkpt lat="45.91626" lon="6.50476">
        <ele>2101.8000488281</ele>
        <time>2019-02-06T12:56:30.000Z</time>
      </trkpt>
      <trkpt lat="45.91626" lon="6.5048">
        <ele>2102.8000488281</ele>
        <time>2019-02-06T12:56:35.000Z</time>
      </trkpt>
      <trkpt lat="45.91626" lon="6.50482">
        <ele>2103</ele>
        <time>2019-02-06T12:56:37.000Z</time>
      </trkpt>
      <trkpt lat="45.91625" lon="6.50486">
        <ele>2103.8000488281</ele>
        <time>2019-02-06T12:56:42.000Z</time>
      </trkpt>
      <trkpt lat="45.91625" lon="6.50488">
        <ele>2104.1999511719</ele>
        <time>2019-02-06T12:56:44.000Z</time>
      </trkpt>
      <trkpt lat="45.91626" lon="6.50489">
        <ele>2105</ele>
        <time>2019-02-06T12:56:47.000Z</time>
      </trkpt>
      <trkpt lat="45.91625" lon="6.50493">
        <ele>2105.6000976562</ele>
        <time>2019-02-06T12:56:52.000Z</time>
      </trkpt>
      <trkpt lat="45.91624" lon="6.50496">
        <ele>2106.1999511719</ele>
        <time>2019-02-06T12:56:55.000Z</time>
      </trkpt>
      <trkpt lat="45.91623" lon="6.50498">
        <ele>2107</ele>
        <time>2019-02-06T12:56:59.000Z</time>
      </trkpt>
      <trkpt lat="45.91622" lon="6.50498">
        <ele>2107.1999511719</ele>
        <time>2019-02-06T12:57:00.000Z</time>
      </trkpt>
      <trkpt lat="45.91621" lon="6.50503">
        <ele>2108.1999511719</ele>
        <time>2019-02-06T12:57:08.000Z</time>
      </trkpt>
      <trkpt lat="45.9162" lon="6.50503">
        <ele>2108.3999023438</ele>
        <time>2019-02-06T12:57:10.000Z</time>
      </trkpt>
      <trkpt lat="45.91619" lon="6.50506">
        <ele>2109.6000976562</ele>
        <time>2019-02-06T12:57:15.000Z</time>
      </trkpt>
      <trkpt lat="45.91618" lon="6.50507">
        <ele>2109.8000488281</ele>
        <time>2019-02-06T12:57:16.000Z</time>
      </trkpt>
      <trkpt lat="45.91614" lon="6.50508">
        <ele>2110.6000976562</ele>
        <time>2019-02-06T12:57:24.000Z</time>
      </trkpt>
      <trkpt lat="45.91614" lon="6.50508">
        <ele>2110.6000976562</ele>
        <time>2019-02-06T12:57:25.000Z</time>
      </trkpt>
      <trkpt lat="45.91611" lon="6.50512">
        <ele>2111.3999023438</ele>
        <time>2019-02-06T12:57:32.000Z</time>
      </trkpt>
      <trkpt lat="45.91611" lon="6.50514">
        <ele>2111.8000488281</ele>
        <time>2019-02-06T12:57:34.000Z</time>
      </trkpt>
      <trkpt lat="45.9161" lon="6.50514">
        <ele>2112.3999023438</ele>
        <time>2019-02-06T12:57:35.000Z</time>
      </trkpt>
      <trkpt lat="45.91609" lon="6.50517">
        <ele>2112.8000488281</ele>
        <time>2019-02-06T12:57:40.000Z</time>
      </trkpt>
      <trkpt lat="45.91609" lon="6.50517">
        <ele>2112.8000488281</ele>
        <time>2019-02-06T12:57:41.000Z</time>
      </trkpt>
      <trkpt lat="45.91605" lon="6.50518">
        <ele>2114</ele>
        <time>2019-02-06T12:57:47.000Z</time>
      </trkpt>
      <trkpt lat="45.91604" lon="6.50518">
        <ele>2115.1999511719</ele>
        <time>2019-02-06T12:57:50.000Z</time>
      </trkpt>
      <trkpt lat="45.91603" lon="6.50518">
        <ele>2115.3999023438</ele>
        <time>2019-02-06T12:57:53.000Z</time>
      </trkpt>
      <trkpt lat="45.916" lon="6.50519">
        <ele>2116.6000976562</ele>
        <time>2019-02-06T12:57:59.000Z</time>
      </trkpt>
      <trkpt lat="45.91601" lon="6.5052">
        <ele>2117</ele>
        <time>2019-02-06T12:58:02.000Z</time>
      </trkpt>
      <trkpt lat="45.91599" lon="6.50519">
        <ele>2117.8000488281</ele>
        <time>2019-02-06T12:58:08.000Z</time>
      </trkpt>
      <trkpt lat="45.91599" lon="6.5052">
        <ele>2118</ele>
        <time>2019-02-06T12:58:09.000Z</time>
      </trkpt>
      <trkpt lat="45.91598" lon="6.5052">
        <ele>2118.8000488281</ele>
        <time>2019-02-06T12:58:13.000Z</time>
      </trkpt>
      <trkpt lat="45.91597" lon="6.5052">
        <ele>2119.8000488281</ele>
        <time>2019-02-06T12:58:17.000Z</time>
      </trkpt>
      <trkpt lat="45.91595" lon="6.5052">
        <ele>2120.8000488281</ele>
        <time>2019-02-06T12:58:21.000Z</time>
      </trkpt>
      <trkpt lat="45.91594" lon="6.5052">
        <ele>2121.1999511719</ele>
        <time>2019-02-06T12:58:24.000Z</time>
      </trkpt>
      <trkpt lat="45.91593" lon="6.5052">
        <ele>2122.1999511719</ele>
        <time>2019-02-06T12:58:28.000Z</time>
      </trkpt>
      <trkpt lat="45.91593" lon="6.5052">
        <ele>2122.6000976562</ele>
        <time>2019-02-06T12:58:30.000Z</time>
      </trkpt>
      <trkpt lat="45.91591" lon="6.50524">
        <ele>2123.1999511719</ele>
        <time>2019-02-06T12:58:38.000Z</time>
      </trkpt>
      <trkpt lat="45.9159" lon="6.50525">
        <ele>2124.1999511719</ele>
        <time>2019-02-06T12:58:40.000Z</time>
      </trkpt>
      <trkpt lat="45.9159" lon="6.50527">
        <ele>2124.8000488281</ele>
        <time>2019-02-06T12:58:45.000Z</time>
      </trkpt>
      <trkpt lat="45.9159" lon="6.50529">
        <ele>2125.6000976562</ele>
        <time>2019-02-06T12:58:49.000Z</time>
      </trkpt>
      <trkpt lat="45.9159" lon="6.5053">
        <ele>2126.1999511719</ele>
        <time>2019-02-06T12:58:51.000Z</time>
      </trkpt>
      <trkpt lat="45.9159" lon="6.50532">
        <ele>2126.6000976562</ele>
        <time>2019-02-06T12:58:53.000Z</time>
      </trkpt>
      <trkpt lat="45.91587" lon="6.50535">
        <ele>2127.1999511719</ele>
        <time>2019-02-06T12:58:58.000Z</time>
      </trkpt>
      <trkpt lat="45.91587" lon="6.50535">
        <ele>2127.6000976562</ele>
        <time>2019-02-06T12:59:00.000Z</time>
      </trkpt>
      <trkpt lat="45.91586" lon="6.50536">
        <ele>2128.6000976562</ele>
        <time>2019-02-06T12:59:05.000Z</time>
      </trkpt>
      <trkpt lat="45.91585" lon="6.50537">
        <ele>2128.8000488281</ele>
        <time>2019-02-06T12:59:07.000Z</time>
      </trkpt>
      <trkpt lat="45.91581" lon="6.50541">
        <ele>2129.8000488281</ele>
        <time>2019-02-06T12:59:12.000Z</time>
      </trkpt>
      <trkpt lat="45.9158" lon="6.50542">
        <ele>2130.1999511719</ele>
        <time>2019-02-06T12:59:14.000Z</time>
      </trkpt>
      <trkpt lat="45.91578" lon="6.50542">
        <ele>2130.8000488281</ele>
        <time>2019-02-06T12:59:17.000Z</time>
      </trkpt>
      <trkpt lat="45.91576" lon="6.50543">
        <ele>2132</ele>
        <time>2019-02-06T12:59:23.000Z</time>
      </trkpt>
      <trkpt lat="45.91573" lon="6.50547">
        <ele>2133</ele>
        <time>2019-02-06T12:59:30.000Z</time>
      </trkpt>
      <trkpt lat="45.91573" lon="6.50547">
        <ele>2133.1999511719</ele>
        <time>2019-02-06T12:59:31.000Z</time>
      </trkpt>
      <trkpt lat="45.91572" lon="6.5055">
        <ele>2134.1999511719</ele>
        <time>2019-02-06T12:59:35.000Z</time>
      </trkpt>
      <trkpt lat="45.91571" lon="6.50554">
        <ele>2135</ele>
        <time>2019-02-06T12:59:41.000Z</time>
      </trkpt>
      <trkpt lat="45.91571" lon="6.50556">
        <ele>2135.1999511719</ele>
        <time>2019-02-06T12:59:43.000Z</time>
      </trkpt>
      <trkpt lat="45.91568" lon="6.50558">
        <ele>2136</ele>
        <time>2019-02-06T12:59:49.000Z</time>
      </trkpt>
      <trkpt lat="45.91567" lon="6.50559">
        <ele>2136.1999511719</ele>
        <time>2019-02-06T12:59:51.000Z</time>
      </trkpt>
      <trkpt lat="45.91565" lon="6.50562">
        <ele>2136.8000488281</ele>
        <time>2019-02-06T12:59:55.000Z</time>
      </trkpt>
      <trkpt lat="45.91564" lon="6.50563">
        <ele>2137.3999023438</ele>
        <time>2019-02-06T12:59:57.000Z</time>
      </trkpt>
      <trkpt lat="45.91562" lon="6.50566">
        <ele>2138.3999023438</ele>
        <time>2019-02-06T13:00:03.000Z</time>
      </trkpt>
      <trkpt lat="45.91562" lon="6.50567">
        <ele>2138.6000976562</ele>
        <time>2019-02-06T13:00:05.000Z</time>
      </trkpt>
      <trkpt lat="45.91561" lon="6.50567">
        <ele>2139.3999023438</ele>
        <time>2019-02-06T13:00:10.000Z</time>
      </trkpt>
      <trkpt lat="45.91559" lon="6.50569">
        <ele>2140</ele>
        <time>2019-02-06T13:00:14.000Z</time>
      </trkpt>
      <trkpt lat="45.91558" lon="6.50569">
        <ele>2140.3999023438</ele>
        <time>2019-02-06T13:00:16.000Z</time>
      </trkpt>
      <trkpt lat="45.91555" lon="6.50573">
        <ele>2141</ele>
        <time>2019-02-06T13:00:23.000Z</time>
      </trkpt>
      <trkpt lat="45.91554" lon="6.50575">
        <ele>2141.6000976562</ele>
        <time>2019-02-06T13:00:27.000Z</time>
      </trkpt>
      <trkpt lat="45.91552" lon="6.50579">
        <ele>2142.8000488281</ele>
        <time>2019-02-06T13:00:33.000Z</time>
      </trkpt>
      <trkpt lat="45.9155" lon="6.50586">
        <ele>2144</ele>
        <time>2019-02-06T13:00:41.000Z</time>
      </trkpt>
      <trkpt lat="45.91548" lon="6.50589">
        <ele>2144.3999023438</ele>
        <time>2019-02-06T13:00:44.000Z</time>
      </trkpt>
      <trkpt lat="45.91544" lon="6.50593">
        <ele>2144.8000488281</ele>
        <time>2019-02-06T13:00:49.000Z</time>
      </trkpt>
      <trkpt lat="45.91543" lon="6.50595">
        <ele>2145</ele>
        <time>2019-02-06T13:00:50.000Z</time>
      </trkpt>
      <trkpt lat="45.91541" lon="6.50597">
        <ele>2146</ele>
        <time>2019-02-06T13:00:55.000Z</time>
      </trkpt>
      <trkpt lat="45.91541" lon="6.50598">
        <ele>2146.3999023438</ele>
        <time>2019-02-06T13:00:56.000Z</time>
      </trkpt>
      <trkpt lat="45.91541" lon="6.50601">
        <ele>2147.1999511719</ele>
        <time>2019-02-06T13:01:00.000Z</time>
      </trkpt>
      <trkpt lat="45.9154" lon="6.50603">
        <ele>2147.8000488281</ele>
        <time>2019-02-06T13:01:03.000Z</time>
      </trkpt>
      <trkpt lat="45.91539" lon="6.50605">
        <ele>2148.1999511719</ele>
        <time>2019-02-06T13:01:06.000Z</time>
      </trkpt>
      <trkpt lat="45.91537" lon="6.50606">
        <ele>2149</ele>
        <time>2019-02-06T13:01:11.000Z</time>
      </trkpt>
      <trkpt lat="45.91536" lon="6.50608">
        <ele>2149.8000488281</ele>
        <time>2019-02-06T13:01:13.000Z</time>
      </trkpt>
      <trkpt lat="45.91536" lon="6.50612">
        <ele>2150.8000488281</ele>
        <time>2019-02-06T13:01:18.000Z</time>
      </trkpt>
      <trkpt lat="45.91536" lon="6.50612">
        <ele>2150.8000488281</ele>
        <time>2019-02-06T13:01:19.000Z</time>
      </trkpt>
      <trkpt lat="45.91534" lon="6.50616">
        <ele>2151.8000488281</ele>
        <time>2019-02-06T13:01:24.000Z</time>
      </trkpt>
      <trkpt lat="45.91532" lon="6.50618">
        <ele>2152.6000976562</ele>
        <time>2019-02-06T13:01:27.000Z</time>
      </trkpt>
      <trkpt lat="45.91532" lon="6.50619">
        <ele>2152.8000488281</ele>
        <time>2019-02-06T13:01:29.000Z</time>
      </trkpt>
      <trkpt lat="45.91529" lon="6.50624">
        <ele>2153.6000976562</ele>
        <time>2019-02-06T13:01:36.000Z</time>
      </trkpt>
      <trkpt lat="45.91529" lon="6.50624">
        <ele>2154</ele>
        <time>2019-02-06T13:01:39.000Z</time>
      </trkpt>
      <trkpt lat="45.91528" lon="6.50626">
        <ele>2155</ele>
        <time>2019-02-06T13:01:44.000Z</time>
      </trkpt>
      <trkpt lat="45.91527" lon="6.50627">
        <ele>2155.1999511719</ele>
        <time>2019-02-06T13:01:45.000Z</time>
      </trkpt>
      <trkpt lat="45.91524" lon="6.5063">
        <ele>2156</ele>
        <time>2019-02-06T13:01:51.000Z</time>
      </trkpt>
      <trkpt lat="45.91522" lon="6.50631">
        <ele>2156.6000976562</ele>
        <time>2019-02-06T13:01:54.000Z</time>
      </trkpt>
      <trkpt lat="45.91521" lon="6.50633">
        <ele>2157.3999023438</ele>
        <time>2019-02-06T13:01:57.000Z</time>
      </trkpt>
      <trkpt lat="45.9152" lon="6.50638">
        <ele>2158.3999023438</ele>
        <time>2019-02-06T13:02:02.000Z</time>
      </trkpt>
      <trkpt lat="45.9152" lon="6.50639">
        <ele>2158.8000488281</ele>
        <time>2019-02-06T13:02:04.000Z</time>
      </trkpt>
      <trkpt lat="45.91521" lon="6.5064">
        <ele>2159.6000976562</ele>
        <time>2019-02-06T13:02:08.000Z</time>
      </trkpt>
      <trkpt lat="45.9152" lon="6.50645">
        <ele>2160.6000976562</ele>
        <time>2019-02-06T13:02:13.000Z</time>
      </trkpt>
      <trkpt lat="45.9152" lon="6.50646">
        <ele>2160.8000488281</ele>
        <time>2019-02-06T13:02:14.000Z</time>
      </trkpt>
      <trkpt lat="45.91519" lon="6.50653">
        <ele>2161.8000488281</ele>
        <time>2019-02-06T13:02:21.000Z</time>
      </trkpt>
      <trkpt lat="45.91518" lon="6.50659">
        <ele>2162.6000976562</ele>
        <time>2019-02-06T13:02:27.000Z</time>
      </trkpt>
      <trkpt lat="45.91518" lon="6.5066">
        <ele>2162.8000488281</ele>
        <time>2019-02-06T13:02:28.000Z</time>
      </trkpt>
      <trkpt lat="45.91517" lon="6.50662">
        <ele>2164</ele>
        <time>2019-02-06T13:02:32.000Z</time>
      </trkpt>
      <trkpt lat="45.91518" lon="6.50664">
        <ele>2164</ele>
        <time>2019-02-06T13:02:34.000Z</time>
      </trkpt>
      <trkpt lat="45.9152" lon="6.50669">
        <ele>2165</ele>
        <time>2019-02-06T13:02:41.000Z</time>
      </trkpt>
      <trkpt lat="45.9152" lon="6.5067">
        <ele>2166</ele>
        <time>2019-02-06T13:02:46.000Z</time>
      </trkpt>
      <trkpt lat="45.9152" lon="6.50671">
        <ele>2166.6000976562</ele>
        <time>2019-02-06T13:02:49.000Z</time>
      </trkpt>
      <trkpt lat="45.9152" lon="6.50673">
        <ele>2167.1999511719</ele>
        <time>2019-02-06T13:02:52.000Z</time>
      </trkpt>
      <trkpt lat="45.91521" lon="6.50677">
        <ele>2168.3999023438</ele>
        <time>2019-02-06T13:02:56.000Z</time>
      </trkpt>
      <trkpt lat="45.91522" lon="6.50678">
        <ele>2168.6000976562</ele>
        <time>2019-02-06T13:02:57.000Z</time>
      </trkpt>
      <trkpt lat="45.91525" lon="6.50686">
        <ele>2169.6000976562</ele>
        <time>2019-02-06T13:03:07.000Z</time>
      </trkpt>
      <trkpt lat="45.91525" lon="6.50687">
        <ele>2170.6000976562</ele>
        <time>2019-02-06T13:03:11.000Z</time>
      </trkpt>
      <trkpt lat="45.91527" lon="6.5069">
        <ele>2171.6000976562</ele>
        <time>2019-02-06T13:03:16.000Z</time>
      </trkpt>
      <trkpt lat="45.91527" lon="6.50693">
        <ele>2171.6000976562</ele>
        <time>2019-02-06T13:03:18.000Z</time>
      </trkpt>
      <trkpt lat="45.91526" lon="6.50694">
        <ele>2172.1999511719</ele>
        <time>2019-02-06T13:03:22.000Z</time>
      </trkpt>
      <trkpt lat="45.91524" lon="6.50695">
        <ele>2173</ele>
        <time>2019-02-06T13:03:24.000Z</time>
      </trkpt>
      <trkpt lat="45.91521" lon="6.50697">
        <ele>2174</ele>
        <time>2019-02-06T13:03:28.000Z</time>
      </trkpt>
      <trkpt lat="45.91521" lon="6.50697">
        <ele>2174.1999511719</ele>
        <time>2019-02-06T13:03:30.000Z</time>
      </trkpt>
      <trkpt lat="45.91517" lon="6.50701">
        <ele>2175.3999023438</ele>
        <time>2019-02-06T13:03:39.000Z</time>
      </trkpt>
      <trkpt lat="45.91515" lon="6.50702">
        <ele>2175.8000488281</ele>
        <time>2019-02-06T13:03:50.000Z</time>
      </trkpt>
      <trkpt lat="45.91515" lon="6.50702">
        <ele>2175.3999023438</ele>
        <time>2019-02-06T13:04:07.000Z</time>
      </trkpt>
      <trkpt lat="45.91515" lon="6.50702">
        <ele>2176.3999023438</ele>
        <time>2019-02-06T13:04:24.000Z</time>
      </trkpt>
      <trkpt lat="45.91515" lon="6.50702">
        <ele>2176.3999023438</ele>
        <time>2019-02-06T13:04:25.000Z</time>
      </trkpt>
      <trkpt lat="45.91515" lon="6.50702">
        <ele>2176</ele>
        <time>2019-02-06T13:04:37.000Z</time>
      </trkpt>
      <trkpt lat="45.91515" lon="6.50703">
        <ele>2175.6000976562</ele>
        <time>2019-02-06T13:04:48.000Z</time>
      </trkpt>
      <trkpt lat="45.91517" lon="6.50707">
        <ele>2176.3999023438</ele>
        <time>2019-02-06T13:04:54.000Z</time>
      </trkpt>
      <trkpt lat="45.9152" lon="6.50708">
        <ele>2177.6000976562</ele>
        <time>2019-02-06T13:04:57.000Z</time>
      </trkpt>
      <trkpt lat="45.9152" lon="6.5071">
        <ele>2178</ele>
        <time>2019-02-06T13:04:59.000Z</time>
      </trkpt>
      <trkpt lat="45.91521" lon="6.50711">
        <ele>2178.8000488281</ele>
        <time>2019-02-06T13:05:02.000Z</time>
      </trkpt>
      <trkpt lat="45.91522" lon="6.50712">
        <ele>2179</ele>
        <time>2019-02-06T13:05:03.000Z</time>
      </trkpt>
      <trkpt lat="45.91525" lon="6.50715">
        <ele>2179.8000488281</ele>
        <time>2019-02-06T13:05:07.000Z</time>
      </trkpt>
      <trkpt lat="45.91525" lon="6.50715">
        <ele>2180.1999511719</ele>
        <time>2019-02-06T13:05:08.000Z</time>
      </trkpt>
      <trkpt lat="45.91525" lon="6.50718">
        <ele>2181.1999511719</ele>
        <time>2019-02-06T13:05:12.000Z</time>
      </trkpt>
      <trkpt lat="45.91527" lon="6.5072">
        <ele>2182</ele>
        <time>2019-02-06T13:05:15.000Z</time>
      </trkpt>
      <trkpt lat="45.91528" lon="6.50721">
        <ele>2182.1999511719</ele>
        <time>2019-02-06T13:05:16.000Z</time>
      </trkpt>
      <trkpt lat="45.91529" lon="6.50725">
        <ele>2183.6000976562</ele>
        <time>2019-02-06T13:05:21.000Z</time>
      </trkpt>
      <trkpt lat="45.91529" lon="6.50726">
        <ele>2184.3999023438</ele>
        <time>2019-02-06T13:05:26.000Z</time>
      </trkpt>
      <trkpt lat="45.91528" lon="6.50727">
        <ele>2185</ele>
        <time>2019-02-06T13:05:30.000Z</time>
      </trkpt>
      <trkpt lat="45.91526" lon="6.50729">
        <ele>2186</ele>
        <time>2019-02-06T13:05:34.000Z</time>
      </trkpt>
      <trkpt lat="45.91524" lon="6.50732">
        <ele>2186.1999511719</ele>
        <time>2019-02-06T13:05:40.000Z</time>
      </trkpt>
      <trkpt lat="45.91523" lon="6.50733">
        <ele>2187</ele>
        <time>2019-02-06T13:05:42.000Z</time>
      </trkpt>
      <trkpt lat="45.91523" lon="6.50734">
        <ele>2187.3999023438</ele>
        <time>2019-02-06T13:05:44.000Z</time>
      </trkpt>
      <trkpt lat="45.91521" lon="6.50736">
        <ele>2188.3999023438</ele>
        <time>2019-02-06T13:05:51.000Z</time>
      </trkpt>
      <trkpt lat="45.91521" lon="6.50737">
        <ele>2188.6000976562</ele>
        <time>2019-02-06T13:05:52.000Z</time>
      </trkpt>
      <trkpt lat="45.91522" lon="6.50739">
        <ele>2189.6000976562</ele>
        <time>2019-02-06T13:05:56.000Z</time>
      </trkpt>
      <trkpt lat="45.91523" lon="6.50739">
        <ele>2190.3999023438</ele>
        <time>2019-02-06T13:06:01.000Z</time>
      </trkpt>
      <trkpt lat="45.91524" lon="6.5074">
        <ele>2190.6000976562</ele>
        <time>2019-02-06T13:06:07.000Z</time>
      </trkpt>
      <trkpt lat="45.91524" lon="6.50741">
        <ele>2191.8000488281</ele>
        <time>2019-02-06T13:06:10.000Z</time>
      </trkpt>
      <trkpt lat="45.91525" lon="6.50743">
        <ele>2192.3999023438</ele>
        <time>2019-02-06T13:06:14.000Z</time>
      </trkpt>
      <trkpt lat="45.91527" lon="6.50747">
        <ele>2192.8000488281</ele>
        <time>2019-02-06T13:06:18.000Z</time>
      </trkpt>
      <trkpt lat="45.91528" lon="6.50749">
        <ele>2193.3999023438</ele>
        <time>2019-02-06T13:06:21.000Z</time>
      </trkpt>
      <trkpt lat="45.91528" lon="6.50749">
        <ele>2194</ele>
        <time>2019-02-06T13:06:23.000Z</time>
      </trkpt>
      <trkpt lat="45.9153" lon="6.50752">
        <ele>2194.6000976562</ele>
        <time>2019-02-06T13:06:27.000Z</time>
      </trkpt>
      <trkpt lat="45.9153" lon="6.50753">
        <ele>2195</ele>
        <time>2019-02-06T13:06:28.000Z</time>
      </trkpt>
      <trkpt lat="45.91531" lon="6.50754">
        <ele>2196.1999511719</ele>
        <time>2019-02-06T13:06:31.000Z</time>
      </trkpt>
      <trkpt lat="45.91534" lon="6.50757">
        <ele>2196.3999023438</ele>
        <time>2019-02-06T13:06:34.000Z</time>
      </trkpt>
      <trkpt lat="45.91534" lon="6.50757">
        <ele>2196.3999023438</ele>
        <time>2019-02-06T13:06:39.000Z</time>
      </trkpt>
      <trkpt lat="45.91533" lon="6.50757">
        <ele>2197.8000488281</ele>
        <time>2019-02-06T13:06:43.000Z</time>
      </trkpt>
      <trkpt lat="45.91531" lon="6.50759">
        <ele>2198.8000488281</ele>
        <time>2019-02-06T13:06:46.000Z</time>
      </trkpt>
      <trkpt lat="45.91531" lon="6.50759">
        <ele>2198.6000976562</ele>
        <time>2019-02-06T13:06:47.000Z</time>
      </trkpt>
      <trkpt lat="45.91527" lon="6.50765">
        <ele>2199.6000976562</ele>
        <time>2019-02-06T13:06:56.000Z</time>
      </trkpt>
      <trkpt lat="45.91526" lon="6.50766">
        <ele>2200</ele>
        <time>2019-02-06T13:06:57.000Z</time>
      </trkpt>
      <trkpt lat="45.91526" lon="6.50769">
        <ele>2201</ele>
        <time>2019-02-06T13:07:02.000Z</time>
      </trkpt>
      <trkpt lat="45.91525" lon="6.5077">
        <ele>2201.6000976562</ele>
        <time>2019-02-06T13:07:05.000Z</time>
      </trkpt>
      <trkpt lat="45.91524" lon="6.50771">
        <ele>2202</ele>
        <time>2019-02-06T13:07:07.000Z</time>
      </trkpt>
      <trkpt lat="45.91524" lon="6.50773">
        <ele>2203.1999511719</ele>
        <time>2019-02-06T13:07:11.000Z</time>
      </trkpt>
      <trkpt lat="45.91523" lon="6.50774">
        <ele>2203.8000488281</ele>
        <time>2019-02-06T13:07:14.000Z</time>
      </trkpt>
      <trkpt lat="45.91522" lon="6.50774">
        <ele>2204.1999511719</ele>
        <time>2019-02-06T13:07:17.000Z</time>
      </trkpt>
      <trkpt lat="45.9152" lon="6.50777">
        <ele>2205</ele>
        <time>2019-02-06T13:07:23.000Z</time>
      </trkpt>
      <trkpt lat="45.9152" lon="6.50778">
        <ele>2205.1999511719</ele>
        <time>2019-02-06T13:07:24.000Z</time>
      </trkpt>
      <trkpt lat="45.91519" lon="6.50781">
        <ele>2206.1999511719</ele>
        <time>2019-02-06T13:07:29.000Z</time>
      </trkpt>
      <trkpt lat="45.91518" lon="6.50782">
        <ele>2206.8000488281</ele>
        <time>2019-02-06T13:07:32.000Z</time>
      </trkpt>
      <trkpt lat="45.91516" lon="6.50782">
        <ele>2207.3999023438</ele>
        <time>2019-02-06T13:07:34.000Z</time>
      </trkpt>
      <trkpt lat="45.91515" lon="6.50782">
        <ele>2208.3999023438</ele>
        <time>2019-02-06T13:07:38.000Z</time>
      </trkpt>
      <trkpt lat="45.91515" lon="6.50783">
        <ele>2208.8000488281</ele>
        <time>2019-02-06T13:07:40.000Z</time>
      </trkpt>
      <trkpt lat="45.91512" lon="6.50785">
        <ele>2209.8000488281</ele>
        <time>2019-02-06T13:07:44.000Z</time>
      </trkpt>
      <trkpt lat="45.91514" lon="6.50785">
        <ele>2210.3999023438</ele>
        <time>2019-02-06T13:07:48.000Z</time>
      </trkpt>
      <trkpt lat="45.91516" lon="6.5079">
        <ele>2210.3999023438</ele>
        <time>2019-02-06T13:07:54.000Z</time>
      </trkpt>
      <trkpt lat="45.91516" lon="6.50791">
        <ele>2210.8000488281</ele>
        <time>2019-02-06T13:07:55.000Z</time>
      </trkpt>
      <trkpt lat="45.91517" lon="6.50793">
        <ele>2211.6000976562</ele>
        <time>2019-02-06T13:08:02.000Z</time>
      </trkpt>
      <trkpt lat="45.91517" lon="6.50793">
        <ele>2212</ele>
        <time>2019-02-06T13:08:03.000Z</time>
      </trkpt>
      <trkpt lat="45.91517" lon="6.50794">
        <ele>2212.6000976562</ele>
        <time>2019-02-06T13:08:16.000Z</time>
      </trkpt>
      <trkpt lat="45.91517" lon="6.50795">
        <ele>2213</ele>
        <time>2019-02-06T13:08:21.000Z</time>
      </trkpt>
      <trkpt lat="45.91517" lon="6.50797">
        <ele>2213.1999511719</ele>
        <time>2019-02-06T13:08:23.000Z</time>
      </trkpt>
      <trkpt lat="45.91517" lon="6.50801">
        <ele>2214</ele>
        <time>2019-02-06T13:08:27.000Z</time>
      </trkpt>
      <trkpt lat="45.91517" lon="6.50804">
        <ele>2214.3999023438</ele>
        <time>2019-02-06T13:08:30.000Z</time>
      </trkpt>
      <trkpt lat="45.91517" lon="6.50806">
        <ele>2215.3999023438</ele>
        <time>2019-02-06T13:08:33.000Z</time>
      </trkpt>
      <trkpt lat="45.91517" lon="6.50807">
        <ele>2215.8000488281</ele>
        <time>2019-02-06T13:08:35.000Z</time>
      </trkpt>
      <trkpt lat="45.91517" lon="6.50809">
        <ele>2216.6000976562</ele>
        <time>2019-02-06T13:08:38.000Z</time>
      </trkpt>
      <trkpt lat="45.91517" lon="6.5081">
        <ele>2217.3999023438</ele>
        <time>2019-02-06T13:08:41.000Z</time>
      </trkpt>
      <trkpt lat="45.91517" lon="6.50812">
        <ele>2217.6000976562</ele>
        <time>2019-02-06T13:08:43.000Z</time>
      </trkpt>
      <trkpt lat="45.91516" lon="6.50816">
        <ele>2218.6000976562</ele>
        <time>2019-02-06T13:08:48.000Z</time>
      </trkpt>
      <trkpt lat="45.91516" lon="6.50817">
        <ele>2219.1999511719</ele>
        <time>2019-02-06T13:08:49.000Z</time>
      </trkpt>
      <trkpt lat="45.91514" lon="6.50818">
        <ele>2220.1999511719</ele>
        <time>2019-02-06T13:08:54.000Z</time>
      </trkpt>
      <trkpt lat="45.91513" lon="6.5082">
        <ele>2221.1999511719</ele>
        <time>2019-02-06T13:08:58.000Z</time>
      </trkpt>
      <trkpt lat="45.91512" lon="6.5082">
        <ele>2221.3999023438</ele>
        <time>2019-02-06T13:08:59.000Z</time>
      </trkpt>
      <trkpt lat="45.91512" lon="6.5082">
        <ele>2222</ele>
        <time>2019-02-06T13:09:07.000Z</time>
      </trkpt>
      <trkpt lat="45.9151" lon="6.50821">
        <ele>2222.3999023438</ele>
        <time>2019-02-06T13:09:10.000Z</time>
      </trkpt>
      <trkpt lat="45.91507" lon="6.50824">
        <ele>2223.1999511719</ele>
        <time>2019-02-06T13:09:15.000Z</time>
      </trkpt>
      <trkpt lat="45.91507" lon="6.50824">
        <ele>2223.3999023438</ele>
        <time>2019-02-06T13:09:16.000Z</time>
      </trkpt>
      <trkpt lat="45.91504" lon="6.50826">
        <ele>2224.6000976562</ele>
        <time>2019-02-06T13:09:22.000Z</time>
      </trkpt>
      <trkpt lat="45.91504" lon="6.50826">
        <ele>2224.8000488281</ele>
        <time>2019-02-06T13:09:23.000Z</time>
      </trkpt>
      <trkpt lat="45.91507" lon="6.5083">
        <ele>2225</ele>
        <time>2019-02-06T13:09:32.000Z</time>
      </trkpt>
      <trkpt lat="45.91509" lon="6.50833">
        <ele>2225.8000488281</ele>
        <time>2019-02-06T13:09:35.000Z</time>
      </trkpt>
      <trkpt lat="45.9151" lon="6.50835">
        <ele>2226.8000488281</ele>
        <time>2019-02-06T13:09:39.000Z</time>
      </trkpt>
      <trkpt lat="45.91511" lon="6.50836">
        <ele>2227.3999023438</ele>
        <time>2019-02-06T13:09:41.000Z</time>
      </trkpt>
      <trkpt lat="45.91511" lon="6.50838">
        <ele>2228</ele>
        <time>2019-02-06T13:09:43.000Z</time>
      </trkpt>
      <trkpt lat="45.91512" lon="6.50843">
        <ele>2228.6000976562</ele>
        <time>2019-02-06T13:09:48.000Z</time>
      </trkpt>
      <trkpt lat="45.91513" lon="6.50847">
        <ele>2229.1999511719</ele>
        <time>2019-02-06T13:09:53.000Z</time>
      </trkpt>
      <trkpt lat="45.91513" lon="6.50849">
        <ele>2229.3999023438</ele>
        <time>2019-02-06T13:09:55.000Z</time>
      </trkpt>
      <trkpt lat="45.91513" lon="6.50848">
        <ele>2230.1999511719</ele>
        <time>2019-02-06T13:09:58.000Z</time>
      </trkpt>
      <trkpt lat="45.91512" lon="6.50848">
        <ele>2231.6000976562</ele>
        <time>2019-02-06T13:10:02.000Z</time>
      </trkpt>
      <trkpt lat="45.91511" lon="6.50848">
        <ele>2231.8000488281</ele>
        <time>2019-02-06T13:10:03.000Z</time>
      </trkpt>
      <trkpt lat="45.91511" lon="6.50848">
        <ele>2232.6000976562</ele>
        <time>2019-02-06T13:10:07.000Z</time>
      </trkpt>
      <trkpt lat="45.91511" lon="6.50848">
        <ele>2232.8000488281</ele>
        <time>2019-02-06T13:10:10.000Z</time>
      </trkpt>
      <trkpt lat="45.91508" lon="6.5085">
        <ele>2232.1999511719</ele>
        <time>2019-02-06T13:10:16.000Z</time>
      </trkpt>
      <trkpt lat="45.91507" lon="6.50851">
        <ele>2233.6000976562</ele>
        <time>2019-02-06T13:10:21.000Z</time>
      </trkpt>
      <trkpt lat="45.91506" lon="6.50851">
        <ele>2233.8000488281</ele>
        <time>2019-02-06T13:10:22.000Z</time>
      </trkpt>
      <trkpt lat="45.91505" lon="6.50851">
        <ele>2234</ele>
        <time>2019-02-06T13:10:24.000Z</time>
      </trkpt>
      <trkpt lat="45.91502" lon="6.5085">
        <ele>2234.8000488281</ele>
        <time>2019-02-06T13:10:29.000Z</time>
      </trkpt>
      <trkpt lat="45.91502" lon="6.5085">
        <ele>2235</ele>
        <time>2019-02-06T13:10:30.000Z</time>
      </trkpt>
      <trkpt lat="45.91499" lon="6.50853">
        <ele>2236.1999511719</ele>
        <time>2019-02-06T13:10:35.000Z</time>
      </trkpt>
      <trkpt lat="45.91499" lon="6.50854">
        <ele>2236.6000976562</ele>
        <time>2019-02-06T13:10:37.000Z</time>
      </trkpt>
      <trkpt lat="45.91499" lon="6.50858">
        <ele>2237.3999023438</ele>
        <time>2019-02-06T13:10:42.000Z</time>
      </trkpt>
      <trkpt lat="45.91499" lon="6.50858">
        <ele>2238.3999023438</ele>
        <time>2019-02-06T13:10:46.000Z</time>
      </trkpt>
      <trkpt lat="45.91499" lon="6.50858">
        <ele>2238.3999023438</ele>
        <time>2019-02-06T13:10:47.000Z</time>
      </trkpt>
      <trkpt lat="45.915" lon="6.50866">
        <ele>2239.3999023438</ele>
        <time>2019-02-06T13:10:54.000Z</time>
      </trkpt>
      <trkpt lat="45.91501" lon="6.50869">
        <ele>2240.8000488281</ele>
        <time>2019-02-06T13:10:57.000Z</time>
      </trkpt>
      <trkpt lat="45.91502" lon="6.50874">
        <ele>2241.8000488281</ele>
        <time>2019-02-06T13:11:03.000Z</time>
      </trkpt>
      <trkpt lat="45.91502" lon="6.50874">
        <ele>2241.6000976562</ele>
        <time>2019-02-06T13:11:04.000Z</time>
      </trkpt>
      <trkpt lat="45.91501" lon="6.50876">
        <ele>2242.8000488281</ele>
        <time>2019-02-06T13:11:09.000Z</time>
      </trkpt>
      <trkpt lat="45.915" lon="6.50878">
        <ele>2243.1999511719</ele>
        <time>2019-02-06T13:11:12.000Z</time>
      </trkpt>
      <trkpt lat="45.91499" lon="6.5088">
        <ele>2243.8000488281</ele>
        <time>2019-02-06T13:11:15.000Z</time>
      </trkpt>
      <trkpt lat="45.91496" lon="6.50881">
        <ele>2245</ele>
        <time>2019-02-06T13:11:20.000Z</time>
      </trkpt>
      <trkpt lat="45.91495" lon="6.50882">
        <ele>2244.8000488281</ele>
        <time>2019-02-06T13:11:34.000Z</time>
      </trkpt>
      <trkpt lat="45.91493" lon="6.50884">
        <ele>2246</ele>
        <time>2019-02-06T13:11:40.000Z</time>
      </trkpt>
      <trkpt lat="45.91492" lon="6.50885">
        <ele>2246.1999511719</ele>
        <time>2019-02-06T13:11:42.000Z</time>
      </trkpt>
      <trkpt lat="45.91492" lon="6.50889">
        <ele>2247</ele>
        <time>2019-02-06T13:11:48.000Z</time>
      </trkpt>
      <trkpt lat="45.91492" lon="6.50889">
        <ele>2247.1999511719</ele>
        <time>2019-02-06T13:11:49.000Z</time>
      </trkpt>
      <trkpt lat="45.91493" lon="6.50891">
        <ele>2248.1999511719</ele>
        <time>2019-02-06T13:11:52.000Z</time>
      </trkpt>
      <trkpt lat="45.91495" lon="6.50897">
        <ele>2249</ele>
        <time>2019-02-06T13:11:58.000Z</time>
      </trkpt>
      <trkpt lat="45.91495" lon="6.50897">
        <ele>2249.1999511719</ele>
        <time>2019-02-06T13:12:00.000Z</time>
      </trkpt>
      <trkpt lat="45.91496" lon="6.50902">
        <ele>2250.6000976562</ele>
        <time>2019-02-06T13:12:05.000Z</time>
      </trkpt>
      <trkpt lat="45.91494" lon="6.50903">
        <ele>2251.8000488281</ele>
        <time>2019-02-06T13:12:11.000Z</time>
      </trkpt>
      <trkpt lat="45.91494" lon="6.50903">
        <ele>2252</ele>
        <time>2019-02-06T13:12:12.000Z</time>
      </trkpt>
      <trkpt lat="45.91492" lon="6.50904">
        <ele>2252.8000488281</ele>
        <time>2019-02-06T13:12:15.000Z</time>
      </trkpt>
      <trkpt lat="45.91491" lon="6.50905">
        <ele>2253.8000488281</ele>
        <time>2019-02-06T13:12:19.000Z</time>
      </trkpt>
      <trkpt lat="45.91491" lon="6.50905">
        <ele>2254</ele>
        <time>2019-02-06T13:12:20.000Z</time>
      </trkpt>
      <trkpt lat="45.9149" lon="6.50906">
        <ele>2254.6000976562</ele>
        <time>2019-02-06T13:12:27.000Z</time>
      </trkpt>
      <trkpt lat="45.91489" lon="6.50907">
        <ele>2255</ele>
        <time>2019-02-06T13:12:29.000Z</time>
      </trkpt>
      <trkpt lat="45.91489" lon="6.50908">
        <ele>2255.8000488281</ele>
        <time>2019-02-06T13:12:34.000Z</time>
      </trkpt>
      <trkpt lat="45.91488" lon="6.5091">
        <ele>2256</ele>
        <time>2019-02-06T13:12:36.000Z</time>
      </trkpt>
      <trkpt lat="45.91488" lon="6.5091">
        <ele>2257</ele>
        <time>2019-02-06T13:12:40.000Z</time>
      </trkpt>
      <trkpt lat="45.91488" lon="6.5091">
        <ele>2257.1999511719</ele>
        <time>2019-02-06T13:12:45.000Z</time>
      </trkpt>
      <trkpt lat="45.91487" lon="6.5091">
        <ele>2257.6000976562</ele>
        <time>2019-02-06T13:12:48.000Z</time>
      </trkpt>
      <trkpt lat="45.91486" lon="6.50909">
        <ele>2258.1999511719</ele>
        <time>2019-02-06T13:12:50.000Z</time>
      </trkpt>
      <trkpt lat="45.91486" lon="6.50908">
        <ele>2258.6000976562</ele>
        <time>2019-02-06T13:12:52.000Z</time>
      </trkpt>
      <trkpt lat="45.91486" lon="6.50908">
        <ele>2259.3999023438</ele>
        <time>2019-02-06T13:12:58.000Z</time>
      </trkpt>
      <trkpt lat="45.91486" lon="6.50908">
        <ele>2259.6000976562</ele>
        <time>2019-02-06T13:12:59.000Z</time>
      </trkpt>
      <trkpt lat="45.91484" lon="6.50908">
        <ele>2259.8000488281</ele>
        <time>2019-02-06T13:13:03.000Z</time>
      </trkpt>
      <trkpt lat="45.91483" lon="6.50908">
        <ele>2260</ele>
        <time>2019-02-06T13:13:07.000Z</time>
      </trkpt>
      <trkpt lat="45.91481" lon="6.50908">
        <ele>2260.3999023438</ele>
        <time>2019-02-06T13:13:10.000Z</time>
      </trkpt>
      <trkpt lat="45.9148" lon="6.50908">
        <ele>2260.6000976562</ele>
        <time>2019-02-06T13:13:11.000Z</time>
      </trkpt>
      <trkpt lat="45.9148" lon="6.50908">
        <ele>2261.6000976562</ele>
        <time>2019-02-06T13:13:15.000Z</time>
      </trkpt>
      <trkpt lat="45.91477" lon="6.50907">
        <ele>2262.3999023438</ele>
        <time>2019-02-06T13:13:20.000Z</time>
      </trkpt>
      <trkpt lat="45.91476" lon="6.50907">
        <ele>2262.6000976562</ele>
        <time>2019-02-06T13:13:22.000Z</time>
      </trkpt>
      <trkpt lat="45.91475" lon="6.50906">
        <ele>2263.3999023438</ele>
        <time>2019-02-06T13:13:26.000Z</time>
      </trkpt>
      <trkpt lat="45.91475" lon="6.50906">
        <ele>2263.6000976562</ele>
        <time>2019-02-06T13:13:27.000Z</time>
      </trkpt>
      <trkpt lat="45.91475" lon="6.50906">
        <ele>2264.8000488281</ele>
        <time>2019-02-06T13:13:31.000Z</time>
      </trkpt>
      <trkpt lat="45.91475" lon="6.50906">
        <ele>2264.6000976562</ele>
        <time>2019-02-06T13:13:38.000Z</time>
      </trkpt>
      <trkpt lat="45.91475" lon="6.50906">
        <ele>2264.6000976562</ele>
        <time>2019-02-06T13:13:53.000Z</time>
      </trkpt>
      <trkpt lat="45.91475" lon="6.50906">
        <ele>2264.8000488281</ele>
        <time>2019-02-06T13:14:06.000Z</time>
      </trkpt>
      <trkpt lat="45.91475" lon="6.50906">
        <ele>2264.8000488281</ele>
        <time>2019-02-06T13:14:21.000Z</time>
      </trkpt>
      <trkpt lat="45.91475" lon="6.50906">
        <ele>2264.8000488281</ele>
        <time>2019-02-06T13:14:34.000Z</time>
      </trkpt>
      <trkpt lat="45.91475" lon="6.50905">
        <ele>2264.8000488281</ele>
        <time>2019-02-06T13:14:47.000Z</time>
      </trkpt>
      <trkpt lat="45.91475" lon="6.50905">
        <ele>2264.8000488281</ele>
        <time>2019-02-06T13:15:04.000Z</time>
      </trkpt>
      <trkpt lat="45.91475" lon="6.50905">
        <ele>2264.8000488281</ele>
        <time>2019-02-06T13:15:15.000Z</time>
      </trkpt>
      <trkpt lat="45.91475" lon="6.50905">
        <ele>2265</ele>
        <time>2019-02-06T13:15:31.000Z</time>
      </trkpt>
      <trkpt lat="45.91475" lon="6.50905">
        <ele>2265</ele>
        <time>2019-02-06T13:15:44.000Z</time>
      </trkpt>
      <trkpt lat="45.91475" lon="6.50905">
        <ele>2265</ele>
        <time>2019-02-06T13:15:59.000Z</time>
      </trkpt>
      <trkpt lat="45.91475" lon="6.50905">
        <ele>2264.8000488281</ele>
        <time>2019-02-06T13:16:09.000Z</time>
      </trkpt>
      <trkpt lat="45.91475" lon="6.50905">
        <ele>2265</ele>
        <time>2019-02-06T13:16:25.000Z</time>
      </trkpt>
      <trkpt lat="45.91475" lon="6.50905">
        <ele>2265.1999511719</ele>
        <time>2019-02-06T13:16:41.000Z</time>
      </trkpt>
      <trkpt lat="45.91475" lon="6.50905">
        <ele>2265.3999023438</ele>
        <time>2019-02-06T13:16:53.000Z</time>
      </trkpt>
      <trkpt lat="45.91475" lon="6.50905">
        <ele>2265.1999511719</ele>
        <time>2019-02-06T13:17:02.000Z</time>
      </trkpt>
      <trkpt lat="45.91475" lon="6.50905">
        <ele>2265</ele>
        <time>2019-02-06T13:17:22.000Z</time>
      </trkpt>
      <trkpt lat="45.91474" lon="6.50905">
        <ele>2265</ele>
        <time>2019-02-06T13:17:41.000Z</time>
      </trkpt>
      <trkpt lat="45.91472" lon="6.50905">
        <ele>2265.8000488281</ele>
        <time>2019-02-06T13:17:46.000Z</time>
      </trkpt>
      <trkpt lat="45.91471" lon="6.50905">
        <ele>2266</ele>
        <time>2019-02-06T13:17:49.000Z</time>
      </trkpt>
      <trkpt lat="45.91469" lon="6.50908">
        <ele>2265.3999023438</ele>
        <time>2019-02-06T13:17:55.000Z</time>
      </trkpt>
      <trkpt lat="45.91466" lon="6.50913">
        <ele>2267</ele>
        <time>2019-02-06T13:18:01.000Z</time>
      </trkpt>
      <trkpt lat="45.91466" lon="6.50913">
        <ele>2267.8000488281</ele>
        <time>2019-02-06T13:18:02.000Z</time>
      </trkpt>
      <trkpt lat="45.91466" lon="6.50914">
        <ele>2268.1999511719</ele>
        <time>2019-02-06T13:18:03.000Z</time>
      </trkpt>
      <trkpt lat="45.91466" lon="6.50918">
        <ele>2269</ele>
        <time>2019-02-06T13:18:08.000Z</time>
      </trkpt>
      <trkpt lat="45.91466" lon="6.50919">
        <ele>2269.1999511719</ele>
        <time>2019-02-06T13:18:12.000Z</time>
      </trkpt>
      <trkpt lat="45.91466" lon="6.50919">
        <ele>2269.3999023438</ele>
        <time>2019-02-06T13:18:13.000Z</time>
      </trkpt>
      <trkpt lat="45.91464" lon="6.5092">
        <ele>2270.6000976562</ele>
        <time>2019-02-06T13:18:20.000Z</time>
      </trkpt>
      <trkpt lat="45.91462" lon="6.50921">
        <ele>2271</ele>
        <time>2019-02-06T13:18:26.000Z</time>
      </trkpt>
      <trkpt lat="45.91461" lon="6.50921">
        <ele>2271.8000488281</ele>
        <time>2019-02-06T13:18:29.000Z</time>
      </trkpt>
      <trkpt lat="45.91459" lon="6.5092">
        <ele>2272.6000976562</ele>
        <time>2019-02-06T13:18:32.000Z</time>
      </trkpt>
      <trkpt lat="45.91456" lon="6.50919">
        <ele>2273</ele>
        <time>2019-02-06T13:18:37.000Z</time>
      </trkpt>
      <trkpt lat="45.91455" lon="6.50918">
        <ele>2273.1999511719</ele>
        <time>2019-02-06T13:18:40.000Z</time>
      </trkpt>
      <trkpt lat="45.91453" lon="6.50917">
        <ele>2273.8000488281</ele>
        <time>2019-02-06T13:18:46.000Z</time>
      </trkpt>
      <trkpt lat="45.91452" lon="6.50917">
        <ele>2274.1999511719</ele>
        <time>2019-02-06T13:18:48.000Z</time>
      </trkpt>
      <trkpt lat="45.91452" lon="6.50917">
        <ele>2275.3999023438</ele>
        <time>2019-02-06T13:18:50.000Z</time>
      </trkpt>
      <trkpt lat="45.91452" lon="6.50917">
        <ele>2275.8000488281</ele>
        <time>2019-02-06T13:18:51.000Z</time>
      </trkpt>
      <trkpt lat="45.9145" lon="6.50918">
        <ele>2276.1999511719</ele>
        <time>2019-02-06T13:18:56.000Z</time>
      </trkpt>
      <trkpt lat="45.9145" lon="6.50917">
        <ele>2276.6000976562</ele>
        <time>2019-02-06T13:18:58.000Z</time>
      </trkpt>
      <trkpt lat="45.91448" lon="6.50919">
        <ele>2277.1999511719</ele>
        <time>2019-02-06T13:19:02.000Z</time>
      </trkpt>
      <trkpt lat="45.91448" lon="6.5092">
        <ele>2277.6000976562</ele>
        <time>2019-02-06T13:19:04.000Z</time>
      </trkpt>
      <trkpt lat="45.91447" lon="6.50923">
        <ele>2278.6000976562</ele>
        <time>2019-02-06T13:19:10.000Z</time>
      </trkpt>
      <trkpt lat="45.91447" lon="6.50924">
        <ele>2278.8000488281</ele>
        <time>2019-02-06T13:19:11.000Z</time>
      </trkpt>
      <trkpt lat="45.91447" lon="6.50928">
        <ele>2279.8000488281</ele>
        <time>2019-02-06T13:19:16.000Z</time>
      </trkpt>
      <trkpt lat="45.91445" lon="6.50934">
        <ele>2280.6000976562</ele>
        <time>2019-02-06T13:19:22.000Z</time>
      </trkpt>
      <trkpt lat="45.91445" lon="6.50936">
        <ele>2280.8000488281</ele>
        <time>2019-02-06T13:19:24.000Z</time>
      </trkpt>
      <trkpt lat="45.91446" lon="6.50939">
        <ele>2281.6000976562</ele>
        <time>2019-02-06T13:19:29.000Z</time>
      </trkpt>
      <trkpt lat="45.91445" lon="6.50941">
        <ele>2282</ele>
        <time>2019-02-06T13:19:32.000Z</time>
      </trkpt>
      <trkpt lat="45.91446" lon="6.50944">
        <ele>2283.1999511719</ele>
        <time>2019-02-06T13:19:36.000Z</time>
      </trkpt>
      <trkpt lat="45.91449" lon="6.50946">
        <ele>2284.1999511719</ele>
        <time>2019-02-06T13:19:41.000Z</time>
      </trkpt>
      <trkpt lat="45.9145" lon="6.50947">
        <ele>2284.6000976562</ele>
        <time>2019-02-06T13:19:43.000Z</time>
      </trkpt>
      <trkpt lat="45.91449" lon="6.50949">
        <ele>2285.1999511719</ele>
        <time>2019-02-06T13:19:51.000Z</time>
      </trkpt>
      <trkpt lat="45.91449" lon="6.50949">
        <ele>2285.3999023438</ele>
        <time>2019-02-06T13:19:52.000Z</time>
      </trkpt>
      <trkpt lat="45.91449" lon="6.50953">
        <ele>2286.6000976562</ele>
        <time>2019-02-06T13:19:56.000Z</time>
      </trkpt>
      <trkpt lat="45.91448" lon="6.50957">
        <ele>2287.6000976562</ele>
        <time>2019-02-06T13:20:01.000Z</time>
      </trkpt>
      <trkpt lat="45.91447" lon="6.50959">
        <ele>2287.8000488281</ele>
        <time>2019-02-06T13:20:02.000Z</time>
      </trkpt>
      <trkpt lat="45.91446" lon="6.50962">
        <ele>2288.6000976562</ele>
        <time>2019-02-06T13:20:07.000Z</time>
      </trkpt>
      <trkpt lat="45.91445" lon="6.50963">
        <ele>2288.8000488281</ele>
        <time>2019-02-06T13:20:09.000Z</time>
      </trkpt>
      <trkpt lat="45.91446" lon="6.5097">
        <ele>2289.1999511719</ele>
        <time>2019-02-06T13:20:18.000Z</time>
      </trkpt>
      <trkpt lat="45.91448" lon="6.50975">
        <ele>2289.6000976562</ele>
        <time>2019-02-06T13:20:25.000Z</time>
      </trkpt>
      <trkpt lat="45.91448" lon="6.50976">
        <ele>2289.8000488281</ele>
        <time>2019-02-06T13:20:26.000Z</time>
      </trkpt>
      <trkpt lat="45.91448" lon="6.50978">
        <ele>2290</ele>
        <time>2019-02-06T13:20:30.000Z</time>
      </trkpt>
      <trkpt lat="45.91449" lon="6.50984">
        <ele>2290.1999511719</ele>
        <time>2019-02-06T13:20:33.000Z</time>
      </trkpt>
      <trkpt lat="45.9145" lon="6.50989">
        <ele>2290.8000488281</ele>
        <time>2019-02-06T13:20:37.000Z</time>
      </trkpt>
      <trkpt lat="45.9145" lon="6.50989">
        <ele>2291</ele>
        <time>2019-02-06T13:20:39.000Z</time>
      </trkpt>
      <trkpt lat="45.9145" lon="6.50993">
        <ele>2291.1999511719</ele>
        <time>2019-02-06T13:20:49.000Z</time>
      </trkpt>
      <trkpt lat="45.91449" lon="6.51001">
        <ele>2291.8000488281</ele>
        <time>2019-02-06T13:20:54.000Z</time>
      </trkpt>
      <trkpt lat="45.91449" lon="6.51003">
        <ele>2292.1999511719</ele>
        <time>2019-02-06T13:20:56.000Z</time>
      </trkpt>
      <trkpt lat="45.91449" lon="6.51013">
        <ele>2293</ele>
        <time>2019-02-06T13:21:03.000Z</time>
      </trkpt>
      <trkpt lat="45.91449" lon="6.51019">
        <ele>2294.1999511719</ele>
        <time>2019-02-06T13:21:09.000Z</time>
      </trkpt>
      <trkpt lat="45.91449" lon="6.51019">
        <ele>2294.3999023438</ele>
        <time>2019-02-06T13:21:11.000Z</time>
      </trkpt>
      <trkpt lat="45.9145" lon="6.51022">
        <ele>2295.1999511719</ele>
        <time>2019-02-06T13:21:16.000Z</time>
      </trkpt>
      <trkpt lat="45.9145" lon="6.51024">
        <ele>2296</ele>
        <time>2019-02-06T13:21:19.000Z</time>
      </trkpt>
      <trkpt lat="45.9145" lon="6.51025">
        <ele>2296.3999023438</ele>
        <time>2019-02-06T13:21:21.000Z</time>
      </trkpt>
      <trkpt lat="45.9145" lon="6.51026">
        <ele>2297.1999511719</ele>
        <time>2019-02-06T13:21:26.000Z</time>
      </trkpt>
      <trkpt lat="45.91449" lon="6.5103">
        <ele>2297.6000976562</ele>
        <time>2019-02-06T13:21:30.000Z</time>
      </trkpt>
      <trkpt lat="45.91448" lon="6.51032">
        <ele>2298.1999511719</ele>
        <time>2019-02-06T13:21:33.000Z</time>
      </trkpt>
      <trkpt lat="45.91447" lon="6.51033">
        <ele>2298.8000488281</ele>
        <time>2019-02-06T13:21:36.000Z</time>
      </trkpt>
      <trkpt lat="45.91446" lon="6.51036">
        <ele>2299.3999023438</ele>
        <time>2019-02-06T13:21:44.000Z</time>
      </trkpt>
      <trkpt lat="45.91446" lon="6.51036">
        <ele>2299.8000488281</ele>
        <time>2019-02-06T13:21:47.000Z</time>
      </trkpt>
      <trkpt lat="45.91446" lon="6.51036">
        <ele>2300.8000488281</ele>
        <time>2019-02-06T13:21:53.000Z</time>
      </trkpt>
      <trkpt lat="45.91446" lon="6.51036">
        <ele>2300.8000488281</ele>
        <time>2019-02-06T13:21:59.000Z</time>
      </trkpt>
      <trkpt lat="45.91446" lon="6.51044">
        <ele>2301.6000976562</ele>
        <time>2019-02-06T13:22:08.000Z</time>
      </trkpt>
      <trkpt lat="45.91445" lon="6.51046">
        <ele>2302</ele>
        <time>2019-02-06T13:22:13.000Z</time>
      </trkpt>
      <trkpt lat="45.91445" lon="6.51047">
        <ele>2302.1999511719</ele>
        <time>2019-02-06T13:22:15.000Z</time>
      </trkpt>
      <trkpt lat="45.91444" lon="6.51051">
        <ele>2303.1999511719</ele>
        <time>2019-02-06T13:22:20.000Z</time>
      </trkpt>
      <trkpt lat="45.91443" lon="6.51053">
        <ele>2303.8000488281</ele>
        <time>2019-02-06T13:22:22.000Z</time>
      </trkpt>
      <trkpt lat="45.91443" lon="6.51054">
        <ele>2304.1999511719</ele>
        <time>2019-02-06T13:22:23.000Z</time>
      </trkpt>
      <trkpt lat="45.91442" lon="6.51058">
        <ele>2305.3999023438</ele>
        <time>2019-02-06T13:22:28.000Z</time>
      </trkpt>
      <trkpt lat="45.91441" lon="6.51062">
        <ele>2306.1999511719</ele>
        <time>2019-02-06T13:22:34.000Z</time>
      </trkpt>
      <trkpt lat="45.91441" lon="6.51063">
        <ele>2306.3999023438</ele>
        <time>2019-02-06T13:22:36.000Z</time>
      </trkpt>
      <trkpt lat="45.9144" lon="6.51066">
        <ele>2307.3999023438</ele>
        <time>2019-02-06T13:22:42.000Z</time>
      </trkpt>
      <trkpt lat="45.9144" lon="6.51067">
        <ele>2307.6000976562</ele>
        <time>2019-02-06T13:22:43.000Z</time>
      </trkpt>
      <trkpt lat="45.91439" lon="6.51069">
        <ele>2308.8000488281</ele>
        <time>2019-02-06T13:22:50.000Z</time>
      </trkpt>
      <trkpt lat="45.91437" lon="6.51073">
        <ele>2310</ele>
        <time>2019-02-06T13:22:55.000Z</time>
      </trkpt>
      <trkpt lat="45.91436" lon="6.51074">
        <ele>2310.1999511719</ele>
        <time>2019-02-06T13:22:57.000Z</time>
      </trkpt>
      <trkpt lat="45.91435" lon="6.51077">
        <ele>2311</ele>
        <time>2019-02-06T13:23:02.000Z</time>
      </trkpt>
      <trkpt lat="45.91434" lon="6.5108">
        <ele>2311.6000976562</ele>
        <time>2019-02-06T13:23:07.000Z</time>
      </trkpt>
      <trkpt lat="45.91432" lon="6.51082">
        <ele>2312</ele>
        <time>2019-02-06T13:23:11.000Z</time>
      </trkpt>
      <trkpt lat="45.91431" lon="6.51088">
        <ele>2312.6000976562</ele>
        <time>2019-02-06T13:23:18.000Z</time>
      </trkpt>
      <trkpt lat="45.9143" lon="6.5109">
        <ele>2313.1999511719</ele>
        <time>2019-02-06T13:23:20.000Z</time>
      </trkpt>
      <trkpt lat="45.91429" lon="6.51093">
        <ele>2314.3999023438</ele>
        <time>2019-02-06T13:23:24.000Z</time>
      </trkpt>
      <trkpt lat="45.91428" lon="6.51097">
        <ele>2315.3999023438</ele>
        <time>2019-02-06T13:23:29.000Z</time>
      </trkpt>
      <trkpt lat="45.91428" lon="6.51097">
        <ele>2315.6000976562</ele>
        <time>2019-02-06T13:23:30.000Z</time>
      </trkpt>
      <trkpt lat="45.91428" lon="6.51097">
        <ele>2315.1999511719</ele>
        <time>2019-02-06T13:23:36.000Z</time>
      </trkpt>
      <trkpt lat="45.91428" lon="6.51097">
        <ele>2316.6000976562</ele>
        <time>2019-02-06T13:23:42.000Z</time>
      </trkpt>
      <trkpt lat="45.91428" lon="6.51097">
        <ele>2317</ele>
        <time>2019-02-06T13:23:45.000Z</time>
      </trkpt>
      <trkpt lat="45.91428" lon="6.51097">
        <ele>2317.1999511719</ele>
        <time>2019-02-06T13:24:02.000Z</time>
      </trkpt>
      <trkpt lat="45.91427" lon="6.51103">
        <ele>2318</ele>
        <time>2019-02-06T13:24:07.000Z</time>
      </trkpt>
      <trkpt lat="45.91426" lon="6.51106">
        <ele>2319</ele>
        <time>2019-02-06T13:24:10.000Z</time>
      </trkpt>
      <trkpt lat="45.91425" lon="6.51106">
        <ele>2319</ele>
        <time>2019-02-06T13:24:11.000Z</time>
      </trkpt>
      <trkpt lat="45.91424" lon="6.51113">
        <ele>2319.8000488281</ele>
        <time>2019-02-06T13:24:18.000Z</time>
      </trkpt>
      <trkpt lat="45.91422" lon="6.51115">
        <ele>2320.1999511719</ele>
        <time>2019-02-06T13:24:21.000Z</time>
      </trkpt>
      <trkpt lat="45.91421" lon="6.51116">
        <ele>2321.1999511719</ele>
        <time>2019-02-06T13:24:26.000Z</time>
      </trkpt>
      <trkpt lat="45.91421" lon="6.51117">
        <ele>2321.6000976562</ele>
        <time>2019-02-06T13:24:27.000Z</time>
      </trkpt>
      <trkpt lat="45.91419" lon="6.51123">
        <ele>2322.1999511719</ele>
        <time>2019-02-06T13:24:33.000Z</time>
      </trkpt>
      <trkpt lat="45.91418" lon="6.51127">
        <ele>2323.3999023438</ele>
        <time>2019-02-06T13:24:38.000Z</time>
      </trkpt>
      <trkpt lat="45.91418" lon="6.51128">
        <ele>2323.6000976562</ele>
        <time>2019-02-06T13:24:40.000Z</time>
      </trkpt>
      <trkpt lat="45.91418" lon="6.51131">
        <ele>2324.6000976562</ele>
        <time>2019-02-06T13:24:45.000Z</time>
      </trkpt>
      <trkpt lat="45.91418" lon="6.51135">
        <ele>2325.1999511719</ele>
        <time>2019-02-06T13:24:50.000Z</time>
      </trkpt>
      <trkpt lat="45.91416" lon="6.51138">
        <ele>2325.6000976562</ele>
        <time>2019-02-06T13:24:53.000Z</time>
      </trkpt>
      <trkpt lat="45.91415" lon="6.51145">
        <ele>2326.6000976562</ele>
        <time>2019-02-06T13:25:00.000Z</time>
      </trkpt>
      <trkpt lat="45.91414" lon="6.5115">
        <ele>2327.6000976562</ele>
        <time>2019-02-06T13:25:06.000Z</time>
      </trkpt>
      <trkpt lat="45.91412" lon="6.51153">
        <ele>2328</ele>
        <time>2019-02-06T13:25:11.000Z</time>
      </trkpt>
      <trkpt lat="45.91412" lon="6.51157">
        <ele>2328.8000488281</ele>
        <time>2019-02-06T13:25:18.000Z</time>
      </trkpt>
      <trkpt lat="45.91412" lon="6.51158">
        <ele>2329.6000976562</ele>
        <time>2019-02-06T13:25:21.000Z</time>
      </trkpt>
      <trkpt lat="45.91412" lon="6.51159">
        <ele>2329.8000488281</ele>
        <time>2019-02-06T13:25:22.000Z</time>
      </trkpt>
      <trkpt lat="45.91412" lon="6.51159">
        <ele>2330.8000488281</ele>
        <time>2019-02-06T13:25:26.000Z</time>
      </trkpt>
      <trkpt lat="45.91411" lon="6.5116">
        <ele>2330.8000488281</ele>
        <time>2019-02-06T13:25:29.000Z</time>
      </trkpt>
      <trkpt lat="45.91413" lon="6.5116">
        <ele>2331</ele>
        <time>2019-02-06T13:25:38.000Z</time>
      </trkpt>
      <trkpt lat="45.91422" lon="6.51162">
        <ele>2331.8000488281</ele>
        <time>2019-02-06T13:25:45.000Z</time>
      </trkpt>
      <trkpt lat="45.91425" lon="6.51161">
        <ele>2332.8000488281</ele>
        <time>2019-02-06T13:25:50.000Z</time>
      </trkpt>
      <trkpt lat="45.91426" lon="6.51159">
        <ele>2333.3999023438</ele>
        <time>2019-02-06T13:25:54.000Z</time>
      </trkpt>
      <trkpt lat="45.91427" lon="6.51159">
        <ele>2334</ele>
        <time>2019-02-06T13:26:00.000Z</time>
      </trkpt>
      <trkpt lat="45.91428" lon="6.51158">
        <ele>2334.8000488281</ele>
        <time>2019-02-06T13:26:02.000Z</time>
      </trkpt>
      <trkpt lat="45.91429" lon="6.51157">
        <ele>2335.6000976562</ele>
        <time>2019-02-06T13:26:03.000Z</time>
      </trkpt>
      <trkpt lat="45.91431" lon="6.51156">
        <ele>2336.8000488281</ele>
        <time>2019-02-06T13:26:09.000Z</time>
      </trkpt>
      <trkpt lat="45.91432" lon="6.51155">
        <ele>2337.1999511719</ele>
        <time>2019-02-06T13:26:14.000Z</time>
      </trkpt>
      <trkpt lat="45.91435" lon="6.51155">
        <ele>2337.8000488281</ele>
        <time>2019-02-06T13:26:17.000Z</time>
      </trkpt>
      <trkpt lat="45.91437" lon="6.51153">
        <ele>2338.8000488281</ele>
        <time>2019-02-06T13:26:20.000Z</time>
      </trkpt>
      <trkpt lat="45.91438" lon="6.51153">
        <ele>2339</ele>
        <time>2019-02-06T13:26:21.000Z</time>
      </trkpt>
      <trkpt lat="45.91441" lon="6.51151">
        <ele>2339.6000976562</ele>
        <time>2019-02-06T13:26:29.000Z</time>
      </trkpt>
      <trkpt lat="45.91441" lon="6.51151">
        <ele>2340</ele>
        <time>2019-02-06T13:26:36.000Z</time>
      </trkpt>
      <trkpt lat="45.91442" lon="6.51151">
        <ele>2340.3999023438</ele>
        <time>2019-02-06T13:26:38.000Z</time>
      </trkpt>
      <trkpt lat="45.91443" lon="6.51149">
        <ele>2341</ele>
        <time>2019-02-06T13:26:40.000Z</time>
      </trkpt>
      <trkpt lat="45.91443" lon="6.5115">
        <ele>2341</ele>
        <time>2019-02-06T13:26:45.000Z</time>
      </trkpt>
      <trkpt lat="45.91442" lon="6.51152">
        <ele>2342.1999511719</ele>
        <time>2019-02-06T13:26:50.000Z</time>
      </trkpt>
      <trkpt lat="45.91442" lon="6.51153">
        <ele>2342.1999511719</ele>
        <time>2019-02-06T13:26:51.000Z</time>
      </trkpt>
      <trkpt lat="45.91439" lon="6.51157">
        <ele>2342</ele>
        <time>2019-02-06T13:26:57.000Z</time>
      </trkpt>
      <trkpt lat="45.91437" lon="6.51164">
        <ele>2342.8000488281</ele>
        <time>2019-02-06T13:27:04.000Z</time>
      </trkpt>
      <trkpt lat="45.91437" lon="6.51165">
        <ele>2343.3999023438</ele>
        <time>2019-02-06T13:27:06.000Z</time>
      </trkpt>
      <trkpt lat="45.91436" lon="6.51167">
        <ele>2344.6000976562</ele>
        <time>2019-02-06T13:27:10.000Z</time>
      </trkpt>
      <trkpt lat="45.91434" lon="6.51171">
        <ele>2345.6000976562</ele>
        <time>2019-02-06T13:27:16.000Z</time>
      </trkpt>
      <trkpt lat="45.91434" lon="6.51171">
        <ele>2345.8000488281</ele>
        <time>2019-02-06T13:27:17.000Z</time>
      </trkpt>
      <trkpt lat="45.91432" lon="6.51175">
        <ele>2346.8000488281</ele>
        <time>2019-02-06T13:27:26.000Z</time>
      </trkpt>
      <trkpt lat="45.91432" lon="6.51175">
        <ele>2347.1999511719</ele>
        <time>2019-02-06T13:27:27.000Z</time>
      </trkpt>
      <trkpt lat="45.91433" lon="6.51176">
        <ele>2347.1999511719</ele>
        <time>2019-02-06T13:27:38.000Z</time>
      </trkpt>
      <trkpt lat="45.91435" lon="6.51175">
        <ele>2348</ele>
        <time>2019-02-06T13:27:41.000Z</time>
      </trkpt>
      <trkpt lat="45.91438" lon="6.51173">
        <ele>2348.6000976562</ele>
        <time>2019-02-06T13:27:45.000Z</time>
      </trkpt>
      <trkpt lat="45.91439" lon="6.51173">
        <ele>2349</ele>
        <time>2019-02-06T13:27:47.000Z</time>
      </trkpt>
      <trkpt lat="45.9144" lon="6.51172">
        <ele>2349.6000976562</ele>
        <time>2019-02-06T13:27:50.000Z</time>
      </trkpt>
      <trkpt lat="45.91441" lon="6.51172">
        <ele>2350.1999511719</ele>
        <time>2019-02-06T13:27:54.000Z</time>
      </trkpt>
      <trkpt lat="45.91442" lon="6.51172">
        <ele>2350.1999511719</ele>
        <time>2019-02-06T13:27:55.000Z</time>
      </trkpt>
      <trkpt lat="45.91447" lon="6.51171">
        <ele>2351.1999511719</ele>
        <time>2019-02-06T13:28:00.000Z</time>
      </trkpt>
      <trkpt lat="45.91448" lon="6.51171">
        <ele>2351.6000976562</ele>
        <time>2019-02-06T13:28:02.000Z</time>
      </trkpt>
      <trkpt lat="45.91449" lon="6.51171">
        <ele>2352.3999023438</ele>
        <time>2019-02-06T13:28:05.000Z</time>
      </trkpt>
      <trkpt lat="45.9145" lon="6.51171">
        <ele>2352.6000976562</ele>
        <time>2019-02-06T13:28:07.000Z</time>
      </trkpt>
      <trkpt lat="45.91453" lon="6.5117">
        <ele>2353.3999023438</ele>
        <time>2019-02-06T13:28:13.000Z</time>
      </trkpt>
      <trkpt lat="45.91454" lon="6.51171">
        <ele>2353.6000976562</ele>
        <time>2019-02-06T13:28:14.000Z</time>
      </trkpt>
      <trkpt lat="45.9146" lon="6.51172">
        <ele>2354.3999023438</ele>
        <time>2019-02-06T13:28:20.000Z</time>
      </trkpt>
      <trkpt lat="45.91461" lon="6.51173">
        <ele>2354.3999023438</ele>
        <time>2019-02-06T13:28:21.000Z</time>
      </trkpt>
      <trkpt lat="45.91465" lon="6.51174">
        <ele>2355.6000976562</ele>
        <time>2019-02-06T13:28:27.000Z</time>
      </trkpt>
      <trkpt lat="45.91466" lon="6.51173">
        <ele>2355.6000976562</ele>
        <time>2019-02-06T13:28:28.000Z</time>
      </trkpt>
      <trkpt lat="45.91467" lon="6.51172">
        <ele>2356.6000976562</ele>
        <time>2019-02-06T13:28:34.000Z</time>
      </trkpt>
      <trkpt lat="45.91467" lon="6.51172">
        <ele>2356.8000488281</ele>
        <time>2019-02-06T13:28:35.000Z</time>
      </trkpt>
      <trkpt lat="45.91467" lon="6.51172">
        <ele>2356.6000976562</ele>
        <time>2019-02-06T13:28:41.000Z</time>
      </trkpt>
      <trkpt lat="45.91467" lon="6.51173">
        <ele>2357.8000488281</ele>
        <time>2019-02-06T13:28:46.000Z</time>
      </trkpt>
      <trkpt lat="45.91467" lon="6.51176">
        <ele>2358.1999511719</ele>
        <time>2019-02-06T13:28:49.000Z</time>
      </trkpt>
      <trkpt lat="45.91465" lon="6.5118">
        <ele>2358.8000488281</ele>
        <time>2019-02-06T13:28:57.000Z</time>
      </trkpt>
      <trkpt lat="45.91465" lon="6.51181">
        <ele>2359.1999511719</ele>
        <time>2019-02-06T13:28:58.000Z</time>
      </trkpt>
      <trkpt lat="45.91463" lon="6.51182">
        <ele>2360.3999023438</ele>
        <time>2019-02-06T13:29:02.000Z</time>
      </trkpt>
      <trkpt lat="45.91462" lon="6.51183">
        <ele>2361.3999023438</ele>
        <time>2019-02-06T13:29:06.000Z</time>
      </trkpt>
      <trkpt lat="45.91462" lon="6.51183">
        <ele>2361.3999023438</ele>
        <time>2019-02-06T13:29:07.000Z</time>
      </trkpt>
      <trkpt lat="45.91461" lon="6.51186">
        <ele>2362.6000976562</ele>
        <time>2019-02-06T13:29:14.000Z</time>
      </trkpt>
      <trkpt lat="45.91461" lon="6.51186">
        <ele>2362.8000488281</ele>
        <time>2019-02-06T13:29:15.000Z</time>
      </trkpt>
      <trkpt lat="45.9146" lon="6.51188">
        <ele>2363.6000976562</ele>
        <time>2019-02-06T13:29:22.000Z</time>
      </trkpt>
      <trkpt lat="45.91461" lon="6.51187">
        <ele>2363.6000976562</ele>
        <time>2019-02-06T13:29:23.000Z</time>
      </trkpt>
      <trkpt lat="45.91463" lon="6.51187">
        <ele>2363</ele>
        <time>2019-02-06T13:29:28.000Z</time>
      </trkpt>
      <trkpt lat="45.91465" lon="6.51188">
        <ele>2363.6000976562</ele>
        <time>2019-02-06T13:29:30.000Z</time>
      </trkpt>
      <trkpt lat="45.91466" lon="6.51188">
        <ele>2365</ele>
        <time>2019-02-06T13:29:33.000Z</time>
      </trkpt>
      <trkpt lat="45.9147" lon="6.51188">
        <ele>2365.6000976562</ele>
        <time>2019-02-06T13:29:42.000Z</time>
      </trkpt>
      <trkpt lat="45.91471" lon="6.51189">
        <ele>2366</ele>
        <time>2019-02-06T13:29:44.000Z</time>
      </trkpt>
      <trkpt lat="45.91472" lon="6.51189">
        <ele>2366.3999023438</ele>
        <time>2019-02-06T13:29:47.000Z</time>
      </trkpt>
      <trkpt lat="45.91473" lon="6.51189">
        <ele>2367</ele>
        <time>2019-02-06T13:29:49.000Z</time>
      </trkpt>
      <trkpt lat="45.91475" lon="6.51188">
        <ele>2368.1999511719</ele>
        <time>2019-02-06T13:29:53.000Z</time>
      </trkpt>
      <trkpt lat="45.91476" lon="6.51187">
        <ele>2368.3999023438</ele>
        <time>2019-02-06T13:29:54.000Z</time>
      </trkpt>
      <trkpt lat="45.91479" lon="6.51186">
        <ele>2369.3999023438</ele>
        <time>2019-02-06T13:30:00.000Z</time>
      </trkpt>
      <trkpt lat="45.91481" lon="6.51186">
        <ele>2369.6000976562</ele>
        <time>2019-02-06T13:30:02.000Z</time>
      </trkpt>
      <trkpt lat="45.91482" lon="6.51186">
        <ele>2370.6000976562</ele>
        <time>2019-02-06T13:30:10.000Z</time>
      </trkpt>
      <trkpt lat="45.91482" lon="6.51186">
        <ele>2371.6000976562</ele>
        <time>2019-02-06T13:30:17.000Z</time>
      </trkpt>
      <trkpt lat="45.91482" lon="6.51186">
        <ele>2372</ele>
        <time>2019-02-06T13:30:18.000Z</time>
      </trkpt>
      <trkpt lat="45.91482" lon="6.51188">
        <ele>2372</ele>
        <time>2019-02-06T13:30:24.000Z</time>
      </trkpt>
      <trkpt lat="45.91481" lon="6.51192">
        <ele>2372.1999511719</ele>
        <time>2019-02-06T13:30:31.000Z</time>
      </trkpt>
      <trkpt lat="45.91479" lon="6.51195">
        <ele>2373.1999511719</ele>
        <time>2019-02-06T13:30:36.000Z</time>
      </trkpt>
      <trkpt lat="45.91479" lon="6.51197">
        <ele>2373.8000488281</ele>
        <time>2019-02-06T13:30:38.000Z</time>
      </trkpt>
      <trkpt lat="45.91478" lon="6.51198">
        <ele>2374.1999511719</ele>
        <time>2019-02-06T13:30:40.000Z</time>
      </trkpt>
      <trkpt lat="45.91476" lon="6.51203">
        <ele>2375</ele>
        <time>2019-02-06T13:30:45.000Z</time>
      </trkpt>
      <trkpt lat="45.91476" lon="6.51204">
        <ele>2375.1999511719</ele>
        <time>2019-02-06T13:30:47.000Z</time>
      </trkpt>
      <trkpt lat="45.91474" lon="6.51208">
        <ele>2376.1999511719</ele>
        <time>2019-02-06T13:30:52.000Z</time>
      </trkpt>
      <trkpt lat="45.91474" lon="6.51208">
        <ele>2376.3999023438</ele>
        <time>2019-02-06T13:30:54.000Z</time>
      </trkpt>
      <trkpt lat="45.91473" lon="6.51209">
        <ele>2377.6000976562</ele>
        <time>2019-02-06T13:31:00.000Z</time>
      </trkpt>
      <trkpt lat="45.91473" lon="6.51209">
        <ele>2377.8000488281</ele>
        <time>2019-02-06T13:31:01.000Z</time>
      </trkpt>
      <trkpt lat="45.91473" lon="6.51209">
        <ele>2378</ele>
        <time>2019-02-06T13:31:10.000Z</time>
      </trkpt>
      <trkpt lat="45.91475" lon="6.51209">
        <ele>2378.8000488281</ele>
        <time>2019-02-06T13:31:14.000Z</time>
      </trkpt>
      <trkpt lat="45.91477" lon="6.5121">
        <ele>2379.1999511719</ele>
        <time>2019-02-06T13:31:16.000Z</time>
      </trkpt>
      <trkpt lat="45.91478" lon="6.5121">
        <ele>2379.8000488281</ele>
        <time>2019-02-06T13:31:19.000Z</time>
      </trkpt>
      <trkpt lat="45.91478" lon="6.51211">
        <ele>2380.6000976562</ele>
        <time>2019-02-06T13:31:21.000Z</time>
      </trkpt>
      <trkpt lat="45.91479" lon="6.51211">
        <ele>2381</ele>
        <time>2019-02-06T13:31:23.000Z</time>
      </trkpt>
      <trkpt lat="45.9148" lon="6.51211">
        <ele>2381.8000488281</ele>
        <time>2019-02-06T13:31:27.000Z</time>
      </trkpt>
      <trkpt lat="45.91481" lon="6.51211">
        <ele>2382</ele>
        <time>2019-02-06T13:31:28.000Z</time>
      </trkpt>
      <trkpt lat="45.91485" lon="6.51211">
        <ele>2382.6000976562</ele>
        <time>2019-02-06T13:31:33.000Z</time>
      </trkpt>
      <trkpt lat="45.91489" lon="6.51211">
        <ele>2383</ele>
        <time>2019-02-06T13:31:38.000Z</time>
      </trkpt>
      <trkpt lat="45.91492" lon="6.51211">
        <ele>2384</ele>
        <time>2019-02-06T13:31:42.000Z</time>
      </trkpt>
      <trkpt lat="45.91492" lon="6.51211">
        <ele>2384.1999511719</ele>
        <time>2019-02-06T13:31:43.000Z</time>
      </trkpt>
      <trkpt lat="45.91495" lon="6.51211">
        <ele>2385</ele>
        <time>2019-02-06T13:31:47.000Z</time>
      </trkpt>
      <trkpt lat="45.91495" lon="6.51212">
        <ele>2385.3999023438</ele>
        <time>2019-02-06T13:31:49.000Z</time>
      </trkpt>
      <trkpt lat="45.91496" lon="6.51211">
        <ele>2385.3999023438</ele>
        <time>2019-02-06T13:31:53.000Z</time>
      </trkpt>
      <trkpt lat="45.91496" lon="6.5121">
        <ele>2385.8000488281</ele>
        <time>2019-02-06T13:32:00.000Z</time>
      </trkpt>
      <trkpt lat="45.91496" lon="6.5121">
        <ele>2386.6000976562</ele>
        <time>2019-02-06T13:32:02.000Z</time>
      </trkpt>
      <trkpt lat="45.91496" lon="6.5121">
        <ele>2387.6000976562</ele>
        <time>2019-02-06T13:32:03.000Z</time>
      </trkpt>
      <trkpt lat="45.91495" lon="6.51211">
        <ele>2387.6000976562</ele>
        <time>2019-02-06T13:32:07.000Z</time>
      </trkpt>
      <trkpt lat="45.91493" lon="6.51215">
        <ele>2387.1999511719</ele>
        <time>2019-02-06T13:32:14.000Z</time>
      </trkpt>
      <trkpt lat="45.91491" lon="6.51221">
        <ele>2388.8000488281</ele>
        <time>2019-02-06T13:32:21.000Z</time>
      </trkpt>
      <trkpt lat="45.9149" lon="6.51221">
        <ele>2389</ele>
        <time>2019-02-06T13:32:22.000Z</time>
      </trkpt>
      <trkpt lat="45.91489" lon="6.51224">
        <ele>2389.8000488281</ele>
        <time>2019-02-06T13:32:25.000Z</time>
      </trkpt>
      <trkpt lat="45.91487" lon="6.51226">
        <ele>2390.3999023438</ele>
        <time>2019-02-06T13:32:29.000Z</time>
      </trkpt>
      <trkpt lat="45.91485" lon="6.51227">
        <ele>2391</ele>
        <time>2019-02-06T13:32:32.000Z</time>
      </trkpt>
      <trkpt lat="45.91483" lon="6.5123">
        <ele>2392.1999511719</ele>
        <time>2019-02-06T13:32:36.000Z</time>
      </trkpt>
      <trkpt lat="45.91483" lon="6.51231">
        <ele>2392.3999023438</ele>
        <time>2019-02-06T13:32:37.000Z</time>
      </trkpt>
      <trkpt lat="45.91482" lon="6.51235">
        <ele>2393.3999023438</ele>
        <time>2019-02-06T13:32:44.000Z</time>
      </trkpt>
      <trkpt lat="45.9148" lon="6.51238">
        <ele>2394.6000976562</ele>
        <time>2019-02-06T13:32:49.000Z</time>
      </trkpt>
      <trkpt lat="45.9148" lon="6.51238">
        <ele>2395.1999511719</ele>
        <time>2019-02-06T13:32:51.000Z</time>
      </trkpt>
      <trkpt lat="45.91479" lon="6.51238">
        <ele>2395.3999023438</ele>
        <time>2019-02-06T13:32:58.000Z</time>
      </trkpt>
      <trkpt lat="45.91479" lon="6.51238">
        <ele>2395</ele>
        <time>2019-02-06T13:33:06.000Z</time>
      </trkpt>
      <trkpt lat="45.91479" lon="6.51238">
        <ele>2395.6000976562</ele>
        <time>2019-02-06T13:33:09.000Z</time>
      </trkpt>
      <trkpt lat="45.91479" lon="6.51238">
        <ele>2395.1999511719</ele>
        <time>2019-02-06T13:33:18.000Z</time>
      </trkpt>
      <trkpt lat="45.91479" lon="6.5124">
        <ele>2395.1999511719</ele>
        <time>2019-02-06T13:33:26.000Z</time>
      </trkpt>
      <trkpt lat="45.91477" lon="6.51246">
        <ele>2396.6000976562</ele>
        <time>2019-02-06T13:33:32.000Z</time>
      </trkpt>
      <trkpt lat="45.91477" lon="6.51247">
        <ele>2397.6000976562</ele>
        <time>2019-02-06T13:33:37.000Z</time>
      </trkpt>
      <trkpt lat="45.91477" lon="6.51247">
        <ele>2397.8000488281</ele>
        <time>2019-02-06T13:33:38.000Z</time>
      </trkpt>
      <trkpt lat="45.91477" lon="6.51248">
        <ele>2397.6000976562</ele>
        <time>2019-02-06T13:33:45.000Z</time>
      </trkpt>
      <trkpt lat="45.91478" lon="6.51248">
        <ele>2397.8000488281</ele>
        <time>2019-02-06T13:33:53.000Z</time>
      </trkpt>
      <trkpt lat="45.91483" lon="6.51247">
        <ele>2398.8000488281</ele>
        <time>2019-02-06T13:33:59.000Z</time>
      </trkpt>
      <trkpt lat="45.91484" lon="6.51246">
        <ele>2399.1999511719</ele>
        <time>2019-02-06T13:34:01.000Z</time>
      </trkpt>
      <trkpt lat="45.91486" lon="6.51244">
        <ele>2399.8000488281</ele>
        <time>2019-02-06T13:34:06.000Z</time>
      </trkpt>
      <trkpt lat="45.91487" lon="6.51244">
        <ele>2400.3999023438</ele>
        <time>2019-02-06T13:34:08.000Z</time>
      </trkpt>
      <trkpt lat="45.91488" lon="6.51244">
        <ele>2401</ele>
        <time>2019-02-06T13:34:10.000Z</time>
      </trkpt>
      <trkpt lat="45.91488" lon="6.51244">
        <ele>2401.1999511719</ele>
        <time>2019-02-06T13:34:16.000Z</time>
      </trkpt>
      <trkpt lat="45.9149" lon="6.51243">
        <ele>2400.8000488281</ele>
        <time>2019-02-06T13:34:24.000Z</time>
      </trkpt>
      <trkpt lat="45.91495" lon="6.51242">
        <ele>2402</ele>
        <time>2019-02-06T13:34:31.000Z</time>
      </trkpt>
      <trkpt lat="45.91498" lon="6.51243">
        <ele>2403.1999511719</ele>
        <time>2019-02-06T13:34:36.000Z</time>
      </trkpt>
      <trkpt lat="45.91499" lon="6.51243">
        <ele>2403.3999023438</ele>
        <time>2019-02-06T13:34:37.000Z</time>
      </trkpt>
      <trkpt lat="45.91502" lon="6.51243">
        <ele>2404.3999023438</ele>
        <time>2019-02-06T13:34:41.000Z</time>
      </trkpt>
      <trkpt lat="45.91503" lon="6.51243">
        <ele>2405</ele>
        <time>2019-02-06T13:34:44.000Z</time>
      </trkpt>
      <trkpt lat="45.91505" lon="6.51242">
        <ele>2405.6000976562</ele>
        <time>2019-02-06T13:34:48.000Z</time>
      </trkpt>
      <trkpt lat="45.91508" lon="6.51243">
        <ele>2406.8000488281</ele>
        <time>2019-02-06T13:34:52.000Z</time>
      </trkpt>
      <trkpt lat="45.91513" lon="6.51242">
        <ele>2407.8000488281</ele>
        <time>2019-02-06T13:34:59.000Z</time>
      </trkpt>
      <trkpt lat="45.91514" lon="6.51242">
        <ele>2407.8000488281</ele>
        <time>2019-02-06T13:35:00.000Z</time>
      </trkpt>
      <trkpt lat="45.91516" lon="6.51241">
        <ele>2408.8000488281</ele>
        <time>2019-02-06T13:35:06.000Z</time>
      </trkpt>
      <trkpt lat="45.91516" lon="6.51241">
        <ele>2409.1999511719</ele>
        <time>2019-02-06T13:35:07.000Z</time>
      </trkpt>
      <trkpt lat="45.9152" lon="6.51239">
        <ele>2409.8000488281</ele>
        <time>2019-02-06T13:35:15.000Z</time>
      </trkpt>
      <trkpt lat="45.91521" lon="6.51239">
        <ele>2411</ele>
        <time>2019-02-06T13:35:17.000Z</time>
      </trkpt>
      <trkpt lat="45.91523" lon="6.51239">
        <ele>2412.1999511719</ele>
        <time>2019-02-06T13:35:20.000Z</time>
      </trkpt>
      <trkpt lat="45.91524" lon="6.51239">
        <ele>2412.6000976562</ele>
        <time>2019-02-06T13:35:22.000Z</time>
      </trkpt>
      <trkpt lat="45.91525" lon="6.51239">
        <ele>2413.6000976562</ele>
        <time>2019-02-06T13:35:29.000Z</time>
      </trkpt>
      <trkpt lat="45.91525" lon="6.51239">
        <ele>2413.1999511719</ele>
        <time>2019-02-06T13:35:32.000Z</time>
      </trkpt>
      <trkpt lat="45.91525" lon="6.5124">
        <ele>2414.6000976562</ele>
        <time>2019-02-06T13:35:38.000Z</time>
      </trkpt>
      <trkpt lat="45.91525" lon="6.5124">
        <ele>2414.6000976562</ele>
        <time>2019-02-06T13:35:40.000Z</time>
      </trkpt>
      <trkpt lat="45.91525" lon="6.51242">
        <ele>2414.1999511719</ele>
        <time>2019-02-06T13:35:53.000Z</time>
      </trkpt>
      <trkpt lat="45.91525" lon="6.51247">
        <ele>2414.3999023438</ele>
        <time>2019-02-06T13:35:58.000Z</time>
      </trkpt>
      <trkpt lat="45.91525" lon="6.51253">
        <ele>2415.8000488281</ele>
        <time>2019-02-06T13:36:02.000Z</time>
      </trkpt>
      <trkpt lat="45.91524" lon="6.51257">
        <ele>2417</ele>
        <time>2019-02-06T13:36:08.000Z</time>
      </trkpt>
      <trkpt lat="45.91524" lon="6.51257">
        <ele>2417.3999023438</ele>
        <time>2019-02-06T13:36:09.000Z</time>
      </trkpt>
      <trkpt lat="45.91523" lon="6.5126">
        <ele>2418.1999511719</ele>
        <time>2019-02-06T13:36:12.000Z</time>
      </trkpt>
      <trkpt lat="45.91523" lon="6.51262">
        <ele>2418.6000976562</ele>
        <time>2019-02-06T13:36:14.000Z</time>
      </trkpt>
      <trkpt lat="45.91521" lon="6.51266">
        <ele>2419.1999511719</ele>
        <time>2019-02-06T13:36:18.000Z</time>
      </trkpt>
      <trkpt lat="45.9152" lon="6.51267">
        <ele>2419.6000976562</ele>
        <time>2019-02-06T13:36:21.000Z</time>
      </trkpt>
      <trkpt lat="45.91521" lon="6.51264">
        <ele>2419.8000488281</ele>
        <time>2019-02-06T13:36:26.000Z</time>
      </trkpt>
      <trkpt lat="45.91525" lon="6.51262">
        <ele>2420.3999023438</ele>
        <time>2019-02-06T13:36:31.000Z</time>
      </trkpt>
      <trkpt lat="45.91526" lon="6.5126">
        <ele>2421</ele>
        <time>2019-02-06T13:36:37.000Z</time>
      </trkpt>
      <trkpt lat="45.91527" lon="6.5126">
        <ele>2421.3999023438</ele>
        <time>2019-02-06T13:36:38.000Z</time>
      </trkpt>
      <trkpt lat="45.91529" lon="6.51258">
        <ele>2422.3999023438</ele>
        <time>2019-02-06T13:36:43.000Z</time>
      </trkpt>
      <trkpt lat="45.91529" lon="6.51258">
        <ele>2422.8000488281</ele>
        <time>2019-02-06T13:36:44.000Z</time>
      </trkpt>
      <trkpt lat="45.91532" lon="6.51256">
        <ele>2423.8000488281</ele>
        <time>2019-02-06T13:36:50.000Z</time>
      </trkpt>
      <trkpt lat="45.91533" lon="6.51255">
        <ele>2424.1999511719</ele>
        <time>2019-02-06T13:36:56.000Z</time>
      </trkpt>
      <trkpt lat="45.91534" lon="6.51257">
        <ele>2425</ele>
        <time>2019-02-06T13:37:01.000Z</time>
      </trkpt>
      <trkpt lat="45.91534" lon="6.51257">
        <ele>2426.6000976562</ele>
        <time>2019-02-06T13:37:04.000Z</time>
      </trkpt>
      <trkpt lat="45.91534" lon="6.51257">
        <ele>2427.6000976562</ele>
        <time>2019-02-06T13:37:06.000Z</time>
      </trkpt>
      <trkpt lat="45.91534" lon="6.51261">
        <ele>2426.8000488281</ele>
        <time>2019-02-06T13:37:11.000Z</time>
      </trkpt>
      <trkpt lat="45.91534" lon="6.51262">
        <ele>2426.3999023438</ele>
        <time>2019-02-06T13:37:12.000Z</time>
      </trkpt>
      <trkpt lat="45.91534" lon="6.51264">
        <ele>2427</ele>
        <time>2019-02-06T13:37:16.000Z</time>
      </trkpt>
      <trkpt lat="45.91534" lon="6.51267">
        <ele>2427.6000976562</ele>
        <time>2019-02-06T13:37:19.000Z</time>
      </trkpt>
      <trkpt lat="45.91534" lon="6.51268">
        <ele>2428</ele>
        <time>2019-02-06T13:37:21.000Z</time>
      </trkpt>
      <trkpt lat="45.91533" lon="6.5127">
        <ele>2428.8000488281</ele>
        <time>2019-02-06T13:37:24.000Z</time>
      </trkpt>
      <trkpt lat="45.91533" lon="6.5127">
        <ele>2429</ele>
        <time>2019-02-06T13:37:25.000Z</time>
      </trkpt>
      <trkpt lat="45.9153" lon="6.51273">
        <ele>2430</ele>
        <time>2019-02-06T13:37:29.000Z</time>
      </trkpt>
      <trkpt lat="45.9153" lon="6.51273">
        <ele>2430.1999511719</ele>
        <time>2019-02-06T13:37:30.000Z</time>
      </trkpt>
      <trkpt lat="45.91532" lon="6.51273">
        <ele>2430.1999511719</ele>
        <time>2019-02-06T13:37:37.000Z</time>
      </trkpt>
      <trkpt lat="45.91533" lon="6.51272">
        <ele>2431.3999023438</ele>
        <time>2019-02-06T13:37:40.000Z</time>
      </trkpt>
      <trkpt lat="45.91536" lon="6.51272">
        <ele>2432.1999511719</ele>
        <time>2019-02-06T13:37:44.000Z</time>
      </trkpt>
      <trkpt lat="45.91537" lon="6.51272">
        <ele>2432.3999023438</ele>
        <time>2019-02-06T13:37:45.000Z</time>
      </trkpt>
      <trkpt lat="45.91539" lon="6.51271">
        <ele>2433</ele>
        <time>2019-02-06T13:37:49.000Z</time>
      </trkpt>
      <trkpt lat="45.91541" lon="6.51271">
        <ele>2433.3999023438</ele>
        <time>2019-02-06T13:37:54.000Z</time>
      </trkpt>
      <trkpt lat="45.91542" lon="6.5127">
        <ele>2433.6000976562</ele>
        <time>2019-02-06T13:37:55.000Z</time>
      </trkpt>
      <trkpt lat="45.91543" lon="6.5127">
        <ele>2434.6000976562</ele>
        <time>2019-02-06T13:38:02.000Z</time>
      </trkpt>
      <trkpt lat="45.91545" lon="6.51267">
        <ele>2435.8000488281</ele>
        <time>2019-02-06T13:38:06.000Z</time>
      </trkpt>
      <trkpt lat="45.91545" lon="6.51268">
        <ele>2436</ele>
        <time>2019-02-06T13:38:09.000Z</time>
      </trkpt>
      <trkpt lat="45.91545" lon="6.51268">
        <ele>2437</ele>
        <time>2019-02-06T13:38:14.000Z</time>
      </trkpt>
      <trkpt lat="45.91546" lon="6.51269">
        <ele>2437.3999023438</ele>
        <time>2019-02-06T13:38:16.000Z</time>
      </trkpt>
      <trkpt lat="45.91547" lon="6.51273">
        <ele>2436.8000488281</ele>
        <time>2019-02-06T13:38:21.000Z</time>
      </trkpt>
      <trkpt lat="45.91547" lon="6.51277">
        <ele>2438.3999023438</ele>
        <time>2019-02-06T13:38:27.000Z</time>
      </trkpt>
      <trkpt lat="45.91547" lon="6.5128">
        <ele>2439.3999023438</ele>
        <time>2019-02-06T13:38:33.000Z</time>
      </trkpt>
      <trkpt lat="45.91547" lon="6.51281">
        <ele>2439.6000976562</ele>
        <time>2019-02-06T13:38:34.000Z</time>
      </trkpt>
      <trkpt lat="45.91547" lon="6.51281">
        <ele>2440.3999023438</ele>
        <time>2019-02-06T13:38:38.000Z</time>
      </trkpt>
      <trkpt lat="45.91547" lon="6.51281">
        <ele>2440.1999511719</ele>
        <time>2019-02-06T13:38:42.000Z</time>
      </trkpt>
      <trkpt lat="45.9155" lon="6.51278">
        <ele>2440.8000488281</ele>
        <time>2019-02-06T13:38:47.000Z</time>
      </trkpt>
      <trkpt lat="45.91553" lon="6.51277">
        <ele>2440.8000488281</ele>
        <time>2019-02-06T13:38:52.000Z</time>
      </trkpt>
      <trkpt lat="45.91553" lon="6.51277">
        <ele>2441.1999511719</ele>
        <time>2019-02-06T13:38:54.000Z</time>
      </trkpt>
      <trkpt lat="45.91554" lon="6.51276">
        <ele>2441.6000976562</ele>
        <time>2019-02-06T13:38:57.000Z</time>
      </trkpt>
      <trkpt lat="45.91556" lon="6.51275">
        <ele>2442.8000488281</ele>
        <time>2019-02-06T13:39:02.000Z</time>
      </trkpt>
      <trkpt lat="45.91556" lon="6.51275">
        <ele>2444</ele>
        <time>2019-02-06T13:39:04.000Z</time>
      </trkpt>
      <trkpt lat="45.91556" lon="6.51274">
        <ele>2445.1999511719</ele>
        <time>2019-02-06T13:39:07.000Z</time>
      </trkpt>
      <trkpt lat="45.91557" lon="6.51273">
        <ele>2445.3999023438</ele>
        <time>2019-02-06T13:39:08.000Z</time>
      </trkpt>
      <trkpt lat="45.91558" lon="6.51273">
        <ele>2445.3999023438</ele>
        <time>2019-02-06T13:39:14.000Z</time>
      </trkpt>
      <trkpt lat="45.91558" lon="6.51273">
        <ele>2446.3999023438</ele>
        <time>2019-02-06T13:39:18.000Z</time>
      </trkpt>
      <trkpt lat="45.9156" lon="6.51272">
        <ele>2447.6000976562</ele>
        <time>2019-02-06T13:39:24.000Z</time>
      </trkpt>
      <trkpt lat="45.91564" lon="6.51271">
        <ele>2448.1999511719</ele>
        <time>2019-02-06T13:39:31.000Z</time>
      </trkpt>
      <trkpt lat="45.91564" lon="6.51271">
        <ele>2448.6000976562</ele>
        <time>2019-02-06T13:39:34.000Z</time>
      </trkpt>
      <trkpt lat="45.91564" lon="6.51271">
        <ele>2449.1999511719</ele>
        <time>2019-02-06T13:39:38.000Z</time>
      </trkpt>
      <trkpt lat="45.91564" lon="6.51272">
        <ele>2449.6000976562</ele>
        <time>2019-02-06T13:39:41.000Z</time>
      </trkpt>
      <trkpt lat="45.91564" lon="6.51273">
        <ele>2449.3999023438</ele>
        <time>2019-02-06T13:39:43.000Z</time>
      </trkpt>
      <trkpt lat="45.91565" lon="6.51276">
        <ele>2450.3999023438</ele>
        <time>2019-02-06T13:39:48.000Z</time>
      </trkpt>
      <trkpt lat="45.91566" lon="6.51276">
        <ele>2450.8000488281</ele>
        <time>2019-02-06T13:39:50.000Z</time>
      </trkpt>
      <trkpt lat="45.91567" lon="6.51275">
        <ele>2450.8000488281</ele>
        <time>2019-02-06T13:39:54.000Z</time>
      </trkpt>
      <trkpt lat="45.91571" lon="6.51273">
        <ele>2451</ele>
        <time>2019-02-06T13:40:01.000Z</time>
      </trkpt>
      <trkpt lat="45.91574" lon="6.51274">
        <ele>2451</ele>
        <time>2019-02-06T13:40:06.000Z</time>
      </trkpt>
      <trkpt lat="45.91576" lon="6.51275">
        <ele>2452</ele>
        <time>2019-02-06T13:40:09.000Z</time>
      </trkpt>
      <trkpt lat="45.91578" lon="6.51275">
        <ele>2453.3999023438</ele>
        <time>2019-02-06T13:40:13.000Z</time>
      </trkpt>
      <trkpt lat="45.91579" lon="6.51274">
        <ele>2454.6000976562</ele>
        <time>2019-02-06T13:40:17.000Z</time>
      </trkpt>
      <trkpt lat="45.9158" lon="6.51274">
        <ele>2454.8000488281</ele>
        <time>2019-02-06T13:40:20.000Z</time>
      </trkpt>
      <trkpt lat="45.91581" lon="6.51274">
        <ele>2455.8000488281</ele>
        <time>2019-02-06T13:40:26.000Z</time>
      </trkpt>
      <trkpt lat="45.91581" lon="6.51274">
        <ele>2456.1999511719</ele>
        <time>2019-02-06T13:40:27.000Z</time>
      </trkpt>
      <trkpt lat="45.9158" lon="6.51274">
        <ele>2456.1999511719</ele>
        <time>2019-02-06T13:40:33.000Z</time>
      </trkpt>
      <trkpt lat="45.91581" lon="6.51276">
        <ele>2456.3999023438</ele>
        <time>2019-02-06T13:40:38.000Z</time>
      </trkpt>
      <trkpt lat="45.91582" lon="6.51279">
        <ele>2457</ele>
        <time>2019-02-06T13:40:44.000Z</time>
      </trkpt>
      <trkpt lat="45.91583" lon="6.51279">
        <ele>2457</ele>
        <time>2019-02-06T13:40:45.000Z</time>
      </trkpt>
      <trkpt lat="45.91584" lon="6.5128">
        <ele>2458.3999023438</ele>
        <time>2019-02-06T13:40:49.000Z</time>
      </trkpt>
      <trkpt lat="45.91585" lon="6.5128">
        <ele>2459</ele>
        <time>2019-02-06T13:40:51.000Z</time>
      </trkpt>
      <trkpt lat="45.91586" lon="6.51279">
        <ele>2459.6000976562</ele>
        <time>2019-02-06T13:40:53.000Z</time>
      </trkpt>
      <trkpt lat="45.91588" lon="6.51278">
        <ele>2460.6000976562</ele>
        <time>2019-02-06T13:40:57.000Z</time>
      </trkpt>
      <trkpt lat="45.91588" lon="6.51278">
        <ele>2461</ele>
        <time>2019-02-06T13:40:58.000Z</time>
      </trkpt>
      <trkpt lat="45.91588" lon="6.51278">
        <ele>2461.8000488281</ele>
        <time>2019-02-06T13:41:08.000Z</time>
      </trkpt>
      <trkpt lat="45.91588" lon="6.51278">
        <ele>2462</ele>
        <time>2019-02-06T13:41:11.000Z</time>
      </trkpt>
      <trkpt lat="45.91588" lon="6.51277">
        <ele>2462.3999023438</ele>
        <time>2019-02-06T13:41:23.000Z</time>
      </trkpt>
      <trkpt lat="45.9159" lon="6.51276">
        <ele>2462.8000488281</ele>
        <time>2019-02-06T13:41:27.000Z</time>
      </trkpt>
      <trkpt lat="45.9159" lon="6.51277">
        <ele>2462.8000488281</ele>
        <time>2019-02-06T13:41:29.000Z</time>
      </trkpt>
      <trkpt lat="45.9159" lon="6.51277">
        <ele>2462.8000488281</ele>
        <time>2019-02-06T13:41:39.000Z</time>
      </trkpt>
      <trkpt lat="45.9159" lon="6.51277">
        <ele>2460.3999023438</ele>
        <time>2019-02-06T13:41:45.000Z</time>
      </trkpt>
      <trkpt lat="45.9159" lon="6.51277">
        <ele>2459</ele>
        <time>2019-02-06T13:41:47.000Z</time>
      </trkpt>
      <trkpt lat="45.9159" lon="6.51277">
        <ele>2460</ele>
        <time>2019-02-06T13:41:50.000Z</time>
      </trkpt>
      <trkpt lat="45.9159" lon="6.51277">
        <ele>2461</ele>
        <time>2019-02-06T13:41:51.000Z</time>
      </trkpt>
      <trkpt lat="45.9159" lon="6.51277">
        <ele>2462.1999511719</ele>
        <time>2019-02-06T13:41:53.000Z</time>
      </trkpt>
      <trkpt lat="45.91591" lon="6.51277">
        <ele>2463.3999023438</ele>
        <time>2019-02-06T13:41:55.000Z</time>
      </trkpt>
      <trkpt lat="45.91591" lon="6.51277">
        <ele>2463.6000976562</ele>
        <time>2019-02-06T13:41:58.000Z</time>
      </trkpt>
      <trkpt lat="45.91591" lon="6.51276">
        <ele>2462.3999023438</ele>
        <time>2019-02-06T13:42:06.000Z</time>
      </trkpt>
      <trkpt lat="45.91591" lon="6.51276">
        <ele>2462.6000976562</ele>
        <time>2019-02-06T13:42:09.000Z</time>
      </trkpt>
      <trkpt lat="45.91591" lon="6.51276">
        <ele>2463.8000488281</ele>
        <time>2019-02-06T13:42:12.000Z</time>
      </trkpt>
      <trkpt lat="45.91591" lon="6.51276">
        <ele>2462.8000488281</ele>
        <time>2019-02-06T13:42:21.000Z</time>
      </trkpt>
      <trkpt lat="45.91591" lon="6.51275">
        <ele>2462.8000488281</ele>
        <time>2019-02-06T13:42:25.000Z</time>
      </trkpt>
      <trkpt lat="45.91591" lon="6.51275">
        <ele>2462.8000488281</ele>
        <time>2019-02-06T13:42:27.000Z</time>
      </trkpt>
      <trkpt lat="45.91591" lon="6.51274">
        <ele>2463.1999511719</ele>
        <time>2019-02-06T13:42:38.000Z</time>
      </trkpt>
      <trkpt lat="45.91591" lon="6.51274">
        <ele>2462.6000976562</ele>
        <time>2019-02-06T13:42:49.000Z</time>
      </trkpt>
      <trkpt lat="45.91591" lon="6.51274">
        <ele>2461.8000488281</ele>
        <time>2019-02-06T13:42:58.000Z</time>
      </trkpt>
      <trkpt lat="45.91591" lon="6.51274">
        <ele>2462</ele>
        <time>2019-02-06T13:43:01.000Z</time>
      </trkpt>
      <trkpt lat="45.91591" lon="6.51274">
        <ele>2462.8000488281</ele>
        <time>2019-02-06T13:43:08.000Z</time>
      </trkpt>
      <trkpt lat="45.91591" lon="6.51274">
        <ele>2462.3999023438</ele>
        <time>2019-02-06T13:43:10.000Z</time>
      </trkpt>
      <trkpt lat="45.91591" lon="6.51274">
        <ele>2461.8000488281</ele>
        <time>2019-02-06T13:43:13.000Z</time>
      </trkpt>
      <trkpt lat="45.91591" lon="6.51274">
        <ele>2463</ele>
        <time>2019-02-06T13:43:16.000Z</time>
      </trkpt>
      <trkpt lat="45.91591" lon="6.51274">
        <ele>2462.3999023438</ele>
        <time>2019-02-06T13:43:24.000Z</time>
      </trkpt>
      <trkpt lat="45.91591" lon="6.51274">
        <ele>2462</ele>
        <time>2019-02-06T13:43:42.000Z</time>
      </trkpt>
      <trkpt lat="45.91591" lon="6.51274">
        <ele>2464</ele>
        <time>2019-02-06T13:43:51.000Z</time>
      </trkpt>
      <trkpt lat="45.91591" lon="6.51274">
        <ele>2463.6000976562</ele>
        <time>2019-02-06T13:43:53.000Z</time>
      </trkpt>
      <trkpt lat="45.91591" lon="6.51273">
        <ele>2463</ele>
        <time>2019-02-06T13:44:04.000Z</time>
      </trkpt>
      <trkpt lat="45.91591" lon="6.51273">
        <ele>2462.8000488281</ele>
        <time>2019-02-06T13:44:17.000Z</time>
      </trkpt>
      <trkpt lat="45.91591" lon="6.51273">
        <ele>2463.1999511719</ele>
        <time>2019-02-06T13:44:34.000Z</time>
      </trkpt>
      <trkpt lat="45.91591" lon="6.51273">
        <ele>2462.6000976562</ele>
        <time>2019-02-06T13:44:54.000Z</time>
      </trkpt>
      <trkpt lat="45.91591" lon="6.51273">
        <ele>2461.8000488281</ele>
        <time>2019-02-06T13:44:59.000Z</time>
      </trkpt>
      <trkpt lat="45.91591" lon="6.51273">
        <ele>2463</ele>
        <time>2019-02-06T13:45:03.000Z</time>
      </trkpt>
      <trkpt lat="45.91591" lon="6.51273">
        <ele>2463</ele>
        <time>2019-02-06T13:45:07.000Z</time>
      </trkpt>
      <trkpt lat="45.91591" lon="6.51272">
        <ele>2462.8000488281</ele>
        <time>2019-02-06T13:45:19.000Z</time>
      </trkpt>
      <trkpt lat="45.91591" lon="6.51272">
        <ele>2462.8000488281</ele>
        <time>2019-02-06T13:45:34.000Z</time>
      </trkpt>
      <trkpt lat="45.91591" lon="6.51272">
        <ele>2462.8000488281</ele>
        <time>2019-02-06T13:45:49.000Z</time>
      </trkpt>
      <trkpt lat="45.91591" lon="6.51271">
        <ele>2462.8000488281</ele>
        <time>2019-02-06T13:46:06.000Z</time>
      </trkpt>
      <trkpt lat="45.91591" lon="6.51271">
        <ele>2462.8000488281</ele>
        <time>2019-02-06T13:46:20.000Z</time>
      </trkpt>
      <trkpt lat="45.91591" lon="6.51271">
        <ele>2463</ele>
        <time>2019-02-06T13:46:33.000Z</time>
      </trkpt>
      <trkpt lat="45.91591" lon="6.5127">
        <ele>2462.8000488281</ele>
        <time>2019-02-06T13:46:44.000Z</time>
      </trkpt>
      <trkpt lat="45.91592" lon="6.51268">
        <ele>2462.8000488281</ele>
        <time>2019-02-06T13:46:56.000Z</time>
      </trkpt>
      <trkpt lat="45.91592" lon="6.51268">
        <ele>2462.6000976562</ele>
        <time>2019-02-06T13:47:08.000Z</time>
      </trkpt>
      <trkpt lat="45.91592" lon="6.51268">
        <ele>2462.8000488281</ele>
        <time>2019-02-06T13:47:22.000Z</time>
      </trkpt>
      <trkpt lat="45.91591" lon="6.5127">
        <ele>2462.8000488281</ele>
        <time>2019-02-06T13:47:35.000Z</time>
      </trkpt>
      <trkpt lat="45.91591" lon="6.5127">
        <ele>2463</ele>
        <time>2019-02-06T13:47:46.000Z</time>
      </trkpt>
      <trkpt lat="45.91591" lon="6.5127">
        <ele>2462.8000488281</ele>
        <time>2019-02-06T13:47:51.000Z</time>
      </trkpt>
      <trkpt lat="45.91591" lon="6.5127">
        <ele>2462.8000488281</ele>
        <time>2019-02-06T13:48:04.000Z</time>
      </trkpt>
      <trkpt lat="45.9159" lon="6.51271">
        <ele>2461.8000488281</ele>
        <time>2019-02-06T13:48:13.000Z</time>
      </trkpt>
      <trkpt lat="45.9159" lon="6.51271">
        <ele>2462</ele>
        <time>2019-02-06T13:48:15.000Z</time>
      </trkpt>
      <trkpt lat="45.9159" lon="6.51271">
        <ele>2463</ele>
        <time>2019-02-06T13:48:17.000Z</time>
      </trkpt>
      <trkpt lat="45.91589" lon="6.5127">
        <ele>2461.8000488281</ele>
        <time>2019-02-06T13:48:29.000Z</time>
      </trkpt>
      <trkpt lat="45.91589" lon="6.51271">
        <ele>2463</ele>
        <time>2019-02-06T13:48:32.000Z</time>
      </trkpt>
      <trkpt lat="45.91587" lon="6.51273">
        <ele>2464</ele>
        <time>2019-02-06T13:48:35.000Z</time>
      </trkpt>
      <trkpt lat="45.91587" lon="6.51274">
        <ele>2464.3999023438</ele>
        <time>2019-02-06T13:48:36.000Z</time>
      </trkpt>
      <trkpt lat="45.91587" lon="6.51274">
        <ele>2465.1999511719</ele>
        <time>2019-02-06T13:48:39.000Z</time>
      </trkpt>
      <trkpt lat="45.91587" lon="6.51274">
        <ele>2464.1999511719</ele>
        <time>2019-02-06T13:48:42.000Z</time>
      </trkpt>
      <trkpt lat="45.91587" lon="6.51274">
        <ele>2463</ele>
        <time>2019-02-06T13:48:44.000Z</time>
      </trkpt>
      <trkpt lat="45.91587" lon="6.51274">
        <ele>2462.6000976562</ele>
        <time>2019-02-06T13:48:49.000Z</time>
      </trkpt>
      <trkpt lat="45.91587" lon="6.51274">
        <ele>2462.6000976562</ele>
        <time>2019-02-06T13:49:03.000Z</time>
      </trkpt>
      <trkpt lat="45.91586" lon="6.51273">
        <ele>2462.8000488281</ele>
        <time>2019-02-06T13:49:17.000Z</time>
      </trkpt>
      <trkpt lat="45.91586" lon="6.51273">
        <ele>2462.8000488281</ele>
        <time>2019-02-06T13:49:32.000Z</time>
      </trkpt>
      <trkpt lat="45.91588" lon="6.51273">
        <ele>2462.8000488281</ele>
        <time>2019-02-06T13:49:38.000Z</time>
      </trkpt>
      <trkpt lat="45.91588" lon="6.51272">
        <ele>2464</ele>
        <time>2019-02-06T13:49:46.000Z</time>
      </trkpt>
      <trkpt lat="45.91588" lon="6.51272">
        <ele>2464.1999511719</ele>
        <time>2019-02-06T13:49:51.000Z</time>
      </trkpt>
      <trkpt lat="45.91587" lon="6.51272">
        <ele>2464.1999511719</ele>
        <time>2019-02-06T13:50:08.000Z</time>
      </trkpt>
      <trkpt lat="45.91586" lon="6.51273">
        <ele>2463.3999023438</ele>
        <time>2019-02-06T13:50:14.000Z</time>
      </trkpt>
      <trkpt lat="45.91585" lon="6.51274">
        <ele>2463</ele>
        <time>2019-02-06T13:50:18.000Z</time>
      </trkpt>
      <trkpt lat="45.91583" lon="6.51277">
        <ele>2462.6000976562</ele>
        <time>2019-02-06T13:50:24.000Z</time>
      </trkpt>
      <trkpt lat="45.91586" lon="6.51275">
        <ele>2462.1999511719</ele>
        <time>2019-02-06T13:50:33.000Z</time>
      </trkpt>
      <trkpt lat="45.91591" lon="6.51269">
        <ele>2462</ele>
        <time>2019-02-06T13:50:38.000Z</time>
      </trkpt>
      <trkpt lat="45.91592" lon="6.51267">
        <ele>2461.6000976562</ele>
        <time>2019-02-06T13:50:44.000Z</time>
      </trkpt>
      <trkpt lat="45.91593" lon="6.51265">
        <ele>2461.8000488281</ele>
        <time>2019-02-06T13:50:55.000Z</time>
      </trkpt>
      <trkpt lat="45.91571" lon="6.51301">
        <ele>2462</ele>
        <time>2019-02-06T13:51:07.000Z</time>
      </trkpt>
      <trkpt lat="45.91569" lon="6.51304">
        <ele>2462.1999511719</ele>
        <time>2019-02-06T13:51:20.000Z</time>
      </trkpt>
      <trkpt lat="45.9155" lon="6.51332">
        <ele>2462.1999511719</ele>
        <time>2019-02-06T13:51:33.000Z</time>
      </trkpt>
      <trkpt lat="45.9155" lon="6.51332">
        <ele>2462.1999511719</ele>
        <time>2019-02-06T13:51:46.000Z</time>
      </trkpt>
      <trkpt lat="45.9155" lon="6.51332">
        <ele>2462.1999511719</ele>
        <time>2019-02-06T13:51:57.000Z</time>
      </trkpt>
      <trkpt lat="45.9155" lon="6.51332">
        <ele>2462.1999511719</ele>
        <time>2019-02-06T13:52:07.000Z</time>
      </trkpt>
      <trkpt lat="45.91572" lon="6.51297">
        <ele>2462</ele>
        <time>2019-02-06T13:52:17.000Z</time>
      </trkpt>
      <trkpt lat="45.91572" lon="6.51297">
        <ele>2462</ele>
        <time>2019-02-06T13:52:31.000Z</time>
      </trkpt>
      <trkpt lat="45.91575" lon="6.51284">
        <ele>2462.3999023438</ele>
        <time>2019-02-06T13:52:37.000Z</time>
      </trkpt>
      <trkpt lat="45.91578" lon="6.51279">
        <ele>2463</ele>
        <time>2019-02-06T13:52:41.000Z</time>
      </trkpt>
      <trkpt lat="45.91578" lon="6.51279">
        <ele>2463.1999511719</ele>
        <time>2019-02-06T13:52:42.000Z</time>
      </trkpt>
      <trkpt lat="45.91585" lon="6.51264">
        <ele>2463.1999511719</ele>
        <time>2019-02-06T13:52:49.000Z</time>
      </trkpt>
      <trkpt lat="45.91585" lon="6.51264">
        <ele>2462.3999023438</ele>
        <time>2019-02-06T13:53:01.000Z</time>
      </trkpt>
      <trkpt lat="45.91585" lon="6.51264">
        <ele>2462.3999023438</ele>
        <time>2019-02-06T13:53:20.000Z</time>
      </trkpt>
      <trkpt lat="45.91586" lon="6.51266">
        <ele>2462.3999023438</ele>
        <time>2019-02-06T13:53:28.000Z</time>
      </trkpt>
      <trkpt lat="45.91586" lon="6.51267">
        <ele>2463.3999023438</ele>
        <time>2019-02-06T13:53:36.000Z</time>
      </trkpt>
      <trkpt lat="45.91587" lon="6.51267">
        <ele>2464.1999511719</ele>
        <time>2019-02-06T13:53:42.000Z</time>
      </trkpt>
      <trkpt lat="45.91587" lon="6.51267">
        <ele>2464.3999023438</ele>
        <time>2019-02-06T13:54:02.000Z</time>
      </trkpt>
      <trkpt lat="45.91587" lon="6.51267">
        <ele>2464.3999023438</ele>
        <time>2019-02-06T13:54:14.000Z</time>
      </trkpt>
      <trkpt lat="45.91585" lon="6.51268">
        <ele>2464.3999023438</ele>
        <time>2019-02-06T13:54:24.000Z</time>
      </trkpt>
      <trkpt lat="45.91585" lon="6.51267">
        <ele>2463.6000976562</ele>
        <time>2019-02-06T13:54:31.000Z</time>
      </trkpt>
      <trkpt lat="45.91586" lon="6.51271">
        <ele>2463.6000976562</ele>
        <time>2019-02-06T13:54:39.000Z</time>
      </trkpt>
      <trkpt lat="45.91586" lon="6.51274">
        <ele>2463.6000976562</ele>
        <time>2019-02-06T13:54:46.000Z</time>
      </trkpt>
      <trkpt lat="45.91586" lon="6.51274">
        <ele>2463.1999511719</ele>
        <time>2019-02-06T13:54:48.000Z</time>
      </trkpt>
      <trkpt lat="45.91588" lon="6.51277">
        <ele>2462.3999023438</ele>
        <time>2019-02-06T13:54:54.000Z</time>
      </trkpt>
      <trkpt lat="45.91588" lon="6.51277">
        <ele>2462.1999511719</ele>
        <time>2019-02-06T13:54:55.000Z</time>
      </trkpt>
      <trkpt lat="45.9159" lon="6.5128">
        <ele>2461.1999511719</ele>
        <time>2019-02-06T13:55:00.000Z</time>
      </trkpt>
      <trkpt lat="45.9159" lon="6.51282">
        <ele>2461</ele>
        <time>2019-02-06T13:55:01.000Z</time>
      </trkpt>
      <trkpt lat="45.9159" lon="6.51286">
        <ele>2460</ele>
        <time>2019-02-06T13:55:05.000Z</time>
      </trkpt>
      <trkpt lat="45.9159" lon="6.51287">
        <ele>2459</ele>
        <time>2019-02-06T13:55:08.000Z</time>
      </trkpt>
      <trkpt lat="45.91591" lon="6.51287">
        <ele>2459</ele>
        <time>2019-02-06T13:55:21.000Z</time>
      </trkpt>
      <trkpt lat="45.91591" lon="6.51287">
        <ele>2458.8000488281</ele>
        <time>2019-02-06T13:55:28.000Z</time>
      </trkpt>
      <trkpt lat="45.91591" lon="6.51287">
        <ele>2459</ele>
        <time>2019-02-06T13:55:35.000Z</time>
      </trkpt>
      <trkpt lat="45.91591" lon="6.51284">
        <ele>2458.8000488281</ele>
        <time>2019-02-06T13:55:40.000Z</time>
      </trkpt>
      <trkpt lat="45.91591" lon="6.51282">
        <ele>2459.6000976562</ele>
        <time>2019-02-06T13:55:45.000Z</time>
      </trkpt>
      <trkpt lat="45.91591" lon="6.51282">
        <ele>2460</ele>
        <time>2019-02-06T13:55:49.000Z</time>
      </trkpt>
      <trkpt lat="45.91591" lon="6.51282">
        <ele>2461.1999511719</ele>
        <time>2019-02-06T13:55:52.000Z</time>
      </trkpt>
      <trkpt lat="45.91591" lon="6.51282">
        <ele>2461.6000976562</ele>
        <time>2019-02-06T13:55:53.000Z</time>
      </trkpt>
      <trkpt lat="45.91588" lon="6.5128">
        <ele>2462.3999023438</ele>
        <time>2019-02-06T13:55:57.000Z</time>
      </trkpt>
      <trkpt lat="45.91588" lon="6.5128">
        <ele>2463.1999511719</ele>
        <time>2019-02-06T13:55:59.000Z</time>
      </trkpt>
      <trkpt lat="45.91588" lon="6.5128">
        <ele>2463.6000976562</ele>
        <time>2019-02-06T13:56:01.000Z</time>
      </trkpt>
      <trkpt lat="45.91588" lon="6.5128">
        <ele>2464.1999511719</ele>
        <time>2019-02-06T13:56:07.000Z</time>
      </trkpt>
      <trkpt lat="45.91587" lon="6.51276">
        <ele>2463.6000976562</ele>
        <time>2019-02-06T13:56:13.000Z</time>
      </trkpt>
      <trkpt lat="45.91587" lon="6.51276">
        <ele>2463.6000976562</ele>
        <time>2019-02-06T13:56:29.000Z</time>
      </trkpt>
      <trkpt lat="45.91587" lon="6.51276">
        <ele>2463.6000976562</ele>
        <time>2019-02-06T13:56:42.000Z</time>
      </trkpt>
      <trkpt lat="45.91587" lon="6.51275">
        <ele>2462.1999511719</ele>
        <time>2019-02-06T13:56:51.000Z</time>
      </trkpt>
      <trkpt lat="45.91587" lon="6.51275">
        <ele>2462.8000488281</ele>
        <time>2019-02-06T13:56:55.000Z</time>
      </trkpt>
      <trkpt lat="45.91587" lon="6.51275">
        <ele>2463.1999511719</ele>
        <time>2019-02-06T13:57:15.000Z</time>
      </trkpt>
      <trkpt lat="45.91587" lon="6.51275">
        <ele>2463.1999511719</ele>
        <time>2019-02-06T13:57:19.000Z</time>
      </trkpt>
      <trkpt lat="45.91588" lon="6.51275">
        <ele>2463.3999023438</ele>
        <time>2019-02-06T13:57:34.000Z</time>
      </trkpt>
      <trkpt lat="45.91588" lon="6.51275">
        <ele>2463.6000976562</ele>
        <time>2019-02-06T13:57:52.000Z</time>
      </trkpt>
      <trkpt lat="45.91588" lon="6.51275">
        <ele>2463.3999023438</ele>
        <time>2019-02-06T13:58:06.000Z</time>
      </trkpt>
      <trkpt lat="45.91588" lon="6.51274">
        <ele>2463.3999023438</ele>
        <time>2019-02-06T13:58:21.000Z</time>
      </trkpt>
      <trkpt lat="45.91588" lon="6.51274">
        <ele>2463.3999023438</ele>
        <time>2019-02-06T13:58:41.000Z</time>
      </trkpt>
      <trkpt lat="45.91588" lon="6.51274">
        <ele>2463.3999023438</ele>
        <time>2019-02-06T13:58:58.000Z</time>
      </trkpt>
      <trkpt lat="45.91588" lon="6.51274">
        <ele>2463.3999023438</ele>
        <time>2019-02-06T13:59:13.000Z</time>
      </trkpt>
      <trkpt lat="45.91588" lon="6.51274">
        <ele>2463.3999023438</ele>
        <time>2019-02-06T13:59:25.000Z</time>
      </trkpt>
      <trkpt lat="45.91588" lon="6.51273">
        <ele>2463.3999023438</ele>
        <time>2019-02-06T13:59:42.000Z</time>
      </trkpt>
      <trkpt lat="45.91588" lon="6.51273">
        <ele>2464.6000976562</ele>
        <time>2019-02-06T13:59:46.000Z</time>
      </trkpt>
      <trkpt lat="45.91588" lon="6.51273">
        <ele>2464.3999023438</ele>
        <time>2019-02-06T13:59:50.000Z</time>
      </trkpt>
      <trkpt lat="45.91588" lon="6.51273">
        <ele>2464</ele>
        <time>2019-02-06T14:00:08.000Z</time>
      </trkpt>
      <trkpt lat="45.91589" lon="6.51273">
        <ele>2464</ele>
        <time>2019-02-06T14:00:25.000Z</time>
      </trkpt>
      <trkpt lat="45.91589" lon="6.51273">
        <ele>2464</ele>
        <time>2019-02-06T14:00:39.000Z</time>
      </trkpt>
      <trkpt lat="45.91589" lon="6.51273">
        <ele>2463.8000488281</ele>
        <time>2019-02-06T14:00:51.000Z</time>
      </trkpt>
      <trkpt lat="45.91587" lon="6.51269">
        <ele>2464</ele>
        <time>2019-02-06T14:01:03.000Z</time>
      </trkpt>
      <trkpt lat="45.91587" lon="6.51269">
        <ele>2464</ele>
        <time>2019-02-06T14:01:17.000Z</time>
      </trkpt>
      <trkpt lat="45.91587" lon="6.51269">
        <ele>2464</ele>
        <time>2019-02-06T14:01:37.000Z</time>
      </trkpt>
      <trkpt lat="45.91587" lon="6.51269">
        <ele>2464</ele>
        <time>2019-02-06T14:01:49.000Z</time>
      </trkpt>
      <trkpt lat="45.91587" lon="6.51269">
        <ele>2463.6000976562</ele>
        <time>2019-02-06T14:01:52.000Z</time>
      </trkpt>
      <trkpt lat="45.91586" lon="6.51269">
        <ele>2464</ele>
        <time>2019-02-06T14:01:55.000Z</time>
      </trkpt>
      <trkpt lat="45.91585" lon="6.51267">
        <ele>2463.6000976562</ele>
        <time>2019-02-06T14:02:03.000Z</time>
      </trkpt>
      <trkpt lat="45.91585" lon="6.51267">
        <ele>2463.8000488281</ele>
        <time>2019-02-06T14:02:12.000Z</time>
      </trkpt>
      <trkpt lat="45.91584" lon="6.51265">
        <ele>2463.3999023438</ele>
        <time>2019-02-06T14:02:22.000Z</time>
      </trkpt>
      <trkpt lat="45.91584" lon="6.51265">
        <ele>2463.3999023438</ele>
        <time>2019-02-06T14:02:40.000Z</time>
      </trkpt>
      <trkpt lat="45.91583" lon="6.51267">
        <ele>2463.6000976562</ele>
        <time>2019-02-06T14:02:48.000Z</time>
      </trkpt>
      <trkpt lat="45.91585" lon="6.51269">
        <ele>2463.3999023438</ele>
        <time>2019-02-06T14:02:54.000Z</time>
      </trkpt>
      <trkpt lat="45.91586" lon="6.51268">
        <ele>2464</ele>
        <time>2019-02-06T14:03:04.000Z</time>
      </trkpt>
      <trkpt lat="45.91586" lon="6.51268">
        <ele>2464.6000976562</ele>
        <time>2019-02-06T14:03:08.000Z</time>
      </trkpt>
      <trkpt lat="45.91586" lon="6.51268">
        <ele>2465.1999511719</ele>
        <time>2019-02-06T14:03:20.000Z</time>
      </trkpt>
      <trkpt lat="45.91586" lon="6.51268">
        <ele>2464.6000976562</ele>
        <time>2019-02-06T14:03:35.000Z</time>
      </trkpt>
      <trkpt lat="45.91586" lon="6.51268">
        <ele>2464.6000976562</ele>
        <time>2019-02-06T14:03:51.000Z</time>
      </trkpt>
      <trkpt lat="45.91587" lon="6.51272">
        <ele>2464.6000976562</ele>
        <time>2019-02-06T14:04:03.000Z</time>
      </trkpt>
      <trkpt lat="45.91585" lon="6.51277">
        <ele>2463.3999023438</ele>
        <time>2019-02-06T14:04:09.000Z</time>
      </trkpt>
      <trkpt lat="45.91585" lon="6.51277">
        <ele>2463.3999023438</ele>
        <time>2019-02-06T14:04:10.000Z</time>
      </trkpt>
      <trkpt lat="45.91585" lon="6.51277">
        <ele>2462.6000976562</ele>
        <time>2019-02-06T14:04:21.000Z</time>
      </trkpt>
      <trkpt lat="45.91585" lon="6.51277">
        <ele>2462.3999023438</ele>
        <time>2019-02-06T14:04:24.000Z</time>
      </trkpt>
      <trkpt lat="45.91586" lon="6.51276">
        <ele>2462</ele>
        <time>2019-02-06T14:04:31.000Z</time>
      </trkpt>
      <trkpt lat="45.91589" lon="6.51274">
        <ele>2461.3999023438</ele>
        <time>2019-02-06T14:04:36.000Z</time>
      </trkpt>
      <trkpt lat="45.9159" lon="6.51273">
        <ele>2461.3999023438</ele>
        <time>2019-02-06T14:04:37.000Z</time>
      </trkpt>
      <trkpt lat="45.91591" lon="6.51272">
        <ele>2461.1999511719</ele>
        <time>2019-02-06T14:04:38.000Z</time>
      </trkpt>
      <trkpt lat="45.91594" lon="6.5127">
        <ele>2460</ele>
        <time>2019-02-06T14:04:41.000Z</time>
      </trkpt>
      <trkpt lat="45.91597" lon="6.51269">
        <ele>2459</ele>
        <time>2019-02-06T14:04:44.000Z</time>
      </trkpt>
      <trkpt lat="45.91601" lon="6.51267">
        <ele>2458</ele>
        <time>2019-02-06T14:04:46.000Z</time>
      </trkpt>
      <trkpt lat="45.91606" lon="6.51265">
        <ele>2456.1999511719</ele>
        <time>2019-02-06T14:04:49.000Z</time>
      </trkpt>
      <trkpt lat="45.91609" lon="6.51262">
        <ele>2454.8000488281</ele>
        <time>2019-02-06T14:04:51.000Z</time>
      </trkpt>
      <trkpt lat="45.91612" lon="6.51259">
        <ele>2453.3999023438</ele>
        <time>2019-02-06T14:04:53.000Z</time>
      </trkpt>
      <trkpt lat="45.91614" lon="6.51256">
        <ele>2451.3999023438</ele>
        <time>2019-02-06T14:04:55.000Z</time>
      </trkpt>
      <trkpt lat="45.91618" lon="6.51254">
        <ele>2450</ele>
        <time>2019-02-06T14:04:57.000Z</time>
      </trkpt>
      <trkpt lat="45.91619" lon="6.51253">
        <ele>2449.1999511719</ele>
        <time>2019-02-06T14:04:58.000Z</time>
      </trkpt>
      <trkpt lat="45.91622" lon="6.51253">
        <ele>2448.1999511719</ele>
        <time>2019-02-06T14:04:59.000Z</time>
      </trkpt>
      <trkpt lat="45.91624" lon="6.51254">
        <ele>2446.6000976562</ele>
        <time>2019-02-06T14:05:01.000Z</time>
      </trkpt>
      <trkpt lat="45.91626" lon="6.51253">
        <ele>2445</ele>
        <time>2019-02-06T14:05:03.000Z</time>
      </trkpt>
      <trkpt lat="45.91626" lon="6.51254">
        <ele>2444.1999511719</ele>
        <time>2019-02-06T14:05:04.000Z</time>
      </trkpt>
      <trkpt lat="45.91626" lon="6.51254">
        <ele>2443.6000976562</ele>
        <time>2019-02-06T14:05:05.000Z</time>
      </trkpt>
      <trkpt lat="45.91627" lon="6.51253">
        <ele>2442.1999511719</ele>
        <time>2019-02-06T14:05:08.000Z</time>
      </trkpt>
      <trkpt lat="45.91628" lon="6.51253">
        <ele>2441</ele>
        <time>2019-02-06T14:05:10.000Z</time>
      </trkpt>
      <trkpt lat="45.9163" lon="6.51253">
        <ele>2439.8000488281</ele>
        <time>2019-02-06T14:05:12.000Z</time>
      </trkpt>
      <trkpt lat="45.9163" lon="6.51252">
        <ele>2439.3999023438</ele>
        <time>2019-02-06T14:05:13.000Z</time>
      </trkpt>
      <trkpt lat="45.91631" lon="6.51251">
        <ele>2438.8000488281</ele>
        <time>2019-02-06T14:05:14.000Z</time>
      </trkpt>
      <trkpt lat="45.91632" lon="6.51251">
        <ele>2437.6000976562</ele>
        <time>2019-02-06T14:05:16.000Z</time>
      </trkpt>
      <trkpt lat="45.91632" lon="6.51254">
        <ele>2436.1999511719</ele>
        <time>2019-02-06T14:05:18.000Z</time>
      </trkpt>
      <trkpt lat="45.91633" lon="6.51256">
        <ele>2434.6000976562</ele>
        <time>2019-02-06T14:05:19.000Z</time>
      </trkpt>
      <trkpt lat="45.91633" lon="6.51258">
        <ele>2434</ele>
        <time>2019-02-06T14:05:20.000Z</time>
      </trkpt>
      <trkpt lat="45.91635" lon="6.51257">
        <ele>2433.3999023438</ele>
        <time>2019-02-06T14:05:22.000Z</time>
      </trkpt>
      <trkpt lat="45.91636" lon="6.51256">
        <ele>2433.1999511719</ele>
        <time>2019-02-06T14:05:23.000Z</time>
      </trkpt>
      <trkpt lat="45.91638" lon="6.51255">
        <ele>2433</ele>
        <time>2019-02-06T14:05:24.000Z</time>
      </trkpt>
      <trkpt lat="45.91641" lon="6.51253">
        <ele>2432.1999511719</ele>
        <time>2019-02-06T14:05:26.000Z</time>
      </trkpt>
      <trkpt lat="45.91644" lon="6.51254">
        <ele>2430.6000976562</ele>
        <time>2019-02-06T14:05:28.000Z</time>
      </trkpt>
      <trkpt lat="45.91646" lon="6.51255">
        <ele>2429.1999511719</ele>
        <time>2019-02-06T14:05:30.000Z</time>
      </trkpt>
      <trkpt lat="45.91647" lon="6.51256">
        <ele>2428.6000976562</ele>
        <time>2019-02-06T14:05:31.000Z</time>
      </trkpt>
      <trkpt lat="45.91648" lon="6.51258">
        <ele>2428</ele>
        <time>2019-02-06T14:05:32.000Z</time>
      </trkpt>
      <trkpt lat="45.9165" lon="6.51259">
        <ele>2426.8000488281</ele>
        <time>2019-02-06T14:05:34.000Z</time>
      </trkpt>
      <trkpt lat="45.91655" lon="6.51259">
        <ele>2425.8000488281</ele>
        <time>2019-02-06T14:05:37.000Z</time>
      </trkpt>
      <trkpt lat="45.9166" lon="6.51257">
        <ele>2424.6000976562</ele>
        <time>2019-02-06T14:05:39.000Z</time>
      </trkpt>
      <trkpt lat="45.91664" lon="6.51257">
        <ele>2423.1999511719</ele>
        <time>2019-02-06T14:05:41.000Z</time>
      </trkpt>
      <trkpt lat="45.91664" lon="6.51257">
        <ele>2422.3999023438</ele>
        <time>2019-02-06T14:05:42.000Z</time>
      </trkpt>
      <trkpt lat="45.91663" lon="6.51258">
        <ele>2420.6000976562</ele>
        <time>2019-02-06T14:05:43.000Z</time>
      </trkpt>
      <trkpt lat="45.91661" lon="6.51262">
        <ele>2419.3999023438</ele>
        <time>2019-02-06T14:05:45.000Z</time>
      </trkpt>
      <trkpt lat="45.91661" lon="6.51262">
        <ele>2419.1999511719</ele>
        <time>2019-02-06T14:05:46.000Z</time>
      </trkpt>
      <trkpt lat="45.91662" lon="6.51266">
        <ele>2418.8000488281</ele>
        <time>2019-02-06T14:05:56.000Z</time>
      </trkpt>
      <trkpt lat="45.91659" lon="6.51272">
        <ele>2418.3999023438</ele>
        <time>2019-02-06T14:05:58.000Z</time>
      </trkpt>
      <trkpt lat="45.91657" lon="6.51275">
        <ele>2417.1999511719</ele>
        <time>2019-02-06T14:06:00.000Z</time>
      </trkpt>
      <trkpt lat="45.91662" lon="6.51274">
        <ele>2416.3999023438</ele>
        <time>2019-02-06T14:06:01.000Z</time>
      </trkpt>
      <trkpt lat="45.91664" lon="6.51274">
        <ele>2415.8000488281</ele>
        <time>2019-02-06T14:06:02.000Z</time>
      </trkpt>
      <trkpt lat="45.91664" lon="6.51274">
        <ele>2414.8000488281</ele>
        <time>2019-02-06T14:06:05.000Z</time>
      </trkpt>
      <trkpt lat="45.91663" lon="6.51277">
        <ele>2411.3999023438</ele>
        <time>2019-02-06T14:06:07.000Z</time>
      </trkpt>
      <trkpt lat="45.91662" lon="6.51278">
        <ele>2410.6000976562</ele>
        <time>2019-02-06T14:06:08.000Z</time>
      </trkpt>
      <trkpt lat="45.9166" lon="6.5128">
        <ele>2409.1999511719</ele>
        <time>2019-02-06T14:06:09.000Z</time>
      </trkpt>
      <trkpt lat="45.91659" lon="6.5128">
        <ele>2408.3999023438</ele>
        <time>2019-02-06T14:06:11.000Z</time>
      </trkpt>
      <trkpt lat="45.91657" lon="6.51281">
        <ele>2410.3999023438</ele>
        <time>2019-02-06T14:06:14.000Z</time>
      </trkpt>
      <trkpt lat="45.91654" lon="6.51282">
        <ele>2409.1999511719</ele>
        <time>2019-02-06T14:06:21.000Z</time>
      </trkpt>
      <trkpt lat="45.91654" lon="6.51282">
        <ele>2409.6000976562</ele>
        <time>2019-02-06T14:06:24.000Z</time>
      </trkpt>
      <trkpt lat="45.91654" lon="6.51282">
        <ele>2410.6000976562</ele>
        <time>2019-02-06T14:06:26.000Z</time>
      </trkpt>
      <trkpt lat="45.91654" lon="6.51282">
        <ele>2409.3999023438</ele>
        <time>2019-02-06T14:06:36.000Z</time>
      </trkpt>
      <trkpt lat="45.91654" lon="6.51282">
        <ele>2409.3999023438</ele>
        <time>2019-02-06T14:06:39.000Z</time>
      </trkpt>
      <trkpt lat="45.91654" lon="6.51282">
        <ele>2409.6000976562</ele>
        <time>2019-02-06T14:06:58.000Z</time>
      </trkpt>
      <trkpt lat="45.91658" lon="6.51273">
        <ele>2409.6000976562</ele>
        <time>2019-02-06T14:07:13.000Z</time>
      </trkpt>
      <trkpt lat="45.91658" lon="6.51273">
        <ele>2409.3999023438</ele>
        <time>2019-02-06T14:07:26.000Z</time>
      </trkpt>
      <trkpt lat="45.91658" lon="6.51273">
        <ele>2409.3999023438</ele>
        <time>2019-02-06T14:07:36.000Z</time>
      </trkpt>
      <trkpt lat="45.91661" lon="6.51261">
        <ele>2409.3999023438</ele>
        <time>2019-02-06T14:07:57.000Z</time>
      </trkpt>
      <trkpt lat="45.91661" lon="6.51261">
        <ele>2409.3999023438</ele>
        <time>2019-02-06T14:08:08.000Z</time>
      </trkpt>
      <trkpt lat="45.91664" lon="6.51259">
        <ele>2409.6000976562</ele>
        <time>2019-02-06T14:08:11.000Z</time>
      </trkpt>
      <trkpt lat="45.91666" lon="6.51258">
        <ele>2409.6000976562</ele>
        <time>2019-02-06T14:08:12.000Z</time>
      </trkpt>
      <trkpt lat="45.91668" lon="6.51252">
        <ele>2408.6000976562</ele>
        <time>2019-02-06T14:08:15.000Z</time>
      </trkpt>
      <trkpt lat="45.91668" lon="6.51253">
        <ele>2407.1999511719</ele>
        <time>2019-02-06T14:08:16.000Z</time>
      </trkpt>
      <trkpt lat="45.91668" lon="6.51252">
        <ele>2406</ele>
        <time>2019-02-06T14:08:17.000Z</time>
      </trkpt>
      <trkpt lat="45.91668" lon="6.51254">
        <ele>2405.1999511719</ele>
        <time>2019-02-06T14:08:19.000Z</time>
      </trkpt>
      <trkpt lat="45.91667" lon="6.51256">
        <ele>2405</ele>
        <time>2019-02-06T14:08:20.000Z</time>
      </trkpt>
      <trkpt lat="45.91667" lon="6.5126">
        <ele>2404.6000976562</ele>
        <time>2019-02-06T14:08:22.000Z</time>
      </trkpt>
      <trkpt lat="45.91671" lon="6.5126">
        <ele>2404.1999511719</ele>
        <time>2019-02-06T14:08:23.000Z</time>
      </trkpt>
      <trkpt lat="45.91674" lon="6.51261">
        <ele>2403.6000976562</ele>
        <time>2019-02-06T14:08:24.000Z</time>
      </trkpt>
      <trkpt lat="45.91675" lon="6.51263">
        <ele>2402.8000488281</ele>
        <time>2019-02-06T14:08:25.000Z</time>
      </trkpt>
      <trkpt lat="45.91674" lon="6.51266">
        <ele>2402.3999023438</ele>
        <time>2019-02-06T14:08:26.000Z</time>
      </trkpt>
      <trkpt lat="45.91673" lon="6.51269">
        <ele>2401.3999023438</ele>
        <time>2019-02-06T14:08:27.000Z</time>
      </trkpt>
      <trkpt lat="45.91672" lon="6.51272">
        <ele>2399.6000976562</ele>
        <time>2019-02-06T14:08:28.000Z</time>
      </trkpt>
      <trkpt lat="45.91675" lon="6.51273">
        <ele>2398</ele>
        <time>2019-02-06T14:08:29.000Z</time>
      </trkpt>
      <trkpt lat="45.91678" lon="6.51273">
        <ele>2397</ele>
        <time>2019-02-06T14:08:30.000Z</time>
      </trkpt>
      <trkpt lat="45.91682" lon="6.51273">
        <ele>2394.8000488281</ele>
        <time>2019-02-06T14:08:32.000Z</time>
      </trkpt>
      <trkpt lat="45.91685" lon="6.51273">
        <ele>2393.8000488281</ele>
        <time>2019-02-06T14:08:33.000Z</time>
      </trkpt>
      <trkpt lat="45.91685" lon="6.51278">
        <ele>2392.3999023438</ele>
        <time>2019-02-06T14:08:34.000Z</time>
      </trkpt>
      <trkpt lat="45.91684" lon="6.51281">
        <ele>2390.6000976562</ele>
        <time>2019-02-06T14:08:35.000Z</time>
      </trkpt>
      <trkpt lat="45.91682" lon="6.51284">
        <ele>2388.6000976562</ele>
        <time>2019-02-06T14:08:36.000Z</time>
      </trkpt>
      <trkpt lat="45.9168" lon="6.51286">
        <ele>2387.1999511719</ele>
        <time>2019-02-06T14:08:37.000Z</time>
      </trkpt>
      <trkpt lat="45.9168" lon="6.51287">
        <ele>2386.1999511719</ele>
        <time>2019-02-06T14:08:38.000Z</time>
      </trkpt>
      <trkpt lat="45.91684" lon="6.5129">
        <ele>2384.8000488281</ele>
        <time>2019-02-06T14:08:40.000Z</time>
      </trkpt>
      <trkpt lat="45.91686" lon="6.51291">
        <ele>2384.3999023438</ele>
        <time>2019-02-06T14:08:41.000Z</time>
      </trkpt>
      <trkpt lat="45.91687" lon="6.51299">
        <ele>2383.1999511719</ele>
        <time>2019-02-06T14:08:43.000Z</time>
      </trkpt>
      <trkpt lat="45.9169" lon="6.51301">
        <ele>2381.6000976562</ele>
        <time>2019-02-06T14:08:44.000Z</time>
      </trkpt>
      <trkpt lat="45.91693" lon="6.51301">
        <ele>2379.8000488281</ele>
        <time>2019-02-06T14:08:45.000Z</time>
      </trkpt>
      <trkpt lat="45.91693" lon="6.51306">
        <ele>2378.3999023438</ele>
        <time>2019-02-06T14:08:46.000Z</time>
      </trkpt>
      <trkpt lat="45.91691" lon="6.51311">
        <ele>2377.1999511719</ele>
        <time>2019-02-06T14:08:47.000Z</time>
      </trkpt>
      <trkpt lat="45.91695" lon="6.51313">
        <ele>2375.8000488281</ele>
        <time>2019-02-06T14:08:48.000Z</time>
      </trkpt>
      <trkpt lat="45.91696" lon="6.51316">
        <ele>2373.6000976562</ele>
        <time>2019-02-06T14:08:49.000Z</time>
      </trkpt>
      <trkpt lat="45.91698" lon="6.51318">
        <ele>2371.6000976562</ele>
        <time>2019-02-06T14:08:50.000Z</time>
      </trkpt>
      <trkpt lat="45.91699" lon="6.51318">
        <ele>2370.1999511719</ele>
        <time>2019-02-06T14:08:51.000Z</time>
      </trkpt>
      <trkpt lat="45.917" lon="6.51319">
        <ele>2369</ele>
        <time>2019-02-06T14:08:52.000Z</time>
      </trkpt>
      <trkpt lat="45.91704" lon="6.5132">
        <ele>2367</ele>
        <time>2019-02-06T14:08:53.000Z</time>
      </trkpt>
      <trkpt lat="45.91708" lon="6.51315">
        <ele>2365</ele>
        <time>2019-02-06T14:08:54.000Z</time>
      </trkpt>
      <trkpt lat="45.91711" lon="6.51315">
        <ele>2363.3999023438</ele>
        <time>2019-02-06T14:08:55.000Z</time>
      </trkpt>
      <trkpt lat="45.9171" lon="6.51316">
        <ele>2361.1999511719</ele>
        <time>2019-02-06T14:08:56.000Z</time>
      </trkpt>
      <trkpt lat="45.9171" lon="6.51319">
        <ele>2359.6000976562</ele>
        <time>2019-02-06T14:08:57.000Z</time>
      </trkpt>
      <trkpt lat="45.91712" lon="6.51322">
        <ele>2357.3999023438</ele>
        <time>2019-02-06T14:08:58.000Z</time>
      </trkpt>
      <trkpt lat="45.91715" lon="6.5132">
        <ele>2355.8000488281</ele>
        <time>2019-02-06T14:08:59.000Z</time>
      </trkpt>
      <trkpt lat="45.91715" lon="6.5132">
        <ele>2354.3999023438</ele>
        <time>2019-02-06T14:09:00.000Z</time>
      </trkpt>
      <trkpt lat="45.91716" lon="6.5132">
        <ele>2353</ele>
        <time>2019-02-06T14:09:01.000Z</time>
      </trkpt>
      <trkpt lat="45.91716" lon="6.5132">
        <ele>2351.1999511719</ele>
        <time>2019-02-06T14:09:02.000Z</time>
      </trkpt>
      <trkpt lat="45.91716" lon="6.5132">
        <ele>2349.3999023438</ele>
        <time>2019-02-06T14:09:03.000Z</time>
      </trkpt>
      <trkpt lat="45.91717" lon="6.51319">
        <ele>2348.1999511719</ele>
        <time>2019-02-06T14:09:04.000Z</time>
      </trkpt>
      <trkpt lat="45.91718" lon="6.51316">
        <ele>2347.3999023438</ele>
        <time>2019-02-06T14:09:05.000Z</time>
      </trkpt>
      <trkpt lat="45.9172" lon="6.51315">
        <ele>2347</ele>
        <time>2019-02-06T14:09:06.000Z</time>
      </trkpt>
      <trkpt lat="45.91723" lon="6.51313">
        <ele>2345.8000488281</ele>
        <time>2019-02-06T14:09:09.000Z</time>
      </trkpt>
      <trkpt lat="45.91723" lon="6.51313">
        <ele>2345.3999023438</ele>
        <time>2019-02-06T14:09:10.000Z</time>
      </trkpt>
      <trkpt lat="45.91723" lon="6.51313">
        <ele>2344.8000488281</ele>
        <time>2019-02-06T14:09:11.000Z</time>
      </trkpt>
      <trkpt lat="45.91724" lon="6.51314">
        <ele>2344</ele>
        <time>2019-02-06T14:09:21.000Z</time>
      </trkpt>
      <trkpt lat="45.91725" lon="6.51318">
        <ele>2344</ele>
        <time>2019-02-06T14:09:22.000Z</time>
      </trkpt>
      <trkpt lat="45.91725" lon="6.51317">
        <ele>2343.8000488281</ele>
        <time>2019-02-06T14:09:23.000Z</time>
      </trkpt>
      <trkpt lat="45.91726" lon="6.51318">
        <ele>2343.3999023438</ele>
        <time>2019-02-06T14:09:24.000Z</time>
      </trkpt>
      <trkpt lat="45.91726" lon="6.51318">
        <ele>2342.6000976562</ele>
        <time>2019-02-06T14:09:27.000Z</time>
      </trkpt>
      <trkpt lat="45.91726" lon="6.5132">
        <ele>2341.6000976562</ele>
        <time>2019-02-06T14:09:32.000Z</time>
      </trkpt>
      <trkpt lat="45.91725" lon="6.51324">
        <ele>2341.3999023438</ele>
        <time>2019-02-06T14:09:33.000Z</time>
      </trkpt>
      <trkpt lat="45.91721" lon="6.51343">
        <ele>2340.6000976562</ele>
        <time>2019-02-06T14:09:36.000Z</time>
      </trkpt>
      <trkpt lat="45.9172" lon="6.51351">
        <ele>2340.1999511719</ele>
        <time>2019-02-06T14:09:37.000Z</time>
      </trkpt>
      <trkpt lat="45.91716" lon="6.51366">
        <ele>2338.1999511719</ele>
        <time>2019-02-06T14:09:39.000Z</time>
      </trkpt>
      <trkpt lat="45.91714" lon="6.51373">
        <ele>2336.8000488281</ele>
        <time>2019-02-06T14:09:40.000Z</time>
      </trkpt>
      <trkpt lat="45.91713" lon="6.51379">
        <ele>2335.1999511719</ele>
        <time>2019-02-06T14:09:41.000Z</time>
      </trkpt>
      <trkpt lat="45.91712" lon="6.51385">
        <ele>2333.6000976562</ele>
        <time>2019-02-06T14:09:42.000Z</time>
      </trkpt>
      <trkpt lat="45.9171" lon="6.51391">
        <ele>2332.3999023438</ele>
        <time>2019-02-06T14:09:43.000Z</time>
      </trkpt>
      <trkpt lat="45.91712" lon="6.51397">
        <ele>2330.6000976562</ele>
        <time>2019-02-06T14:09:44.000Z</time>
      </trkpt>
      <trkpt lat="45.91715" lon="6.514">
        <ele>2329.8000488281</ele>
        <time>2019-02-06T14:09:45.000Z</time>
      </trkpt>
      <trkpt lat="45.91717" lon="6.51401">
        <ele>2329</ele>
        <time>2019-02-06T14:09:46.000Z</time>
      </trkpt>
      <trkpt lat="45.91724" lon="6.51397">
        <ele>2327.3999023438</ele>
        <time>2019-02-06T14:09:48.000Z</time>
      </trkpt>
      <trkpt lat="45.91727" lon="6.51392">
        <ele>2326.3999023438</ele>
        <time>2019-02-06T14:09:49.000Z</time>
      </trkpt>
      <trkpt lat="45.91731" lon="6.51388">
        <ele>2325.3999023438</ele>
        <time>2019-02-06T14:09:50.000Z</time>
      </trkpt>
      <trkpt lat="45.91735" lon="6.51392">
        <ele>2324.1999511719</ele>
        <time>2019-02-06T14:09:51.000Z</time>
      </trkpt>
      <trkpt lat="45.9174" lon="6.51392">
        <ele>2323.1999511719</ele>
        <time>2019-02-06T14:09:52.000Z</time>
      </trkpt>
      <trkpt lat="45.91744" lon="6.51391">
        <ele>2322.1999511719</ele>
        <time>2019-02-06T14:09:53.000Z</time>
      </trkpt>
      <trkpt lat="45.91748" lon="6.51386">
        <ele>2321</ele>
        <time>2019-02-06T14:09:54.000Z</time>
      </trkpt>
      <trkpt lat="45.91751" lon="6.51378">
        <ele>2320</ele>
        <time>2019-02-06T14:09:55.000Z</time>
      </trkpt>
      <trkpt lat="45.91754" lon="6.51373">
        <ele>2318.8000488281</ele>
        <time>2019-02-06T14:09:56.000Z</time>
      </trkpt>
      <trkpt lat="45.91754" lon="6.51371">
        <ele>2317.3999023438</ele>
        <time>2019-02-06T14:09:57.000Z</time>
      </trkpt>
      <trkpt lat="45.91754" lon="6.51371">
        <ele>2316.1999511719</ele>
        <time>2019-02-06T14:09:58.000Z</time>
      </trkpt>
      <trkpt lat="45.91754" lon="6.51371">
        <ele>2314.8000488281</ele>
        <time>2019-02-06T14:10:00.000Z</time>
      </trkpt>
      <trkpt lat="45.91754" lon="6.51371">
        <ele>2314.3999023438</ele>
        <time>2019-02-06T14:10:01.000Z</time>
      </trkpt>
      <trkpt lat="45.91754" lon="6.51371">
        <ele>2313.8000488281</ele>
        <time>2019-02-06T14:10:04.000Z</time>
      </trkpt>
      <trkpt lat="45.91758" lon="6.51371">
        <ele>2313.6000976562</ele>
        <time>2019-02-06T14:10:07.000Z</time>
      </trkpt>
      <trkpt lat="45.91761" lon="6.5138">
        <ele>2312.6000976562</ele>
        <time>2019-02-06T14:10:09.000Z</time>
      </trkpt>
      <trkpt lat="45.91766" lon="6.51385">
        <ele>2312</ele>
        <time>2019-02-06T14:10:10.000Z</time>
      </trkpt>
      <trkpt lat="45.91769" lon="6.51384">
        <ele>2311</ele>
        <time>2019-02-06T14:10:11.000Z</time>
      </trkpt>
      <trkpt lat="45.91771" lon="6.51383">
        <ele>2310.1999511719</ele>
        <time>2019-02-06T14:10:12.000Z</time>
      </trkpt>
      <trkpt lat="45.91772" lon="6.5138">
        <ele>2309</ele>
        <time>2019-02-06T14:10:13.000Z</time>
      </trkpt>
      <trkpt lat="45.91775" lon="6.51378">
        <ele>2307.8000488281</ele>
        <time>2019-02-06T14:10:14.000Z</time>
      </trkpt>
      <trkpt lat="45.91777" lon="6.51381">
        <ele>2306.1999511719</ele>
        <time>2019-02-06T14:10:15.000Z</time>
      </trkpt>
      <trkpt lat="45.91779" lon="6.51386">
        <ele>2304.8000488281</ele>
        <time>2019-02-06T14:10:16.000Z</time>
      </trkpt>
      <trkpt lat="45.9178" lon="6.51393">
        <ele>2303.3999023438</ele>
        <time>2019-02-06T14:10:17.000Z</time>
      </trkpt>
      <trkpt lat="45.91784" lon="6.51398">
        <ele>2302.1999511719</ele>
        <time>2019-02-06T14:10:18.000Z</time>
      </trkpt>
      <trkpt lat="45.91788" lon="6.51401">
        <ele>2301.1999511719</ele>
        <time>2019-02-06T14:10:19.000Z</time>
      </trkpt>
      <trkpt lat="45.91791" lon="6.51399">
        <ele>2300</ele>
        <time>2019-02-06T14:10:20.000Z</time>
      </trkpt>
      <trkpt lat="45.91793" lon="6.51398">
        <ele>2299</ele>
        <time>2019-02-06T14:10:21.000Z</time>
      </trkpt>
      <trkpt lat="45.91797" lon="6.51397">
        <ele>2297.8000488281</ele>
        <time>2019-02-06T14:10:22.000Z</time>
      </trkpt>
      <trkpt lat="45.91802" lon="6.51392">
        <ele>2296.1999511719</ele>
        <time>2019-02-06T14:10:23.000Z</time>
      </trkpt>
      <trkpt lat="45.91806" lon="6.51385">
        <ele>2294.1999511719</ele>
        <time>2019-02-06T14:10:24.000Z</time>
      </trkpt>
      <trkpt lat="45.91809" lon="6.51382">
        <ele>2292.3999023438</ele>
        <time>2019-02-06T14:10:25.000Z</time>
      </trkpt>
      <trkpt lat="45.91809" lon="6.51378">
        <ele>2290.8000488281</ele>
        <time>2019-02-06T14:10:26.000Z</time>
      </trkpt>
      <trkpt lat="45.91811" lon="6.51376">
        <ele>2289.6000976562</ele>
        <time>2019-02-06T14:10:27.000Z</time>
      </trkpt>
      <trkpt lat="45.9181" lon="6.51376">
        <ele>2288.1999511719</ele>
        <time>2019-02-06T14:10:28.000Z</time>
      </trkpt>
      <trkpt lat="45.9181" lon="6.51376">
        <ele>2287.1999511719</ele>
        <time>2019-02-06T14:10:29.000Z</time>
      </trkpt>
      <trkpt lat="45.91812" lon="6.51374">
        <ele>2286</ele>
        <time>2019-02-06T14:10:30.000Z</time>
      </trkpt>
      <trkpt lat="45.91813" lon="6.51369">
        <ele>2285</ele>
        <time>2019-02-06T14:10:31.000Z</time>
      </trkpt>
      <trkpt lat="45.91814" lon="6.5137">
        <ele>2283.3999023438</ele>
        <time>2019-02-06T14:10:32.000Z</time>
      </trkpt>
      <trkpt lat="45.91814" lon="6.51372">
        <ele>2281.3999023438</ele>
        <time>2019-02-06T14:10:34.000Z</time>
      </trkpt>
      <trkpt lat="45.91814" lon="6.51372">
        <ele>2280.3999023438</ele>
        <time>2019-02-06T14:10:35.000Z</time>
      </trkpt>
      <trkpt lat="45.91814" lon="6.51372">
        <ele>2278.8000488281</ele>
        <time>2019-02-06T14:10:37.000Z</time>
      </trkpt>
      <trkpt lat="45.91813" lon="6.51372">
        <ele>2278</ele>
        <time>2019-02-06T14:10:39.000Z</time>
      </trkpt>
      <trkpt lat="45.91813" lon="6.51373">
        <ele>2277.8000488281</ele>
        <time>2019-02-06T14:10:41.000Z</time>
      </trkpt>
      <trkpt lat="45.91813" lon="6.51373">
        <ele>2277.6000976562</ele>
        <time>2019-02-06T14:10:42.000Z</time>
      </trkpt>
      <trkpt lat="45.91817" lon="6.51369">
        <ele>2277.1999511719</ele>
        <time>2019-02-06T14:10:48.000Z</time>
      </trkpt>
      <trkpt lat="45.91816" lon="6.51359">
        <ele>2276.1999511719</ele>
        <time>2019-02-06T14:10:51.000Z</time>
      </trkpt>
      <trkpt lat="45.9182" lon="6.5136">
        <ele>2274.8000488281</ele>
        <time>2019-02-06T14:10:53.000Z</time>
      </trkpt>
      <trkpt lat="45.91822" lon="6.51364">
        <ele>2273.8000488281</ele>
        <time>2019-02-06T14:10:54.000Z</time>
      </trkpt>
      <trkpt lat="45.91823" lon="6.51365">
        <ele>2272.1999511719</ele>
        <time>2019-02-06T14:10:55.000Z</time>
      </trkpt>
      <trkpt lat="45.91826" lon="6.51361">
        <ele>2269.8000488281</ele>
        <time>2019-02-06T14:10:56.000Z</time>
      </trkpt>
      <trkpt lat="45.91828" lon="6.51357">
        <ele>2269.1999511719</ele>
        <time>2019-02-06T14:10:57.000Z</time>
      </trkpt>
      <trkpt lat="45.91828" lon="6.51355">
        <ele>2268.6000976562</ele>
        <time>2019-02-06T14:10:58.000Z</time>
      </trkpt>
      <trkpt lat="45.91832" lon="6.51352">
        <ele>2267.1999511719</ele>
        <time>2019-02-06T14:11:00.000Z</time>
      </trkpt>
      <trkpt lat="45.91833" lon="6.51352">
        <ele>2265.6000976562</ele>
        <time>2019-02-06T14:11:01.000Z</time>
      </trkpt>
      <trkpt lat="45.91837" lon="6.51352">
        <ele>2263.6000976562</ele>
        <time>2019-02-06T14:11:02.000Z</time>
      </trkpt>
      <trkpt lat="45.91839" lon="6.51349">
        <ele>2262.1999511719</ele>
        <time>2019-02-06T14:11:03.000Z</time>
      </trkpt>
      <trkpt lat="45.91839" lon="6.51344">
        <ele>2261.1999511719</ele>
        <time>2019-02-06T14:11:04.000Z</time>
      </trkpt>
      <trkpt lat="45.91841" lon="6.51341">
        <ele>2260.6000976562</ele>
        <time>2019-02-06T14:11:05.000Z</time>
      </trkpt>
      <trkpt lat="45.91842" lon="6.5134">
        <ele>2259.3999023438</ele>
        <time>2019-02-06T14:11:06.000Z</time>
      </trkpt>
      <trkpt lat="45.91843" lon="6.5134">
        <ele>2257.1999511719</ele>
        <time>2019-02-06T14:11:07.000Z</time>
      </trkpt>
      <trkpt lat="45.91846" lon="6.51342">
        <ele>2254.8000488281</ele>
        <time>2019-02-06T14:11:08.000Z</time>
      </trkpt>
      <trkpt lat="45.9185" lon="6.51339">
        <ele>2253.1999511719</ele>
        <time>2019-02-06T14:11:09.000Z</time>
      </trkpt>
      <trkpt lat="45.91854" lon="6.51331">
        <ele>2251.3999023438</ele>
        <time>2019-02-06T14:11:11.000Z</time>
      </trkpt>
      <trkpt lat="45.91852" lon="6.51328">
        <ele>2250.3999023438</ele>
        <time>2019-02-06T14:11:12.000Z</time>
      </trkpt>
      <trkpt lat="45.91852" lon="6.51328">
        <ele>2249.3999023438</ele>
        <time>2019-02-06T14:11:13.000Z</time>
      </trkpt>
      <trkpt lat="45.91852" lon="6.51326">
        <ele>2248</ele>
        <time>2019-02-06T14:11:14.000Z</time>
      </trkpt>
      <trkpt lat="45.91852" lon="6.51323">
        <ele>2246.3999023438</ele>
        <time>2019-02-06T14:11:15.000Z</time>
      </trkpt>
      <trkpt lat="45.91853" lon="6.51321">
        <ele>2245</ele>
        <time>2019-02-06T14:11:16.000Z</time>
      </trkpt>
      <trkpt lat="45.91852" lon="6.51324">
        <ele>2243.1999511719</ele>
        <time>2019-02-06T14:11:18.000Z</time>
      </trkpt>
      <trkpt lat="45.91855" lon="6.51323">
        <ele>2241.8000488281</ele>
        <time>2019-02-06T14:11:19.000Z</time>
      </trkpt>
      <trkpt lat="45.91857" lon="6.5132">
        <ele>2239.3999023438</ele>
        <time>2019-02-06T14:11:20.000Z</time>
      </trkpt>
      <trkpt lat="45.9186" lon="6.51313">
        <ele>2238</ele>
        <time>2019-02-06T14:11:22.000Z</time>
      </trkpt>
      <trkpt lat="45.91861" lon="6.5131">
        <ele>2237.1999511719</ele>
        <time>2019-02-06T14:11:23.000Z</time>
      </trkpt>
      <trkpt lat="45.91862" lon="6.51305">
        <ele>2235.8000488281</ele>
        <time>2019-02-06T14:11:24.000Z</time>
      </trkpt>
      <trkpt lat="45.91863" lon="6.513">
        <ele>2234.3999023438</ele>
        <time>2019-02-06T14:11:25.000Z</time>
      </trkpt>
      <trkpt lat="45.91865" lon="6.51294">
        <ele>2232.8000488281</ele>
        <time>2019-02-06T14:11:26.000Z</time>
      </trkpt>
      <trkpt lat="45.91865" lon="6.51288">
        <ele>2231.6000976562</ele>
        <time>2019-02-06T14:11:27.000Z</time>
      </trkpt>
      <trkpt lat="45.91867" lon="6.51282">
        <ele>2230.3999023438</ele>
        <time>2019-02-06T14:11:28.000Z</time>
      </trkpt>
      <trkpt lat="45.91868" lon="6.51275">
        <ele>2229.3999023438</ele>
        <time>2019-02-06T14:11:29.000Z</time>
      </trkpt>
      <trkpt lat="45.9187" lon="6.51259">
        <ele>2227.3999023438</ele>
        <time>2019-02-06T14:11:31.000Z</time>
      </trkpt>
      <trkpt lat="45.91873" lon="6.51248">
        <ele>2226.6000976562</ele>
        <time>2019-02-06T14:11:32.000Z</time>
      </trkpt>
      <trkpt lat="45.91879" lon="6.5124">
        <ele>2225.3999023438</ele>
        <time>2019-02-06T14:11:33.000Z</time>
      </trkpt>
      <trkpt lat="45.91882" lon="6.51233">
        <ele>2224</ele>
        <time>2019-02-06T14:11:34.000Z</time>
      </trkpt>
      <trkpt lat="45.91886" lon="6.51226">
        <ele>2222.6000976562</ele>
        <time>2019-02-06T14:11:35.000Z</time>
      </trkpt>
      <trkpt lat="45.91889" lon="6.51219">
        <ele>2221.3999023438</ele>
        <time>2019-02-06T14:11:36.000Z</time>
      </trkpt>
      <trkpt lat="45.91894" lon="6.51212">
        <ele>2220.1999511719</ele>
        <time>2019-02-06T14:11:37.000Z</time>
      </trkpt>
      <trkpt lat="45.91897" lon="6.51205">
        <ele>2219.1999511719</ele>
        <time>2019-02-06T14:11:38.000Z</time>
      </trkpt>
      <trkpt lat="45.91899" lon="6.51198">
        <ele>2218.1999511719</ele>
        <time>2019-02-06T14:11:39.000Z</time>
      </trkpt>
      <trkpt lat="45.91903" lon="6.51192">
        <ele>2217.1999511719</ele>
        <time>2019-02-06T14:11:40.000Z</time>
      </trkpt>
      <trkpt lat="45.91905" lon="6.51186">
        <ele>2216.1999511719</ele>
        <time>2019-02-06T14:11:41.000Z</time>
      </trkpt>
      <trkpt lat="45.91908" lon="6.5118">
        <ele>2215.1999511719</ele>
        <time>2019-02-06T14:11:42.000Z</time>
      </trkpt>
      <trkpt lat="45.91909" lon="6.51174">
        <ele>2214.1999511719</ele>
        <time>2019-02-06T14:11:43.000Z</time>
      </trkpt>
      <trkpt lat="45.9191" lon="6.51172">
        <ele>2212.8000488281</ele>
        <time>2019-02-06T14:11:44.000Z</time>
      </trkpt>
      <trkpt lat="45.91911" lon="6.5117">
        <ele>2212.1999511719</ele>
        <time>2019-02-06T14:11:45.000Z</time>
      </trkpt>
      <trkpt lat="45.91912" lon="6.51169">
        <ele>2211.6000976562</ele>
        <time>2019-02-06T14:11:46.000Z</time>
      </trkpt>
      <trkpt lat="45.91913" lon="6.51161">
        <ele>2210</ele>
        <time>2019-02-06T14:11:49.000Z</time>
      </trkpt>
      <trkpt lat="45.91912" lon="6.5116">
        <ele>2208.8000488281</ele>
        <time>2019-02-06T14:11:50.000Z</time>
      </trkpt>
      <trkpt lat="45.91912" lon="6.51158">
        <ele>2207.1999511719</ele>
        <time>2019-02-06T14:11:51.000Z</time>
      </trkpt>
      <trkpt lat="45.91912" lon="6.51155">
        <ele>2205.8000488281</ele>
        <time>2019-02-06T14:11:53.000Z</time>
      </trkpt>
      <trkpt lat="45.91912" lon="6.51158">
        <ele>2206.8000488281</ele>
        <time>2019-02-06T14:11:56.000Z</time>
      </trkpt>
      <trkpt lat="45.91912" lon="6.51158">
        <ele>2207.6000976562</ele>
        <time>2019-02-06T14:11:57.000Z</time>
      </trkpt>
      <trkpt lat="45.91912" lon="6.51158">
        <ele>2208.6000976562</ele>
        <time>2019-02-06T14:11:59.000Z</time>
      </trkpt>
      <trkpt lat="45.91915" lon="6.51153">
        <ele>2207.6000976562</ele>
        <time>2019-02-06T14:12:03.000Z</time>
      </trkpt>
      <trkpt lat="45.91916" lon="6.51152">
        <ele>2207</ele>
        <time>2019-02-06T14:12:04.000Z</time>
      </trkpt>
      <trkpt lat="45.91918" lon="6.51152">
        <ele>2205</ele>
        <time>2019-02-06T14:12:08.000Z</time>
      </trkpt>
      <trkpt lat="45.9192" lon="6.51152">
        <ele>2204.3999023438</ele>
        <time>2019-02-06T14:12:09.000Z</time>
      </trkpt>
      <trkpt lat="45.91924" lon="6.51158">
        <ele>2203.6000976562</ele>
        <time>2019-02-06T14:12:11.000Z</time>
      </trkpt>
      <trkpt lat="45.91927" lon="6.51165">
        <ele>2202</ele>
        <time>2019-02-06T14:12:13.000Z</time>
      </trkpt>
      <trkpt lat="45.91929" lon="6.51165">
        <ele>2201.1999511719</ele>
        <time>2019-02-06T14:12:14.000Z</time>
      </trkpt>
      <trkpt lat="45.91931" lon="6.5116">
        <ele>2200.3999023438</ele>
        <time>2019-02-06T14:12:15.000Z</time>
      </trkpt>
      <trkpt lat="45.91935" lon="6.51156">
        <ele>2199.3999023438</ele>
        <time>2019-02-06T14:12:17.000Z</time>
      </trkpt>
      <trkpt lat="45.9194" lon="6.51161">
        <ele>2197.6000976562</ele>
        <time>2019-02-06T14:12:19.000Z</time>
      </trkpt>
      <trkpt lat="45.91944" lon="6.51165">
        <ele>2196</ele>
        <time>2019-02-06T14:12:20.000Z</time>
      </trkpt>
      <trkpt lat="45.91949" lon="6.51165">
        <ele>2194.3999023438</ele>
        <time>2019-02-06T14:12:21.000Z</time>
      </trkpt>
      <trkpt lat="45.91955" lon="6.51163">
        <ele>2193</ele>
        <time>2019-02-06T14:12:22.000Z</time>
      </trkpt>
      <trkpt lat="45.91966" lon="6.51153">
        <ele>2191.1999511719</ele>
        <time>2019-02-06T14:12:24.000Z</time>
      </trkpt>
      <trkpt lat="45.91968" lon="6.51146">
        <ele>2189.8000488281</ele>
        <time>2019-02-06T14:12:25.000Z</time>
      </trkpt>
      <trkpt lat="45.9197" lon="6.51139">
        <ele>2188</ele>
        <time>2019-02-06T14:12:26.000Z</time>
      </trkpt>
      <trkpt lat="45.91972" lon="6.51132">
        <ele>2186</ele>
        <time>2019-02-06T14:12:27.000Z</time>
      </trkpt>
      <trkpt lat="45.91974" lon="6.51125">
        <ele>2184.3999023438</ele>
        <time>2019-02-06T14:12:28.000Z</time>
      </trkpt>
      <trkpt lat="45.91974" lon="6.51118">
        <ele>2183.1999511719</ele>
        <time>2019-02-06T14:12:29.000Z</time>
      </trkpt>
      <trkpt lat="45.91974" lon="6.51108">
        <ele>2181.3999023438</ele>
        <time>2019-02-06T14:12:31.000Z</time>
      </trkpt>
      <trkpt lat="45.91974" lon="6.51104">
        <ele>2180</ele>
        <time>2019-02-06T14:12:32.000Z</time>
      </trkpt>
      <trkpt lat="45.91974" lon="6.51093">
        <ele>2179</ele>
        <time>2019-02-06T14:12:34.000Z</time>
      </trkpt>
      <trkpt lat="45.91974" lon="6.51088">
        <ele>2178.6000976562</ele>
        <time>2019-02-06T14:12:35.000Z</time>
      </trkpt>
      <trkpt lat="45.9197" lon="6.51075">
        <ele>2177.1999511719</ele>
        <time>2019-02-06T14:12:38.000Z</time>
      </trkpt>
      <trkpt lat="45.9197" lon="6.51074">
        <ele>2176.8000488281</ele>
        <time>2019-02-06T14:12:39.000Z</time>
      </trkpt>
      <trkpt lat="45.91968" lon="6.51072">
        <ele>2175.8000488281</ele>
        <time>2019-02-06T14:12:41.000Z</time>
      </trkpt>
      <trkpt lat="45.91968" lon="6.51072">
        <ele>2174.8000488281</ele>
        <time>2019-02-06T14:12:45.000Z</time>
      </trkpt>
      <trkpt lat="45.91968" lon="6.51072">
        <ele>2174.6000976562</ele>
        <time>2019-02-06T14:13:03.000Z</time>
      </trkpt>
      <trkpt lat="45.91968" lon="6.51072">
        <ele>2174.6000976562</ele>
        <time>2019-02-06T14:13:18.000Z</time>
      </trkpt>
      <trkpt lat="45.91968" lon="6.51072">
        <ele>2174.6000976562</ele>
        <time>2019-02-06T14:13:31.000Z</time>
      </trkpt>
      <trkpt lat="45.91968" lon="6.51072">
        <ele>2174.3999023438</ele>
        <time>2019-02-06T14:13:43.000Z</time>
      </trkpt>
      <trkpt lat="45.91968" lon="6.51072">
        <ele>2174.8000488281</ele>
        <time>2019-02-06T14:13:48.000Z</time>
      </trkpt>
      <trkpt lat="45.91968" lon="6.51073">
        <ele>2174.3999023438</ele>
        <time>2019-02-06T14:14:01.000Z</time>
      </trkpt>
      <trkpt lat="45.91969" lon="6.51076">
        <ele>2174.1999511719</ele>
        <time>2019-02-06T14:14:10.000Z</time>
      </trkpt>
      <trkpt lat="45.9197" lon="6.51078">
        <ele>2174.1999511719</ele>
        <time>2019-02-06T14:14:11.000Z</time>
      </trkpt>
      <trkpt lat="45.91974" lon="6.51085">
        <ele>2173.8000488281</ele>
        <time>2019-02-06T14:14:14.000Z</time>
      </trkpt>
      <trkpt lat="45.91981" lon="6.51092">
        <ele>2173</ele>
        <time>2019-02-06T14:14:17.000Z</time>
      </trkpt>
      <trkpt lat="45.91984" lon="6.51095">
        <ele>2172.3999023438</ele>
        <time>2019-02-06T14:14:18.000Z</time>
      </trkpt>
      <trkpt lat="45.91991" lon="6.51102">
        <ele>2171.3999023438</ele>
        <time>2019-02-06T14:14:20.000Z</time>
      </trkpt>
      <trkpt lat="45.91994" lon="6.51103">
        <ele>2170.8000488281</ele>
        <time>2019-02-06T14:14:21.000Z</time>
      </trkpt>
      <trkpt lat="45.91999" lon="6.51099">
        <ele>2169</ele>
        <time>2019-02-06T14:14:23.000Z</time>
      </trkpt>
      <trkpt lat="45.92001" lon="6.5109">
        <ele>2167.8000488281</ele>
        <time>2019-02-06T14:14:25.000Z</time>
      </trkpt>
      <trkpt lat="45.91999" lon="6.51084">
        <ele>2167.1999511719</ele>
        <time>2019-02-06T14:14:26.000Z</time>
      </trkpt>
      <trkpt lat="45.91998" lon="6.5108">
        <ele>2166.6000976562</ele>
        <time>2019-02-06T14:14:27.000Z</time>
      </trkpt>
      <trkpt lat="45.91997" lon="6.51075">
        <ele>2165.3999023438</ele>
        <time>2019-02-06T14:14:28.000Z</time>
      </trkpt>
      <trkpt lat="45.91996" lon="6.51071">
        <ele>2164.3999023438</ele>
        <time>2019-02-06T14:14:29.000Z</time>
      </trkpt>
      <trkpt lat="45.91996" lon="6.51067">
        <ele>2163.1999511719</ele>
        <time>2019-02-06T14:14:30.000Z</time>
      </trkpt>
      <trkpt lat="45.91997" lon="6.51065">
        <ele>2162</ele>
        <time>2019-02-06T14:14:31.000Z</time>
      </trkpt>
      <trkpt lat="45.91998" lon="6.51064">
        <ele>2159.3999023438</ele>
        <time>2019-02-06T14:14:32.000Z</time>
      </trkpt>
      <trkpt lat="45.92" lon="6.51063">
        <ele>2158.1999511719</ele>
        <time>2019-02-06T14:14:33.000Z</time>
      </trkpt>
      <trkpt lat="45.92005" lon="6.51065">
        <ele>2156.8000488281</ele>
        <time>2019-02-06T14:14:35.000Z</time>
      </trkpt>
      <trkpt lat="45.92009" lon="6.51068">
        <ele>2155.1999511719</ele>
        <time>2019-02-06T14:14:36.000Z</time>
      </trkpt>
      <trkpt lat="45.92015" lon="6.51071">
        <ele>2153.3999023438</ele>
        <time>2019-02-06T14:14:37.000Z</time>
      </trkpt>
      <trkpt lat="45.92021" lon="6.51075">
        <ele>2151.8000488281</ele>
        <time>2019-02-06T14:14:38.000Z</time>
      </trkpt>
      <trkpt lat="45.92028" lon="6.51079">
        <ele>2150.3999023438</ele>
        <time>2019-02-06T14:14:39.000Z</time>
      </trkpt>
      <trkpt lat="45.92035" lon="6.51083">
        <ele>2148.1999511719</ele>
        <time>2019-02-06T14:14:40.000Z</time>
      </trkpt>
      <trkpt lat="45.92042" lon="6.51088">
        <ele>2145.8000488281</ele>
        <time>2019-02-06T14:14:41.000Z</time>
      </trkpt>
      <trkpt lat="45.92048" lon="6.51091">
        <ele>2143.8000488281</ele>
        <time>2019-02-06T14:14:42.000Z</time>
      </trkpt>
      <trkpt lat="45.92055" lon="6.51093">
        <ele>2142.3999023438</ele>
        <time>2019-02-06T14:14:43.000Z</time>
      </trkpt>
      <trkpt lat="45.92062" lon="6.51093">
        <ele>2141.6000976562</ele>
        <time>2019-02-06T14:14:44.000Z</time>
      </trkpt>
      <trkpt lat="45.92068" lon="6.51095">
        <ele>2140.8000488281</ele>
        <time>2019-02-06T14:14:45.000Z</time>
      </trkpt>
      <trkpt lat="45.9208" lon="6.51099">
        <ele>2138.3999023438</ele>
        <time>2019-02-06T14:14:47.000Z</time>
      </trkpt>
      <trkpt lat="45.92087" lon="6.51101">
        <ele>2136.3999023438</ele>
        <time>2019-02-06T14:14:48.000Z</time>
      </trkpt>
      <trkpt lat="45.92095" lon="6.51105">
        <ele>2134.1999511719</ele>
        <time>2019-02-06T14:14:49.000Z</time>
      </trkpt>
      <trkpt lat="45.92102" lon="6.51108">
        <ele>2132.3999023438</ele>
        <time>2019-02-06T14:14:50.000Z</time>
      </trkpt>
      <trkpt lat="45.92109" lon="6.51112">
        <ele>2130.6000976562</ele>
        <time>2019-02-06T14:14:51.000Z</time>
      </trkpt>
      <trkpt lat="45.92115" lon="6.51115">
        <ele>2128.3999023438</ele>
        <time>2019-02-06T14:14:52.000Z</time>
      </trkpt>
      <trkpt lat="45.9212" lon="6.51117">
        <ele>2126</ele>
        <time>2019-02-06T14:14:53.000Z</time>
      </trkpt>
      <trkpt lat="45.92123" lon="6.51118">
        <ele>2124.1999511719</ele>
        <time>2019-02-06T14:14:54.000Z</time>
      </trkpt>
      <trkpt lat="45.92126" lon="6.5112">
        <ele>2122.6000976562</ele>
        <time>2019-02-06T14:14:55.000Z</time>
      </trkpt>
      <trkpt lat="45.92128" lon="6.51122">
        <ele>2120.3999023438</ele>
        <time>2019-02-06T14:14:56.000Z</time>
      </trkpt>
      <trkpt lat="45.92132" lon="6.51128">
        <ele>2119.1999511719</ele>
        <time>2019-02-06T14:14:59.000Z</time>
      </trkpt>
      <trkpt lat="45.92137" lon="6.51136">
        <ele>2118</ele>
        <time>2019-02-06T14:15:02.000Z</time>
      </trkpt>
      <trkpt lat="45.92144" lon="6.51141">
        <ele>2117</ele>
        <time>2019-02-06T14:15:04.000Z</time>
      </trkpt>
      <trkpt lat="45.92149" lon="6.51142">
        <ele>2116.6000976562</ele>
        <time>2019-02-06T14:15:05.000Z</time>
      </trkpt>
      <trkpt lat="45.9216" lon="6.51143">
        <ele>2115.1999511719</ele>
        <time>2019-02-06T14:15:07.000Z</time>
      </trkpt>
      <trkpt lat="45.92166" lon="6.51143">
        <ele>2113.3999023438</ele>
        <time>2019-02-06T14:15:08.000Z</time>
      </trkpt>
      <trkpt lat="45.92172" lon="6.51143">
        <ele>2111.1999511719</ele>
        <time>2019-02-06T14:15:09.000Z</time>
      </trkpt>
      <trkpt lat="45.92178" lon="6.51143">
        <ele>2109.3999023438</ele>
        <time>2019-02-06T14:15:10.000Z</time>
      </trkpt>
      <trkpt lat="45.92183" lon="6.51143">
        <ele>2108</ele>
        <time>2019-02-06T14:15:11.000Z</time>
      </trkpt>
      <trkpt lat="45.92192" lon="6.51142">
        <ele>2106.1999511719</ele>
        <time>2019-02-06T14:15:13.000Z</time>
      </trkpt>
      <trkpt lat="45.92199" lon="6.5114">
        <ele>2104.8000488281</ele>
        <time>2019-02-06T14:15:15.000Z</time>
      </trkpt>
      <trkpt lat="45.92205" lon="6.51138">
        <ele>2103.8000488281</ele>
        <time>2019-02-06T14:15:17.000Z</time>
      </trkpt>
      <trkpt lat="45.92207" lon="6.51137">
        <ele>2103.3999023438</ele>
        <time>2019-02-06T14:15:18.000Z</time>
      </trkpt>
      <trkpt lat="45.92212" lon="6.51136">
        <ele>2102.1999511719</ele>
        <time>2019-02-06T14:15:20.000Z</time>
      </trkpt>
      <trkpt lat="45.92218" lon="6.51134">
        <ele>2101.1999511719</ele>
        <time>2019-02-06T14:15:23.000Z</time>
      </trkpt>
      <trkpt lat="45.92226" lon="6.51133">
        <ele>2100</ele>
        <time>2019-02-06T14:15:26.000Z</time>
      </trkpt>
      <trkpt lat="45.92229" lon="6.51133">
        <ele>2099.6000976562</ele>
        <time>2019-02-06T14:15:27.000Z</time>
      </trkpt>
      <trkpt lat="45.92235" lon="6.51133">
        <ele>2098.6000976562</ele>
        <time>2019-02-06T14:15:29.000Z</time>
      </trkpt>
      <trkpt lat="45.92241" lon="6.51132">
        <ele>2097.3999023438</ele>
        <time>2019-02-06T14:15:31.000Z</time>
      </trkpt>
      <trkpt lat="45.9225" lon="6.51131">
        <ele>2096.1999511719</ele>
        <time>2019-02-06T14:15:34.000Z</time>
      </trkpt>
      <trkpt lat="45.92253" lon="6.51131">
        <ele>2095.6000976562</ele>
        <time>2019-02-06T14:15:35.000Z</time>
      </trkpt>
      <trkpt lat="45.92259" lon="6.5113">
        <ele>2094.6000976562</ele>
        <time>2019-02-06T14:15:37.000Z</time>
      </trkpt>
      <trkpt lat="45.92264" lon="6.5113">
        <ele>2093.3999023438</ele>
        <time>2019-02-06T14:15:39.000Z</time>
      </trkpt>
      <trkpt lat="45.9227" lon="6.5113">
        <ele>2091.8000488281</ele>
        <time>2019-02-06T14:15:42.000Z</time>
      </trkpt>
      <trkpt lat="45.92275" lon="6.51129">
        <ele>2089.8000488281</ele>
        <time>2019-02-06T14:15:44.000Z</time>
      </trkpt>
      <trkpt lat="45.92279" lon="6.51128">
        <ele>2089.3999023438</ele>
        <time>2019-02-06T14:15:45.000Z</time>
      </trkpt>
      <trkpt lat="45.92285" lon="6.51125">
        <ele>2089</ele>
        <time>2019-02-06T14:15:46.000Z</time>
      </trkpt>
      <trkpt lat="45.92291" lon="6.51122">
        <ele>2088.3999023438</ele>
        <time>2019-02-06T14:15:47.000Z</time>
      </trkpt>
      <trkpt lat="45.92298" lon="6.51118">
        <ele>2087.3999023438</ele>
        <time>2019-02-06T14:15:48.000Z</time>
      </trkpt>
      <trkpt lat="45.92305" lon="6.51114">
        <ele>2085.8000488281</ele>
        <time>2019-02-06T14:15:49.000Z</time>
      </trkpt>
      <trkpt lat="45.92312" lon="6.51111">
        <ele>2083.8000488281</ele>
        <time>2019-02-06T14:15:50.000Z</time>
      </trkpt>
      <trkpt lat="45.92316" lon="6.51109">
        <ele>2081.8000488281</ele>
        <time>2019-02-06T14:15:51.000Z</time>
      </trkpt>
      <trkpt lat="45.92321" lon="6.51108">
        <ele>2080</ele>
        <time>2019-02-06T14:15:52.000Z</time>
      </trkpt>
      <trkpt lat="45.92325" lon="6.51107">
        <ele>2078.3999023438</ele>
        <time>2019-02-06T14:15:53.000Z</time>
      </trkpt>
      <trkpt lat="45.92328" lon="6.51105">
        <ele>2077</ele>
        <time>2019-02-06T14:15:54.000Z</time>
      </trkpt>
      <trkpt lat="45.92332" lon="6.51103">
        <ele>2075.6000976562</ele>
        <time>2019-02-06T14:15:56.000Z</time>
      </trkpt>
      <trkpt lat="45.92337" lon="6.51102">
        <ele>2074.8000488281</ele>
        <time>2019-02-06T14:15:58.000Z</time>
      </trkpt>
      <trkpt lat="45.92343" lon="6.511">
        <ele>2074.6000976562</ele>
        <time>2019-02-06T14:16:00.000Z</time>
      </trkpt>
      <trkpt lat="45.92352" lon="6.51095">
        <ele>2074.1999511719</ele>
        <time>2019-02-06T14:16:02.000Z</time>
      </trkpt>
      <trkpt lat="45.92357" lon="6.51094">
        <ele>2073.8000488281</ele>
        <time>2019-02-06T14:16:03.000Z</time>
      </trkpt>
      <trkpt lat="45.92362" lon="6.51092">
        <ele>2072.8000488281</ele>
        <time>2019-02-06T14:16:04.000Z</time>
      </trkpt>
      <trkpt lat="45.92368" lon="6.5109">
        <ele>2071.3999023438</ele>
        <time>2019-02-06T14:16:05.000Z</time>
      </trkpt>
      <trkpt lat="45.92375" lon="6.51087">
        <ele>2070</ele>
        <time>2019-02-06T14:16:06.000Z</time>
      </trkpt>
      <trkpt lat="45.92381" lon="6.51084">
        <ele>2068.8000488281</ele>
        <time>2019-02-06T14:16:07.000Z</time>
      </trkpt>
      <trkpt lat="45.92387" lon="6.51082">
        <ele>2066.1999511719</ele>
        <time>2019-02-06T14:16:08.000Z</time>
      </trkpt>
      <trkpt lat="45.92392" lon="6.5108">
        <ele>2064.8000488281</ele>
        <time>2019-02-06T14:16:09.000Z</time>
      </trkpt>
      <trkpt lat="45.92395" lon="6.51078">
        <ele>2063.3999023438</ele>
        <time>2019-02-06T14:16:10.000Z</time>
      </trkpt>
      <trkpt lat="45.92398" lon="6.51077">
        <ele>2062.1999511719</ele>
        <time>2019-02-06T14:16:11.000Z</time>
      </trkpt>
      <trkpt lat="45.924" lon="6.51077">
        <ele>2060.8000488281</ele>
        <time>2019-02-06T14:16:13.000Z</time>
      </trkpt>
      <trkpt lat="45.924" lon="6.51077">
        <ele>2060.1999511719</ele>
        <time>2019-02-06T14:16:22.000Z</time>
      </trkpt>
      <trkpt lat="45.924" lon="6.51077">
        <ele>2059.8000488281</ele>
        <time>2019-02-06T14:16:35.000Z</time>
      </trkpt>
      <trkpt lat="45.924" lon="6.51077">
        <ele>2059.8000488281</ele>
        <time>2019-02-06T14:16:36.000Z</time>
      </trkpt>
      <trkpt lat="45.924" lon="6.51077">
        <ele>2058.8000488281</ele>
        <time>2019-02-06T14:16:46.000Z</time>
      </trkpt>
      <trkpt lat="45.924" lon="6.51077">
        <ele>2058.6000976562</ele>
        <time>2019-02-06T14:16:47.000Z</time>
      </trkpt>
      <trkpt lat="45.924" lon="6.51079">
        <ele>2060.1999511719</ele>
        <time>2019-02-06T14:16:52.000Z</time>
      </trkpt>
      <trkpt lat="45.924" lon="6.51079">
        <ele>2059.8000488281</ele>
        <time>2019-02-06T14:16:59.000Z</time>
      </trkpt>
      <trkpt lat="45.924" lon="6.51079">
        <ele>2059.8000488281</ele>
        <time>2019-02-06T14:17:13.000Z</time>
      </trkpt>
      <trkpt lat="45.924" lon="6.51079">
        <ele>2059.8000488281</ele>
        <time>2019-02-06T14:17:31.000Z</time>
      </trkpt>
      <trkpt lat="45.924" lon="6.5108">
        <ele>2060.1999511719</ele>
        <time>2019-02-06T14:17:50.000Z</time>
      </trkpt>
      <trkpt lat="45.924" lon="6.5108">
        <ele>2060</ele>
        <time>2019-02-06T14:18:03.000Z</time>
      </trkpt>
      <trkpt lat="45.92399" lon="6.51081">
        <ele>2060</ele>
        <time>2019-02-06T14:18:15.000Z</time>
      </trkpt>
      <trkpt lat="45.92399" lon="6.51081">
        <ele>2060.1999511719</ele>
        <time>2019-02-06T14:18:18.000Z</time>
      </trkpt>
      <trkpt lat="45.92399" lon="6.51081">
        <ele>2060</ele>
        <time>2019-02-06T14:18:37.000Z</time>
      </trkpt>
      <trkpt lat="45.92399" lon="6.51081">
        <ele>2060</ele>
        <time>2019-02-06T14:18:50.000Z</time>
      </trkpt>
      <trkpt lat="45.924" lon="6.51082">
        <ele>2058.6000976562</ele>
        <time>2019-02-06T14:18:53.000Z</time>
      </trkpt>
      <trkpt lat="45.924" lon="6.51082">
        <ele>2057.3999023438</ele>
        <time>2019-02-06T14:18:55.000Z</time>
      </trkpt>
      <trkpt lat="45.924" lon="6.51082">
        <ele>2058.6000976562</ele>
        <time>2019-02-06T14:18:57.000Z</time>
      </trkpt>
      <trkpt lat="45.924" lon="6.51082">
        <ele>2059.8000488281</ele>
        <time>2019-02-06T14:18:58.000Z</time>
      </trkpt>
      <trkpt lat="45.924" lon="6.51082">
        <ele>2061</ele>
        <time>2019-02-06T14:19:00.000Z</time>
      </trkpt>
      <trkpt lat="45.924" lon="6.51082">
        <ele>2060</ele>
        <time>2019-02-06T14:19:04.000Z</time>
      </trkpt>
      <trkpt lat="45.924" lon="6.51082">
        <ele>2059.6000976562</ele>
        <time>2019-02-06T14:19:05.000Z</time>
      </trkpt>
      <trkpt lat="45.924" lon="6.51082">
        <ele>2060</ele>
        <time>2019-02-06T14:19:18.000Z</time>
      </trkpt>
      <trkpt lat="45.92401" lon="6.51082">
        <ele>2059.6000976562</ele>
        <time>2019-02-06T14:19:32.000Z</time>
      </trkpt>
      <trkpt lat="45.92401" lon="6.51082">
        <ele>2060</ele>
        <time>2019-02-06T14:19:49.000Z</time>
      </trkpt>
      <trkpt lat="45.92401" lon="6.51082">
        <ele>2060.1999511719</ele>
        <time>2019-02-06T14:20:00.000Z</time>
      </trkpt>
      <trkpt lat="45.92402" lon="6.51083">
        <ele>2060.1999511719</ele>
        <time>2019-02-06T14:20:12.000Z</time>
      </trkpt>
      <trkpt lat="45.92402" lon="6.51083">
        <ele>2059.8000488281</ele>
        <time>2019-02-06T14:20:20.000Z</time>
      </trkpt>
      <trkpt lat="45.92402" lon="6.51083">
        <ele>2060.6000976562</ele>
        <time>2019-02-06T14:20:28.000Z</time>
      </trkpt>
      <trkpt lat="45.92402" lon="6.51083">
        <ele>2061</ele>
        <time>2019-02-06T14:20:31.000Z</time>
      </trkpt>
      <trkpt lat="45.92402" lon="6.51083">
        <ele>2060.3999023438</ele>
        <time>2019-02-06T14:20:41.000Z</time>
      </trkpt>
      <trkpt lat="45.92402" lon="6.51083">
        <ele>2060</ele>
        <time>2019-02-06T14:20:45.000Z</time>
      </trkpt>
      <trkpt lat="45.92402" lon="6.51084">
        <ele>2061</ele>
        <time>2019-02-06T14:20:52.000Z</time>
      </trkpt>
      <trkpt lat="45.92402" lon="6.51084">
        <ele>2060.6000976562</ele>
        <time>2019-02-06T14:20:57.000Z</time>
      </trkpt>
      <trkpt lat="45.92402" lon="6.51084">
        <ele>2061</ele>
        <time>2019-02-06T14:21:09.000Z</time>
      </trkpt>
      <trkpt lat="45.92402" lon="6.51084">
        <ele>2060.6000976562</ele>
        <time>2019-02-06T14:21:24.000Z</time>
      </trkpt>
      <trkpt lat="45.92403" lon="6.51084">
        <ele>2060.3999023438</ele>
        <time>2019-02-06T14:21:36.000Z</time>
      </trkpt>
      <trkpt lat="45.92403" lon="6.51084">
        <ele>2060.8000488281</ele>
        <time>2019-02-06T14:21:53.000Z</time>
      </trkpt>
      <trkpt lat="45.92402" lon="6.51086">
        <ele>2060.6000976562</ele>
        <time>2019-02-06T14:22:12.000Z</time>
      </trkpt>
      <trkpt lat="45.92402" lon="6.51086">
        <ele>2059.8000488281</ele>
        <time>2019-02-06T14:22:24.000Z</time>
      </trkpt>
      <trkpt lat="45.92402" lon="6.51086">
        <ele>2061</ele>
        <time>2019-02-06T14:22:31.000Z</time>
      </trkpt>
      <trkpt lat="45.92402" lon="6.51086">
        <ele>2061.6000976562</ele>
        <time>2019-02-06T14:22:37.000Z</time>
      </trkpt>
      <trkpt lat="45.92402" lon="6.51086">
        <ele>2060.6000976562</ele>
        <time>2019-02-06T14:22:49.000Z</time>
      </trkpt>
      <trkpt lat="45.92402" lon="6.51086">
        <ele>2060.8000488281</ele>
        <time>2019-02-06T14:22:52.000Z</time>
      </trkpt>
      <trkpt lat="45.92402" lon="6.51086">
        <ele>2061</ele>
        <time>2019-02-06T14:23:05.000Z</time>
      </trkpt>
      <trkpt lat="45.92402" lon="6.51086">
        <ele>2061</ele>
        <time>2019-02-06T14:23:19.000Z</time>
      </trkpt>
      <trkpt lat="45.92403" lon="6.51086">
        <ele>2061</ele>
        <time>2019-02-06T14:23:34.000Z</time>
      </trkpt>
      <trkpt lat="45.92403" lon="6.51086">
        <ele>2061</ele>
        <time>2019-02-06T14:23:49.000Z</time>
      </trkpt>
      <trkpt lat="45.92403" lon="6.51086">
        <ele>2061.3999023438</ele>
        <time>2019-02-06T14:24:04.000Z</time>
      </trkpt>
      <trkpt lat="45.92404" lon="6.51086">
        <ele>2061.1999511719</ele>
        <time>2019-02-06T14:24:13.000Z</time>
      </trkpt>
      <trkpt lat="45.92404" lon="6.51086">
        <ele>2061.1999511719</ele>
        <time>2019-02-06T14:24:20.000Z</time>
      </trkpt>
      <trkpt lat="45.92404" lon="6.51086">
        <ele>2061.8000488281</ele>
        <time>2019-02-06T14:24:29.000Z</time>
      </trkpt>
      <trkpt lat="45.92404" lon="6.51086">
        <ele>2062</ele>
        <time>2019-02-06T14:24:30.000Z</time>
      </trkpt>
      <trkpt lat="45.92407" lon="6.51088">
        <ele>2062.8000488281</ele>
        <time>2019-02-06T14:24:37.000Z</time>
      </trkpt>
      <trkpt lat="45.9241" lon="6.5109">
        <ele>2063</ele>
        <time>2019-02-06T14:24:40.000Z</time>
      </trkpt>
      <trkpt lat="45.9241" lon="6.5109">
        <ele>2063.3999023438</ele>
        <time>2019-02-06T14:24:41.000Z</time>
      </trkpt>
      <trkpt lat="45.92413" lon="6.51094">
        <ele>2064.1999511719</ele>
        <time>2019-02-06T14:24:45.000Z</time>
      </trkpt>
      <trkpt lat="45.92415" lon="6.51095">
        <ele>2064.6000976562</ele>
        <time>2019-02-06T14:24:47.000Z</time>
      </trkpt>
      <trkpt lat="45.92415" lon="6.51096">
        <ele>2065.1999511719</ele>
        <time>2019-02-06T14:24:50.000Z</time>
      </trkpt>
      <trkpt lat="45.92416" lon="6.51096">
        <ele>2065.6000976562</ele>
        <time>2019-02-06T14:24:52.000Z</time>
      </trkpt>
      <trkpt lat="45.92419" lon="6.51099">
        <ele>2066.3999023438</ele>
        <time>2019-02-06T14:24:57.000Z</time>
      </trkpt>
      <trkpt lat="45.92419" lon="6.51099">
        <ele>2066.6000976562</ele>
        <time>2019-02-06T14:24:58.000Z</time>
      </trkpt>
      <trkpt lat="45.92419" lon="6.51099">
        <ele>2067.6000976562</ele>
        <time>2019-02-06T14:25:02.000Z</time>
      </trkpt>
      <trkpt lat="45.92419" lon="6.51099">
        <ele>2068</ele>
        <time>2019-02-06T14:25:06.000Z</time>
      </trkpt>
      <trkpt lat="45.92419" lon="6.511">
        <ele>2068.8000488281</ele>
        <time>2019-02-06T14:25:12.000Z</time>
      </trkpt>
      <trkpt lat="45.92418" lon="6.51102">
        <ele>2069.8000488281</ele>
        <time>2019-02-06T14:25:14.000Z</time>
      </trkpt>
      <trkpt lat="45.92418" lon="6.51102">
        <ele>2070</ele>
        <time>2019-02-06T14:25:15.000Z</time>
      </trkpt>
      <trkpt lat="45.92417" lon="6.51107">
        <ele>2069.6000976562</ele>
        <time>2019-02-06T14:25:19.000Z</time>
      </trkpt>
      <trkpt lat="45.92417" lon="6.51107">
        <ele>2070.6000976562</ele>
        <time>2019-02-06T14:25:25.000Z</time>
      </trkpt>
      <trkpt lat="45.92417" lon="6.51107">
        <ele>2070.8000488281</ele>
        <time>2019-02-06T14:25:26.000Z</time>
      </trkpt>
      <trkpt lat="45.92416" lon="6.5111">
        <ele>2071.8000488281</ele>
        <time>2019-02-06T14:25:30.000Z</time>
      </trkpt>
      <trkpt lat="45.92416" lon="6.51111">
        <ele>2071.8000488281</ele>
        <time>2019-02-06T14:25:31.000Z</time>
      </trkpt>
      <trkpt lat="45.92415" lon="6.51112">
        <ele>2072.6000976562</ele>
        <time>2019-02-06T14:25:34.000Z</time>
      </trkpt>
      <trkpt lat="45.92415" lon="6.51114">
        <ele>2073</ele>
        <time>2019-02-06T14:25:36.000Z</time>
      </trkpt>
      <trkpt lat="45.92415" lon="6.51114">
        <ele>2073.6000976562</ele>
        <time>2019-02-06T14:25:39.000Z</time>
      </trkpt>
      <trkpt lat="45.92415" lon="6.51114">
        <ele>2074.1999511719</ele>
        <time>2019-02-06T14:25:42.000Z</time>
      </trkpt>
      <trkpt lat="45.92415" lon="6.51114">
        <ele>2074.8000488281</ele>
        <time>2019-02-06T14:25:45.000Z</time>
      </trkpt>
      <trkpt lat="45.92415" lon="6.51114">
        <ele>2075.3999023438</ele>
        <time>2019-02-06T14:25:48.000Z</time>
      </trkpt>
      <trkpt lat="45.92415" lon="6.51114">
        <ele>2076.1999511719</ele>
        <time>2019-02-06T14:25:52.000Z</time>
      </trkpt>
      <trkpt lat="45.92415" lon="6.51114">
        <ele>2076.6000976562</ele>
        <time>2019-02-06T14:25:53.000Z</time>
      </trkpt>
      <trkpt lat="45.92415" lon="6.51114">
        <ele>2077.6000976562</ele>
        <time>2019-02-06T14:25:58.000Z</time>
      </trkpt>
      <trkpt lat="45.92415" lon="6.51114">
        <ele>2077.8000488281</ele>
        <time>2019-02-06T14:25:59.000Z</time>
      </trkpt>
      <trkpt lat="45.92415" lon="6.51114">
        <ele>2078.1999511719</ele>
        <time>2019-02-06T14:26:07.000Z</time>
      </trkpt>
      <trkpt lat="45.92417" lon="6.51115">
        <ele>2078.1999511719</ele>
        <time>2019-02-06T14:26:11.000Z</time>
      </trkpt>
      <trkpt lat="45.92417" lon="6.51115">
        <ele>2078.1999511719</ele>
        <time>2019-02-06T14:26:16.000Z</time>
      </trkpt>
      <trkpt lat="45.92417" lon="6.51115">
        <ele>2078.8000488281</ele>
        <time>2019-02-06T14:26:18.000Z</time>
      </trkpt>
      <trkpt lat="45.92419" lon="6.51116">
        <ele>2079.3999023438</ele>
        <time>2019-02-06T14:26:20.000Z</time>
      </trkpt>
      <trkpt lat="45.92421" lon="6.51117">
        <ele>2080</ele>
        <time>2019-02-06T14:26:24.000Z</time>
      </trkpt>
      <trkpt lat="45.92424" lon="6.51121">
        <ele>2080.3999023438</ele>
        <time>2019-02-06T14:26:29.000Z</time>
      </trkpt>
      <trkpt lat="45.92425" lon="6.51121">
        <ele>2081</ele>
        <time>2019-02-06T14:26:32.000Z</time>
      </trkpt>
      <trkpt lat="45.92426" lon="6.51122">
        <ele>2081.8000488281</ele>
        <time>2019-02-06T14:26:35.000Z</time>
      </trkpt>
      <trkpt lat="45.92427" lon="6.51122">
        <ele>2082.1999511719</ele>
        <time>2019-02-06T14:26:37.000Z</time>
      </trkpt>
      <trkpt lat="45.92428" lon="6.51122">
        <ele>2082.8000488281</ele>
        <time>2019-02-06T14:26:40.000Z</time>
      </trkpt>
      <trkpt lat="45.92429" lon="6.51123">
        <ele>2083.1999511719</ele>
        <time>2019-02-06T14:26:43.000Z</time>
      </trkpt>
      <trkpt lat="45.9243" lon="6.51123">
        <ele>2083.3999023438</ele>
        <time>2019-02-06T14:26:45.000Z</time>
      </trkpt>
      <trkpt lat="45.92432" lon="6.51124">
        <ele>2084</ele>
        <time>2019-02-06T14:26:47.000Z</time>
      </trkpt>
      <trkpt lat="45.92432" lon="6.51124">
        <ele>2084.6000976562</ele>
        <time>2019-02-06T14:26:49.000Z</time>
      </trkpt>
      <trkpt lat="45.92433" lon="6.51125">
        <ele>2085.1999511719</ele>
        <time>2019-02-06T14:26:53.000Z</time>
      </trkpt>
      <trkpt lat="45.92433" lon="6.51125">
        <ele>2085.6000976562</ele>
        <time>2019-02-06T14:26:56.000Z</time>
      </trkpt>
      <trkpt lat="45.92434" lon="6.51126">
        <ele>2085.6000976562</ele>
        <time>2019-02-06T14:26:59.000Z</time>
      </trkpt>
      <trkpt lat="45.92433" lon="6.51125">
        <ele>2086.6000976562</ele>
        <time>2019-02-06T14:27:04.000Z</time>
      </trkpt>
      <trkpt lat="45.92433" lon="6.51125">
        <ele>2086.8000488281</ele>
        <time>2019-02-06T14:27:07.000Z</time>
      </trkpt>
      <trkpt lat="45.92433" lon="6.51126">
        <ele>2087.6000976562</ele>
        <time>2019-02-06T14:27:15.000Z</time>
      </trkpt>
      <trkpt lat="45.92433" lon="6.51126">
        <ele>2087.8000488281</ele>
        <time>2019-02-06T14:27:16.000Z</time>
      </trkpt>
      <trkpt lat="45.92433" lon="6.51126">
        <ele>2088.6000976562</ele>
        <time>2019-02-06T14:27:21.000Z</time>
      </trkpt>
      <trkpt lat="45.92433" lon="6.51126">
        <ele>2088.8000488281</ele>
        <time>2019-02-06T14:27:22.000Z</time>
      </trkpt>
      <trkpt lat="45.92433" lon="6.51126">
        <ele>2089.8000488281</ele>
        <time>2019-02-06T14:27:27.000Z</time>
      </trkpt>
      <trkpt lat="45.92433" lon="6.51126">
        <ele>2090.1999511719</ele>
        <time>2019-02-06T14:27:28.000Z</time>
      </trkpt>
      <trkpt lat="45.92433" lon="6.51126">
        <ele>2090.8000488281</ele>
        <time>2019-02-06T14:27:30.000Z</time>
      </trkpt>
      <trkpt lat="45.92433" lon="6.51126">
        <ele>2091.6000976562</ele>
        <time>2019-02-06T14:27:38.000Z</time>
      </trkpt>
      <trkpt lat="45.92433" lon="6.51126">
        <ele>2091.3999023438</ele>
        <time>2019-02-06T14:27:45.000Z</time>
      </trkpt>
      <trkpt lat="45.92434" lon="6.51126">
        <ele>2092</ele>
        <time>2019-02-06T14:27:50.000Z</time>
      </trkpt>
      <trkpt lat="45.92434" lon="6.51126">
        <ele>2092.3999023438</ele>
        <time>2019-02-06T14:27:52.000Z</time>
      </trkpt>
      <trkpt lat="45.92434" lon="6.51126">
        <ele>2093</ele>
        <time>2019-02-06T14:27:55.000Z</time>
      </trkpt>
      <trkpt lat="45.92434" lon="6.51126">
        <ele>2094</ele>
        <time>2019-02-06T14:27:58.000Z</time>
      </trkpt>
      <trkpt lat="45.92434" lon="6.51126">
        <ele>2094.1999511719</ele>
        <time>2019-02-06T14:27:59.000Z</time>
      </trkpt>
      <trkpt lat="45.92434" lon="6.51126">
        <ele>2094.8000488281</ele>
        <time>2019-02-06T14:28:04.000Z</time>
      </trkpt>
      <trkpt lat="45.92438" lon="6.51128">
        <ele>2095</ele>
        <time>2019-02-06T14:28:08.000Z</time>
      </trkpt>
      <trkpt lat="45.9244" lon="6.5113">
        <ele>2095.3999023438</ele>
        <time>2019-02-06T14:28:11.000Z</time>
      </trkpt>
      <trkpt lat="45.92443" lon="6.51132">
        <ele>2096</ele>
        <time>2019-02-06T14:28:15.000Z</time>
      </trkpt>
      <trkpt lat="45.92444" lon="6.51135">
        <ele>2096.3999023438</ele>
        <time>2019-02-06T14:28:19.000Z</time>
      </trkpt>
      <trkpt lat="45.92444" lon="6.51139">
        <ele>2097.8000488281</ele>
        <time>2019-02-06T14:28:22.000Z</time>
      </trkpt>
      <trkpt lat="45.92443" lon="6.51143">
        <ele>2098.1999511719</ele>
        <time>2019-02-06T14:28:23.000Z</time>
      </trkpt>
      <trkpt lat="45.92441" lon="6.51156">
        <ele>2097.3999023438</ele>
        <time>2019-02-06T14:28:30.000Z</time>
      </trkpt>
      <trkpt lat="45.9244" lon="6.5116">
        <ele>2098.8000488281</ele>
        <time>2019-02-06T14:28:38.000Z</time>
      </trkpt>
      <trkpt lat="45.9244" lon="6.51163">
        <ele>2099.8000488281</ele>
        <time>2019-02-06T14:28:41.000Z</time>
      </trkpt>
      <trkpt lat="45.9244" lon="6.51163">
        <ele>2100.8000488281</ele>
        <time>2019-02-06T14:28:44.000Z</time>
      </trkpt>
      <trkpt lat="45.9244" lon="6.51163">
        <ele>2101.6000976562</ele>
        <time>2019-02-06T14:28:50.000Z</time>
      </trkpt>
      <trkpt lat="45.9244" lon="6.51163">
        <ele>2102</ele>
        <time>2019-02-06T14:28:53.000Z</time>
      </trkpt>
      <trkpt lat="45.9244" lon="6.51163">
        <ele>2103.1999511719</ele>
        <time>2019-02-06T14:28:57.000Z</time>
      </trkpt>
      <trkpt lat="45.9244" lon="6.51163">
        <ele>2103.6000976562</ele>
        <time>2019-02-06T14:28:58.000Z</time>
      </trkpt>
      <trkpt lat="45.9244" lon="6.51163">
        <ele>2103.6000976562</ele>
        <time>2019-02-06T14:29:08.000Z</time>
      </trkpt>
      <trkpt lat="45.9244" lon="6.51163">
        <ele>2104.1999511719</ele>
        <time>2019-02-06T14:29:11.000Z</time>
      </trkpt>
      <trkpt lat="45.9244" lon="6.51164">
        <ele>2104.8000488281</ele>
        <time>2019-02-06T14:29:14.000Z</time>
      </trkpt>
      <trkpt lat="45.92446" lon="6.51169">
        <ele>2105.1999511719</ele>
        <time>2019-02-06T14:29:19.000Z</time>
      </trkpt>
      <trkpt lat="45.92446" lon="6.51169">
        <ele>2105.1999511719</ele>
        <time>2019-02-06T14:29:20.000Z</time>
      </trkpt>
      <trkpt lat="45.92449" lon="6.51171">
        <ele>2106.3999023438</ele>
        <time>2019-02-06T14:29:24.000Z</time>
      </trkpt>
      <trkpt lat="45.9245" lon="6.51171">
        <ele>2106.8000488281</ele>
        <time>2019-02-06T14:29:27.000Z</time>
      </trkpt>
      <trkpt lat="45.92451" lon="6.51171">
        <ele>2107.3999023438</ele>
        <time>2019-02-06T14:29:29.000Z</time>
      </trkpt>
      <trkpt lat="45.92452" lon="6.51171">
        <ele>2107.8000488281</ele>
        <time>2019-02-06T14:29:31.000Z</time>
      </trkpt>
      <trkpt lat="45.92455" lon="6.51169">
        <ele>2108</ele>
        <time>2019-02-06T14:29:35.000Z</time>
      </trkpt>
      <trkpt lat="45.92456" lon="6.5117">
        <ele>2108.6000976562</ele>
        <time>2019-02-06T14:29:40.000Z</time>
      </trkpt>
      <trkpt lat="45.92456" lon="6.51169">
        <ele>2109.1999511719</ele>
        <time>2019-02-06T14:29:42.000Z</time>
      </trkpt>
      <trkpt lat="45.92458" lon="6.51169">
        <ele>2109.6000976562</ele>
        <time>2019-02-06T14:29:45.000Z</time>
      </trkpt>
      <trkpt lat="45.92461" lon="6.51171">
        <ele>2109.6000976562</ele>
        <time>2019-02-06T14:29:50.000Z</time>
      </trkpt>
      <trkpt lat="45.92462" lon="6.51172">
        <ele>2110.8000488281</ele>
        <time>2019-02-06T14:29:57.000Z</time>
      </trkpt>
      <trkpt lat="45.92462" lon="6.51172">
        <ele>2111.8000488281</ele>
        <time>2019-02-06T14:29:59.000Z</time>
      </trkpt>
      <trkpt lat="45.92462" lon="6.51172">
        <ele>2112</ele>
        <time>2019-02-06T14:30:00.000Z</time>
      </trkpt>
      <trkpt lat="45.92461" lon="6.51174">
        <ele>2110.8000488281</ele>
        <time>2019-02-06T14:30:06.000Z</time>
      </trkpt>
      <trkpt lat="45.92456" lon="6.51181">
        <ele>2112</ele>
        <time>2019-02-06T14:30:10.000Z</time>
      </trkpt>
      <trkpt lat="45.92455" lon="6.51185">
        <ele>2112.8000488281</ele>
        <time>2019-02-06T14:30:13.000Z</time>
      </trkpt>
      <trkpt lat="45.92454" lon="6.51187">
        <ele>2113</ele>
        <time>2019-02-06T14:30:14.000Z</time>
      </trkpt>
      <trkpt lat="45.92452" lon="6.51192">
        <ele>2114</ele>
        <time>2019-02-06T14:30:20.000Z</time>
      </trkpt>
      <trkpt lat="45.92452" lon="6.51193">
        <ele>2114.1999511719</ele>
        <time>2019-02-06T14:30:21.000Z</time>
      </trkpt>
      <trkpt lat="45.92451" lon="6.51196">
        <ele>2115</ele>
        <time>2019-02-06T14:30:26.000Z</time>
      </trkpt>
      <trkpt lat="45.92451" lon="6.51196">
        <ele>2115.1999511719</ele>
        <time>2019-02-06T14:30:27.000Z</time>
      </trkpt>
      <trkpt lat="45.92451" lon="6.51196">
        <ele>2116.6000976562</ele>
        <time>2019-02-06T14:30:32.000Z</time>
      </trkpt>
      <trkpt lat="45.92451" lon="6.51196">
        <ele>2116.8000488281</ele>
        <time>2019-02-06T14:30:36.000Z</time>
      </trkpt>
      <trkpt lat="45.92451" lon="6.51196">
        <ele>2116.8000488281</ele>
        <time>2019-02-06T14:30:42.000Z</time>
      </trkpt>
      <trkpt lat="45.92451" lon="6.51196">
        <ele>2117.8000488281</ele>
        <time>2019-02-06T14:30:45.000Z</time>
      </trkpt>
      <trkpt lat="45.92453" lon="6.51195">
        <ele>2117.8000488281</ele>
        <time>2019-02-06T14:30:48.000Z</time>
      </trkpt>
      <trkpt lat="45.92455" lon="6.51195">
        <ele>2118.8000488281</ele>
        <time>2019-02-06T14:30:54.000Z</time>
      </trkpt>
      <trkpt lat="45.92455" lon="6.51195">
        <ele>2119</ele>
        <time>2019-02-06T14:30:55.000Z</time>
      </trkpt>
      <trkpt lat="45.92455" lon="6.51195">
        <ele>2120</ele>
        <time>2019-02-06T14:30:57.000Z</time>
      </trkpt>
      <trkpt lat="45.92454" lon="6.51195">
        <ele>2119.8000488281</ele>
        <time>2019-02-06T14:31:04.000Z</time>
      </trkpt>
      <trkpt lat="45.92453" lon="6.51196">
        <ele>2121.1999511719</ele>
        <time>2019-02-06T14:31:07.000Z</time>
      </trkpt>
      <trkpt lat="45.92453" lon="6.51197">
        <ele>2121.6000976562</ele>
        <time>2019-02-06T14:31:10.000Z</time>
      </trkpt>
      <trkpt lat="45.92453" lon="6.51203">
        <ele>2121.3999023438</ele>
        <time>2019-02-06T14:31:15.000Z</time>
      </trkpt>
      <trkpt lat="45.92453" lon="6.51209">
        <ele>2122.6000976562</ele>
        <time>2019-02-06T14:31:22.000Z</time>
      </trkpt>
      <trkpt lat="45.92453" lon="6.5121">
        <ele>2123.6000976562</ele>
        <time>2019-02-06T14:31:26.000Z</time>
      </trkpt>
      <trkpt lat="45.92453" lon="6.51211">
        <ele>2124.3999023438</ele>
        <time>2019-02-06T14:31:29.000Z</time>
      </trkpt>
      <trkpt lat="45.92453" lon="6.51212">
        <ele>2124.8000488281</ele>
        <time>2019-02-06T14:31:31.000Z</time>
      </trkpt>
      <trkpt lat="45.92452" lon="6.51214">
        <ele>2125.3999023438</ele>
        <time>2019-02-06T14:31:34.000Z</time>
      </trkpt>
      <trkpt lat="45.92452" lon="6.51215">
        <ele>2125.8000488281</ele>
        <time>2019-02-06T14:31:36.000Z</time>
      </trkpt>
      <trkpt lat="45.92451" lon="6.51215">
        <ele>2126.3999023438</ele>
        <time>2019-02-06T14:31:40.000Z</time>
      </trkpt>
      <trkpt lat="45.92454" lon="6.51216">
        <ele>2126.1999511719</ele>
        <time>2019-02-06T14:31:48.000Z</time>
      </trkpt>
      <trkpt lat="45.92458" lon="6.51217">
        <ele>2127</ele>
        <time>2019-02-06T14:31:52.000Z</time>
      </trkpt>
      <trkpt lat="45.92459" lon="6.51217">
        <ele>2127.3999023438</ele>
        <time>2019-02-06T14:31:53.000Z</time>
      </trkpt>
      <trkpt lat="45.92465" lon="6.51216">
        <ele>2127.8000488281</ele>
        <time>2019-02-06T14:31:57.000Z</time>
      </trkpt>
      <trkpt lat="45.92467" lon="6.51215">
        <ele>2128</ele>
        <time>2019-02-06T14:31:59.000Z</time>
      </trkpt>
      <trkpt lat="45.92468" lon="6.51213">
        <ele>2128.3999023438</ele>
        <time>2019-02-06T14:32:01.000Z</time>
      </trkpt>
      <trkpt lat="45.92469" lon="6.51212">
        <ele>2129.1999511719</ele>
        <time>2019-02-06T14:32:03.000Z</time>
      </trkpt>
      <trkpt lat="45.92471" lon="6.51207">
        <ele>2130</ele>
        <time>2019-02-06T14:32:06.000Z</time>
      </trkpt>
      <trkpt lat="45.92472" lon="6.51206">
        <ele>2130.1999511719</ele>
        <time>2019-02-06T14:32:11.000Z</time>
      </trkpt>
      <trkpt lat="45.92473" lon="6.51206">
        <ele>2130.6000976562</ele>
        <time>2019-02-06T14:32:13.000Z</time>
      </trkpt>
      <trkpt lat="45.92474" lon="6.51205">
        <ele>2130</ele>
        <time>2019-02-06T14:32:19.000Z</time>
      </trkpt>
      <trkpt lat="45.92474" lon="6.51205">
        <ele>2131.6000976562</ele>
        <time>2019-02-06T14:32:24.000Z</time>
      </trkpt>
      <trkpt lat="45.92474" lon="6.51206">
        <ele>2132.3999023438</ele>
        <time>2019-02-06T14:32:27.000Z</time>
      </trkpt>
      <trkpt lat="45.92474" lon="6.51208">
        <ele>2131.6000976562</ele>
        <time>2019-02-06T14:32:33.000Z</time>
      </trkpt>
      <trkpt lat="45.92473" lon="6.5121">
        <ele>2132.6000976562</ele>
        <time>2019-02-06T14:32:37.000Z</time>
      </trkpt>
      <trkpt lat="45.92473" lon="6.5121">
        <ele>2132.6000976562</ele>
        <time>2019-02-06T14:32:38.000Z</time>
      </trkpt>
      <trkpt lat="45.92471" lon="6.51214">
        <ele>2133.8000488281</ele>
        <time>2019-02-06T14:32:47.000Z</time>
      </trkpt>
      <trkpt lat="45.9247" lon="6.51216">
        <ele>2134.6000976562</ele>
        <time>2019-02-06T14:32:53.000Z</time>
      </trkpt>
      <trkpt lat="45.92469" lon="6.51216">
        <ele>2134.8000488281</ele>
        <time>2019-02-06T14:32:57.000Z</time>
      </trkpt>
      <trkpt lat="45.92468" lon="6.51217">
        <ele>2134.6000976562</ele>
        <time>2019-02-06T14:33:00.000Z</time>
      </trkpt>
      <trkpt lat="45.92468" lon="6.51217">
        <ele>2134.6000976562</ele>
        <time>2019-02-06T14:33:04.000Z</time>
      </trkpt>
      <trkpt lat="45.92468" lon="6.51218">
        <ele>2134.3999023438</ele>
        <time>2019-02-06T14:33:11.000Z</time>
      </trkpt>
      <trkpt lat="45.92467" lon="6.51219">
        <ele>2135</ele>
        <time>2019-02-06T14:33:19.000Z</time>
      </trkpt>
      <trkpt lat="45.92465" lon="6.51221">
        <ele>2135.8000488281</ele>
        <time>2019-02-06T14:33:24.000Z</time>
      </trkpt>
      <trkpt lat="45.92465" lon="6.51221">
        <ele>2136.1999511719</ele>
        <time>2019-02-06T14:33:26.000Z</time>
      </trkpt>
      <trkpt lat="45.92464" lon="6.51222">
        <ele>2136.8000488281</ele>
        <time>2019-02-06T14:33:32.000Z</time>
      </trkpt>
      <trkpt lat="45.92466" lon="6.51222">
        <ele>2137</ele>
        <time>2019-02-06T14:33:39.000Z</time>
      </trkpt>
      <trkpt lat="45.92469" lon="6.51225">
        <ele>2137</ele>
        <time>2019-02-06T14:33:43.000Z</time>
      </trkpt>
      <trkpt lat="45.92471" lon="6.51225">
        <ele>2137.6000976562</ele>
        <time>2019-02-06T14:33:47.000Z</time>
      </trkpt>
      <trkpt lat="45.92471" lon="6.51225">
        <ele>2138</ele>
        <time>2019-02-06T14:33:48.000Z</time>
      </trkpt>
      <trkpt lat="45.92473" lon="6.51225">
        <ele>2138.1999511719</ele>
        <time>2019-02-06T14:33:50.000Z</time>
      </trkpt>
      <trkpt lat="45.92475" lon="6.51226">
        <ele>2138.8000488281</ele>
        <time>2019-02-06T14:33:55.000Z</time>
      </trkpt>
      <trkpt lat="45.92475" lon="6.51226">
        <ele>2139</ele>
        <time>2019-02-06T14:33:56.000Z</time>
      </trkpt>
      <trkpt lat="45.92475" lon="6.51226">
        <ele>2140.6000976562</ele>
        <time>2019-02-06T14:34:00.000Z</time>
      </trkpt>
      <trkpt lat="45.92474" lon="6.51229">
        <ele>2141</ele>
        <time>2019-02-06T14:34:02.000Z</time>
      </trkpt>
      <trkpt lat="45.92472" lon="6.51231">
        <ele>2140.6000976562</ele>
        <time>2019-02-06T14:34:12.000Z</time>
      </trkpt>
      <trkpt lat="45.9247" lon="6.51235">
        <ele>2141.1999511719</ele>
        <time>2019-02-06T14:34:20.000Z</time>
      </trkpt>
      <trkpt lat="45.92469" lon="6.51235">
        <ele>2141.6000976562</ele>
        <time>2019-02-06T14:34:21.000Z</time>
      </trkpt>
      <trkpt lat="45.92468" lon="6.51237">
        <ele>2142.3999023438</ele>
        <time>2019-02-06T14:34:26.000Z</time>
      </trkpt>
      <trkpt lat="45.92467" lon="6.51238">
        <ele>2143</ele>
        <time>2019-02-06T14:34:33.000Z</time>
      </trkpt>
      <trkpt lat="45.92467" lon="6.51238">
        <ele>2143.3999023438</ele>
        <time>2019-02-06T14:34:34.000Z</time>
      </trkpt>
      <trkpt lat="45.92467" lon="6.51239">
        <ele>2143.6000976562</ele>
        <time>2019-02-06T14:34:40.000Z</time>
      </trkpt>
      <trkpt lat="45.92468" lon="6.51239">
        <ele>2144.3999023438</ele>
        <time>2019-02-06T14:34:46.000Z</time>
      </trkpt>
      <trkpt lat="45.92472" lon="6.51239">
        <ele>2144.6000976562</ele>
        <time>2019-02-06T14:34:52.000Z</time>
      </trkpt>
      <trkpt lat="45.92473" lon="6.51238">
        <ele>2145.1999511719</ele>
        <time>2019-02-06T14:34:59.000Z</time>
      </trkpt>
      <trkpt lat="45.92473" lon="6.51238">
        <ele>2145.6000976562</ele>
        <time>2019-02-06T14:35:02.000Z</time>
      </trkpt>
      <trkpt lat="45.92473" lon="6.51238">
        <ele>2146.1999511719</ele>
        <time>2019-02-06T14:35:10.000Z</time>
      </trkpt>
      <trkpt lat="45.92473" lon="6.51238">
        <ele>2146.1999511719</ele>
        <time>2019-02-06T14:35:13.000Z</time>
      </trkpt>
      <trkpt lat="45.92473" lon="6.51238">
        <ele>2146.8000488281</ele>
        <time>2019-02-06T14:35:21.000Z</time>
      </trkpt>
      <trkpt lat="45.92473" lon="6.51238">
        <ele>2147.1999511719</ele>
        <time>2019-02-06T14:35:24.000Z</time>
      </trkpt>
      <trkpt lat="45.92473" lon="6.51238">
        <ele>2146</ele>
        <time>2019-02-06T14:35:33.000Z</time>
      </trkpt>
      <trkpt lat="45.92473" lon="6.51238">
        <ele>2145.8000488281</ele>
        <time>2019-02-06T14:35:34.000Z</time>
      </trkpt>
      <trkpt lat="45.92473" lon="6.51238">
        <ele>2145.8000488281</ele>
        <time>2019-02-06T14:35:46.000Z</time>
      </trkpt>
      <trkpt lat="45.92473" lon="6.51239">
        <ele>2147</ele>
        <time>2019-02-06T14:35:51.000Z</time>
      </trkpt>
      <trkpt lat="45.92473" lon="6.51239">
        <ele>2147.1999511719</ele>
        <time>2019-02-06T14:35:52.000Z</time>
      </trkpt>
      <trkpt lat="45.92472" lon="6.51243">
        <ele>2148</ele>
        <time>2019-02-06T14:35:55.000Z</time>
      </trkpt>
      <trkpt lat="45.92472" lon="6.51245">
        <ele>2148.3999023438</ele>
        <time>2019-02-06T14:35:57.000Z</time>
      </trkpt>
      <trkpt lat="45.92472" lon="6.51247">
        <ele>2149.1999511719</ele>
        <time>2019-02-06T14:36:01.000Z</time>
      </trkpt>
      <trkpt lat="45.92473" lon="6.51247">
        <ele>2150.1999511719</ele>
        <time>2019-02-06T14:36:05.000Z</time>
      </trkpt>
      <trkpt lat="45.92473" lon="6.51247">
        <ele>2150.3999023438</ele>
        <time>2019-02-06T14:36:06.000Z</time>
      </trkpt>
      <trkpt lat="45.92473" lon="6.5125">
        <ele>2151.8000488281</ele>
        <time>2019-02-06T14:36:11.000Z</time>
      </trkpt>
      <trkpt lat="45.92474" lon="6.51252">
        <ele>2153</ele>
        <time>2019-02-06T14:36:14.000Z</time>
      </trkpt>
      <trkpt lat="45.92474" lon="6.51252">
        <ele>2153.3999023438</ele>
        <time>2019-02-06T14:36:16.000Z</time>
      </trkpt>
      <trkpt lat="45.92474" lon="6.51252">
        <ele>2154.1999511719</ele>
        <time>2019-02-06T14:36:19.000Z</time>
      </trkpt>
      <trkpt lat="45.92473" lon="6.51254">
        <ele>2154.3999023438</ele>
        <time>2019-02-06T14:36:26.000Z</time>
      </trkpt>
      <trkpt lat="45.92472" lon="6.51256">
        <ele>2154.6000976562</ele>
        <time>2019-02-06T14:36:32.000Z</time>
      </trkpt>
      <trkpt lat="45.92472" lon="6.51257">
        <ele>2155.6000976562</ele>
        <time>2019-02-06T14:36:35.000Z</time>
      </trkpt>
      <trkpt lat="45.92475" lon="6.51257">
        <ele>2156.1999511719</ele>
        <time>2019-02-06T14:36:37.000Z</time>
      </trkpt>
      <trkpt lat="45.92475" lon="6.51257">
        <ele>2156.6000976562</ele>
        <time>2019-02-06T14:36:39.000Z</time>
      </trkpt>
      <trkpt lat="45.92476" lon="6.51258">
        <ele>2156.6000976562</ele>
        <time>2019-02-06T14:36:45.000Z</time>
      </trkpt>
      <trkpt lat="45.92476" lon="6.51258">
        <ele>2158</ele>
        <time>2019-02-06T14:36:49.000Z</time>
      </trkpt>
      <trkpt lat="45.92477" lon="6.51259">
        <ele>2158.6000976562</ele>
        <time>2019-02-06T14:36:52.000Z</time>
      </trkpt>
      <trkpt lat="45.92477" lon="6.51259">
        <ele>2159</ele>
        <time>2019-02-06T14:36:54.000Z</time>
      </trkpt>
      <trkpt lat="45.9248" lon="6.5126">
        <ele>2160</ele>
        <time>2019-02-06T14:37:00.000Z</time>
      </trkpt>
      <trkpt lat="45.9248" lon="6.5126">
        <ele>2160</ele>
        <time>2019-02-06T14:37:01.000Z</time>
      </trkpt>
      <trkpt lat="45.92481" lon="6.51261">
        <ele>2161</ele>
        <time>2019-02-06T14:37:06.000Z</time>
      </trkpt>
      <trkpt lat="45.92481" lon="6.51261">
        <ele>2161.1999511719</ele>
        <time>2019-02-06T14:37:07.000Z</time>
      </trkpt>
      <trkpt lat="45.92481" lon="6.51261">
        <ele>2162.1999511719</ele>
        <time>2019-02-06T14:37:13.000Z</time>
      </trkpt>
      <trkpt lat="45.92481" lon="6.51264">
        <ele>2163.1999511719</ele>
        <time>2019-02-06T14:37:20.000Z</time>
      </trkpt>
      <trkpt lat="45.92481" lon="6.51264">
        <ele>2163.3999023438</ele>
        <time>2019-02-06T14:37:21.000Z</time>
      </trkpt>
      <trkpt lat="45.92482" lon="6.51264">
        <ele>2163.1999511719</ele>
        <time>2019-02-06T14:37:28.000Z</time>
      </trkpt>
      <trkpt lat="45.92483" lon="6.51265">
        <ele>2164.3999023438</ele>
        <time>2019-02-06T14:37:32.000Z</time>
      </trkpt>
      <trkpt lat="45.92483" lon="6.51265">
        <ele>2164.6000976562</ele>
        <time>2019-02-06T14:37:33.000Z</time>
      </trkpt>
      <trkpt lat="45.92483" lon="6.51266">
        <ele>2165.1999511719</ele>
        <time>2019-02-06T14:37:39.000Z</time>
      </trkpt>
      <trkpt lat="45.92483" lon="6.51268">
        <ele>2165.6000976562</ele>
        <time>2019-02-06T14:37:40.000Z</time>
      </trkpt>
      <trkpt lat="45.92483" lon="6.51269">
        <ele>2166.1999511719</ele>
        <time>2019-02-06T14:37:43.000Z</time>
      </trkpt>
      <trkpt lat="45.92483" lon="6.51272">
        <ele>2166.3999023438</ele>
        <time>2019-02-06T14:37:45.000Z</time>
      </trkpt>
      <trkpt lat="45.92483" lon="6.51272">
        <ele>2166.6000976562</ele>
        <time>2019-02-06T14:37:46.000Z</time>
      </trkpt>
      <trkpt lat="45.92482" lon="6.51274">
        <ele>2167</ele>
        <time>2019-02-06T14:37:48.000Z</time>
      </trkpt>
      <trkpt lat="45.92483" lon="6.51276">
        <ele>2167.3999023438</ele>
        <time>2019-02-06T14:37:54.000Z</time>
      </trkpt>
      <trkpt lat="45.92483" lon="6.51275">
        <ele>2167.6000976562</ele>
        <time>2019-02-06T14:37:56.000Z</time>
      </trkpt>
      <trkpt lat="45.92484" lon="6.51276">
        <ele>2168.6000976562</ele>
        <time>2019-02-06T14:37:59.000Z</time>
      </trkpt>
      <trkpt lat="45.92484" lon="6.51276">
        <ele>2168.8000488281</ele>
        <time>2019-02-06T14:38:00.000Z</time>
      </trkpt>
      <trkpt lat="45.92484" lon="6.51276">
        <ele>2170</ele>
        <time>2019-02-06T14:38:05.000Z</time>
      </trkpt>
      <trkpt lat="45.92484" lon="6.51276">
        <ele>2170.1999511719</ele>
        <time>2019-02-06T14:38:06.000Z</time>
      </trkpt>
      <trkpt lat="45.92483" lon="6.5128">
        <ele>2170.8000488281</ele>
        <time>2019-02-06T14:38:11.000Z</time>
      </trkpt>
      <trkpt lat="45.92483" lon="6.51281">
        <ele>2171.1999511719</ele>
        <time>2019-02-06T14:38:14.000Z</time>
      </trkpt>
      <trkpt lat="45.92483" lon="6.51281">
        <ele>2172.1999511719</ele>
        <time>2019-02-06T14:38:19.000Z</time>
      </trkpt>
      <trkpt lat="45.92483" lon="6.51281">
        <ele>2172</ele>
        <time>2019-02-06T14:38:29.000Z</time>
      </trkpt>
      <trkpt lat="45.92483" lon="6.51281">
        <ele>2170.6000976562</ele>
        <time>2019-02-06T14:38:41.000Z</time>
      </trkpt>
      <trkpt lat="45.92483" lon="6.51281">
        <ele>2172.3999023438</ele>
        <time>2019-02-06T14:38:53.000Z</time>
      </trkpt>
      <trkpt lat="45.92483" lon="6.51281">
        <ele>2172.6000976562</ele>
        <time>2019-02-06T14:38:56.000Z</time>
      </trkpt>
      <trkpt lat="45.92483" lon="6.51281">
        <ele>2171</ele>
        <time>2019-02-06T14:39:02.000Z</time>
      </trkpt>
      <trkpt lat="45.92484" lon="6.5128">
        <ele>2170.8000488281</ele>
        <time>2019-02-06T14:39:07.000Z</time>
      </trkpt>
      <trkpt lat="45.92484" lon="6.5128">
        <ele>2172.1999511719</ele>
        <time>2019-02-06T14:39:20.000Z</time>
      </trkpt>
      <trkpt lat="45.92484" lon="6.5128">
        <ele>2171.3999023438</ele>
        <time>2019-02-06T14:39:35.000Z</time>
      </trkpt>
      <trkpt lat="45.92484" lon="6.5128">
        <ele>2171.6000976562</ele>
        <time>2019-02-06T14:39:50.000Z</time>
      </trkpt>
      <trkpt lat="45.92484" lon="6.5128">
        <ele>2171.6000976562</ele>
        <time>2019-02-06T14:40:04.000Z</time>
      </trkpt>
      <trkpt lat="45.92484" lon="6.5128">
        <ele>2171.1999511719</ele>
        <time>2019-02-06T14:40:12.000Z</time>
      </trkpt>
      <trkpt lat="45.92484" lon="6.5128">
        <ele>2171</ele>
        <time>2019-02-06T14:40:16.000Z</time>
      </trkpt>
      <trkpt lat="45.92484" lon="6.5128">
        <ele>2172.1999511719</ele>
        <time>2019-02-06T14:40:19.000Z</time>
      </trkpt>
      <trkpt lat="45.92484" lon="6.51281">
        <ele>2171.6000976562</ele>
        <time>2019-02-06T14:40:31.000Z</time>
      </trkpt>
      <trkpt lat="45.92484" lon="6.51281">
        <ele>2171.6000976562</ele>
        <time>2019-02-06T14:40:44.000Z</time>
      </trkpt>
      <trkpt lat="45.92484" lon="6.51281">
        <ele>2171.6000976562</ele>
        <time>2019-02-06T14:41:06.000Z</time>
      </trkpt>
      <trkpt lat="45.92484" lon="6.51281">
        <ele>2171.1999511719</ele>
        <time>2019-02-06T14:41:19.000Z</time>
      </trkpt>
      <trkpt lat="45.92484" lon="6.51281">
        <ele>2171.1999511719</ele>
        <time>2019-02-06T14:41:20.000Z</time>
      </trkpt>
      <trkpt lat="45.92484" lon="6.51281">
        <ele>2171.8000488281</ele>
        <time>2019-02-06T14:41:30.000Z</time>
      </trkpt>
      <trkpt lat="45.92484" lon="6.51281">
        <ele>2171.8000488281</ele>
        <time>2019-02-06T14:41:40.000Z</time>
      </trkpt>
      <trkpt lat="45.92484" lon="6.51281">
        <ele>2171.6000976562</ele>
        <time>2019-02-06T14:41:56.000Z</time>
      </trkpt>
      <trkpt lat="45.92484" lon="6.51281">
        <ele>2171.6000976562</ele>
        <time>2019-02-06T14:42:15.000Z</time>
      </trkpt>
      <trkpt lat="45.92484" lon="6.51281">
        <ele>2171.8000488281</ele>
        <time>2019-02-06T14:42:29.000Z</time>
      </trkpt>
      <trkpt lat="45.92484" lon="6.51281">
        <ele>2171.6000976562</ele>
        <time>2019-02-06T14:42:43.000Z</time>
      </trkpt>
      <trkpt lat="45.92484" lon="6.51281">
        <ele>2171.8000488281</ele>
        <time>2019-02-06T14:42:58.000Z</time>
      </trkpt>
      <trkpt lat="45.92484" lon="6.51281">
        <ele>2171.1999511719</ele>
        <time>2019-02-06T14:43:09.000Z</time>
      </trkpt>
      <trkpt lat="45.92484" lon="6.51281">
        <ele>2172.1999511719</ele>
        <time>2019-02-06T14:43:19.000Z</time>
      </trkpt>
      <trkpt lat="45.92484" lon="6.51281">
        <ele>2172.3999023438</ele>
        <time>2019-02-06T14:43:20.000Z</time>
      </trkpt>
      <trkpt lat="45.92484" lon="6.51281">
        <ele>2171.3999023438</ele>
        <time>2019-02-06T14:43:36.000Z</time>
      </trkpt>
      <trkpt lat="45.92483" lon="6.51281">
        <ele>2171.3999023438</ele>
        <time>2019-02-06T14:43:53.000Z</time>
      </trkpt>
      <trkpt lat="45.92483" lon="6.51281">
        <ele>2170.6000976562</ele>
        <time>2019-02-06T14:44:03.000Z</time>
      </trkpt>
      <trkpt lat="45.92483" lon="6.51281">
        <ele>2169.8000488281</ele>
        <time>2019-02-06T14:44:04.000Z</time>
      </trkpt>
      <trkpt lat="45.92483" lon="6.51281">
        <ele>2169.3999023438</ele>
        <time>2019-02-06T14:44:05.000Z</time>
      </trkpt>
      <trkpt lat="45.92483" lon="6.51281">
        <ele>2170.3999023438</ele>
        <time>2019-02-06T14:44:10.000Z</time>
      </trkpt>
      <trkpt lat="45.92483" lon="6.51281">
        <ele>2170</ele>
        <time>2019-02-06T14:44:16.000Z</time>
      </trkpt>
      <trkpt lat="45.92483" lon="6.51281">
        <ele>2171.3999023438</ele>
        <time>2019-02-06T14:44:21.000Z</time>
      </trkpt>
      <trkpt lat="45.92484" lon="6.51281">
        <ele>2172.8000488281</ele>
        <time>2019-02-06T14:44:28.000Z</time>
      </trkpt>
      <trkpt lat="45.92484" lon="6.51281">
        <ele>2171.8000488281</ele>
        <time>2019-02-06T14:44:35.000Z</time>
      </trkpt>
      <trkpt lat="45.92484" lon="6.51281">
        <ele>2171.1999511719</ele>
        <time>2019-02-06T14:44:43.000Z</time>
      </trkpt>
      <trkpt lat="45.92484" lon="6.51281">
        <ele>2171.3999023438</ele>
        <time>2019-02-06T14:44:56.000Z</time>
      </trkpt>
      <trkpt lat="45.92484" lon="6.51281">
        <ele>2171.6000976562</ele>
        <time>2019-02-06T14:44:59.000Z</time>
      </trkpt>
      <trkpt lat="45.92484" lon="6.51281">
        <ele>2171.3999023438</ele>
        <time>2019-02-06T14:45:13.000Z</time>
      </trkpt>
      <trkpt lat="45.92484" lon="6.51281">
        <ele>2171.3999023438</ele>
        <time>2019-02-06T14:45:24.000Z</time>
      </trkpt>
      <trkpt lat="45.92484" lon="6.51281">
        <ele>2171.6000976562</ele>
        <time>2019-02-06T14:45:34.000Z</time>
      </trkpt>
      <trkpt lat="45.92484" lon="6.51281">
        <ele>2170.3999023438</ele>
        <time>2019-02-06T14:45:37.000Z</time>
      </trkpt>
      <trkpt lat="45.92484" lon="6.51281">
        <ele>2169</ele>
        <time>2019-02-06T14:45:39.000Z</time>
      </trkpt>
      <trkpt lat="45.92484" lon="6.51281">
        <ele>2170</ele>
        <time>2019-02-06T14:45:44.000Z</time>
      </trkpt>
      <trkpt lat="45.92484" lon="6.51281">
        <ele>2171.3999023438</ele>
        <time>2019-02-06T14:45:45.000Z</time>
      </trkpt>
      <trkpt lat="45.92484" lon="6.51281">
        <ele>2172.3999023438</ele>
        <time>2019-02-06T14:45:46.000Z</time>
      </trkpt>
      <trkpt lat="45.92484" lon="6.51281">
        <ele>2173</ele>
        <time>2019-02-06T14:45:47.000Z</time>
      </trkpt>
      <trkpt lat="45.92484" lon="6.51281">
        <ele>2174</ele>
        <time>2019-02-06T14:45:50.000Z</time>
      </trkpt>
      <trkpt lat="45.92484" lon="6.51281">
        <ele>2173</ele>
        <time>2019-02-06T14:45:55.000Z</time>
      </trkpt>
      <trkpt lat="45.92484" lon="6.51281">
        <ele>2171.8000488281</ele>
        <time>2019-02-06T14:45:58.000Z</time>
      </trkpt>
      <trkpt lat="45.92484" lon="6.51281">
        <ele>2171.6000976562</ele>
        <time>2019-02-06T14:46:00.000Z</time>
      </trkpt>
      <trkpt lat="45.92484" lon="6.51281">
        <ele>2171.6000976562</ele>
        <time>2019-02-06T14:46:15.000Z</time>
      </trkpt>
      <trkpt lat="45.92484" lon="6.51281">
        <ele>2171.1999511719</ele>
        <time>2019-02-06T14:46:28.000Z</time>
      </trkpt>
      <trkpt lat="45.92484" lon="6.51281">
        <ele>2170.3999023438</ele>
        <time>2019-02-06T14:46:29.000Z</time>
      </trkpt>
      <trkpt lat="45.92484" lon="6.51281">
        <ele>2171.6000976562</ele>
        <time>2019-02-06T14:46:34.000Z</time>
      </trkpt>
      <trkpt lat="45.92484" lon="6.51281">
        <ele>2172.8000488281</ele>
        <time>2019-02-06T14:46:36.000Z</time>
      </trkpt>
      <trkpt lat="45.92484" lon="6.51281">
        <ele>2171.8000488281</ele>
        <time>2019-02-06T14:46:41.000Z</time>
      </trkpt>
      <trkpt lat="45.92484" lon="6.51281">
        <ele>2171.8000488281</ele>
        <time>2019-02-06T14:46:42.000Z</time>
      </trkpt>
      <trkpt lat="45.92484" lon="6.51281">
        <ele>2171.6000976562</ele>
        <time>2019-02-06T14:46:55.000Z</time>
      </trkpt>
      <trkpt lat="45.92484" lon="6.51281">
        <ele>2171.6000976562</ele>
        <time>2019-02-06T14:47:02.000Z</time>
      </trkpt>
      <trkpt lat="45.92484" lon="6.51281">
        <ele>2171.6000976562</ele>
        <time>2019-02-06T14:47:13.000Z</time>
      </trkpt>
      <trkpt lat="45.92484" lon="6.51281">
        <ele>2171.8000488281</ele>
        <time>2019-02-06T14:47:31.000Z</time>
      </trkpt>
      <trkpt lat="45.92484" lon="6.51281">
        <ele>2171.6000976562</ele>
        <time>2019-02-06T14:47:42.000Z</time>
      </trkpt>
      <trkpt lat="45.92484" lon="6.51281">
        <ele>2171.8000488281</ele>
        <time>2019-02-06T14:47:52.000Z</time>
      </trkpt>
      <trkpt lat="45.92484" lon="6.51281">
        <ele>2172</ele>
        <time>2019-02-06T14:48:01.000Z</time>
      </trkpt>
      <trkpt lat="45.92484" lon="6.51281">
        <ele>2171.8000488281</ele>
        <time>2019-02-06T14:48:13.000Z</time>
      </trkpt>
      <trkpt lat="45.92484" lon="6.51281">
        <ele>2171.8000488281</ele>
        <time>2019-02-06T14:48:24.000Z</time>
      </trkpt>
      <trkpt lat="45.92484" lon="6.51281">
        <ele>2171.8000488281</ele>
        <time>2019-02-06T14:48:37.000Z</time>
      </trkpt>
      <trkpt lat="45.92484" lon="6.51281">
        <ele>2171.8000488281</ele>
        <time>2019-02-06T14:48:52.000Z</time>
      </trkpt>
      <trkpt lat="45.92484" lon="6.51281">
        <ele>2172</ele>
        <time>2019-02-06T14:49:01.000Z</time>
      </trkpt>
      <trkpt lat="45.92487" lon="6.51286">
        <ele>2172</ele>
        <time>2019-02-06T14:49:06.000Z</time>
      </trkpt>
      <trkpt lat="45.92488" lon="6.51286">
        <ele>2171</ele>
        <time>2019-02-06T14:49:09.000Z</time>
      </trkpt>
      <trkpt lat="45.92488" lon="6.51286">
        <ele>2170.6000976562</ele>
        <time>2019-02-06T14:49:11.000Z</time>
      </trkpt>
      <trkpt lat="45.92488" lon="6.51286">
        <ele>2170.1999511719</ele>
        <time>2019-02-06T14:49:14.000Z</time>
      </trkpt>
      <trkpt lat="45.9249" lon="6.51285">
        <ele>2169.6000976562</ele>
        <time>2019-02-06T14:49:16.000Z</time>
      </trkpt>
      <trkpt lat="45.92489" lon="6.51282">
        <ele>2169.1999511719</ele>
        <time>2019-02-06T14:49:19.000Z</time>
      </trkpt>
      <trkpt lat="45.92489" lon="6.5128">
        <ele>2168.6000976562</ele>
        <time>2019-02-06T14:49:21.000Z</time>
      </trkpt>
      <trkpt lat="45.92489" lon="6.5128">
        <ele>2167.3999023438</ele>
        <time>2019-02-06T14:49:23.000Z</time>
      </trkpt>
      <trkpt lat="45.92489" lon="6.5128">
        <ele>2166</ele>
        <time>2019-02-06T14:49:25.000Z</time>
      </trkpt>
      <trkpt lat="45.92489" lon="6.5128">
        <ele>2165</ele>
        <time>2019-02-06T14:49:36.000Z</time>
      </trkpt>
      <trkpt lat="45.9249" lon="6.51281">
        <ele>2164.8000488281</ele>
        <time>2019-02-06T14:49:40.000Z</time>
      </trkpt>
      <trkpt lat="45.9249" lon="6.5128">
        <ele>2164.3999023438</ele>
        <time>2019-02-06T14:49:42.000Z</time>
      </trkpt>
      <trkpt lat="45.9249" lon="6.51281">
        <ele>2163.6000976562</ele>
        <time>2019-02-06T14:49:45.000Z</time>
      </trkpt>
      <trkpt lat="45.92491" lon="6.5128">
        <ele>2163</ele>
        <time>2019-02-06T14:49:47.000Z</time>
      </trkpt>
      <trkpt lat="45.92492" lon="6.5128">
        <ele>2162.8000488281</ele>
        <time>2019-02-06T14:49:48.000Z</time>
      </trkpt>
      <trkpt lat="45.92492" lon="6.51276">
        <ele>2162</ele>
        <time>2019-02-06T14:49:49.000Z</time>
      </trkpt>
      <trkpt lat="45.92493" lon="6.51276">
        <ele>2161.8000488281</ele>
        <time>2019-02-06T14:49:50.000Z</time>
      </trkpt>
      <trkpt lat="45.92494" lon="6.51277">
        <ele>2160.3999023438</ele>
        <time>2019-02-06T14:49:53.000Z</time>
      </trkpt>
      <trkpt lat="45.92494" lon="6.51277">
        <ele>2159.6000976562</ele>
        <time>2019-02-06T14:49:54.000Z</time>
      </trkpt>
      <trkpt lat="45.92494" lon="6.51277">
        <ele>2159.1999511719</ele>
        <time>2019-02-06T14:49:55.000Z</time>
      </trkpt>
      <trkpt lat="45.92497" lon="6.51279">
        <ele>2158.1999511719</ele>
        <time>2019-02-06T14:49:59.000Z</time>
      </trkpt>
      <trkpt lat="45.92497" lon="6.51279">
        <ele>2158</ele>
        <time>2019-02-06T14:50:00.000Z</time>
      </trkpt>
      <trkpt lat="45.92497" lon="6.5128">
        <ele>2157.3999023438</ele>
        <time>2019-02-06T14:50:03.000Z</time>
      </trkpt>
      <trkpt lat="45.92498" lon="6.51278">
        <ele>2156.8000488281</ele>
        <time>2019-02-06T14:50:05.000Z</time>
      </trkpt>
      <trkpt lat="45.92498" lon="6.51277">
        <ele>2156.3999023438</ele>
        <time>2019-02-06T14:50:07.000Z</time>
      </trkpt>
      <trkpt lat="45.92499" lon="6.51277">
        <ele>2155.6000976562</ele>
        <time>2019-02-06T14:50:09.000Z</time>
      </trkpt>
      <trkpt lat="45.92498" lon="6.51276">
        <ele>2154.3999023438</ele>
        <time>2019-02-06T14:50:11.000Z</time>
      </trkpt>
      <trkpt lat="45.92498" lon="6.51276">
        <ele>2154</ele>
        <time>2019-02-06T14:50:12.000Z</time>
      </trkpt>
      <trkpt lat="45.925" lon="6.51278">
        <ele>2153.3999023438</ele>
        <time>2019-02-06T14:50:13.000Z</time>
      </trkpt>
      <trkpt lat="45.92502" lon="6.5128">
        <ele>2153</ele>
        <time>2019-02-06T14:50:15.000Z</time>
      </trkpt>
      <trkpt lat="45.92506" lon="6.51282">
        <ele>2152.1999511719</ele>
        <time>2019-02-06T14:50:18.000Z</time>
      </trkpt>
      <trkpt lat="45.92508" lon="6.51281">
        <ele>2150.6000976562</ele>
        <time>2019-02-06T14:50:21.000Z</time>
      </trkpt>
      <trkpt lat="45.92507" lon="6.51279">
        <ele>2149.8000488281</ele>
        <time>2019-02-06T14:50:23.000Z</time>
      </trkpt>
      <trkpt lat="45.92508" lon="6.51279">
        <ele>2149.6000976562</ele>
        <time>2019-02-06T14:50:24.000Z</time>
      </trkpt>
      <trkpt lat="45.92508" lon="6.51279">
        <ele>2148.6000976562</ele>
        <time>2019-02-06T14:50:26.000Z</time>
      </trkpt>
      <trkpt lat="45.92508" lon="6.51279">
        <ele>2147.1999511719</ele>
        <time>2019-02-06T14:50:28.000Z</time>
      </trkpt>
      <trkpt lat="45.92511" lon="6.51281">
        <ele>2146.8000488281</ele>
        <time>2019-02-06T14:50:29.000Z</time>
      </trkpt>
      <trkpt lat="45.92514" lon="6.51281">
        <ele>2145.8000488281</ele>
        <time>2019-02-06T14:50:32.000Z</time>
      </trkpt>
      <trkpt lat="45.92515" lon="6.51279">
        <ele>2144.6000976562</ele>
        <time>2019-02-06T14:50:34.000Z</time>
      </trkpt>
      <trkpt lat="45.92515" lon="6.51278">
        <ele>2144.1999511719</ele>
        <time>2019-02-06T14:50:35.000Z</time>
      </trkpt>
      <trkpt lat="45.92515" lon="6.51278">
        <ele>2143.6000976562</ele>
        <time>2019-02-06T14:50:36.000Z</time>
      </trkpt>
      <trkpt lat="45.92517" lon="6.51279">
        <ele>2141.8000488281</ele>
        <time>2019-02-06T14:50:37.000Z</time>
      </trkpt>
      <trkpt lat="45.92517" lon="6.5128">
        <ele>2140.1999511719</ele>
        <time>2019-02-06T14:50:39.000Z</time>
      </trkpt>
      <trkpt lat="45.92519" lon="6.51281">
        <ele>2138.8000488281</ele>
        <time>2019-02-06T14:50:41.000Z</time>
      </trkpt>
      <trkpt lat="45.92519" lon="6.51281">
        <ele>2138</ele>
        <time>2019-02-06T14:50:43.000Z</time>
      </trkpt>
      <trkpt lat="45.92521" lon="6.51281">
        <ele>2137.6000976562</ele>
        <time>2019-02-06T14:50:44.000Z</time>
      </trkpt>
      <trkpt lat="45.92524" lon="6.51276">
        <ele>2136.6000976562</ele>
        <time>2019-02-06T14:50:46.000Z</time>
      </trkpt>
      <trkpt lat="45.92523" lon="6.51277">
        <ele>2136.1999511719</ele>
        <time>2019-02-06T14:50:47.000Z</time>
      </trkpt>
      <trkpt lat="45.92526" lon="6.51277">
        <ele>2135.8000488281</ele>
        <time>2019-02-06T14:50:48.000Z</time>
      </trkpt>
      <trkpt lat="45.92527" lon="6.51279">
        <ele>2135.1999511719</ele>
        <time>2019-02-06T14:50:49.000Z</time>
      </trkpt>
      <trkpt lat="45.92527" lon="6.51279">
        <ele>2134.3999023438</ele>
        <time>2019-02-06T14:50:50.000Z</time>
      </trkpt>
      <trkpt lat="45.92531" lon="6.5128">
        <ele>2132.3999023438</ele>
        <time>2019-02-06T14:50:52.000Z</time>
      </trkpt>
      <trkpt lat="45.92534" lon="6.51278">
        <ele>2130.8000488281</ele>
        <time>2019-02-06T14:50:54.000Z</time>
      </trkpt>
      <trkpt lat="45.92538" lon="6.51281">
        <ele>2130.3999023438</ele>
        <time>2019-02-06T14:50:55.000Z</time>
      </trkpt>
      <trkpt lat="45.92538" lon="6.51282">
        <ele>2129.6000976562</ele>
        <time>2019-02-06T14:50:56.000Z</time>
      </trkpt>
      <trkpt lat="45.92537" lon="6.51282">
        <ele>2128.3999023438</ele>
        <time>2019-02-06T14:50:57.000Z</time>
      </trkpt>
      <trkpt lat="45.92537" lon="6.51282">
        <ele>2127.1999511719</ele>
        <time>2019-02-06T14:50:58.000Z</time>
      </trkpt>
      <trkpt lat="45.92539" lon="6.51285">
        <ele>2126</ele>
        <time>2019-02-06T14:50:59.000Z</time>
      </trkpt>
      <trkpt lat="45.92541" lon="6.51282">
        <ele>2124.1999511719</ele>
        <time>2019-02-06T14:51:01.000Z</time>
      </trkpt>
      <trkpt lat="45.92542" lon="6.51282">
        <ele>2122.6000976562</ele>
        <time>2019-02-06T14:51:04.000Z</time>
      </trkpt>
      <trkpt lat="45.92542" lon="6.51282">
        <ele>2121.1999511719</ele>
        <time>2019-02-06T14:51:06.000Z</time>
      </trkpt>
      <trkpt lat="45.92542" lon="6.51282">
        <ele>2121</ele>
        <time>2019-02-06T14:51:07.000Z</time>
      </trkpt>
      <trkpt lat="45.92544" lon="6.51281">
        <ele>2120.3999023438</ele>
        <time>2019-02-06T14:51:15.000Z</time>
      </trkpt>
      <trkpt lat="45.92546" lon="6.51284">
        <ele>2120.3999023438</ele>
        <time>2019-02-06T14:51:16.000Z</time>
      </trkpt>
      <trkpt lat="45.92545" lon="6.51284">
        <ele>2120.1999511719</ele>
        <time>2019-02-06T14:51:17.000Z</time>
      </trkpt>
      <trkpt lat="45.92545" lon="6.51284">
        <ele>2119.6000976562</ele>
        <time>2019-02-06T14:51:19.000Z</time>
      </trkpt>
      <trkpt lat="45.92548" lon="6.51283">
        <ele>2119</ele>
        <time>2019-02-06T14:51:21.000Z</time>
      </trkpt>
      <trkpt lat="45.92549" lon="6.51282">
        <ele>2118.6000976562</ele>
        <time>2019-02-06T14:51:22.000Z</time>
      </trkpt>
      <trkpt lat="45.92552" lon="6.51285">
        <ele>2117.8000488281</ele>
        <time>2019-02-06T14:51:24.000Z</time>
      </trkpt>
      <trkpt lat="45.92552" lon="6.51286">
        <ele>2117.1999511719</ele>
        <time>2019-02-06T14:51:25.000Z</time>
      </trkpt>
      <trkpt lat="45.92552" lon="6.51286">
        <ele>2116.3999023438</ele>
        <time>2019-02-06T14:51:26.000Z</time>
      </trkpt>
      <trkpt lat="45.92555" lon="6.51285">
        <ele>2115.6000976562</ele>
        <time>2019-02-06T14:51:27.000Z</time>
      </trkpt>
      <trkpt lat="45.92556" lon="6.51284">
        <ele>2114.8000488281</ele>
        <time>2019-02-06T14:51:28.000Z</time>
      </trkpt>
      <trkpt lat="45.92557" lon="6.51283">
        <ele>2113.3999023438</ele>
        <time>2019-02-06T14:51:31.000Z</time>
      </trkpt>
      <trkpt lat="45.92559" lon="6.51282">
        <ele>2112</ele>
        <time>2019-02-06T14:51:33.000Z</time>
      </trkpt>
      <trkpt lat="45.92559" lon="6.51282">
        <ele>2111.1999511719</ele>
        <time>2019-02-06T14:51:34.000Z</time>
      </trkpt>
      <trkpt lat="45.92559" lon="6.51282">
        <ele>2110.6000976562</ele>
        <time>2019-02-06T14:51:35.000Z</time>
      </trkpt>
      <trkpt lat="45.92562" lon="6.51282">
        <ele>2109.1999511719</ele>
        <time>2019-02-06T14:51:38.000Z</time>
      </trkpt>
      <trkpt lat="45.92562" lon="6.51282">
        <ele>2109</ele>
        <time>2019-02-06T14:51:39.000Z</time>
      </trkpt>
      <trkpt lat="45.92564" lon="6.51282">
        <ele>2108.3999023438</ele>
        <time>2019-02-06T14:51:41.000Z</time>
      </trkpt>
      <trkpt lat="45.92564" lon="6.51283">
        <ele>2107.8000488281</ele>
        <time>2019-02-06T14:51:42.000Z</time>
      </trkpt>
      <trkpt lat="45.92564" lon="6.51284">
        <ele>2107</ele>
        <time>2019-02-06T14:51:43.000Z</time>
      </trkpt>
      <trkpt lat="45.92564" lon="6.51284">
        <ele>2106.1999511719</ele>
        <time>2019-02-06T14:51:44.000Z</time>
      </trkpt>
      <trkpt lat="45.92565" lon="6.51286">
        <ele>2104.6000976562</ele>
        <time>2019-02-06T14:51:46.000Z</time>
      </trkpt>
      <trkpt lat="45.92566" lon="6.51287">
        <ele>2103.8000488281</ele>
        <time>2019-02-06T14:51:49.000Z</time>
      </trkpt>
      <trkpt lat="45.92569" lon="6.5129">
        <ele>2103.3999023438</ele>
        <time>2019-02-06T14:51:53.000Z</time>
      </trkpt>
      <trkpt lat="45.9257" lon="6.51289">
        <ele>2103</ele>
        <time>2019-02-06T14:51:54.000Z</time>
      </trkpt>
      <trkpt lat="45.92573" lon="6.51288">
        <ele>2102.1999511719</ele>
        <time>2019-02-06T14:51:57.000Z</time>
      </trkpt>
      <trkpt lat="45.92575" lon="6.51291">
        <ele>2101.8000488281</ele>
        <time>2019-02-06T14:51:58.000Z</time>
      </trkpt>
      <trkpt lat="45.92575" lon="6.51293">
        <ele>2100.8000488281</ele>
        <time>2019-02-06T14:51:59.000Z</time>
      </trkpt>
      <trkpt lat="45.92578" lon="6.51295">
        <ele>2099</ele>
        <time>2019-02-06T14:52:01.000Z</time>
      </trkpt>
      <trkpt lat="45.92579" lon="6.51292">
        <ele>2098.1999511719</ele>
        <time>2019-02-06T14:52:02.000Z</time>
      </trkpt>
      <trkpt lat="45.92581" lon="6.51293">
        <ele>2097.3999023438</ele>
        <time>2019-02-06T14:52:03.000Z</time>
      </trkpt>
      <trkpt lat="45.92581" lon="6.51292">
        <ele>2097</ele>
        <time>2019-02-06T14:52:04.000Z</time>
      </trkpt>
      <trkpt lat="45.92581" lon="6.51292">
        <ele>2096.3999023438</ele>
        <time>2019-02-06T14:52:05.000Z</time>
      </trkpt>
      <trkpt lat="45.92582" lon="6.51292">
        <ele>2094.6000976562</ele>
        <time>2019-02-06T14:52:07.000Z</time>
      </trkpt>
      <trkpt lat="45.92582" lon="6.51292">
        <ele>2093.1999511719</ele>
        <time>2019-02-06T14:52:09.000Z</time>
      </trkpt>
      <trkpt lat="45.92582" lon="6.51292">
        <ele>2092.3999023438</ele>
        <time>2019-02-06T14:52:12.000Z</time>
      </trkpt>
      <trkpt lat="45.92582" lon="6.51292">
        <ele>2092.1999511719</ele>
        <time>2019-02-06T14:52:23.000Z</time>
      </trkpt>
      <trkpt lat="45.92583" lon="6.51289">
        <ele>2092.1999511719</ele>
        <time>2019-02-06T14:52:24.000Z</time>
      </trkpt>
      <trkpt lat="45.92582" lon="6.5129">
        <ele>2092.1999511719</ele>
        <time>2019-02-06T14:52:25.000Z</time>
      </trkpt>
      <trkpt lat="45.92582" lon="6.51289">
        <ele>2092.1999511719</ele>
        <time>2019-02-06T14:52:26.000Z</time>
      </trkpt>
      <trkpt lat="45.92582" lon="6.51289">
        <ele>2092</ele>
        <time>2019-02-06T14:52:27.000Z</time>
      </trkpt>
      <trkpt lat="45.92584" lon="6.51292">
        <ele>2091.8000488281</ele>
        <time>2019-02-06T14:52:28.000Z</time>
      </trkpt>
      <trkpt lat="45.92586" lon="6.51297">
        <ele>2091</ele>
        <time>2019-02-06T14:52:30.000Z</time>
      </trkpt>
      <trkpt lat="45.92589" lon="6.51297">
        <ele>2089.6000976562</ele>
        <time>2019-02-06T14:52:33.000Z</time>
      </trkpt>
      <trkpt lat="45.9259" lon="6.51299">
        <ele>2089</ele>
        <time>2019-02-06T14:52:34.000Z</time>
      </trkpt>
      <trkpt lat="45.92591" lon="6.51299">
        <ele>2088.3999023438</ele>
        <time>2019-02-06T14:52:35.000Z</time>
      </trkpt>
      <trkpt lat="45.92594" lon="6.51298">
        <ele>2087.6000976562</ele>
        <time>2019-02-06T14:52:37.000Z</time>
      </trkpt>
      <trkpt lat="45.92594" lon="6.51296">
        <ele>2087.1999511719</ele>
        <time>2019-02-06T14:52:38.000Z</time>
      </trkpt>
      <trkpt lat="45.92597" lon="6.51298">
        <ele>2086.8000488281</ele>
        <time>2019-02-06T14:52:40.000Z</time>
      </trkpt>
      <trkpt lat="45.92598" lon="6.51301">
        <ele>2086.1999511719</ele>
        <time>2019-02-06T14:52:41.000Z</time>
      </trkpt>
      <trkpt lat="45.92601" lon="6.51301">
        <ele>2084.3999023438</ele>
        <time>2019-02-06T14:52:43.000Z</time>
      </trkpt>
      <trkpt lat="45.92603" lon="6.51299">
        <ele>2083.6000976562</ele>
        <time>2019-02-06T14:52:44.000Z</time>
      </trkpt>
      <trkpt lat="45.92604" lon="6.51297">
        <ele>2083</ele>
        <time>2019-02-06T14:52:45.000Z</time>
      </trkpt>
      <trkpt lat="45.92604" lon="6.51296">
        <ele>2081.8000488281</ele>
        <time>2019-02-06T14:52:47.000Z</time>
      </trkpt>
      <trkpt lat="45.92606" lon="6.51301">
        <ele>2081</ele>
        <time>2019-02-06T14:52:48.000Z</time>
      </trkpt>
      <trkpt lat="45.92607" lon="6.51301">
        <ele>2080</ele>
        <time>2019-02-06T14:52:49.000Z</time>
      </trkpt>
      <trkpt lat="45.92607" lon="6.51302">
        <ele>2078.1999511719</ele>
        <time>2019-02-06T14:52:51.000Z</time>
      </trkpt>
      <trkpt lat="45.9261" lon="6.51308">
        <ele>2076.8000488281</ele>
        <time>2019-02-06T14:52:53.000Z</time>
      </trkpt>
      <trkpt lat="45.92611" lon="6.51309">
        <ele>2076.3999023438</ele>
        <time>2019-02-06T14:52:54.000Z</time>
      </trkpt>
      <trkpt lat="45.92613" lon="6.51307">
        <ele>2075.8000488281</ele>
        <time>2019-02-06T14:52:55.000Z</time>
      </trkpt>
      <trkpt lat="45.92615" lon="6.51305">
        <ele>2074.6000976562</ele>
        <time>2019-02-06T14:52:57.000Z</time>
      </trkpt>
      <trkpt lat="45.9262" lon="6.5131">
        <ele>2072.8000488281</ele>
        <time>2019-02-06T14:53:00.000Z</time>
      </trkpt>
      <trkpt lat="45.9262" lon="6.5131">
        <ele>2070.3999023438</ele>
        <time>2019-02-06T14:53:01.000Z</time>
      </trkpt>
      <trkpt lat="45.92621" lon="6.51308">
        <ele>2069.6000976562</ele>
        <time>2019-02-06T14:53:02.000Z</time>
      </trkpt>
      <trkpt lat="45.92622" lon="6.51305">
        <ele>2069</ele>
        <time>2019-02-06T14:53:03.000Z</time>
      </trkpt>
      <trkpt lat="45.92623" lon="6.51304">
        <ele>2068.6000976562</ele>
        <time>2019-02-06T14:53:04.000Z</time>
      </trkpt>
      <trkpt lat="45.92626" lon="6.51304">
        <ele>2067.3999023438</ele>
        <time>2019-02-06T14:53:06.000Z</time>
      </trkpt>
      <trkpt lat="45.92626" lon="6.51305">
        <ele>2066.6000976562</ele>
        <time>2019-02-06T14:53:07.000Z</time>
      </trkpt>
      <trkpt lat="45.92626" lon="6.51305">
        <ele>2065.6000976562</ele>
        <time>2019-02-06T14:53:08.000Z</time>
      </trkpt>
      <trkpt lat="45.92627" lon="6.51308">
        <ele>2063.8000488281</ele>
        <time>2019-02-06T14:53:10.000Z</time>
      </trkpt>
      <trkpt lat="45.92631" lon="6.51304">
        <ele>2062.8000488281</ele>
        <time>2019-02-06T14:53:12.000Z</time>
      </trkpt>
      <trkpt lat="45.92636" lon="6.51302">
        <ele>2061.6000976562</ele>
        <time>2019-02-06T14:53:15.000Z</time>
      </trkpt>
      <trkpt lat="45.92637" lon="6.51301">
        <ele>2060.8000488281</ele>
        <time>2019-02-06T14:53:16.000Z</time>
      </trkpt>
      <trkpt lat="45.92638" lon="6.51303">
        <ele>2060</ele>
        <time>2019-02-06T14:53:17.000Z</time>
      </trkpt>
      <trkpt lat="45.92638" lon="6.51303">
        <ele>2058.3999023438</ele>
        <time>2019-02-06T14:53:19.000Z</time>
      </trkpt>
      <trkpt lat="45.92638" lon="6.51303">
        <ele>2056.8000488281</ele>
        <time>2019-02-06T14:53:21.000Z</time>
      </trkpt>
      <trkpt lat="45.92639" lon="6.51302">
        <ele>2055.8000488281</ele>
        <time>2019-02-06T14:53:24.000Z</time>
      </trkpt>
      <trkpt lat="45.9264" lon="6.513">
        <ele>2055.8000488281</ele>
        <time>2019-02-06T14:53:25.000Z</time>
      </trkpt>
      <trkpt lat="45.92641" lon="6.51299">
        <ele>2055.6000976562</ele>
        <time>2019-02-06T14:53:26.000Z</time>
      </trkpt>
      <trkpt lat="45.92641" lon="6.51299">
        <ele>2054.6000976562</ele>
        <time>2019-02-06T14:53:29.000Z</time>
      </trkpt>
      <trkpt lat="45.92645" lon="6.51299">
        <ele>2054</ele>
        <time>2019-02-06T14:53:30.000Z</time>
      </trkpt>
      <trkpt lat="45.92646" lon="6.51302">
        <ele>2053.6000976562</ele>
        <time>2019-02-06T14:53:31.000Z</time>
      </trkpt>
      <trkpt lat="45.92647" lon="6.51306">
        <ele>2052.3999023438</ele>
        <time>2019-02-06T14:53:33.000Z</time>
      </trkpt>
      <trkpt lat="45.9265" lon="6.51304">
        <ele>2051.6000976562</ele>
        <time>2019-02-06T14:53:35.000Z</time>
      </trkpt>
      <trkpt lat="45.92651" lon="6.51304">
        <ele>2051.1999511719</ele>
        <time>2019-02-06T14:53:36.000Z</time>
      </trkpt>
      <trkpt lat="45.9265" lon="6.51303">
        <ele>2050</ele>
        <time>2019-02-06T14:53:38.000Z</time>
      </trkpt>
      <trkpt lat="45.92649" lon="6.51302">
        <ele>2048.3999023438</ele>
        <time>2019-02-06T14:53:40.000Z</time>
      </trkpt>
      <trkpt lat="45.92649" lon="6.51302">
        <ele>2047.4000244141</ele>
        <time>2019-02-06T14:53:44.000Z</time>
      </trkpt>
      <trkpt lat="45.92651" lon="6.51303">
        <ele>2047.5999755859</ele>
        <time>2019-02-06T14:53:47.000Z</time>
      </trkpt>
      <trkpt lat="45.92653" lon="6.51305">
        <ele>2047.5999755859</ele>
        <time>2019-02-06T14:53:48.000Z</time>
      </trkpt>
      <trkpt lat="45.92654" lon="6.51307">
        <ele>2047</ele>
        <time>2019-02-06T14:53:50.000Z</time>
      </trkpt>
      <trkpt lat="45.92654" lon="6.5131">
        <ele>2046.8000488281</ele>
        <time>2019-02-06T14:53:51.000Z</time>
      </trkpt>
      <trkpt lat="45.92656" lon="6.51312">
        <ele>2046</ele>
        <time>2019-02-06T14:53:53.000Z</time>
      </trkpt>
      <trkpt lat="45.92661" lon="6.5131">
        <ele>2045.5999755859</ele>
        <time>2019-02-06T14:53:54.000Z</time>
      </trkpt>
      <trkpt lat="45.92662" lon="6.51312">
        <ele>2044.1999511719</ele>
        <time>2019-02-06T14:53:57.000Z</time>
      </trkpt>
      <trkpt lat="45.92666" lon="6.51313">
        <ele>2042.5999755859</ele>
        <time>2019-02-06T14:53:59.000Z</time>
      </trkpt>
      <trkpt lat="45.92667" lon="6.51312">
        <ele>2041.5999755859</ele>
        <time>2019-02-06T14:54:00.000Z</time>
      </trkpt>
      <trkpt lat="45.92669" lon="6.51312">
        <ele>2040.8000488281</ele>
        <time>2019-02-06T14:54:01.000Z</time>
      </trkpt>
      <trkpt lat="45.92669" lon="6.51316">
        <ele>2039.4000244141</ele>
        <time>2019-02-06T14:54:03.000Z</time>
      </trkpt>
      <trkpt lat="45.92669" lon="6.51315">
        <ele>2038.4000244141</ele>
        <time>2019-02-06T14:54:04.000Z</time>
      </trkpt>
      <trkpt lat="45.92673" lon="6.51314">
        <ele>2037.4000244141</ele>
        <time>2019-02-06T14:54:05.000Z</time>
      </trkpt>
      <trkpt lat="45.92672" lon="6.51313">
        <ele>2036.5999755859</ele>
        <time>2019-02-06T14:54:06.000Z</time>
      </trkpt>
      <trkpt lat="45.92673" lon="6.51312">
        <ele>2036</ele>
        <time>2019-02-06T14:54:07.000Z</time>
      </trkpt>
      <trkpt lat="45.92675" lon="6.51314">
        <ele>2035.1999511719</ele>
        <time>2019-02-06T14:54:08.000Z</time>
      </trkpt>
      <trkpt lat="45.92674" lon="6.51313">
        <ele>2034.5999755859</ele>
        <time>2019-02-06T14:54:09.000Z</time>
      </trkpt>
      <trkpt lat="45.92675" lon="6.51317">
        <ele>2033.5999755859</ele>
        <time>2019-02-06T14:54:10.000Z</time>
      </trkpt>
      <trkpt lat="45.92678" lon="6.51314">
        <ele>2032.8000488281</ele>
        <time>2019-02-06T14:54:11.000Z</time>
      </trkpt>
      <trkpt lat="45.92678" lon="6.51313">
        <ele>2030.5999755859</ele>
        <time>2019-02-06T14:54:13.000Z</time>
      </trkpt>
      <trkpt lat="45.92677" lon="6.51314">
        <ele>2029.1999511719</ele>
        <time>2019-02-06T14:54:15.000Z</time>
      </trkpt>
      <trkpt lat="45.92674" lon="6.51318">
        <ele>2028</ele>
        <time>2019-02-06T14:54:17.000Z</time>
      </trkpt>
      <trkpt lat="45.9267" lon="6.51316">
        <ele>2026.8000488281</ele>
        <time>2019-02-06T14:54:19.000Z</time>
      </trkpt>
      <trkpt lat="45.92668" lon="6.51316">
        <ele>2026</ele>
        <time>2019-02-06T14:54:20.000Z</time>
      </trkpt>
      <trkpt lat="45.92668" lon="6.51316">
        <ele>2025.4000244141</ele>
        <time>2019-02-06T14:54:21.000Z</time>
      </trkpt>
      <trkpt lat="45.92668" lon="6.51316">
        <ele>2024.4000244141</ele>
        <time>2019-02-06T14:54:26.000Z</time>
      </trkpt>
      <trkpt lat="45.9267" lon="6.51315">
        <ele>2024.1999511719</ele>
        <time>2019-02-06T14:54:27.000Z</time>
      </trkpt>
      <trkpt lat="45.92669" lon="6.51311">
        <ele>2023.8000488281</ele>
        <time>2019-02-06T14:54:30.000Z</time>
      </trkpt>
      <trkpt lat="45.92669" lon="6.51312">
        <ele>2023.1999511719</ele>
        <time>2019-02-06T14:54:33.000Z</time>
      </trkpt>
      <trkpt lat="45.92667" lon="6.51311">
        <ele>2022.5999755859</ele>
        <time>2019-02-06T14:54:35.000Z</time>
      </trkpt>
      <trkpt lat="45.92667" lon="6.51311">
        <ele>2022</ele>
        <time>2019-02-06T14:54:36.000Z</time>
      </trkpt>
      <trkpt lat="45.92669" lon="6.51312">
        <ele>2021.1999511719</ele>
        <time>2019-02-06T14:54:37.000Z</time>
      </trkpt>
      <trkpt lat="45.92671" lon="6.51309">
        <ele>2021</ele>
        <time>2019-02-06T14:54:38.000Z</time>
      </trkpt>
      <trkpt lat="45.92671" lon="6.51309">
        <ele>2020.8000488281</ele>
        <time>2019-02-06T14:54:39.000Z</time>
      </trkpt>
      <trkpt lat="45.92671" lon="6.51308">
        <ele>2019.4000244141</ele>
        <time>2019-02-06T14:54:42.000Z</time>
      </trkpt>
      <trkpt lat="45.92671" lon="6.51308">
        <ele>2018.1999511719</ele>
        <time>2019-02-06T14:54:44.000Z</time>
      </trkpt>
      <trkpt lat="45.9267" lon="6.51309">
        <ele>2017.4000244141</ele>
        <time>2019-02-06T14:54:48.000Z</time>
      </trkpt>
      <trkpt lat="45.92667" lon="6.51309">
        <ele>2017.4000244141</ele>
        <time>2019-02-06T14:54:49.000Z</time>
      </trkpt>
      <trkpt lat="45.92665" lon="6.51307">
        <ele>2017</ele>
        <time>2019-02-06T14:54:50.000Z</time>
      </trkpt>
      <trkpt lat="45.92665" lon="6.51307">
        <ele>2015.8000488281</ele>
        <time>2019-02-06T14:54:52.000Z</time>
      </trkpt>
      <trkpt lat="45.92667" lon="6.51309">
        <ele>2015.1999511719</ele>
        <time>2019-02-06T14:54:54.000Z</time>
      </trkpt>
      <trkpt lat="45.92667" lon="6.51308">
        <ele>2014.8000488281</ele>
        <time>2019-02-06T14:54:56.000Z</time>
      </trkpt>
      <trkpt lat="45.92668" lon="6.51309">
        <ele>2014.4000244141</ele>
        <time>2019-02-06T14:54:57.000Z</time>
      </trkpt>
      <trkpt lat="45.92668" lon="6.5131">
        <ele>2014.1999511719</ele>
        <time>2019-02-06T14:54:58.000Z</time>
      </trkpt>
      <trkpt lat="45.92668" lon="6.51309">
        <ele>2013.5999755859</ele>
        <time>2019-02-06T14:54:59.000Z</time>
      </trkpt>
      <trkpt lat="45.92669" lon="6.5131">
        <ele>2011.8000488281</ele>
        <time>2019-02-06T14:55:01.000Z</time>
      </trkpt>
      <trkpt lat="45.92669" lon="6.5131">
        <ele>2011.4000244141</ele>
        <time>2019-02-06T14:55:02.000Z</time>
      </trkpt>
      <trkpt lat="45.92669" lon="6.51313">
        <ele>2010.8000488281</ele>
        <time>2019-02-06T14:55:06.000Z</time>
      </trkpt>
      <trkpt lat="45.92669" lon="6.51313">
        <ele>2010.4000244141</ele>
        <time>2019-02-06T14:55:07.000Z</time>
      </trkpt>
      <trkpt lat="45.9267" lon="6.51315">
        <ele>2009.8000488281</ele>
        <time>2019-02-06T14:55:09.000Z</time>
      </trkpt>
      <trkpt lat="45.9267" lon="6.51315">
        <ele>2009.5999755859</ele>
        <time>2019-02-06T14:55:10.000Z</time>
      </trkpt>
      <trkpt lat="45.9267" lon="6.51315">
        <ele>2009.4000244141</ele>
        <time>2019-02-06T14:55:11.000Z</time>
      </trkpt>
      <trkpt lat="45.9267" lon="6.51318">
        <ele>2009.1999511719</ele>
        <time>2019-02-06T14:55:12.000Z</time>
      </trkpt>
      <trkpt lat="45.92671" lon="6.51318">
        <ele>2008.1999511719</ele>
        <time>2019-02-06T14:55:14.000Z</time>
      </trkpt>
      <trkpt lat="45.92671" lon="6.51321">
        <ele>2007.1999511719</ele>
        <time>2019-02-06T14:55:15.000Z</time>
      </trkpt>
      <trkpt lat="45.92671" lon="6.51324">
        <ele>2006.5999755859</ele>
        <time>2019-02-06T14:55:16.000Z</time>
      </trkpt>
      <trkpt lat="45.92671" lon="6.51324">
        <ele>2006</ele>
        <time>2019-02-06T14:55:17.000Z</time>
      </trkpt>
      <trkpt lat="45.92673" lon="6.51326">
        <ele>2005.1999511719</ele>
        <time>2019-02-06T14:55:19.000Z</time>
      </trkpt>
      <trkpt lat="45.92673" lon="6.51329">
        <ele>2003.5999755859</ele>
        <time>2019-02-06T14:55:21.000Z</time>
      </trkpt>
      <trkpt lat="45.92673" lon="6.5133">
        <ele>2002.8000488281</ele>
        <time>2019-02-06T14:55:22.000Z</time>
      </trkpt>
      <trkpt lat="45.92674" lon="6.51334">
        <ele>2002</ele>
        <time>2019-02-06T14:55:23.000Z</time>
      </trkpt>
      <trkpt lat="45.92673" lon="6.51338">
        <ele>2001.4000244141</ele>
        <time>2019-02-06T14:55:24.000Z</time>
      </trkpt>
      <trkpt lat="45.92672" lon="6.5134">
        <ele>2000.1999511719</ele>
        <time>2019-02-06T14:55:25.000Z</time>
      </trkpt>
      <trkpt lat="45.92673" lon="6.5134">
        <ele>1999.5999755859</ele>
        <time>2019-02-06T14:55:26.000Z</time>
      </trkpt>
      <trkpt lat="45.92673" lon="6.51341">
        <ele>1999.1999511719</ele>
        <time>2019-02-06T14:55:27.000Z</time>
      </trkpt>
      <trkpt lat="45.92673" lon="6.51341">
        <ele>1998</ele>
        <time>2019-02-06T14:55:29.000Z</time>
      </trkpt>
      <trkpt lat="45.92673" lon="6.51341">
        <ele>1997</ele>
        <time>2019-02-06T14:55:33.000Z</time>
      </trkpt>
      <trkpt lat="45.92673" lon="6.51341">
        <ele>1997</ele>
        <time>2019-02-06T14:55:41.000Z</time>
      </trkpt>
      <trkpt lat="45.92674" lon="6.51342">
        <ele>1997</ele>
        <time>2019-02-06T14:55:42.000Z</time>
      </trkpt>
      <trkpt lat="45.92679" lon="6.51343">
        <ele>1997</ele>
        <time>2019-02-06T14:55:44.000Z</time>
      </trkpt>
      <trkpt lat="45.92681" lon="6.51343">
        <ele>1995.5999755859</ele>
        <time>2019-02-06T14:55:48.000Z</time>
      </trkpt>
      <trkpt lat="45.92681" lon="6.51343">
        <ele>1994.5999755859</ele>
        <time>2019-02-06T14:55:50.000Z</time>
      </trkpt>
      <trkpt lat="45.92681" lon="6.51343">
        <ele>1994.4000244141</ele>
        <time>2019-02-06T14:55:54.000Z</time>
      </trkpt>
      <trkpt lat="45.92682" lon="6.51345">
        <ele>1994.4000244141</ele>
        <time>2019-02-06T14:55:59.000Z</time>
      </trkpt>
      <trkpt lat="45.92682" lon="6.51349">
        <ele>1994.1999511719</ele>
        <time>2019-02-06T14:56:00.000Z</time>
      </trkpt>
      <trkpt lat="45.92684" lon="6.51351">
        <ele>1993.4000244141</ele>
        <time>2019-02-06T14:56:03.000Z</time>
      </trkpt>
      <trkpt lat="45.92685" lon="6.51351">
        <ele>1993.1999511719</ele>
        <time>2019-02-06T14:56:04.000Z</time>
      </trkpt>
      <trkpt lat="45.92685" lon="6.51351">
        <ele>1992.4000244141</ele>
        <time>2019-02-06T14:56:11.000Z</time>
      </trkpt>
      <trkpt lat="45.92685" lon="6.51351">
        <ele>1992.4000244141</ele>
        <time>2019-02-06T14:56:13.000Z</time>
      </trkpt>
      <trkpt lat="45.92685" lon="6.51351">
        <ele>1992.4000244141</ele>
        <time>2019-02-06T14:56:21.000Z</time>
      </trkpt>
      <trkpt lat="45.92685" lon="6.51351">
        <ele>1992.1999511719</ele>
        <time>2019-02-06T14:56:33.000Z</time>
      </trkpt>
      <trkpt lat="45.92685" lon="6.51351">
        <ele>1992.4000244141</ele>
        <time>2019-02-06T14:56:45.000Z</time>
      </trkpt>
      <trkpt lat="45.92685" lon="6.51351">
        <ele>1992.1999511719</ele>
        <time>2019-02-06T14:56:59.000Z</time>
      </trkpt>
      <trkpt lat="45.92685" lon="6.51351">
        <ele>1992.1999511719</ele>
        <time>2019-02-06T14:57:06.000Z</time>
      </trkpt>
      <trkpt lat="45.92685" lon="6.51351">
        <ele>1992.1999511719</ele>
        <time>2019-02-06T14:57:17.000Z</time>
      </trkpt>
      <trkpt lat="45.92685" lon="6.51351">
        <ele>1992</ele>
        <time>2019-02-06T14:57:22.000Z</time>
      </trkpt>
      <trkpt lat="45.92685" lon="6.51351">
        <ele>1992.4000244141</ele>
        <time>2019-02-06T14:57:34.000Z</time>
      </trkpt>
      <trkpt lat="45.92685" lon="6.51351">
        <ele>1992.8000488281</ele>
        <time>2019-02-06T14:57:47.000Z</time>
      </trkpt>
      <trkpt lat="45.92685" lon="6.51351">
        <ele>1992.4000244141</ele>
        <time>2019-02-06T14:58:04.000Z</time>
      </trkpt>
      <trkpt lat="45.92685" lon="6.51348">
        <ele>1992.4000244141</ele>
        <time>2019-02-06T14:58:17.000Z</time>
      </trkpt>
      <trkpt lat="45.92685" lon="6.51348">
        <ele>1992.5999755859</ele>
        <time>2019-02-06T14:58:29.000Z</time>
      </trkpt>
      <trkpt lat="45.92685" lon="6.51348">
        <ele>1992.4000244141</ele>
        <time>2019-02-06T14:58:36.000Z</time>
      </trkpt>
      <trkpt lat="45.92685" lon="6.51348">
        <ele>1992.4000244141</ele>
        <time>2019-02-06T14:58:44.000Z</time>
      </trkpt>
      <trkpt lat="45.92688" lon="6.51348">
        <ele>1992.4000244141</ele>
        <time>2019-02-06T14:58:50.000Z</time>
      </trkpt>
      <trkpt lat="45.9269" lon="6.51352">
        <ele>1992.4000244141</ele>
        <time>2019-02-06T14:58:51.000Z</time>
      </trkpt>
      <trkpt lat="45.92693" lon="6.51356">
        <ele>1992</ele>
        <time>2019-02-06T14:58:54.000Z</time>
      </trkpt>
      <trkpt lat="45.92699" lon="6.51346">
        <ele>1991.4000244141</ele>
        <time>2019-02-06T14:58:55.000Z</time>
      </trkpt>
      <trkpt lat="45.92703" lon="6.51346">
        <ele>1990.5999755859</ele>
        <time>2019-02-06T14:58:56.000Z</time>
      </trkpt>
      <trkpt lat="45.92707" lon="6.51349">
        <ele>1989.8000488281</ele>
        <time>2019-02-06T14:58:57.000Z</time>
      </trkpt>
      <trkpt lat="45.92708" lon="6.51356">
        <ele>1988.5999755859</ele>
        <time>2019-02-06T14:58:58.000Z</time>
      </trkpt>
      <trkpt lat="45.9271" lon="6.51354">
        <ele>1987.1999511719</ele>
        <time>2019-02-06T14:58:59.000Z</time>
      </trkpt>
      <trkpt lat="45.92712" lon="6.51352">
        <ele>1985.5999755859</ele>
        <time>2019-02-06T14:59:00.000Z</time>
      </trkpt>
      <trkpt lat="45.92715" lon="6.5135">
        <ele>1984</ele>
        <time>2019-02-06T14:59:01.000Z</time>
      </trkpt>
      <trkpt lat="45.92717" lon="6.51349">
        <ele>1980.4000244141</ele>
        <time>2019-02-06T14:59:02.000Z</time>
      </trkpt>
      <trkpt lat="45.92718" lon="6.51348">
        <ele>1978.8000488281</ele>
        <time>2019-02-06T14:59:03.000Z</time>
      </trkpt>
      <trkpt lat="45.92719" lon="6.51349">
        <ele>1977</ele>
        <time>2019-02-06T14:59:04.000Z</time>
      </trkpt>
      <trkpt lat="45.92721" lon="6.51364">
        <ele>1975</ele>
        <time>2019-02-06T14:59:05.000Z</time>
      </trkpt>
      <trkpt lat="45.92721" lon="6.51374">
        <ele>1973.1999511719</ele>
        <time>2019-02-06T14:59:06.000Z</time>
      </trkpt>
      <trkpt lat="45.92725" lon="6.51381">
        <ele>1971.1999511719</ele>
        <time>2019-02-06T14:59:07.000Z</time>
      </trkpt>
      <trkpt lat="45.92731" lon="6.51383">
        <ele>1969.4000244141</ele>
        <time>2019-02-06T14:59:08.000Z</time>
      </trkpt>
      <trkpt lat="45.92736" lon="6.5138">
        <ele>1968.4000244141</ele>
        <time>2019-02-06T14:59:09.000Z</time>
      </trkpt>
      <trkpt lat="45.92735" lon="6.51363">
        <ele>1966.5999755859</ele>
        <time>2019-02-06T14:59:11.000Z</time>
      </trkpt>
      <trkpt lat="45.92735" lon="6.51362">
        <ele>1965.4000244141</ele>
        <time>2019-02-06T14:59:12.000Z</time>
      </trkpt>
      <trkpt lat="45.92735" lon="6.51362">
        <ele>1964</ele>
        <time>2019-02-06T14:59:13.000Z</time>
      </trkpt>
      <trkpt lat="45.92735" lon="6.51362">
        <ele>1963</ele>
        <time>2019-02-06T14:59:14.000Z</time>
      </trkpt>
      <trkpt lat="45.92735" lon="6.51362">
        <ele>1961.5999755859</ele>
        <time>2019-02-06T14:59:16.000Z</time>
      </trkpt>
      <trkpt lat="45.92737" lon="6.51363">
        <ele>1960.8000488281</ele>
        <time>2019-02-06T14:59:22.000Z</time>
      </trkpt>
      <trkpt lat="45.92742" lon="6.51368">
        <ele>1960.8000488281</ele>
        <time>2019-02-06T14:59:23.000Z</time>
      </trkpt>
      <trkpt lat="45.92747" lon="6.51374">
        <ele>1960.5999755859</ele>
        <time>2019-02-06T14:59:24.000Z</time>
      </trkpt>
      <trkpt lat="45.92752" lon="6.51384">
        <ele>1958.8000488281</ele>
        <time>2019-02-06T14:59:26.000Z</time>
      </trkpt>
      <trkpt lat="45.92752" lon="6.51388">
        <ele>1957.8000488281</ele>
        <time>2019-02-06T14:59:27.000Z</time>
      </trkpt>
      <trkpt lat="45.9275" lon="6.51391">
        <ele>1956.5999755859</ele>
        <time>2019-02-06T14:59:28.000Z</time>
      </trkpt>
      <trkpt lat="45.9275" lon="6.51391">
        <ele>1955.8000488281</ele>
        <time>2019-02-06T14:59:29.000Z</time>
      </trkpt>
      <trkpt lat="45.9275" lon="6.51391">
        <ele>1955.1999511719</ele>
        <time>2019-02-06T14:59:30.000Z</time>
      </trkpt>
      <trkpt lat="45.9276" lon="6.51397">
        <ele>1954.4000244141</ele>
        <time>2019-02-06T14:59:33.000Z</time>
      </trkpt>
      <trkpt lat="45.9277" lon="6.51404">
        <ele>1954</ele>
        <time>2019-02-06T14:59:35.000Z</time>
      </trkpt>
      <trkpt lat="45.92775" lon="6.51408">
        <ele>1953.1999511719</ele>
        <time>2019-02-06T14:59:36.000Z</time>
      </trkpt>
      <trkpt lat="45.92778" lon="6.51412">
        <ele>1952.1999511719</ele>
        <time>2019-02-06T14:59:37.000Z</time>
      </trkpt>
      <trkpt lat="45.92781" lon="6.51416">
        <ele>1951</ele>
        <time>2019-02-06T14:59:38.000Z</time>
      </trkpt>
      <trkpt lat="45.92785" lon="6.51418">
        <ele>1949.8000488281</ele>
        <time>2019-02-06T14:59:39.000Z</time>
      </trkpt>
      <trkpt lat="45.92788" lon="6.51424">
        <ele>1949</ele>
        <time>2019-02-06T14:59:40.000Z</time>
      </trkpt>
      <trkpt lat="45.92791" lon="6.51428">
        <ele>1948.5999755859</ele>
        <time>2019-02-06T14:59:41.000Z</time>
      </trkpt>
      <trkpt lat="45.92793" lon="6.51434">
        <ele>1948</ele>
        <time>2019-02-06T14:59:42.000Z</time>
      </trkpt>
      <trkpt lat="45.92799" lon="6.51442">
        <ele>1947.1999511719</ele>
        <time>2019-02-06T14:59:44.000Z</time>
      </trkpt>
      <trkpt lat="45.92802" lon="6.51445">
        <ele>1946.5999755859</ele>
        <time>2019-02-06T14:59:45.000Z</time>
      </trkpt>
      <trkpt lat="45.92805" lon="6.51448">
        <ele>1946</ele>
        <time>2019-02-06T14:59:46.000Z</time>
      </trkpt>
      <trkpt lat="45.92812" lon="6.51453">
        <ele>1945.1999511719</ele>
        <time>2019-02-06T14:59:48.000Z</time>
      </trkpt>
      <trkpt lat="45.92815" lon="6.5145">
        <ele>1944.8000488281</ele>
        <time>2019-02-06T14:59:49.000Z</time>
      </trkpt>
      <trkpt lat="45.92819" lon="6.51447">
        <ele>1943.5999755859</ele>
        <time>2019-02-06T14:59:50.000Z</time>
      </trkpt>
      <trkpt lat="45.92819" lon="6.51436">
        <ele>1943.1999511719</ele>
        <time>2019-02-06T14:59:51.000Z</time>
      </trkpt>
      <trkpt lat="45.92823" lon="6.51431">
        <ele>1942.5999755859</ele>
        <time>2019-02-06T14:59:52.000Z</time>
      </trkpt>
      <trkpt lat="45.92827" lon="6.51425">
        <ele>1941.5999755859</ele>
        <time>2019-02-06T14:59:53.000Z</time>
      </trkpt>
      <trkpt lat="45.92832" lon="6.51426">
        <ele>1940.4000244141</ele>
        <time>2019-02-06T14:59:54.000Z</time>
      </trkpt>
      <trkpt lat="45.92839" lon="6.51429">
        <ele>1938.5999755859</ele>
        <time>2019-02-06T14:59:55.000Z</time>
      </trkpt>
      <trkpt lat="45.92846" lon="6.51429">
        <ele>1936.5999755859</ele>
        <time>2019-02-06T14:59:56.000Z</time>
      </trkpt>
      <trkpt lat="45.92853" lon="6.51421">
        <ele>1934.4000244141</ele>
        <time>2019-02-06T14:59:57.000Z</time>
      </trkpt>
      <trkpt lat="45.92861" lon="6.51413">
        <ele>1932.1999511719</ele>
        <time>2019-02-06T14:59:58.000Z</time>
      </trkpt>
      <trkpt lat="45.92869" lon="6.51409">
        <ele>1930.4000244141</ele>
        <time>2019-02-06T14:59:59.000Z</time>
      </trkpt>
      <trkpt lat="45.92877" lon="6.5141">
        <ele>1928.8000488281</ele>
        <time>2019-02-06T15:00:00.000Z</time>
      </trkpt>
      <trkpt lat="45.92883" lon="6.51409">
        <ele>1927</ele>
        <time>2019-02-06T15:00:01.000Z</time>
      </trkpt>
      <trkpt lat="45.92889" lon="6.51404">
        <ele>1924.8000488281</ele>
        <time>2019-02-06T15:00:02.000Z</time>
      </trkpt>
      <trkpt lat="45.92889" lon="6.51393">
        <ele>1922.4000244141</ele>
        <time>2019-02-06T15:00:03.000Z</time>
      </trkpt>
      <trkpt lat="45.92889" lon="6.51382">
        <ele>1919.8000488281</ele>
        <time>2019-02-06T15:00:04.000Z</time>
      </trkpt>
      <trkpt lat="45.9289" lon="6.51373">
        <ele>1917.8000488281</ele>
        <time>2019-02-06T15:00:05.000Z</time>
      </trkpt>
      <trkpt lat="45.92892" lon="6.51364">
        <ele>1916</ele>
        <time>2019-02-06T15:00:06.000Z</time>
      </trkpt>
      <trkpt lat="45.92901" lon="6.51366">
        <ele>1914.4000244141</ele>
        <time>2019-02-06T15:00:07.000Z</time>
      </trkpt>
      <trkpt lat="45.92906" lon="6.51361">
        <ele>1912.5999755859</ele>
        <time>2019-02-06T15:00:08.000Z</time>
      </trkpt>
      <trkpt lat="45.92915" lon="6.51367">
        <ele>1910.5999755859</ele>
        <time>2019-02-06T15:00:09.000Z</time>
      </trkpt>
      <trkpt lat="45.92926" lon="6.51365">
        <ele>1908</ele>
        <time>2019-02-06T15:00:10.000Z</time>
      </trkpt>
      <trkpt lat="45.92934" lon="6.5136">
        <ele>1905.1999511719</ele>
        <time>2019-02-06T15:00:11.000Z</time>
      </trkpt>
      <trkpt lat="45.92942" lon="6.51352">
        <ele>1902.4000244141</ele>
        <time>2019-02-06T15:00:12.000Z</time>
      </trkpt>
      <trkpt lat="45.92949" lon="6.51342">
        <ele>1900</ele>
        <time>2019-02-06T15:00:13.000Z</time>
      </trkpt>
      <trkpt lat="45.92955" lon="6.51332">
        <ele>1895.4000244141</ele>
        <time>2019-02-06T15:00:14.000Z</time>
      </trkpt>
      <trkpt lat="45.92959" lon="6.51321">
        <ele>1893.1999511719</ele>
        <time>2019-02-06T15:00:15.000Z</time>
      </trkpt>
      <trkpt lat="45.92964" lon="6.5131">
        <ele>1891.1999511719</ele>
        <time>2019-02-06T15:00:16.000Z</time>
      </trkpt>
      <trkpt lat="45.9297" lon="6.51301">
        <ele>1889.1999511719</ele>
        <time>2019-02-06T15:00:17.000Z</time>
      </trkpt>
      <trkpt lat="45.92976" lon="6.51294">
        <ele>1887.1999511719</ele>
        <time>2019-02-06T15:00:18.000Z</time>
      </trkpt>
      <trkpt lat="45.92982" lon="6.51289">
        <ele>1885.1999511719</ele>
        <time>2019-02-06T15:00:19.000Z</time>
      </trkpt>
      <trkpt lat="45.92988" lon="6.51285">
        <ele>1883</ele>
        <time>2019-02-06T15:00:20.000Z</time>
      </trkpt>
      <trkpt lat="45.92993" lon="6.51282">
        <ele>1880.8000488281</ele>
        <time>2019-02-06T15:00:21.000Z</time>
      </trkpt>
      <trkpt lat="45.92998" lon="6.51279">
        <ele>1878.5999755859</ele>
        <time>2019-02-06T15:00:22.000Z</time>
      </trkpt>
      <trkpt lat="45.93001" lon="6.51275">
        <ele>1876.5999755859</ele>
        <time>2019-02-06T15:00:23.000Z</time>
      </trkpt>
      <trkpt lat="45.93004" lon="6.5127">
        <ele>1875</ele>
        <time>2019-02-06T15:00:24.000Z</time>
      </trkpt>
      <trkpt lat="45.93004" lon="6.51264">
        <ele>1873.8000488281</ele>
        <time>2019-02-06T15:00:25.000Z</time>
      </trkpt>
      <trkpt lat="45.93002" lon="6.51257">
        <ele>1872.8000488281</ele>
        <time>2019-02-06T15:00:26.000Z</time>
      </trkpt>
      <trkpt lat="45.92994" lon="6.51242">
        <ele>1871</ele>
        <time>2019-02-06T15:00:28.000Z</time>
      </trkpt>
      <trkpt lat="45.9299" lon="6.51233">
        <ele>1870.1999511719</ele>
        <time>2019-02-06T15:00:29.000Z</time>
      </trkpt>
      <trkpt lat="45.92985" lon="6.51223">
        <ele>1869.4000244141</ele>
        <time>2019-02-06T15:00:30.000Z</time>
      </trkpt>
      <trkpt lat="45.92977" lon="6.51203">
        <ele>1867.1999511719</ele>
        <time>2019-02-06T15:00:32.000Z</time>
      </trkpt>
      <trkpt lat="45.92974" lon="6.51194">
        <ele>1866</ele>
        <time>2019-02-06T15:00:33.000Z</time>
      </trkpt>
      <trkpt lat="45.92971" lon="6.51186">
        <ele>1864.4000244141</ele>
        <time>2019-02-06T15:00:34.000Z</time>
      </trkpt>
      <trkpt lat="45.92969" lon="6.51179">
        <ele>1862.5999755859</ele>
        <time>2019-02-06T15:00:35.000Z</time>
      </trkpt>
      <trkpt lat="45.92968" lon="6.51174">
        <ele>1860.8000488281</ele>
        <time>2019-02-06T15:00:36.000Z</time>
      </trkpt>
      <trkpt lat="45.92968" lon="6.51173">
        <ele>1859.1999511719</ele>
        <time>2019-02-06T15:00:37.000Z</time>
      </trkpt>
      <trkpt lat="45.92967" lon="6.51172">
        <ele>1856.1999511719</ele>
        <time>2019-02-06T15:00:38.000Z</time>
      </trkpt>
      <trkpt lat="45.92967" lon="6.51172">
        <ele>1855.1999511719</ele>
        <time>2019-02-06T15:00:39.000Z</time>
      </trkpt>
      <trkpt lat="45.92968" lon="6.5117">
        <ele>1853.8000488281</ele>
        <time>2019-02-06T15:00:41.000Z</time>
      </trkpt>
      <trkpt lat="45.92968" lon="6.5117">
        <ele>1853</ele>
        <time>2019-02-06T15:00:44.000Z</time>
      </trkpt>
      <trkpt lat="45.92968" lon="6.51169">
        <ele>1852.8000488281</ele>
        <time>2019-02-06T15:00:46.000Z</time>
      </trkpt>
      <trkpt lat="45.92967" lon="6.51168">
        <ele>1852.4000244141</ele>
        <time>2019-02-06T15:00:48.000Z</time>
      </trkpt>
      <trkpt lat="45.92964" lon="6.51163">
        <ele>1852</ele>
        <time>2019-02-06T15:00:52.000Z</time>
      </trkpt>
      <trkpt lat="45.92957" lon="6.51149">
        <ele>1851.5999755859</ele>
        <time>2019-02-06T15:00:57.000Z</time>
      </trkpt>
      <trkpt lat="45.92955" lon="6.51145">
        <ele>1850.4000244141</ele>
        <time>2019-02-06T15:01:00.000Z</time>
      </trkpt>
      <trkpt lat="45.92953" lon="6.51137">
        <ele>1849</ele>
        <time>2019-02-06T15:01:02.000Z</time>
      </trkpt>
      <trkpt lat="45.92947" lon="6.51112">
        <ele>1847.5999755859</ele>
        <time>2019-02-06T15:01:06.000Z</time>
      </trkpt>
      <trkpt lat="45.92945" lon="6.51103">
        <ele>1846</ele>
        <time>2019-02-06T15:01:08.000Z</time>
      </trkpt>
      <trkpt lat="45.92946" lon="6.51098">
        <ele>1845.4000244141</ele>
        <time>2019-02-06T15:01:09.000Z</time>
      </trkpt>
      <trkpt lat="45.92949" lon="6.51092">
        <ele>1844.8000488281</ele>
        <time>2019-02-06T15:01:10.000Z</time>
      </trkpt>
      <trkpt lat="45.92958" lon="6.51072">
        <ele>1843.5999755859</ele>
        <time>2019-02-06T15:01:12.000Z</time>
      </trkpt>
      <trkpt lat="45.92961" lon="6.5106">
        <ele>1842.8000488281</ele>
        <time>2019-02-06T15:01:13.000Z</time>
      </trkpt>
      <trkpt lat="45.92962" lon="6.5105">
        <ele>1841.5999755859</ele>
        <time>2019-02-06T15:01:14.000Z</time>
      </trkpt>
      <trkpt lat="45.92962" lon="6.5104">
        <ele>1840.1999511719</ele>
        <time>2019-02-06T15:01:15.000Z</time>
      </trkpt>
      <trkpt lat="45.92961" lon="6.51033">
        <ele>1838.5999755859</ele>
        <time>2019-02-06T15:01:16.000Z</time>
      </trkpt>
      <trkpt lat="45.92961" lon="6.51026">
        <ele>1836.8000488281</ele>
        <time>2019-02-06T15:01:17.000Z</time>
      </trkpt>
      <trkpt lat="45.9296" lon="6.51021">
        <ele>1835.4000244141</ele>
        <time>2019-02-06T15:01:18.000Z</time>
      </trkpt>
      <trkpt lat="45.92959" lon="6.51018">
        <ele>1834.4000244141</ele>
        <time>2019-02-06T15:01:19.000Z</time>
      </trkpt>
      <trkpt lat="45.92959" lon="6.51015">
        <ele>1833.8000488281</ele>
        <time>2019-02-06T15:01:20.000Z</time>
      </trkpt>
      <trkpt lat="45.92957" lon="6.51009">
        <ele>1833</ele>
        <time>2019-02-06T15:01:24.000Z</time>
      </trkpt>
      <trkpt lat="45.92957" lon="6.51007">
        <ele>1833</ele>
        <time>2019-02-06T15:01:29.000Z</time>
      </trkpt>
      <trkpt lat="45.92957" lon="6.51005">
        <ele>1833.4000244141</ele>
        <time>2019-02-06T15:01:33.000Z</time>
      </trkpt>
      <trkpt lat="45.92958" lon="6.51001">
        <ele>1833.4000244141</ele>
        <time>2019-02-06T15:01:36.000Z</time>
      </trkpt>
      <trkpt lat="45.9296" lon="6.50986">
        <ele>1833.1999511719</ele>
        <time>2019-02-06T15:01:44.000Z</time>
      </trkpt>
      <trkpt lat="45.92959" lon="6.50981">
        <ele>1833</ele>
        <time>2019-02-06T15:01:50.000Z</time>
      </trkpt>
      <trkpt lat="45.92959" lon="6.5098">
        <ele>1832.8000488281</ele>
        <time>2019-02-06T15:01:54.000Z</time>
      </trkpt>
      <trkpt lat="45.92958" lon="6.50979">
        <ele>1832.4000244141</ele>
        <time>2019-02-06T15:01:57.000Z</time>
      </trkpt>
      <trkpt lat="45.92958" lon="6.50978">
        <ele>1832.5999755859</ele>
        <time>2019-02-06T15:01:58.000Z</time>
      </trkpt>
      <trkpt lat="45.92954" lon="6.50967">
        <ele>1832.4000244141</ele>
        <time>2019-02-06T15:02:05.000Z</time>
      </trkpt>
      <trkpt lat="45.92953" lon="6.50965">
        <ele>1832</ele>
        <time>2019-02-06T15:02:09.000Z</time>
      </trkpt>
      <trkpt lat="45.92952" lon="6.50964">
        <ele>1831.8000488281</ele>
        <time>2019-02-06T15:02:11.000Z</time>
      </trkpt>
      <trkpt lat="45.92952" lon="6.50964">
        <ele>1831.5999755859</ele>
        <time>2019-02-06T15:02:12.000Z</time>
      </trkpt>
      <trkpt lat="45.92951" lon="6.50961">
        <ele>1831.5999755859</ele>
        <time>2019-02-06T15:02:18.000Z</time>
      </trkpt>
      <trkpt lat="45.92951" lon="6.5096">
        <ele>1831.4000244141</ele>
        <time>2019-02-06T15:02:24.000Z</time>
      </trkpt>
      <trkpt lat="45.92947" lon="6.50954">
        <ele>1831.5999755859</ele>
        <time>2019-02-06T15:02:29.000Z</time>
      </trkpt>
      <trkpt lat="45.92939" lon="6.50937">
        <ele>1831</ele>
        <time>2019-02-06T15:02:36.000Z</time>
      </trkpt>
      <trkpt lat="45.92936" lon="6.50925">
        <ele>1830.5999755859</ele>
        <time>2019-02-06T15:02:39.000Z</time>
      </trkpt>
      <trkpt lat="45.92931" lon="6.50913">
        <ele>1829.4000244141</ele>
        <time>2019-02-06T15:02:43.000Z</time>
      </trkpt>
      <trkpt lat="45.92927" lon="6.50901">
        <ele>1829</ele>
        <time>2019-02-06T15:02:45.000Z</time>
      </trkpt>
      <trkpt lat="45.92925" lon="6.50893">
        <ele>1828.5999755859</ele>
        <time>2019-02-06T15:02:46.000Z</time>
      </trkpt>
      <trkpt lat="45.92921" lon="6.50883">
        <ele>1828.1999511719</ele>
        <time>2019-02-06T15:02:47.000Z</time>
      </trkpt>
      <trkpt lat="45.92911" lon="6.50868">
        <ele>1827</ele>
        <time>2019-02-06T15:02:49.000Z</time>
      </trkpt>
      <trkpt lat="45.92907" lon="6.50861">
        <ele>1826</ele>
        <time>2019-02-06T15:02:50.000Z</time>
      </trkpt>
      <trkpt lat="45.92904" lon="6.50855">
        <ele>1825</ele>
        <time>2019-02-06T15:02:51.000Z</time>
      </trkpt>
      <trkpt lat="45.92901" lon="6.50851">
        <ele>1823.8000488281</ele>
        <time>2019-02-06T15:02:52.000Z</time>
      </trkpt>
      <trkpt lat="45.92899" lon="6.50849">
        <ele>1822.5999755859</ele>
        <time>2019-02-06T15:02:53.000Z</time>
      </trkpt>
      <trkpt lat="45.92898" lon="6.50847">
        <ele>1821.4000244141</ele>
        <time>2019-02-06T15:02:54.000Z</time>
      </trkpt>
      <trkpt lat="45.92897" lon="6.50846">
        <ele>1820</ele>
        <time>2019-02-06T15:02:55.000Z</time>
      </trkpt>
      <trkpt lat="45.92896" lon="6.50843">
        <ele>1818.8000488281</ele>
        <time>2019-02-06T15:02:56.000Z</time>
      </trkpt>
      <trkpt lat="45.92895" lon="6.50839">
        <ele>1817.5999755859</ele>
        <time>2019-02-06T15:02:57.000Z</time>
      </trkpt>
      <trkpt lat="45.92891" lon="6.5083">
        <ele>1816.1999511719</ele>
        <time>2019-02-06T15:02:59.000Z</time>
      </trkpt>
      <trkpt lat="45.92888" lon="6.50824">
        <ele>1815</ele>
        <time>2019-02-06T15:03:01.000Z</time>
      </trkpt>
      <trkpt lat="45.92886" lon="6.50821">
        <ele>1813.5999755859</ele>
        <time>2019-02-06T15:03:02.000Z</time>
      </trkpt>
      <trkpt lat="45.92886" lon="6.50807">
        <ele>1811.5999755859</ele>
        <time>2019-02-06T15:03:04.000Z</time>
      </trkpt>
      <trkpt lat="45.92886" lon="6.5079">
        <ele>1810</ele>
        <time>2019-02-06T15:03:06.000Z</time>
      </trkpt>
      <trkpt lat="45.92884" lon="6.50781">
        <ele>1809</ele>
        <time>2019-02-06T15:03:07.000Z</time>
      </trkpt>
      <trkpt lat="45.92883" lon="6.50771">
        <ele>1807.8000488281</ele>
        <time>2019-02-06T15:03:08.000Z</time>
      </trkpt>
      <trkpt lat="45.92881" lon="6.50763">
        <ele>1806.4000244141</ele>
        <time>2019-02-06T15:03:09.000Z</time>
      </trkpt>
      <trkpt lat="45.92879" lon="6.50758">
        <ele>1805</ele>
        <time>2019-02-06T15:03:10.000Z</time>
      </trkpt>
      <trkpt lat="45.92878" lon="6.50756">
        <ele>1803.1999511719</ele>
        <time>2019-02-06T15:03:11.000Z</time>
      </trkpt>
      <trkpt lat="45.92878" lon="6.50756">
        <ele>1801.4000244141</ele>
        <time>2019-02-06T15:03:12.000Z</time>
      </trkpt>
      <trkpt lat="45.92878" lon="6.50756">
        <ele>1799.5999755859</ele>
        <time>2019-02-06T15:03:13.000Z</time>
      </trkpt>
      <trkpt lat="45.92878" lon="6.50753">
        <ele>1797.8000488281</ele>
        <time>2019-02-06T15:03:14.000Z</time>
      </trkpt>
      <trkpt lat="45.9288" lon="6.50751">
        <ele>1796.5999755859</ele>
        <time>2019-02-06T15:03:15.000Z</time>
      </trkpt>
      <trkpt lat="45.92884" lon="6.50749">
        <ele>1795.8000488281</ele>
        <time>2019-02-06T15:03:16.000Z</time>
      </trkpt>
      <trkpt lat="45.92886" lon="6.50745">
        <ele>1795.1999511719</ele>
        <time>2019-02-06T15:03:17.000Z</time>
      </trkpt>
      <trkpt lat="45.92888" lon="6.50739">
        <ele>1794.5999755859</ele>
        <time>2019-02-06T15:03:18.000Z</time>
      </trkpt>
      <trkpt lat="45.92891" lon="6.50736">
        <ele>1793.8000488281</ele>
        <time>2019-02-06T15:03:19.000Z</time>
      </trkpt>
      <trkpt lat="45.92895" lon="6.50734">
        <ele>1792.5999755859</ele>
        <time>2019-02-06T15:03:20.000Z</time>
      </trkpt>
      <trkpt lat="45.92897" lon="6.5073">
        <ele>1791.4000244141</ele>
        <time>2019-02-06T15:03:21.000Z</time>
      </trkpt>
      <trkpt lat="45.92896" lon="6.50723">
        <ele>1789.8000488281</ele>
        <time>2019-02-06T15:03:22.000Z</time>
      </trkpt>
      <trkpt lat="45.92896" lon="6.50717">
        <ele>1787.5999755859</ele>
        <time>2019-02-06T15:03:23.000Z</time>
      </trkpt>
      <trkpt lat="45.92898" lon="6.50715">
        <ele>1785.4000244141</ele>
        <time>2019-02-06T15:03:24.000Z</time>
      </trkpt>
      <trkpt lat="45.929" lon="6.50712">
        <ele>1783.5999755859</ele>
        <time>2019-02-06T15:03:25.000Z</time>
      </trkpt>
      <trkpt lat="45.929" lon="6.50707">
        <ele>1779.1999511719</ele>
        <time>2019-02-06T15:03:26.000Z</time>
      </trkpt>
      <trkpt lat="45.92901" lon="6.50703">
        <ele>1777</ele>
        <time>2019-02-06T15:03:27.000Z</time>
      </trkpt>
      <trkpt lat="45.92902" lon="6.507">
        <ele>1774.8000488281</ele>
        <time>2019-02-06T15:03:28.000Z</time>
      </trkpt>
      <trkpt lat="45.92904" lon="6.507">
        <ele>1773</ele>
        <time>2019-02-06T15:03:29.000Z</time>
      </trkpt>
      <trkpt lat="45.92905" lon="6.507">
        <ele>1770.8000488281</ele>
        <time>2019-02-06T15:03:30.000Z</time>
      </trkpt>
      <trkpt lat="45.92906" lon="6.50699">
        <ele>1768.5999755859</ele>
        <time>2019-02-06T15:03:31.000Z</time>
      </trkpt>
      <trkpt lat="45.92905" lon="6.50699">
        <ele>1766.4000244141</ele>
        <time>2019-02-06T15:03:32.000Z</time>
      </trkpt>
      <trkpt lat="45.92905" lon="6.50699">
        <ele>1764.5999755859</ele>
        <time>2019-02-06T15:03:33.000Z</time>
      </trkpt>
      <trkpt lat="45.92905" lon="6.50699">
        <ele>1763.4000244141</ele>
        <time>2019-02-06T15:03:34.000Z</time>
      </trkpt>
      <trkpt lat="45.92904" lon="6.50699">
        <ele>1761.8000488281</ele>
        <time>2019-02-06T15:03:36.000Z</time>
      </trkpt>
      <trkpt lat="45.92903" lon="6.50701">
        <ele>1761</ele>
        <time>2019-02-06T15:03:42.000Z</time>
      </trkpt>
      <trkpt lat="45.92906" lon="6.50702">
        <ele>1761</ele>
        <time>2019-02-06T15:03:49.000Z</time>
      </trkpt>
      <trkpt lat="45.92907" lon="6.50701">
        <ele>1760.8000488281</ele>
        <time>2019-02-06T15:03:50.000Z</time>
      </trkpt>
      <trkpt lat="45.92906" lon="6.50695">
        <ele>1760.5999755859</ele>
        <time>2019-02-06T15:03:52.000Z</time>
      </trkpt>
      <trkpt lat="45.92906" lon="6.50693">
        <ele>1759.5999755859</ele>
        <time>2019-02-06T15:03:55.000Z</time>
      </trkpt>
      <trkpt lat="45.92906" lon="6.50692">
        <ele>1758.1999511719</ele>
        <time>2019-02-06T15:03:57.000Z</time>
      </trkpt>
      <trkpt lat="45.92906" lon="6.50692">
        <ele>1757.8000488281</ele>
        <time>2019-02-06T15:03:58.000Z</time>
      </trkpt>
      <trkpt lat="45.92907" lon="6.50691">
        <ele>1757.1999511719</ele>
        <time>2019-02-06T15:04:01.000Z</time>
      </trkpt>
      <trkpt lat="45.92908" lon="6.50689">
        <ele>1756.1999511719</ele>
        <time>2019-02-06T15:04:05.000Z</time>
      </trkpt>
      <trkpt lat="45.92908" lon="6.50686">
        <ele>1755.1999511719</ele>
        <time>2019-02-06T15:04:09.000Z</time>
      </trkpt>
      <trkpt lat="45.92907" lon="6.50681">
        <ele>1754.4000244141</ele>
        <time>2019-02-06T15:04:11.000Z</time>
      </trkpt>
      <trkpt lat="45.92907" lon="6.50679">
        <ele>1754</ele>
        <time>2019-02-06T15:04:12.000Z</time>
      </trkpt>
      <trkpt lat="45.92907" lon="6.50672">
        <ele>1752.8000488281</ele>
        <time>2019-02-06T15:04:14.000Z</time>
      </trkpt>
      <trkpt lat="45.92907" lon="6.50671">
        <ele>1752</ele>
        <time>2019-02-06T15:04:15.000Z</time>
      </trkpt>
      <trkpt lat="45.92908" lon="6.50669">
        <ele>1751.1999511719</ele>
        <time>2019-02-06T15:04:16.000Z</time>
      </trkpt>
      <trkpt lat="45.92908" lon="6.50668">
        <ele>1750</ele>
        <time>2019-02-06T15:04:17.000Z</time>
      </trkpt>
      <trkpt lat="45.9291" lon="6.50668">
        <ele>1749</ele>
        <time>2019-02-06T15:04:18.000Z</time>
      </trkpt>
      <trkpt lat="45.92913" lon="6.50669">
        <ele>1748</ele>
        <time>2019-02-06T15:04:19.000Z</time>
      </trkpt>
      <trkpt lat="45.92918" lon="6.50672">
        <ele>1747</ele>
        <time>2019-02-06T15:04:20.000Z</time>
      </trkpt>
      <trkpt lat="45.92929" lon="6.50672">
        <ele>1745.1999511719</ele>
        <time>2019-02-06T15:04:22.000Z</time>
      </trkpt>
      <trkpt lat="45.92934" lon="6.50666">
        <ele>1743.8000488281</ele>
        <time>2019-02-06T15:04:23.000Z</time>
      </trkpt>
      <trkpt lat="45.92937" lon="6.50659">
        <ele>1742.4000244141</ele>
        <time>2019-02-06T15:04:24.000Z</time>
      </trkpt>
      <trkpt lat="45.92941" lon="6.50656">
        <ele>1740.4000244141</ele>
        <time>2019-02-06T15:04:25.000Z</time>
      </trkpt>
      <trkpt lat="45.92946" lon="6.50652">
        <ele>1738.1999511719</ele>
        <time>2019-02-06T15:04:26.000Z</time>
      </trkpt>
      <trkpt lat="45.92947" lon="6.50645">
        <ele>1735.5999755859</ele>
        <time>2019-02-06T15:04:27.000Z</time>
      </trkpt>
      <trkpt lat="45.92945" lon="6.50636">
        <ele>1733.1999511719</ele>
        <time>2019-02-06T15:04:28.000Z</time>
      </trkpt>
      <trkpt lat="45.92944" lon="6.50625">
        <ele>1731</ele>
        <time>2019-02-06T15:04:29.000Z</time>
      </trkpt>
      <trkpt lat="45.92942" lon="6.50613">
        <ele>1729</ele>
        <time>2019-02-06T15:04:30.000Z</time>
      </trkpt>
      <trkpt lat="45.92941" lon="6.50601">
        <ele>1727.1999511719</ele>
        <time>2019-02-06T15:04:31.000Z</time>
      </trkpt>
      <trkpt lat="45.92941" lon="6.5059">
        <ele>1724.8000488281</ele>
        <time>2019-02-06T15:04:32.000Z</time>
      </trkpt>
      <trkpt lat="45.9294" lon="6.50582">
        <ele>1722.4000244141</ele>
        <time>2019-02-06T15:04:33.000Z</time>
      </trkpt>
      <trkpt lat="45.92939" lon="6.50576">
        <ele>1720</ele>
        <time>2019-02-06T15:04:34.000Z</time>
      </trkpt>
      <trkpt lat="45.92937" lon="6.50572">
        <ele>1717.5999755859</ele>
        <time>2019-02-06T15:04:35.000Z</time>
      </trkpt>
      <trkpt lat="45.92936" lon="6.50569">
        <ele>1715.1999511719</ele>
        <time>2019-02-06T15:04:36.000Z</time>
      </trkpt>
      <trkpt lat="45.92935" lon="6.50564">
        <ele>1713.1999511719</ele>
        <time>2019-02-06T15:04:37.000Z</time>
      </trkpt>
      <trkpt lat="45.92935" lon="6.5056">
        <ele>1711</ele>
        <time>2019-02-06T15:04:38.000Z</time>
      </trkpt>
      <trkpt lat="45.92935" lon="6.50557">
        <ele>1710.4000244141</ele>
        <time>2019-02-06T15:04:39.000Z</time>
      </trkpt>
      <trkpt lat="45.92934" lon="6.50557">
        <ele>1709.8000488281</ele>
        <time>2019-02-06T15:04:41.000Z</time>
      </trkpt>
      <trkpt lat="45.92934" lon="6.50557">
        <ele>1708.8000488281</ele>
        <time>2019-02-06T15:04:43.000Z</time>
      </trkpt>
      <trkpt lat="45.92935" lon="6.50555">
        <ele>1708.1999511719</ele>
        <time>2019-02-06T15:04:44.000Z</time>
      </trkpt>
      <trkpt lat="45.92936" lon="6.50549">
        <ele>1707.5999755859</ele>
        <time>2019-02-06T15:04:46.000Z</time>
      </trkpt>
      <trkpt lat="45.92938" lon="6.5054">
        <ele>1706.8000488281</ele>
        <time>2019-02-06T15:04:48.000Z</time>
      </trkpt>
      <trkpt lat="45.92937" lon="6.50536">
        <ele>1706.1999511719</ele>
        <time>2019-02-06T15:04:49.000Z</time>
      </trkpt>
      <trkpt lat="45.92937" lon="6.50533">
        <ele>1705</ele>
        <time>2019-02-06T15:04:51.000Z</time>
      </trkpt>
      <trkpt lat="45.92937" lon="6.50533">
        <ele>1704.4000244141</ele>
        <time>2019-02-06T15:04:52.000Z</time>
      </trkpt>
      <trkpt lat="45.92936" lon="6.50533">
        <ele>1703.4000244141</ele>
        <time>2019-02-06T15:04:53.000Z</time>
      </trkpt>
      <trkpt lat="45.92936" lon="6.50532">
        <ele>1702.4000244141</ele>
        <time>2019-02-06T15:04:55.000Z</time>
      </trkpt>
      <trkpt lat="45.92936" lon="6.50531">
        <ele>1702</ele>
        <time>2019-02-06T15:04:58.000Z</time>
      </trkpt>
      <trkpt lat="45.92935" lon="6.50529">
        <ele>1702</ele>
        <time>2019-02-06T15:05:03.000Z</time>
      </trkpt>
      <trkpt lat="45.92932" lon="6.50516">
        <ele>1702</ele>
        <time>2019-02-06T15:05:07.000Z</time>
      </trkpt>
      <trkpt lat="45.92929" lon="6.50513">
        <ele>1701.5999755859</ele>
        <time>2019-02-06T15:05:10.000Z</time>
      </trkpt>
      <trkpt lat="45.92928" lon="6.50512">
        <ele>1701.1999511719</ele>
        <time>2019-02-06T15:05:12.000Z</time>
      </trkpt>
      <trkpt lat="45.92923" lon="6.50508">
        <ele>1701</ele>
        <time>2019-02-06T15:05:15.000Z</time>
      </trkpt>
      <trkpt lat="45.92913" lon="6.50501">
        <ele>1700.8000488281</ele>
        <time>2019-02-06T15:05:21.000Z</time>
      </trkpt>
      <trkpt lat="45.92908" lon="6.50499">
        <ele>1700</ele>
        <time>2019-02-06T15:05:25.000Z</time>
      </trkpt>
      <trkpt lat="45.92908" lon="6.50499">
        <ele>1699.8000488281</ele>
        <time>2019-02-06T15:05:26.000Z</time>
      </trkpt>
      <trkpt lat="45.92905" lon="6.50496">
        <ele>1700</ele>
        <time>2019-02-06T15:05:32.000Z</time>
      </trkpt>
      <trkpt lat="45.92899" lon="6.50493">
        <ele>1700.1999511719</ele>
        <time>2019-02-06T15:05:38.000Z</time>
      </trkpt>
      <trkpt lat="45.92894" lon="6.50488">
        <ele>1700</ele>
        <time>2019-02-06T15:05:45.000Z</time>
      </trkpt>
      <trkpt lat="45.92886" lon="6.50485">
        <ele>1699</ele>
        <time>2019-02-06T15:05:52.000Z</time>
      </trkpt>
      <trkpt lat="45.92881" lon="6.50486">
        <ele>1698.5999755859</ele>
        <time>2019-02-06T15:05:57.000Z</time>
      </trkpt>
      <trkpt lat="45.92881" lon="6.50486">
        <ele>1698</ele>
        <time>2019-02-06T15:06:03.000Z</time>
      </trkpt>
      <trkpt lat="45.92881" lon="6.50486">
        <ele>1698</ele>
        <time>2019-02-06T15:06:06.000Z</time>
      </trkpt>
      <trkpt lat="45.92881" lon="6.50486">
        <ele>1697.8000488281</ele>
        <time>2019-02-06T15:06:16.000Z</time>
      </trkpt>
      <trkpt lat="45.92876" lon="6.50487">
        <ele>1697.8000488281</ele>
        <time>2019-02-06T15:06:20.000Z</time>
      </trkpt>
      <trkpt lat="45.9287" lon="6.50486">
        <ele>1697.8000488281</ele>
        <time>2019-02-06T15:06:22.000Z</time>
      </trkpt>
      <trkpt lat="45.92869" lon="6.50482">
        <ele>1697.4000244141</ele>
        <time>2019-02-06T15:06:23.000Z</time>
      </trkpt>
      <trkpt lat="45.92865" lon="6.5047">
        <ele>1696.5999755859</ele>
        <time>2019-02-06T15:06:25.000Z</time>
      </trkpt>
      <trkpt lat="45.92863" lon="6.50465">
        <ele>1695.8000488281</ele>
        <time>2019-02-06T15:06:26.000Z</time>
      </trkpt>
      <trkpt lat="45.92859" lon="6.50459">
        <ele>1695</ele>
        <time>2019-02-06T15:06:27.000Z</time>
      </trkpt>
      <trkpt lat="45.92857" lon="6.50451">
        <ele>1694</ele>
        <time>2019-02-06T15:06:28.000Z</time>
      </trkpt>
      <trkpt lat="45.92856" lon="6.50443">
        <ele>1692.8000488281</ele>
        <time>2019-02-06T15:06:29.000Z</time>
      </trkpt>
      <trkpt lat="45.92853" lon="6.50436">
        <ele>1691.4000244141</ele>
        <time>2019-02-06T15:06:30.000Z</time>
      </trkpt>
      <trkpt lat="45.9285" lon="6.5043">
        <ele>1689.5999755859</ele>
        <time>2019-02-06T15:06:31.000Z</time>
      </trkpt>
      <trkpt lat="45.9285" lon="6.50426">
        <ele>1687.8000488281</ele>
        <time>2019-02-06T15:06:32.000Z</time>
      </trkpt>
      <trkpt lat="45.92852" lon="6.50421">
        <ele>1685.8000488281</ele>
        <time>2019-02-06T15:06:33.000Z</time>
      </trkpt>
      <trkpt lat="45.92853" lon="6.50417">
        <ele>1683.5999755859</ele>
        <time>2019-02-06T15:06:34.000Z</time>
      </trkpt>
      <trkpt lat="45.9285" lon="6.50414">
        <ele>1681.1999511719</ele>
        <time>2019-02-06T15:06:35.000Z</time>
      </trkpt>
      <trkpt lat="45.92846" lon="6.50411">
        <ele>1679.1999511719</ele>
        <time>2019-02-06T15:06:36.000Z</time>
      </trkpt>
      <trkpt lat="45.92843" lon="6.50406">
        <ele>1677.8000488281</ele>
        <time>2019-02-06T15:06:37.000Z</time>
      </trkpt>
      <trkpt lat="45.92842" lon="6.50401">
        <ele>1675.4000244141</ele>
        <time>2019-02-06T15:06:38.000Z</time>
      </trkpt>
      <trkpt lat="45.92842" lon="6.50396">
        <ele>1674</ele>
        <time>2019-02-06T15:06:39.000Z</time>
      </trkpt>
      <trkpt lat="45.92841" lon="6.50391">
        <ele>1672.5999755859</ele>
        <time>2019-02-06T15:06:40.000Z</time>
      </trkpt>
      <trkpt lat="45.9284" lon="6.50385">
        <ele>1671.1999511719</ele>
        <time>2019-02-06T15:06:41.000Z</time>
      </trkpt>
      <trkpt lat="45.92842" lon="6.50378">
        <ele>1670</ele>
        <time>2019-02-06T15:06:42.000Z</time>
      </trkpt>
      <trkpt lat="45.92841" lon="6.50371">
        <ele>1668.4000244141</ele>
        <time>2019-02-06T15:06:43.000Z</time>
      </trkpt>
      <trkpt lat="45.92838" lon="6.50365">
        <ele>1666.4000244141</ele>
        <time>2019-02-06T15:06:44.000Z</time>
      </trkpt>
      <trkpt lat="45.92835" lon="6.50361">
        <ele>1664.8000488281</ele>
        <time>2019-02-06T15:06:45.000Z</time>
      </trkpt>
      <trkpt lat="45.92831" lon="6.50356">
        <ele>1663.1999511719</ele>
        <time>2019-02-06T15:06:46.000Z</time>
      </trkpt>
      <trkpt lat="45.92828" lon="6.50352">
        <ele>1661.8000488281</ele>
        <time>2019-02-06T15:06:47.000Z</time>
      </trkpt>
      <trkpt lat="45.92825" lon="6.50348">
        <ele>1660.1999511719</ele>
        <time>2019-02-06T15:06:48.000Z</time>
      </trkpt>
      <trkpt lat="45.92822" lon="6.50344">
        <ele>1658.5999755859</ele>
        <time>2019-02-06T15:06:49.000Z</time>
      </trkpt>
      <trkpt lat="45.9282" lon="6.50339">
        <ele>1657</ele>
        <time>2019-02-06T15:06:50.000Z</time>
      </trkpt>
      <trkpt lat="45.92817" lon="6.50332">
        <ele>1655.8000488281</ele>
        <time>2019-02-06T15:06:51.000Z</time>
      </trkpt>
      <trkpt lat="45.92814" lon="6.50327">
        <ele>1654.5999755859</ele>
        <time>2019-02-06T15:06:52.000Z</time>
      </trkpt>
      <trkpt lat="45.92811" lon="6.50324">
        <ele>1653.4000244141</ele>
        <time>2019-02-06T15:06:53.000Z</time>
      </trkpt>
      <trkpt lat="45.9281" lon="6.50323">
        <ele>1652.1999511719</ele>
        <time>2019-02-06T15:06:54.000Z</time>
      </trkpt>
      <trkpt lat="45.9281" lon="6.50323">
        <ele>1651</ele>
        <time>2019-02-06T15:06:55.000Z</time>
      </trkpt>
      <trkpt lat="45.9281" lon="6.50323">
        <ele>1649.8000488281</ele>
        <time>2019-02-06T15:06:56.000Z</time>
      </trkpt>
      <trkpt lat="45.9281" lon="6.50323">
        <ele>1648.4000244141</ele>
        <time>2019-02-06T15:06:57.000Z</time>
      </trkpt>
      <trkpt lat="45.9281" lon="6.50322">
        <ele>1647</ele>
        <time>2019-02-06T15:06:59.000Z</time>
      </trkpt>
      <trkpt lat="45.92808" lon="6.50317">
        <ele>1645.8000488281</ele>
        <time>2019-02-06T15:07:02.000Z</time>
      </trkpt>
      <trkpt lat="45.92799" lon="6.50307">
        <ele>1644.5999755859</ele>
        <time>2019-02-06T15:07:08.000Z</time>
      </trkpt>
      <trkpt lat="45.9279" lon="6.50289">
        <ele>1643.5999755859</ele>
        <time>2019-02-06T15:07:12.000Z</time>
      </trkpt>
      <trkpt lat="45.92786" lon="6.50283">
        <ele>1643</ele>
        <time>2019-02-06T15:07:13.000Z</time>
      </trkpt>
      <trkpt lat="45.92782" lon="6.50275">
        <ele>1641.1999511719</ele>
        <time>2019-02-06T15:07:15.000Z</time>
      </trkpt>
      <trkpt lat="45.92781" lon="6.50272">
        <ele>1640</ele>
        <time>2019-02-06T15:07:16.000Z</time>
      </trkpt>
      <trkpt lat="45.9278" lon="6.50269">
        <ele>1638.8000488281</ele>
        <time>2019-02-06T15:07:17.000Z</time>
      </trkpt>
      <trkpt lat="45.9278" lon="6.50266">
        <ele>1637.8000488281</ele>
        <time>2019-02-06T15:07:18.000Z</time>
      </trkpt>
      <trkpt lat="45.92779" lon="6.50258">
        <ele>1636</ele>
        <time>2019-02-06T15:07:20.000Z</time>
      </trkpt>
      <trkpt lat="45.92779" lon="6.50255">
        <ele>1635.5999755859</ele>
        <time>2019-02-06T15:07:21.000Z</time>
      </trkpt>
      <trkpt lat="45.92778" lon="6.50249">
        <ele>1634.8000488281</ele>
        <time>2019-02-06T15:07:23.000Z</time>
      </trkpt>
      <trkpt lat="45.92775" lon="6.50242">
        <ele>1633.1999511719</ele>
        <time>2019-02-06T15:07:25.000Z</time>
      </trkpt>
      <trkpt lat="45.9277" lon="6.50236">
        <ele>1632</ele>
        <time>2019-02-06T15:07:27.000Z</time>
      </trkpt>
      <trkpt lat="45.92764" lon="6.50227">
        <ele>1631</ele>
        <time>2019-02-06T15:07:30.000Z</time>
      </trkpt>
      <trkpt lat="45.92762" lon="6.50224">
        <ele>1630.8000488281</ele>
        <time>2019-02-06T15:07:31.000Z</time>
      </trkpt>
      <trkpt lat="45.92755" lon="6.50215">
        <ele>1629.8000488281</ele>
        <time>2019-02-06T15:07:34.000Z</time>
      </trkpt>
      <trkpt lat="45.92752" lon="6.50212">
        <ele>1629.1999511719</ele>
        <time>2019-02-06T15:07:35.000Z</time>
      </trkpt>
      <trkpt lat="45.92747" lon="6.50206">
        <ele>1628.5999755859</ele>
        <time>2019-02-06T15:07:37.000Z</time>
      </trkpt>
      <trkpt lat="45.92741" lon="6.50201">
        <ele>1627.8000488281</ele>
        <time>2019-02-06T15:07:39.000Z</time>
      </trkpt>
      <trkpt lat="45.92739" lon="6.50199">
        <ele>1627.4000244141</ele>
        <time>2019-02-06T15:07:40.000Z</time>
      </trkpt>
      <trkpt lat="45.92738" lon="6.50198">
        <ele>1626.1999511719</ele>
        <time>2019-02-06T15:07:43.000Z</time>
      </trkpt>
      <trkpt lat="45.92738" lon="6.50198">
        <ele>1625.5999755859</ele>
        <time>2019-02-06T15:07:44.000Z</time>
      </trkpt>
      <trkpt lat="45.92738" lon="6.50198">
        <ele>1625</ele>
        <time>2019-02-06T15:07:46.000Z</time>
      </trkpt>
      <trkpt lat="45.92738" lon="6.50198">
        <ele>1624.8000488281</ele>
        <time>2019-02-06T15:07:58.000Z</time>
      </trkpt>
      <trkpt lat="45.92737" lon="6.50196">
        <ele>1624.8000488281</ele>
        <time>2019-02-06T15:08:03.000Z</time>
      </trkpt>
      <trkpt lat="45.92735" lon="6.50191">
        <ele>1624.8000488281</ele>
        <time>2019-02-06T15:08:05.000Z</time>
      </trkpt>
      <trkpt lat="45.92725" lon="6.50175">
        <ele>1624.5999755859</ele>
        <time>2019-02-06T15:08:09.000Z</time>
      </trkpt>
      <trkpt lat="45.92722" lon="6.5017">
        <ele>1624.1999511719</ele>
        <time>2019-02-06T15:08:10.000Z</time>
      </trkpt>
      <trkpt lat="45.92718" lon="6.50166">
        <ele>1623.8000488281</ele>
        <time>2019-02-06T15:08:11.000Z</time>
      </trkpt>
      <trkpt lat="45.92714" lon="6.50162">
        <ele>1623.1999511719</ele>
        <time>2019-02-06T15:08:12.000Z</time>
      </trkpt>
      <trkpt lat="45.9271" lon="6.50158">
        <ele>1622.5999755859</ele>
        <time>2019-02-06T15:08:13.000Z</time>
      </trkpt>
      <trkpt lat="45.92706" lon="6.50153">
        <ele>1621.1999511719</ele>
        <time>2019-02-06T15:08:14.000Z</time>
      </trkpt>
      <trkpt lat="45.92702" lon="6.50147">
        <ele>1619.4000244141</ele>
        <time>2019-02-06T15:08:16.000Z</time>
      </trkpt>
      <trkpt lat="45.92701" lon="6.50147">
        <ele>1617.8000488281</ele>
        <time>2019-02-06T15:08:18.000Z</time>
      </trkpt>
      <trkpt lat="45.927" lon="6.50148">
        <ele>1617</ele>
        <time>2019-02-06T15:08:20.000Z</time>
      </trkpt>
      <trkpt lat="45.927" lon="6.50148">
        <ele>1616.4000244141</ele>
        <time>2019-02-06T15:08:21.000Z</time>
      </trkpt>
      <trkpt lat="45.92699" lon="6.50147">
        <ele>1615.4000244141</ele>
        <time>2019-02-06T15:08:23.000Z</time>
      </trkpt>
      <trkpt lat="45.92698" lon="6.50147">
        <ele>1615.1999511719</ele>
        <time>2019-02-06T15:08:24.000Z</time>
      </trkpt>
      <trkpt lat="45.92695" lon="6.50146">
        <ele>1614.8000488281</ele>
        <time>2019-02-06T15:08:25.000Z</time>
      </trkpt>
      <trkpt lat="45.92691" lon="6.50139">
        <ele>1614</ele>
        <time>2019-02-06T15:08:27.000Z</time>
      </trkpt>
      <trkpt lat="45.9269" lon="6.50134">
        <ele>1613.8000488281</ele>
        <time>2019-02-06T15:08:28.000Z</time>
      </trkpt>
      <trkpt lat="45.92688" lon="6.50129">
        <ele>1613.4000244141</ele>
        <time>2019-02-06T15:08:29.000Z</time>
      </trkpt>
      <trkpt lat="45.92686" lon="6.50122">
        <ele>1612.8000488281</ele>
        <time>2019-02-06T15:08:30.000Z</time>
      </trkpt>
      <trkpt lat="45.92682" lon="6.50109">
        <ele>1611.1999511719</ele>
        <time>2019-02-06T15:08:32.000Z</time>
      </trkpt>
      <trkpt lat="45.92679" lon="6.50102">
        <ele>1610.5999755859</ele>
        <time>2019-02-06T15:08:33.000Z</time>
      </trkpt>
      <trkpt lat="45.92677" lon="6.50095">
        <ele>1610</ele>
        <time>2019-02-06T15:08:34.000Z</time>
      </trkpt>
      <trkpt lat="45.92676" lon="6.50089">
        <ele>1609.1999511719</ele>
        <time>2019-02-06T15:08:35.000Z</time>
      </trkpt>
      <trkpt lat="45.92675" lon="6.50082">
        <ele>1608</ele>
        <time>2019-02-06T15:08:36.000Z</time>
      </trkpt>
      <trkpt lat="45.92674" lon="6.50077">
        <ele>1606.5999755859</ele>
        <time>2019-02-06T15:08:37.000Z</time>
      </trkpt>
      <trkpt lat="45.92672" lon="6.50072">
        <ele>1604.4000244141</ele>
        <time>2019-02-06T15:08:38.000Z</time>
      </trkpt>
      <trkpt lat="45.92671" lon="6.50058">
        <ele>1603.1999511719</ele>
        <time>2019-02-06T15:08:40.000Z</time>
      </trkpt>
      <trkpt lat="45.92669" lon="6.50042">
        <ele>1601</ele>
        <time>2019-02-06T15:08:42.000Z</time>
      </trkpt>
      <trkpt lat="45.92668" lon="6.50032">
        <ele>1600</ele>
        <time>2019-02-06T15:08:43.000Z</time>
      </trkpt>
      <trkpt lat="45.92668" lon="6.50022">
        <ele>1598.5999755859</ele>
        <time>2019-02-06T15:08:44.000Z</time>
      </trkpt>
      <trkpt lat="45.92667" lon="6.50013">
        <ele>1597.4000244141</ele>
        <time>2019-02-06T15:08:45.000Z</time>
      </trkpt>
      <trkpt lat="45.92666" lon="6.50005">
        <ele>1596.4000244141</ele>
        <time>2019-02-06T15:08:46.000Z</time>
      </trkpt>
      <trkpt lat="45.92665" lon="6.49999">
        <ele>1595.1999511719</ele>
        <time>2019-02-06T15:08:47.000Z</time>
      </trkpt>
      <trkpt lat="45.92665" lon="6.49995">
        <ele>1594</ele>
        <time>2019-02-06T15:08:48.000Z</time>
      </trkpt>
      <trkpt lat="45.92664" lon="6.49994">
        <ele>1592.5999755859</ele>
        <time>2019-02-06T15:08:49.000Z</time>
      </trkpt>
      <trkpt lat="45.92664" lon="6.49994">
        <ele>1591.1999511719</ele>
        <time>2019-02-06T15:08:50.000Z</time>
      </trkpt>
      <trkpt lat="45.92664" lon="6.49994">
        <ele>1590</ele>
        <time>2019-02-06T15:08:51.000Z</time>
      </trkpt>
      <trkpt lat="45.92664" lon="6.49994">
        <ele>1588.5999755859</ele>
        <time>2019-02-06T15:08:53.000Z</time>
      </trkpt>
      <trkpt lat="45.92664" lon="6.49994">
        <ele>1587.5999755859</ele>
        <time>2019-02-06T15:08:55.000Z</time>
      </trkpt>
      <trkpt lat="45.92663" lon="6.4999">
        <ele>1587.1999511719</ele>
        <time>2019-02-06T15:08:57.000Z</time>
      </trkpt>
      <trkpt lat="45.92661" lon="6.49971">
        <ele>1587</ele>
        <time>2019-02-06T15:09:01.000Z</time>
      </trkpt>
      <trkpt lat="45.92661" lon="6.49965">
        <ele>1586.4000244141</ele>
        <time>2019-02-06T15:09:02.000Z</time>
      </trkpt>
      <trkpt lat="45.9266" lon="6.49952">
        <ele>1584.8000488281</ele>
        <time>2019-02-06T15:09:04.000Z</time>
      </trkpt>
      <trkpt lat="45.9266" lon="6.49938">
        <ele>1583.5999755859</ele>
        <time>2019-02-06T15:09:06.000Z</time>
      </trkpt>
      <trkpt lat="45.9266" lon="6.49931">
        <ele>1582.8000488281</ele>
        <time>2019-02-06T15:09:07.000Z</time>
      </trkpt>
      <trkpt lat="45.92661" lon="6.49924">
        <ele>1581.8000488281</ele>
        <time>2019-02-06T15:09:08.000Z</time>
      </trkpt>
      <trkpt lat="45.92662" lon="6.49908">
        <ele>1579.8000488281</ele>
        <time>2019-02-06T15:09:10.000Z</time>
      </trkpt>
      <trkpt lat="45.92663" lon="6.499">
        <ele>1578.8000488281</ele>
        <time>2019-02-06T15:09:11.000Z</time>
      </trkpt>
      <trkpt lat="45.92664" lon="6.49891">
        <ele>1577.8000488281</ele>
        <time>2019-02-06T15:09:12.000Z</time>
      </trkpt>
      <trkpt lat="45.92665" lon="6.49882">
        <ele>1576.5999755859</ele>
        <time>2019-02-06T15:09:13.000Z</time>
      </trkpt>
      <trkpt lat="45.92666" lon="6.49873">
        <ele>1575.1999511719</ele>
        <time>2019-02-06T15:09:14.000Z</time>
      </trkpt>
      <trkpt lat="45.92667" lon="6.49864">
        <ele>1573.8000488281</ele>
        <time>2019-02-06T15:09:15.000Z</time>
      </trkpt>
      <trkpt lat="45.92668" lon="6.49858">
        <ele>1572.4000244141</ele>
        <time>2019-02-06T15:09:16.000Z</time>
      </trkpt>
      <trkpt lat="45.92669" lon="6.49854">
        <ele>1571</ele>
        <time>2019-02-06T15:09:17.000Z</time>
      </trkpt>
      <trkpt lat="45.92669" lon="6.49853">
        <ele>1569.5999755859</ele>
        <time>2019-02-06T15:09:18.000Z</time>
      </trkpt>
      <trkpt lat="45.92669" lon="6.49853">
        <ele>1568.1999511719</ele>
        <time>2019-02-06T15:09:19.000Z</time>
      </trkpt>
      <trkpt lat="45.9267" lon="6.49852">
        <ele>1566.8000488281</ele>
        <time>2019-02-06T15:09:20.000Z</time>
      </trkpt>
      <trkpt lat="45.92671" lon="6.4985">
        <ele>1565.5999755859</ele>
        <time>2019-02-06T15:09:21.000Z</time>
      </trkpt>
      <trkpt lat="45.92673" lon="6.49846">
        <ele>1564.5999755859</ele>
        <time>2019-02-06T15:09:22.000Z</time>
      </trkpt>
      <trkpt lat="45.92675" lon="6.49834">
        <ele>1562.8000488281</ele>
        <time>2019-02-06T15:09:24.000Z</time>
      </trkpt>
      <trkpt lat="45.92674" lon="6.49828">
        <ele>1562.1999511719</ele>
        <time>2019-02-06T15:09:25.000Z</time>
      </trkpt>
      <trkpt lat="45.92673" lon="6.49822">
        <ele>1561</ele>
        <time>2019-02-06T15:09:26.000Z</time>
      </trkpt>
      <trkpt lat="45.92671" lon="6.49816">
        <ele>1560</ele>
        <time>2019-02-06T15:09:27.000Z</time>
      </trkpt>
      <trkpt lat="45.92669" lon="6.4981">
        <ele>1558.5999755859</ele>
        <time>2019-02-06T15:09:28.000Z</time>
      </trkpt>
      <trkpt lat="45.92668" lon="6.49804">
        <ele>1557.1999511719</ele>
        <time>2019-02-06T15:09:29.000Z</time>
      </trkpt>
      <trkpt lat="45.92666" lon="6.49798">
        <ele>1556</ele>
        <time>2019-02-06T15:09:30.000Z</time>
      </trkpt>
      <trkpt lat="45.92665" lon="6.49792">
        <ele>1555.4000244141</ele>
        <time>2019-02-06T15:09:31.000Z</time>
      </trkpt>
      <trkpt lat="45.92663" lon="6.49785">
        <ele>1554.8000488281</ele>
        <time>2019-02-06T15:09:32.000Z</time>
      </trkpt>
      <trkpt lat="45.92659" lon="6.49772">
        <ele>1553</ele>
        <time>2019-02-06T15:09:34.000Z</time>
      </trkpt>
      <trkpt lat="45.92658" lon="6.49766">
        <ele>1551.8000488281</ele>
        <time>2019-02-06T15:09:35.000Z</time>
      </trkpt>
      <trkpt lat="45.92657" lon="6.49763">
        <ele>1550.8000488281</ele>
        <time>2019-02-06T15:09:36.000Z</time>
      </trkpt>
      <trkpt lat="45.92655" lon="6.49758">
        <ele>1549.5999755859</ele>
        <time>2019-02-06T15:09:38.000Z</time>
      </trkpt>
      <trkpt lat="45.92654" lon="6.49757">
        <ele>1548.1999511719</ele>
        <time>2019-02-06T15:09:41.000Z</time>
      </trkpt>
      <trkpt lat="45.92654" lon="6.49757">
        <ele>1547.1999511719</ele>
        <time>2019-02-06T15:09:43.000Z</time>
      </trkpt>
      <trkpt lat="45.92653" lon="6.4975">
        <ele>1546.1999511719</ele>
        <time>2019-02-06T15:09:48.000Z</time>
      </trkpt>
      <trkpt lat="45.92644" lon="6.49725">
        <ele>1545.5999755859</ele>
        <time>2019-02-06T15:09:52.000Z</time>
      </trkpt>
      <trkpt lat="45.92641" lon="6.49716">
        <ele>1545</ele>
        <time>2019-02-06T15:09:53.000Z</time>
      </trkpt>
      <trkpt lat="45.92636" lon="6.49701">
        <ele>1543.5999755859</ele>
        <time>2019-02-06T15:09:55.000Z</time>
      </trkpt>
      <trkpt lat="45.92632" lon="6.49687">
        <ele>1541.5999755859</ele>
        <time>2019-02-06T15:09:57.000Z</time>
      </trkpt>
      <trkpt lat="45.9263" lon="6.4968">
        <ele>1540.5999755859</ele>
        <time>2019-02-06T15:09:58.000Z</time>
      </trkpt>
      <trkpt lat="45.92628" lon="6.49665">
        <ele>1539.1999511719</ele>
        <time>2019-02-06T15:10:00.000Z</time>
      </trkpt>
      <trkpt lat="45.92629" lon="6.49649">
        <ele>1538</ele>
        <time>2019-02-06T15:10:02.000Z</time>
      </trkpt>
      <trkpt lat="45.92631" lon="6.49634">
        <ele>1536.4000244141</ele>
        <time>2019-02-06T15:10:04.000Z</time>
      </trkpt>
      <trkpt lat="45.92636" lon="6.49621">
        <ele>1534.8000488281</ele>
        <time>2019-02-06T15:10:06.000Z</time>
      </trkpt>
      <trkpt lat="45.92641" lon="6.49606">
        <ele>1533</ele>
        <time>2019-02-06T15:10:08.000Z</time>
      </trkpt>
      <trkpt lat="45.92643" lon="6.49594">
        <ele>1532</ele>
        <time>2019-02-06T15:10:10.000Z</time>
      </trkpt>
      <trkpt lat="45.92643" lon="6.49588">
        <ele>1531.8000488281</ele>
        <time>2019-02-06T15:10:11.000Z</time>
      </trkpt>
      <trkpt lat="45.92644" lon="6.49583">
        <ele>1530.5999755859</ele>
        <time>2019-02-06T15:10:13.000Z</time>
      </trkpt>
      <trkpt lat="45.92644" lon="6.49583">
        <ele>1529.1999511719</ele>
        <time>2019-02-06T15:10:15.000Z</time>
      </trkpt>
      <trkpt lat="45.92645" lon="6.4958">
        <ele>1528.1999511719</ele>
        <time>2019-02-06T15:10:19.000Z</time>
      </trkpt>
      <trkpt lat="45.92646" lon="6.49576">
        <ele>1528.1999511719</ele>
        <time>2019-02-06T15:10:20.000Z</time>
      </trkpt>
      <trkpt lat="45.92649" lon="6.49566">
        <ele>1528</ele>
        <time>2019-02-06T15:10:22.000Z</time>
      </trkpt>
      <trkpt lat="45.92653" lon="6.49554">
        <ele>1527</ele>
        <time>2019-02-06T15:10:25.000Z</time>
      </trkpt>
      <trkpt lat="45.92655" lon="6.4955">
        <ele>1526.5999755859</ele>
        <time>2019-02-06T15:10:26.000Z</time>
      </trkpt>
      <trkpt lat="45.92657" lon="6.49543">
        <ele>1525.5999755859</ele>
        <time>2019-02-06T15:10:28.000Z</time>
      </trkpt>
      <trkpt lat="45.9266" lon="6.49535">
        <ele>1524.4000244141</ele>
        <time>2019-02-06T15:10:30.000Z</time>
      </trkpt>
      <trkpt lat="45.92663" lon="6.49529">
        <ele>1523</ele>
        <time>2019-02-06T15:10:32.000Z</time>
      </trkpt>
      <trkpt lat="45.92667" lon="6.49521">
        <ele>1521.8000488281</ele>
        <time>2019-02-06T15:10:34.000Z</time>
      </trkpt>
      <trkpt lat="45.92673" lon="6.49509">
        <ele>1520.5999755859</ele>
        <time>2019-02-06T15:10:36.000Z</time>
      </trkpt>
      <trkpt lat="45.92683" lon="6.49494">
        <ele>1518.1999511719</ele>
        <time>2019-02-06T15:10:38.000Z</time>
      </trkpt>
      <trkpt lat="45.92695" lon="6.49483">
        <ele>1516.5999755859</ele>
        <time>2019-02-06T15:10:40.000Z</time>
      </trkpt>
      <trkpt lat="45.92709" lon="6.49476">
        <ele>1514.5999755859</ele>
        <time>2019-02-06T15:10:42.000Z</time>
      </trkpt>
      <trkpt lat="45.92714" lon="6.49471">
        <ele>1513.5999755859</ele>
        <time>2019-02-06T15:10:43.000Z</time>
      </trkpt>
      <trkpt lat="45.92718" lon="6.49467">
        <ele>1512.4000244141</ele>
        <time>2019-02-06T15:10:44.000Z</time>
      </trkpt>
      <trkpt lat="45.92721" lon="6.49463">
        <ele>1511.4000244141</ele>
        <time>2019-02-06T15:10:45.000Z</time>
      </trkpt>
      <trkpt lat="45.92727" lon="6.49457">
        <ele>1510.4000244141</ele>
        <time>2019-02-06T15:10:47.000Z</time>
      </trkpt>
      <trkpt lat="45.92731" lon="6.49452">
        <ele>1509.8000488281</ele>
        <time>2019-02-06T15:10:50.000Z</time>
      </trkpt>
      <trkpt lat="45.92735" lon="6.49451">
        <ele>1510.1999511719</ele>
        <time>2019-02-06T15:10:56.000Z</time>
      </trkpt>
      <trkpt lat="45.92735" lon="6.49452">
        <ele>1510.1999511719</ele>
        <time>2019-02-06T15:11:00.000Z</time>
      </trkpt>
      <trkpt lat="45.92735" lon="6.49452">
        <ele>1510.4000244141</ele>
        <time>2019-02-06T15:11:10.000Z</time>
      </trkpt>
      <trkpt lat="45.92735" lon="6.49452">
        <ele>1511</ele>
        <time>2019-02-06T15:11:20.000Z</time>
      </trkpt>
      <trkpt lat="45.92735" lon="6.49452">
        <ele>1511.4000244141</ele>
        <time>2019-02-06T15:11:24.000Z</time>
      </trkpt>
      <trkpt lat="45.92735" lon="6.49454">
        <ele>1511.5999755859</ele>
        <time>2019-02-06T15:11:28.000Z</time>
      </trkpt>
      <trkpt lat="45.92735" lon="6.49455">
        <ele>1511.5999755859</ele>
        <time>2019-02-06T15:11:34.000Z</time>
      </trkpt>
      <trkpt lat="45.92733" lon="6.49459">
        <ele>1511.5999755859</ele>
        <time>2019-02-06T15:11:41.000Z</time>
      </trkpt>
      <trkpt lat="45.92733" lon="6.49459">
        <ele>1512</ele>
        <time>2019-02-06T15:11:47.000Z</time>
      </trkpt>
      <trkpt lat="45.92733" lon="6.49459">
        <ele>1512.4000244141</ele>
        <time>2019-02-06T15:11:51.000Z</time>
      </trkpt>
      <trkpt lat="45.92733" lon="6.49459">
        <ele>1512.5999755859</ele>
        <time>2019-02-06T15:11:55.000Z</time>
      </trkpt>
      <trkpt lat="45.92732" lon="6.49465">
        <ele>1513</ele>
        <time>2019-02-06T15:12:01.000Z</time>
      </trkpt>
      <trkpt lat="45.92733" lon="6.49465">
        <ele>1513.5999755859</ele>
        <time>2019-02-06T15:12:09.000Z</time>
      </trkpt>
      <trkpt lat="45.92733" lon="6.49465">
        <ele>1514</ele>
        <time>2019-02-06T15:12:11.000Z</time>
      </trkpt>
      <trkpt lat="45.92733" lon="6.49465">
        <ele>1514.5999755859</ele>
        <time>2019-02-06T15:12:19.000Z</time>
      </trkpt>
      <trkpt lat="45.92733" lon="6.49465">
        <ele>1514.5999755859</ele>
        <time>2019-02-06T15:12:20.000Z</time>
      </trkpt>
      <trkpt lat="45.92733" lon="6.49465">
        <ele>1515</ele>
        <time>2019-02-06T15:12:27.000Z</time>
      </trkpt>
      <trkpt lat="45.92733" lon="6.49465">
        <ele>1515.5999755859</ele>
        <time>2019-02-06T15:12:34.000Z</time>
      </trkpt>
      <trkpt lat="45.92734" lon="6.49465">
        <ele>1515.8000488281</ele>
        <time>2019-02-06T15:12:36.000Z</time>
      </trkpt>
      <trkpt lat="45.92739" lon="6.49462">
        <ele>1516.1999511719</ele>
        <time>2019-02-06T15:12:40.000Z</time>
      </trkpt>
      <trkpt lat="45.92739" lon="6.49462">
        <ele>1516.5999755859</ele>
        <time>2019-02-06T15:12:48.000Z</time>
      </trkpt>
      <trkpt lat="45.92739" lon="6.49462">
        <ele>1516.5999755859</ele>
        <time>2019-02-06T15:12:55.000Z</time>
      </trkpt>
      <trkpt lat="45.92739" lon="6.49462">
        <ele>1516.8000488281</ele>
        <time>2019-02-06T15:12:56.000Z</time>
      </trkpt>
      <trkpt lat="45.92736" lon="6.49476">
        <ele>1517.1999511719</ele>
        <time>2019-02-06T15:13:01.000Z</time>
      </trkpt>
      <trkpt lat="45.92742" lon="6.49483">
        <ele>1516.8000488281</ele>
        <time>2019-02-06T15:13:07.000Z</time>
      </trkpt>
      <trkpt lat="45.92743" lon="6.49483">
        <ele>1516.5999755859</ele>
        <time>2019-02-06T15:13:12.000Z</time>
      </trkpt>
      <trkpt lat="45.92743" lon="6.49483">
        <ele>1516.8000488281</ele>
        <time>2019-02-06T15:13:18.000Z</time>
      </trkpt>
      <trkpt lat="45.92743" lon="6.49483">
        <ele>1517.4000244141</ele>
        <time>2019-02-06T15:13:24.000Z</time>
      </trkpt>
      <trkpt lat="45.92743" lon="6.49483">
        <ele>1517.5999755859</ele>
        <time>2019-02-06T15:13:31.000Z</time>
      </trkpt>
      <trkpt lat="45.92743" lon="6.49483">
        <ele>1518</ele>
        <time>2019-02-06T15:13:35.000Z</time>
      </trkpt>
      <trkpt lat="45.92743" lon="6.49483">
        <ele>1518</ele>
        <time>2019-02-06T15:13:38.000Z</time>
      </trkpt>
      <trkpt lat="45.92746" lon="6.49484">
        <ele>1518</ele>
        <time>2019-02-06T15:13:43.000Z</time>
      </trkpt>
      <trkpt lat="45.92751" lon="6.49485">
        <ele>1518</ele>
        <time>2019-02-06T15:13:48.000Z</time>
      </trkpt>
      <trkpt lat="45.92754" lon="6.49487">
        <ele>1518</ele>
        <time>2019-02-06T15:13:53.000Z</time>
      </trkpt>
      <trkpt lat="45.92754" lon="6.49487">
        <ele>1518.1999511719</ele>
        <time>2019-02-06T15:13:59.000Z</time>
      </trkpt>
      <trkpt lat="45.92754" lon="6.49487">
        <ele>1518.4000244141</ele>
        <time>2019-02-06T15:14:05.000Z</time>
      </trkpt>
      <trkpt lat="45.92756" lon="6.49484">
        <ele>1519</ele>
        <time>2019-02-06T15:14:13.000Z</time>
      </trkpt>
      <trkpt lat="45.92757" lon="6.49484">
        <ele>1519</ele>
        <time>2019-02-06T15:14:15.000Z</time>
      </trkpt>
      <trkpt lat="45.92758" lon="6.49483">
        <ele>1519</ele>
        <time>2019-02-06T15:14:17.000Z</time>
      </trkpt>
      <trkpt lat="45.92758" lon="6.49483">
        <ele>1518.5999755859</ele>
        <time>2019-02-06T15:14:23.000Z</time>
      </trkpt>
      <trkpt lat="45.92758" lon="6.49483">
        <ele>1518.4000244141</ele>
        <time>2019-02-06T15:14:29.000Z</time>
      </trkpt>
      <trkpt lat="45.92758" lon="6.49483">
        <ele>1519</ele>
        <time>2019-02-06T15:14:35.000Z</time>
      </trkpt>
      <trkpt lat="45.92761" lon="6.4948">
        <ele>1519.5999755859</ele>
        <time>2019-02-06T15:14:40.000Z</time>
      </trkpt>
      <trkpt lat="45.9276" lon="6.49471">
        <ele>1519.4000244141</ele>
        <time>2019-02-06T15:14:46.000Z</time>
      </trkpt>
      <trkpt lat="45.92759" lon="6.49466">
        <ele>1519</ele>
        <time>2019-02-06T15:14:50.000Z</time>
      </trkpt>
      <trkpt lat="45.92759" lon="6.49464">
        <ele>1519.1999511719</ele>
        <time>2019-02-06T15:14:55.000Z</time>
      </trkpt>
      <trkpt lat="45.92758" lon="6.49463">
        <ele>1520</ele>
        <time>2019-02-06T15:14:58.000Z</time>
      </trkpt>
      <trkpt lat="45.92758" lon="6.49462">
        <ele>1520.1999511719</ele>
        <time>2019-02-06T15:15:00.000Z</time>
      </trkpt>
      <trkpt lat="45.92756" lon="6.49459">
        <ele>1520.5999755859</ele>
        <time>2019-02-06T15:15:06.000Z</time>
      </trkpt>
      <trkpt lat="45.92755" lon="6.49458">
        <ele>1520.5999755859</ele>
        <time>2019-02-06T15:15:10.000Z</time>
      </trkpt>
      <trkpt lat="45.92751" lon="6.49452">
        <ele>1520.8000488281</ele>
        <time>2019-02-06T15:15:17.000Z</time>
      </trkpt>
      <trkpt lat="45.92747" lon="6.49441">
        <ele>1520.5999755859</ele>
        <time>2019-02-06T15:15:24.000Z</time>
      </trkpt>
      <trkpt lat="45.92741" lon="6.49427">
        <ele>1520.4000244141</ele>
        <time>2019-02-06T15:15:30.000Z</time>
      </trkpt>
      <trkpt lat="45.92738" lon="6.49419">
        <ele>1520</ele>
        <time>2019-02-06T15:15:36.000Z</time>
      </trkpt>
      <trkpt lat="45.92736" lon="6.49413">
        <ele>1520</ele>
        <time>2019-02-06T15:15:41.000Z</time>
      </trkpt>
      <trkpt lat="45.92734" lon="6.49408">
        <ele>1519.8000488281</ele>
        <time>2019-02-06T15:15:45.000Z</time>
      </trkpt>
      <trkpt lat="45.92732" lon="6.49401">
        <ele>1519.8000488281</ele>
        <time>2019-02-06T15:15:49.000Z</time>
      </trkpt>
      <trkpt lat="45.92728" lon="6.49389">
        <ele>1519.5999755859</ele>
        <time>2019-02-06T15:15:55.000Z</time>
      </trkpt>
      <trkpt lat="45.92723" lon="6.49378">
        <ele>1519.1999511719</ele>
        <time>2019-02-06T15:16:02.000Z</time>
      </trkpt>
      <trkpt lat="45.92722" lon="6.49377">
        <ele>1519</ele>
        <time>2019-02-06T15:16:06.000Z</time>
      </trkpt>
      <trkpt lat="45.9272" lon="6.49375">
        <ele>1518.8000488281</ele>
        <time>2019-02-06T15:16:08.000Z</time>
      </trkpt>
      <trkpt lat="45.92718" lon="6.49368">
        <ele>1519.1999511719</ele>
        <time>2019-02-06T15:16:11.000Z</time>
      </trkpt>
      <trkpt lat="45.92716" lon="6.49365">
        <ele>1519.1999511719</ele>
        <time>2019-02-06T15:16:12.000Z</time>
      </trkpt>
      <trkpt lat="45.92711" lon="6.49349">
        <ele>1519.1999511719</ele>
        <time>2019-02-06T15:16:15.000Z</time>
      </trkpt>
      <trkpt lat="45.92707" lon="6.49324">
        <ele>1517.8000488281</ele>
        <time>2019-02-06T15:16:19.000Z</time>
      </trkpt>
      <trkpt lat="45.92705" lon="6.49313">
        <ele>1517</ele>
        <time>2019-02-06T15:16:21.000Z</time>
      </trkpt>
      <trkpt lat="45.92704" lon="6.49309">
        <ele>1516.5999755859</ele>
        <time>2019-02-06T15:16:22.000Z</time>
      </trkpt>
      <trkpt lat="45.92697" lon="6.49295">
        <ele>1515.4000244141</ele>
        <time>2019-02-06T15:16:25.000Z</time>
      </trkpt>
      <trkpt lat="45.92694" lon="6.4929">
        <ele>1515.1999511719</ele>
        <time>2019-02-06T15:16:26.000Z</time>
      </trkpt>
      <trkpt lat="45.92684" lon="6.49279">
        <ele>1514.4000244141</ele>
        <time>2019-02-06T15:16:29.000Z</time>
      </trkpt>
      <trkpt lat="45.92678" lon="6.49274">
        <ele>1513.5999755859</ele>
        <time>2019-02-06T15:16:31.000Z</time>
      </trkpt>
      <trkpt lat="45.92675" lon="6.49273">
        <ele>1513.1999511719</ele>
        <time>2019-02-06T15:16:32.000Z</time>
      </trkpt>
      <trkpt lat="45.92671" lon="6.4927">
        <ele>1512.4000244141</ele>
        <time>2019-02-06T15:16:35.000Z</time>
      </trkpt>
      <trkpt lat="45.92671" lon="6.4927">
        <ele>1512.1999511719</ele>
        <time>2019-02-06T15:16:36.000Z</time>
      </trkpt>
      <trkpt lat="45.92669" lon="6.4927">
        <ele>1512</ele>
        <time>2019-02-06T15:16:41.000Z</time>
      </trkpt>
      <trkpt lat="45.92666" lon="6.49269">
        <ele>1512.1999511719</ele>
        <time>2019-02-06T15:16:46.000Z</time>
      </trkpt>
      <trkpt lat="45.92665" lon="6.49268">
        <ele>1512.5999755859</ele>
        <time>2019-02-06T15:16:54.000Z</time>
      </trkpt>
      <trkpt lat="45.92662" lon="6.49267">
        <ele>1512.5999755859</ele>
        <time>2019-02-06T15:17:00.000Z</time>
      </trkpt>
      <trkpt lat="45.92662" lon="6.49267">
        <ele>1513.1999511719</ele>
        <time>2019-02-06T15:17:02.000Z</time>
      </trkpt>
      <trkpt lat="45.92661" lon="6.49266">
        <ele>1513.4000244141</ele>
        <time>2019-02-06T15:17:06.000Z</time>
      </trkpt>
      <trkpt lat="45.92659" lon="6.49265">
        <ele>1513</ele>
        <time>2019-02-06T15:17:14.000Z</time>
      </trkpt>
      <trkpt lat="45.92659" lon="6.49264">
        <ele>1513.8000488281</ele>
        <time>2019-02-06T15:17:21.000Z</time>
      </trkpt>
      <trkpt lat="45.92659" lon="6.49264">
        <ele>1512.1999511719</ele>
        <time>2019-02-06T15:17:27.000Z</time>
      </trkpt>
      <trkpt lat="45.92659" lon="6.49264">
        <ele>1513.1999511719</ele>
        <time>2019-02-06T15:17:30.000Z</time>
      </trkpt>
      <trkpt lat="45.92659" lon="6.49264">
        <ele>1514.4000244141</ele>
        <time>2019-02-06T15:17:32.000Z</time>
      </trkpt>
      <trkpt lat="45.92658" lon="6.49265">
        <ele>1513.4000244141</ele>
        <time>2019-02-06T15:17:40.000Z</time>
      </trkpt>
      <trkpt lat="45.92654" lon="6.49263">
        <ele>1513.8000488281</ele>
        <time>2019-02-06T15:17:45.000Z</time>
      </trkpt>
      <trkpt lat="45.9265" lon="6.49263">
        <ele>1513.4000244141</ele>
        <time>2019-02-06T15:17:51.000Z</time>
      </trkpt>
      <trkpt lat="45.92646" lon="6.49261">
        <ele>1514.1999511719</ele>
        <time>2019-02-06T15:17:56.000Z</time>
      </trkpt>
      <trkpt lat="45.92639" lon="6.49258">
        <ele>1514.1999511719</ele>
        <time>2019-02-06T15:18:02.000Z</time>
      </trkpt>
      <trkpt lat="45.92637" lon="6.49256">
        <ele>1514.8000488281</ele>
        <time>2019-02-06T15:18:06.000Z</time>
      </trkpt>
      <trkpt lat="45.92635" lon="6.49254">
        <ele>1514.8000488281</ele>
        <time>2019-02-06T15:18:08.000Z</time>
      </trkpt>
      <trkpt lat="45.9263" lon="6.49251">
        <ele>1513.8000488281</ele>
        <time>2019-02-06T15:18:14.000Z</time>
      </trkpt>
      <trkpt lat="45.92625" lon="6.49243">
        <ele>1514.8000488281</ele>
        <time>2019-02-06T15:18:20.000Z</time>
      </trkpt>
      <trkpt lat="45.92623" lon="6.49242">
        <ele>1515.4000244141</ele>
        <time>2019-02-06T15:18:25.000Z</time>
      </trkpt>
      <trkpt lat="45.92622" lon="6.49241">
        <ele>1515.5999755859</ele>
        <time>2019-02-06T15:18:27.000Z</time>
      </trkpt>
      <trkpt lat="45.92622" lon="6.49241">
        <ele>1515.5999755859</ele>
        <time>2019-02-06T15:18:29.000Z</time>
      </trkpt>
      <trkpt lat="45.9262" lon="6.49241">
        <ele>1515.5999755859</ele>
        <time>2019-02-06T15:18:30.000Z</time>
      </trkpt>
      <trkpt lat="45.92618" lon="6.49241">
        <ele>1516.8000488281</ele>
        <time>2019-02-06T15:18:35.000Z</time>
      </trkpt>
      <trkpt lat="45.92617" lon="6.49242">
        <ele>1518.4000244141</ele>
        <time>2019-02-06T15:18:39.000Z</time>
      </trkpt>
      <trkpt lat="45.92616" lon="6.49242">
        <ele>1518.4000244141</ele>
        <time>2019-02-06T15:18:41.000Z</time>
      </trkpt>
      <trkpt lat="45.92613" lon="6.4924">
        <ele>1518.4000244141</ele>
        <time>2019-02-06T15:18:47.000Z</time>
      </trkpt>
      <trkpt lat="45.9261" lon="6.49239">
        <ele>1518.8000488281</ele>
        <time>2019-02-06T15:18:53.000Z</time>
      </trkpt>
      <trkpt lat="45.92608" lon="6.49237">
        <ele>1519.4000244141</ele>
        <time>2019-02-06T15:18:56.000Z</time>
      </trkpt>
      <trkpt lat="45.92606" lon="6.49237">
        <ele>1519.8000488281</ele>
        <time>2019-02-06T15:18:58.000Z</time>
      </trkpt>
      <trkpt lat="45.92603" lon="6.49236">
        <ele>1520.4000244141</ele>
        <time>2019-02-06T15:19:03.000Z</time>
      </trkpt>
      <trkpt lat="45.92601" lon="6.49235">
        <ele>1519.5999755859</ele>
        <time>2019-02-06T15:19:11.000Z</time>
      </trkpt>
      <trkpt lat="45.92601" lon="6.49235">
        <ele>1520.4000244141</ele>
        <time>2019-02-06T15:19:20.000Z</time>
      </trkpt>
      <trkpt lat="45.92601" lon="6.49235">
        <ele>1519.4000244141</ele>
        <time>2019-02-06T15:19:29.000Z</time>
      </trkpt>
      <trkpt lat="45.92601" lon="6.49235">
        <ele>1519.1999511719</ele>
        <time>2019-02-06T15:19:30.000Z</time>
      </trkpt>
      <trkpt lat="45.92601" lon="6.49235">
        <ele>1520.5999755859</ele>
        <time>2019-02-06T15:19:37.000Z</time>
      </trkpt>
      <trkpt lat="45.92601" lon="6.49235">
        <ele>1521.1999511719</ele>
        <time>2019-02-06T15:19:42.000Z</time>
      </trkpt>
      <trkpt lat="45.92601" lon="6.49235">
        <ele>1520.4000244141</ele>
        <time>2019-02-06T15:19:51.000Z</time>
      </trkpt>
      <trkpt lat="45.92601" lon="6.49235">
        <ele>1520.4000244141</ele>
        <time>2019-02-06T15:20:03.000Z</time>
      </trkpt>
      <trkpt lat="45.92601" lon="6.49235">
        <ele>1520.4000244141</ele>
        <time>2019-02-06T15:20:19.000Z</time>
      </trkpt>
      <trkpt lat="45.92601" lon="6.49235">
        <ele>1520.1999511719</ele>
        <time>2019-02-06T15:20:30.000Z</time>
      </trkpt>
      <trkpt lat="45.92601" lon="6.49235">
        <ele>1519.4000244141</ele>
        <time>2019-02-06T15:20:32.000Z</time>
      </trkpt>
      <trkpt lat="45.92601" lon="6.49235">
        <ele>1521</ele>
        <time>2019-02-06T15:20:36.000Z</time>
      </trkpt>
      <trkpt lat="45.92601" lon="6.49235">
        <ele>1520.4000244141</ele>
        <time>2019-02-06T15:20:42.000Z</time>
      </trkpt>
      <trkpt lat="45.92601" lon="6.49235">
        <ele>1520.1999511719</ele>
        <time>2019-02-06T15:20:54.000Z</time>
      </trkpt>
      <trkpt lat="45.92598" lon="6.49233">
        <ele>1520.4000244141</ele>
        <time>2019-02-06T15:21:07.000Z</time>
      </trkpt>
      <trkpt lat="45.92589" lon="6.49228">
        <ele>1520</ele>
        <time>2019-02-06T15:21:11.000Z</time>
      </trkpt>
      <trkpt lat="45.92588" lon="6.49227">
        <ele>1519.8000488281</ele>
        <time>2019-02-06T15:21:12.000Z</time>
      </trkpt>
      <trkpt lat="45.92585" lon="6.49223">
        <ele>1519.8000488281</ele>
        <time>2019-02-06T15:21:17.000Z</time>
      </trkpt>
      <trkpt lat="45.92583" lon="6.49222">
        <ele>1520</ele>
        <time>2019-02-06T15:21:18.000Z</time>
      </trkpt>
      <trkpt lat="45.92575" lon="6.49221">
        <ele>1520</ele>
        <time>2019-02-06T15:21:22.000Z</time>
      </trkpt>
      <trkpt lat="45.9257" lon="6.49219">
        <ele>1519.5999755859</ele>
        <time>2019-02-06T15:21:27.000Z</time>
      </trkpt>
      <trkpt lat="45.92566" lon="6.49218">
        <ele>1520.4000244141</ele>
        <time>2019-02-06T15:21:33.000Z</time>
      </trkpt>
      <trkpt lat="45.92561" lon="6.49218">
        <ele>1520.4000244141</ele>
        <time>2019-02-06T15:21:39.000Z</time>
      </trkpt>
      <trkpt lat="45.92557" lon="6.49219">
        <ele>1520.4000244141</ele>
        <time>2019-02-06T15:21:45.000Z</time>
      </trkpt>
      <trkpt lat="45.92552" lon="6.49218">
        <ele>1521</ele>
        <time>2019-02-06T15:21:51.000Z</time>
      </trkpt>
      <trkpt lat="45.92551" lon="6.49217">
        <ele>1521</ele>
        <time>2019-02-06T15:21:52.000Z</time>
      </trkpt>
      <trkpt lat="45.92548" lon="6.49216">
        <ele>1521</ele>
        <time>2019-02-06T15:21:56.000Z</time>
      </trkpt>
      <trkpt lat="45.92544" lon="6.49214">
        <ele>1521.5999755859</ele>
        <time>2019-02-06T15:22:03.000Z</time>
      </trkpt>
      <trkpt lat="45.92539" lon="6.49214">
        <ele>1521.8000488281</ele>
        <time>2019-02-06T15:22:11.000Z</time>
      </trkpt>
      <trkpt lat="45.92538" lon="6.49214">
        <ele>1522</ele>
        <time>2019-02-06T15:22:13.000Z</time>
      </trkpt>
      <trkpt lat="45.92536" lon="6.49213">
        <ele>1522.5999755859</ele>
        <time>2019-02-06T15:22:18.000Z</time>
      </trkpt>
      <trkpt lat="45.92532" lon="6.49211">
        <ele>1522.8000488281</ele>
        <time>2019-02-06T15:22:24.000Z</time>
      </trkpt>
      <trkpt lat="45.9253" lon="6.4921">
        <ele>1523</ele>
        <time>2019-02-06T15:22:29.000Z</time>
      </trkpt>
      <trkpt lat="45.9253" lon="6.49208">
        <ele>1523.1999511719</ele>
        <time>2019-02-06T15:22:30.000Z</time>
      </trkpt>
      <trkpt lat="45.92529" lon="6.49206">
        <ele>1523.1999511719</ele>
        <time>2019-02-06T15:22:34.000Z</time>
      </trkpt>
      <trkpt lat="45.92527" lon="6.49206">
        <ele>1523.4000244141</ele>
        <time>2019-02-06T15:22:40.000Z</time>
      </trkpt>
      <trkpt lat="45.92523" lon="6.49198">
        <ele>1523.4000244141</ele>
        <time>2019-02-06T15:22:45.000Z</time>
      </trkpt>
      <trkpt lat="45.92518" lon="6.49181">
        <ele>1523.5999755859</ele>
        <time>2019-02-06T15:22:49.000Z</time>
      </trkpt>
      <trkpt lat="45.92516" lon="6.49176">
        <ele>1523.5999755859</ele>
        <time>2019-02-06T15:22:50.000Z</time>
      </trkpt>
      <trkpt lat="45.92508" lon="6.49159">
        <ele>1523</ele>
        <time>2019-02-06T15:22:53.000Z</time>
      </trkpt>
      <trkpt lat="45.92502" lon="6.49148">
        <ele>1522</ele>
        <time>2019-02-06T15:22:55.000Z</time>
      </trkpt>
      <trkpt lat="45.92498" lon="6.49143">
        <ele>1521.4000244141</ele>
        <time>2019-02-06T15:22:56.000Z</time>
      </trkpt>
      <trkpt lat="45.92494" lon="6.49138">
        <ele>1521.1999511719</ele>
        <time>2019-02-06T15:22:57.000Z</time>
      </trkpt>
      <trkpt lat="45.9249" lon="6.49133">
        <ele>1520.5999755859</ele>
        <time>2019-02-06T15:22:58.000Z</time>
      </trkpt>
      <trkpt lat="45.92485" lon="6.49125">
        <ele>1519.1999511719</ele>
        <time>2019-02-06T15:23:00.000Z</time>
      </trkpt>
      <trkpt lat="45.92484" lon="6.49123">
        <ele>1518.8000488281</ele>
        <time>2019-02-06T15:23:01.000Z</time>
      </trkpt>
      <trkpt lat="45.92483" lon="6.49121">
        <ele>1518.1999511719</ele>
        <time>2019-02-06T15:23:03.000Z</time>
      </trkpt>
      <trkpt lat="45.92483" lon="6.49121">
        <ele>1518</ele>
        <time>2019-02-06T15:23:05.000Z</time>
      </trkpt>
      <trkpt lat="45.92482" lon="6.4912">
        <ele>1518</ele>
        <time>2019-02-06T15:23:12.000Z</time>
      </trkpt>
      <trkpt lat="45.92477" lon="6.49114">
        <ele>1518.4000244141</ele>
        <time>2019-02-06T15:23:17.000Z</time>
      </trkpt>
      <trkpt lat="45.92472" lon="6.49106">
        <ele>1518.5999755859</ele>
        <time>2019-02-06T15:23:23.000Z</time>
      </trkpt>
      <trkpt lat="45.92464" lon="6.49098">
        <ele>1518</ele>
        <time>2019-02-06T15:23:30.000Z</time>
      </trkpt>
      <trkpt lat="45.92463" lon="6.49097">
        <ele>1518</ele>
        <time>2019-02-06T15:23:31.000Z</time>
      </trkpt>
      <trkpt lat="45.92459" lon="6.49095">
        <ele>1517.8000488281</ele>
        <time>2019-02-06T15:23:35.000Z</time>
      </trkpt>
      <trkpt lat="45.92449" lon="6.49092">
        <ele>1517.5999755859</ele>
        <time>2019-02-06T15:23:39.000Z</time>
      </trkpt>
      <trkpt lat="45.92434" lon="6.49088">
        <ele>1517.1999511719</ele>
        <time>2019-02-06T15:23:43.000Z</time>
      </trkpt>
      <trkpt lat="45.92429" lon="6.49087">
        <ele>1517</ele>
        <time>2019-02-06T15:23:44.000Z</time>
      </trkpt>
      <trkpt lat="45.9242" lon="6.49083">
        <ele>1516.1999511719</ele>
        <time>2019-02-06T15:23:46.000Z</time>
      </trkpt>
      <trkpt lat="45.92405" lon="6.49078">
        <ele>1515</ele>
        <time>2019-02-06T15:23:49.000Z</time>
      </trkpt>
      <trkpt lat="45.924" lon="6.49076">
        <ele>1514.5999755859</ele>
        <time>2019-02-06T15:23:50.000Z</time>
      </trkpt>
      <trkpt lat="45.92392" lon="6.49073">
        <ele>1513.4000244141</ele>
        <time>2019-02-06T15:23:52.000Z</time>
      </trkpt>
      <trkpt lat="45.92389" lon="6.49071">
        <ele>1512.1999511719</ele>
        <time>2019-02-06T15:23:53.000Z</time>
      </trkpt>
      <trkpt lat="45.9238" lon="6.49068">
        <ele>1511.4000244141</ele>
        <time>2019-02-06T15:23:55.000Z</time>
      </trkpt>
      <trkpt lat="45.92377" lon="6.49064">
        <ele>1511</ele>
        <time>2019-02-06T15:23:56.000Z</time>
      </trkpt>
      <trkpt lat="45.92368" lon="6.49056">
        <ele>1510</ele>
        <time>2019-02-06T15:23:58.000Z</time>
      </trkpt>
      <trkpt lat="45.92357" lon="6.49049">
        <ele>1508.8000488281</ele>
        <time>2019-02-06T15:24:00.000Z</time>
      </trkpt>
      <trkpt lat="45.92349" lon="6.49045">
        <ele>1507.5999755859</ele>
        <time>2019-02-06T15:24:02.000Z</time>
      </trkpt>
      <trkpt lat="45.92345" lon="6.49042">
        <ele>1506.8000488281</ele>
        <time>2019-02-06T15:24:03.000Z</time>
      </trkpt>
      <trkpt lat="45.92342" lon="6.49039">
        <ele>1506.1999511719</ele>
        <time>2019-02-06T15:24:04.000Z</time>
      </trkpt>
      <trkpt lat="45.92335" lon="6.49036">
        <ele>1504.5999755859</ele>
        <time>2019-02-06T15:24:06.000Z</time>
      </trkpt>
      <trkpt lat="45.92327" lon="6.49032">
        <ele>1503.5999755859</ele>
        <time>2019-02-06T15:24:08.000Z</time>
      </trkpt>
      <trkpt lat="45.92312" lon="6.49016">
        <ele>1502.5999755859</ele>
        <time>2019-02-06T15:24:11.000Z</time>
      </trkpt>
      <trkpt lat="45.92307" lon="6.4901">
        <ele>1502.1999511719</ele>
        <time>2019-02-06T15:24:12.000Z</time>
      </trkpt>
      <trkpt lat="45.92297" lon="6.48999">
        <ele>1500</ele>
        <time>2019-02-06T15:24:14.000Z</time>
      </trkpt>
      <trkpt lat="45.92292" lon="6.48994">
        <ele>1499</ele>
        <time>2019-02-06T15:24:15.000Z</time>
      </trkpt>
      <trkpt lat="45.92286" lon="6.4899">
        <ele>1498</ele>
        <time>2019-02-06T15:24:16.000Z</time>
      </trkpt>
      <trkpt lat="45.9228" lon="6.48985">
        <ele>1496</ele>
        <time>2019-02-06T15:24:17.000Z</time>
      </trkpt>
      <trkpt lat="45.92276" lon="6.4898">
        <ele>1494.8000488281</ele>
        <time>2019-02-06T15:24:18.000Z</time>
      </trkpt>
      <trkpt lat="45.92267" lon="6.48971">
        <ele>1493.1999511719</ele>
        <time>2019-02-06T15:24:20.000Z</time>
      </trkpt>
      <trkpt lat="45.92263" lon="6.48966">
        <ele>1492.5999755859</ele>
        <time>2019-02-06T15:24:21.000Z</time>
      </trkpt>
      <trkpt lat="45.92259" lon="6.48961">
        <ele>1491.8000488281</ele>
        <time>2019-02-06T15:24:22.000Z</time>
      </trkpt>
      <trkpt lat="45.92256" lon="6.48958">
        <ele>1491.1999511719</ele>
        <time>2019-02-06T15:24:23.000Z</time>
      </trkpt>
      <trkpt lat="45.92252" lon="6.48954">
        <ele>1490.4000244141</ele>
        <time>2019-02-06T15:24:24.000Z</time>
      </trkpt>
      <trkpt lat="45.92247" lon="6.48951">
        <ele>1489.5999755859</ele>
        <time>2019-02-06T15:24:25.000Z</time>
      </trkpt>
      <trkpt lat="45.92243" lon="6.48948">
        <ele>1489</ele>
        <time>2019-02-06T15:24:26.000Z</time>
      </trkpt>
      <trkpt lat="45.92236" lon="6.48942">
        <ele>1488</ele>
        <time>2019-02-06T15:24:28.000Z</time>
      </trkpt>
      <trkpt lat="45.92229" lon="6.48936">
        <ele>1487</ele>
        <time>2019-02-06T15:24:30.000Z</time>
      </trkpt>
      <trkpt lat="45.92225" lon="6.48934">
        <ele>1486.5999755859</ele>
        <time>2019-02-06T15:24:31.000Z</time>
      </trkpt>
      <trkpt lat="45.92212" lon="6.48928">
        <ele>1485.5999755859</ele>
        <time>2019-02-06T15:24:35.000Z</time>
      </trkpt>
      <trkpt lat="45.9221" lon="6.48928">
        <ele>1485.4000244141</ele>
        <time>2019-02-06T15:24:36.000Z</time>
      </trkpt>
      <trkpt lat="45.92205" lon="6.48925">
        <ele>1484.5999755859</ele>
        <time>2019-02-06T15:24:40.000Z</time>
      </trkpt>
      <trkpt lat="45.92203" lon="6.48924">
        <ele>1484.1999511719</ele>
        <time>2019-02-06T15:24:41.000Z</time>
      </trkpt>
      <trkpt lat="45.92192" lon="6.48912">
        <ele>1483.4000244141</ele>
        <time>2019-02-06T15:24:47.000Z</time>
      </trkpt>
      <trkpt lat="45.92188" lon="6.48908">
        <ele>1483.1999511719</ele>
        <time>2019-02-06T15:24:49.000Z</time>
      </trkpt>
      <trkpt lat="45.92182" lon="6.48899">
        <ele>1482.4000244141</ele>
        <time>2019-02-06T15:24:55.000Z</time>
      </trkpt>
      <trkpt lat="45.9218" lon="6.48897">
        <ele>1482</ele>
        <time>2019-02-06T15:25:02.000Z</time>
      </trkpt>
      <trkpt lat="45.9218" lon="6.48897">
        <ele>1482</ele>
        <time>2019-02-06T15:25:14.000Z</time>
      </trkpt>
      <trkpt lat="45.9218" lon="6.48897">
        <ele>1480.8000488281</ele>
        <time>2019-02-06T15:25:22.000Z</time>
      </trkpt>
      <trkpt lat="45.9218" lon="6.48897">
        <ele>1479.8000488281</ele>
        <time>2019-02-06T15:25:24.000Z</time>
      </trkpt>
      <trkpt lat="45.9218" lon="6.48897">
        <ele>1479.5999755859</ele>
        <time>2019-02-06T15:25:25.000Z</time>
      </trkpt>
      <trkpt lat="45.9218" lon="6.48897">
        <ele>1480.5999755859</ele>
        <time>2019-02-06T15:25:28.000Z</time>
      </trkpt>
      <trkpt lat="45.9218" lon="6.48897">
        <ele>1481.8000488281</ele>
        <time>2019-02-06T15:25:29.000Z</time>
      </trkpt>
      <trkpt lat="45.92179" lon="6.48897">
        <ele>1483.1999511719</ele>
        <time>2019-02-06T15:25:31.000Z</time>
      </trkpt>
      <trkpt lat="45.9218" lon="6.48897">
        <ele>1483.5999755859</ele>
        <time>2019-02-06T15:25:34.000Z</time>
      </trkpt>
      <trkpt lat="45.9218" lon="6.48897">
        <ele>1482.1999511719</ele>
        <time>2019-02-06T15:25:39.000Z</time>
      </trkpt>
      <trkpt lat="45.92179" lon="6.48897">
        <ele>1482</ele>
        <time>2019-02-06T15:25:41.000Z</time>
      </trkpt>
      <trkpt lat="45.92179" lon="6.48897">
        <ele>1481</ele>
        <time>2019-02-06T15:25:44.000Z</time>
      </trkpt>
      <trkpt lat="45.92178" lon="6.48897">
        <ele>1482</ele>
        <time>2019-02-06T15:25:51.000Z</time>
      </trkpt>
      <trkpt lat="45.92177" lon="6.48895">
        <ele>1482.8000488281</ele>
        <time>2019-02-06T15:25:52.000Z</time>
      </trkpt>
      <trkpt lat="45.92176" lon="6.48894">
        <ele>1483.4000244141</ele>
        <time>2019-02-06T15:25:53.000Z</time>
      </trkpt>
      <trkpt lat="45.92174" lon="6.48893">
        <ele>1482.4000244141</ele>
        <time>2019-02-06T15:25:57.000Z</time>
      </trkpt>
      <trkpt lat="45.9217" lon="6.48891">
        <ele>1481.8000488281</ele>
        <time>2019-02-06T15:26:00.000Z</time>
      </trkpt>
      <trkpt lat="45.92169" lon="6.48889">
        <ele>1481.5999755859</ele>
        <time>2019-02-06T15:26:01.000Z</time>
      </trkpt>
      <trkpt lat="45.92165" lon="6.48886">
        <ele>1481.5999755859</ele>
        <time>2019-02-06T15:26:04.000Z</time>
      </trkpt>
      <trkpt lat="45.92162" lon="6.4888">
        <ele>1481.4000244141</ele>
        <time>2019-02-06T15:26:10.000Z</time>
      </trkpt>
      <trkpt lat="45.92158" lon="6.48872">
        <ele>1481.5999755859</ele>
        <time>2019-02-06T15:26:15.000Z</time>
      </trkpt>
      <trkpt lat="45.92157" lon="6.48866">
        <ele>1482.1999511719</ele>
        <time>2019-02-06T15:26:19.000Z</time>
      </trkpt>
      <trkpt lat="45.92156" lon="6.48861">
        <ele>1482.1999511719</ele>
        <time>2019-02-06T15:26:21.000Z</time>
      </trkpt>
      <trkpt lat="45.92155" lon="6.48855">
        <ele>1482.4000244141</ele>
        <time>2019-02-06T15:26:27.000Z</time>
      </trkpt>
      <trkpt lat="45.92155" lon="6.48855">
        <ele>1482.8000488281</ele>
        <time>2019-02-06T15:26:28.000Z</time>
      </trkpt>
      <trkpt lat="45.92154" lon="6.48847">
        <ele>1483.8000488281</ele>
        <time>2019-02-06T15:26:33.000Z</time>
      </trkpt>
      <trkpt lat="45.92154" lon="6.48846">
        <ele>1483.8000488281</ele>
        <time>2019-02-06T15:26:34.000Z</time>
      </trkpt>
      <trkpt lat="45.92153" lon="6.48841">
        <ele>1484.4000244141</ele>
        <time>2019-02-06T15:26:39.000Z</time>
      </trkpt>
      <trkpt lat="45.92154" lon="6.48839">
        <ele>1484.4000244141</ele>
        <time>2019-02-06T15:26:41.000Z</time>
      </trkpt>
      <trkpt lat="45.92155" lon="6.48836">
        <ele>1484.8000488281</ele>
        <time>2019-02-06T15:26:43.000Z</time>
      </trkpt>
      <trkpt lat="45.92157" lon="6.48834">
        <ele>1485</ele>
        <time>2019-02-06T15:26:45.000Z</time>
      </trkpt>
      <trkpt lat="45.92161" lon="6.4883">
        <ele>1485.4000244141</ele>
        <time>2019-02-06T15:26:51.000Z</time>
      </trkpt>
      <trkpt lat="45.92166" lon="6.48825">
        <ele>1485.8000488281</ele>
        <time>2019-02-06T15:26:58.000Z</time>
      </trkpt>
      <trkpt lat="45.92167" lon="6.48823">
        <ele>1485.8000488281</ele>
        <time>2019-02-06T15:26:59.000Z</time>
      </trkpt>
      <trkpt lat="45.9217" lon="6.48819">
        <ele>1486.4000244141</ele>
        <time>2019-02-06T15:27:04.000Z</time>
      </trkpt>
      <trkpt lat="45.92175" lon="6.48812">
        <ele>1486.1999511719</ele>
        <time>2019-02-06T15:27:10.000Z</time>
      </trkpt>
      <trkpt lat="45.92176" lon="6.48804">
        <ele>1486.4000244141</ele>
        <time>2019-02-06T15:27:16.000Z</time>
      </trkpt>
      <trkpt lat="45.92176" lon="6.488">
        <ele>1486.4000244141</ele>
        <time>2019-02-06T15:27:21.000Z</time>
      </trkpt>
      <trkpt lat="45.92175" lon="6.4879">
        <ele>1487</ele>
        <time>2019-02-06T15:27:27.000Z</time>
      </trkpt>
      <trkpt lat="45.92174" lon="6.48784">
        <ele>1487.4000244141</ele>
        <time>2019-02-06T15:27:33.000Z</time>
      </trkpt>
      <trkpt lat="45.92172" lon="6.48775">
        <ele>1487.8000488281</ele>
        <time>2019-02-06T15:27:40.000Z</time>
      </trkpt>
      <trkpt lat="45.92172" lon="6.48773">
        <ele>1488</ele>
        <time>2019-02-06T15:27:41.000Z</time>
      </trkpt>
      <trkpt lat="45.92169" lon="6.48764">
        <ele>1488.4000244141</ele>
        <time>2019-02-06T15:27:46.000Z</time>
      </trkpt>
      <trkpt lat="45.92167" lon="6.48758">
        <ele>1488.8000488281</ele>
        <time>2019-02-06T15:27:52.000Z</time>
      </trkpt>
      <trkpt lat="45.92167" lon="6.48754">
        <ele>1489</ele>
        <time>2019-02-06T15:27:54.000Z</time>
      </trkpt>
      <trkpt lat="45.92164" lon="6.48747">
        <ele>1489.5999755859</ele>
        <time>2019-02-06T15:28:00.000Z</time>
      </trkpt>
      <trkpt lat="45.92164" lon="6.48742">
        <ele>1490</ele>
        <time>2019-02-06T15:28:04.000Z</time>
      </trkpt>
      <trkpt lat="45.92163" lon="6.48741">
        <ele>1490.1999511719</ele>
        <time>2019-02-06T15:28:07.000Z</time>
      </trkpt>
      <trkpt lat="45.92161" lon="6.48737">
        <ele>1490.5999755859</ele>
        <time>2019-02-06T15:28:12.000Z</time>
      </trkpt>
      <trkpt lat="45.92159" lon="6.48731">
        <ele>1491.1999511719</ele>
        <time>2019-02-06T15:28:16.000Z</time>
      </trkpt>
      <trkpt lat="45.92158" lon="6.48729">
        <ele>1491.4000244141</ele>
        <time>2019-02-06T15:28:17.000Z</time>
      </trkpt>
      <trkpt lat="45.92157" lon="6.48723">
        <ele>1491.4000244141</ele>
        <time>2019-02-06T15:28:22.000Z</time>
      </trkpt>
      <trkpt lat="45.92155" lon="6.48715">
        <ele>1491.4000244141</ele>
        <time>2019-02-06T15:28:28.000Z</time>
      </trkpt>
      <trkpt lat="45.92153" lon="6.48707">
        <ele>1491.8000488281</ele>
        <time>2019-02-06T15:28:33.000Z</time>
      </trkpt>
      <trkpt lat="45.92151" lon="6.48704">
        <ele>1492.1999511719</ele>
        <time>2019-02-06T15:28:37.000Z</time>
      </trkpt>
      <trkpt lat="45.9215" lon="6.487">
        <ele>1492.4000244141</ele>
        <time>2019-02-06T15:28:40.000Z</time>
      </trkpt>
      <trkpt lat="45.92145" lon="6.48694">
        <ele>1493</ele>
        <time>2019-02-06T15:28:47.000Z</time>
      </trkpt>
      <trkpt lat="45.92142" lon="6.48691">
        <ele>1493.1999511719</ele>
        <time>2019-02-06T15:28:50.000Z</time>
      </trkpt>
      <trkpt lat="45.9214" lon="6.48688">
        <ele>1493.1999511719</ele>
        <time>2019-02-06T15:28:54.000Z</time>
      </trkpt>
      <trkpt lat="45.92136" lon="6.48683">
        <ele>1493.4000244141</ele>
        <time>2019-02-06T15:29:00.000Z</time>
      </trkpt>
      <trkpt lat="45.92133" lon="6.48677">
        <ele>1493.1999511719</ele>
        <time>2019-02-06T15:29:05.000Z</time>
      </trkpt>
      <trkpt lat="45.92131" lon="6.48675">
        <ele>1493.4000244141</ele>
        <time>2019-02-06T15:29:07.000Z</time>
      </trkpt>
      <trkpt lat="45.92127" lon="6.48667">
        <ele>1493.8000488281</ele>
        <time>2019-02-06T15:29:14.000Z</time>
      </trkpt>
      <trkpt lat="45.92122" lon="6.4866">
        <ele>1494.1999511719</ele>
        <time>2019-02-06T15:29:21.000Z</time>
      </trkpt>
      <trkpt lat="45.9212" lon="6.48656">
        <ele>1494.1999511719</ele>
        <time>2019-02-06T15:29:25.000Z</time>
      </trkpt>
      <trkpt lat="45.92119" lon="6.48652">
        <ele>1494.5999755859</ele>
        <time>2019-02-06T15:29:28.000Z</time>
      </trkpt>
      <trkpt lat="45.92119" lon="6.48644">
        <ele>1495</ele>
        <time>2019-02-06T15:29:34.000Z</time>
      </trkpt>
      <trkpt lat="45.9212" lon="6.48642">
        <ele>1495.1999511719</ele>
        <time>2019-02-06T15:29:38.000Z</time>
      </trkpt>
      <trkpt lat="45.9212" lon="6.48642">
        <ele>1495.1999511719</ele>
        <time>2019-02-06T15:29:40.000Z</time>
      </trkpt>
      <trkpt lat="45.9212" lon="6.48642">
        <ele>1494.1999511719</ele>
        <time>2019-02-06T15:29:47.000Z</time>
      </trkpt>
      <trkpt lat="45.9212" lon="6.48642">
        <ele>1493.8000488281</ele>
        <time>2019-02-06T15:29:49.000Z</time>
      </trkpt>
      <trkpt lat="45.9212" lon="6.48642">
        <ele>1495.4000244141</ele>
        <time>2019-02-06T15:29:52.000Z</time>
      </trkpt>
      <trkpt lat="45.9212" lon="6.48642">
        <ele>1496.4000244141</ele>
        <time>2019-02-06T15:29:59.000Z</time>
      </trkpt>
      <trkpt lat="45.9212" lon="6.48642">
        <ele>1496.5999755859</ele>
        <time>2019-02-06T15:30:00.000Z</time>
      </trkpt>
      <trkpt lat="45.9212" lon="6.48642">
        <ele>1495.5999755859</ele>
        <time>2019-02-06T15:30:04.000Z</time>
      </trkpt>
      <trkpt lat="45.9212" lon="6.48642">
        <ele>1495.1999511719</ele>
        <time>2019-02-06T15:30:11.000Z</time>
      </trkpt>
      <trkpt lat="45.92122" lon="6.48639">
        <ele>1495.8000488281</ele>
        <time>2019-02-06T15:30:18.000Z</time>
      </trkpt>
      <trkpt lat="45.92122" lon="6.48638">
        <ele>1495.8000488281</ele>
        <time>2019-02-06T15:30:19.000Z</time>
      </trkpt>
      <trkpt lat="45.92127" lon="6.48626">
        <ele>1495.5999755859</ele>
        <time>2019-02-06T15:30:24.000Z</time>
      </trkpt>
      <trkpt lat="45.92137" lon="6.48609">
        <ele>1495.1999511719</ele>
        <time>2019-02-06T15:30:29.000Z</time>
      </trkpt>
      <trkpt lat="45.92141" lon="6.486">
        <ele>1494.4000244141</ele>
        <time>2019-02-06T15:30:32.000Z</time>
      </trkpt>
      <trkpt lat="45.92146" lon="6.4859">
        <ele>1494</ele>
        <time>2019-02-06T15:30:35.000Z</time>
      </trkpt>
      <trkpt lat="45.92151" lon="6.48578">
        <ele>1493.4000244141</ele>
        <time>2019-02-06T15:30:39.000Z</time>
      </trkpt>
      <trkpt lat="45.92158" lon="6.48556">
        <ele>1492.4000244141</ele>
        <time>2019-02-06T15:30:45.000Z</time>
      </trkpt>
      <trkpt lat="45.9216" lon="6.48551">
        <ele>1492.1999511719</ele>
        <time>2019-02-06T15:30:46.000Z</time>
      </trkpt>
      <trkpt lat="45.92168" lon="6.48529">
        <ele>1491.1999511719</ele>
        <time>2019-02-06T15:30:50.000Z</time>
      </trkpt>
      <trkpt lat="45.92171" lon="6.48521">
        <ele>1490.8000488281</ele>
        <time>2019-02-06T15:30:51.000Z</time>
      </trkpt>
      <trkpt lat="45.9218" lon="6.48502">
        <ele>1490.1999511719</ele>
        <time>2019-02-06T15:30:53.000Z</time>
      </trkpt>
      <trkpt lat="45.92191" lon="6.48486">
        <ele>1488.1999511719</ele>
        <time>2019-02-06T15:30:55.000Z</time>
      </trkpt>
      <trkpt lat="45.92195" lon="6.48479">
        <ele>1487</ele>
        <time>2019-02-06T15:30:56.000Z</time>
      </trkpt>
      <trkpt lat="45.92205" lon="6.48466">
        <ele>1485.4000244141</ele>
        <time>2019-02-06T15:30:58.000Z</time>
      </trkpt>
      <trkpt lat="45.92211" lon="6.4846">
        <ele>1484.1999511719</ele>
        <time>2019-02-06T15:30:59.000Z</time>
      </trkpt>
      <trkpt lat="45.92215" lon="6.48455">
        <ele>1483</ele>
        <time>2019-02-06T15:31:00.000Z</time>
      </trkpt>
      <trkpt lat="45.9222" lon="6.4845">
        <ele>1481.8000488281</ele>
        <time>2019-02-06T15:31:01.000Z</time>
      </trkpt>
      <trkpt lat="45.92232" lon="6.48441">
        <ele>1480</ele>
        <time>2019-02-06T15:31:03.000Z</time>
      </trkpt>
      <trkpt lat="45.92237" lon="6.48437">
        <ele>1479.1999511719</ele>
        <time>2019-02-06T15:31:04.000Z</time>
      </trkpt>
      <trkpt lat="45.92242" lon="6.48434">
        <ele>1477.8000488281</ele>
        <time>2019-02-06T15:31:05.000Z</time>
      </trkpt>
      <trkpt lat="45.9225" lon="6.48428">
        <ele>1476.1999511719</ele>
        <time>2019-02-06T15:31:07.000Z</time>
      </trkpt>
      <trkpt lat="45.92251" lon="6.48425">
        <ele>1475.8000488281</ele>
        <time>2019-02-06T15:31:08.000Z</time>
      </trkpt>
      <trkpt lat="45.92267" lon="6.48407">
        <ele>1475.1999511719</ele>
        <time>2019-02-06T15:31:15.000Z</time>
      </trkpt>
      <trkpt lat="45.92277" lon="6.48401">
        <ele>1474.1999511719</ele>
        <time>2019-02-06T15:31:18.000Z</time>
      </trkpt>
      <trkpt lat="45.92291" lon="6.48395">
        <ele>1473.5999755859</ele>
        <time>2019-02-06T15:31:22.000Z</time>
      </trkpt>
      <trkpt lat="45.92298" lon="6.48392">
        <ele>1473</ele>
        <time>2019-02-06T15:31:24.000Z</time>
      </trkpt>
      <trkpt lat="45.92311" lon="6.48386">
        <ele>1472</ele>
        <time>2019-02-06T15:31:29.000Z</time>
      </trkpt>
      <trkpt lat="45.92313" lon="6.48385">
        <ele>1472</ele>
        <time>2019-02-06T15:31:30.000Z</time>
      </trkpt>
      <trkpt lat="45.92322" lon="6.4838">
        <ele>1471.8000488281</ele>
        <time>2019-02-06T15:31:35.000Z</time>
      </trkpt>
      <trkpt lat="45.92327" lon="6.48378">
        <ele>1471.8000488281</ele>
        <time>2019-02-06T15:31:42.000Z</time>
      </trkpt>
      <trkpt lat="45.92327" lon="6.48378">
        <ele>1471.5999755859</ele>
        <time>2019-02-06T15:31:53.000Z</time>
      </trkpt>
      <trkpt lat="45.92327" lon="6.48378">
        <ele>1471.1999511719</ele>
        <time>2019-02-06T15:31:55.000Z</time>
      </trkpt>
      <trkpt lat="45.92327" lon="6.48378">
        <ele>1470.5999755859</ele>
        <time>2019-02-06T15:31:56.000Z</time>
      </trkpt>
      <trkpt lat="45.92327" lon="6.48378">
        <ele>1471.8000488281</ele>
        <time>2019-02-06T15:32:03.000Z</time>
      </trkpt>
      <trkpt lat="45.92327" lon="6.48378">
        <ele>1472.4000244141</ele>
        <time>2019-02-06T15:32:04.000Z</time>
      </trkpt>
      <trkpt lat="45.92328" lon="6.48378">
        <ele>1472.8000488281</ele>
        <time>2019-02-06T15:32:07.000Z</time>
      </trkpt>
      <trkpt lat="45.92329" lon="6.48377">
        <ele>1472.1999511719</ele>
        <time>2019-02-06T15:32:09.000Z</time>
      </trkpt>
      <trkpt lat="45.92331" lon="6.48375">
        <ele>1471.8000488281</ele>
        <time>2019-02-06T15:32:11.000Z</time>
      </trkpt>
      <trkpt lat="45.92333" lon="6.48375">
        <ele>1471.4000244141</ele>
        <time>2019-02-06T15:32:14.000Z</time>
      </trkpt>
      <trkpt lat="45.9234" lon="6.48371">
        <ele>1471.5999755859</ele>
        <time>2019-02-06T15:32:19.000Z</time>
      </trkpt>
      <trkpt lat="45.92347" lon="6.48367">
        <ele>1471.5999755859</ele>
        <time>2019-02-06T15:32:25.000Z</time>
      </trkpt>
      <trkpt lat="45.92353" lon="6.48364">
        <ele>1471.4000244141</ele>
        <time>2019-02-06T15:32:31.000Z</time>
      </trkpt>
      <trkpt lat="45.92357" lon="6.48359">
        <ele>1471</ele>
        <time>2019-02-06T15:32:36.000Z</time>
      </trkpt>
      <trkpt lat="45.92357" lon="6.48359">
        <ele>1471</ele>
        <time>2019-02-06T15:32:37.000Z</time>
      </trkpt>
      <trkpt lat="45.9236" lon="6.48356">
        <ele>1470.5999755859</ele>
        <time>2019-02-06T15:32:41.000Z</time>
      </trkpt>
      <trkpt lat="45.92359" lon="6.48357">
        <ele>1470.4000244141</ele>
        <time>2019-02-06T15:32:44.000Z</time>
      </trkpt>
      <trkpt lat="45.92358" lon="6.48358">
        <ele>1469.8000488281</ele>
        <time>2019-02-06T15:32:50.000Z</time>
      </trkpt>
      <trkpt lat="45.92358" lon="6.48358">
        <ele>1470</ele>
        <time>2019-02-06T15:33:03.000Z</time>
      </trkpt>
      <trkpt lat="45.92358" lon="6.48358">
        <ele>1470</ele>
        <time>2019-02-06T15:33:13.000Z</time>
      </trkpt>
      <trkpt lat="45.92357" lon="6.48358">
        <ele>1468.8000488281</ele>
        <time>2019-02-06T15:33:17.000Z</time>
      </trkpt>
      <trkpt lat="45.92357" lon="6.48359">
        <ele>1468.1999511719</ele>
        <time>2019-02-06T15:33:21.000Z</time>
      </trkpt>
      <trkpt lat="45.92355" lon="6.48358">
        <ele>1470.8000488281</ele>
        <time>2019-02-06T15:33:23.000Z</time>
      </trkpt>
      <trkpt lat="45.92353" lon="6.4836">
        <ele>1472.1999511719</ele>
        <time>2019-02-06T15:33:25.000Z</time>
      </trkpt>
      <trkpt lat="45.9235" lon="6.48361">
        <ele>1471.8000488281</ele>
        <time>2019-02-06T15:33:27.000Z</time>
      </trkpt>
      <trkpt lat="45.9235" lon="6.48361">
        <ele>1470.4000244141</ele>
        <time>2019-02-06T15:33:29.000Z</time>
      </trkpt>
      <trkpt lat="45.9235" lon="6.48361">
        <ele>1469.8000488281</ele>
        <time>2019-02-06T15:33:31.000Z</time>
      </trkpt>
      <trkpt lat="45.9235" lon="6.48361">
        <ele>1470.5999755859</ele>
        <time>2019-02-06T15:33:38.000Z</time>
      </trkpt>
    </trkseg>
  </trk>
</gpx>